<?xml version='1.0' encoding='UTF-8'?><gpx version="1.1" creator="JPX - https://github.com/jenetics/jpx" xmlns="http://www.topografix.com/GPX/1/1"><trk><trkseg><trkpt lat="45.89605771986721" lon="13.381287499308234"><ele>25.999999999999996</ele><time>2026-04-18T07:12:04.001Z</time></trkpt><trkpt lat="45.89599179172306" lon="13.381324272197773"><ele>26.0</ele><time>2026-04-18T07:12:05.001Z</time></trkpt><trkpt lat="45.89591117623788" lon="13.381328198588474"><ele>26.0</ele><time>2026-04-18T07:12:07.001Z</time></trkpt><trkpt lat="45.895861383405915" lon="13.381392183298598"><ele>26.0</ele><time>2026-04-18T07:12:09.001Z</time></trkpt><trkpt lat="45.8958463819557" lon="13.381512936551601"><ele>25.999999999999996</ele><time>2026-04-18T07:12:11.001Z</time></trkpt><trkpt lat="45.89582895379116" lon="13.381613948731026"><ele>26.0</ele><time>2026-04-18T07:12:13.001Z</time></trkpt><trkpt lat="45.89580842915188" lon="13.38172143115377"><ele>26.0</ele><time>2026-04-18T07:12:15.001Z</time></trkpt><trkpt lat="45.89578262592182" lon="13.381819177924937"><ele>26.0</ele><time>2026-04-18T07:12:17.001Z</time></trkpt><trkpt lat="45.89576718798598" lon="13.38194745673746"><ele>26.0</ele><time>2026-04-18T07:12:19.001Z</time></trkpt><trkpt lat="45.89580955793132" lon="13.382059920199882"><ele>26.0</ele><time>2026-04-18T07:12:23.001Z</time></trkpt><trkpt lat="45.89594492547767" lon="13.382008146599969"><ele>26.0</ele><time>2026-04-18T07:12:25.001Z</time></trkpt><trkpt lat="45.89606631359649" lon="13.381959134523672"><ele>26.0</ele><time>2026-04-18T07:12:26.001Z</time></trkpt><trkpt lat="45.8962083387735" lon="13.38189268672409"><ele>26.0</ele><time>2026-04-18T07:12:27.001Z</time></trkpt><trkpt lat="45.89638816254605" lon="13.381815342962337"><ele>26.0</ele><time>2026-04-18T07:12:28.001Z</time></trkpt><trkpt lat="45.89658393100483" lon="13.381712607486664"><ele>26.0</ele><time>2026-04-18T07:12:29.001Z</time></trkpt><trkpt lat="45.896799782531566" lon="13.381615871446758"><ele>26.0</ele><time>2026-04-18T07:12:30.001Z</time></trkpt><trkpt lat="45.89703700565918" lon="13.381507729176693"><ele>26.0</ele><time>2026-04-18T07:12:31.001Z</time></trkpt><trkpt lat="45.89728724228729" lon="13.381400022400273"><ele>26.0</ele><time>2026-04-18T07:12:32.001Z</time></trkpt><trkpt lat="45.89753827327124" lon="13.381289751983884"><ele>26.0</ele><time>2026-04-18T07:12:33.001Z</time></trkpt><trkpt lat="45.89779355058835" lon="13.381183998151114"><ele>26.0</ele><time>2026-04-18T07:12:34.001Z</time></trkpt><trkpt lat="45.898053803240884" lon="13.381078902658313"><ele>26.0</ele><time>2026-04-18T07:12:35.001Z</time></trkpt><trkpt lat="45.89832658515316" lon="13.380996969185947"><ele>26.0</ele><time>2026-04-18T07:12:36.001Z</time></trkpt><trkpt lat="45.89858845479468" lon="13.380867968074162"><ele>25.0</ele><time>2026-04-18T07:12:37.001Z</time></trkpt><trkpt lat="45.89885806376572" lon="13.380765039761089"><ele>24.0</ele><time>2026-04-18T07:12:38.001Z</time></trkpt><trkpt lat="45.89913326919658" lon="13.380667777351789"><ele>25.0</ele><time>2026-04-18T07:12:39.001Z</time></trkpt><trkpt lat="45.89942242331685" lon="13.380585478884342"><ele>26.0</ele><time>2026-04-18T07:12:40.001Z</time></trkpt><trkpt lat="45.89973469136458" lon="13.380526528686913"><ele>26.0</ele><time>2026-04-18T07:12:41.001Z</time></trkpt><trkpt lat="45.90006510245072" lon="13.380469805130364"><ele>26.0</ele><time>2026-04-18T07:12:42.001Z</time></trkpt><trkpt lat="45.90041750300554" lon="13.3804134540256"><ele>26.0</ele><time>2026-04-18T07:12:43.001Z</time></trkpt><trkpt lat="45.90079237166756" lon="13.380364502693956"><ele>26.0</ele><time>2026-04-18T07:12:44.001Z</time></trkpt><trkpt lat="45.90118219819366" lon="13.380317650571143"><ele>26.0</ele><time>2026-04-18T07:12:45.001Z</time></trkpt><trkpt lat="45.901582251999145" lon="13.380258599755011"><ele>26.0</ele><time>2026-04-18T07:12:46.001Z</time></trkpt><trkpt lat="45.90198749860942" lon="13.380185688646447"><ele>26.0</ele><time>2026-04-18T07:12:47.001Z</time></trkpt><trkpt lat="45.902397071122195" lon="13.380097087369075"><ele>26.0</ele><time>2026-04-18T07:12:48.001Z</time></trkpt><trkpt lat="45.902799167337534" lon="13.380007108625058"><ele>26.5</ele><time>2026-04-18T07:12:49.001Z</time></trkpt><trkpt lat="45.90319311038005" lon="13.379914583052653"><ele>27.0</ele><time>2026-04-18T07:12:50.001Z</time></trkpt><trkpt lat="45.90358181660961" lon="13.379832841194132"><ele>27.0</ele><time>2026-04-18T07:12:51.001Z</time></trkpt><trkpt lat="45.90396104389636" lon="13.379756017311209"><ele>27.0</ele><time>2026-04-18T07:12:52.001Z</time></trkpt><trkpt lat="45.904333792343635" lon="13.379679517705782"><ele>26.5</ele><time>2026-04-18T07:12:53.001Z</time></trkpt><trkpt lat="45.90469488215498" lon="13.379613273574154"><ele>26.0</ele><time>2026-04-18T07:12:54.001Z</time></trkpt><trkpt lat="45.90505042265452" lon="13.379565976059375"><ele>27.0</ele><time>2026-04-18T07:12:55.001Z</time></trkpt><trkpt lat="45.905396849545916" lon="13.379529003151879"><ele>28.0</ele><time>2026-04-18T07:12:56.001Z</time></trkpt><trkpt lat="45.90573212926288" lon="13.379489757315367"><ele>28.5</ele><time>2026-04-18T07:12:57.001Z</time></trkpt><trkpt lat="45.90605745290159" lon="13.379451302901108"><ele>29.0</ele><time>2026-04-18T07:12:58.001Z</time></trkpt><trkpt lat="45.906375928839715" lon="13.379415592488742"><ele>29.0</ele><time>2026-04-18T07:12:59.001Z</time></trkpt><trkpt lat="45.906685367389194" lon="13.379370517671996"><ele>29.0</ele><time>2026-04-18T07:13:00.001Z</time></trkpt><trkpt lat="45.906987959459606" lon="13.379296208039946"><ele>29.0</ele><time>2026-04-18T07:13:01.001Z</time></trkpt><trkpt lat="45.90729426953798" lon="13.379189595324425"><ele>29.0</ele><time>2026-04-18T07:13:02.001Z</time></trkpt><trkpt lat="45.907606024549146" lon="13.379052130732079"><ele>29.0</ele><time>2026-04-18T07:13:03.001Z</time></trkpt><trkpt lat="45.907917928657064" lon="13.378938486735697"><ele>29.0</ele><time>2026-04-18T07:13:04.001Z</time></trkpt><trkpt lat="45.908232189241424" lon="13.378840757171533"><ele>29.0</ele><time>2026-04-18T07:13:05.001Z</time></trkpt><trkpt lat="45.90854902945794" lon="13.378786969931538"><ele>29.0</ele><time>2026-04-18T07:13:06.001Z</time></trkpt><trkpt lat="45.90886178908642" lon="13.37873702308689"><ele>29.0</ele><time>2026-04-18T07:13:07.001Z</time></trkpt><trkpt lat="45.909168045318296" lon="13.378697056878588"><ele>29.0</ele><time>2026-04-18T07:13:08.001Z</time></trkpt><trkpt lat="45.909458416041495" lon="13.378651122167259"><ele>28.5</ele><time>2026-04-18T07:13:09.001Z</time></trkpt><trkpt lat="45.90972895901576" lon="13.378671543444977"><ele>28.0</ele><time>2026-04-18T07:13:10.001Z</time></trkpt><trkpt lat="45.90997282257932" lon="13.37865393562241"><ele>28.666666666666668</ele><time>2026-04-18T07:13:11.001Z</time></trkpt><trkpt lat="45.91019551924489" lon="13.378673165512883"><ele>29.333333333333336</ele><time>2026-04-18T07:13:12.001Z</time></trkpt><trkpt lat="45.91040444447354" lon="13.378696318235125"><ele>30.0</ele><time>2026-04-18T07:13:13.001Z</time></trkpt><trkpt lat="45.91060594552448" lon="13.378713431558118"><ele>30.0</ele><time>2026-04-18T07:13:14.001Z</time></trkpt><trkpt lat="45.910800640301574" lon="13.378712346754494"><ele>30.0</ele><time>2026-04-18T07:13:15.001Z</time></trkpt><trkpt lat="45.910985810940865" lon="13.378684205335777"><ele>30.0</ele><time>2026-04-18T07:13:16.001Z</time></trkpt><trkpt lat="45.91115740880559" lon="13.378630549143205"><ele>30.333333333333336</ele><time>2026-04-18T07:13:17.001Z</time></trkpt><trkpt lat="45.911314798303884" lon="13.378559682940312"><ele>30.666666666666668</ele><time>2026-04-18T07:13:18.001Z</time></trkpt><trkpt lat="45.91145563866388" lon="13.378475255642966"><ele>31.0</ele><time>2026-04-18T07:13:19.001Z</time></trkpt><trkpt lat="45.911591264040666" lon="13.378383786921521"><ele>31.0</ele><time>2026-04-18T07:13:20.001Z</time></trkpt><trkpt lat="45.911730068997926" lon="13.37827288359638"><ele>31.0</ele><time>2026-04-18T07:13:21.001Z</time></trkpt><trkpt lat="45.91186948924917" lon="13.378139882367417"><ele>31.0</ele><time>2026-04-18T07:13:22.001Z</time></trkpt><trkpt lat="45.912007074817076" lon="13.377990542723456"><ele>31.333333333333336</ele><time>2026-04-18T07:13:23.001Z</time></trkpt><trkpt lat="45.91214160474351" lon="13.377845325932286"><ele>31.666666666666664</ele><time>2026-04-18T07:13:24.001Z</time></trkpt><trkpt lat="45.912273977822316" lon="13.377710559153918"><ele>32.0</ele><time>2026-04-18T07:13:25.001Z</time></trkpt><trkpt lat="45.9124032669824" lon="13.377576525547932"><ele>32.0</ele><time>2026-04-18T07:13:26.002Z</time></trkpt><trkpt lat="45.912540085932676" lon="13.377458360655123"><ele>32.0</ele><time>2026-04-18T07:13:27.002Z</time></trkpt><trkpt lat="45.91266925163453" lon="13.377323146057817"><ele>32.0</ele><time>2026-04-18T07:13:28.002Z</time></trkpt><trkpt lat="45.912792243880354" lon="13.377194393950118"><ele>32.5</ele><time>2026-04-18T07:13:29.002Z</time></trkpt><trkpt lat="45.91290488201097" lon="13.377079218633208"><ele>33.0</ele><time>2026-04-18T07:13:30.002Z</time></trkpt><trkpt lat="45.913012256834705" lon="13.376955959570505"><ele>33.5</ele><time>2026-04-18T07:13:31.002Z</time></trkpt><trkpt lat="45.91314415601457" lon="13.37686789049096"><ele>34.0</ele><time>2026-04-18T07:13:32.002Z</time></trkpt><trkpt lat="45.91329205878832" lon="13.376807404110378"><ele>33.66666666666667</ele><time>2026-04-18T07:13:33.002Z</time></trkpt><trkpt lat="45.91345959346628" lon="13.376784902566245"><ele>33.333333333333336</ele><time>2026-04-18T07:13:34.002Z</time></trkpt><trkpt lat="45.913624280606165" lon="13.376721157805614"><ele>33.0</ele><time>2026-04-18T07:13:35.002Z</time></trkpt><trkpt lat="45.9137763122483" lon="13.376632067215587"><ele>33.0</ele><time>2026-04-18T07:13:36.002Z</time></trkpt><trkpt lat="45.91393067546603" lon="13.376586338450013"><ele>33.0</ele><time>2026-04-18T07:13:37.002Z</time></trkpt><trkpt lat="45.914069941473706" lon="13.376531978307034"><ele>33.0</ele><time>2026-04-18T07:13:38.002Z</time></trkpt><trkpt lat="45.914211946560286" lon="13.376487832168518"><ele>33.0</ele><time>2026-04-18T07:13:39.002Z</time></trkpt><trkpt lat="45.91436427861629" lon="13.376447696815811"><ele>33.0</ele><time>2026-04-18T07:13:40.002Z</time></trkpt><trkpt lat="45.914522283185" lon="13.376412327469499"><ele>33.0</ele><time>2026-04-18T07:13:41.002Z</time></trkpt><trkpt lat="45.914687870070075" lon="13.376382914515242"><ele>33.0</ele><time>2026-04-18T07:13:42.002Z</time></trkpt><trkpt lat="45.91485360911397" lon="13.376354112803664"><ele>32.666666666666664</ele><time>2026-04-18T07:13:43.002Z</time></trkpt><trkpt lat="45.91502463330763" lon="13.37632387821947"><ele>32.33333333333333</ele><time>2026-04-18T07:13:44.001Z</time></trkpt><trkpt lat="45.91518795432281" lon="13.376292612404683"><ele>32.0</ele><time>2026-04-18T07:13:45.001Z</time></trkpt><trkpt lat="45.9153501651473" lon="13.37626155912724"><ele>32.666666666666664</ele><time>2026-04-18T07:13:46.001Z</time></trkpt><trkpt lat="45.91551220442268" lon="13.376234201709696"><ele>33.333333333333336</ele><time>2026-04-18T07:13:47.001Z</time></trkpt><trkpt lat="45.91566806081903" lon="13.376213058587416"><ele>34.0</ele><time>2026-04-18T07:13:48.001Z</time></trkpt><trkpt lat="45.915828549772606" lon="13.376202590957185"><ele>33.66666666666667</ele><time>2026-04-18T07:13:49.001Z</time></trkpt><trkpt lat="45.91600012497744" lon="13.376174940200723"><ele>33.333333333333336</ele><time>2026-04-18T07:13:50.001Z</time></trkpt><trkpt lat="45.91617832544712" lon="13.376176067862346"><ele>33.0</ele><time>2026-04-18T07:13:51.001Z</time></trkpt><trkpt lat="45.9163602474993" lon="13.376179161818"><ele>33.0</ele><time>2026-04-18T07:13:52.001Z</time></trkpt><trkpt lat="45.91655812608091" lon="13.376193167218302"><ele>33.0</ele><time>2026-04-18T07:13:53.001Z</time></trkpt><trkpt lat="45.916790813708666" lon="13.376172555577892"><ele>33.0</ele><time>2026-04-18T07:13:54.001Z</time></trkpt><trkpt lat="45.91708120489026" lon="13.37611994834364"><ele>32.5</ele><time>2026-04-18T07:13:55.001Z</time></trkpt><trkpt lat="45.91741793559186" lon="13.376037325559093"><ele>32.0</ele><time>2026-04-18T07:13:56.001Z</time></trkpt><trkpt lat="45.917763149280326" lon="13.375996351407473"><ele>32.0</ele><time>2026-04-18T07:13:57.001Z</time></trkpt><trkpt lat="45.91807121850012" lon="13.375939354094005"><ele>32.0</ele><time>2026-04-18T07:13:58.001Z</time></trkpt><trkpt lat="45.91835052400193" lon="13.375883903255263"><ele>32.0</ele><time>2026-04-18T07:13:59.001Z</time></trkpt><trkpt lat="45.918600779763956" lon="13.375794081331863"><ele>32.0</ele><time>2026-04-18T07:14:00.001Z</time></trkpt><trkpt lat="45.91884787255309" lon="13.375687453709507"><ele>31.5</ele><time>2026-04-18T07:14:01.001Z</time></trkpt><trkpt lat="45.91910913120236" lon="13.375508655786476"><ele>31.0</ele><time>2026-04-18T07:14:02.001Z</time></trkpt><trkpt lat="45.91937050684407" lon="13.375266623031798"><ele>31.0</ele><time>2026-04-18T07:14:03.001Z</time></trkpt><trkpt lat="45.919636334270294" lon="13.37497865986574"><ele>31.0</ele><time>2026-04-18T07:14:04.001Z</time></trkpt><trkpt lat="45.91990979623552" lon="13.374680131641705"><ele>31.5</ele><time>2026-04-18T07:14:05.001Z</time></trkpt><trkpt lat="45.920171945791985" lon="13.374404437785818"><ele>32.0</ele><time>2026-04-18T07:14:06.001Z</time></trkpt><trkpt lat="45.920417685363056" lon="13.374189483969209"><ele>32.0</ele><time>2026-04-18T07:14:07.001Z</time></trkpt><trkpt lat="45.92063212768391" lon="13.374002524986524"><ele>32.0</ele><time>2026-04-18T07:14:08.001Z</time></trkpt><trkpt lat="45.920813193758576" lon="13.373812402357009"><ele>32.0</ele><time>2026-04-18T07:14:09.001Z</time></trkpt><trkpt lat="45.92097512223052" lon="13.373674976782741"><ele>32.0</ele><time>2026-04-18T07:14:10.001Z</time></trkpt><trkpt lat="45.92110439685609" lon="13.373569146096193"><ele>32.0</ele><time>2026-04-18T07:14:11.001Z</time></trkpt><trkpt lat="45.921221265533426" lon="13.373481163894308"><ele>32.0</ele><time>2026-04-18T07:14:12.001Z</time></trkpt><trkpt lat="45.921292206119695" lon="13.373440148862297"><ele>32.0</ele><time>2026-04-18T07:14:13.001Z</time></trkpt><trkpt lat="45.92139120360327" lon="13.373463035445008"><ele>32.0</ele><time>2026-04-18T07:14:15.001Z</time></trkpt><trkpt lat="45.92151400724126" lon="13.373499137611725"><ele>32.0</ele><time>2026-04-18T07:14:17.001Z</time></trkpt><trkpt lat="45.92161503228322" lon="13.373463451433498"><ele>32.0</ele><time>2026-04-18T07:14:18.001Z</time></trkpt><trkpt lat="45.921702936638546" lon="13.373362183529922"><ele>32.25</ele><time>2026-04-18T07:14:19.001Z</time></trkpt><trkpt lat="45.92175980670163" lon="13.373206209085751"><ele>32.5</ele><time>2026-04-18T07:14:20.001Z</time></trkpt><trkpt lat="45.921818014800884" lon="13.37301271066142"><ele>32.75</ele><time>2026-04-18T07:14:21.001Z</time></trkpt><trkpt lat="45.92193673833751" lon="13.372836956112764"><ele>33.0</ele><time>2026-04-18T07:14:22.001Z</time></trkpt><trkpt lat="45.92211018689861" lon="13.372716293100423"><ele>33.5</ele><time>2026-04-18T07:14:23.001Z</time></trkpt><trkpt lat="45.9223180540396" lon="13.372507738551363"><ele>34.0</ele><time>2026-04-18T07:14:24.001Z</time></trkpt><trkpt lat="45.92256856039597" lon="13.372296678250397"><ele>33.5</ele><time>2026-04-18T07:14:25.001Z</time></trkpt><trkpt lat="45.92285219986704" lon="13.372049345087087"><ele>33.0</ele><time>2026-04-18T07:14:26.001Z</time></trkpt><trkpt lat="45.923158940200594" lon="13.371776205868379"><ele>33.0</ele><time>2026-04-18T07:14:27.001Z</time></trkpt><trkpt lat="45.92348573220847" lon="13.371494868301053"><ele>33.0</ele><time>2026-04-18T07:14:28Z</time></trkpt><trkpt lat="45.92382599975158" lon="13.371190650236587"><ele>33.0</ele><time>2026-04-18T07:14:29Z</time></trkpt><trkpt lat="45.924182887599635" lon="13.370903783713015"><ele>33.0</ele><time>2026-04-18T07:14:30Z</time></trkpt><trkpt lat="45.924533502077786" lon="13.370600467564685"><ele>33.0</ele><time>2026-04-18T07:14:31Z</time></trkpt><trkpt lat="45.92487027235468" lon="13.370282024600217"><ele>33.0</ele><time>2026-04-18T07:14:32Z</time></trkpt><trkpt lat="45.92520354412962" lon="13.369986923476255"><ele>33.0</ele><time>2026-04-18T07:14:33Z</time></trkpt><trkpt lat="45.92552619328657" lon="13.36969795183788"><ele>33.0</ele><time>2026-04-18T07:14:34Z</time></trkpt><trkpt lat="45.925843152999455" lon="13.369416629831491"><ele>33.5</ele><time>2026-04-18T07:14:35Z</time></trkpt><trkpt lat="45.92615121670614" lon="13.369143326654722"><ele>34.0</ele><time>2026-04-18T07:14:36Z</time></trkpt><trkpt lat="45.926449781941116" lon="13.368870209889494"><ele>34.0</ele><time>2026-04-18T07:14:37Z</time></trkpt><trkpt lat="45.926746307140604" lon="13.368615566739622"><ele>34.0</ele><time>2026-04-18T07:14:38Z</time></trkpt><trkpt lat="45.9270299312087" lon="13.36834650165954"><ele>34.0</ele><time>2026-04-18T07:14:39Z</time></trkpt><trkpt lat="45.92730909269466" lon="13.368082406858377"><ele>34.0</ele><time>2026-04-18T07:14:40Z</time></trkpt><trkpt lat="45.927575891300165" lon="13.367805127379743"><ele>34.0</ele><time>2026-04-18T07:14:41Z</time></trkpt><trkpt lat="45.92785969480225" lon="13.367575168497481"><ele>34.0</ele><time>2026-04-18T07:14:42Z</time></trkpt><trkpt lat="45.928157336126745" lon="13.3673974910419"><ele>34.0</ele><time>2026-04-18T07:14:43Z</time></trkpt><trkpt lat="45.928461833038725" lon="13.367245646305012"><ele>34.0</ele><time>2026-04-18T07:14:44Z</time></trkpt><trkpt lat="45.928781439378604" lon="13.367101929553291"><ele>34.0</ele><time>2026-04-18T07:14:45Z</time></trkpt><trkpt lat="45.92910452555006" lon="13.366958020036227"><ele>34.0</ele><time>2026-04-18T07:14:46Z</time></trkpt><trkpt lat="45.929432476242276" lon="13.366811943712953"><ele>34.5</ele><time>2026-04-18T07:14:47Z</time></trkpt><trkpt lat="45.92975696155762" lon="13.366669115948586"><ele>35.0</ele><time>2026-04-18T07:14:48Z</time></trkpt><trkpt lat="45.93008050418631" lon="13.366526653807584"><ele>35.0</ele><time>2026-04-18T07:14:49Z</time></trkpt><trkpt lat="45.93039951989783" lon="13.366381706813977"><ele>35.0</ele><time>2026-04-18T07:14:50Z</time></trkpt><trkpt lat="45.93071756191359" lon="13.36623912861329"><ele>35.0</ele><time>2026-04-18T07:14:51Z</time></trkpt><trkpt lat="45.931036436310706" lon="13.366096738358653"><ele>35.0</ele><time>2026-04-18T07:14:52Z</time></trkpt><trkpt lat="45.931354420158065" lon="13.36595465609998"><ele>35.0</ele><time>2026-04-18T07:14:53Z</time></trkpt><trkpt lat="45.93167051036144" lon="13.365813417986452"><ele>35.0</ele><time>2026-04-18T07:14:54Z</time></trkpt><trkpt lat="45.931986290082186" lon="13.365673159894264"><ele>35.0</ele><time>2026-04-18T07:14:55Z</time></trkpt><trkpt lat="45.932302966668814" lon="13.365545734896488"><ele>35.0</ele><time>2026-04-18T07:14:56Z</time></trkpt><trkpt lat="45.93263987922586" lon="13.365506532229636"><ele>35.0</ele><time>2026-04-18T07:14:57Z</time></trkpt><trkpt lat="45.93298176760946" lon="13.365426449936573"><ele>35.0</ele><time>2026-04-18T07:14:58Z</time></trkpt><trkpt lat="45.933332282065834" lon="13.365366775351141"><ele>36.0</ele><time>2026-04-18T07:14:59Z</time></trkpt><trkpt lat="45.93368127803502" lon="13.36530366635054"><ele>37.0</ele><time>2026-04-18T07:15:00Z</time></trkpt><trkpt lat="45.93402675657233" lon="13.365244065974649"><ele>37.0</ele><time>2026-04-18T07:15:01Z</time></trkpt><trkpt lat="45.93436746630154" lon="13.36518037414102"><ele>37.0</ele><time>2026-04-18T07:15:02Z</time></trkpt><trkpt lat="45.93469527137472" lon="13.36512116353216"><ele>37.0</ele><time>2026-04-18T07:15:03Z</time></trkpt><trkpt lat="45.93501103321031" lon="13.365064805708228"><ele>37.0</ele><time>2026-04-18T07:15:04Z</time></trkpt><trkpt lat="45.93531712290829" lon="13.365035508685201"><ele>36.5</ele><time>2026-04-18T07:15:05Z</time></trkpt><trkpt lat="45.935605414551254" lon="13.364961483084217"><ele>36.0</ele><time>2026-04-18T07:15:06Z</time></trkpt><trkpt lat="45.93587003091793" lon="13.364914660773444"><ele>37.0</ele><time>2026-04-18T07:15:07Z</time></trkpt><trkpt lat="45.93612001872797" lon="13.364870951708038"><ele>38.0</ele><time>2026-04-18T07:15:08Z</time></trkpt><trkpt lat="45.93634643030952" lon="13.364829648552393"><ele>38.0</ele><time>2026-04-18T07:15:09Z</time></trkpt><trkpt lat="45.9365575845602" lon="13.364797692256484"><ele>38.0</ele><time>2026-04-18T07:15:10Z</time></trkpt><trkpt lat="45.93675620467087" lon="13.364687341795136"><ele>38.0</ele><time>2026-04-18T07:15:11Z</time></trkpt><trkpt lat="45.93692792455645" lon="13.364511655205982"><ele>38.0</ele><time>2026-04-18T07:15:12Z</time></trkpt><trkpt lat="45.937078468750485" lon="13.364296288978737"><ele>38.0</ele><time>2026-04-18T07:15:13Z</time></trkpt><trkpt lat="45.93719896158683" lon="13.364037001955824"><ele>38.0</ele><time>2026-04-18T07:15:14Z</time></trkpt><trkpt lat="45.93729355387847" lon="13.363738563890617"><ele>38.0</ele><time>2026-04-18T07:15:15Z</time></trkpt><trkpt lat="45.93736069939664" lon="13.363386156838295"><ele>38.0</ele><time>2026-04-18T07:15:16Z</time></trkpt><trkpt lat="45.93743362679593" lon="13.362975621574073"><ele>38.0</ele><time>2026-04-18T07:15:17Z</time></trkpt><trkpt lat="45.93753563842245" lon="13.362519825966041"><ele>38.0</ele><time>2026-04-18T07:15:18Z</time></trkpt><trkpt lat="45.937630571848004" lon="13.362021474661313"><ele>38.0</ele><time>2026-04-18T07:15:19Z</time></trkpt><trkpt lat="45.937728679415706" lon="13.361506460851022"><ele>38.0</ele><time>2026-04-18T07:15:20Z</time></trkpt><trkpt lat="45.93781650450179" lon="13.360987249881237"><ele>38.5</ele><time>2026-04-18T07:15:21Z</time></trkpt><trkpt lat="45.93793825470211" lon="13.360492378125466"><ele>39.0</ele><time>2026-04-18T07:15:22Z</time></trkpt><trkpt lat="45.938099337904546" lon="13.360026185720171"><ele>38.5</ele><time>2026-04-18T07:15:23Z</time></trkpt><trkpt lat="45.93824863424469" lon="13.35956165815442"><ele>38.0</ele><time>2026-04-18T07:15:24Z</time></trkpt><trkpt lat="45.93838311001266" lon="13.359100006957036"><ele>38.5</ele><time>2026-04-18T07:15:25Z</time></trkpt><trkpt lat="45.93852019250193" lon="13.35867498528957"><ele>39.0</ele><time>2026-04-18T07:15:26Z</time></trkpt><trkpt lat="45.93864634936889" lon="13.358286972065427"><ele>38.5</ele><time>2026-04-18T07:15:27Z</time></trkpt><trkpt lat="45.938764151509766" lon="13.357929515548895"><ele>38.0</ele><time>2026-04-18T07:15:28Z</time></trkpt><trkpt lat="45.938882699827836" lon="13.357608177754116"><ele>38.0</ele><time>2026-04-18T07:15:29Z</time></trkpt><trkpt lat="45.93902772287764" lon="13.357313764567342"><ele>38.0</ele><time>2026-04-18T07:15:30Z</time></trkpt><trkpt lat="45.939204351714075" lon="13.357035741861809"><ele>38.5</ele><time>2026-04-18T07:15:31Z</time></trkpt><trkpt lat="45.939408426757744" lon="13.35678226390477"><ele>39.0</ele><time>2026-04-18T07:15:32.001Z</time></trkpt><trkpt lat="45.93963503153499" lon="13.35654925069798"><ele>39.0</ele><time>2026-04-18T07:15:33.001Z</time></trkpt><trkpt lat="45.93987134695146" lon="13.35632276364638"><ele>39.0</ele><time>2026-04-18T07:15:34.001Z</time></trkpt><trkpt lat="45.94011257194196" lon="13.35602784889311"><ele>39.0</ele><time>2026-04-18T07:15:35.001Z</time></trkpt><trkpt lat="45.940303907069016" lon="13.355641367841557"><ele>39.0</ele><time>2026-04-18T07:15:36.001Z</time></trkpt><trkpt lat="45.940484196032976" lon="13.355265729231169"><ele>38.5</ele><time>2026-04-18T07:15:37.001Z</time></trkpt><trkpt lat="45.94064304963458" lon="13.354871087292947"><ele>38.0</ele><time>2026-04-18T07:15:38.001Z</time></trkpt><trkpt lat="45.94079464166409" lon="13.354489781908285"><ele>38.5</ele><time>2026-04-18T07:15:39.001Z</time></trkpt><trkpt lat="45.94093759638051" lon="13.354125041798117"><ele>39.0</ele><time>2026-04-18T07:15:40.001Z</time></trkpt><trkpt lat="45.94104514289653" lon="13.3537502216056"><ele>39.0</ele><time>2026-04-18T07:15:41.001Z</time></trkpt><trkpt lat="45.94112947778565" lon="13.353358003016528"><ele>39.0</ele><time>2026-04-18T07:15:42.001Z</time></trkpt><trkpt lat="45.94119520084104" lon="13.352943499875694"><ele>39.5</ele><time>2026-04-18T07:15:43.001Z</time></trkpt><trkpt lat="45.94126478196918" lon="13.352518630210714"><ele>40.0</ele><time>2026-04-18T07:15:44.001Z</time></trkpt><trkpt lat="45.9413386089857" lon="13.352094354766951"><ele>40.0</ele><time>2026-04-18T07:15:45.001Z</time></trkpt><trkpt lat="45.94140493459094" lon="13.351682258963526"><ele>40.0</ele><time>2026-04-18T07:15:46.001Z</time></trkpt><trkpt lat="45.941465425956345" lon="13.351312939687112"><ele>40.0</ele><time>2026-04-18T07:15:47.001Z</time></trkpt><trkpt lat="45.94152283557969" lon="13.350971635511831"><ele>40.0</ele><time>2026-04-18T07:15:48.001Z</time></trkpt><trkpt lat="45.94157876185118" lon="13.350655235704554"><ele>39.66666666666667</ele><time>2026-04-18T07:15:49.001Z</time></trkpt><trkpt lat="45.941630276202076" lon="13.350344737808367"><ele>39.333333333333336</ele><time>2026-04-18T07:15:50.001Z</time></trkpt><trkpt lat="45.94168213296032" lon="13.350051627341857"><ele>39.0</ele><time>2026-04-18T07:15:51.001Z</time></trkpt><trkpt lat="45.94174216418178" lon="13.349782684551625"><ele>39.0</ele><time>2026-04-18T07:15:52.001Z</time></trkpt><trkpt lat="45.941827067928486" lon="13.34951694911974"><ele>39.0</ele><time>2026-04-18T07:15:53.001Z</time></trkpt><trkpt lat="45.94194156287978" lon="13.349265176902842"><ele>39.0</ele><time>2026-04-18T07:15:54.001Z</time></trkpt><trkpt lat="45.942081553798346" lon="13.349041517564862"><ele>39.666666666666664</ele><time>2026-04-18T07:15:55.001Z</time></trkpt><trkpt lat="45.94223981693384" lon="13.348851174994987"><ele>40.33333333333333</ele><time>2026-04-18T07:15:56.001Z</time></trkpt><trkpt lat="45.942416465941335" lon="13.348689112766412"><ele>41.0</ele><time>2026-04-18T07:15:57.001Z</time></trkpt><trkpt lat="45.94262098241541" lon="13.348547145543405"><ele>41.0</ele><time>2026-04-18T07:15:58.001Z</time></trkpt><trkpt lat="45.94285120076745" lon="13.348455533952848"><ele>41.0</ele><time>2026-04-18T07:15:59.001Z</time></trkpt><trkpt lat="45.943098039125914" lon="13.348334940837743"><ele>41.5</ele><time>2026-04-18T07:16:00.001Z</time></trkpt><trkpt lat="45.94338361104948" lon="13.348196496760236"><ele>42.0</ele><time>2026-04-18T07:16:01.001Z</time></trkpt><trkpt lat="45.9437167929224" lon="13.348035623446206"><ele>42.0</ele><time>2026-04-18T07:16:02Z</time></trkpt><trkpt lat="45.94407678625359" lon="13.347862268928232"><ele>42.0</ele><time>2026-04-18T07:16:03Z</time></trkpt><trkpt lat="45.94444383258983" lon="13.347658632497454"><ele>42.0</ele><time>2026-04-18T07:16:04Z</time></trkpt><trkpt lat="45.944804052582185" lon="13.347483445123505"><ele>42.0</ele><time>2026-04-18T07:16:05Z</time></trkpt><trkpt lat="45.945157750099575" lon="13.347313948283688"><ele>41.5</ele><time>2026-04-18T07:16:06Z</time></trkpt><trkpt lat="45.9454993532205" lon="13.347150945102877"><ele>41.0</ele><time>2026-04-18T07:16:07Z</time></trkpt><trkpt lat="45.945824276539675" lon="13.346992276288637"><ele>41.5</ele><time>2026-04-18T07:16:08Z</time></trkpt><trkpt lat="45.94612477173705" lon="13.346846467010558"><ele>42.0</ele><time>2026-04-18T07:16:09Z</time></trkpt><trkpt lat="45.94640349158069" lon="13.346710960069759"><ele>42.0</ele><time>2026-04-18T07:16:10Z</time></trkpt><trkpt lat="45.94666092273965" lon="13.346587588956156"><ele>42.0</ele><time>2026-04-18T07:16:11Z</time></trkpt><trkpt lat="45.9468997294616" lon="13.346462604015127"><ele>41.5</ele><time>2026-04-18T07:16:12Z</time></trkpt><trkpt lat="45.94713353992041" lon="13.346336618431529"><ele>41.0</ele><time>2026-04-18T07:16:13Z</time></trkpt><trkpt lat="45.947351894434036" lon="13.346133177405068"><ele>41.0</ele><time>2026-04-18T07:16:14Z</time></trkpt><trkpt lat="45.94754064023605" lon="13.345870093589207"><ele>41.0</ele><time>2026-04-18T07:16:15Z</time></trkpt><trkpt lat="45.947719483716504" lon="13.345572693504387"><ele>41.5</ele><time>2026-04-18T07:16:16Z</time></trkpt><trkpt lat="45.94789008725799" lon="13.345234708034159"><ele>42.0</ele><time>2026-04-18T07:16:17Z</time></trkpt><trkpt lat="45.948061860474674" lon="13.34489193407648"><ele>43.0</ele><time>2026-04-18T07:16:18Z</time></trkpt><trkpt lat="45.94823889340391" lon="13.344552539614764"><ele>44.0</ele><time>2026-04-18T07:16:19Z</time></trkpt><trkpt lat="45.94841504351248" lon="13.344214716822904"><ele>44.0</ele><time>2026-04-18T07:16:20Z</time></trkpt><trkpt lat="45.948588708068506" lon="13.343886950799636"><ele>44.0</ele><time>2026-04-18T07:16:21Z</time></trkpt><trkpt lat="45.948755672388444" lon="13.343565445170253"><ele>43.5</ele><time>2026-04-18T07:16:22Z</time></trkpt><trkpt lat="45.94891659408462" lon="13.343260403187264"><ele>43.0</ele><time>2026-04-18T07:16:23Z</time></trkpt><trkpt lat="45.94906831000854" lon="13.342965598345948"><ele>44.0</ele><time>2026-04-18T07:16:24Z</time></trkpt><trkpt lat="45.94922204854006" lon="13.342689948736316"><ele>45.0</ele><time>2026-04-18T07:16:25Z</time></trkpt><trkpt lat="45.94938816057589" lon="13.342443536344733"><ele>45.0</ele><time>2026-04-18T07:16:26Z</time></trkpt><trkpt lat="45.94956264993923" lon="13.342223657949022"><ele>45.0</ele><time>2026-04-18T07:16:27Z</time></trkpt><trkpt lat="45.949733204568396" lon="13.342013804010127"><ele>45.0</ele><time>2026-04-18T07:16:28Z</time></trkpt><trkpt lat="45.949909878862" lon="13.34184477398679"><ele>45.0</ele><time>2026-04-18T07:16:29Z</time></trkpt><trkpt lat="45.95005910965982" lon="13.341661387977789"><ele>45.0</ele><time>2026-04-18T07:16:30Z</time></trkpt><trkpt lat="45.950207480592326" lon="13.341507370131504"><ele>45.333333333333336</ele><time>2026-04-18T07:16:31Z</time></trkpt><trkpt lat="45.950346852265035" lon="13.341356384710926"><ele>45.66666666666667</ele><time>2026-04-18T07:16:32Z</time></trkpt><trkpt lat="45.95048637726156" lon="13.341213462593723"><ele>46.0</ele><time>2026-04-18T07:16:33Z</time></trkpt><trkpt lat="45.95062328860229" lon="13.341102589118584"><ele>46.0</ele><time>2026-04-18T07:16:34Z</time></trkpt><trkpt lat="45.95073416828597" lon="13.340966413557926"><ele>46.0</ele><time>2026-04-18T07:16:35Z</time></trkpt><trkpt lat="45.950850119054806" lon="13.340855509028126"><ele>46.0</ele><time>2026-04-18T07:16:36Z</time></trkpt><trkpt lat="45.950963261017364" lon="13.340751077779249"><ele>46.0</ele><time>2026-04-18T07:16:37Z</time></trkpt><trkpt lat="45.95107887726077" lon="13.34065221555107"><ele>46.0</ele><time>2026-04-18T07:16:38Z</time></trkpt><trkpt lat="45.95119707327505" lon="13.340555248585739"><ele>46.0</ele><time>2026-04-18T07:16:39Z</time></trkpt><trkpt lat="45.95132160885858" lon="13.340454384489338"><ele>46.0</ele><time>2026-04-18T07:16:40Z</time></trkpt><trkpt lat="45.95146115043012" lon="13.340373211405904"><ele>46.0</ele><time>2026-04-18T07:16:41Z</time></trkpt><trkpt lat="45.95160724794322" lon="13.34026869451274"><ele>46.0</ele><time>2026-04-18T07:16:42Z</time></trkpt><trkpt lat="45.951767012479586" lon="13.340157893058516"><ele>46.0</ele><time>2026-04-18T07:16:43Z</time></trkpt><trkpt lat="45.95193788170604" lon="13.340039417799087"><ele>46.0</ele><time>2026-04-18T07:16:44Z</time></trkpt><trkpt lat="45.95211681385435" lon="13.339915066678651"><ele>46.0</ele><time>2026-04-18T07:16:45Z</time></trkpt><trkpt lat="45.95229731759173" lon="13.339766154605863"><ele>46.0</ele><time>2026-04-18T07:16:46Z</time></trkpt><trkpt lat="45.95248813689177" lon="13.33963359343352"><ele>46.0</ele><time>2026-04-18T07:16:47Z</time></trkpt><trkpt lat="45.952689547323935" lon="13.33951825067869"><ele>46.333333333333336</ele><time>2026-04-18T07:16:48Z</time></trkpt><trkpt lat="45.952880492548715" lon="13.339361446927544"><ele>46.666666666666664</ele><time>2026-04-18T07:16:49Z</time></trkpt><trkpt lat="45.95307753419841" lon="13.339223404861098"><ele>47.0</ele><time>2026-04-18T07:16:50Z</time></trkpt><trkpt lat="45.953276084328714" lon="13.339084815287931"><ele>47.0</ele><time>2026-04-18T07:16:51Z</time></trkpt><trkpt lat="45.95347542381633" lon="13.338949093363098"><ele>47.0</ele><time>2026-04-18T07:16:52Z</time></trkpt><trkpt lat="45.9536716884831" lon="13.338814416696076"><ele>47.0</ele><time>2026-04-18T07:16:53Z</time></trkpt><trkpt lat="45.9538702076748" lon="13.33867453706899"><ele>47.0</ele><time>2026-04-18T07:16:54Z</time></trkpt><trkpt lat="45.95406947285279" lon="13.338534604450361"><ele>47.0</ele><time>2026-04-18T07:16:55Z</time></trkpt><trkpt lat="45.9542691845968" lon="13.33839632859045"><ele>47.0</ele><time>2026-04-18T07:16:56Z</time></trkpt><trkpt lat="45.95447025041869" lon="13.338257150198578"><ele>46.5</ele><time>2026-04-18T07:16:57Z</time></trkpt><trkpt lat="45.9546737981783" lon="13.338116291395007"><ele>46.0</ele><time>2026-04-18T07:16:58Z</time></trkpt><trkpt lat="45.954879638614656" lon="13.3379746767087"><ele>46.5</ele><time>2026-04-18T07:16:59Z</time></trkpt><trkpt lat="45.955087347751906" lon="13.337830878608289"><ele>47.0</ele><time>2026-04-18T07:17:00Z</time></trkpt><trkpt lat="45.95529669604483" lon="13.337686531713556"><ele>47.0</ele><time>2026-04-18T07:17:01Z</time></trkpt><trkpt lat="45.95550872053901" lon="13.337543546729659"><ele>47.0</ele><time>2026-04-18T07:17:02Z</time></trkpt><trkpt lat="45.955719608037256" lon="13.337397221634614"><ele>47.0</ele><time>2026-04-18T07:17:03Z</time></trkpt><trkpt lat="45.95593208205697" lon="13.337249883235872"><ele>47.0</ele><time>2026-04-18T07:17:04Z</time></trkpt><trkpt lat="45.95614439263554" lon="13.337103822332045"><ele>47.0</ele><time>2026-04-18T07:17:05Z</time></trkpt><trkpt lat="45.956359088746794" lon="13.336953385988547"><ele>47.0</ele><time>2026-04-18T07:17:06Z</time></trkpt><trkpt lat="45.95657596877711" lon="13.336804130893025"><ele>47.5</ele><time>2026-04-18T07:17:07Z</time></trkpt><trkpt lat="45.95679346237969" lon="13.336654939924925"><ele>48.0</ele><time>2026-04-18T07:17:08Z</time></trkpt><trkpt lat="45.95700995133799" lon="13.33650654652397"><ele>48.0</ele><time>2026-04-18T07:17:09Z</time></trkpt><trkpt lat="45.95722912784091" lon="13.336356669184545"><ele>48.0</ele><time>2026-04-18T07:17:10Z</time></trkpt><trkpt lat="45.95745124918739" lon="13.336208647183902"><ele>47.5</ele><time>2026-04-18T07:17:11Z</time></trkpt><trkpt lat="45.95767596141018" lon="13.336063327974605"><ele>47.0</ele><time>2026-04-18T07:17:12Z</time></trkpt><trkpt lat="45.95790231212835" lon="13.335917784523176"><ele>47.0</ele><time>2026-04-18T07:17:13Z</time></trkpt><trkpt lat="45.9581307936811" lon="13.335778660732071"><ele>47.0</ele><time>2026-04-18T07:17:14Z</time></trkpt><trkpt lat="45.958363157458294" lon="13.335653794085312"><ele>46.0</ele><time>2026-04-18T07:17:15Z</time></trkpt><trkpt lat="45.95860279885849" lon="13.335551355629482"><ele>45.0</ele><time>2026-04-18T07:17:16Z</time></trkpt><trkpt lat="45.95884685617908" lon="13.335481328704354"><ele>45.0</ele><time>2026-04-18T07:17:17Z</time></trkpt><trkpt lat="45.95909311703362" lon="13.335413463384922"><ele>45.0</ele><time>2026-04-18T07:17:18Z</time></trkpt><trkpt lat="45.95934036899421" lon="13.335340271085023"><ele>45.5</ele><time>2026-04-18T07:17:19Z</time></trkpt><trkpt lat="45.95959003361102" lon="13.335269300842201"><ele>46.0</ele><time>2026-04-18T07:17:20Z</time></trkpt><trkpt lat="45.95984042043271" lon="13.33519863093642"><ele>47.5</ele><time>2026-04-18T07:17:21Z</time></trkpt><trkpt lat="45.96009174479987" lon="13.335125136655357"><ele>49.0</ele><time>2026-04-18T07:17:22Z</time></trkpt><trkpt lat="45.96034337794552" lon="13.335052582695415"><ele>49.0</ele><time>2026-04-18T07:17:23Z</time></trkpt><trkpt lat="45.960595920048746" lon="13.334980008955233"><ele>49.0</ele><time>2026-04-18T07:17:24Z</time></trkpt><trkpt lat="45.96084834036575" lon="13.334902479179034"><ele>48.0</ele><time>2026-04-18T07:17:25Z</time></trkpt><trkpt lat="45.96109848440724" lon="13.334818305799454"><ele>47.0</ele><time>2026-04-18T07:17:26Z</time></trkpt><trkpt lat="45.96135360397262" lon="13.334732224284247"><ele>47.0</ele><time>2026-04-18T07:17:27Z</time></trkpt><trkpt lat="45.96159800431104" lon="13.334576319812799"><ele>47.0</ele><time>2026-04-18T07:17:28Z</time></trkpt><trkpt lat="45.961846941138354" lon="13.33443064919458"><ele>47.0</ele><time>2026-04-18T07:17:29Z</time></trkpt><trkpt lat="45.96209697102235" lon="13.334276594638043"><ele>47.0</ele><time>2026-04-18T07:17:30Z</time></trkpt><trkpt lat="45.962348243677525" lon="13.334119919501195"><ele>48.0</ele><time>2026-04-18T07:17:31Z</time></trkpt><trkpt lat="45.96260038351582" lon="13.333962701522156"><ele>49.0</ele><time>2026-04-18T07:17:32Z</time></trkpt><trkpt lat="45.9628530505232" lon="13.333804430783367"><ele>49.0</ele><time>2026-04-18T07:17:33Z</time></trkpt><trkpt lat="45.96310319252456" lon="13.333645849096822"><ele>49.0</ele><time>2026-04-18T07:17:34Z</time></trkpt><trkpt lat="45.963349240220126" lon="13.333489619438515"><ele>49.0</ele><time>2026-04-18T07:17:35Z</time></trkpt><trkpt lat="45.96359083884338" lon="13.33333672981833"><ele>49.0</ele><time>2026-04-18T07:17:36Z</time></trkpt><trkpt lat="45.963827778190485" lon="13.333185563785998"><ele>49.0</ele><time>2026-04-18T07:17:37Z</time></trkpt><trkpt lat="45.9640576116962" lon="13.333037450034976"><ele>49.0</ele><time>2026-04-18T07:17:38.001Z</time></trkpt><trkpt lat="45.96428178784088" lon="13.332895813206628"><ele>50.5</ele><time>2026-04-18T07:17:39.001Z</time></trkpt><trkpt lat="45.964499777558146" lon="13.332760306471592"><ele>52.0</ele><time>2026-04-18T07:17:40.001Z</time></trkpt><trkpt lat="45.9647129592501" lon="13.332626357628321"><ele>52.0</ele><time>2026-04-18T07:17:41.001Z</time></trkpt><trkpt lat="45.96491988468784" lon="13.33249571693266"><ele>52.0</ele><time>2026-04-18T07:17:42.001Z</time></trkpt><trkpt lat="45.965122368843026" lon="13.332369627860537"><ele>52.0</ele><time>2026-04-18T07:17:43.001Z</time></trkpt><trkpt lat="45.96532131022774" lon="13.332244812056643"><ele>51.666666666666664</ele><time>2026-04-18T07:17:44.001Z</time></trkpt><trkpt lat="45.96551882280851" lon="13.332119285962822"><ele>51.33333333333333</ele><time>2026-04-18T07:17:45.001Z</time></trkpt><trkpt lat="45.9657210489972" lon="13.332004565079467"><ele>51.0</ele><time>2026-04-18T07:17:46.001Z</time></trkpt><trkpt lat="45.96592766012543" lon="13.33190461489502"><ele>51.0</ele><time>2026-04-18T07:17:47.001Z</time></trkpt><trkpt lat="45.966137145454134" lon="13.331817446591351"><ele>51.0</ele><time>2026-04-18T07:17:48.001Z</time></trkpt><trkpt lat="45.96634322124649" lon="13.33175008916774"><ele>51.0</ele><time>2026-04-18T07:17:49.001Z</time></trkpt><trkpt lat="45.96654638571593" lon="13.33169451398115"><ele>51.33333333333333</ele><time>2026-04-18T07:17:50.001Z</time></trkpt><trkpt lat="45.96674167516886" lon="13.331642075554942"><ele>51.666666666666664</ele><time>2026-04-18T07:17:51.001Z</time></trkpt><trkpt lat="45.966925251080404" lon="13.331592964530246"><ele>52.0</ele><time>2026-04-18T07:17:52.001Z</time></trkpt><trkpt lat="45.967096016918624" lon="13.331571932831828"><ele>52.0</ele><time>2026-04-18T07:17:53Z</time></trkpt><trkpt lat="45.967251803511594" lon="13.331531263429895"><ele>52.0</ele><time>2026-04-18T07:17:54Z</time></trkpt><trkpt lat="45.96739512540057" lon="13.331493883284377"><ele>52.0</ele><time>2026-04-18T07:17:55Z</time></trkpt><trkpt lat="45.96752786940709" lon="13.331436765392088"><ele>52.0</ele><time>2026-04-18T07:17:56Z</time></trkpt><trkpt lat="45.9676540367907" lon="13.331406905349338"><ele>52.6</ele><time>2026-04-18T07:17:57Z</time></trkpt><trkpt lat="45.96777131934325" lon="13.331375464295053"><ele>53.2</ele><time>2026-04-18T07:17:58Z</time></trkpt><trkpt lat="45.96788055671973" lon="13.33134715907046"><ele>53.8</ele><time>2026-04-18T07:17:59Z</time></trkpt><trkpt lat="45.967980035612804" lon="13.331324813349262"><ele>54.4</ele><time>2026-04-18T07:18:00Z</time></trkpt><trkpt lat="45.96806594576421" lon="13.331305061677817"><ele>55.0</ele><time>2026-04-18T07:18:01Z</time></trkpt><trkpt lat="45.96813684284874" lon="13.331286847849688"><ele>54.99999999999999</ele><time>2026-04-18T07:18:02Z</time></trkpt><trkpt lat="45.96820305006374" lon="13.33126784812352"><ele>55.0</ele><time>2026-04-18T07:18:03Z</time></trkpt><trkpt lat="45.96826758262148" lon="13.33124997456747"><ele>55.0</ele><time>2026-04-18T07:18:04Z</time></trkpt><trkpt lat="45.96834307057377" lon="13.331225496268079"><ele>55.0</ele><time>2026-04-18T07:18:05Z</time></trkpt><trkpt lat="45.96842798810172" lon="13.33122522050065"><ele>54.99999999999999</ele><time>2026-04-18T07:18:06Z</time></trkpt><trkpt lat="45.968520276054" lon="13.331201249493141"><ele>55.0</ele><time>2026-04-18T07:18:07Z</time></trkpt><trkpt lat="45.96862729444608" lon="13.331173194049663"><ele>54.5</ele><time>2026-04-18T07:18:08Z</time></trkpt><trkpt lat="45.968746047753775" lon="13.331142062223428"><ele>54.0</ele><time>2026-04-18T07:18:09Z</time></trkpt><trkpt lat="45.96888201102471" lon="13.331106418724495"><ele>53.5</ele><time>2026-04-18T07:18:10Z</time></trkpt><trkpt lat="45.96902988908164" lon="13.3310676516915"><ele>53.0</ele><time>2026-04-18T07:18:11Z</time></trkpt><trkpt lat="45.96919605567324" lon="13.331024090228643"><ele>53.0</ele><time>2026-04-18T07:18:12Z</time></trkpt><trkpt lat="45.969383022603566" lon="13.33097562015079"><ele>53.0</ele><time>2026-04-18T07:18:13Z</time></trkpt><trkpt lat="45.9695946388457" lon="13.330920577890122"><ele>53.0</ele><time>2026-04-18T07:18:14Z</time></trkpt><trkpt lat="45.96981084468602" lon="13.33086434248277"><ele>53.0</ele><time>2026-04-18T07:18:15Z</time></trkpt><trkpt lat="45.96998595901121" lon="13.330818795024726"><ele>53.0</ele><time>2026-04-18T07:18:16Z</time></trkpt><trkpt lat="45.97013974327875" lon="13.33075561435942"><ele>53.0</ele><time>2026-04-18T07:18:17Z</time></trkpt><trkpt lat="45.97029325075296" lon="13.330721711847387"><ele>53.333333333333336</ele><time>2026-04-18T07:18:18Z</time></trkpt><trkpt lat="45.97045117056242" lon="13.330679616723726"><ele>53.66666666666667</ele><time>2026-04-18T07:18:19Z</time></trkpt><trkpt lat="45.97060997369922" lon="13.330634037379749"><ele>54.0</ele><time>2026-04-18T07:18:20Z</time></trkpt><trkpt lat="45.97076973454356" lon="13.330595228120345"><ele>54.33333333333333</ele><time>2026-04-18T07:18:21Z</time></trkpt><trkpt lat="45.97093322804244" lon="13.330553325805717"><ele>54.666666666666664</ele><time>2026-04-18T07:18:22Z</time></trkpt><trkpt lat="45.97110576915118" lon="13.330505668700983"><ele>55.0</ele><time>2026-04-18T07:18:23Z</time></trkpt><trkpt lat="45.97128430490513" lon="13.330476900991217"><ele>55.0</ele><time>2026-04-18T07:18:24Z</time></trkpt><trkpt lat="45.97146899360675" lon="13.330410012938456"><ele>55.0</ele><time>2026-04-18T07:18:25Z</time></trkpt><trkpt lat="45.971638487686306" lon="13.330296238195022"><ele>55.0</ele><time>2026-04-18T07:18:26Z</time></trkpt><trkpt lat="45.971812488844364" lon="13.330187342197034"><ele>55.33333333333333</ele><time>2026-04-18T07:18:27Z</time></trkpt><trkpt lat="45.97199987967517" lon="13.330086282920004"><ele>55.66666666666667</ele><time>2026-04-18T07:18:28Z</time></trkpt><trkpt lat="45.972190994821744" lon="13.32995714048729"><ele>56.0</ele><time>2026-04-18T07:18:29Z</time></trkpt><trkpt lat="45.97239645681266" lon="13.329818102129932"><ele>55.0</ele><time>2026-04-18T07:18:30Z</time></trkpt><trkpt lat="45.97261163937747" lon="13.329672486012516"><ele>54.0</ele><time>2026-04-18T07:18:31Z</time></trkpt><trkpt lat="45.97282157542442" lon="13.329531122497645"><ele>54.0</ele><time>2026-04-18T07:18:32Z</time></trkpt><trkpt lat="45.9730582581445" lon="13.32937072848316"><ele>54.0</ele><time>2026-04-18T07:18:33Z</time></trkpt><trkpt lat="45.9732890333479" lon="13.329212999099186"><ele>55.0</ele><time>2026-04-18T07:18:34Z</time></trkpt><trkpt lat="45.973524892889486" lon="13.3290542111852"><ele>56.0</ele><time>2026-04-18T07:18:35Z</time></trkpt><trkpt lat="45.973746951314624" lon="13.328903320075142"><ele>56.0</ele><time>2026-04-18T07:18:36Z</time></trkpt><trkpt lat="45.97393435679962" lon="13.328745197868278"><ele>56.0</ele><time>2026-04-18T07:18:37Z</time></trkpt><trkpt lat="45.97411978395566" lon="13.328614530051365"><ele>56.0</ele><time>2026-04-18T07:18:38Z</time></trkpt><trkpt lat="45.974301481265115" lon="13.32849070534629"><ele>56.333333333333336</ele><time>2026-04-18T07:18:39Z</time></trkpt><trkpt lat="45.97447969433993" lon="13.328374189010907"><ele>56.66666666666667</ele><time>2026-04-18T07:18:40Z</time></trkpt><trkpt lat="45.9746599795229" lon="13.328288747348804"><ele>57.0</ele><time>2026-04-18T07:18:41Z</time></trkpt><trkpt lat="45.97482541608212" lon="13.328176760604629"><ele>57.0</ele><time>2026-04-18T07:18:42Z</time></trkpt><trkpt lat="45.97498439331258" lon="13.328069146235995"><ele>57.0</ele><time>2026-04-18T07:18:43Z</time></trkpt><trkpt lat="45.97512827263153" lon="13.327952148761433"><ele>57.0</ele><time>2026-04-18T07:18:44Z</time></trkpt><trkpt lat="45.97527212255088" lon="13.327886553892743"><ele>57.75</ele><time>2026-04-18T07:18:45Z</time></trkpt><trkpt lat="45.975402629332834" lon="13.327848413256723"><ele>58.5</ele><time>2026-04-18T07:18:46Z</time></trkpt><trkpt lat="45.975522070922715" lon="13.327830243010013"><ele>59.25</ele><time>2026-04-18T07:18:47Z</time></trkpt><trkpt lat="45.97563330469696" lon="13.327835254786166"><ele>60.0</ele><time>2026-04-18T07:18:48Z</time></trkpt><trkpt lat="45.975734657002704" lon="13.327869018126568"><ele>60.0</ele><time>2026-04-18T07:18:49Z</time></trkpt><trkpt lat="45.97581361486035" lon="13.327889159650457"><ele>60.0</ele><time>2026-04-18T07:18:50Z</time></trkpt><trkpt lat="45.975875229354514" lon="13.327856930609762"><ele>60.0</ele><time>2026-04-18T07:18:51Z</time></trkpt><trkpt lat="45.975932117225376" lon="13.327919334291769"><ele>60.0</ele><time>2026-04-18T07:18:52Z</time></trkpt><trkpt lat="45.97598803198012" lon="13.32770438608637"><ele>60.0</ele><time>2026-04-18T07:18:53Z</time></trkpt><trkpt lat="45.97592075061258" lon="13.32754848837144"><ele>59.66666666666667</ele><time>2026-04-18T07:18:54Z</time></trkpt><trkpt lat="45.97587459470995" lon="13.327357538345682"><ele>59.333333333333336</ele><time>2026-04-18T07:18:55Z</time></trkpt><trkpt lat="45.97581424489737" lon="13.327085796547141"><ele>59.0</ele><time>2026-04-18T07:18:56Z</time></trkpt><trkpt lat="45.97574062131314" lon="13.326806853786467"><ele>59.0</ele><time>2026-04-18T07:18:57Z</time></trkpt><trkpt lat="45.97566425400423" lon="13.326541205331942"><ele>59.0</ele><time>2026-04-18T07:18:58Z</time></trkpt><trkpt lat="45.97559032175803" lon="13.326281480600041"><ele>59.0</ele><time>2026-04-18T07:18:59Z</time></trkpt><trkpt lat="45.97552209703851" lon="13.326044605875198"><ele>58.333333333333336</ele><time>2026-04-18T07:19:00Z</time></trkpt><trkpt lat="45.97545654097371" lon="13.325831605110393"><ele>57.66666666666667</ele><time>2026-04-18T07:19:01Z</time></trkpt><trkpt lat="45.97540168221168" lon="13.325634499381234"><ele>57.0</ele><time>2026-04-18T07:19:02Z</time></trkpt><trkpt lat="45.97535546943495" lon="13.325442770185425"><ele>57.0</ele><time>2026-04-18T07:19:03Z</time></trkpt><trkpt lat="45.97530418054084" lon="13.325254607771859"><ele>57.0</ele><time>2026-04-18T07:19:04Z</time></trkpt><trkpt lat="45.97525730131967" lon="13.325068179545207"><ele>57.0</ele><time>2026-04-18T07:19:05Z</time></trkpt><trkpt lat="45.975207818941605" lon="13.324887785019884"><ele>57.0</ele><time>2026-04-18T07:19:06Z</time></trkpt><trkpt lat="45.97515203780575" lon="13.324711649871693"><ele>56.75</ele><time>2026-04-18T07:19:07Z</time></trkpt><trkpt lat="45.97510254533744" lon="13.324532539531313"><ele>56.5</ele><time>2026-04-18T07:19:08Z</time></trkpt><trkpt lat="45.97504720054212" lon="13.324354103362055"><ele>56.25</ele><time>2026-04-18T07:19:09Z</time></trkpt><trkpt lat="45.974988509458775" lon="13.324173898628622"><ele>56.0</ele><time>2026-04-18T07:19:10Z</time></trkpt><trkpt lat="45.9749307481663" lon="13.32398423833638"><ele>56.5</ele><time>2026-04-18T07:19:11Z</time></trkpt><trkpt lat="45.97487263179473" lon="13.323791926684631"><ele>57.0</ele><time>2026-04-18T07:19:12Z</time></trkpt><trkpt lat="45.974812039152724" lon="13.323597601807469"><ele>57.5</ele><time>2026-04-18T07:19:13Z</time></trkpt><trkpt lat="45.974753388663224" lon="13.323406517495913"><ele>58.0</ele><time>2026-04-18T07:19:14Z</time></trkpt><trkpt lat="45.97469776127836" lon="13.323220237043602"><ele>58.0</ele><time>2026-04-18T07:19:15Z</time></trkpt><trkpt lat="45.97464840277401" lon="13.32304944711441"><ele>58.0</ele><time>2026-04-18T07:19:16Z</time></trkpt><trkpt lat="45.97460188156455" lon="13.322887508576628"><ele>58.0</ele><time>2026-04-18T07:19:17Z</time></trkpt><trkpt lat="45.97455821195703" lon="13.322738955903056"><ele>58.0</ele><time>2026-04-18T07:19:18Z</time></trkpt><trkpt lat="45.97451800703774" lon="13.322590642098021"><ele>58.0</ele><time>2026-04-18T07:19:18.999Z</time></trkpt><trkpt lat="45.97448767117024" lon="13.322431021218746"><ele>58.0</ele><time>2026-04-18T07:19:19.999Z</time></trkpt><trkpt lat="45.974468537976996" lon="13.322260063526628"><ele>58.0</ele><time>2026-04-18T07:19:20.999Z</time></trkpt><trkpt lat="45.97446674852488" lon="13.322083181522894"><ele>58.0</ele><time>2026-04-18T07:19:21.999Z</time></trkpt><trkpt lat="45.97448528173929" lon="13.321897312151904"><ele>58.0</ele><time>2026-04-18T07:19:22.999Z</time></trkpt><trkpt lat="45.97453123053049" lon="13.321708711389585"><ele>58.0</ele><time>2026-04-18T07:19:23.999Z</time></trkpt><trkpt lat="45.974559179059916" lon="13.321516798139406"><ele>58.0</ele><time>2026-04-18T07:19:24.999Z</time></trkpt><trkpt lat="45.974576110799646" lon="13.321346377994297"><ele>58.0</ele><time>2026-04-18T07:19:25.999Z</time></trkpt><trkpt lat="45.97462405122467" lon="13.321220914687439"><ele>58.2</ele><time>2026-04-18T07:19:26.999Z</time></trkpt><trkpt lat="45.974675220572" lon="13.321121332305866"><ele>58.4</ele><time>2026-04-18T07:19:27.999Z</time></trkpt><trkpt lat="45.974739991683926" lon="13.321050691374555"><ele>58.60000000000001</ele><time>2026-04-18T07:19:28.999Z</time></trkpt><trkpt lat="45.9748198769466" lon="13.320992193261043"><ele>58.800000000000004</ele><time>2026-04-18T07:19:29.999Z</time></trkpt><trkpt lat="45.97491929900485" lon="13.320922031010925"><ele>59.0</ele><time>2026-04-18T07:19:30.999Z</time></trkpt><trkpt lat="45.97502822448367" lon="13.320855945566473"><ele>59.0</ele><time>2026-04-18T07:19:31.999Z</time></trkpt><trkpt lat="45.97513518232318" lon="13.320800271199843"><ele>59.0</ele><time>2026-04-18T07:19:32.999Z</time></trkpt><trkpt lat="45.97525001634546" lon="13.320737534160456"><ele>59.0</ele><time>2026-04-18T07:19:33.999Z</time></trkpt><trkpt lat="45.97536911050842" lon="13.3206756506446"><ele>59.0</ele><time>2026-04-18T07:19:34.999Z</time></trkpt><trkpt lat="45.975495133273256" lon="13.32061240916455"><ele>58.75</ele><time>2026-04-18T07:19:35.999Z</time></trkpt><trkpt lat="45.975624914378855" lon="13.320546693367909"><ele>58.5</ele><time>2026-04-18T07:19:36.999Z</time></trkpt><trkpt lat="45.97575368965157" lon="13.320477037889267"><ele>58.25</ele><time>2026-04-18T07:19:37.999Z</time></trkpt><trkpt lat="45.97588031732927" lon="13.320410110649945"><ele>58.0</ele><time>2026-04-18T07:19:38.999Z</time></trkpt><trkpt lat="45.97600428081067" lon="13.320342798776819"><ele>57.75</ele><time>2026-04-18T07:19:39.999Z</time></trkpt><trkpt lat="45.97613201352639" lon="13.320299156175597"><ele>57.5</ele><time>2026-04-18T07:19:40.999Z</time></trkpt><trkpt lat="45.97625892142007" lon="13.320224776201812"><ele>57.25</ele><time>2026-04-18T07:19:41.999Z</time></trkpt><trkpt lat="45.97638088258759" lon="13.320120653643643"><ele>57.0</ele><time>2026-04-18T07:19:43Z</time></trkpt><trkpt lat="45.97651335524812" lon="13.320058227988447"><ele>57.0</ele><time>2026-04-18T07:19:44Z</time></trkpt><trkpt lat="45.976635720292414" lon="13.319975010834346"><ele>57.0</ele><time>2026-04-18T07:19:45Z</time></trkpt><trkpt lat="45.97675923597589" lon="13.319890911491253"><ele>57.0</ele><time>2026-04-18T07:19:46Z</time></trkpt><trkpt lat="45.97688131662263" lon="13.319807557180635"><ele>57.0</ele><time>2026-04-18T07:19:47Z</time></trkpt><trkpt lat="45.977006136129" lon="13.319721356114963"><ele>57.33333333333333</ele><time>2026-04-18T07:19:48Z</time></trkpt><trkpt lat="45.977133676832395" lon="13.319628907986978"><ele>57.666666666666664</ele><time>2026-04-18T07:19:49Z</time></trkpt><trkpt lat="45.97727982387134" lon="13.319517131272736"><ele>58.0</ele><time>2026-04-18T07:19:50Z</time></trkpt><trkpt lat="45.97749403648947" lon="13.31934204969976"><ele>58.5</ele><time>2026-04-18T07:19:51Z</time></trkpt><trkpt lat="45.97773632735346" lon="13.31913188477716"><ele>59.0</ele><time>2026-04-18T07:19:52Z</time></trkpt><trkpt lat="45.97798878371846" lon="13.318896883721893"><ele>59.0</ele><time>2026-04-18T07:19:53Z</time></trkpt><trkpt lat="45.97821490690423" lon="13.318665135079248"><ele>59.0</ele><time>2026-04-18T07:19:54Z</time></trkpt><trkpt lat="45.978428545695365" lon="13.318439366628182"><ele>58.5</ele><time>2026-04-18T07:19:55Z</time></trkpt><trkpt lat="45.9786224126655" lon="13.318213552857411"><ele>58.0</ele><time>2026-04-18T07:19:56Z</time></trkpt><trkpt lat="45.97882951535772" lon="13.318042848224033"><ele>57.5</ele><time>2026-04-18T07:19:57Z</time></trkpt><trkpt lat="45.9790545335305" lon="13.317921158016725"><ele>57.0</ele><time>2026-04-18T07:19:58Z</time></trkpt><trkpt lat="45.979288303736446" lon="13.317810747858005"><ele>58.0</ele><time>2026-04-18T07:19:59Z</time></trkpt><trkpt lat="45.97952131705329" lon="13.317659985708877"><ele>59.0</ele><time>2026-04-18T07:20:00Z</time></trkpt><trkpt lat="45.979757827402004" lon="13.31748442365888"><ele>59.0</ele><time>2026-04-18T07:20:01Z</time></trkpt><trkpt lat="45.980017975324685" lon="13.31730780902366"><ele>59.0</ele><time>2026-04-18T07:20:02Z</time></trkpt><trkpt lat="45.980273236354506" lon="13.317078696327123"><ele>59.0</ele><time>2026-04-18T07:20:03Z</time></trkpt><trkpt lat="45.98054768562358" lon="13.316882508997123"><ele>59.0</ele><time>2026-04-18T07:20:04Z</time></trkpt><trkpt lat="45.9808061340468" lon="13.316624008661433"><ele>59.0</ele><time>2026-04-18T07:20:05Z</time></trkpt><trkpt lat="45.981080484691745" lon="13.316394751958258"><ele>59.0</ele><time>2026-04-18T07:20:06Z</time></trkpt><trkpt lat="45.98135990127341" lon="13.316187852031211"><ele>59.0</ele><time>2026-04-18T07:20:07Z</time></trkpt><trkpt lat="45.981649391467144" lon="13.315998832260636"><ele>59.0</ele><time>2026-04-18T07:20:08Z</time></trkpt><trkpt lat="45.98193232024177" lon="13.315808205822888"><ele>59.0</ele><time>2026-04-18T07:20:09Z</time></trkpt><trkpt lat="45.98221248329292" lon="13.31561216209349"><ele>59.0</ele><time>2026-04-18T07:20:10Z</time></trkpt><trkpt lat="45.982482249290946" lon="13.315418359041974"><ele>59.0</ele><time>2026-04-18T07:20:11Z</time></trkpt><trkpt lat="45.9827408310049" lon="13.3152259311487"><ele>59.0</ele><time>2026-04-18T07:20:12Z</time></trkpt><trkpt lat="45.98298605911476" lon="13.31503721610273"><ele>59.0</ele><time>2026-04-18T07:20:13Z</time></trkpt><trkpt lat="45.98321197276098" lon="13.314865360999791"><ele>59.0</ele><time>2026-04-18T07:20:14Z</time></trkpt><trkpt lat="45.983428816610605" lon="13.3146905840057"><ele>60.0</ele><time>2026-04-18T07:20:15Z</time></trkpt><trkpt lat="45.98362805203515" lon="13.314501989603604"><ele>61.0</ele><time>2026-04-18T07:20:16Z</time></trkpt><trkpt lat="45.98381707012418" lon="13.314293624048114"><ele>61.0</ele><time>2026-04-18T07:20:17Z</time></trkpt><trkpt lat="45.983993500396416" lon="13.314065447476004"><ele>61.0</ele><time>2026-04-18T07:20:18Z</time></trkpt><trkpt lat="45.98415590247416" lon="13.313804119349957"><ele>60.5</ele><time>2026-04-18T07:20:19Z</time></trkpt><trkpt lat="45.9843360204017" lon="13.313547204309398"><ele>60.0</ele><time>2026-04-18T07:20:20Z</time></trkpt><trkpt lat="45.984539039767455" lon="13.313317309660622"><ele>60.0</ele><time>2026-04-18T07:20:21Z</time></trkpt><trkpt lat="45.98477166226114" lon="13.313125646487062"><ele>60.0</ele><time>2026-04-18T07:20:22Z</time></trkpt><trkpt lat="45.9850216753278" lon="13.312956284618092"><ele>61.0</ele><time>2026-04-18T07:20:23Z</time></trkpt><trkpt lat="45.98529476782177" lon="13.312811019271603"><ele>62.0</ele><time>2026-04-18T07:20:24Z</time></trkpt><trkpt lat="45.98557474054972" lon="13.312659110341588"><ele>62.5</ele><time>2026-04-18T07:20:25Z</time></trkpt><trkpt lat="45.98585260789286" lon="13.31248154578731"><ele>63.0</ele><time>2026-04-18T07:20:26Z</time></trkpt><trkpt lat="45.986118848755886" lon="13.312270888255918"><ele>62.0</ele><time>2026-04-18T07:20:27Z</time></trkpt><trkpt lat="45.98637764738858" lon="13.31203895639594"><ele>61.0</ele><time>2026-04-18T07:20:28Z</time></trkpt><trkpt lat="45.98663295892548" lon="13.31180236759522"><ele>62.0</ele><time>2026-04-18T07:20:29Z</time></trkpt><trkpt lat="45.986888393684055" lon="13.311569487555259"><ele>63.0</ele><time>2026-04-18T07:20:30Z</time></trkpt><trkpt lat="45.987141675018854" lon="13.311332084033175"><ele>63.5</ele><time>2026-04-18T07:20:31Z</time></trkpt><trkpt lat="45.98739121995668" lon="13.31108839502587"><ele>64.0</ele><time>2026-04-18T07:20:32Z</time></trkpt><trkpt lat="45.98764135320255" lon="13.310846054699779"><ele>64.0</ele><time>2026-04-18T07:20:33Z</time></trkpt><trkpt lat="45.98789114504954" lon="13.310608015640568"><ele>64.0</ele><time>2026-04-18T07:20:34Z</time></trkpt><trkpt lat="45.98814129821178" lon="13.310372939165227"><ele>64.5</ele><time>2026-04-18T07:20:35Z</time></trkpt><trkpt lat="45.98839388831913" lon="13.310146872899244"><ele>65.0</ele><time>2026-04-18T07:20:36Z</time></trkpt><trkpt lat="45.98865215118099" lon="13.30992645078157"><ele>63.5</ele><time>2026-04-18T07:20:37Z</time></trkpt><trkpt lat="45.988912878026206" lon="13.309706288761923"><ele>62.0</ele><time>2026-04-18T07:20:38Z</time></trkpt><trkpt lat="45.989172587007765" lon="13.309484616855997"><ele>62.0</ele><time>2026-04-18T07:20:39Z</time></trkpt><trkpt lat="45.98943074531075" lon="13.309260926515172"><ele>62.0</ele><time>2026-04-18T07:20:40Z</time></trkpt><trkpt lat="45.989688316699045" lon="13.309039685371069"><ele>62.0</ele><time>2026-04-18T07:20:41Z</time></trkpt><trkpt lat="45.989946685758724" lon="13.308822841591336"><ele>62.0</ele><time>2026-04-18T07:20:42Z</time></trkpt><trkpt lat="45.99020555101816" lon="13.308611553624242"><ele>62.0</ele><time>2026-04-18T07:20:43Z</time></trkpt><trkpt lat="45.990465468966704" lon="13.308403793662654"><ele>62.0</ele><time>2026-04-18T07:20:44Z</time></trkpt><trkpt lat="45.990720404017715" lon="13.308189886250611"><ele>63.0</ele><time>2026-04-18T07:20:45Z</time></trkpt><trkpt lat="45.990959455616036" lon="13.307965993937927"><ele>64.0</ele><time>2026-04-18T07:20:46Z</time></trkpt><trkpt lat="45.9911790633433" lon="13.307749351845926"><ele>64.0</ele><time>2026-04-18T07:20:47Z</time></trkpt><trkpt lat="45.991381095014745" lon="13.307559587757694"><ele>64.0</ele><time>2026-04-18T07:20:48Z</time></trkpt><trkpt lat="45.99158190995451" lon="13.30740331360111"><ele>64.66666666666666</ele><time>2026-04-18T07:20:49Z</time></trkpt><trkpt lat="45.99177919949929" lon="13.307300217002464"><ele>65.33333333333333</ele><time>2026-04-18T07:20:50Z</time></trkpt><trkpt lat="45.99198404434059" lon="13.307253873301129"><ele>66.0</ele><time>2026-04-18T07:20:51Z</time></trkpt><trkpt lat="45.99220250695535" lon="13.30726260247314"><ele>66.0</ele><time>2026-04-18T07:20:52Z</time></trkpt><trkpt lat="45.99242418124073" lon="13.307284657825166"><ele>66.0</ele><time>2026-04-18T07:20:53Z</time></trkpt><trkpt lat="45.99262437326932" lon="13.307288325854024"><ele>66.0</ele><time>2026-04-18T07:20:54Z</time></trkpt><trkpt lat="45.99280563780445" lon="13.307268537364786"><ele>66.33333333333333</ele><time>2026-04-18T07:20:55Z</time></trkpt><trkpt lat="45.99298410034624" lon="13.307220138186432"><ele>66.66666666666666</ele><time>2026-04-18T07:20:56Z</time></trkpt><trkpt lat="45.9931431524456" lon="13.307055536425798"><ele>67.0</ele><time>2026-04-18T07:20:57Z</time></trkpt><trkpt lat="45.99330653717577" lon="13.306868109902673"><ele>67.0</ele><time>2026-04-18T07:20:58Z</time></trkpt><trkpt lat="45.993478145957724" lon="13.30667471477919"><ele>67.0</ele><time>2026-04-18T07:20:59Z</time></trkpt><trkpt lat="45.99365558669373" lon="13.306506108896455"><ele>67.0</ele><time>2026-04-18T07:21:00Z</time></trkpt><trkpt lat="45.993844361486744" lon="13.306371037255662"><ele>67.0</ele><time>2026-04-18T07:21:01Z</time></trkpt><trkpt lat="45.9940437556636" lon="13.306267591968396"><ele>67.0</ele><time>2026-04-18T07:21:02Z</time></trkpt><trkpt lat="45.994244012742556" lon="13.306159697146175"><ele>67.0</ele><time>2026-04-18T07:21:03Z</time></trkpt><trkpt lat="45.99443688345112" lon="13.306010539820658"><ele>67.0</ele><time>2026-04-18T07:21:04Z</time></trkpt><trkpt lat="45.99461281070872" lon="13.305856493843718"><ele>67.0</ele><time>2026-04-18T07:21:05Z</time></trkpt><trkpt lat="45.99477554631029" lon="13.305692673464486"><ele>67.0</ele><time>2026-04-18T07:21:05.999Z</time></trkpt><trkpt lat="45.99493745896289" lon="13.30558516155581"><ele>67.0</ele><time>2026-04-18T07:21:06.999Z</time></trkpt><trkpt lat="45.9950860362877" lon="13.30547029344264"><ele>67.0</ele><time>2026-04-18T07:21:07.999Z</time></trkpt><trkpt lat="45.995249650773864" lon="13.305411809853119"><ele>67.0</ele><time>2026-04-18T07:21:08.999Z</time></trkpt><trkpt lat="45.99540825316048" lon="13.305367652223984"><ele>67.0</ele><time>2026-04-18T07:21:09.999Z</time></trkpt><trkpt lat="45.995541252264786" lon="13.305328495543641"><ele>67.0</ele><time>2026-04-18T07:21:10.999Z</time></trkpt><trkpt lat="45.99564505157408" lon="13.305296767727844"><ele>67.0</ele><time>2026-04-18T07:21:11.999Z</time></trkpt><trkpt lat="45.9957268936358" lon="13.305271525310781"><ele>67.0</ele><time>2026-04-18T07:21:12.999Z</time></trkpt><trkpt lat="45.99580074773478" lon="13.305217933233639"><ele>67.0</ele><time>2026-04-18T07:21:13.999Z</time></trkpt><trkpt lat="45.99586538760974" lon="13.305120570955939"><ele>67.0</ele><time>2026-04-18T07:21:14.999Z</time></trkpt><trkpt lat="45.995824943856185" lon="13.304894608613264"><ele>67.0</ele><time>2026-04-18T07:21:15.999Z</time></trkpt><trkpt lat="45.99583765314822" lon="13.304674466639632"><ele>67.0</ele><time>2026-04-18T07:21:16.999Z</time></trkpt><trkpt lat="45.99583492086666" lon="13.30444113860197"><ele>66.66666666666666</ele><time>2026-04-18T07:21:17.999Z</time></trkpt><trkpt lat="45.99583207241697" lon="13.304184008584693"><ele>66.33333333333333</ele><time>2026-04-18T07:21:18.999Z</time></trkpt><trkpt lat="45.99582924527874" lon="13.303928801649178"><ele>66.0</ele><time>2026-04-18T07:21:19.999Z</time></trkpt><trkpt lat="45.995826692443494" lon="13.303698360831032"><ele>66.0</ele><time>2026-04-18T07:21:20.999Z</time></trkpt><trkpt lat="45.99582350323388" lon="13.303494977559307"><ele>66.0</ele><time>2026-04-18T07:21:21.999Z</time></trkpt><trkpt lat="45.99582004381291" lon="13.303315197080847"><ele>66.0</ele><time>2026-04-18T07:21:22.999Z</time></trkpt><trkpt lat="45.995841714192615" lon="13.3031608082274"><ele>66.0</ele><time>2026-04-18T07:21:23.999Z</time></trkpt><trkpt lat="45.995904297894626" lon="13.303029054820552"><ele>66.75</ele><time>2026-04-18T07:21:24.999Z</time></trkpt><trkpt lat="45.99596542229615" lon="13.30290179514017"><ele>67.5</ele><time>2026-04-18T07:21:25.999Z</time></trkpt><trkpt lat="45.996037795075395" lon="13.302796424917151"><ele>68.25</ele><time>2026-04-18T07:21:26.999Z</time></trkpt><trkpt lat="45.9961485975523" lon="13.302736034656112"><ele>69.0</ele><time>2026-04-18T07:21:27.999Z</time></trkpt><trkpt lat="45.99628229045952" lon="13.302704102097923"><ele>69.0</ele><time>2026-04-18T07:21:28.999Z</time></trkpt><trkpt lat="45.99643221488714" lon="13.30273634235332"><ele>69.0</ele><time>2026-04-18T07:21:29.999Z</time></trkpt><trkpt lat="45.99658801553261" lon="13.3027822943953"><ele>69.0</ele><time>2026-04-18T07:21:30.999Z</time></trkpt><trkpt lat="45.99675587963774" lon="13.3028420967251"><ele>68.0</ele><time>2026-04-18T07:21:31.999Z</time></trkpt><trkpt lat="45.99690620353466" lon="13.302981157582758"><ele>67.0</ele><time>2026-04-18T07:21:32.999Z</time></trkpt><trkpt lat="45.997040437103614" lon="13.30313413826918"><ele>66.0</ele><time>2026-04-18T07:21:33.999Z</time></trkpt><trkpt lat="45.99718451433128" lon="13.303253387197788"><ele>66.0</ele><time>2026-04-18T07:21:34.999Z</time></trkpt><trkpt lat="45.99734346606901" lon="13.303303233361765"><ele>66.0</ele><time>2026-04-18T07:21:35.999Z</time></trkpt><trkpt lat="45.99750858891392" lon="13.303329945233305"><ele>66.0</ele><time>2026-04-18T07:21:36.999Z</time></trkpt><trkpt lat="45.997652650109465" lon="13.30334920836537"><ele>66.5</ele><time>2026-04-18T07:21:37.999Z</time></trkpt><trkpt lat="45.99777517768798" lon="13.303358383413999"><ele>67.0</ele><time>2026-04-18T07:21:38.999Z</time></trkpt><trkpt lat="45.99787921348756" lon="13.303343182403745"><ele>67.5</ele><time>2026-04-18T07:21:39.999Z</time></trkpt><trkpt lat="45.997977017206956" lon="13.303299097065247"><ele>68.0</ele><time>2026-04-18T07:21:40.999Z</time></trkpt><trkpt lat="45.99805176911799" lon="13.303146563349447"><ele>67.66666666666667</ele><time>2026-04-18T07:21:41.999Z</time></trkpt><trkpt lat="45.99807722496305" lon="13.302925813388757"><ele>67.33333333333333</ele><time>2026-04-18T07:21:42.999Z</time></trkpt><trkpt lat="45.998153176579684" lon="13.302679221360277"><ele>67.0</ele><time>2026-04-18T07:21:43.999Z</time></trkpt><trkpt lat="45.998218422486" lon="13.302399792479003"><ele>67.5</ele><time>2026-04-18T07:21:44.999Z</time></trkpt><trkpt lat="45.998262568923366" lon="13.302080723098754"><ele>68.0</ele><time>2026-04-18T07:21:45.999Z</time></trkpt><trkpt lat="45.998326822921946" lon="13.30176498526129"><ele>68.33333333333334</ele><time>2026-04-18T07:21:46.999Z</time></trkpt><trkpt lat="45.998378561921946" lon="13.301453405716122"><ele>68.66666666666667</ele><time>2026-04-18T07:21:47.999Z</time></trkpt><trkpt lat="45.99842199553166" lon="13.301165669083678"><ele>69.0</ele><time>2026-04-18T07:21:49Z</time></trkpt><trkpt lat="45.99849019267506" lon="13.30091371725401"><ele>69.0</ele><time>2026-04-18T07:21:50Z</time></trkpt><trkpt lat="45.99854093251489" lon="13.30065756595912"><ele>69.0</ele><time>2026-04-18T07:21:51Z</time></trkpt><trkpt lat="45.99865312682759" lon="13.30043229333208"><ele>69.0</ele><time>2026-04-18T07:21:52Z</time></trkpt><trkpt lat="45.9987789847941" lon="13.300206165584514"><ele>68.66666666666667</ele><time>2026-04-18T07:21:53Z</time></trkpt><trkpt lat="45.998903884325124" lon="13.299961194217051"><ele>68.33333333333334</ele><time>2026-04-18T07:21:54Z</time></trkpt><trkpt lat="45.99899768438084" lon="13.29965504500815"><ele>68.0</ele><time>2026-04-18T07:21:55Z</time></trkpt><trkpt lat="45.99907937570996" lon="13.299300593341531"><ele>67.5</ele><time>2026-04-18T07:21:56Z</time></trkpt><trkpt lat="45.9991709180781" lon="13.298902935448993"><ele>67.0</ele><time>2026-04-18T07:21:57Z</time></trkpt><trkpt lat="45.99926666176283" lon="13.298478683357754"><ele>66.0</ele><time>2026-04-18T07:21:58Z</time></trkpt><trkpt lat="45.99935333846824" lon="13.298037487520869"><ele>65.0</ele><time>2026-04-18T07:21:59Z</time></trkpt><trkpt lat="45.999449124023855" lon="13.29760702891674"><ele>66.0</ele><time>2026-04-18T07:22:00Z</time></trkpt><trkpt lat="45.99956232086665" lon="13.297193630206852"><ele>67.0</ele><time>2026-04-18T07:22:01Z</time></trkpt><trkpt lat="45.99963970372685" lon="13.296769596115835"><ele>67.0</ele><time>2026-04-18T07:22:02Z</time></trkpt><trkpt lat="45.99972850305112" lon="13.296361267631879"><ele>67.0</ele><time>2026-04-18T07:22:03Z</time></trkpt><trkpt lat="45.99980988079362" lon="13.2959621829688"><ele>66.0</ele><time>2026-04-18T07:22:04Z</time></trkpt><trkpt lat="45.999888911401584" lon="13.295572536944885"><ele>65.0</ele><time>2026-04-18T07:22:05Z</time></trkpt><trkpt lat="45.999966801644874" lon="13.295196607644137"><ele>65.0</ele><time>2026-04-18T07:22:06Z</time></trkpt><trkpt lat="46.000042074789256" lon="13.294836652302907"><ele>65.0</ele><time>2026-04-18T07:22:07Z</time></trkpt><trkpt lat="46.0001147497366" lon="13.29449511053919"><ele>65.33333333333334</ele><time>2026-04-18T07:22:08Z</time></trkpt><trkpt lat="46.00017952389843" lon="13.29417706631261"><ele>65.66666666666667</ele><time>2026-04-18T07:22:09Z</time></trkpt><trkpt lat="46.00025732911994" lon="13.293893751695157"><ele>66.0</ele><time>2026-04-18T07:22:10Z</time></trkpt><trkpt lat="46.00032335001836" lon="13.293627738654857"><ele>66.33333333333333</ele><time>2026-04-18T07:22:11Z</time></trkpt><trkpt lat="46.000402738023354" lon="13.293382535131757"><ele>66.66666666666666</ele><time>2026-04-18T07:22:12Z</time></trkpt><trkpt lat="46.000490137621966" lon="13.293148706650529"><ele>67.0</ele><time>2026-04-18T07:22:13Z</time></trkpt><trkpt lat="46.00060544733273" lon="13.292949549350528"><ele>67.0</ele><time>2026-04-18T07:22:14Z</time></trkpt><trkpt lat="46.00072834700052" lon="13.292765455544316"><ele>67.0</ele><time>2026-04-18T07:22:15Z</time></trkpt><trkpt lat="46.000861161393054" lon="13.292595850466478"><ele>67.0</ele><time>2026-04-18T07:22:16Z</time></trkpt><trkpt lat="46.00100627802348" lon="13.292431716998207"><ele>67.0</ele><time>2026-04-18T07:22:17Z</time></trkpt><trkpt lat="46.00115565808152" lon="13.292262434501646"><ele>67.0</ele><time>2026-04-18T07:22:18Z</time></trkpt><trkpt lat="46.00130478801871" lon="13.292088558549986"><ele>67.0</ele><time>2026-04-18T07:22:19Z</time></trkpt><trkpt lat="46.001458335146026" lon="13.291910351972998"><ele>67.33333333333333</ele><time>2026-04-18T07:22:20Z</time></trkpt><trkpt lat="46.00161582907501" lon="13.291729497141825"><ele>67.66666666666667</ele><time>2026-04-18T07:22:21Z</time></trkpt><trkpt lat="46.00177303808228" lon="13.291544440807817"><ele>68.0</ele><time>2026-04-18T07:22:22Z</time></trkpt><trkpt lat="46.001935830799596" lon="13.291353240363467"><ele>68.33333333333334</ele><time>2026-04-18T07:22:23Z</time></trkpt><trkpt lat="46.002097417381215" lon="13.291166502696178"><ele>68.66666666666667</ele><time>2026-04-18T07:22:24Z</time></trkpt><trkpt lat="46.00225173681936" lon="13.290993079787942"><ele>69.0</ele><time>2026-04-18T07:22:25Z</time></trkpt><trkpt lat="46.002405427640284" lon="13.290809339966268"><ele>68.0</ele><time>2026-04-18T07:22:26Z</time></trkpt><trkpt lat="46.00259458454287" lon="13.290594192043097"><ele>67.0</ele><time>2026-04-18T07:22:27Z</time></trkpt><trkpt lat="46.00279685987773" lon="13.290287172593723"><ele>67.0</ele><time>2026-04-18T07:22:28Z</time></trkpt><trkpt lat="46.00300690547582" lon="13.289934933502657"><ele>67.0</ele><time>2026-04-18T07:22:29Z</time></trkpt><trkpt lat="46.0032311814385" lon="13.289557064524473"><ele>66.5</ele><time>2026-04-18T07:22:30Z</time></trkpt><trkpt lat="46.0034551541048" lon="13.289179706052863"><ele>66.0</ele><time>2026-04-18T07:22:31Z</time></trkpt><trkpt lat="46.003689211495576" lon="13.288785356821876"><ele>67.5</ele><time>2026-04-18T07:22:32Z</time></trkpt><trkpt lat="46.00392797047745" lon="13.288386747053776"><ele>69.0</ele><time>2026-04-18T07:22:33Z</time></trkpt><trkpt lat="46.004154615275006" lon="13.287975528834638"><ele>68.5</ele><time>2026-04-18T07:22:34Z</time></trkpt><trkpt lat="46.00439262761969" lon="13.28757887432886"><ele>68.0</ele><time>2026-04-18T07:22:35Z</time></trkpt><trkpt lat="46.00462948319478" lon="13.287193774521787"><ele>67.5</ele><time>2026-04-18T07:22:36Z</time></trkpt><trkpt lat="46.00486613080044" lon="13.286820063171508"><ele>67.0</ele><time>2026-04-18T07:22:37Z</time></trkpt><trkpt lat="46.00510875641414" lon="13.28646041968861"><ele>68.5</ele><time>2026-04-18T07:22:38Z</time></trkpt><trkpt lat="46.005357931450966" lon="13.286120491682373"><ele>70.0</ele><time>2026-04-18T07:22:39Z</time></trkpt><trkpt lat="46.00560148220991" lon="13.285799290952113"><ele>69.5</ele><time>2026-04-18T07:22:40Z</time></trkpt><trkpt lat="46.005829955704044" lon="13.285494282439917"><ele>69.0</ele><time>2026-04-18T07:22:41Z</time></trkpt><trkpt lat="46.00604121130122" lon="13.285207514781447"><ele>69.0</ele><time>2026-04-18T07:22:42Z</time></trkpt><trkpt lat="46.006240234821" lon="13.284937639155798"><ele>69.0</ele><time>2026-04-18T07:22:43Z</time></trkpt><trkpt lat="46.006427665550305" lon="13.28467674611053"><ele>69.5</ele><time>2026-04-18T07:22:44Z</time></trkpt><trkpt lat="46.006595051570564" lon="13.284409609657041"><ele>70.0</ele><time>2026-04-18T07:22:45Z</time></trkpt><trkpt lat="46.006741685004584" lon="13.284099112256165"><ele>70.5</ele><time>2026-04-18T07:22:46Z</time></trkpt><trkpt lat="46.00688488629383" lon="13.283758848094326"><ele>71.0</ele><time>2026-04-18T07:22:47Z</time></trkpt><trkpt lat="46.00703424908266" lon="13.283400788219105"><ele>71.0</ele><time>2026-04-18T07:22:48Z</time></trkpt><trkpt lat="46.00718657535706" lon="13.28303660002829"><ele>71.0</ele><time>2026-04-18T07:22:49Z</time></trkpt><trkpt lat="46.007342794948705" lon="13.282661890957035"><ele>71.5</ele><time>2026-04-18T07:22:50Z</time></trkpt><trkpt lat="46.00750219180086" lon="13.282283698744846"><ele>72.0</ele><time>2026-04-18T07:22:51Z</time></trkpt><trkpt lat="46.007661387197714" lon="13.28190338190771"><ele>72.5</ele><time>2026-04-18T07:22:52Z</time></trkpt><trkpt lat="46.007820933658024" lon="13.28152441308736"><ele>73.0</ele><time>2026-04-18T07:22:53Z</time></trkpt><trkpt lat="46.00797350834274" lon="13.28115387741124"><ele>73.0</ele><time>2026-04-18T07:22:54Z</time></trkpt><trkpt lat="46.00810281680561" lon="13.280811982253345"><ele>73.0</ele><time>2026-04-18T07:22:55Z</time></trkpt><trkpt lat="46.008212929560955" lon="13.280477024920389"><ele>73.0</ele><time>2026-04-18T07:22:56Z</time></trkpt><trkpt lat="46.00830684749452" lon="13.280148150224978"><ele>73.0</ele><time>2026-04-18T07:22:57Z</time></trkpt><trkpt lat="46.0083582106765" lon="13.279802407238513"><ele>73.0</ele><time>2026-04-18T07:22:58Z</time></trkpt><trkpt lat="46.00838125361453" lon="13.279471313149827"><ele>73.0</ele><time>2026-04-18T07:22:59Z</time></trkpt><trkpt lat="46.00839830599759" lon="13.279168268467597"><ele>73.0</ele><time>2026-04-18T07:22:59.999Z</time></trkpt><trkpt lat="46.00840672148619" lon="13.27889560488274"><ele>74.0</ele><time>2026-04-18T07:23:00.999Z</time></trkpt><trkpt lat="46.00845598920894" lon="13.278646373998162"><ele>75.0</ele><time>2026-04-18T07:23:01.999Z</time></trkpt><trkpt lat="46.00853583372257" lon="13.278425823676587"><ele>76.0</ele><time>2026-04-18T07:23:02.999Z</time></trkpt><trkpt lat="46.0086384209927" lon="13.278232865516985"><ele>76.66666666666666</ele><time>2026-04-18T07:23:03.999Z</time></trkpt><trkpt lat="46.00877560780905" lon="13.278074115341159"><ele>77.33333333333333</ele><time>2026-04-18T07:23:04.999Z</time></trkpt><trkpt lat="46.00894656224013" lon="13.277948077996452"><ele>78.0</ele><time>2026-04-18T07:23:05.999Z</time></trkpt><trkpt lat="46.00914489681504" lon="13.277825914546465"><ele>77.0</ele><time>2026-04-18T07:23:06.999Z</time></trkpt><trkpt lat="46.00936252282181" lon="13.27769044979915"><ele>76.0</ele><time>2026-04-18T07:23:07.999Z</time></trkpt><trkpt lat="46.00960006162256" lon="13.277540632313233"><ele>76.0</ele><time>2026-04-18T07:23:08.999Z</time></trkpt><trkpt lat="46.00984473258117" lon="13.277370672090449"><ele>76.0</ele><time>2026-04-18T07:23:09.999Z</time></trkpt><trkpt lat="46.01009541785508" lon="13.27719363883339"><ele>75.0</ele><time>2026-04-18T07:23:10.999Z</time></trkpt><trkpt lat="46.01031380165029" lon="13.276932222789148"><ele>74.0</ele><time>2026-04-18T07:23:11.999Z</time></trkpt><trkpt lat="46.0105314296485" lon="13.27666745610254"><ele>74.0</ele><time>2026-04-18T07:23:12.999Z</time></trkpt><trkpt lat="46.010751728708094" lon="13.276395509732332"><ele>74.0</ele><time>2026-04-18T07:23:13.999Z</time></trkpt><trkpt lat="46.010992072248925" lon="13.27615098474452"><ele>75.0</ele><time>2026-04-18T07:23:14.999Z</time></trkpt><trkpt lat="46.011241171719426" lon="13.275917054144038"><ele>76.0</ele><time>2026-04-18T07:23:15.999Z</time></trkpt><trkpt lat="46.01148675299283" lon="13.275683489714995"><ele>76.0</ele><time>2026-04-18T07:23:16.999Z</time></trkpt><trkpt lat="46.01172666627919" lon="13.275455338942624"><ele>76.0</ele><time>2026-04-18T07:23:17.999Z</time></trkpt><trkpt lat="46.0119443237516" lon="13.275248890954732"><ele>76.0</ele><time>2026-04-18T07:23:18.999Z</time></trkpt><trkpt lat="46.012138062646265" lon="13.275068568611884"><ele>76.0</ele><time>2026-04-18T07:23:19.999Z</time></trkpt><trkpt lat="46.01230563176888" lon="13.274912906343747"><ele>76.0</ele><time>2026-04-18T07:23:20.999Z</time></trkpt><trkpt lat="46.012452321139634" lon="13.274759416549724"><ele>76.66666666666666</ele><time>2026-04-18T07:23:21.999Z</time></trkpt><trkpt lat="46.012584726852175" lon="13.274587251009937"><ele>77.33333333333333</ele><time>2026-04-18T07:23:22.999Z</time></trkpt><trkpt lat="46.01269707978282" lon="13.27439019699417"><ele>78.0</ele><time>2026-04-18T07:23:23.999Z</time></trkpt><trkpt lat="46.01277763671422" lon="13.274151255156097"><ele>77.66666666666667</ele><time>2026-04-18T07:23:24.999Z</time></trkpt><trkpt lat="46.01283447104997" lon="13.273876916209744"><ele>77.33333333333334</ele><time>2026-04-18T07:23:25.999Z</time></trkpt><trkpt lat="46.01286941460351" lon="13.273574699355276"><ele>77.0</ele><time>2026-04-18T07:23:26.999Z</time></trkpt><trkpt lat="46.01287482553299" lon="13.273230302081044"><ele>77.5</ele><time>2026-04-18T07:23:27.999Z</time></trkpt><trkpt lat="46.01287465462836" lon="13.272867090365462"><ele>78.0</ele><time>2026-04-18T07:23:28.999Z</time></trkpt><trkpt lat="46.012880047181255" lon="13.272506769846675"><ele>77.33333333333333</ele><time>2026-04-18T07:23:29.999Z</time></trkpt><trkpt lat="46.01288516237928" lon="13.272199604593935"><ele>76.66666666666666</ele><time>2026-04-18T07:23:30.999Z</time></trkpt><trkpt lat="46.012894344854224" lon="13.271948131910195"><ele>76.0</ele><time>2026-04-18T07:23:31.999Z</time></trkpt><trkpt lat="46.01291300511891" lon="13.271741090687827"><ele>76.0</ele><time>2026-04-18T07:23:32.999Z</time></trkpt><trkpt lat="46.01294699389247" lon="13.2715570123722"><ele>76.0</ele><time>2026-04-18T07:23:33.999Z</time></trkpt><trkpt lat="46.01301422107625" lon="13.271357988344592"><ele>76.0</ele><time>2026-04-18T07:23:34.999Z</time></trkpt><trkpt lat="46.013113998810816" lon="13.271155260468708"><ele>76.0</ele><time>2026-04-18T07:23:35.999Z</time></trkpt><trkpt lat="46.01323003653454" lon="13.270944676270153"><ele>76.0</ele><time>2026-04-18T07:23:36.999Z</time></trkpt><trkpt lat="46.01333754416753" lon="13.270757352376167"><ele>76.0</ele><time>2026-04-18T07:23:37.999Z</time></trkpt><trkpt lat="46.01345267046631" lon="13.270596391521883"><ele>76.33333333333333</ele><time>2026-04-18T07:23:38.999Z</time></trkpt><trkpt lat="46.01358310685865" lon="13.27048119367282"><ele>76.66666666666667</ele><time>2026-04-18T07:23:39.999Z</time></trkpt><trkpt lat="46.013726988579315" lon="13.270408312302767"><ele>77.0</ele><time>2026-04-18T07:23:40.999Z</time></trkpt><trkpt lat="46.01388771349335" lon="13.27036264422432"><ele>77.0</ele><time>2026-04-18T07:23:41.999Z</time></trkpt><trkpt lat="46.01404754356234" lon="13.27031899297307"><ele>77.0</ele><time>2026-04-18T07:23:42.999Z</time></trkpt><trkpt lat="46.01420857899031" lon="13.270266942339079"><ele>77.0</ele><time>2026-04-18T07:23:43.999Z</time></trkpt><trkpt lat="46.01438621331558" lon="13.270240856252626"><ele>77.33333333333334</ele><time>2026-04-18T07:23:44.999Z</time></trkpt><trkpt lat="46.01457403367275" lon="13.270189369100395"><ele>77.66666666666667</ele><time>2026-04-18T07:23:45.999Z</time></trkpt><trkpt lat="46.01477210589516" lon="13.270111834269033"><ele>78.0</ele><time>2026-04-18T07:23:46.999Z</time></trkpt><trkpt lat="46.014982880665194" lon="13.270064094718956"><ele>78.5</ele><time>2026-04-18T07:23:47.999Z</time></trkpt><trkpt lat="46.01520468412718" lon="13.270007157615519"><ele>79.0</ele><time>2026-04-18T07:23:48.999Z</time></trkpt><trkpt lat="46.01543278341578" lon="13.269946523919003"><ele>79.0</ele><time>2026-04-18T07:23:49.999Z</time></trkpt><trkpt lat="46.01566503278628" lon="13.269883891707655"><ele>79.0</ele><time>2026-04-18T07:23:50.999Z</time></trkpt><trkpt lat="46.01590174155415" lon="13.26981899966182"><ele>79.0</ele><time>2026-04-18T07:23:51.999Z</time></trkpt><trkpt lat="46.01613861980387" lon="13.269754480786366"><ele>79.0</ele><time>2026-04-18T07:23:52.999Z</time></trkpt><trkpt lat="46.01637594057586" lon="13.26969003261363"><ele>79.0</ele><time>2026-04-18T07:23:53.999Z</time></trkpt><trkpt lat="46.01661133158096" lon="13.269629101266956"><ele>79.0</ele><time>2026-04-18T07:23:55Z</time></trkpt><trkpt lat="46.01684437285079" lon="13.26956591738509"><ele>79.5</ele><time>2026-04-18T07:23:56Z</time></trkpt><trkpt lat="46.01707910590292" lon="13.269498188242682"><ele>80.0</ele><time>2026-04-18T07:23:57Z</time></trkpt><trkpt lat="46.01731521980107" lon="13.269428930664024"><ele>79.5</ele><time>2026-04-18T07:23:58Z</time></trkpt><trkpt lat="46.01755200695122" lon="13.26936099933056"><ele>79.0</ele><time>2026-04-18T07:23:59Z</time></trkpt><trkpt lat="46.0177871422097" lon="13.26929729375103"><ele>79.0</ele><time>2026-04-18T07:24:00Z</time></trkpt><trkpt lat="46.018017544572636" lon="13.26923290372587"><ele>79.0</ele><time>2026-04-18T07:24:01Z</time></trkpt><trkpt lat="46.01823650464863" lon="13.269170139819135"><ele>79.66666666666666</ele><time>2026-04-18T07:24:02Z</time></trkpt><trkpt lat="46.01843026106427" lon="13.269113266886379"><ele>80.33333333333333</ele><time>2026-04-18T07:24:03Z</time></trkpt><trkpt lat="46.01859856798603" lon="13.269063092881868"><ele>81.0</ele><time>2026-04-18T07:24:04Z</time></trkpt><trkpt lat="46.01874118201271" lon="13.269025204118352"><ele>81.0</ele><time>2026-04-18T07:24:05Z</time></trkpt><trkpt lat="46.018864345646705" lon="13.269002833068269"><ele>81.0</ele><time>2026-04-18T07:24:06Z</time></trkpt><trkpt lat="46.018970045800074" lon="13.268998714102334"><ele>81.0</ele><time>2026-04-18T07:24:07Z</time></trkpt><trkpt lat="46.01904973533256" lon="13.269009456170416"><ele>81.0</ele><time>2026-04-18T07:24:08Z</time></trkpt><trkpt lat="46.0191595468755" lon="13.269059209405409"><ele>81.0</ele><time>2026-04-18T07:24:10Z</time></trkpt><trkpt lat="46.01925339429516" lon="13.269100943132855"><ele>81.33333333333333</ele><time>2026-04-18T07:24:12Z</time></trkpt><trkpt lat="46.01935366984031" lon="13.269176252423906"><ele>81.66666666666666</ele><time>2026-04-18T07:24:13Z</time></trkpt><trkpt lat="46.0195013153112" lon="13.269246612693289"><ele>82.0</ele><time>2026-04-18T07:24:14Z</time></trkpt><trkpt lat="46.01967253821486" lon="13.269350049101348"><ele>82.0</ele><time>2026-04-18T07:24:15Z</time></trkpt><trkpt lat="46.019873242055795" lon="13.26938628433645"><ele>82.0</ele><time>2026-04-18T07:24:16Z</time></trkpt><trkpt lat="46.02008456009498" lon="13.269366095815776"><ele>82.0</ele><time>2026-04-18T07:24:17Z</time></trkpt><trkpt lat="46.020294854969514" lon="13.269325444362988"><ele>81.66666666666666</ele><time>2026-04-18T07:24:18Z</time></trkpt><trkpt lat="46.02049457042622" lon="13.269261574711882"><ele>81.33333333333333</ele><time>2026-04-18T07:24:19Z</time></trkpt><trkpt lat="46.020682905141" lon="13.269180682549374"><ele>81.0</ele><time>2026-04-18T07:24:20Z</time></trkpt><trkpt lat="46.02085953517197" lon="13.269073846295978"><ele>81.0</ele><time>2026-04-18T07:24:21Z</time></trkpt><trkpt lat="46.021034103952346" lon="13.268944516768883"><ele>81.0</ele><time>2026-04-18T07:24:22Z</time></trkpt><trkpt lat="46.02119645277835" lon="13.268800880386312"><ele>81.0</ele><time>2026-04-18T07:24:23Z</time></trkpt><trkpt lat="46.02133618148902" lon="13.268653844006213"><ele>81.0</ele><time>2026-04-18T07:24:24Z</time></trkpt><trkpt lat="46.02145321634871" lon="13.268489379373799"><ele>81.0</ele><time>2026-04-18T07:24:25Z</time></trkpt><trkpt lat="46.02154397472255" lon="13.268309666974643"><ele>81.0</ele><time>2026-04-18T07:24:26Z</time></trkpt><trkpt lat="46.02161006797644" lon="13.268112413433366"><ele>81.66666666666667</ele><time>2026-04-18T07:24:27Z</time></trkpt><trkpt lat="46.02165496953314" lon="13.267888260300284"><ele>82.33333333333334</ele><time>2026-04-18T07:24:28Z</time></trkpt><trkpt lat="46.02166406491011" lon="13.26763265595917"><ele>83.0</ele><time>2026-04-18T07:24:29Z</time></trkpt><trkpt lat="46.02162205237882" lon="13.267392490338121"><ele>82.66666666666667</ele><time>2026-04-18T07:24:30Z</time></trkpt><trkpt lat="46.021530366823306" lon="13.267171487105642"><ele>82.33333333333333</ele><time>2026-04-18T07:24:31Z</time></trkpt><trkpt lat="46.021395322912035" lon="13.266975757200116"><ele>82.0</ele><time>2026-04-18T07:24:32Z</time></trkpt><trkpt lat="46.021225693499204" lon="13.26682885466203"><ele>82.0</ele><time>2026-04-18T07:24:33Z</time></trkpt><trkpt lat="46.02102936326876" lon="13.266744276017238"><ele>82.0</ele><time>2026-04-18T07:24:34Z</time></trkpt><trkpt lat="46.02081367225456" lon="13.26672761902317"><ele>82.0</ele><time>2026-04-18T07:24:35Z</time></trkpt><trkpt lat="46.020591906800135" lon="13.266743753659412"><ele>82.0</ele><time>2026-04-18T07:24:36Z</time></trkpt><trkpt lat="46.020414068963106" lon="13.266741613174274"><ele>82.0</ele><time>2026-04-18T07:24:37Z</time></trkpt><trkpt lat="46.020255288439685" lon="13.266727515946165"><ele>82.0</ele><time>2026-04-18T07:24:38Z</time></trkpt><trkpt lat="46.020115739837806" lon="13.266662725414244"><ele>82.0</ele><time>2026-04-18T07:24:39Z</time></trkpt><trkpt lat="46.019971637902565" lon="13.266543632941527"><ele>82.0</ele><time>2026-04-18T07:24:40Z</time></trkpt><trkpt lat="46.01984451157885" lon="13.266350403816489"><ele>82.0</ele><time>2026-04-18T07:24:41Z</time></trkpt><trkpt lat="46.0197469421344" lon="13.266076404985004"><ele>81.0</ele><time>2026-04-18T07:24:42Z</time></trkpt><trkpt lat="46.019612674582525" lon="13.265795466335208"><ele>80.0</ele><time>2026-04-18T07:24:43Z</time></trkpt><trkpt lat="46.01947425529521" lon="13.265488693307015"><ele>80.0</ele><time>2026-04-18T07:24:44Z</time></trkpt><trkpt lat="46.01932898002245" lon="13.26516154342408"><ele>80.0</ele><time>2026-04-18T07:24:45Z</time></trkpt><trkpt lat="46.01918405564303" lon="13.264812467297771"><ele>80.5</ele><time>2026-04-18T07:24:46Z</time></trkpt><trkpt lat="46.01903883020776" lon="13.26444049413598"><ele>81.0</ele><time>2026-04-18T07:24:47Z</time></trkpt><trkpt lat="46.01889002925375" lon="13.264062356176638"><ele>80.5</ele><time>2026-04-18T07:24:48Z</time></trkpt><trkpt lat="46.018741182072944" lon="13.263678834690797"><ele>80.0</ele><time>2026-04-18T07:24:49Z</time></trkpt><trkpt lat="46.01859334936769" lon="13.26328711361102"><ele>80.0</ele><time>2026-04-18T07:24:50Z</time></trkpt><trkpt lat="46.01844468293197" lon="13.262896119109282"><ele>80.0</ele><time>2026-04-18T07:24:51Z</time></trkpt><trkpt lat="46.01829584303501" lon="13.262500994679993"><ele>79.0</ele><time>2026-04-18T07:24:52Z</time></trkpt><trkpt lat="46.01814612080396" lon="13.262107089353105"><ele>78.0</ele><time>2026-04-18T07:24:53Z</time></trkpt><trkpt lat="46.017995184876156" lon="13.261714165514572"><ele>78.0</ele><time>2026-04-18T07:24:54Z</time></trkpt><trkpt lat="46.01784787951639" lon="13.261324102831427"><ele>78.0</ele><time>2026-04-18T07:24:55Z</time></trkpt><trkpt lat="46.017701067968304" lon="13.260934292083165"><ele>78.0</ele><time>2026-04-18T07:24:56Z</time></trkpt><trkpt lat="46.017553623691654" lon="13.260543207218523"><ele>78.0</ele><time>2026-04-18T07:24:57Z</time></trkpt><trkpt lat="46.017405497579006" lon="13.260148971554091"><ele>79.0</ele><time>2026-04-18T07:24:57.999Z</time></trkpt><trkpt lat="46.01725742635273" lon="13.259754241831116"><ele>80.0</ele><time>2026-04-18T07:24:58.999Z</time></trkpt><trkpt lat="46.017112808346376" lon="13.259355668297971"><ele>80.0</ele><time>2026-04-18T07:24:59.999Z</time></trkpt><trkpt lat="46.01697435323253" lon="13.25895379247063"><ele>80.0</ele><time>2026-04-18T07:25:00.999Z</time></trkpt><trkpt lat="46.016838867171806" lon="13.258553728324452"><ele>79.5</ele><time>2026-04-18T07:25:01.999Z</time></trkpt><trkpt lat="46.01670558280572" lon="13.258146637838461"><ele>79.0</ele><time>2026-04-18T07:25:02.999Z</time></trkpt><trkpt lat="46.01657207701446" lon="13.257733613238214"><ele>78.5</ele><time>2026-04-18T07:25:03.999Z</time></trkpt><trkpt lat="46.016442605236215" lon="13.257313001955902"><ele>78.0</ele><time>2026-04-18T07:25:04.999Z</time></trkpt><trkpt lat="46.01631940251539" lon="13.256885785091646"><ele>76.0</ele><time>2026-04-18T07:25:05.999Z</time></trkpt><trkpt lat="46.016202750663275" lon="13.256452250585811"><ele>74.0</ele><time>2026-04-18T07:25:06.999Z</time></trkpt><trkpt lat="46.01609129227576" lon="13.256011253543928"><ele>73.5</ele><time>2026-04-18T07:25:07.999Z</time></trkpt><trkpt lat="46.015986307565036" lon="13.255563696744968"><ele>73.0</ele><time>2026-04-18T07:25:08.999Z</time></trkpt><trkpt lat="46.015892408620296" lon="13.255108200932728"><ele>74.0</ele><time>2026-04-18T07:25:09.999Z</time></trkpt><trkpt lat="46.01580963576034" lon="13.254645355993176"><ele>75.0</ele><time>2026-04-18T07:25:10.999Z</time></trkpt><trkpt lat="46.01573220401076" lon="13.254177248546561"><ele>76.0</ele><time>2026-04-18T07:25:11.999Z</time></trkpt><trkpt lat="46.01566073808832" lon="13.25370190334524"><ele>77.0</ele><time>2026-04-18T07:25:12.999Z</time></trkpt><trkpt lat="46.01559938803784" lon="13.253220493521264"><ele>76.5</ele><time>2026-04-18T07:25:13.999Z</time></trkpt><trkpt lat="46.01554522835523" lon="13.252734467258922"><ele>76.0</ele><time>2026-04-18T07:25:14.999Z</time></trkpt><trkpt lat="46.015501722717346" lon="13.252243305297084"><ele>75.5</ele><time>2026-04-18T07:25:15.999Z</time></trkpt><trkpt lat="46.0154687235549" lon="13.251749468553495"><ele>75.0</ele><time>2026-04-18T07:25:16.999Z</time></trkpt><trkpt lat="46.0154495734711" lon="13.251251572931356"><ele>75.0</ele><time>2026-04-18T07:25:17.999Z</time></trkpt><trkpt lat="46.01543893569442" lon="13.250752718030451"><ele>75.0</ele><time>2026-04-18T07:25:18.999Z</time></trkpt><trkpt lat="46.01543900437064" lon="13.250249698480788"><ele>75.5</ele><time>2026-04-18T07:25:19.999Z</time></trkpt><trkpt lat="46.01544588270183" lon="13.249736528327132"><ele>76.0</ele><time>2026-04-18T07:25:20.999Z</time></trkpt><trkpt lat="46.01546274022495" lon="13.249201924967927"><ele>75.5</ele><time>2026-04-18T07:25:21.999Z</time></trkpt><trkpt lat="46.015494018163764" lon="13.248647809652983"><ele>75.0</ele><time>2026-04-18T07:25:22.999Z</time></trkpt><trkpt lat="46.01554447830328" lon="13.248107503436387"><ele>74.0</ele><time>2026-04-18T07:25:23.999Z</time></trkpt><trkpt lat="46.01561209446939" lon="13.247555258785868"><ele>73.0</ele><time>2026-04-18T07:25:24.999Z</time></trkpt><trkpt lat="46.01568186658917" lon="13.247002617910818"><ele>73.5</ele><time>2026-04-18T07:25:25.999Z</time></trkpt><trkpt lat="46.01576111947519" lon="13.246451250040838"><ele>74.0</ele><time>2026-04-18T07:25:26.999Z</time></trkpt><trkpt lat="46.01584233206169" lon="13.245905859999235"><ele>74.5</ele><time>2026-04-18T07:25:27.999Z</time></trkpt><trkpt lat="46.01592633510771" lon="13.245375631079584"><ele>75.0</ele><time>2026-04-18T07:25:28.999Z</time></trkpt><trkpt lat="46.01601474981721" lon="13.244857233092073"><ele>76.0</ele><time>2026-04-18T07:25:29.999Z</time></trkpt><trkpt lat="46.016104011353065" lon="13.244344317823577"><ele>77.0</ele><time>2026-04-18T07:25:30.999Z</time></trkpt><trkpt lat="46.0161951737063" lon="13.243831358686998"><ele>77.0</ele><time>2026-04-18T07:25:31.999Z</time></trkpt><trkpt lat="46.016291273384915" lon="13.243312828963262"><ele>77.0</ele><time>2026-04-18T07:25:32.999Z</time></trkpt><trkpt lat="46.016386946118345" lon="13.242797314959414"><ele>77.5</ele><time>2026-04-18T07:25:33.999Z</time></trkpt><trkpt lat="46.01648231081015" lon="13.242288757445776"><ele>78.0</ele><time>2026-04-18T07:25:34.999Z</time></trkpt><trkpt lat="46.01657267573256" lon="13.241798234285795"><ele>77.0</ele><time>2026-04-18T07:25:35.999Z</time></trkpt><trkpt lat="46.016655414582296" lon="13.24131341638247"><ele>76.0</ele><time>2026-04-18T07:25:36.999Z</time></trkpt><trkpt lat="46.01674270654205" lon="13.240831580072188"><ele>77.0</ele><time>2026-04-18T07:25:37.999Z</time></trkpt><trkpt lat="46.01684049529885" lon="13.240345098282708"><ele>78.0</ele><time>2026-04-18T07:25:38.999Z</time></trkpt><trkpt lat="46.01693483510143" lon="13.239846009423697"><ele>77.5</ele><time>2026-04-18T07:25:39.999Z</time></trkpt><trkpt lat="46.01702478935636" lon="13.239340676333692"><ele>77.0</ele><time>2026-04-18T07:25:40.999Z</time></trkpt><trkpt lat="46.017120743353665" lon="13.238839855626615"><ele>77.0</ele><time>2026-04-18T07:25:41.999Z</time></trkpt><trkpt lat="46.01721739867455" lon="13.238335626008157"><ele>77.0</ele><time>2026-04-18T07:25:42.999Z</time></trkpt><trkpt lat="46.01731465049132" lon="13.237829264151923"><ele>77.0</ele><time>2026-04-18T07:25:43.999Z</time></trkpt><trkpt lat="46.017407304487385" lon="13.237327661506772"><ele>77.0</ele><time>2026-04-18T07:25:44.999Z</time></trkpt><trkpt lat="46.01749853289422" lon="13.236837833635642"><ele>78.0</ele><time>2026-04-18T07:25:45.999Z</time></trkpt><trkpt lat="46.01758804990356" lon="13.23635611798303"><ele>79.0</ele><time>2026-04-18T07:25:46.999Z</time></trkpt><trkpt lat="46.01766732166876" lon="13.235879792332502"><ele>78.5</ele><time>2026-04-18T07:25:47.999Z</time></trkpt><trkpt lat="46.01772110736579" lon="13.235401951449806"><ele>78.0</ele><time>2026-04-18T07:25:48.999Z</time></trkpt><trkpt lat="46.01776061848845" lon="13.23490488045503"><ele>78.0</ele><time>2026-04-18T07:25:49.999Z</time></trkpt><trkpt lat="46.017813920881025" lon="13.234405347527677"><ele>78.0</ele><time>2026-04-18T07:25:50.999Z</time></trkpt><trkpt lat="46.0178386279592" lon="13.233900416406579"><ele>78.0</ele><time>2026-04-18T07:25:51.999Z</time></trkpt><trkpt lat="46.01783009192768" lon="13.233391279961346"><ele>78.0</ele><time>2026-04-18T07:25:52.999Z</time></trkpt><trkpt lat="46.017825880112106" lon="13.23288013909874"><ele>78.0</ele><time>2026-04-18T07:25:53.999Z</time></trkpt><trkpt lat="46.01780859671828" lon="13.232371622332684"><ele>78.0</ele><time>2026-04-18T07:25:54.999Z</time></trkpt><trkpt lat="46.01776936935887" lon="13.231867480319536"><ele>78.0</ele><time>2026-04-18T07:25:55.999Z</time></trkpt><trkpt lat="46.017706323124266" lon="13.231368725521481"><ele>78.0</ele><time>2026-04-18T07:25:56.999Z</time></trkpt><trkpt lat="46.01763410911172" lon="13.230877828898796"><ele>78.0</ele><time>2026-04-18T07:25:57.999Z</time></trkpt><trkpt lat="46.0175559321231" lon="13.23039935193765"><ele>78.0</ele><time>2026-04-18T07:25:58.999Z</time></trkpt><trkpt lat="46.017463304350485" lon="13.229934850491063"><ele>78.0</ele><time>2026-04-18T07:25:59.999Z</time></trkpt><trkpt lat="46.01735538845824" lon="13.229492129422887"><ele>78.0</ele><time>2026-04-18T07:26:01Z</time></trkpt><trkpt lat="46.01723884455009" lon="13.229080349116469"><ele>78.5</ele><time>2026-04-18T07:26:02Z</time></trkpt><trkpt lat="46.01712957325254" lon="13.228690645991668"><ele>79.0</ele><time>2026-04-18T07:26:03Z</time></trkpt><trkpt lat="46.01704048215441" lon="13.228320398195628"><ele>80.0</ele><time>2026-04-18T07:26:04Z</time></trkpt><trkpt lat="46.01698289784392" lon="13.227965396816668"><ele>81.0</ele><time>2026-04-18T07:26:05Z</time></trkpt><trkpt lat="46.01695167408386" lon="13.227624068271195"><ele>80.66666666666667</ele><time>2026-04-18T07:26:06Z</time></trkpt><trkpt lat="46.01694556016868" lon="13.22729979803079"><ele>80.33333333333334</ele><time>2026-04-18T07:26:07Z</time></trkpt><trkpt lat="46.01696353371073" lon="13.226978049038319"><ele>80.0</ele><time>2026-04-18T07:26:08Z</time></trkpt><trkpt lat="46.01700310503078" lon="13.22666388218455"><ele>80.0</ele><time>2026-04-18T07:26:09Z</time></trkpt><trkpt lat="46.017052949155804" lon="13.226358699997505"><ele>80.0</ele><time>2026-04-18T07:26:10Z</time></trkpt><trkpt lat="46.01709243709301" lon="13.226053588074954"><ele>80.0</ele><time>2026-04-18T07:26:11Z</time></trkpt><trkpt lat="46.017111813733685" lon="13.225742249742819"><ele>79.33333333333334</ele><time>2026-04-18T07:26:12Z</time></trkpt><trkpt lat="46.01711595673867" lon="13.22543615085692"><ele>78.66666666666667</ele><time>2026-04-18T07:26:13Z</time></trkpt><trkpt lat="46.01710209299736" lon="13.225136258578807"><ele>78.0</ele><time>2026-04-18T07:26:14Z</time></trkpt><trkpt lat="46.01706276504957" lon="13.224839844766562"><ele>78.0</ele><time>2026-04-18T07:26:15Z</time></trkpt><trkpt lat="46.017004776015526" lon="13.22454894454339"><ele>78.0</ele><time>2026-04-18T07:26:16Z</time></trkpt><trkpt lat="46.016941289550935" lon="13.224266399239049"><ele>78.0</ele><time>2026-04-18T07:26:17Z</time></trkpt><trkpt lat="46.01688089754269" lon="13.223999860432798"><ele>78.0</ele><time>2026-04-18T07:26:18Z</time></trkpt><trkpt lat="46.01683035856612" lon="13.223742000443556"><ele>78.0</ele><time>2026-04-18T07:26:19Z</time></trkpt><trkpt lat="46.01679516007292" lon="13.223483914207375"><ele>78.0</ele><time>2026-04-18T07:26:20Z</time></trkpt><trkpt lat="46.016776401566034" lon="13.223227547531842"><ele>78.0</ele><time>2026-04-18T07:26:21Z</time></trkpt><trkpt lat="46.01677029674279" lon="13.222977395409352"><ele>78.0</ele><time>2026-04-18T07:26:22Z</time></trkpt><trkpt lat="46.01677231445582" lon="13.222733150358719"><ele>78.0</ele><time>2026-04-18T07:26:23Z</time></trkpt><trkpt lat="46.01678559283538" lon="13.222510220448996"><ele>78.0</ele><time>2026-04-18T07:26:24Z</time></trkpt><trkpt lat="46.01681642603865" lon="13.222309717436298"><ele>78.0</ele><time>2026-04-18T07:26:25Z</time></trkpt><trkpt lat="46.01685636565067" lon="13.222095223157375"><ele>78.0</ele><time>2026-04-18T07:26:26Z</time></trkpt><trkpt lat="46.01689151717455" lon="13.221844116269043"><ele>78.0</ele><time>2026-04-18T07:26:27Z</time></trkpt><trkpt lat="46.01693262737418" lon="13.221515907197679"><ele>78.0</ele><time>2026-04-18T07:26:28Z</time></trkpt><trkpt lat="46.017001019804496" lon="13.22116386599299"><ele>78.0</ele><time>2026-04-18T07:26:29Z</time></trkpt><trkpt lat="46.01708055318054" lon="13.220802982603857"><ele>78.0</ele><time>2026-04-18T07:26:30Z</time></trkpt><trkpt lat="46.01715971372264" lon="13.220444844857662"><ele>78.0</ele><time>2026-04-18T07:26:31Z</time></trkpt><trkpt lat="46.01723934650873" lon="13.220101782519999"><ele>78.0</ele><time>2026-04-18T07:26:32Z</time></trkpt><trkpt lat="46.01731937552959" lon="13.219776522923052"><ele>79.0</ele><time>2026-04-18T07:26:33Z</time></trkpt><trkpt lat="46.01740546483144" lon="13.219470685172357"><ele>80.0</ele><time>2026-04-18T07:26:34Z</time></trkpt><trkpt lat="46.01749785436174" lon="13.219178964894782"><ele>80.66666666666667</ele><time>2026-04-18T07:26:35Z</time></trkpt><trkpt lat="46.01759570360795" lon="13.218890425152292"><ele>81.33333333333333</ele><time>2026-04-18T07:26:36Z</time></trkpt><trkpt lat="46.01770568520598" lon="13.218612367850987"><ele>82.0</ele><time>2026-04-18T07:26:37Z</time></trkpt><trkpt lat="46.017837190878375" lon="13.21832631820391"><ele>82.0</ele><time>2026-04-18T07:26:38Z</time></trkpt><trkpt lat="46.01798635591439" lon="13.218019002798862"><ele>82.0</ele><time>2026-04-18T07:26:39Z</time></trkpt><trkpt lat="46.01814607446156" lon="13.217706371248093"><ele>82.0</ele><time>2026-04-18T07:26:40Z</time></trkpt><trkpt lat="46.01832717216505" lon="13.217405433588414"><ele>82.0</ele><time>2026-04-18T07:26:41Z</time></trkpt><trkpt lat="46.018535037278994" lon="13.217127925158685"><ele>81.5</ele><time>2026-04-18T07:26:42Z</time></trkpt><trkpt lat="46.0187572984285" lon="13.216861520185791"><ele>81.0</ele><time>2026-04-18T07:26:43Z</time></trkpt><trkpt lat="46.01898644259029" lon="13.21661715012884"><ele>80.0</ele><time>2026-04-18T07:26:44Z</time></trkpt><trkpt lat="46.01921856485788" lon="13.21638551956315"><ele>79.0</ele><time>2026-04-18T07:26:45Z</time></trkpt><trkpt lat="46.01945566102351" lon="13.21615845429122"><ele>79.0</ele><time>2026-04-18T07:26:46Z</time></trkpt><trkpt lat="46.01970066274641" lon="13.215943853499473"><ele>79.0</ele><time>2026-04-18T07:26:47Z</time></trkpt><trkpt lat="46.01995047200396" lon="13.215726817088168"><ele>79.0</ele><time>2026-04-18T07:26:48Z</time></trkpt><trkpt lat="46.020203656066286" lon="13.215512453063944"><ele>79.0</ele><time>2026-04-18T07:26:49Z</time></trkpt><trkpt lat="46.020462725023286" lon="13.215295800980932"><ele>79.0</ele><time>2026-04-18T07:26:50Z</time></trkpt><trkpt lat="46.020723569402094" lon="13.215071854110903"><ele>79.0</ele><time>2026-04-18T07:26:51Z</time></trkpt><trkpt lat="46.02099175213188" lon="13.214841271375864"><ele>79.5</ele><time>2026-04-18T07:26:52Z</time></trkpt><trkpt lat="46.02127133812569" lon="13.214598592683473"><ele>80.0</ele><time>2026-04-18T07:26:53Z</time></trkpt><trkpt lat="46.021549313096834" lon="13.2143645048806"><ele>80.5</ele><time>2026-04-18T07:26:54Z</time></trkpt><trkpt lat="46.02182654622569" lon="13.214131698305511"><ele>81.0</ele><time>2026-04-18T07:26:55Z</time></trkpt><trkpt lat="46.02210218521435" lon="13.213896637847423"><ele>81.0</ele><time>2026-04-18T07:26:56Z</time></trkpt><trkpt lat="46.02237194129958" lon="13.213666251531928"><ele>81.0</ele><time>2026-04-18T07:26:57Z</time></trkpt><trkpt lat="46.02263998513505" lon="13.213444309890765"><ele>80.5</ele><time>2026-04-18T07:26:58Z</time></trkpt><trkpt lat="46.02290739994993" lon="13.21324435847854"><ele>80.0</ele><time>2026-04-18T07:26:59Z</time></trkpt><trkpt lat="46.02317912291842" lon="13.21308237241307"><ele>79.5</ele><time>2026-04-18T07:27:00Z</time></trkpt><trkpt lat="46.023460587956514" lon="13.212945380401383"><ele>79.0</ele><time>2026-04-18T07:27:00.999Z</time></trkpt><trkpt lat="46.02375078774746" lon="13.212842200382"><ele>79.0</ele><time>2026-04-18T07:27:01.999Z</time></trkpt><trkpt lat="46.02405340493761" lon="13.21276042314418"><ele>79.0</ele><time>2026-04-18T07:27:02.999Z</time></trkpt><trkpt lat="46.02438608308121" lon="13.212698641984703"><ele>79.0</ele><time>2026-04-18T07:27:03.999Z</time></trkpt><trkpt lat="46.02475449939529" lon="13.212662231106002"><ele>79.0</ele><time>2026-04-18T07:27:04.999Z</time></trkpt><trkpt lat="46.02515199609441" lon="13.21266101673453"><ele>78.5</ele><time>2026-04-18T07:27:05.999Z</time></trkpt><trkpt lat="46.025571526346624" lon="13.212701177297733"><ele>78.0</ele><time>2026-04-18T07:27:06.999Z</time></trkpt><trkpt lat="46.02598892163054" lon="13.212747970648463"><ele>78.0</ele><time>2026-04-18T07:27:07.999Z</time></trkpt><trkpt lat="46.02639156989843" lon="13.212809409259858"><ele>78.0</ele><time>2026-04-18T07:27:08.999Z</time></trkpt><trkpt lat="46.02679031811405" lon="13.21287950520282"><ele>77.5</ele><time>2026-04-18T07:27:09.999Z</time></trkpt><trkpt lat="46.027180733922236" lon="13.21294800715269"><ele>77.0</ele><time>2026-04-18T07:27:10.999Z</time></trkpt><trkpt lat="46.02756493456003" lon="13.21301219419628"><ele>78.5</ele><time>2026-04-18T07:27:11.999Z</time></trkpt><trkpt lat="46.0279432640098" lon="13.213066648212651"><ele>80.0</ele><time>2026-04-18T07:27:12.999Z</time></trkpt><trkpt lat="46.02831314144947" lon="13.213112972356058"><ele>81.5</ele><time>2026-04-18T07:27:13.999Z</time></trkpt><trkpt lat="46.02868219855398" lon="13.213136157868314"><ele>83.0</ele><time>2026-04-18T07:27:14.999Z</time></trkpt><trkpt lat="46.02904908417555" lon="13.213140775537537"><ele>82.0</ele><time>2026-04-18T07:27:15.999Z</time></trkpt><trkpt lat="46.029402808492456" lon="13.213130264093211"><ele>81.0</ele><time>2026-04-18T07:27:16.999Z</time></trkpt><trkpt lat="46.029745595360005" lon="13.213107289703599"><ele>82.5</ele><time>2026-04-18T07:27:17.999Z</time></trkpt><trkpt lat="46.03008830035979" lon="13.21307422901019"><ele>84.0</ele><time>2026-04-18T07:27:18.999Z</time></trkpt><trkpt lat="46.03043445937845" lon="13.21304535065595"><ele>84.0</ele><time>2026-04-18T07:27:19.999Z</time></trkpt><trkpt lat="46.0307815131658" lon="13.21302785043442"><ele>84.0</ele><time>2026-04-18T07:27:20.999Z</time></trkpt><trkpt lat="46.03112099759533" lon="13.213009331476965"><ele>84.5</ele><time>2026-04-18T07:27:21.999Z</time></trkpt><trkpt lat="46.03145587183169" lon="13.21298995916577"><ele>85.0</ele><time>2026-04-18T07:27:22.999Z</time></trkpt><trkpt lat="46.03178462873401" lon="13.212974154067965"><ele>85.5</ele><time>2026-04-18T07:27:23.999Z</time></trkpt><trkpt lat="46.03210660060896" lon="13.212951417664568"><ele>86.0</ele><time>2026-04-18T07:27:24.999Z</time></trkpt><trkpt lat="46.032422914983705" lon="13.212927554908612"><ele>86.0</ele><time>2026-04-18T07:27:25.999Z</time></trkpt><trkpt lat="46.03273699786417" lon="13.212914235485584"><ele>86.0</ele><time>2026-04-18T07:27:26.999Z</time></trkpt><trkpt lat="46.033049652811854" lon="13.212908046903912"><ele>86.5</ele><time>2026-04-18T07:27:27.999Z</time></trkpt><trkpt lat="46.033361387798294" lon="13.212895029502988"><ele>87.0</ele><time>2026-04-18T07:27:28.999Z</time></trkpt><trkpt lat="46.03367120163983" lon="13.212874935967225"><ele>87.0</ele><time>2026-04-18T07:27:29.999Z</time></trkpt><trkpt lat="46.033977875423055" lon="13.21284925057192"><ele>87.0</ele><time>2026-04-18T07:27:30.999Z</time></trkpt><trkpt lat="46.034277356750366" lon="13.212831415735046"><ele>86.5</ele><time>2026-04-18T07:27:31.999Z</time></trkpt><trkpt lat="46.03456629831237" lon="13.21282482828566"><ele>86.0</ele><time>2026-04-18T07:27:32.999Z</time></trkpt><trkpt lat="46.03484362709296" lon="13.212845514720101"><ele>86.0</ele><time>2026-04-18T07:27:33.999Z</time></trkpt><trkpt lat="46.03511497407822" lon="13.212904778499441"><ele>86.0</ele><time>2026-04-18T07:27:34.999Z</time></trkpt><trkpt lat="46.03538827677624" lon="13.213001409140764"><ele>86.0</ele><time>2026-04-18T07:27:35.999Z</time></trkpt><trkpt lat="46.03566471352471" lon="13.213119327819939"><ele>86.0</ele><time>2026-04-18T07:27:36.999Z</time></trkpt><trkpt lat="46.03594816461436" lon="13.213236501067554"><ele>87.5</ele><time>2026-04-18T07:27:37.999Z</time></trkpt><trkpt lat="46.03624029615877" lon="13.213350652543795"><ele>89.0</ele><time>2026-04-18T07:27:38.999Z</time></trkpt><trkpt lat="46.03653163112238" lon="13.213469853000051"><ele>88.0</ele><time>2026-04-18T07:27:39.999Z</time></trkpt><trkpt lat="46.03682422928198" lon="13.213575413116134"><ele>87.0</ele><time>2026-04-18T07:27:40.999Z</time></trkpt><trkpt lat="46.03711972366178" lon="13.213647820262837"><ele>87.0</ele><time>2026-04-18T07:27:41.999Z</time></trkpt><trkpt lat="46.03741796690776" lon="13.213673660790503"><ele>87.0</ele><time>2026-04-18T07:27:42.999Z</time></trkpt><trkpt lat="46.03771614270171" lon="13.213664296304941"><ele>87.5</ele><time>2026-04-18T07:27:43.999Z</time></trkpt><trkpt lat="46.038010493176714" lon="13.213623915822637"><ele>88.0</ele><time>2026-04-18T07:27:44.999Z</time></trkpt><trkpt lat="46.038297217826965" lon="13.21354056886731"><ele>89.0</ele><time>2026-04-18T07:27:45.999Z</time></trkpt><trkpt lat="46.03857676732755" lon="13.213412495460295"><ele>90.0</ele><time>2026-04-18T07:27:46.999Z</time></trkpt><trkpt lat="46.03885890010254" lon="13.213262984056806"><ele>91.0</ele><time>2026-04-18T07:27:47.999Z</time></trkpt><trkpt lat="46.03913665996105" lon="13.213093216891751"><ele>92.0</ele><time>2026-04-18T07:27:48.999Z</time></trkpt><trkpt lat="46.03942354355668" lon="13.21291117979772"><ele>92.0</ele><time>2026-04-18T07:27:49.999Z</time></trkpt><trkpt lat="46.0397198765474" lon="13.212734315420423"><ele>92.0</ele><time>2026-04-18T07:27:50.999Z</time></trkpt><trkpt lat="46.04002332219908" lon="13.212573095436683"><ele>90.5</ele><time>2026-04-18T07:27:51.999Z</time></trkpt><trkpt lat="46.040330534511114" lon="13.21242253359051"><ele>89.0</ele><time>2026-04-18T07:27:52.999Z</time></trkpt><trkpt lat="46.04064132960328" lon="13.2122917226793"><ele>89.0</ele><time>2026-04-18T07:27:53.999Z</time></trkpt><trkpt lat="46.04094614578598" lon="13.212186189272545"><ele>89.0</ele><time>2026-04-18T07:27:54.999Z</time></trkpt><trkpt lat="46.041226852747116" lon="13.21209975076395"><ele>89.0</ele><time>2026-04-18T07:27:55.999Z</time></trkpt><trkpt lat="46.04148942021711" lon="13.212023362321158"><ele>89.0</ele><time>2026-04-18T07:27:56.999Z</time></trkpt><trkpt lat="46.04173835775119" lon="13.211954376152828"><ele>89.5</ele><time>2026-04-18T07:27:57.999Z</time></trkpt><trkpt lat="46.041977620069645" lon="13.211883942025118"><ele>90.0</ele><time>2026-04-18T07:27:58.999Z</time></trkpt><trkpt lat="46.042207120901956" lon="13.211807794467363"><ele>90.0</ele><time>2026-04-18T07:27:59.999Z</time></trkpt><trkpt lat="46.04242731832721" lon="13.211729867922244"><ele>90.0</ele><time>2026-04-18T07:28:00.999Z</time></trkpt><trkpt lat="46.0426607531172" lon="13.211640094563583"><ele>90.0</ele><time>2026-04-18T07:28:01.999Z</time></trkpt><trkpt lat="46.04290886556561" lon="13.211534473657947"><ele>90.0</ele><time>2026-04-18T07:28:02.999Z</time></trkpt><trkpt lat="46.043168691674545" lon="13.21141782214563"><ele>89.0</ele><time>2026-04-18T07:28:03.999Z</time></trkpt><trkpt lat="46.0434504801466" lon="13.211278902542348"><ele>88.0</ele><time>2026-04-18T07:28:04.999Z</time></trkpt><trkpt lat="46.04376122382973" lon="13.211117314660783"><ele>88.0</ele><time>2026-04-18T07:28:06Z</time></trkpt><trkpt lat="46.044099726592925" lon="13.210922379080294"><ele>88.0</ele><time>2026-04-18T07:28:07Z</time></trkpt><trkpt lat="46.04446188337614" lon="13.210693621520045"><ele>90.5</ele><time>2026-04-18T07:28:08Z</time></trkpt><trkpt lat="46.044813246801155" lon="13.210455232255198"><ele>93.0</ele><time>2026-04-18T07:28:09Z</time></trkpt><trkpt lat="46.04512946989304" lon="13.210226006839479"><ele>94.5</ele><time>2026-04-18T07:28:10Z</time></trkpt><trkpt lat="46.04543899527342" lon="13.209984401724682"><ele>96.0</ele><time>2026-04-18T07:28:11Z</time></trkpt><trkpt lat="46.045738510661764" lon="13.209726721056189"><ele>94.5</ele><time>2026-04-18T07:28:12Z</time></trkpt><trkpt lat="46.046035598322504" lon="13.209460313199795"><ele>93.0</ele><time>2026-04-18T07:28:13Z</time></trkpt><trkpt lat="46.04633078085961" lon="13.209197426539637"><ele>93.5</ele><time>2026-04-18T07:28:14Z</time></trkpt><trkpt lat="46.04662125010374" lon="13.20894178713722"><ele>94.0</ele><time>2026-04-18T07:28:15Z</time></trkpt><trkpt lat="46.04690772630272" lon="13.20869169685561"><ele>94.0</ele><time>2026-04-18T07:28:16Z</time></trkpt><trkpt lat="46.04718865334448" lon="13.2084394694932"><ele>94.0</ele><time>2026-04-18T07:28:17Z</time></trkpt><trkpt lat="46.0474614868009" lon="13.208174558600653"><ele>92.0</ele><time>2026-04-18T07:28:18Z</time></trkpt><trkpt lat="46.04772779497049" lon="13.20787860641853"><ele>90.0</ele><time>2026-04-18T07:28:19Z</time></trkpt><trkpt lat="46.04798524393232" lon="13.207541214494407"><ele>90.5</ele><time>2026-04-18T07:28:20Z</time></trkpt><trkpt lat="46.048239687165946" lon="13.207183879087886"><ele>91.0</ele><time>2026-04-18T07:28:21Z</time></trkpt><trkpt lat="46.04848990068424" lon="13.206816660884"><ele>90.5</ele><time>2026-04-18T07:28:22Z</time></trkpt><trkpt lat="46.048734818898424" lon="13.206457001832291"><ele>90.0</ele><time>2026-04-18T07:28:23Z</time></trkpt><trkpt lat="46.04898425281879" lon="13.206122673804119"><ele>91.0</ele><time>2026-04-18T07:28:24Z</time></trkpt><trkpt lat="46.04922567370317" lon="13.20583424488568"><ele>92.0</ele><time>2026-04-18T07:28:25Z</time></trkpt><trkpt lat="46.04947204483848" lon="13.205579877784443"><ele>92.0</ele><time>2026-04-18T07:28:26Z</time></trkpt><trkpt lat="46.0497235150958" lon="13.2053633999585"><ele>92.0</ele><time>2026-04-18T07:28:27Z</time></trkpt><trkpt lat="46.049979349823" lon="13.205166258325034"><ele>93.0</ele><time>2026-04-18T07:28:28Z</time></trkpt><trkpt lat="46.05024021808346" lon="13.204972963219062"><ele>94.0</ele><time>2026-04-18T07:28:29Z</time></trkpt><trkpt lat="46.05050325092537" lon="13.204779740810356"><ele>94.0</ele><time>2026-04-18T07:28:30Z</time></trkpt><trkpt lat="46.05076760073094" lon="13.204591872248223"><ele>94.0</ele><time>2026-04-18T07:28:31Z</time></trkpt><trkpt lat="46.051038400322" lon="13.204395519226711"><ele>94.0</ele><time>2026-04-18T07:28:32Z</time></trkpt><trkpt lat="46.051310888063796" lon="13.204189229862845"><ele>94.0</ele><time>2026-04-18T07:28:33Z</time></trkpt><trkpt lat="46.05158685415807" lon="13.203986773067859"><ele>95.0</ele><time>2026-04-18T07:28:34Z</time></trkpt><trkpt lat="46.05187425627952" lon="13.203775685050061"><ele>96.0</ele><time>2026-04-18T07:28:35Z</time></trkpt><trkpt lat="46.0521729828746" lon="13.203559846651705"><ele>95.0</ele><time>2026-04-18T07:28:36Z</time></trkpt><trkpt lat="46.05247409739866" lon="13.203341058746021"><ele>94.0</ele><time>2026-04-18T07:28:37Z</time></trkpt><trkpt lat="46.0527760882371" lon="13.203121187857395"><ele>96.5</ele><time>2026-04-18T07:28:38Z</time></trkpt><trkpt lat="46.05307878825324" lon="13.202900499172515"><ele>99.0</ele><time>2026-04-18T07:28:39Z</time></trkpt><trkpt lat="46.05336915998529" lon="13.202686713027997"><ele>99.0</ele><time>2026-04-18T07:28:40Z</time></trkpt><trkpt lat="46.05364646230845" lon="13.20248509158999"><ele>99.0</ele><time>2026-04-18T07:28:41Z</time></trkpt><trkpt lat="46.05391107006265" lon="13.202292619735504"><ele>99.5</ele><time>2026-04-18T07:28:42Z</time></trkpt><trkpt lat="46.05416581790384" lon="13.202104025908667"><ele>100.0</ele><time>2026-04-18T07:28:43Z</time></trkpt><trkpt lat="46.054413921436506" lon="13.201921809636312"><ele>100.0</ele><time>2026-04-18T07:28:44Z</time></trkpt><trkpt lat="46.054658806634336" lon="13.201743693985405"><ele>100.0</ele><time>2026-04-18T07:28:45Z</time></trkpt><trkpt lat="46.05490419456197" lon="13.20156087214573"><ele>100.0</ele><time>2026-04-18T07:28:46Z</time></trkpt><trkpt lat="46.05515381207198" lon="13.201378317231574"><ele>100.0</ele><time>2026-04-18T07:28:47Z</time></trkpt><trkpt lat="46.05540791308144" lon="13.20119313925726"><ele>100.0</ele><time>2026-04-18T07:28:48Z</time></trkpt><trkpt lat="46.05566658172203" lon="13.201005071898186"><ele>100.0</ele><time>2026-04-18T07:28:49Z</time></trkpt><trkpt lat="46.05593041719645" lon="13.200812980828271"><ele>102.5</ele><time>2026-04-18T07:28:50Z</time></trkpt><trkpt lat="46.05620219107559" lon="13.200618476201408"><ele>105.0</ele><time>2026-04-18T07:28:51Z</time></trkpt><trkpt lat="46.056483631154414" lon="13.200420040370227"><ele>104.5</ele><time>2026-04-18T07:28:52Z</time></trkpt><trkpt lat="46.05676910907995" lon="13.20022219070659"><ele>104.0</ele><time>2026-04-18T07:28:53Z</time></trkpt><trkpt lat="46.0570548222339" lon="13.20002870518035"><ele>104.0</ele><time>2026-04-18T07:28:54Z</time></trkpt><trkpt lat="46.05734568736477" lon="13.199843024259295"><ele>104.0</ele><time>2026-04-18T07:28:55Z</time></trkpt><trkpt lat="46.05764410715577" lon="13.199666505420566"><ele>104.0</ele><time>2026-04-18T07:28:56Z</time></trkpt><trkpt lat="46.05794825303974" lon="13.19950451855679"><ele>104.0</ele><time>2026-04-18T07:28:57Z</time></trkpt><trkpt lat="46.05826169404546" lon="13.199359970074621"><ele>103.5</ele><time>2026-04-18T07:28:58Z</time></trkpt><trkpt lat="46.0585813192936" lon="13.199225928916992"><ele>103.0</ele><time>2026-04-18T07:28:59Z</time></trkpt><trkpt lat="46.058904428462576" lon="13.199099671107696"><ele>104.5</ele><time>2026-04-18T07:29:00Z</time></trkpt><trkpt lat="46.05922910459649" lon="13.198984686795733"><ele>106.0</ele><time>2026-04-18T07:29:00.999Z</time></trkpt><trkpt lat="46.059550773739296" lon="13.198900015732653"><ele>106.0</ele><time>2026-04-18T07:29:01.999Z</time></trkpt><trkpt lat="46.059856604086974" lon="13.198838188627517"><ele>106.0</ele><time>2026-04-18T07:29:02.999Z</time></trkpt><trkpt lat="46.0601430456959" lon="13.198790180509775"><ele>106.0</ele><time>2026-04-18T07:29:03.999Z</time></trkpt><trkpt lat="46.06041580728644" lon="13.198745511991227"><ele>106.0</ele><time>2026-04-18T07:29:04.999Z</time></trkpt><trkpt lat="46.06068091490159" lon="13.198703299774772"><ele>104.0</ele><time>2026-04-18T07:29:05.999Z</time></trkpt><trkpt lat="46.0609446438203" lon="13.198666795174516"><ele>102.0</ele><time>2026-04-18T07:29:06.999Z</time></trkpt><trkpt lat="46.06121092299922" lon="13.198635381565039"><ele>102.0</ele><time>2026-04-18T07:29:07.999Z</time></trkpt><trkpt lat="46.06147764918065" lon="13.198603630821571"><ele>102.0</ele><time>2026-04-18T07:29:08.999Z</time></trkpt><trkpt lat="46.06174300181764" lon="13.198565091674352"><ele>101.0</ele><time>2026-04-18T07:29:09.999Z</time></trkpt><trkpt lat="46.06200279295197" lon="13.198527494224749"><ele>100.0</ele><time>2026-04-18T07:29:10.999Z</time></trkpt><trkpt lat="46.06225181768964" lon="13.1984935607158"><ele>102.5</ele><time>2026-04-18T07:29:11.999Z</time></trkpt><trkpt lat="46.0624952689307" lon="13.198463512050969"><ele>105.0</ele><time>2026-04-18T07:29:12.999Z</time></trkpt><trkpt lat="46.062732941729024" lon="13.198432657381806"><ele>105.0</ele><time>2026-04-18T07:29:13.999Z</time></trkpt><trkpt lat="46.062967412949696" lon="13.198401353629526"><ele>105.0</ele><time>2026-04-18T07:29:14.999Z</time></trkpt><trkpt lat="46.06320632239991" lon="13.198368562997643"><ele>105.0</ele><time>2026-04-18T07:29:15.999Z</time></trkpt><trkpt lat="46.06344680037547" lon="13.198336913617549"><ele>105.0</ele><time>2026-04-18T07:29:16.999Z</time></trkpt><trkpt lat="46.063684932438505" lon="13.198305638854219"><ele>105.0</ele><time>2026-04-18T07:29:17.999Z</time></trkpt><trkpt lat="46.06392434214725" lon="13.198275131811311"><ele>105.0</ele><time>2026-04-18T07:29:18.999Z</time></trkpt><trkpt lat="46.06416424919153" lon="13.198242762710134"><ele>104.5</ele><time>2026-04-18T07:29:19.999Z</time></trkpt><trkpt lat="46.064403437290565" lon="13.198211906593425"><ele>104.0</ele><time>2026-04-18T07:29:20.999Z</time></trkpt><trkpt lat="46.06464095307378" lon="13.198180521944204"><ele>104.0</ele><time>2026-04-18T07:29:21.999Z</time></trkpt><trkpt lat="46.06487642159231" lon="13.198148889321818"><ele>104.0</ele><time>2026-04-18T07:29:22.999Z</time></trkpt><trkpt lat="46.06511202229699" lon="13.198119894604442"><ele>105.0</ele><time>2026-04-18T07:29:23.999Z</time></trkpt><trkpt lat="46.065352537783035" lon="13.198088921214671"><ele>106.0</ele><time>2026-04-18T07:29:24.999Z</time></trkpt><trkpt lat="46.065594693277724" lon="13.198055215786944"><ele>105.5</ele><time>2026-04-18T07:29:25.999Z</time></trkpt><trkpt lat="46.06583327213008" lon="13.198021953596555"><ele>105.0</ele><time>2026-04-18T07:29:26.999Z</time></trkpt><trkpt lat="46.066070957817224" lon="13.197990252230689"><ele>105.0</ele><time>2026-04-18T07:29:27.999Z</time></trkpt><trkpt lat="46.06631373793282" lon="13.197961138262569"><ele>105.0</ele><time>2026-04-18T07:29:28.999Z</time></trkpt><trkpt lat="46.066564778335724" lon="13.19792863502782"><ele>106.0</ele><time>2026-04-18T07:29:29.999Z</time></trkpt><trkpt lat="46.066827007035954" lon="13.197894047994907"><ele>107.0</ele><time>2026-04-18T07:29:30.999Z</time></trkpt><trkpt lat="46.06710598347846" lon="13.1978572077455"><ele>107.0</ele><time>2026-04-18T07:29:31.999Z</time></trkpt><trkpt lat="46.06738398720561" lon="13.1978185939829"><ele>107.0</ele><time>2026-04-18T07:29:32.999Z</time></trkpt><trkpt lat="46.06765217697288" lon="13.197782737530284"><ele>108.0</ele><time>2026-04-18T07:29:33.999Z</time></trkpt><trkpt lat="46.06792142441333" lon="13.197746941396636"><ele>109.0</ele><time>2026-04-18T07:29:34.999Z</time></trkpt><trkpt lat="46.0681824748894" lon="13.197712137980218"><ele>108.0</ele><time>2026-04-18T07:29:35.999Z</time></trkpt><trkpt lat="46.0684411741376" lon="13.197677432268357"><ele>107.0</ele><time>2026-04-18T07:29:36.999Z</time></trkpt><trkpt lat="46.068699431243935" lon="13.197644277947777"><ele>107.0</ele><time>2026-04-18T07:29:37.999Z</time></trkpt><trkpt lat="46.06894508995225" lon="13.197612983309758"><ele>107.0</ele><time>2026-04-18T07:29:38.999Z</time></trkpt><trkpt lat="46.06919967798991" lon="13.197579986385488"><ele>108.0</ele><time>2026-04-18T07:29:39.999Z</time></trkpt><trkpt lat="46.06944922715115" lon="13.197546336598167"><ele>109.0</ele><time>2026-04-18T07:29:40.999Z</time></trkpt><trkpt lat="46.06969804611834" lon="13.197512300944002"><ele>108.0</ele><time>2026-04-18T07:29:41.999Z</time></trkpt><trkpt lat="46.06994597679817" lon="13.197476226307604"><ele>107.0</ele><time>2026-04-18T07:29:42.999Z</time></trkpt><trkpt lat="46.07019520097911" lon="13.197447425856396"><ele>107.0</ele><time>2026-04-18T07:29:43.999Z</time></trkpt><trkpt lat="46.07045025698119" lon="13.197415387334408"><ele>107.0</ele><time>2026-04-18T07:29:44.999Z</time></trkpt><trkpt lat="46.07070185792786" lon="13.19738210261207"><ele>107.0</ele><time>2026-04-18T07:29:45.999Z</time></trkpt><trkpt lat="46.07095419334589" lon="13.197351932575408"><ele>107.0</ele><time>2026-04-18T07:29:46.999Z</time></trkpt><trkpt lat="46.071209973034456" lon="13.197318249031003"><ele>107.0</ele><time>2026-04-18T07:29:47.999Z</time></trkpt><trkpt lat="46.071468455374244" lon="13.19728530565533"><ele>107.0</ele><time>2026-04-18T07:29:48.999Z</time></trkpt><trkpt lat="46.07172556517399" lon="13.197250142869677"><ele>108.0</ele><time>2026-04-18T07:29:49.999Z</time></trkpt><trkpt lat="46.07198231663045" lon="13.19721727070296"><ele>109.0</ele><time>2026-04-18T07:29:50.999Z</time></trkpt><trkpt lat="46.07223739928935" lon="13.197184366716112"><ele>110.5</ele><time>2026-04-18T07:29:51.999Z</time></trkpt><trkpt lat="46.07249072637893" lon="13.197151003794403"><ele>112.0</ele><time>2026-04-18T07:29:52.999Z</time></trkpt><trkpt lat="46.072746229959336" lon="13.19710701257066"><ele>112.0</ele><time>2026-04-18T07:29:53.999Z</time></trkpt><trkpt lat="46.073004144587046" lon="13.197053770607441"><ele>112.0</ele><time>2026-04-18T07:29:54.999Z</time></trkpt><trkpt lat="46.073257343229564" lon="13.196987658158866"><ele>112.0</ele><time>2026-04-18T07:29:55.999Z</time></trkpt><trkpt lat="46.07350969314848" lon="13.196911321596001"><ele>112.0</ele><time>2026-04-18T07:29:56.999Z</time></trkpt><trkpt lat="46.07376222485268" lon="13.196817718144063"><ele>112.0</ele><time>2026-04-18T07:29:57.999Z</time></trkpt><trkpt lat="46.074009242526145" lon="13.196705641087673"><ele>112.0</ele><time>2026-04-18T07:29:58.999Z</time></trkpt><trkpt lat="46.07425233292033" lon="13.196591245425875"><ele>111.0</ele><time>2026-04-18T07:29:59.999Z</time></trkpt><trkpt lat="46.07449463478523" lon="13.196462380866464"><ele>110.0</ele><time>2026-04-18T07:30:00.999Z</time></trkpt><trkpt lat="46.07473785748263" lon="13.196322874604022"><ele>110.0</ele><time>2026-04-18T07:30:01.999Z</time></trkpt><trkpt lat="46.07497894294246" lon="13.196166693580698"><ele>110.0</ele><time>2026-04-18T07:30:02.999Z</time></trkpt><trkpt lat="46.07521420640789" lon="13.195997682400574"><ele>110.0</ele><time>2026-04-18T07:30:03.999Z</time></trkpt><trkpt lat="46.07544704875118" lon="13.195817054971908"><ele>110.0</ele><time>2026-04-18T07:30:04.999Z</time></trkpt><trkpt lat="46.075675079628446" lon="13.195623529009566"><ele>111.0</ele><time>2026-04-18T07:30:05.999Z</time></trkpt><trkpt lat="46.07589850827796" lon="13.195420239011025"><ele>112.0</ele><time>2026-04-18T07:30:06.999Z</time></trkpt><trkpt lat="46.076119542122804" lon="13.195205163779733"><ele>112.0</ele><time>2026-04-18T07:30:07.999Z</time></trkpt><trkpt lat="46.076339739322016" lon="13.194990862323321"><ele>112.0</ele><time>2026-04-18T07:30:08.999Z</time></trkpt><trkpt lat="46.07656281544841" lon="13.19477519947834"><ele>111.0</ele><time>2026-04-18T07:30:09.999Z</time></trkpt><trkpt lat="46.07678723501954" lon="13.194557929952426"><ele>110.0</ele><time>2026-04-18T07:30:10.999Z</time></trkpt><trkpt lat="46.07701015479359" lon="13.194339845504066"><ele>110.0</ele><time>2026-04-18T07:30:12Z</time></trkpt><trkpt lat="46.07722868242338" lon="13.194119372478351"><ele>110.0</ele><time>2026-04-18T07:30:13Z</time></trkpt><trkpt lat="46.0774502514304" lon="13.193903816261079"><ele>109.0</ele><time>2026-04-18T07:30:14Z</time></trkpt><trkpt lat="46.07767006383078" lon="13.193684979053627"><ele>108.0</ele><time>2026-04-18T07:30:15Z</time></trkpt><trkpt lat="46.077883977204024" lon="13.193475106986117"><ele>108.0</ele><time>2026-04-18T07:30:16Z</time></trkpt><trkpt lat="46.078101916740486" lon="13.19326521835726"><ele>108.0</ele><time>2026-04-18T07:30:17Z</time></trkpt><trkpt lat="46.078327215763565" lon="13.19305834068094"><ele>108.5</ele><time>2026-04-18T07:30:18Z</time></trkpt><trkpt lat="46.07855574498465" lon="13.192864072718985"><ele>109.0</ele><time>2026-04-18T07:30:19Z</time></trkpt><trkpt lat="46.078785983907004" lon="13.192677529812826"><ele>109.0</ele><time>2026-04-18T07:30:20Z</time></trkpt><trkpt lat="46.07902187966078" lon="13.19251179181803"><ele>109.0</ele><time>2026-04-18T07:30:21Z</time></trkpt><trkpt lat="46.07926209539044" lon="13.19235196039595"><ele>107.5</ele><time>2026-04-18T07:30:22Z</time></trkpt><trkpt lat="46.07950808187059" lon="13.192213669903902"><ele>106.0</ele><time>2026-04-18T07:30:23Z</time></trkpt><trkpt lat="46.079756252299376" lon="13.192085619967783"><ele>106.5</ele><time>2026-04-18T07:30:24Z</time></trkpt><trkpt lat="46.08000317036647" lon="13.191973823424464"><ele>107.0</ele><time>2026-04-18T07:30:25Z</time></trkpt><trkpt lat="46.08024501818707" lon="13.191879974451046"><ele>107.0</ele><time>2026-04-18T07:30:26Z</time></trkpt><trkpt lat="46.08048372385346" lon="13.19180309178942"><ele>107.0</ele><time>2026-04-18T07:30:27Z</time></trkpt><trkpt lat="46.080723906812295" lon="13.191736702793431"><ele>110.0</ele><time>2026-04-18T07:30:28Z</time></trkpt><trkpt lat="46.080966904955154" lon="13.191681461319728"><ele>113.0</ele><time>2026-04-18T07:30:29Z</time></trkpt><trkpt lat="46.08120783032291" lon="13.191640456785416"><ele>113.0</ele><time>2026-04-18T07:30:30Z</time></trkpt><trkpt lat="46.08144683089374" lon="13.191611680441538"><ele>113.0</ele><time>2026-04-18T07:30:31Z</time></trkpt><trkpt lat="46.081684438710056" lon="13.19160021577458"><ele>112.0</ele><time>2026-04-18T07:30:32Z</time></trkpt><trkpt lat="46.081921279294505" lon="13.191601487277461"><ele>111.0</ele><time>2026-04-18T07:30:33Z</time></trkpt><trkpt lat="46.08216163352112" lon="13.191610274337641"><ele>111.0</ele><time>2026-04-18T07:30:34Z</time></trkpt><trkpt lat="46.082400904921485" lon="13.191629983459167"><ele>111.0</ele><time>2026-04-18T07:30:35Z</time></trkpt><trkpt lat="46.082640029594366" lon="13.191661953908163"><ele>113.5</ele><time>2026-04-18T07:30:36Z</time></trkpt><trkpt lat="46.08288069593836" lon="13.191709087125297"><ele>116.0</ele><time>2026-04-18T07:30:37Z</time></trkpt><trkpt lat="46.08312528078018" lon="13.191772736855107"><ele>117.0</ele><time>2026-04-18T07:30:38Z</time></trkpt><trkpt lat="46.0833692741635" lon="13.191852868782364"><ele>118.0</ele><time>2026-04-18T07:30:39Z</time></trkpt><trkpt lat="46.08361236803058" lon="13.191943559787463"><ele>118.0</ele><time>2026-04-18T07:30:40Z</time></trkpt><trkpt lat="46.08385035572046" lon="13.19203810389649"><ele>118.0</ele><time>2026-04-18T07:30:41Z</time></trkpt><trkpt lat="46.08408776065749" lon="13.192140787222463"><ele>117.5</ele><time>2026-04-18T07:30:42Z</time></trkpt><trkpt lat="46.08432422278748" lon="13.192256585932205"><ele>117.0</ele><time>2026-04-18T07:30:43Z</time></trkpt><trkpt lat="46.08455846880493" lon="13.192376269737801"><ele>116.5</ele><time>2026-04-18T07:30:44Z</time></trkpt><trkpt lat="46.08479033110333" lon="13.192489577055019"><ele>116.0</ele><time>2026-04-18T07:30:45Z</time></trkpt><trkpt lat="46.08502596521339" lon="13.192603527485886"><ele>115.0</ele><time>2026-04-18T07:30:46Z</time></trkpt><trkpt lat="46.085263102097194" lon="13.192718243240336"><ele>114.0</ele><time>2026-04-18T07:30:47Z</time></trkpt><trkpt lat="46.08550300138079" lon="13.192834636570623"><ele>114.0</ele><time>2026-04-18T07:30:48Z</time></trkpt><trkpt lat="46.08574086632028" lon="13.192946311019137"><ele>114.0</ele><time>2026-04-18T07:30:49Z</time></trkpt><trkpt lat="46.08598136182003" lon="13.193062231854075"><ele>115.5</ele><time>2026-04-18T07:30:50Z</time></trkpt><trkpt lat="46.08622475670366" lon="13.193179314281151"><ele>117.0</ele><time>2026-04-18T07:30:51Z</time></trkpt><trkpt lat="46.086463904203185" lon="13.193293213061377"><ele>117.0</ele><time>2026-04-18T07:30:52Z</time></trkpt><trkpt lat="46.08670166862954" lon="13.19340829965176"><ele>117.0</ele><time>2026-04-18T07:30:53Z</time></trkpt><trkpt lat="46.086943618130555" lon="13.19352570748306"><ele>117.0</ele><time>2026-04-18T07:30:54Z</time></trkpt><trkpt lat="46.087185951997824" lon="13.193644293603004"><ele>117.0</ele><time>2026-04-18T07:30:55Z</time></trkpt><trkpt lat="46.08743231202648" lon="13.193760520056856"><ele>117.5</ele><time>2026-04-18T07:30:56Z</time></trkpt><trkpt lat="46.08767981764079" lon="13.1938781406562"><ele>118.0</ele><time>2026-04-18T07:30:57Z</time></trkpt><trkpt lat="46.08792861914115" lon="13.19399355726022"><ele>118.5</ele><time>2026-04-18T07:30:58Z</time></trkpt><trkpt lat="46.08823100612693" lon="13.194128299526247"><ele>119.0</ele><time>2026-04-18T07:30:59Z</time></trkpt><trkpt lat="46.08856413569589" lon="13.194294556087126"><ele>119.0</ele><time>2026-04-18T07:31:00Z</time></trkpt><trkpt lat="46.08891453583757" lon="13.194467792084657"><ele>119.0</ele><time>2026-04-18T07:31:01Z</time></trkpt><trkpt lat="46.08926402188876" lon="13.194633418275307"><ele>119.0</ele><time>2026-04-18T07:31:02Z</time></trkpt><trkpt lat="46.08960213166673" lon="13.194795046816036"><ele>119.0</ele><time>2026-04-18T07:31:03Z</time></trkpt><trkpt lat="46.08992491033648" lon="13.194948637295926"><ele>119.5</ele><time>2026-04-18T07:31:04Z</time></trkpt><trkpt lat="46.09022324634502" lon="13.19509113820219"><ele>120.0</ele><time>2026-04-18T07:31:05Z</time></trkpt><trkpt lat="46.090503821751405" lon="13.195225456752544"><ele>119.5</ele><time>2026-04-18T07:31:05.999Z</time></trkpt><trkpt lat="46.09077368352261" lon="13.195353175892713"><ele>119.0</ele><time>2026-04-18T07:31:06.999Z</time></trkpt><trkpt lat="46.091045111563616" lon="13.195480929760114"><ele>119.0</ele><time>2026-04-18T07:31:07.999Z</time></trkpt><trkpt lat="46.09132372005276" lon="13.195613827311604"><ele>119.0</ele><time>2026-04-18T07:31:08.999Z</time></trkpt><trkpt lat="46.09160592289842" lon="13.195748219897775"><ele>120.5</ele><time>2026-04-18T07:31:09.999Z</time></trkpt><trkpt lat="46.091890175249226" lon="13.195883650605253"><ele>122.0</ele><time>2026-04-18T07:31:10.999Z</time></trkpt><trkpt lat="46.0921965344002" lon="13.196025427113128"><ele>121.5</ele><time>2026-04-18T07:31:11.999Z</time></trkpt><trkpt lat="46.09252911289843" lon="13.19618458754396"><ele>121.0</ele><time>2026-04-18T07:31:12.999Z</time></trkpt><trkpt lat="46.09287985758574" lon="13.19635534842393"><ele>120.5</ele><time>2026-04-18T07:31:13.999Z</time></trkpt><trkpt lat="46.09324561236534" lon="13.196533933628434"><ele>120.0</ele><time>2026-04-18T07:31:14.999Z</time></trkpt><trkpt lat="46.093603884213934" lon="13.196712784099963"><ele>120.0</ele><time>2026-04-18T07:31:15.999Z</time></trkpt><trkpt lat="46.093968820517055" lon="13.196887016563329"><ele>120.0</ele><time>2026-04-18T07:31:16.999Z</time></trkpt><trkpt lat="46.094327239252635" lon="13.197058462896832"><ele>120.0</ele><time>2026-04-18T07:31:17.999Z</time></trkpt><trkpt lat="46.094679984798724" lon="13.1972289797498"><ele>120.0</ele><time>2026-04-18T07:31:18.999Z</time></trkpt><trkpt lat="46.09502437611152" lon="13.197397214909621"><ele>120.0</ele><time>2026-04-18T07:31:19.999Z</time></trkpt><trkpt lat="46.09536328332765" lon="13.197569889851174"><ele>120.0</ele><time>2026-04-18T07:31:20.999Z</time></trkpt><trkpt lat="46.095697333509385" lon="13.197738579019754"><ele>121.0</ele><time>2026-04-18T07:31:21.999Z</time></trkpt><trkpt lat="46.096028663190204" lon="13.197901922778867"><ele>122.0</ele><time>2026-04-18T07:31:22.999Z</time></trkpt><trkpt lat="46.09635781970658" lon="13.198060237494497"><ele>121.5</ele><time>2026-04-18T07:31:23.999Z</time></trkpt><trkpt lat="46.096685514880924" lon="13.198216111876492"><ele>121.0</ele><time>2026-04-18T07:31:24.999Z</time></trkpt><trkpt lat="46.09700782454392" lon="13.198374514429734"><ele>121.0</ele><time>2026-04-18T07:31:25.999Z</time></trkpt><trkpt lat="46.09732786000076" lon="13.19852990842545"><ele>121.0</ele><time>2026-04-18T07:31:26.999Z</time></trkpt><trkpt lat="46.09764547192521" lon="13.198682174257103"><ele>122.0</ele><time>2026-04-18T07:31:27.999Z</time></trkpt><trkpt lat="46.09795987529606" lon="13.198833969256624"><ele>123.0</ele><time>2026-04-18T07:31:28.999Z</time></trkpt><trkpt lat="46.09827305694253" lon="13.19898514275771"><ele>123.0</ele><time>2026-04-18T07:31:29.999Z</time></trkpt><trkpt lat="46.09858457511326" lon="13.199134399353255"><ele>123.0</ele><time>2026-04-18T07:31:30.999Z</time></trkpt><trkpt lat="46.098895236101335" lon="13.199283574438828"><ele>122.0</ele><time>2026-04-18T07:31:31.999Z</time></trkpt><trkpt lat="46.09920418243803" lon="13.19943218597672"><ele>121.0</ele><time>2026-04-18T07:31:32.999Z</time></trkpt><trkpt lat="46.09951153375687" lon="13.199578816134395"><ele>121.0</ele><time>2026-04-18T07:31:33.999Z</time></trkpt><trkpt lat="46.099816098632544" lon="13.199723192614401"><ele>121.0</ele><time>2026-04-18T07:31:34.999Z</time></trkpt><trkpt lat="46.10011621686801" lon="13.199866383898783"><ele>122.0</ele><time>2026-04-18T07:31:35.999Z</time></trkpt><trkpt lat="46.100405163053864" lon="13.200005978049928"><ele>123.0</ele><time>2026-04-18T07:31:36.999Z</time></trkpt><trkpt lat="46.100682290531225" lon="13.200143871015152"><ele>124.0</ele><time>2026-04-18T07:31:37.999Z</time></trkpt><trkpt lat="46.10094553194843" lon="13.200281569572908"><ele>125.0</ele><time>2026-04-18T07:31:38.999Z</time></trkpt><trkpt lat="46.10118088746885" lon="13.200404096797941"><ele>125.0</ele><time>2026-04-18T07:31:39.999Z</time></trkpt><trkpt lat="46.10139006286502" lon="13.200508938548554"><ele>125.0</ele><time>2026-04-18T07:31:40.999Z</time></trkpt><trkpt lat="46.10157829520376" lon="13.200600484955169"><ele>125.0</ele><time>2026-04-18T07:31:41.999Z</time></trkpt><trkpt lat="46.10174047562841" lon="13.200681409319506"><ele>124.33333333333333</ele><time>2026-04-18T07:31:42.999Z</time></trkpt><trkpt lat="46.101875568072295" lon="13.200757511335345"><ele>123.66666666666666</ele><time>2026-04-18T07:31:43.999Z</time></trkpt><trkpt lat="46.10200243530341" lon="13.200855123201748"><ele>123.0</ele><time>2026-04-18T07:31:44.999Z</time></trkpt><trkpt lat="46.10212437899338" lon="13.201008449629652"><ele>123.0</ele><time>2026-04-18T07:31:45.999Z</time></trkpt><trkpt lat="46.102213609577504" lon="13.201209624732426"><ele>123.0</ele><time>2026-04-18T07:31:46.999Z</time></trkpt><trkpt lat="46.10227591151323" lon="13.201435304711692"><ele>123.0</ele><time>2026-04-18T07:31:47.999Z</time></trkpt><trkpt lat="46.102296928570794" lon="13.201683126820944"><ele>123.0</ele><time>2026-04-18T07:31:48.999Z</time></trkpt><trkpt lat="46.10229697661127" lon="13.201947773192416"><ele>123.0</ele><time>2026-04-18T07:31:49.999Z</time></trkpt><trkpt lat="46.10223935360595" lon="13.202256656656669"><ele>123.0</ele><time>2026-04-18T07:31:50.999Z</time></trkpt><trkpt lat="46.10220766266659" lon="13.2025708538302"><ele>123.25</ele><time>2026-04-18T07:31:51.999Z</time></trkpt><trkpt lat="46.10218996433862" lon="13.202824883144348"><ele>123.5</ele><time>2026-04-18T07:31:52.999Z</time></trkpt><trkpt lat="46.10219851663395" lon="13.203033443217786"><ele>123.75</ele><time>2026-04-18T07:31:53.999Z</time></trkpt><trkpt lat="46.102234931879785" lon="13.203192573215476"><ele>124.0</ele><time>2026-04-18T07:31:54.999Z</time></trkpt><trkpt lat="46.10228079390654" lon="13.203323287597659"><ele>124.4</ele><time>2026-04-18T07:31:55.999Z</time></trkpt><trkpt lat="46.10232511067122" lon="13.203430375827145"><ele>124.80000000000001</ele><time>2026-04-18T07:31:56.999Z</time></trkpt><trkpt lat="46.102366214166885" lon="13.203515055402443"><ele>125.19999999999999</ele><time>2026-04-18T07:31:57.999Z</time></trkpt><trkpt lat="46.102429014843025" lon="13.203597166782634"><ele>125.6</ele><time>2026-04-18T07:31:59.999Z</time></trkpt><trkpt lat="46.10249115986752" lon="13.203692474056004"><ele>126.0</ele><time>2026-04-18T07:32:11.999Z</time></trkpt><trkpt lat="46.102641673784575" lon="13.203529162640844"><ele>126.0</ele><time>2026-04-18T07:32:12.999Z</time></trkpt><trkpt lat="46.102760621088066" lon="13.203368522795193"><ele>126.0</ele><time>2026-04-18T07:32:13.999Z</time></trkpt><trkpt lat="46.10291965175954" lon="13.203153403534222"><ele>126.0</ele><time>2026-04-18T07:32:14.999Z</time></trkpt><trkpt lat="46.103120817926715" lon="13.202925557913439"><ele>127.0</ele><time>2026-04-18T07:32:15.999Z</time></trkpt><trkpt lat="46.103320290433125" lon="13.202672841046905"><ele>128.0</ele><time>2026-04-18T07:32:17Z</time></trkpt><trkpt lat="46.103509240678264" lon="13.202432416138606"><ele>127.33333333333333</ele><time>2026-04-18T07:32:18Z</time></trkpt><trkpt lat="46.10367095349171" lon="13.20219670991912"><ele>126.66666666666666</ele><time>2026-04-18T07:32:19Z</time></trkpt><trkpt lat="46.10382771794529" lon="13.20200079595172"><ele>126.0</ele><time>2026-04-18T07:32:20Z</time></trkpt><trkpt lat="46.10397160574256" lon="13.201820174991834"><ele>126.33333333333334</ele><time>2026-04-18T07:32:21Z</time></trkpt><trkpt lat="46.10410197095516" lon="13.20165256221634"><ele>126.66666666666667</ele><time>2026-04-18T07:32:22Z</time></trkpt><trkpt lat="46.1042246236395" lon="13.201496752872977"><ele>127.0</ele><time>2026-04-18T07:32:23Z</time></trkpt><trkpt lat="46.104347971841165" lon="13.20134364105568"><ele>127.0</ele><time>2026-04-18T07:32:24Z</time></trkpt><trkpt lat="46.10446954121453" lon="13.201186597199838"><ele>127.0</ele><time>2026-04-18T07:32:25Z</time></trkpt><trkpt lat="46.10458556190966" lon="13.201024778272625"><ele>127.0</ele><time>2026-04-18T07:32:26Z</time></trkpt><trkpt lat="46.1047030520383" lon="13.200868970791852"><ele>127.0</ele><time>2026-04-18T07:32:27Z</time></trkpt><trkpt lat="46.10482752021373" lon="13.200716181393357"><ele>127.0</ele><time>2026-04-18T07:32:28Z</time></trkpt><trkpt lat="46.10495219751292" lon="13.200557094489298"><ele>127.0</ele><time>2026-04-18T07:32:29Z</time></trkpt><trkpt lat="46.10507905286023" lon="13.200392684097302"><ele>127.66666666666667</ele><time>2026-04-18T07:32:30Z</time></trkpt><trkpt lat="46.10520947924087" lon="13.200231350102671"><ele>128.33333333333334</ele><time>2026-04-18T07:32:31Z</time></trkpt><trkpt lat="46.105340568223745" lon="13.200063630311067"><ele>129.0</ele><time>2026-04-18T07:32:32Z</time></trkpt><trkpt lat="46.105478584242924" lon="13.199889215342534"><ele>128.66666666666666</ele><time>2026-04-18T07:32:33Z</time></trkpt><trkpt lat="46.1056269909607" lon="13.199708420754876"><ele>128.33333333333331</ele><time>2026-04-18T07:32:34Z</time></trkpt><trkpt lat="46.10577735697698" lon="13.199505370943825"><ele>128.0</ele><time>2026-04-18T07:32:35Z</time></trkpt><trkpt lat="46.10595474458446" lon="13.199303830781592"><ele>128.0</ele><time>2026-04-18T07:32:36Z</time></trkpt><trkpt lat="46.10614958683337" lon="13.199056439703762"><ele>128.0</ele><time>2026-04-18T07:32:37Z</time></trkpt><trkpt lat="46.10638528799236" lon="13.198756995360759"><ele>128.0</ele><time>2026-04-18T07:32:38Z</time></trkpt><trkpt lat="46.10666315844195" lon="13.198403627075798"><ele>128.0</ele><time>2026-04-18T07:32:39Z</time></trkpt><trkpt lat="46.106963893869455" lon="13.198019457561466"><ele>128.0</ele><time>2026-04-18T07:32:40Z</time></trkpt><trkpt lat="46.10721818328312" lon="13.19769029509983"><ele>128.0</ele><time>2026-04-18T07:32:41Z</time></trkpt><trkpt lat="46.10745632066361" lon="13.197400693571444"><ele>128.0</ele><time>2026-04-18T07:32:42Z</time></trkpt><trkpt lat="46.107691817719065" lon="13.19716993150215"><ele>128.0</ele><time>2026-04-18T07:32:43Z</time></trkpt><trkpt lat="46.107932688000226" lon="13.196992112458394"><ele>128.0</ele><time>2026-04-18T07:32:44Z</time></trkpt><trkpt lat="46.108177074626454" lon="13.19686927598776"><ele>128.0</ele><time>2026-04-18T07:32:45Z</time></trkpt><trkpt lat="46.108408374362234" lon="13.196769376389774"><ele>128.66666666666666</ele><time>2026-04-18T07:32:46Z</time></trkpt><trkpt lat="46.108634059827565" lon="13.196722636411641"><ele>129.33333333333334</ele><time>2026-04-18T07:32:47Z</time></trkpt><trkpt lat="46.10885033282476" lon="13.196712248800083"><ele>130.0</ele><time>2026-04-18T07:32:48Z</time></trkpt><trkpt lat="46.10905862023672" lon="13.196736719852296"><ele>129.66666666666669</ele><time>2026-04-18T07:32:49Z</time></trkpt><trkpt lat="46.10926366816727" lon="13.196781949758146"><ele>129.33333333333334</ele><time>2026-04-18T07:32:50Z</time></trkpt><trkpt lat="46.10946333074328" lon="13.196867641070085"><ele>129.0</ele><time>2026-04-18T07:32:51Z</time></trkpt><trkpt lat="46.10966271265512" lon="13.196939696652086"><ele>129.0</ele><time>2026-04-18T07:32:52Z</time></trkpt><trkpt lat="46.109862091444136" lon="13.197011619748734"><ele>129.0</ele><time>2026-04-18T07:32:53Z</time></trkpt><trkpt lat="46.1100587828515" lon="13.197081292856852"><ele>129.0</ele><time>2026-04-18T07:32:54Z</time></trkpt><trkpt lat="46.11025404910495" lon="13.197150189342079"><ele>128.66666666666666</ele><time>2026-04-18T07:32:55Z</time></trkpt><trkpt lat="46.11044949887261" lon="13.197219150734822"><ele>128.33333333333331</ele><time>2026-04-18T07:32:56Z</time></trkpt><trkpt lat="46.110644386054425" lon="13.197287913440084"><ele>128.0</ele><time>2026-04-18T07:32:57Z</time></trkpt><trkpt lat="46.11083865037931" lon="13.197356458568514"><ele>128.66666666666666</ele><time>2026-04-18T07:32:58Z</time></trkpt><trkpt lat="46.1110337463238" lon="13.197425294963086"><ele>129.33333333333334</ele><time>2026-04-18T07:32:59Z</time></trkpt><trkpt lat="46.11122616559576" lon="13.19749318705306"><ele>130.0</ele><time>2026-04-18T07:33:00Z</time></trkpt><trkpt lat="46.11141102412103" lon="13.197559012034706"><ele>130.0</ele><time>2026-04-18T07:33:01Z</time></trkpt><trkpt lat="46.1115904013486" lon="13.197622838819692"><ele>130.0</ele><time>2026-04-18T07:33:02Z</time></trkpt><trkpt lat="46.11176668937775" lon="13.19768156812646"><ele>130.0</ele><time>2026-04-18T07:33:03Z</time></trkpt><trkpt lat="46.111944239728885" lon="13.19769756811556"><ele>130.0</ele><time>2026-04-18T07:33:04Z</time></trkpt><trkpt lat="46.11211997358579" lon="13.197721600788046"><ele>130.0</ele><time>2026-04-18T07:33:05Z</time></trkpt><trkpt lat="46.1122969571251" lon="13.197725831101794"><ele>130.0</ele><time>2026-04-18T07:33:06Z</time></trkpt><trkpt lat="46.112473670179135" lon="13.197710360258446"><ele>129.66666666666669</ele><time>2026-04-18T07:33:07Z</time></trkpt><trkpt lat="46.112650009785305" lon="13.197675444827341"><ele>129.33333333333334</ele><time>2026-04-18T07:33:08Z</time></trkpt><trkpt lat="46.11282385935265" lon="13.19761669241661"><ele>129.0</ele><time>2026-04-18T07:33:08.999Z</time></trkpt><trkpt lat="46.112993731239634" lon="13.197530698577925"><ele>129.0</ele><time>2026-04-18T07:33:09.999Z</time></trkpt><trkpt lat="46.113160301425125" lon="13.19742443996819"><ele>129.0</ele><time>2026-04-18T07:33:10.999Z</time></trkpt><trkpt lat="46.1133222006658" lon="13.197292039786044"><ele>129.0</ele><time>2026-04-18T07:33:11.999Z</time></trkpt><trkpt lat="46.11346988494791" lon="13.197138307047993"><ele>129.33333333333334</ele><time>2026-04-18T07:33:12.999Z</time></trkpt><trkpt lat="46.113630817914206" lon="13.196987698959141"><ele>129.66666666666669</ele><time>2026-04-18T07:33:13.999Z</time></trkpt><trkpt lat="46.11381440783886" lon="13.196798588753676"><ele>130.0</ele><time>2026-04-18T07:33:14.999Z</time></trkpt><trkpt lat="46.11401225953673" lon="13.196596346281172"><ele>128.33333333333334</ele><time>2026-04-18T07:33:15.999Z</time></trkpt><trkpt lat="46.11420271625147" lon="13.196401597271166"><ele>126.66666666666666</ele><time>2026-04-18T07:33:16.999Z</time></trkpt><trkpt lat="46.114373087592746" lon="13.19622892319354"><ele>125.0</ele><time>2026-04-18T07:33:17.999Z</time></trkpt><trkpt lat="46.1145277360534" lon="13.19607076340591"><ele>125.0</ele><time>2026-04-18T07:33:18.999Z</time></trkpt><trkpt lat="46.114677569051715" lon="13.195917528414107"><ele>125.0</ele><time>2026-04-18T07:33:19.999Z</time></trkpt><trkpt lat="46.11482883703795" lon="13.195763274093235"><ele>125.0</ele><time>2026-04-18T07:33:20.999Z</time></trkpt><trkpt lat="46.11498421198107" lon="13.195603817473494"><ele>125.0</ele><time>2026-04-18T07:33:21.999Z</time></trkpt><trkpt lat="46.11514159645198" lon="13.195442298611804"><ele>125.0</ele><time>2026-04-18T07:33:22.999Z</time></trkpt><trkpt lat="46.115296133314956" lon="13.195283702138742"><ele>125.0</ele><time>2026-04-18T07:33:23.999Z</time></trkpt><trkpt lat="46.11544708731316" lon="13.195130308948318"><ele>125.0</ele><time>2026-04-18T07:33:24.999Z</time></trkpt><trkpt lat="46.11559338581239" lon="13.194981197821205"><ele>125.0</ele><time>2026-04-18T07:33:25.999Z</time></trkpt><trkpt lat="46.115736834171464" lon="13.194835374075096"><ele>125.0</ele><time>2026-04-18T07:33:26.999Z</time></trkpt><trkpt lat="46.115882105177924" lon="13.194687797647678"><ele>130.33333333333331</ele><time>2026-04-18T07:33:27.999Z</time></trkpt><trkpt lat="46.11602791931098" lon="13.194541748751138"><ele>135.66666666666666</ele><time>2026-04-18T07:33:28.999Z</time></trkpt><trkpt lat="46.11617368654485" lon="13.19439751725218"><ele>141.0</ele><time>2026-04-18T07:33:29.999Z</time></trkpt><trkpt lat="46.11631404734402" lon="13.194260742963873"><ele>141.0</ele><time>2026-04-18T07:33:30.999Z</time></trkpt><trkpt lat="46.11644856195174" lon="13.194134439534198"><ele>141.0</ele><time>2026-04-18T07:33:31.999Z</time></trkpt><trkpt lat="46.11658219368936" lon="13.194022563279495"><ele>141.0</ele><time>2026-04-18T07:33:32.999Z</time></trkpt><trkpt lat="46.116716222026206" lon="13.193919709794908"><ele>142.5</ele><time>2026-04-18T07:33:33.999Z</time></trkpt><trkpt lat="46.116848520301154" lon="13.193820946065722"><ele>144.0</ele><time>2026-04-18T07:33:34.999Z</time></trkpt><trkpt lat="46.11697957432594" lon="13.193723764885961"><ele>145.5</ele><time>2026-04-18T07:33:35.999Z</time></trkpt><trkpt lat="46.117109255809005" lon="13.19363014386071"><ele>147.0</ele><time>2026-04-18T07:33:36.999Z</time></trkpt><trkpt lat="46.1172447724322" lon="13.19353323836856"><ele>147.0</ele><time>2026-04-18T07:33:37.999Z</time></trkpt><trkpt lat="46.117385767640236" lon="13.193432415092767"><ele>147.0</ele><time>2026-04-18T07:33:38.999Z</time></trkpt><trkpt lat="46.117523316391654" lon="13.193333927959431"><ele>147.0</ele><time>2026-04-18T07:33:39.999Z</time></trkpt><trkpt lat="46.11765903439186" lon="13.193236620263063"><ele>148.0</ele><time>2026-04-18T07:33:40.999Z</time></trkpt><trkpt lat="46.11779198501793" lon="13.193141296630298"><ele>149.0</ele><time>2026-04-18T07:33:41.999Z</time></trkpt><trkpt lat="46.11792347444893" lon="13.193047020727485"><ele>150.0</ele><time>2026-04-18T07:33:42.999Z</time></trkpt><trkpt lat="46.11805375182607" lon="13.19295361380972"><ele>151.0</ele><time>2026-04-18T07:33:43.999Z</time></trkpt><trkpt lat="46.11818571907252" lon="13.19285899533987"><ele>149.75</ele><time>2026-04-18T07:33:44.999Z</time></trkpt><trkpt lat="46.11831860658657" lon="13.192763717023997"><ele>148.5</ele><time>2026-04-18T07:33:45.999Z</time></trkpt><trkpt lat="46.118451045190184" lon="13.19266876055801"><ele>147.25</ele><time>2026-04-18T07:33:46.999Z</time></trkpt><trkpt lat="46.1185876146706" lon="13.19257094932314"><ele>146.0</ele><time>2026-04-18T07:33:47.999Z</time></trkpt><trkpt lat="46.11872386574395" lon="13.192473445115622"><ele>146.0</ele><time>2026-04-18T07:33:48.999Z</time></trkpt><trkpt lat="46.11885684648514" lon="13.192378281299401"><ele>146.0</ele><time>2026-04-18T07:33:49.999Z</time></trkpt><trkpt lat="46.11898660400367" lon="13.192284948936226"><ele>146.0</ele><time>2026-04-18T07:33:50.999Z</time></trkpt><trkpt lat="46.11911542196506" lon="13.192192745755616"><ele>146.0</ele><time>2026-04-18T07:33:51.999Z</time></trkpt><trkpt lat="46.119243525157" lon="13.192101054160139"><ele>149.25</ele><time>2026-04-18T07:33:52.999Z</time></trkpt><trkpt lat="46.119370321712736" lon="13.192010297782794"><ele>152.5</ele><time>2026-04-18T07:33:53.999Z</time></trkpt><trkpt lat="46.11949634600179" lon="13.191920094204741"><ele>155.75</ele><time>2026-04-18T07:33:54.999Z</time></trkpt><trkpt lat="46.11962469472667" lon="13.191825890712611"><ele>159.0</ele><time>2026-04-18T07:33:55.999Z</time></trkpt><trkpt lat="46.119749531063896" lon="13.191723998890403"><ele>159.0</ele><time>2026-04-18T07:33:56.999Z</time></trkpt><trkpt lat="46.11986616686755" lon="13.19161887159544"><ele>159.0</ele><time>2026-04-18T07:33:57.999Z</time></trkpt><trkpt lat="46.11997276361392" lon="13.191515530688616"><ele>159.0</ele><time>2026-04-18T07:33:58.999Z</time></trkpt><trkpt lat="46.12007103386007" lon="13.19140790940483"><ele>159.0</ele><time>2026-04-18T07:33:59.999Z</time></trkpt><trkpt lat="46.120163736607005" lon="13.191300160154839"><ele>158.5</ele><time>2026-04-18T07:34:00.999Z</time></trkpt><trkpt lat="46.12025589803941" lon="13.191191131754982"><ele>158.0</ele><time>2026-04-18T07:34:01.999Z</time></trkpt><trkpt lat="46.12034552676777" lon="13.191083971838399"><ele>157.5</ele><time>2026-04-18T07:34:02.999Z</time></trkpt><trkpt lat="46.1204349390242" lon="13.190977070872172"><ele>157.0</ele><time>2026-04-18T07:34:03.999Z</time></trkpt><trkpt lat="46.12052264983396" lon="13.190871515230578"><ele>157.0</ele><time>2026-04-18T07:34:04.999Z</time></trkpt><trkpt lat="46.12060934707378" lon="13.190766500535156"><ele>157.0</ele><time>2026-04-18T07:34:05.999Z</time></trkpt><trkpt lat="46.120696637545876" lon="13.190660765699407"><ele>157.0</ele><time>2026-04-18T07:34:06.999Z</time></trkpt><trkpt lat="46.12078544336762" lon="13.19055319529049"><ele>157.0</ele><time>2026-04-18T07:34:07.999Z</time></trkpt><trkpt lat="46.12087508844646" lon="13.190442237321319"><ele>157.2</ele><time>2026-04-18T07:34:08.999Z</time></trkpt><trkpt lat="46.12096157793562" lon="13.190334999020147"><ele>157.39999999999998</ele><time>2026-04-18T07:34:09.999Z</time></trkpt><trkpt lat="46.12104086859535" lon="13.190235630536435"><ele>157.60000000000002</ele><time>2026-04-18T07:34:10.999Z</time></trkpt><trkpt lat="46.1211102630655" lon="13.190148138106556"><ele>157.8</ele><time>2026-04-18T07:34:11.999Z</time></trkpt><trkpt lat="46.1211735861061" lon="13.19006455257759"><ele>158.0</ele><time>2026-04-18T07:34:12.999Z</time></trkpt><trkpt lat="46.121230815579246" lon="13.189989095694019"><ele>158.0</ele><time>2026-04-18T07:34:13.999Z</time></trkpt><trkpt lat="46.12128015341534" lon="13.189924041154198"><ele>158.0</ele><time>2026-04-18T07:34:14.999Z</time></trkpt><trkpt lat="46.12134876982599" lon="13.189826532041172"><ele>158.0</ele><time>2026-04-18T07:34:16.999Z</time></trkpt><trkpt lat="46.121422714570876" lon="13.189723283601268"><ele>158.0</ele><time>2026-04-18T07:34:18.999Z</time></trkpt><trkpt lat="46.12155778224958" lon="13.189663582143876"><ele>158.0</ele><time>2026-04-18T07:34:20.999Z</time></trkpt><trkpt lat="46.12161441331175" lon="13.189591441354533"><ele>158.33333333333331</ele><time>2026-04-18T07:34:21.999Z</time></trkpt><trkpt lat="46.12165887594258" lon="13.18949771116618"><ele>158.66666666666666</ele><time>2026-04-18T07:34:23Z</time></trkpt><trkpt lat="46.12172966960123" lon="13.189426645003675"><ele>159.0</ele><time>2026-04-18T07:34:24Z</time></trkpt><trkpt lat="46.12179541961469" lon="13.189348159447778"><ele>159.33333333333334</ele><time>2026-04-18T07:34:25Z</time></trkpt><trkpt lat="46.12186319283233" lon="13.189264562357582"><ele>159.66666666666669</ele><time>2026-04-18T07:34:26Z</time></trkpt><trkpt lat="46.12193280631471" lon="13.189176002624302"><ele>160.0</ele><time>2026-04-18T07:34:27Z</time></trkpt><trkpt lat="46.12200665252652" lon="13.189082057964598"><ele>160.0</ele><time>2026-04-18T07:34:28Z</time></trkpt><trkpt lat="46.12208269556304" lon="13.188985318448392"><ele>160.0</ele><time>2026-04-18T07:34:29Z</time></trkpt><trkpt lat="46.12216210613346" lon="13.188885225496982"><ele>160.0</ele><time>2026-04-18T07:34:30Z</time></trkpt><trkpt lat="46.122245688057774" lon="13.188781824478932"><ele>160.0</ele><time>2026-04-18T07:34:31Z</time></trkpt><trkpt lat="46.122332716370146" lon="13.188677876358135"><ele>160.0</ele><time>2026-04-18T07:34:32Z</time></trkpt><trkpt lat="46.12242195423505" lon="13.188571288909204"><ele>160.5</ele><time>2026-04-18T07:34:33Z</time></trkpt><trkpt lat="46.12251330412732" lon="13.188462178997272"><ele>161.0</ele><time>2026-04-18T07:34:34Z</time></trkpt><trkpt lat="46.122606055205466" lon="13.188351397441124"><ele>161.5</ele><time>2026-04-18T07:34:35Z</time></trkpt><trkpt lat="46.12270016317183" lon="13.188237530126118"><ele>162.0</ele><time>2026-04-18T07:34:36Z</time></trkpt><trkpt lat="46.12279739261889" lon="13.18812034688533"><ele>162.25</ele><time>2026-04-18T07:34:37Z</time></trkpt><trkpt lat="46.1228959573714" lon="13.188001902997373"><ele>162.5</ele><time>2026-04-18T07:34:38Z</time></trkpt><trkpt lat="46.12299286637859" lon="13.187888677057718"><ele>162.75</ele><time>2026-04-18T07:34:39Z</time></trkpt><trkpt lat="46.12308573449664" lon="13.187784133550519"><ele>163.0</ele><time>2026-04-18T07:34:40Z</time></trkpt><trkpt lat="46.123175403820426" lon="13.187691417440929"><ele>163.2</ele><time>2026-04-18T07:34:41Z</time></trkpt><trkpt lat="46.12325919129255" lon="13.187613109652988"><ele>163.4</ele><time>2026-04-18T07:34:42Z</time></trkpt><trkpt lat="46.12332964208112" lon="13.187514733022969"><ele>163.6</ele><time>2026-04-18T07:34:43Z</time></trkpt><trkpt lat="46.12341599479266" lon="13.187460629070065"><ele>163.79999999999998</ele><time>2026-04-18T07:34:44Z</time></trkpt><trkpt lat="46.12350476170702" lon="13.18741487539275"><ele>164.0</ele><time>2026-04-18T07:34:45Z</time></trkpt><trkpt lat="46.12358722726711" lon="13.187380227408577"><ele>164.0</ele><time>2026-04-18T07:34:46Z</time></trkpt><trkpt lat="46.12365737909119" lon="13.187344818771397"><ele>164.0</ele><time>2026-04-18T07:34:47Z</time></trkpt><trkpt lat="46.12372276858603" lon="13.18731043691685"><ele>164.0</ele><time>2026-04-18T07:34:48Z</time></trkpt><trkpt lat="46.123789861334735" lon="13.187280947000842"><ele>164.0</ele><time>2026-04-18T07:34:49Z</time></trkpt><trkpt lat="46.123900061994085" lon="13.187239232033749"><ele>164.0</ele><time>2026-04-18T07:34:51Z</time></trkpt><trkpt lat="46.12398585598849" lon="13.187187013480695"><ele>164.0</ele><time>2026-04-18T07:34:53Z</time></trkpt><trkpt lat="46.12409121616024" lon="13.187135736502585"><ele>164.28571428571428</ele><time>2026-04-18T07:34:55Z</time></trkpt><trkpt lat="46.12416349617466" lon="13.187139585208431"><ele>164.57142857142856</ele><time>2026-04-18T07:34:56Z</time></trkpt><trkpt lat="46.12422745268237" lon="13.187122229268514"><ele>164.85714285714283</ele><time>2026-04-18T07:34:57Z</time></trkpt><trkpt lat="46.1242949099066" lon="13.187113746293015"><ele>165.14285714285714</ele><time>2026-04-18T07:34:58Z</time></trkpt><trkpt lat="46.12434896949046" lon="13.187053226560886"><ele>165.42857142857144</ele><time>2026-04-18T07:34:59Z</time></trkpt><trkpt lat="46.124376431089274" lon="13.186961714297425"><ele>165.7142857142857</ele><time>2026-04-18T07:35:00Z</time></trkpt><trkpt lat="46.12436244353172" lon="13.186869642587128"><ele>166.0</ele><time>2026-04-18T07:35:03Z</time></trkpt><trkpt lat="46.124398785721915" lon="13.18677442897546"><ele>166.0</ele><time>2026-04-18T07:35:06Z</time></trkpt><trkpt lat="46.12446068890592" lon="13.186665588178204"><ele>166.0</ele><time>2026-04-18T07:35:08Z</time></trkpt><trkpt lat="46.12451997888899" lon="13.186634977570328"><ele>166.0</ele><time>2026-04-18T07:35:09Z</time></trkpt><trkpt lat="46.12456940853977" lon="13.186566106944735"><ele>166.0</ele><time>2026-04-18T07:35:10Z</time></trkpt><trkpt lat="46.12462547722851" lon="13.186489442323705"><ele>166.0</ele><time>2026-04-18T07:35:11Z</time></trkpt><trkpt lat="46.12468868940687" lon="13.186398087711622"><ele>166.0</ele><time>2026-04-18T07:35:12Z</time></trkpt><trkpt lat="46.12475583814994" lon="13.186300362243509"><ele>165.8</ele><time>2026-04-18T07:35:12.999Z</time></trkpt><trkpt lat="46.12480264997295" lon="13.1861795166709"><ele>165.60000000000002</ele><time>2026-04-18T07:35:13.999Z</time></trkpt><trkpt lat="46.12487241158001" lon="13.186086341940051"><ele>165.4</ele><time>2026-04-18T07:35:14.999Z</time></trkpt><trkpt lat="46.12493916843427" lon="13.18598268991274"><ele>165.2</ele><time>2026-04-18T07:35:15.999Z</time></trkpt><trkpt lat="46.12500103059645" lon="13.185864136426686"><ele>165.0</ele><time>2026-04-18T07:35:16.999Z</time></trkpt><trkpt lat="46.12507993836769" lon="13.185756455421217"><ele>164.5</ele><time>2026-04-18T07:35:17.999Z</time></trkpt><trkpt lat="46.12512929763791" lon="13.185615575425157"><ele>164.0</ele><time>2026-04-18T07:35:18.999Z</time></trkpt><trkpt lat="46.12517647916274" lon="13.18546513862348"><ele>163.5</ele><time>2026-04-18T07:35:19.999Z</time></trkpt><trkpt lat="46.12522458119901" lon="13.18529532417183"><ele>163.0</ele><time>2026-04-18T07:35:20.999Z</time></trkpt><trkpt lat="46.12527338181366" lon="13.185112343441947"><ele>163.0</ele><time>2026-04-18T07:35:21.999Z</time></trkpt><trkpt lat="46.125324990618815" lon="13.184920673000027"><ele>163.0</ele><time>2026-04-18T07:35:22.999Z</time></trkpt><trkpt lat="46.125384702302284" lon="13.184718547357274"><ele>163.0</ele><time>2026-04-18T07:35:23.999Z</time></trkpt><trkpt lat="46.12546404199923" lon="13.184506091196821"><ele>163.0</ele><time>2026-04-18T07:35:24.999Z</time></trkpt><trkpt lat="46.125555947935325" lon="13.184277048729959"><ele>163.0</ele><time>2026-04-18T07:35:25.999Z</time></trkpt><trkpt lat="46.125663350267885" lon="13.184016456968473"><ele>163.0</ele><time>2026-04-18T07:35:26.999Z</time></trkpt><trkpt lat="46.1257773177845" lon="13.183739935412532"><ele>164.0</ele><time>2026-04-18T07:35:27.999Z</time></trkpt><trkpt lat="46.1258958440896" lon="13.183452708458615"><ele>165.0</ele><time>2026-04-18T07:35:28.999Z</time></trkpt><trkpt lat="46.12601779661954" lon="13.183157200140135"><ele>165.5</ele><time>2026-04-18T07:35:29.999Z</time></trkpt><trkpt lat="46.126138577202276" lon="13.18286424558791"><ele>166.0</ele><time>2026-04-18T07:35:30.999Z</time></trkpt><trkpt lat="46.126255958139275" lon="13.182577693744003"><ele>167.33333333333334</ele><time>2026-04-18T07:35:31.999Z</time></trkpt><trkpt lat="46.12636721284815" lon="13.182305558808492"><ele>168.66666666666666</ele><time>2026-04-18T07:35:32.999Z</time></trkpt><trkpt lat="46.12647257734987" lon="13.182047545476244"><ele>170.0</ele><time>2026-04-18T07:35:33.999Z</time></trkpt><trkpt lat="46.12656931693903" lon="13.181809208916794"><ele>170.33333333333331</ele><time>2026-04-18T07:35:34.999Z</time></trkpt><trkpt lat="46.126655729373724" lon="13.181598781427295"><ele>170.66666666666666</ele><time>2026-04-18T07:35:35.999Z</time></trkpt><trkpt lat="46.126736341160566" lon="13.181402515248557"><ele>171.0</ele><time>2026-04-18T07:35:36.999Z</time></trkpt><trkpt lat="46.126814133271345" lon="13.181212998525096"><ele>171.25</ele><time>2026-04-18T07:35:37.999Z</time></trkpt><trkpt lat="46.12688981978697" lon="13.181028225860135"><ele>171.5</ele><time>2026-04-18T07:35:38.999Z</time></trkpt><trkpt lat="46.12695081735358" lon="13.180841059531975"><ele>171.75</ele><time>2026-04-18T07:35:39.999Z</time></trkpt><trkpt lat="46.12702812035114" lon="13.180670707622243"><ele>172.0</ele><time>2026-04-18T07:35:40.999Z</time></trkpt><trkpt lat="46.127102142394136" lon="13.180497839674894"><ele>172.5</ele><time>2026-04-18T07:35:41.999Z</time></trkpt><trkpt lat="46.12717164277062" lon="13.180327426493209"><ele>173.0</ele><time>2026-04-18T07:35:42.999Z</time></trkpt><trkpt lat="46.127239590090184" lon="13.180159095484465"><ele>173.5</ele><time>2026-04-18T07:35:43.999Z</time></trkpt><trkpt lat="46.12730580429388" lon="13.17998579057368"><ele>174.0</ele><time>2026-04-18T07:35:44.999Z</time></trkpt><trkpt lat="46.12737113506658" lon="13.179814363116419"><ele>175.25</ele><time>2026-04-18T07:35:45.999Z</time></trkpt><trkpt lat="46.12743555188994" lon="13.179655085754316"><ele>176.5</ele><time>2026-04-18T07:35:46.999Z</time></trkpt><trkpt lat="46.12751373425309" lon="13.179509604681"><ele>177.75</ele><time>2026-04-18T07:35:47.999Z</time></trkpt><trkpt lat="46.12757984125849" lon="13.179348458301376"><ele>179.0</ele><time>2026-04-18T07:35:48.999Z</time></trkpt><trkpt lat="46.12764674742683" lon="13.179185363771776"><ele>179.0</ele><time>2026-04-18T07:35:49.999Z</time></trkpt><trkpt lat="46.127713538077195" lon="13.179022550805241"><ele>179.0</ele><time>2026-04-18T07:35:50.999Z</time></trkpt><trkpt lat="46.12777986809382" lon="13.178860860713334"><ele>179.0</ele><time>2026-04-18T07:35:51.999Z</time></trkpt><trkpt lat="46.12784477390333" lon="13.178702642346392"><ele>179.0</ele><time>2026-04-18T07:35:52.999Z</time></trkpt><trkpt lat="46.12791202218246" lon="13.178538713937133"><ele>180.66666666666666</ele><time>2026-04-18T07:35:53.999Z</time></trkpt><trkpt lat="46.127997757686174" lon="13.178329720055663"><ele>182.33333333333334</ele><time>2026-04-18T07:35:54.999Z</time></trkpt><trkpt lat="46.12810182841021" lon="13.178076030648715"><ele>184.0</ele><time>2026-04-18T07:35:55.999Z</time></trkpt><trkpt lat="46.128223419951304" lon="13.177779433459076"><ele>186.5</ele><time>2026-04-18T07:35:56.999Z</time></trkpt><trkpt lat="46.128353691282555" lon="13.177460669900343"><ele>189.0</ele><time>2026-04-18T07:35:57.999Z</time></trkpt><trkpt lat="46.128486384179354" lon="13.177135981191066"><ele>190.0</ele><time>2026-04-18T07:35:58.999Z</time></trkpt><trkpt lat="46.128602767594636" lon="13.176803195098632"><ele>191.0</ele><time>2026-04-18T07:35:59.999Z</time></trkpt><trkpt lat="46.12873996066014" lon="13.17650242874539"><ele>192.5</ele><time>2026-04-18T07:36:00.999Z</time></trkpt><trkpt lat="46.12889325372889" lon="13.176222656393056"><ele>194.0</ele><time>2026-04-18T07:36:01.999Z</time></trkpt><trkpt lat="46.12906520950076" lon="13.17596251993796"><ele>194.5</ele><time>2026-04-18T07:36:02.999Z</time></trkpt><trkpt lat="46.12925301451521" lon="13.175726461598371"><ele>195.0</ele><time>2026-04-18T07:36:03.999Z</time></trkpt><trkpt lat="46.129451557329425" lon="13.175516470450944"><ele>195.0</ele><time>2026-04-18T07:36:04.999Z</time></trkpt><trkpt lat="46.129663045395155" lon="13.175338661550086"><ele>195.0</ele><time>2026-04-18T07:36:05.999Z</time></trkpt><trkpt lat="46.129892341027855" lon="13.175215902240454"><ele>195.5</ele><time>2026-04-18T07:36:06.999Z</time></trkpt><trkpt lat="46.130118335915654" lon="13.175078815465787"><ele>196.0</ele><time>2026-04-18T07:36:07.999Z</time></trkpt><trkpt lat="46.13035165170809" lon="13.17499505646579"><ele>196.0</ele><time>2026-04-18T07:36:08.999Z</time></trkpt><trkpt lat="46.13058796211117" lon="13.174965298558222"><ele>196.0</ele><time>2026-04-18T07:36:09.999Z</time></trkpt><trkpt lat="46.13080748788835" lon="13.174934646859082"><ele>197.0</ele><time>2026-04-18T07:36:10.999Z</time></trkpt><trkpt lat="46.131007240988716" lon="13.174936805858023"><ele>198.0</ele><time>2026-04-18T07:36:11.999Z</time></trkpt><trkpt lat="46.131193813016765" lon="13.174927778619093"><ele>199.0</ele><time>2026-04-18T07:36:12.999Z</time></trkpt><trkpt lat="46.13136943076594" lon="13.174936116066165"><ele>199.0</ele><time>2026-04-18T07:36:13.999Z</time></trkpt><trkpt lat="46.13152203781022" lon="13.174918185978129"><ele>199.0</ele><time>2026-04-18T07:36:14.999Z</time></trkpt><trkpt lat="46.131654424352554" lon="13.174893250862393"><ele>199.0</ele><time>2026-04-18T07:36:15.999Z</time></trkpt><trkpt lat="46.1317729056548" lon="13.174869810084324"><ele>199.0</ele><time>2026-04-18T07:36:16.999Z</time></trkpt><trkpt lat="46.131879532699976" lon="13.174843924992057"><ele>199.25</ele><time>2026-04-18T07:36:17.999Z</time></trkpt><trkpt lat="46.13198557283216" lon="13.174813944088916"><ele>199.5</ele><time>2026-04-18T07:36:18.999Z</time></trkpt><trkpt lat="46.13209562403887" lon="13.174780451364105"><ele>199.75</ele><time>2026-04-18T07:36:19.999Z</time></trkpt><trkpt lat="46.132207707322934" lon="13.174745493557618"><ele>200.0</ele><time>2026-04-18T07:36:20.999Z</time></trkpt><trkpt lat="46.13231977792868" lon="13.17470401572842"><ele>200.4</ele><time>2026-04-18T07:36:21.999Z</time></trkpt><trkpt lat="46.13242557199003" lon="13.174657608733881"><ele>200.8</ele><time>2026-04-18T07:36:22.999Z</time></trkpt><trkpt lat="46.13252623182362" lon="13.1745915828399"><ele>201.2</ele><time>2026-04-18T07:36:23.999Z</time></trkpt><trkpt lat="46.132618074144965" lon="13.174510998314823"><ele>201.6</ele><time>2026-04-18T07:36:24.999Z</time></trkpt><trkpt lat="46.1327014773726" lon="13.174405735611543"><ele>202.0</ele><time>2026-04-18T07:36:25.999Z</time></trkpt><trkpt lat="46.13277346357505" lon="13.174278628593939"><ele>202.0</ele><time>2026-04-18T07:36:26.999Z</time></trkpt><trkpt lat="46.13283813709149" lon="13.174148199217369"><ele>202.0</ele><time>2026-04-18T07:36:27.999Z</time></trkpt><trkpt lat="46.132902962721474" lon="13.17401774118002"><ele>202.0</ele><time>2026-04-18T07:36:29Z</time></trkpt><trkpt lat="46.13296892252786" lon="13.173887479048961"><ele>202.0</ele><time>2026-04-18T07:36:30Z</time></trkpt><trkpt lat="46.133036617314524" lon="13.173754014446532"><ele>202.0</ele><time>2026-04-18T07:36:31Z</time></trkpt><trkpt lat="46.133107970930205" lon="13.17361333619868"><ele>201.0</ele><time>2026-04-18T07:36:32Z</time></trkpt><trkpt lat="46.133180804822565" lon="13.173469739405522"><ele>200.0</ele><time>2026-04-18T07:36:33Z</time></trkpt><trkpt lat="46.1332514880545" lon="13.17332979892133"><ele>199.0</ele><time>2026-04-18T07:36:34Z</time></trkpt><trkpt lat="46.13332023838326" lon="13.173193471108954"><ele>198.0</ele><time>2026-04-18T07:36:35Z</time></trkpt><trkpt lat="46.13339379396279" lon="13.173047614794037"><ele>197.25</ele><time>2026-04-18T07:36:36Z</time></trkpt><trkpt lat="46.133470515159516" lon="13.172895485826075"><ele>196.5</ele><time>2026-04-18T07:36:37Z</time></trkpt><trkpt lat="46.13354829933338" lon="13.172745488353861"><ele>195.75</ele><time>2026-04-18T07:36:38Z</time></trkpt><trkpt lat="46.133626035591895" lon="13.172599293947762"><ele>195.0</ele><time>2026-04-18T07:36:39Z</time></trkpt><trkpt lat="46.133710769947136" lon="13.172451942218284"><ele>195.0</ele><time>2026-04-18T07:36:40Z</time></trkpt><trkpt lat="46.133802201151504" lon="13.172306933741778"><ele>195.0</ele><time>2026-04-18T07:36:41Z</time></trkpt><trkpt lat="46.133899416264086" lon="13.172169969864667"><ele>195.0</ele><time>2026-04-18T07:36:42Z</time></trkpt><trkpt lat="46.13399920471017" lon="13.172037600745107"><ele>195.0</ele><time>2026-04-18T07:36:43Z</time></trkpt><trkpt lat="46.13410123696116" lon="13.171914623064474"><ele>194.75</ele><time>2026-04-18T07:36:44Z</time></trkpt><trkpt lat="46.134206794178496" lon="13.171800206605417"><ele>194.5</ele><time>2026-04-18T07:36:45Z</time></trkpt><trkpt lat="46.13431797639104" lon="13.171691753591492"><ele>194.25</ele><time>2026-04-18T07:36:46Z</time></trkpt><trkpt lat="46.13443584529971" lon="13.171585938798287"><ele>194.0</ele><time>2026-04-18T07:36:47Z</time></trkpt><trkpt lat="46.134564353321736" lon="13.171486432660771"><ele>194.66666666666669</ele><time>2026-04-18T07:36:48Z</time></trkpt><trkpt lat="46.13470123865488" lon="13.171386338980563"><ele>195.33333333333331</ele><time>2026-04-18T07:36:49Z</time></trkpt><trkpt lat="46.134849503466626" lon="13.171278359296553"><ele>196.0</ele><time>2026-04-18T07:36:50Z</time></trkpt><trkpt lat="46.13501415798329" lon="13.171160582305248"><ele>194.66666666666666</ele><time>2026-04-18T07:36:51Z</time></trkpt><trkpt lat="46.135205582326094" lon="13.171025140362106"><ele>193.33333333333331</ele><time>2026-04-18T07:36:52Z</time></trkpt><trkpt lat="46.13540465775934" lon="13.170884429225305"><ele>192.0</ele><time>2026-04-18T07:36:53Z</time></trkpt><trkpt lat="46.13560501139855" lon="13.170740816184171"><ele>192.0</ele><time>2026-04-18T07:36:54Z</time></trkpt><trkpt lat="46.13579757866494" lon="13.170581193256854"><ele>192.0</ele><time>2026-04-18T07:36:55Z</time></trkpt><trkpt lat="46.135992454668504" lon="13.170447314480306"><ele>192.0</ele><time>2026-04-18T07:36:56Z</time></trkpt><trkpt lat="46.13618189864364" lon="13.17031423574937"><ele>192.0</ele><time>2026-04-18T07:36:57Z</time></trkpt><trkpt lat="46.13636692552398" lon="13.170177341806918"><ele>192.0</ele><time>2026-04-18T07:36:58Z</time></trkpt><trkpt lat="46.136544859417576" lon="13.17003408132888"><ele>192.0</ele><time>2026-04-18T07:36:59Z</time></trkpt><trkpt lat="46.136706283667834" lon="13.16987244422591"><ele>190.66666666666666</ele><time>2026-04-18T07:37:00Z</time></trkpt><trkpt lat="46.13684999165002" lon="13.169671611810609"><ele>189.33333333333331</ele><time>2026-04-18T07:37:01Z</time></trkpt><trkpt lat="46.13697364681558" lon="13.16945145906744"><ele>188.0</ele><time>2026-04-18T07:37:02Z</time></trkpt><trkpt lat="46.13707676776554" lon="13.169211204130823"><ele>189.33333333333331</ele><time>2026-04-18T07:37:03Z</time></trkpt><trkpt lat="46.137163990450496" lon="13.168959416434227"><ele>190.66666666666666</ele><time>2026-04-18T07:37:04Z</time></trkpt><trkpt lat="46.13724667437057" lon="13.168705495564915"><ele>192.0</ele><time>2026-04-18T07:37:05Z</time></trkpt><trkpt lat="46.13733307649436" lon="13.168443715293806"><ele>190.33333333333334</ele><time>2026-04-18T07:37:06Z</time></trkpt><trkpt lat="46.13742720524432" lon="13.168178839645575"><ele>188.66666666666669</ele><time>2026-04-18T07:37:07Z</time></trkpt><trkpt lat="46.1375337046548" lon="13.16792262071474"><ele>187.0</ele><time>2026-04-18T07:37:08Z</time></trkpt><trkpt lat="46.13765952428641" lon="13.16768019022619"><ele>187.0</ele><time>2026-04-18T07:37:09Z</time></trkpt><trkpt lat="46.137800781688995" lon="13.167453475274096"><ele>187.0</ele><time>2026-04-18T07:37:10Z</time></trkpt><trkpt lat="46.137943873532826" lon="13.167229422476547"><ele>187.0</ele><time>2026-04-18T07:37:11Z</time></trkpt><trkpt lat="46.13809108529127" lon="13.167012731606583"><ele>186.0</ele><time>2026-04-18T07:37:12Z</time></trkpt><trkpt lat="46.138244196777435" lon="13.166804544885773"><ele>185.0</ele><time>2026-04-18T07:37:13Z</time></trkpt><trkpt lat="46.13841009460518" lon="13.166614030645954"><ele>184.0</ele><time>2026-04-18T07:37:14Z</time></trkpt><trkpt lat="46.13858883798049" lon="13.166444850067236"><ele>184.0</ele><time>2026-04-18T07:37:15Z</time></trkpt><trkpt lat="46.13877555418271" lon="13.166291844194715"><ele>184.0</ele><time>2026-04-18T07:37:16Z</time></trkpt><trkpt lat="46.13896027581511" lon="13.166145342982425"><ele>184.0</ele><time>2026-04-18T07:37:17Z</time></trkpt><trkpt lat="46.13913425708945" lon="13.165985725328436"><ele>183.0</ele><time>2026-04-18T07:37:18Z</time></trkpt><trkpt lat="46.139292983931306" lon="13.16580525805405"><ele>182.0</ele><time>2026-04-18T07:37:18.999Z</time></trkpt><trkpt lat="46.13944654809659" lon="13.165611814873978"><ele>181.0</ele><time>2026-04-18T07:37:19.999Z</time></trkpt><trkpt lat="46.13955640262391" lon="13.165366445202295"><ele>181.0</ele><time>2026-04-18T07:37:20.999Z</time></trkpt><trkpt lat="46.13966534416013" lon="13.165123710019701"><ele>181.0</ele><time>2026-04-18T07:37:21.999Z</time></trkpt><trkpt lat="46.139764218753186" lon="13.164875448832563"><ele>181.0</ele><time>2026-04-18T07:37:22.999Z</time></trkpt><trkpt lat="46.13986093956206" lon="13.164626113195583"><ele>180.66666666666669</ele><time>2026-04-18T07:37:23.999Z</time></trkpt><trkpt lat="46.139957033611296" lon="13.164377618736578"><ele>180.33333333333334</ele><time>2026-04-18T07:37:24.999Z</time></trkpt><trkpt lat="46.14006539558837" lon="13.164142007960926"><ele>180.0</ele><time>2026-04-18T07:37:25.999Z</time></trkpt><trkpt lat="46.14019143297639" lon="13.163924581460071"><ele>180.0</ele><time>2026-04-18T07:37:26.999Z</time></trkpt><trkpt lat="46.140334089345835" lon="13.16373223739326"><ele>180.0</ele><time>2026-04-18T07:37:27.999Z</time></trkpt><trkpt lat="46.140493026092955" lon="13.163557610952095"><ele>180.0</ele><time>2026-04-18T07:37:28.999Z</time></trkpt><trkpt lat="46.140666665985854" lon="13.163384220151476"><ele>180.33333333333334</ele><time>2026-04-18T07:37:29.999Z</time></trkpt><trkpt lat="46.1408592456964" lon="13.163226692434357"><ele>180.66666666666669</ele><time>2026-04-18T07:37:30.999Z</time></trkpt><trkpt lat="46.14104896594105" lon="13.163044570360265"><ele>181.0</ele><time>2026-04-18T07:37:31.999Z</time></trkpt><trkpt lat="46.14124662420758" lon="13.162855245753871"><ele>181.0</ele><time>2026-04-18T07:37:32.999Z</time></trkpt><trkpt lat="46.14145190541677" lon="13.162659412571276"><ele>181.0</ele><time>2026-04-18T07:37:33.999Z</time></trkpt><trkpt lat="46.14166304248856" lon="13.162457553664897"><ele>181.0</ele><time>2026-04-18T07:37:34.999Z</time></trkpt><trkpt lat="46.14187888688249" lon="13.16225148438901"><ele>181.0</ele><time>2026-04-18T07:37:35.999Z</time></trkpt><trkpt lat="46.14210116368987" lon="13.16203924673599"><ele>181.0</ele><time>2026-04-18T07:37:36.999Z</time></trkpt><trkpt lat="46.14232578085429" lon="13.161823392171966"><ele>181.0</ele><time>2026-04-18T07:37:37.999Z</time></trkpt><trkpt lat="46.14255459085489" lon="13.161604156502385"><ele>182.5</ele><time>2026-04-18T07:37:38.999Z</time></trkpt><trkpt lat="46.142784144988305" lon="13.161385255900289"><ele>184.0</ele><time>2026-04-18T07:37:39.999Z</time></trkpt><trkpt lat="46.14301783110183" lon="13.161162415107736"><ele>184.0</ele><time>2026-04-18T07:37:40.999Z</time></trkpt><trkpt lat="46.14325229361596" lon="13.16093883387834"><ele>184.0</ele><time>2026-04-18T07:37:41.999Z</time></trkpt><trkpt lat="46.14348073874342" lon="13.160720990704851"><ele>184.0</ele><time>2026-04-18T07:37:42.999Z</time></trkpt><trkpt lat="46.14370066103107" lon="13.160511757416694"><ele>184.0</ele><time>2026-04-18T07:37:43.999Z</time></trkpt><trkpt lat="46.14391609801668" lon="13.160306826980339"><ele>182.5</ele><time>2026-04-18T07:37:44.999Z</time></trkpt><trkpt lat="46.1441178613574" lon="13.160086503862109"><ele>181.0</ele><time>2026-04-18T07:37:45.999Z</time></trkpt><trkpt lat="46.144325282572325" lon="13.159890518225312"><ele>182.5</ele><time>2026-04-18T07:37:46.999Z</time></trkpt><trkpt lat="46.14453788706996" lon="13.159716447116311"><ele>184.0</ele><time>2026-04-18T07:37:47.999Z</time></trkpt><trkpt lat="46.14473822665646" lon="13.159527911414536"><ele>185.0</ele><time>2026-04-18T07:37:48.999Z</time></trkpt><trkpt lat="46.14493587115506" lon="13.15934160053641"><ele>186.0</ele><time>2026-04-18T07:37:49.999Z</time></trkpt><trkpt lat="46.14513031545433" lon="13.159156860216562"><ele>186.0</ele><time>2026-04-18T07:37:50.999Z</time></trkpt><trkpt lat="46.145322296885496" lon="13.158974457986634"><ele>186.0</ele><time>2026-04-18T07:37:51.999Z</time></trkpt><trkpt lat="46.14551248640902" lon="13.158793528722237"><ele>186.0</ele><time>2026-04-18T07:37:52.999Z</time></trkpt><trkpt lat="46.14570048997118" lon="13.15861466110352"><ele>186.0</ele><time>2026-04-18T07:37:53.999Z</time></trkpt><trkpt lat="46.14587274553932" lon="13.158425700768"><ele>186.0</ele><time>2026-04-18T07:37:54.999Z</time></trkpt><trkpt lat="46.14604693709036" lon="13.158261359855711"><ele>186.0</ele><time>2026-04-18T07:37:55.999Z</time></trkpt><trkpt lat="46.14621871067032" lon="13.158099378156232"><ele>186.0</ele><time>2026-04-18T07:37:56.999Z</time></trkpt><trkpt lat="46.146388602199764" lon="13.157937679749544"><ele>186.0</ele><time>2026-04-18T07:37:57.999Z</time></trkpt><trkpt lat="46.14655642947828" lon="13.15778037033829"><ele>186.0</ele><time>2026-04-18T07:37:58.999Z</time></trkpt><trkpt lat="46.146721211564724" lon="13.157624729337968"><ele>186.0</ele><time>2026-04-18T07:37:59.999Z</time></trkpt><trkpt lat="46.146884994542575" lon="13.157470219791843"><ele>186.0</ele><time>2026-04-18T07:38:00.999Z</time></trkpt><trkpt lat="46.14704805072394" lon="13.157312306117088"><ele>185.66666666666666</ele><time>2026-04-18T07:38:01.999Z</time></trkpt><trkpt lat="46.14721244960278" lon="13.157155901408968"><ele>185.33333333333331</ele><time>2026-04-18T07:38:02.999Z</time></trkpt><trkpt lat="46.1473795266215" lon="13.156999238720223"><ele>185.0</ele><time>2026-04-18T07:38:03.999Z</time></trkpt><trkpt lat="46.14755633721229" lon="13.1568610319833"><ele>184.66666666666666</ele><time>2026-04-18T07:38:04.999Z</time></trkpt><trkpt lat="46.14772376714842" lon="13.15670234000436"><ele>184.33333333333334</ele><time>2026-04-18T07:38:05.999Z</time></trkpt><trkpt lat="46.14788637092497" lon="13.156519058419201"><ele>184.0</ele><time>2026-04-18T07:38:06.999Z</time></trkpt><trkpt lat="46.14805556595466" lon="13.156356969725547"><ele>183.33333333333334</ele><time>2026-04-18T07:38:07.999Z</time></trkpt><trkpt lat="46.148215825619225" lon="13.156202259227422"><ele>182.66666666666666</ele><time>2026-04-18T07:38:08.999Z</time></trkpt><trkpt lat="46.14837222858905" lon="13.15607217782475"><ele>182.0</ele><time>2026-04-18T07:38:09.999Z</time></trkpt><trkpt lat="46.14851885578198" lon="13.155921386544078"><ele>182.0</ele><time>2026-04-18T07:38:10.999Z</time></trkpt><trkpt lat="46.1486699605457" lon="13.155765992249433"><ele>182.0</ele><time>2026-04-18T07:38:11.999Z</time></trkpt><trkpt lat="46.14882467431923" lon="13.155606892812935"><ele>182.0</ele><time>2026-04-18T07:38:12.999Z</time></trkpt><trkpt lat="46.148982974715416" lon="13.155444105083847"><ele>182.0</ele><time>2026-04-18T07:38:13.999Z</time></trkpt><trkpt lat="46.14910876111586" lon="13.155199759396634"><ele>182.0</ele><time>2026-04-18T07:38:14.999Z</time></trkpt><trkpt lat="46.14926992278798" lon="13.154994417337516"><ele>182.0</ele><time>2026-04-18T07:38:15.999Z</time></trkpt><trkpt lat="46.149435596532655" lon="13.154777025271041"><ele>182.0</ele><time>2026-04-18T07:38:16.999Z</time></trkpt><trkpt lat="46.14960380377611" lon="13.154544579173107"><ele>182.0</ele><time>2026-04-18T07:38:17.999Z</time></trkpt><trkpt lat="46.14976949547658" lon="13.154304365502894"><ele>181.66666666666666</ele><time>2026-04-18T07:38:18.999Z</time></trkpt><trkpt lat="46.14992200301953" lon="13.154057177424155"><ele>181.33333333333334</ele><time>2026-04-18T07:38:19.999Z</time></trkpt><trkpt lat="46.15006112857471" lon="13.153820916238487"><ele>181.0</ele><time>2026-04-18T07:38:20.999Z</time></trkpt><trkpt lat="46.15019041615311" lon="13.153597238179598"><ele>181.0</ele><time>2026-04-18T07:38:21.999Z</time></trkpt><trkpt lat="46.150306102233756" lon="13.153383038203303"><ele>181.0</ele><time>2026-04-18T07:38:22.999Z</time></trkpt><trkpt lat="46.15041170790779" lon="13.153174533012697"><ele>181.0</ele><time>2026-04-18T07:38:23.999Z</time></trkpt><trkpt lat="46.15050837470672" lon="13.152971469081162"><ele>180.33333333333334</ele><time>2026-04-18T07:38:24.999Z</time></trkpt><trkpt lat="46.15060282359976" lon="13.152769729254238"><ele>179.66666666666666</ele><time>2026-04-18T07:38:25.999Z</time></trkpt><trkpt lat="46.15069510346978" lon="13.152563362442196"><ele>179.0</ele><time>2026-04-18T07:38:26.999Z</time></trkpt><trkpt lat="46.15078977163325" lon="13.152347906271604"><ele>178.66666666666666</ele><time>2026-04-18T07:38:27.999Z</time></trkpt><trkpt lat="46.150887342858645" lon="13.15212338627516"><ele>178.33333333333334</ele><time>2026-04-18T07:38:28.999Z</time></trkpt><trkpt lat="46.15098483768884" lon="13.151886514238374"><ele>178.0</ele><time>2026-04-18T07:38:29.999Z</time></trkpt><trkpt lat="46.15108082441366" lon="13.151645537625356"><ele>178.33333333333334</ele><time>2026-04-18T07:38:30.999Z</time></trkpt><trkpt lat="46.15116844953666" lon="13.151402765969804"><ele>178.66666666666666</ele><time>2026-04-18T07:38:31.999Z</time></trkpt><trkpt lat="46.151253638038455" lon="13.151155097464374"><ele>179.0</ele><time>2026-04-18T07:38:32.999Z</time></trkpt><trkpt lat="46.15133517865274" lon="13.15090410059753"><ele>179.0</ele><time>2026-04-18T07:38:33.999Z</time></trkpt><trkpt lat="46.15141156848589" lon="13.15065186236204"><ele>179.0</ele><time>2026-04-18T07:38:35Z</time></trkpt><trkpt lat="46.15148302874862" lon="13.150401225541303"><ele>179.0</ele><time>2026-04-18T07:38:36Z</time></trkpt><trkpt lat="46.15155268565856" lon="13.150153112277513"><ele>179.66666666666666</ele><time>2026-04-18T07:38:37Z</time></trkpt><trkpt lat="46.15162160068239" lon="13.149905059824006"><ele>180.33333333333334</ele><time>2026-04-18T07:38:38Z</time></trkpt><trkpt lat="46.15168760993025" lon="13.149653761191818"><ele>181.0</ele><time>2026-04-18T07:38:39Z</time></trkpt><trkpt lat="46.15175472125449" lon="13.149405578732237"><ele>181.66666666666669</ele><time>2026-04-18T07:38:40Z</time></trkpt><trkpt lat="46.15182222518816" lon="13.149165575137568"><ele>182.33333333333334</ele><time>2026-04-18T07:38:41Z</time></trkpt><trkpt lat="46.15188960597093" lon="13.148916624957117"><ele>183.0</ele><time>2026-04-18T07:38:42Z</time></trkpt><trkpt lat="46.15196128388171" lon="13.148653169996559"><ele>183.33333333333334</ele><time>2026-04-18T07:38:43Z</time></trkpt><trkpt lat="46.15203660768335" lon="13.148377635483413"><ele>183.66666666666669</ele><time>2026-04-18T07:38:44Z</time></trkpt><trkpt lat="46.152113220740446" lon="13.1480923735167"><ele>184.0</ele><time>2026-04-18T07:38:45Z</time></trkpt><trkpt lat="46.152195264339504" lon="13.147800798863951"><ele>184.0</ele><time>2026-04-18T07:38:46Z</time></trkpt><trkpt lat="46.15227917403864" lon="13.147514805645178"><ele>184.0</ele><time>2026-04-18T07:38:47Z</time></trkpt><trkpt lat="46.1523564890811" lon="13.147236313638514"><ele>184.0</ele><time>2026-04-18T07:38:48Z</time></trkpt><trkpt lat="46.15242949930947" lon="13.14697106798651"><ele>184.0</ele><time>2026-04-18T07:38:49Z</time></trkpt><trkpt lat="46.152499669718814" lon="13.146707383824353"><ele>184.0</ele><time>2026-04-18T07:38:50Z</time></trkpt><trkpt lat="46.15256673616961" lon="13.14643079527667"><ele>184.0</ele><time>2026-04-18T07:38:51Z</time></trkpt><trkpt lat="46.15263815706239" lon="13.146139518594717"><ele>184.5</ele><time>2026-04-18T07:38:52Z</time></trkpt><trkpt lat="46.152718705883004" lon="13.14579481220077"><ele>185.0</ele><time>2026-04-18T07:38:53Z</time></trkpt><trkpt lat="46.15281582106522" lon="13.145447648460017"><ele>186.5</ele><time>2026-04-18T07:38:54Z</time></trkpt><trkpt lat="46.152913146807066" lon="13.145109660149421"><ele>188.0</ele><time>2026-04-18T07:38:55Z</time></trkpt><trkpt lat="46.1530112232797" lon="13.144778429723669"><ele>187.0</ele><time>2026-04-18T07:38:56Z</time></trkpt><trkpt lat="46.153107218384314" lon="13.144460767236058"><ele>186.0</ele><time>2026-04-18T07:38:57Z</time></trkpt><trkpt lat="46.15320701378826" lon="13.144150814680518"><ele>185.0</ele><time>2026-04-18T07:38:58Z</time></trkpt><trkpt lat="46.153303037414936" lon="13.143821140124116"><ele>184.0</ele><time>2026-04-18T07:38:59Z</time></trkpt><trkpt lat="46.153403108920166" lon="13.143420622907325"><ele>185.0</ele><time>2026-04-18T07:39:00Z</time></trkpt><trkpt lat="46.15352769721631" lon="13.142938607387029"><ele>186.0</ele><time>2026-04-18T07:39:01Z</time></trkpt><trkpt lat="46.15367881720103" lon="13.14242270742655"><ele>187.0</ele><time>2026-04-18T07:39:02Z</time></trkpt><trkpt lat="46.153843831909604" lon="13.14188071187149"><ele>188.0</ele><time>2026-04-18T07:39:03Z</time></trkpt><trkpt lat="46.15399495799168" lon="13.14136709970499"><ele>184.5</ele><time>2026-04-18T07:39:04Z</time></trkpt><trkpt lat="46.15414236757549" lon="13.140877241296925"><ele>181.0</ele><time>2026-04-18T07:39:05Z</time></trkpt><trkpt lat="46.15430148275762" lon="13.140413110278983"><ele>181.0</ele><time>2026-04-18T07:39:06Z</time></trkpt><trkpt lat="46.15447020477983" lon="13.139980513486362"><ele>181.0</ele><time>2026-04-18T07:39:07Z</time></trkpt><trkpt lat="46.154645724322656" lon="13.139565581763065"><ele>180.5</ele><time>2026-04-18T07:39:08Z</time></trkpt><trkpt lat="46.15482833579117" lon="13.139165014668302"><ele>180.0</ele><time>2026-04-18T07:39:09Z</time></trkpt><trkpt lat="46.15501883771986" lon="13.138780969974293"><ele>180.0</ele><time>2026-04-18T07:39:10Z</time></trkpt><trkpt lat="46.15521486000101" lon="13.138411595155954"><ele>180.0</ele><time>2026-04-18T07:39:11Z</time></trkpt><trkpt lat="46.15541763743906" lon="13.138055881342847"><ele>180.5</ele><time>2026-04-18T07:39:12Z</time></trkpt><trkpt lat="46.15562610125853" lon="13.137711410154788"><ele>181.0</ele><time>2026-04-18T07:39:13Z</time></trkpt><trkpt lat="46.15584387980363" lon="13.137378333603301"><ele>181.0</ele><time>2026-04-18T07:39:14Z</time></trkpt><trkpt lat="46.1560710492016" lon="13.137061610746875"><ele>181.0</ele><time>2026-04-18T07:39:15Z</time></trkpt><trkpt lat="46.15630560420565" lon="13.136756190222098"><ele>181.0</ele><time>2026-04-18T07:39:16Z</time></trkpt><trkpt lat="46.15654577382926" lon="13.136460746046188"><ele>181.0</ele><time>2026-04-18T07:39:17Z</time></trkpt><trkpt lat="46.15679049316198" lon="13.136174731444992"><ele>181.0</ele><time>2026-04-18T07:39:18Z</time></trkpt><trkpt lat="46.15704231647518" lon="13.135906023461635"><ele>181.0</ele><time>2026-04-18T07:39:19Z</time></trkpt><trkpt lat="46.15730808465846" lon="13.135672871629923"><ele>182.0</ele><time>2026-04-18T07:39:20Z</time></trkpt><trkpt lat="46.157568603923515" lon="13.135433883072611"><ele>183.0</ele><time>2026-04-18T07:39:21Z</time></trkpt><trkpt lat="46.15783367346463" lon="13.135209299267952"><ele>183.0</ele><time>2026-04-18T07:39:21.999Z</time></trkpt><trkpt lat="46.15810031824543" lon="13.135001945721605"><ele>183.0</ele><time>2026-04-18T07:39:22.999Z</time></trkpt><trkpt lat="46.15836275160467" lon="13.13481516655712"><ele>184.5</ele><time>2026-04-18T07:39:23.999Z</time></trkpt><trkpt lat="46.15861681268972" lon="13.134648307771366"><ele>186.0</ele><time>2026-04-18T07:39:24.999Z</time></trkpt><trkpt lat="46.158867142290084" lon="13.134496112652664"><ele>188.5</ele><time>2026-04-18T07:39:25.999Z</time></trkpt><trkpt lat="46.15910884225232" lon="13.134336472407801"><ele>191.0</ele><time>2026-04-18T07:39:26.999Z</time></trkpt><trkpt lat="46.15935314522876" lon="13.134214032356113"><ele>191.0</ele><time>2026-04-18T07:39:27.999Z</time></trkpt><trkpt lat="46.15959740446732" lon="13.134100780856148"><ele>191.0</ele><time>2026-04-18T07:39:28.999Z</time></trkpt><trkpt lat="46.15983976815586" lon="13.133995577815277"><ele>193.5</ele><time>2026-04-18T07:39:29.999Z</time></trkpt><trkpt lat="46.160082325592" lon="13.133902491546152"><ele>196.0</ele><time>2026-04-18T07:39:30.999Z</time></trkpt><trkpt lat="46.1603227422542" lon="13.133819322015848"><ele>196.0</ele><time>2026-04-18T07:39:31.999Z</time></trkpt><trkpt lat="46.160564540662776" lon="13.133769507630877"><ele>196.0</ele><time>2026-04-18T07:39:32.999Z</time></trkpt><trkpt lat="46.1608045328407" lon="13.133708311833894"><ele>196.0</ele><time>2026-04-18T07:39:33.999Z</time></trkpt><trkpt lat="46.16104192584038" lon="13.133656000982127"><ele>196.0</ele><time>2026-04-18T07:39:34.999Z</time></trkpt><trkpt lat="46.16128167984021" lon="13.13360666036129"><ele>196.0</ele><time>2026-04-18T07:39:35.999Z</time></trkpt><trkpt lat="46.16152477884719" lon="13.133549606294629"><ele>196.0</ele><time>2026-04-18T07:39:36.999Z</time></trkpt><trkpt lat="46.161764194730516" lon="13.133528019778753"><ele>194.0</ele><time>2026-04-18T07:39:37.999Z</time></trkpt><trkpt lat="46.16200599877299" lon="13.13353862782786"><ele>192.0</ele><time>2026-04-18T07:39:38.999Z</time></trkpt><trkpt lat="46.162245852993266" lon="13.13353507038705"><ele>192.0</ele><time>2026-04-18T07:39:39.999Z</time></trkpt><trkpt lat="46.16248621444854" lon="13.133537888021825"><ele>192.0</ele><time>2026-04-18T07:39:40.999Z</time></trkpt><trkpt lat="46.16272672586376" lon="13.133520007241819"><ele>192.0</ele><time>2026-04-18T07:39:41.999Z</time></trkpt><trkpt lat="46.16296918002161" lon="13.133531350270122"><ele>192.0</ele><time>2026-04-18T07:39:42.999Z</time></trkpt><trkpt lat="46.1632126128015" lon="13.133542898744624"><ele>191.5</ele><time>2026-04-18T07:39:43.999Z</time></trkpt><trkpt lat="46.16345724147586" lon="13.133552208795255"><ele>191.0</ele><time>2026-04-18T07:39:44.999Z</time></trkpt><trkpt lat="46.16370314555805" lon="13.13355887045797"><ele>191.0</ele><time>2026-04-18T07:39:45.999Z</time></trkpt><trkpt lat="46.163951546198504" lon="13.133564627247546"><ele>191.0</ele><time>2026-04-18T07:39:46.999Z</time></trkpt><trkpt lat="46.164203341356924" lon="13.133570475797441"><ele>189.5</ele><time>2026-04-18T07:39:47.999Z</time></trkpt><trkpt lat="46.16445841061552" lon="13.133577583866346"><ele>188.0</ele><time>2026-04-18T07:39:48.999Z</time></trkpt><trkpt lat="46.16471743538632" lon="13.13358851628284"><ele>189.0</ele><time>2026-04-18T07:39:49.999Z</time></trkpt><trkpt lat="46.16497964356364" lon="13.13360155871392"><ele>190.0</ele><time>2026-04-18T07:39:50.999Z</time></trkpt><trkpt lat="46.16524682415601" lon="13.133614838212102"><ele>190.0</ele><time>2026-04-18T07:39:51.999Z</time></trkpt><trkpt lat="46.16552088697781" lon="13.133626629983329"><ele>190.0</ele><time>2026-04-18T07:39:52.999Z</time></trkpt><trkpt lat="46.16579724918926" lon="13.133633322813331"><ele>190.5</ele><time>2026-04-18T07:39:53.999Z</time></trkpt><trkpt lat="46.16608239318504" lon="13.133637980009835"><ele>191.0</ele><time>2026-04-18T07:39:54.999Z</time></trkpt><trkpt lat="46.166372166561615" lon="13.133645797662567"><ele>195.5</ele><time>2026-04-18T07:39:55.999Z</time></trkpt><trkpt lat="46.16666197927774" lon="13.133652597530336"><ele>200.0</ele><time>2026-04-18T07:39:56.999Z</time></trkpt><trkpt lat="46.16695194435038" lon="13.133654079499031"><ele>200.0</ele><time>2026-04-18T07:39:57.999Z</time></trkpt><trkpt lat="46.167240643244575" lon="13.133643438578698"><ele>200.0</ele><time>2026-04-18T07:39:58.999Z</time></trkpt><trkpt lat="46.16752690089431" lon="13.133624122585118"><ele>201.0</ele><time>2026-04-18T07:39:59.999Z</time></trkpt><trkpt lat="46.1678072525325" lon="13.133587535957963"><ele>202.0</ele><time>2026-04-18T07:40:00.999Z</time></trkpt><trkpt lat="46.16808672506276" lon="13.13352896225956"><ele>200.0</ele><time>2026-04-18T07:40:01.999Z</time></trkpt><trkpt lat="46.16836157222494" lon="13.133462377147723"><ele>198.0</ele><time>2026-04-18T07:40:02.999Z</time></trkpt><trkpt lat="46.16863255163131" lon="13.133379913177817"><ele>198.0</ele><time>2026-04-18T07:40:03.999Z</time></trkpt><trkpt lat="46.16890046556644" lon="13.133281158874283"><ele>198.0</ele><time>2026-04-18T07:40:04.999Z</time></trkpt><trkpt lat="46.169165054026706" lon="13.133167490827573"><ele>193.0</ele><time>2026-04-18T07:40:05.999Z</time></trkpt><trkpt lat="46.169426788423806" lon="13.133041798195553"><ele>188.0</ele><time>2026-04-18T07:40:06.999Z</time></trkpt><trkpt lat="46.169689330841194" lon="13.132911148647096"><ele>188.0</ele><time>2026-04-18T07:40:07.999Z</time></trkpt><trkpt lat="46.16994716096162" lon="13.132766011402394"><ele>188.0</ele><time>2026-04-18T07:40:08.999Z</time></trkpt><trkpt lat="46.170200035732556" lon="13.132607367109248"><ele>188.0</ele><time>2026-04-18T07:40:09.999Z</time></trkpt><trkpt lat="46.17044915307124" lon="13.132446192804608"><ele>188.0</ele><time>2026-04-18T07:40:10.999Z</time></trkpt><trkpt lat="46.17069733893053" lon="13.132286676922151"><ele>187.0</ele><time>2026-04-18T07:40:11.999Z</time></trkpt><trkpt lat="46.17094254734641" lon="13.132125199557494"><ele>186.0</ele><time>2026-04-18T07:40:12.999Z</time></trkpt><trkpt lat="46.17118347907506" lon="13.13196622060025"><ele>186.0</ele><time>2026-04-18T07:40:13.999Z</time></trkpt><trkpt lat="46.17141999951573" lon="13.131812110625967"><ele>186.0</ele><time>2026-04-18T07:40:14.999Z</time></trkpt><trkpt lat="46.17165355854929" lon="13.131660507495802"><ele>184.5</ele><time>2026-04-18T07:40:15.999Z</time></trkpt><trkpt lat="46.171883615318706" lon="13.131508770781277"><ele>183.0</ele><time>2026-04-18T07:40:16.999Z</time></trkpt><trkpt lat="46.172111476859385" lon="13.131359933006467"><ele>183.0</ele><time>2026-04-18T07:40:17.999Z</time></trkpt><trkpt lat="46.17233602178858" lon="13.13121428291393"><ele>183.0</ele><time>2026-04-18T07:40:18.999Z</time></trkpt><trkpt lat="46.172558805397045" lon="13.131073995770928"><ele>184.5</ele><time>2026-04-18T07:40:19.999Z</time></trkpt><trkpt lat="46.172778224052365" lon="13.13093484615284"><ele>186.0</ele><time>2026-04-18T07:40:20.999Z</time></trkpt><trkpt lat="46.17299417095663" lon="13.130795079359205"><ele>187.5</ele><time>2026-04-18T07:40:21.999Z</time></trkpt><trkpt lat="46.17320550767283" lon="13.130654200271715"><ele>189.0</ele><time>2026-04-18T07:40:22.999Z</time></trkpt><trkpt lat="46.17341619025906" lon="13.130516393466518"><ele>189.0</ele><time>2026-04-18T07:40:23.999Z</time></trkpt><trkpt lat="46.173624490533754" lon="13.13038069301978"><ele>189.0</ele><time>2026-04-18T07:40:24.999Z</time></trkpt><trkpt lat="46.17383180220313" lon="13.130247587161625"><ele>188.66666666666666</ele><time>2026-04-18T07:40:25.999Z</time></trkpt><trkpt lat="46.17403195336905" lon="13.130120697494446"><ele>188.33333333333331</ele><time>2026-04-18T07:40:26.999Z</time></trkpt><trkpt lat="46.174224376763604" lon="13.129996179477079"><ele>188.0</ele><time>2026-04-18T07:40:27.999Z</time></trkpt><trkpt lat="46.17440986419802" lon="13.129876215284774"><ele>188.66666666666666</ele><time>2026-04-18T07:40:28.999Z</time></trkpt><trkpt lat="46.174589786942605" lon="13.1297601340764"><ele>189.33333333333334</ele><time>2026-04-18T07:40:29.999Z</time></trkpt><trkpt lat="46.17476415543109" lon="13.12964485973022"><ele>190.0</ele><time>2026-04-18T07:40:30.999Z</time></trkpt><trkpt lat="46.174939916805634" lon="13.12955521536748"><ele>191.33333333333334</ele><time>2026-04-18T07:40:31.999Z</time></trkpt><trkpt lat="46.17510257468536" lon="13.129450570947256"><ele>192.66666666666669</ele><time>2026-04-18T07:40:32.999Z</time></trkpt><trkpt lat="46.17525919447975" lon="13.12934919044244"><ele>194.0</ele><time>2026-04-18T07:40:33.999Z</time></trkpt><trkpt lat="46.17541114442473" lon="13.129249752903828"><ele>194.0</ele><time>2026-04-18T07:40:34.999Z</time></trkpt><trkpt lat="46.17555125632427" lon="13.129134128126875"><ele>194.0</ele><time>2026-04-18T07:40:35.999Z</time></trkpt><trkpt lat="46.17569911303709" lon="13.129039399489026"><ele>194.0</ele><time>2026-04-18T07:40:36.999Z</time></trkpt><trkpt lat="46.17585186473541" lon="13.128965160245542"><ele>193.66666666666669</ele><time>2026-04-18T07:40:37.999Z</time></trkpt><trkpt lat="46.17599886226388" lon="13.128871380923558"><ele>193.33333333333331</ele><time>2026-04-18T07:40:38.999Z</time></trkpt><trkpt lat="46.176134985813654" lon="13.128755295884698"><ele>193.0</ele><time>2026-04-18T07:40:39.999Z</time></trkpt><trkpt lat="46.17627845587412" lon="13.128688016840451"><ele>193.0</ele><time>2026-04-18T07:40:41Z</time></trkpt><trkpt lat="46.176404671250324" lon="13.128606682337445"><ele>193.0</ele><time>2026-04-18T07:40:42Z</time></trkpt><trkpt lat="46.17651517477386" lon="13.128511991772518"><ele>193.0</ele><time>2026-04-18T07:40:43Z</time></trkpt><trkpt lat="46.17662419826936" lon="13.128442398021509"><ele>193.0</ele><time>2026-04-18T07:40:44Z</time></trkpt><trkpt lat="46.17672153744199" lon="13.128373471545038"><ele>192.66666666666666</ele><time>2026-04-18T07:40:45Z</time></trkpt><trkpt lat="46.17680486117526" lon="13.128312363439468"><ele>192.33333333333331</ele><time>2026-04-18T07:40:46Z</time></trkpt><trkpt lat="46.17686939506428" lon="13.128261364687065"><ele>192.0</ele><time>2026-04-18T07:40:47Z</time></trkpt><trkpt lat="46.176976908809024" lon="13.12819449765183"><ele>191.66666666666666</ele><time>2026-04-18T07:40:49Z</time></trkpt><trkpt lat="46.17705583485604" lon="13.128185272993278"><ele>191.33333333333331</ele><time>2026-04-18T07:40:50Z</time></trkpt><trkpt lat="46.17713581917407" lon="13.128161730396666"><ele>191.0</ele><time>2026-04-18T07:40:51Z</time></trkpt><trkpt lat="46.1772218225062" lon="13.12809735235689"><ele>190.25</ele><time>2026-04-18T07:40:52Z</time></trkpt><trkpt lat="46.1773181089148" lon="13.128001603387704"><ele>189.5</ele><time>2026-04-18T07:40:53Z</time></trkpt><trkpt lat="46.177440964719274" lon="13.127895545400364"><ele>188.75</ele><time>2026-04-18T07:40:54Z</time></trkpt><trkpt lat="46.17761364520017" lon="13.127823036638071"><ele>188.0</ele><time>2026-04-18T07:40:55Z</time></trkpt><trkpt lat="46.17780939799911" lon="13.127698048084378"><ele>186.5</ele><time>2026-04-18T07:40:56Z</time></trkpt><trkpt lat="46.17802897380672" lon="13.127556517238956"><ele>185.0</ele><time>2026-04-18T07:40:57Z</time></trkpt><trkpt lat="46.17826651050647" lon="13.127402531079332"><ele>184.5</ele><time>2026-04-18T07:40:58Z</time></trkpt><trkpt lat="46.17852014608661" lon="13.127238554651413"><ele>184.0</ele><time>2026-04-18T07:40:59Z</time></trkpt><trkpt lat="46.178777219652225" lon="13.127072355708032"><ele>183.0</ele><time>2026-04-18T07:41:00Z</time></trkpt><trkpt lat="46.17903723659695" lon="13.126904253834516"><ele>182.0</ele><time>2026-04-18T07:41:01Z</time></trkpt><trkpt lat="46.17930044483899" lon="13.1267340887246"><ele>182.0</ele><time>2026-04-18T07:41:02Z</time></trkpt><trkpt lat="46.17956479230533" lon="13.126563187126752"><ele>182.0</ele><time>2026-04-18T07:41:03Z</time></trkpt><trkpt lat="46.17981738598655" lon="13.126372790290844"><ele>182.5</ele><time>2026-04-18T07:41:04Z</time></trkpt><trkpt lat="46.18006572909128" lon="13.126237234763833"><ele>183.0</ele><time>2026-04-18T07:41:05Z</time></trkpt><trkpt lat="46.18029275262187" lon="13.126090375931064"><ele>183.0</ele><time>2026-04-18T07:41:06Z</time></trkpt><trkpt lat="46.180508355445056" lon="13.125950904803767"><ele>183.0</ele><time>2026-04-18T07:41:07Z</time></trkpt><trkpt lat="46.18071281426549" lon="13.125818622651149"><ele>182.66666666666666</ele><time>2026-04-18T07:41:08Z</time></trkpt><trkpt lat="46.18090887826161" lon="13.125691431962114"><ele>182.33333333333331</ele><time>2026-04-18T07:41:09Z</time></trkpt><trkpt lat="46.181099475349484" lon="13.125567787731972"><ele>182.0</ele><time>2026-04-18T07:41:10Z</time></trkpt><trkpt lat="46.181288587171444" lon="13.125445106794494"><ele>182.0</ele><time>2026-04-18T07:41:11Z</time></trkpt><trkpt lat="46.18147807479897" lon="13.12532277984782"><ele>182.0</ele><time>2026-04-18T07:41:12Z</time></trkpt><trkpt lat="46.18166343077685" lon="13.125203063471199"><ele>182.0</ele><time>2026-04-18T07:41:13Z</time></trkpt><trkpt lat="46.181857552277336" lon="13.125078707957906"><ele>181.5</ele><time>2026-04-18T07:41:14Z</time></trkpt><trkpt lat="46.1820734449996" lon="13.124940558739079"><ele>181.0</ele><time>2026-04-18T07:41:15Z</time></trkpt><trkpt lat="46.18230798315326" lon="13.124789797161988"><ele>178.5</ele><time>2026-04-18T07:41:16Z</time></trkpt><trkpt lat="46.18255563713951" lon="13.12462844034212"><ele>176.0</ele><time>2026-04-18T07:41:17Z</time></trkpt><trkpt lat="46.182816741964125" lon="13.124458983986234"><ele>176.0</ele><time>2026-04-18T07:41:18Z</time></trkpt><trkpt lat="46.183086822012385" lon="13.124284849493494"><ele>176.0</ele><time>2026-04-18T07:41:19Z</time></trkpt><trkpt lat="46.18336407651281" lon="13.124105933253826"><ele>176.5</ele><time>2026-04-18T07:41:20Z</time></trkpt><trkpt lat="46.183641370297686" lon="13.12392524862842"><ele>177.0</ele><time>2026-04-18T07:41:21Z</time></trkpt><trkpt lat="46.183917547327674" lon="13.1237452917425"><ele>177.5</ele><time>2026-04-18T07:41:22Z</time></trkpt><trkpt lat="46.18419396574489" lon="13.123566461269778"><ele>178.0</ele><time>2026-04-18T07:41:23Z</time></trkpt><trkpt lat="46.18446929188173" lon="13.12338742955935"><ele>177.5</ele><time>2026-04-18T07:41:23.999Z</time></trkpt><trkpt lat="46.18473928296963" lon="13.123213028257632"><ele>177.0</ele><time>2026-04-18T07:41:24.999Z</time></trkpt><trkpt lat="46.185002771895114" lon="13.123042037728037"><ele>175.0</ele><time>2026-04-18T07:41:25.999Z</time></trkpt><trkpt lat="46.185264422464066" lon="13.122871586592607"><ele>173.0</ele><time>2026-04-18T07:41:26.999Z</time></trkpt><trkpt lat="46.18552388511991" lon="13.122702178698827"><ele>171.0</ele><time>2026-04-18T07:41:27.999Z</time></trkpt><trkpt lat="46.18578419919725" lon="13.122533910896212"><ele>169.0</ele><time>2026-04-18T07:41:28.999Z</time></trkpt><trkpt lat="46.18604434161807" lon="13.12236575423302"><ele>169.0</ele><time>2026-04-18T07:41:29.999Z</time></trkpt><trkpt lat="46.186305187974334" lon="13.122197142379092"><ele>169.0</ele><time>2026-04-18T07:41:30.999Z</time></trkpt><trkpt lat="46.186567422332175" lon="13.122027633382077"><ele>170.0</ele><time>2026-04-18T07:41:31.999Z</time></trkpt><trkpt lat="46.18682886124181" lon="13.121858638526806"><ele>171.0</ele><time>2026-04-18T07:41:32.999Z</time></trkpt><trkpt lat="46.187091196247955" lon="13.12168906430088"><ele>172.0</ele><time>2026-04-18T07:41:33.999Z</time></trkpt><trkpt lat="46.18735427161236" lon="13.12151901179244"><ele>173.0</ele><time>2026-04-18T07:41:34.999Z</time></trkpt><trkpt lat="46.187617049117186" lon="13.121347577370377"><ele>173.0</ele><time>2026-04-18T07:41:35.999Z</time></trkpt><trkpt lat="46.18787563470627" lon="13.12117847740681"><ele>173.0</ele><time>2026-04-18T07:41:36.999Z</time></trkpt><trkpt lat="46.18812364744983" lon="13.120998536115007"><ele>173.5</ele><time>2026-04-18T07:41:37.999Z</time></trkpt><trkpt lat="46.18837798887625" lon="13.12085738100515"><ele>174.0</ele><time>2026-04-18T07:41:38.999Z</time></trkpt><trkpt lat="46.188635390110015" lon="13.120753541162289"><ele>173.5</ele><time>2026-04-18T07:41:39.999Z</time></trkpt><trkpt lat="46.18888623886417" lon="13.120640612050426"><ele>173.0</ele><time>2026-04-18T07:41:40.999Z</time></trkpt><trkpt lat="46.189131285000016" lon="13.120543264594168"><ele>171.5</ele><time>2026-04-18T07:41:41.999Z</time></trkpt><trkpt lat="46.189357636382326" lon="13.120427017663253"><ele>170.0</ele><time>2026-04-18T07:41:42.999Z</time></trkpt><trkpt lat="46.18957757373413" lon="13.120357498959349"><ele>170.0</ele><time>2026-04-18T07:41:43.999Z</time></trkpt><trkpt lat="46.18979590635998" lon="13.120304108108307"><ele>170.0</ele><time>2026-04-18T07:41:44.999Z</time></trkpt><trkpt lat="46.19002190274002" lon="13.120252059951238"><ele>168.0</ele><time>2026-04-18T07:41:45.999Z</time></trkpt><trkpt lat="46.1902610101878" lon="13.120199671955696"><ele>166.0</ele><time>2026-04-18T07:41:46.999Z</time></trkpt><trkpt lat="46.19052843744697" lon="13.120164092949466"><ele>165.5</ele><time>2026-04-18T07:41:47.999Z</time></trkpt><trkpt lat="46.190817715869784" lon="13.120161964415118"><ele>165.0</ele><time>2026-04-18T07:41:48.999Z</time></trkpt><trkpt lat="46.1911282363565" lon="13.120228173312842"><ele>165.0</ele><time>2026-04-18T07:41:49.999Z</time></trkpt><trkpt lat="46.19144487142009" lon="13.12024858093445"><ele>165.0</ele><time>2026-04-18T07:41:50.999Z</time></trkpt><trkpt lat="46.19176599858429" lon="13.120295647297112"><ele>165.0</ele><time>2026-04-18T07:41:51.999Z</time></trkpt><trkpt lat="46.19208649062042" lon="13.120355104271129"><ele>165.0</ele><time>2026-04-18T07:41:52.999Z</time></trkpt><trkpt lat="46.192403435659706" lon="13.12040621441019"><ele>165.5</ele><time>2026-04-18T07:41:53.999Z</time></trkpt><trkpt lat="46.19271387517177" lon="13.120481425746815"><ele>166.0</ele><time>2026-04-18T07:41:54.999Z</time></trkpt><trkpt lat="46.19301853351118" lon="13.120553653959279"><ele>167.0</ele><time>2026-04-18T07:41:55.999Z</time></trkpt><trkpt lat="46.193316207075156" lon="13.120621257972457"><ele>168.0</ele><time>2026-04-18T07:41:56.999Z</time></trkpt><trkpt lat="46.193607588958194" lon="13.12068729715427"><ele>167.5</ele><time>2026-04-18T07:41:57.999Z</time></trkpt><trkpt lat="46.1938934885856" lon="13.12075637327538"><ele>167.0</ele><time>2026-04-18T07:41:58.999Z</time></trkpt><trkpt lat="46.19417317082282" lon="13.120820089758263"><ele>167.0</ele><time>2026-04-18T07:41:59.999Z</time></trkpt><trkpt lat="46.194448720773224" lon="13.120879952964154"><ele>167.0</ele><time>2026-04-18T07:42:00.999Z</time></trkpt><trkpt lat="46.19471811762912" lon="13.12093895726341"><ele>168.5</ele><time>2026-04-18T07:42:01.999Z</time></trkpt><trkpt lat="46.19497919723431" lon="13.120997629472289"><ele>170.0</ele><time>2026-04-18T07:42:02.999Z</time></trkpt><trkpt lat="46.1952325468792" lon="13.121056226069445"><ele>170.0</ele><time>2026-04-18T07:42:03.999Z</time></trkpt><trkpt lat="46.19548039252486" lon="13.121114243941689"><ele>170.0</ele><time>2026-04-18T07:42:04.999Z</time></trkpt><trkpt lat="46.1957219699329" lon="13.121167905612628"><ele>172.5</ele><time>2026-04-18T07:42:05.999Z</time></trkpt><trkpt lat="46.19596061956106" lon="13.121221423158177"><ele>175.0</ele><time>2026-04-18T07:42:06.999Z</time></trkpt><trkpt lat="46.19619423981305" lon="13.121273291232793"><ele>175.0</ele><time>2026-04-18T07:42:07.999Z</time></trkpt><trkpt lat="46.19642132911159" lon="13.121325422075733"><ele>175.0</ele><time>2026-04-18T07:42:08.999Z</time></trkpt><trkpt lat="46.196643314188925" lon="13.121380583381377"><ele>176.0</ele><time>2026-04-18T07:42:09.999Z</time></trkpt><trkpt lat="46.196860839822406" lon="13.121432588386254"><ele>177.0</ele><time>2026-04-18T07:42:10.999Z</time></trkpt><trkpt lat="46.19707633727205" lon="13.121482028931057"><ele>178.0</ele><time>2026-04-18T07:42:11.999Z</time></trkpt><trkpt lat="46.197288050572666" lon="13.12152814890151"><ele>176.33333333333334</ele><time>2026-04-18T07:42:12.999Z</time></trkpt><trkpt lat="46.1974951190033" lon="13.121575551515248"><ele>174.66666666666666</ele><time>2026-04-18T07:42:13.999Z</time></trkpt><trkpt lat="46.19769926136073" lon="13.121620603390529"><ele>173.0</ele><time>2026-04-18T07:42:14.999Z</time></trkpt><trkpt lat="46.19790243002122" lon="13.121657349074338"><ele>173.0</ele><time>2026-04-18T07:42:15.999Z</time></trkpt><trkpt lat="46.19810469075946" lon="13.121683145695835"><ele>173.0</ele><time>2026-04-18T07:42:16.999Z</time></trkpt><trkpt lat="46.198305270307664" lon="13.121697601760062"><ele>173.0</ele><time>2026-04-18T07:42:17.999Z</time></trkpt><trkpt lat="46.19850456790412" lon="13.121698220917475"><ele>173.0</ele><time>2026-04-18T07:42:18.999Z</time></trkpt><trkpt lat="46.198703467220966" lon="13.121710084655133"><ele>173.0</ele><time>2026-04-18T07:42:19.999Z</time></trkpt><trkpt lat="46.198898725644796" lon="13.121692642007574"><ele>173.0</ele><time>2026-04-18T07:42:20.999Z</time></trkpt><trkpt lat="46.199092812888374" lon="13.121660092809105"><ele>173.0</ele><time>2026-04-18T07:42:21.999Z</time></trkpt><trkpt lat="46.19928484438525" lon="13.121594717471138"><ele>173.0</ele><time>2026-04-18T07:42:22.999Z</time></trkpt><trkpt lat="46.19947482890401" lon="13.121550671709915"><ele>173.0</ele><time>2026-04-18T07:42:23.999Z</time></trkpt><trkpt lat="46.199653674179544" lon="13.121496160270059"><ele>173.33333333333331</ele><time>2026-04-18T07:42:24.999Z</time></trkpt><trkpt lat="46.1998235116456" lon="13.121432470103183"><ele>173.66666666666666</ele><time>2026-04-18T07:42:25.999Z</time></trkpt><trkpt lat="46.19998773584251" lon="13.121362317745785"><ele>174.0</ele><time>2026-04-18T07:42:26.999Z</time></trkpt><trkpt lat="46.20015078754354" lon="13.121310816611933"><ele>174.66666666666666</ele><time>2026-04-18T07:42:27.999Z</time></trkpt><trkpt lat="46.200302530739734" lon="13.121233749922192"><ele>175.33333333333331</ele><time>2026-04-18T07:42:28.999Z</time></trkpt><trkpt lat="46.20044306571217" lon="13.12113251565802"><ele>176.0</ele><time>2026-04-18T07:42:29.999Z</time></trkpt><trkpt lat="46.20058566259047" lon="13.12105077002709"><ele>176.25</ele><time>2026-04-18T07:42:30.999Z</time></trkpt><trkpt lat="46.200723260060236" lon="13.120962468758458"><ele>176.5</ele><time>2026-04-18T07:42:31.999Z</time></trkpt><trkpt lat="46.200861157290234" lon="13.120891434292146"><ele>176.75</ele><time>2026-04-18T07:42:32.999Z</time></trkpt><trkpt lat="46.20098307780924" lon="13.120775320669228"><ele>177.0</ele><time>2026-04-18T07:42:33.999Z</time></trkpt><trkpt lat="46.201112118734414" lon="13.120681113661337"><ele>177.33333333333334</ele><time>2026-04-18T07:42:34.999Z</time></trkpt><trkpt lat="46.20123879939723" lon="13.120573404203501"><ele>177.66666666666669</ele><time>2026-04-18T07:42:35.999Z</time></trkpt><trkpt lat="46.201374265886486" lon="13.12047735880245"><ele>178.0</ele><time>2026-04-18T07:42:36.999Z</time></trkpt><trkpt lat="46.20149548432477" lon="13.120338788596147"><ele>178.0</ele><time>2026-04-18T07:42:37.999Z</time></trkpt><trkpt lat="46.20161989527067" lon="13.12021984381379"><ele>178.0</ele><time>2026-04-18T07:42:38.999Z</time></trkpt><trkpt lat="46.201734149225295" lon="13.120097681382322"><ele>178.0</ele><time>2026-04-18T07:42:39.999Z</time></trkpt><trkpt lat="46.20184798515693" lon="13.119998458534369"><ele>178.0</ele><time>2026-04-18T07:42:40.999Z</time></trkpt><trkpt lat="46.201945259668406" lon="13.119885562592236"><ele>178.0</ele><time>2026-04-18T07:42:41.999Z</time></trkpt><trkpt lat="46.202031312649424" lon="13.119778815731069"><ele>178.0</ele><time>2026-04-18T07:42:42.999Z</time></trkpt><trkpt lat="46.20209815706166" lon="13.119659736403936"><ele>178.0</ele><time>2026-04-18T07:42:43.999Z</time></trkpt><trkpt lat="46.202169227420995" lon="13.119570534162412"><ele>178.0</ele><time>2026-04-18T07:42:44.999Z</time></trkpt><trkpt lat="46.2022284144785" lon="13.11949178266254"><ele>178.0</ele><time>2026-04-18T07:42:45.999Z</time></trkpt><trkpt lat="46.20228190692171" lon="13.11942383633095"><ele>177.60000000000002</ele><time>2026-04-18T07:42:47Z</time></trkpt><trkpt lat="46.202374127520116" lon="13.119311667577835"><ele>177.20000000000002</ele><time>2026-04-18T07:42:49Z</time></trkpt><trkpt lat="46.20248608962525" lon="13.119232936423485"><ele>176.8</ele><time>2026-04-18T07:42:51Z</time></trkpt><trkpt lat="46.20256413849553" lon="13.119242031273423"><ele>176.4</ele><time>2026-04-18T07:42:52Z</time></trkpt><trkpt lat="46.20263834741859" lon="13.119283159490296"><ele>176.0</ele><time>2026-04-18T07:42:53Z</time></trkpt><trkpt lat="46.202692793514295" lon="13.119348615334241"><ele>176.0</ele><time>2026-04-18T07:42:54Z</time></trkpt><trkpt lat="46.20273692212062" lon="13.119416336829232"><ele>176.0</ele><time>2026-04-18T07:42:55Z</time></trkpt><trkpt lat="46.202805288981835" lon="13.11955430949494"><ele>176.0</ele><time>2026-04-18T07:42:57Z</time></trkpt><trkpt lat="46.20288482763425" lon="13.119703104346128"><ele>176.0</ele><time>2026-04-18T07:42:59Z</time></trkpt><trkpt lat="46.202929874041104" lon="13.119791826620633"><ele>176.0</ele><time>2026-04-18T07:43:00Z</time></trkpt><trkpt lat="46.20297946204692" lon="13.119882334440566"><ele>175.60000000000002</ele><time>2026-04-18T07:43:01Z</time></trkpt><trkpt lat="46.2030351685455" lon="13.119971458172577"><ele>175.2</ele><time>2026-04-18T07:43:02Z</time></trkpt><trkpt lat="46.20309088822326" lon="13.12007272703947"><ele>174.8</ele><time>2026-04-18T07:43:03Z</time></trkpt><trkpt lat="46.20315127403442" lon="13.120180342926906"><ele>174.39999999999998</ele><time>2026-04-18T07:43:04Z</time></trkpt><trkpt lat="46.20321494952527" lon="13.120287088215305"><ele>174.0</ele><time>2026-04-18T07:43:05Z</time></trkpt><trkpt lat="46.2032704408077" lon="13.120389551098077"><ele>174.0</ele><time>2026-04-18T07:43:06Z</time></trkpt><trkpt lat="46.20332005800528" lon="13.120489276394247"><ele>174.0</ele><time>2026-04-18T07:43:07Z</time></trkpt><trkpt lat="46.20336583078859" lon="13.12057610521962"><ele>174.0</ele><time>2026-04-18T07:43:08Z</time></trkpt><trkpt lat="46.20340958962252" lon="13.120652167076237"><ele>174.0</ele><time>2026-04-18T07:43:09Z</time></trkpt><trkpt lat="46.20348329960079" lon="13.120766682782397"><ele>174.0</ele><time>2026-04-18T07:43:11Z</time></trkpt><trkpt lat="46.20355047782378" lon="13.120753921294357"><ele>174.0</ele><time>2026-04-18T07:43:13Z</time></trkpt><trkpt lat="46.20360061267049" lon="13.120680067610893"><ele>174.0</ele><time>2026-04-18T07:43:16Z</time></trkpt><trkpt lat="46.203542643991085" lon="13.12062831127828"><ele>174.0</ele><time>2026-04-18T07:45:35.999Z</time></trkpt><trkpt lat="46.20350184323132" lon="13.12054728824885"><ele>174.0</ele><time>2026-04-18T07:45:43.999Z</time></trkpt><trkpt lat="46.2034293197546" lon="13.120491121805218"><ele>174.0</ele><time>2026-04-18T07:45:46.999Z</time></trkpt><trkpt lat="46.20337806044748" lon="13.120417506996148"><ele>174.0</ele><time>2026-04-18T07:45:49.999Z</time></trkpt><trkpt lat="46.20332612326265" lon="13.120347009260247"><ele>174.0</ele><time>2026-04-18T07:45:53.999Z</time></trkpt><trkpt lat="46.20319702701996" lon="13.120245321455753"><ele>174.0</ele><time>2026-04-18T07:46:01.999Z</time></trkpt><trkpt lat="46.203156699365" lon="13.120155750982548"><ele>174.0</ele><time>2026-04-18T07:46:02.999Z</time></trkpt><trkpt lat="46.20310594056466" lon="13.120055235614792"><ele>174.0</ele><time>2026-04-18T07:46:03.999Z</time></trkpt><trkpt lat="46.20305654589423" lon="13.119968347427791"><ele>174.0</ele><time>2026-04-18T07:46:04.999Z</time></trkpt><trkpt lat="46.20300916009671" lon="13.119851627697654"><ele>174.0</ele><time>2026-04-18T07:46:06.999Z</time></trkpt><trkpt lat="46.20302141325914" lon="13.119730094118003"><ele>174.0</ele><time>2026-04-18T07:46:09.999Z</time></trkpt><trkpt lat="46.20297067610188" lon="13.11958985133857"><ele>176.0</ele><time>2026-04-18T07:46:11.999Z</time></trkpt><trkpt lat="46.2029414143253" lon="13.119507389662509"><ele>176.0</ele><time>2026-04-18T07:46:12.999Z</time></trkpt><trkpt lat="46.20287347182505" lon="13.119381307475265"><ele>176.0</ele><time>2026-04-18T07:46:14.999Z</time></trkpt><trkpt lat="46.20286325684039" lon="13.119255925677047"><ele>176.0</ele><time>2026-04-18T07:46:16.999Z</time></trkpt><trkpt lat="46.202878828517456" lon="13.11916449384654"><ele>176.0</ele><time>2026-04-18T07:46:18.999Z</time></trkpt><trkpt lat="46.20280046618733" lon="13.119151461668244"><ele>176.0</ele><time>2026-04-18T07:46:21.999Z</time></trkpt></trkseg><trkseg><trkpt lat="46.20272931895285" lon="13.119357031906718"><ele>176.0</ele><time>2026-04-18T08:11:50.603Z</time></trkpt><trkpt lat="46.20276336497875" lon="13.119276590588735"><ele>176.0</ele><time>2026-04-18T08:11:53.603Z</time></trkpt><trkpt lat="46.20279392911203" lon="13.11918488932805"><ele>176.0</ele><time>2026-04-18T08:11:55.603Z</time></trkpt><trkpt lat="46.202852947581476" lon="13.119271076445534"><ele>176.0</ele><time>2026-04-18T08:12:51Z</time></trkpt><trkpt lat="46.20287531364841" lon="13.11937068395383"><ele>176.0</ele><time>2026-04-18T08:12:53Z</time></trkpt><trkpt lat="46.2029092868517" lon="13.11948617791188"><ele>176.0</ele><time>2026-04-18T08:12:57Z</time></trkpt><trkpt lat="46.202946620789" lon="13.119560718960962"><ele>176.0</ele><time>2026-04-18T08:12:59Z</time></trkpt><trkpt lat="46.20299036922872" lon="13.119634172527254"><ele>176.0</ele><time>2026-04-18T08:13:02Z</time></trkpt><trkpt lat="46.203009813779296" lon="13.11973313204555"><ele>176.0</ele><time>2026-04-18T08:13:10Z</time></trkpt><trkpt lat="46.20297661735095" lon="13.119815250693264"><ele>176.0</ele><time>2026-04-18T08:14:33Z</time></trkpt><trkpt lat="46.20303520052017" lon="13.119976307849377"><ele>176.0</ele><time>2026-04-18T08:14:35Z</time></trkpt><trkpt lat="46.20309439744316" lon="13.120071413417683"><ele>176.0</ele><time>2026-04-18T08:14:36Z</time></trkpt><trkpt lat="46.20316169780306" lon="13.120205919190612"><ele>175.60000000000002</ele><time>2026-04-18T08:14:37Z</time></trkpt><trkpt lat="46.20324778328651" lon="13.120353393397787"><ele>175.2</ele><time>2026-04-18T08:14:38Z</time></trkpt><trkpt lat="46.20330887652779" lon="13.120466232886875"><ele>174.8</ele><time>2026-04-18T08:14:39Z</time></trkpt><trkpt lat="46.20335581896808" lon="13.12055743319167"><ele>174.39999999999998</ele><time>2026-04-18T08:14:40Z</time></trkpt><trkpt lat="46.203437353646244" lon="13.120703374320264"><ele>174.0</ele><time>2026-04-18T08:14:42Z</time></trkpt><trkpt lat="46.203494372327945" lon="13.120804362713532"><ele>174.0</ele><time>2026-04-18T08:14:43Z</time></trkpt><trkpt lat="46.20355772151604" lon="13.120923059297299"><ele>174.0</ele><time>2026-04-18T08:14:44Z</time></trkpt><trkpt lat="46.203625744096065" lon="13.121063194810933"><ele>174.0</ele><time>2026-04-18T08:14:45Z</time></trkpt><trkpt lat="46.2037022355852" lon="13.121213387115263"><ele>174.0</ele><time>2026-04-18T08:14:46Z</time></trkpt><trkpt lat="46.203790232206174" lon="13.121381729152585"><ele>174.0</ele><time>2026-04-18T08:14:47Z</time></trkpt><trkpt lat="46.20388682838691" lon="13.121549089007242"><ele>174.0</ele><time>2026-04-18T08:14:48Z</time></trkpt><trkpt lat="46.203992686825764" lon="13.121741712419078"><ele>174.0</ele><time>2026-04-18T08:14:49Z</time></trkpt><trkpt lat="46.20409983644239" lon="13.121956119781157"><ele>175.66666666666666</ele><time>2026-04-18T08:14:50Z</time></trkpt><trkpt lat="46.20419376151313" lon="13.12218934510952"><ele>177.33333333333331</ele><time>2026-04-18T08:14:51Z</time></trkpt><trkpt lat="46.20429390763945" lon="13.122415404030125"><ele>179.0</ele><time>2026-04-18T08:14:52Z</time></trkpt><trkpt lat="46.2043692546406" lon="13.122655797510077"><ele>179.25</ele><time>2026-04-18T08:14:53Z</time></trkpt><trkpt lat="46.20442623758199" lon="13.122883232650684"><ele>179.5</ele><time>2026-04-18T08:14:54Z</time></trkpt><trkpt lat="46.20447073646827" lon="13.123062272597785"><ele>179.75</ele><time>2026-04-18T08:14:55Z</time></trkpt><trkpt lat="46.20450762362818" lon="13.123217290998822"><ele>180.0</ele><time>2026-04-18T08:14:56Z</time></trkpt><trkpt lat="46.2045579105956" lon="13.123363972698172"><ele>181.0</ele><time>2026-04-18T08:14:57Z</time></trkpt><trkpt lat="46.204618826834704" lon="13.123492192320729"><ele>182.0</ele><time>2026-04-18T08:14:58Z</time></trkpt><trkpt lat="46.20470181727546" lon="13.123594919016082"><ele>183.0</ele><time>2026-04-18T08:14:59Z</time></trkpt><trkpt lat="46.20479906286983" lon="13.123673305140139"><ele>184.0</ele><time>2026-04-18T08:15:00Z</time></trkpt><trkpt lat="46.20491104177995" lon="13.123743464195925"><ele>185.2</ele><time>2026-04-18T08:15:01Z</time></trkpt><trkpt lat="46.20502967062028" lon="13.123819490010426"><ele>186.39999999999998</ele><time>2026-04-18T08:15:02Z</time></trkpt><trkpt lat="46.20513354011416" lon="13.123870174984528"><ele>187.6</ele><time>2026-04-18T08:15:03Z</time></trkpt><trkpt lat="46.205217316253076" lon="13.123938643552602"><ele>188.8</ele><time>2026-04-18T08:15:04Z</time></trkpt><trkpt lat="46.205296310524034" lon="13.124006481945951"><ele>190.0</ele><time>2026-04-18T08:15:05Z</time></trkpt><trkpt lat="46.2053786990651" lon="13.124064159632226"><ele>190.4</ele><time>2026-04-18T08:15:06Z</time></trkpt><trkpt lat="46.20548201945029" lon="13.124122860353717"><ele>190.8</ele><time>2026-04-18T08:15:07Z</time></trkpt><trkpt lat="46.20559191660577" lon="13.12419065819296"><ele>191.2</ele><time>2026-04-18T08:15:08Z</time></trkpt><trkpt lat="46.20568906373682" lon="13.124237705895986"><ele>191.6</ele><time>2026-04-18T08:15:09Z</time></trkpt><trkpt lat="46.20578139003341" lon="13.12428006553217"><ele>192.0</ele><time>2026-04-18T08:15:10Z</time></trkpt><trkpt lat="46.20587247854517" lon="13.124331251718221"><ele>192.8</ele><time>2026-04-18T08:15:11Z</time></trkpt><trkpt lat="46.20596198011842" lon="13.12437712708489"><ele>193.6</ele><time>2026-04-18T08:15:12Z</time></trkpt><trkpt lat="46.20604765448216" lon="13.124417972518446"><ele>194.4</ele><time>2026-04-18T08:15:13Z</time></trkpt><trkpt lat="46.20613577184123" lon="13.124460401301794"><ele>195.20000000000002</ele><time>2026-04-18T08:15:14Z</time></trkpt><trkpt lat="46.206228768568444" lon="13.124507521201773"><ele>196.0</ele><time>2026-04-18T08:15:15Z</time></trkpt><trkpt lat="46.2063223093216" lon="13.124554224457631"><ele>196.0</ele><time>2026-04-18T08:15:16Z</time></trkpt><trkpt lat="46.20641859810858" lon="13.124600450393817"><ele>196.0</ele><time>2026-04-18T08:15:17Z</time></trkpt><trkpt lat="46.20651766931035" lon="13.124652821835834"><ele>196.0</ele><time>2026-04-18T08:15:18Z</time></trkpt><trkpt lat="46.20661495588624" lon="13.124706638870196"><ele>196.0</ele><time>2026-04-18T08:15:19Z</time></trkpt><trkpt lat="46.206702182680715" lon="13.124751960545256"><ele>196.0</ele><time>2026-04-18T08:15:20Z</time></trkpt><trkpt lat="46.20677848054815" lon="13.124792772799113"><ele>196.33333333333331</ele><time>2026-04-18T08:15:21Z</time></trkpt><trkpt lat="46.206849073185154" lon="13.124836529569155"><ele>196.66666666666666</ele><time>2026-04-18T08:15:22Z</time></trkpt><trkpt lat="46.20691927418506" lon="13.1248850706389"><ele>197.0</ele><time>2026-04-18T08:15:23Z</time></trkpt><trkpt lat="46.20697614194121" lon="13.124958570749227"><ele>197.33333333333331</ele><time>2026-04-18T08:15:24Z</time></trkpt><trkpt lat="46.20702714074026" lon="13.125017352541564"><ele>197.66666666666666</ele><time>2026-04-18T08:15:25Z</time></trkpt><trkpt lat="46.20711465908043" lon="13.125095025717231"><ele>198.0</ele><time>2026-04-18T08:15:27Z</time></trkpt><trkpt lat="46.20717651624364" lon="13.125178311903083"><ele>198.0</ele><time>2026-04-18T08:15:29Z</time></trkpt><trkpt lat="46.20723861231653" lon="13.125260101225013"><ele>198.0</ele><time>2026-04-18T08:15:31Z</time></trkpt><trkpt lat="46.207293127164284" lon="13.12533756474683"><ele>198.0</ele><time>2026-04-18T08:15:34Z</time></trkpt><trkpt lat="46.20732096562317" lon="13.125462695868675"><ele>198.0</ele><time>2026-04-18T08:15:36Z</time></trkpt><trkpt lat="46.20735443368299" lon="13.125540291714502"><ele>198.0</ele><time>2026-04-18T08:15:37Z</time></trkpt><trkpt lat="46.20740141428487" lon="13.125703689364128"><ele>198.0</ele><time>2026-04-18T08:15:39Z</time></trkpt><trkpt lat="46.20738934633676" lon="13.125799766829036"><ele>198.2</ele><time>2026-04-18T08:15:40Z</time></trkpt><trkpt lat="46.20738443130771" lon="13.125908472000448"><ele>198.4</ele><time>2026-04-18T08:15:41Z</time></trkpt><trkpt lat="46.20737167851771" lon="13.12602215353585"><ele>198.6</ele><time>2026-04-18T08:15:42Z</time></trkpt><trkpt lat="46.207357435137" lon="13.126159424620802"><ele>198.79999999999998</ele><time>2026-04-18T08:15:43Z</time></trkpt><trkpt lat="46.207339840046" lon="13.126316007473063"><ele>199.0</ele><time>2026-04-18T08:15:44Z</time></trkpt><trkpt lat="46.20731815859213" lon="13.126492028898419"><ele>200.39999999999998</ele><time>2026-04-18T08:15:45Z</time></trkpt><trkpt lat="46.20730896710699" lon="13.126664937652597"><ele>201.8</ele><time>2026-04-18T08:15:46Z</time></trkpt><trkpt lat="46.20730795912314" lon="13.126826516622758"><ele>203.2</ele><time>2026-04-18T08:15:47Z</time></trkpt><trkpt lat="46.207308391381645" lon="13.12697719560574"><ele>204.60000000000002</ele><time>2026-04-18T08:15:48Z</time></trkpt><trkpt lat="46.207310685820964" lon="13.127133722524299"><ele>206.0</ele><time>2026-04-18T08:15:49Z</time></trkpt><trkpt lat="46.20731538766336" lon="13.127298760983223"><ele>206.33333333333334</ele><time>2026-04-18T08:15:50Z</time></trkpt><trkpt lat="46.20731879819164" lon="13.12752528060144"><ele>206.66666666666669</ele><time>2026-04-18T08:15:51Z</time></trkpt><trkpt lat="46.20733290232778" lon="13.127858666123588"><ele>207.0</ele><time>2026-04-18T08:15:52Z</time></trkpt><trkpt lat="46.20735329739856" lon="13.12818110058079"><ele>208.0</ele><time>2026-04-18T08:15:53Z</time></trkpt><trkpt lat="46.20736692237123" lon="13.128429240059086"><ele>209.0</ele><time>2026-04-18T08:15:54Z</time></trkpt><trkpt lat="46.2073797194661" lon="13.128651425079696"><ele>210.0</ele><time>2026-04-18T08:15:55Z</time></trkpt><trkpt lat="46.20739265885674" lon="13.128846802479645"><ele>210.0</ele><time>2026-04-18T08:15:56Z</time></trkpt><trkpt lat="46.20740020028084" lon="13.12904461007844"><ele>210.0</ele><time>2026-04-18T08:15:57Z</time></trkpt><trkpt lat="46.20739879042013" lon="13.129246863735622"><ele>210.0</ele><time>2026-04-18T08:15:58Z</time></trkpt><trkpt lat="46.20737958680316" lon="13.129442590550893"><ele>210.0</ele><time>2026-04-18T08:15:59Z</time></trkpt><trkpt lat="46.2073203763017" lon="13.129645966721942"><ele>211.33333333333331</ele><time>2026-04-18T08:16:00Z</time></trkpt><trkpt lat="46.207269089802516" lon="13.12988192887608"><ele>212.66666666666666</ele><time>2026-04-18T08:16:01Z</time></trkpt><trkpt lat="46.207204899165234" lon="13.130112116367021"><ele>214.0</ele><time>2026-04-18T08:16:02Z</time></trkpt><trkpt lat="46.20712560090209" lon="13.130325627859975"><ele>214.0</ele><time>2026-04-18T08:16:03Z</time></trkpt><trkpt lat="46.20700524933278" lon="13.130542773314964"><ele>214.0</ele><time>2026-04-18T08:16:04Z</time></trkpt><trkpt lat="46.20689436055763" lon="13.130781815578352"><ele>214.0</ele><time>2026-04-18T08:16:05Z</time></trkpt><trkpt lat="46.20679590029186" lon="13.131008265962086"><ele>210.33333333333331</ele><time>2026-04-18T08:16:06Z</time></trkpt><trkpt lat="46.20671629498888" lon="13.131214180163942"><ele>206.66666666666669</ele><time>2026-04-18T08:16:07Z</time></trkpt><trkpt lat="46.206651082046065" lon="13.131419935883404"><ele>203.0</ele><time>2026-04-18T08:16:08Z</time></trkpt><trkpt lat="46.20659568056714" lon="13.131632780399524"><ele>202.0</ele><time>2026-04-18T08:16:09Z</time></trkpt><trkpt lat="46.20654915631762" lon="13.13184157064015"><ele>201.0</ele><time>2026-04-18T08:16:10Z</time></trkpt><trkpt lat="46.20650467706146" lon="13.13204669320747"><ele>200.0</ele><time>2026-04-18T08:16:11Z</time></trkpt><trkpt lat="46.20646552442526" lon="13.132279246812463"><ele>202.66666666666669</ele><time>2026-04-18T08:16:12Z</time></trkpt><trkpt lat="46.206432946084654" lon="13.13251902501297"><ele>205.33333333333331</ele><time>2026-04-18T08:16:13Z</time></trkpt><trkpt lat="46.206403333991574" lon="13.132752703368574"><ele>208.0</ele><time>2026-04-18T08:16:14Z</time></trkpt><trkpt lat="46.206373031391706" lon="13.13296749593358"><ele>208.0</ele><time>2026-04-18T08:16:15Z</time></trkpt><trkpt lat="46.206349046639914" lon="13.133182924708995"><ele>208.0</ele><time>2026-04-18T08:16:16Z</time></trkpt><trkpt lat="46.206328047867295" lon="13.133394891596573"><ele>208.0</ele><time>2026-04-18T08:16:17Z</time></trkpt><trkpt lat="46.206306546668856" lon="13.133613028177576"><ele>204.5</ele><time>2026-04-18T08:16:18Z</time></trkpt><trkpt lat="46.206283872348585" lon="13.133833623152974"><ele>201.0</ele><time>2026-04-18T08:16:19Z</time></trkpt><trkpt lat="46.20627314861054" lon="13.134045734570627"><ele>197.5</ele><time>2026-04-18T08:16:20Z</time></trkpt><trkpt lat="46.206283585100515" lon="13.134245380785016"><ele>194.0</ele><time>2026-04-18T08:16:21Z</time></trkpt><trkpt lat="46.20630939843655" lon="13.13443731318775"><ele>192.66666666666669</ele><time>2026-04-18T08:16:22Z</time></trkpt><trkpt lat="46.20635294597377" lon="13.134624889865075"><ele>191.33333333333334</ele><time>2026-04-18T08:16:23Z</time></trkpt><trkpt lat="46.20642315218381" lon="13.134818608530788"><ele>190.0</ele><time>2026-04-18T08:16:24Z</time></trkpt><trkpt lat="46.20652150207538" lon="13.13500483871164"><ele>190.0</ele><time>2026-04-18T08:16:25Z</time></trkpt><trkpt lat="46.206635938843384" lon="13.13516759363059"><ele>190.0</ele><time>2026-04-18T08:16:26Z</time></trkpt><trkpt lat="46.20676025930763" lon="13.135319904596134"><ele>190.0</ele><time>2026-04-18T08:16:27Z</time></trkpt><trkpt lat="46.20687712433548" lon="13.135484655622497"><ele>190.0</ele><time>2026-04-18T08:16:28Z</time></trkpt><trkpt lat="46.20699600337531" lon="13.13566379758959"><ele>190.0</ele><time>2026-04-18T08:16:29Z</time></trkpt><trkpt lat="46.20712405079497" lon="13.135844942046056"><ele>190.0</ele><time>2026-04-18T08:16:30Z</time></trkpt><trkpt lat="46.207250603226626" lon="13.13602306346996"><ele>190.0</ele><time>2026-04-18T08:16:31Z</time></trkpt><trkpt lat="46.20737130009608" lon="13.1362075120016"><ele>190.0</ele><time>2026-04-18T08:16:32Z</time></trkpt><trkpt lat="46.20749444638632" lon="13.136393309067566"><ele>190.0</ele><time>2026-04-18T08:16:33Z</time></trkpt><trkpt lat="46.20761547121297" lon="13.136569304393023"><ele>191.0</ele><time>2026-04-18T08:16:34Z</time></trkpt><trkpt lat="46.2077309944497" lon="13.136736119526708"><ele>192.0</ele><time>2026-04-18T08:16:35Z</time></trkpt><trkpt lat="46.20783708363125" lon="13.13689733379647"><ele>193.0</ele><time>2026-04-18T08:16:36Z</time></trkpt><trkpt lat="46.20794139186968" lon="13.137053452203059"><ele>193.0</ele><time>2026-04-18T08:16:37Z</time></trkpt><trkpt lat="46.20805329960486" lon="13.13720415180039"><ele>193.0</ele><time>2026-04-18T08:16:38Z</time></trkpt><trkpt lat="46.208170076768745" lon="13.137359605422882"><ele>193.0</ele><time>2026-04-18T08:16:39Z</time></trkpt><trkpt lat="46.2082881777693" lon="13.137530503363958"><ele>191.33333333333331</ele><time>2026-04-18T08:16:40Z</time></trkpt><trkpt lat="46.208399758137766" lon="13.137709035243255"><ele>189.66666666666666</ele><time>2026-04-18T08:16:41Z</time></trkpt><trkpt lat="46.20851000813832" lon="13.13788232657815"><ele>188.0</ele><time>2026-04-18T08:16:42Z</time></trkpt><trkpt lat="46.20861810461448" lon="13.138056586047984"><ele>189.33333333333331</ele><time>2026-04-18T08:16:43Z</time></trkpt><trkpt lat="46.208721818105154" lon="13.138230862708982"><ele>190.66666666666666</ele><time>2026-04-18T08:16:44Z</time></trkpt><trkpt lat="46.20882090209113" lon="13.138406034431378"><ele>192.0</ele><time>2026-04-18T08:16:45Z</time></trkpt><trkpt lat="46.20892271173593" lon="13.138581789820783"><ele>191.33333333333334</ele><time>2026-04-18T08:16:46Z</time></trkpt><trkpt lat="46.209024593389216" lon="13.138755487979761"><ele>190.66666666666669</ele><time>2026-04-18T08:16:47Z</time></trkpt><trkpt lat="46.20912776002971" lon="13.138939056305452"><ele>190.0</ele><time>2026-04-18T08:16:48Z</time></trkpt><trkpt lat="46.20923317273236" lon="13.139138342412089"><ele>190.0</ele><time>2026-04-18T08:16:49Z</time></trkpt><trkpt lat="46.20934283646601" lon="13.139350417312096"><ele>190.0</ele><time>2026-04-18T08:16:50Z</time></trkpt><trkpt lat="46.20945961916188" lon="13.13957262669935"><ele>190.0</ele><time>2026-04-18T08:16:51Z</time></trkpt><trkpt lat="46.20958239764514" lon="13.139808865382642"><ele>190.0</ele><time>2026-04-18T08:16:52Z</time></trkpt><trkpt lat="46.20971107214503" lon="13.14005329284485"><ele>190.0</ele><time>2026-04-18T08:16:53Z</time></trkpt><trkpt lat="46.20983914572913" lon="13.140297907337445"><ele>190.0</ele><time>2026-04-18T08:16:54Z</time></trkpt><trkpt lat="46.20995617150897" lon="13.140524038567497"><ele>189.66666666666669</ele><time>2026-04-18T08:16:55Z</time></trkpt><trkpt lat="46.21006568039945" lon="13.14073422558833"><ele>189.33333333333334</ele><time>2026-04-18T08:16:56Z</time></trkpt><trkpt lat="46.210167448689305" lon="13.14093543354658"><ele>189.0</ele><time>2026-04-18T08:16:57Z</time></trkpt><trkpt lat="46.21027241234478" lon="13.141141491660639"><ele>189.0</ele><time>2026-04-18T08:16:58Z</time></trkpt><trkpt lat="46.21038078231304" lon="13.141349551122648"><ele>189.0</ele><time>2026-04-18T08:16:59Z</time></trkpt><trkpt lat="46.21049350270583" lon="13.141562283129174"><ele>189.0</ele><time>2026-04-18T08:17:00Z</time></trkpt><trkpt lat="46.21060584941967" lon="13.141777351242498"><ele>188.33333333333334</ele><time>2026-04-18T08:17:01Z</time></trkpt><trkpt lat="46.21071624220529" lon="13.14198595673976"><ele>187.66666666666669</ele><time>2026-04-18T08:17:02Z</time></trkpt><trkpt lat="46.21082593400716" lon="13.142193023456878"><ele>187.0</ele><time>2026-04-18T08:17:03Z</time></trkpt><trkpt lat="46.210931479364625" lon="13.142396266061649"><ele>187.0</ele><time>2026-04-18T08:17:04Z</time></trkpt><trkpt lat="46.211028981025514" lon="13.142602436327401"><ele>187.0</ele><time>2026-04-18T08:17:05Z</time></trkpt><trkpt lat="46.211118954094026" lon="13.142820367504237"><ele>187.0</ele><time>2026-04-18T08:17:06Z</time></trkpt><trkpt lat="46.211202930934455" lon="13.143047746797832"><ele>188.33333333333334</ele><time>2026-04-18T08:17:07Z</time></trkpt><trkpt lat="46.21128742050109" lon="13.143277889039377"><ele>189.66666666666666</ele><time>2026-04-18T08:17:08Z</time></trkpt><trkpt lat="46.21137350846373" lon="13.143513134781081"><ele>191.0</ele><time>2026-04-18T08:17:09Z</time></trkpt><trkpt lat="46.211461366887306" lon="13.143753308223118"><ele>190.66666666666666</ele><time>2026-04-18T08:17:10Z</time></trkpt><trkpt lat="46.2115489127577" lon="13.143991864886882"><ele>190.33333333333334</ele><time>2026-04-18T08:17:11Z</time></trkpt><trkpt lat="46.21163686484815" lon="13.14423043366677"><ele>190.0</ele><time>2026-04-18T08:17:12Z</time></trkpt><trkpt lat="46.21172676913803" lon="13.144472792830102"><ele>189.66666666666669</ele><time>2026-04-18T08:17:13Z</time></trkpt><trkpt lat="46.21181636302688" lon="13.144709181640708"><ele>189.33333333333334</ele><time>2026-04-18T08:17:14Z</time></trkpt><trkpt lat="46.21190360333437" lon="13.144941962896688"><ele>189.0</ele><time>2026-04-18T08:17:15Z</time></trkpt><trkpt lat="46.21199222682531" lon="13.14517585585478"><ele>189.33333333333334</ele><time>2026-04-18T08:17:16Z</time></trkpt><trkpt lat="46.21208081029631" lon="13.145411119148566"><ele>189.66666666666669</ele><time>2026-04-18T08:17:17Z</time></trkpt><trkpt lat="46.21216665333317" lon="13.145644593613536"><ele>190.0</ele><time>2026-04-18T08:17:18Z</time></trkpt><trkpt lat="46.212253610743176" lon="13.145874966985716"><ele>190.33333333333334</ele><time>2026-04-18T08:17:19Z</time></trkpt><trkpt lat="46.212338779531095" lon="13.146103256175865"><ele>190.66666666666666</ele><time>2026-04-18T08:17:20Z</time></trkpt><trkpt lat="46.21242055407261" lon="13.146325659965013"><ele>191.0</ele><time>2026-04-18T08:17:21Z</time></trkpt><trkpt lat="46.21249887433926" lon="13.146540610745827"><ele>190.66666666666666</ele><time>2026-04-18T08:17:22Z</time></trkpt><trkpt lat="46.21257583816188" lon="13.14675037931968"><ele>190.33333333333334</ele><time>2026-04-18T08:17:23Z</time></trkpt><trkpt lat="46.21265220685729" lon="13.146957538749115"><ele>190.0</ele><time>2026-04-18T08:17:24Z</time></trkpt><trkpt lat="46.21272784400704" lon="13.147162843352257"><ele>190.0</ele><time>2026-04-18T08:17:25Z</time></trkpt><trkpt lat="46.2128034552876" lon="13.147366723157777"><ele>190.0</ele><time>2026-04-18T08:17:26Z</time></trkpt><trkpt lat="46.212877991833224" lon="13.147570358462175"><ele>190.0</ele><time>2026-04-18T08:17:27Z</time></trkpt><trkpt lat="46.212951902370015" lon="13.147773340090836"><ele>189.66666666666669</ele><time>2026-04-18T08:17:28Z</time></trkpt><trkpt lat="46.21302531298962" lon="13.147976532332518"><ele>189.33333333333334</ele><time>2026-04-18T08:17:29Z</time></trkpt><trkpt lat="46.213098839462454" lon="13.148178687228373"><ele>189.0</ele><time>2026-04-18T08:17:30Z</time></trkpt><trkpt lat="46.21317382299145" lon="13.148383472078192"><ele>190.33333333333331</ele><time>2026-04-18T08:17:31Z</time></trkpt><trkpt lat="46.21324993076665" lon="13.14858643794368"><ele>191.66666666666666</ele><time>2026-04-18T08:17:32Z</time></trkpt><trkpt lat="46.2133213886698" lon="13.14879229728232"><ele>193.0</ele><time>2026-04-18T08:17:33Z</time></trkpt><trkpt lat="46.21338902042763" lon="13.149006420915198"><ele>192.66666666666666</ele><time>2026-04-18T08:17:34Z</time></trkpt><trkpt lat="46.213453432330525" lon="13.149240051533239"><ele>192.33333333333331</ele><time>2026-04-18T08:17:35Z</time></trkpt><trkpt lat="46.21351412300643" lon="13.149494908986206"><ele>192.0</ele><time>2026-04-18T08:17:36Z</time></trkpt><trkpt lat="46.21356961170546" lon="13.149777946284027"><ele>192.0</ele><time>2026-04-18T08:17:37Z</time></trkpt><trkpt lat="46.21361769915268" lon="13.150081438684383"><ele>192.0</ele><time>2026-04-18T08:17:38Z</time></trkpt><trkpt lat="46.21365063513541" lon="13.15039749424469"><ele>192.0</ele><time>2026-04-18T08:17:39Z</time></trkpt><trkpt lat="46.213669108695264" lon="13.150708153833119"><ele>192.0</ele><time>2026-04-18T08:17:40Z</time></trkpt><trkpt lat="46.2136882684286" lon="13.151019639874905"><ele>192.0</ele><time>2026-04-18T08:17:41Z</time></trkpt><trkpt lat="46.213707330323324" lon="13.151317630423382"><ele>192.0</ele><time>2026-04-18T08:17:42Z</time></trkpt><trkpt lat="46.213727529611155" lon="13.151597519787599"><ele>192.33333333333331</ele><time>2026-04-18T08:17:43Z</time></trkpt><trkpt lat="46.21374904939014" lon="13.151867629765439"><ele>192.66666666666666</ele><time>2026-04-18T08:17:44Z</time></trkpt><trkpt lat="46.213768773341634" lon="13.152127614293743"><ele>193.0</ele><time>2026-04-18T08:17:45Z</time></trkpt><trkpt lat="46.21378540805447" lon="13.15238731114608"><ele>194.0</ele><time>2026-04-18T08:17:46Z</time></trkpt><trkpt lat="46.21380321673178" lon="13.15264062541903"><ele>195.0</ele><time>2026-04-18T08:17:47Z</time></trkpt><trkpt lat="46.21382158896342" lon="13.152890831068563"><ele>196.0</ele><time>2026-04-18T08:17:48Z</time></trkpt><trkpt lat="46.21384041056339" lon="13.153148349254263"><ele>196.66666666666666</ele><time>2026-04-18T08:17:49Z</time></trkpt><trkpt lat="46.21386169245479" lon="13.153419868056174"><ele>197.33333333333331</ele><time>2026-04-18T08:17:50Z</time></trkpt><trkpt lat="46.21387937524806" lon="13.153685324304588"><ele>198.0</ele><time>2026-04-18T08:17:51Z</time></trkpt><trkpt lat="46.21389493646397" lon="13.153947162264446"><ele>198.0</ele><time>2026-04-18T08:17:52Z</time></trkpt><trkpt lat="46.21391189838967" lon="13.15420552630689"><ele>198.0</ele><time>2026-04-18T08:17:53Z</time></trkpt><trkpt lat="46.21393183178227" lon="13.15446559329157"><ele>198.0</ele><time>2026-04-18T08:17:54Z</time></trkpt><trkpt lat="46.21395015457299" lon="13.154726067593593"><ele>198.0</ele><time>2026-04-18T08:17:55Z</time></trkpt><trkpt lat="46.21396580130173" lon="13.154986209891387"><ele>198.0</ele><time>2026-04-18T08:17:56Z</time></trkpt><trkpt lat="46.213985344169" lon="13.155245222171729"><ele>198.0</ele><time>2026-04-18T08:17:57Z</time></trkpt><trkpt lat="46.21400655636429" lon="13.155502397434061"><ele>198.0</ele><time>2026-04-18T08:17:58Z</time></trkpt><trkpt lat="46.21402491033915" lon="13.155760393898506"><ele>198.0</ele><time>2026-04-18T08:17:59Z</time></trkpt><trkpt lat="46.21404053742405" lon="13.156019881286234"><ele>198.0</ele><time>2026-04-18T08:18:00Z</time></trkpt><trkpt lat="46.21405803683061" lon="13.156277855308602"><ele>198.0</ele><time>2026-04-18T08:18:01Z</time></trkpt><trkpt lat="46.214078072770455" lon="13.156533116021796"><ele>198.0</ele><time>2026-04-18T08:18:02Z</time></trkpt><trkpt lat="46.214098233946686" lon="13.156784527519209"><ele>198.0</ele><time>2026-04-18T08:18:03Z</time></trkpt><trkpt lat="46.21411766044227" lon="13.157033545197914"><ele>197.33333333333331</ele><time>2026-04-18T08:18:04Z</time></trkpt><trkpt lat="46.2141398915885" lon="13.157281466229703"><ele>196.66666666666666</ele><time>2026-04-18T08:18:05Z</time></trkpt><trkpt lat="46.21416921135122" lon="13.15753785462737"><ele>196.0</ele><time>2026-04-18T08:18:06Z</time></trkpt><trkpt lat="46.21421233073694" lon="13.157798775202048"><ele>196.0</ele><time>2026-04-18T08:18:07Z</time></trkpt><trkpt lat="46.21425976229847" lon="13.158064659466708"><ele>196.0</ele><time>2026-04-18T08:18:08Z</time></trkpt><trkpt lat="46.21430902386205" lon="13.158332033213032"><ele>196.0</ele><time>2026-04-18T08:18:09Z</time></trkpt><trkpt lat="46.21436317338011" lon="13.158597091143108"><ele>195.66666666666666</ele><time>2026-04-18T08:18:10Z</time></trkpt><trkpt lat="46.214419843669525" lon="13.158858574783947"><ele>195.33333333333331</ele><time>2026-04-18T08:18:11Z</time></trkpt><trkpt lat="46.21447527898811" lon="13.159121733210455"><ele>195.0</ele><time>2026-04-18T08:18:12Z</time></trkpt><trkpt lat="46.21452503232209" lon="13.159384613405173"><ele>195.0</ele><time>2026-04-18T08:18:13Z</time></trkpt><trkpt lat="46.214574693975194" lon="13.159646736866552"><ele>195.0</ele><time>2026-04-18T08:18:14Z</time></trkpt><trkpt lat="46.21462737057786" lon="13.159908373575428"><ele>195.0</ele><time>2026-04-18T08:18:15Z</time></trkpt><trkpt lat="46.21468127197738" lon="13.160166214557588"><ele>195.0</ele><time>2026-04-18T08:18:16Z</time></trkpt><trkpt lat="46.21473429348867" lon="13.160420928130813"><ele>195.0</ele><time>2026-04-18T08:18:17Z</time></trkpt><trkpt lat="46.21478479877217" lon="13.160674104108875"><ele>195.0</ele><time>2026-04-18T08:18:18Z</time></trkpt><trkpt lat="46.21483325571608" lon="13.160923073905439"><ele>195.33333333333331</ele><time>2026-04-18T08:18:19Z</time></trkpt><trkpt lat="46.21488204939223" lon="13.161167322767458"><ele>195.66666666666666</ele><time>2026-04-18T08:18:20Z</time></trkpt><trkpt lat="46.21493480357443" lon="13.161412610181419"><ele>196.0</ele><time>2026-04-18T08:18:21Z</time></trkpt><trkpt lat="46.21499538914269" lon="13.16166496346224"><ele>196.0</ele><time>2026-04-18T08:18:22Z</time></trkpt><trkpt lat="46.21506631706331" lon="13.16191812876186"><ele>196.0</ele><time>2026-04-18T08:18:23Z</time></trkpt><trkpt lat="46.21518037704956" lon="13.162219146734362"><ele>196.0</ele><time>2026-04-18T08:18:24Z</time></trkpt><trkpt lat="46.21530854661248" lon="13.162601684594408"><ele>196.5</ele><time>2026-04-18T08:18:25Z</time></trkpt><trkpt lat="46.21550280416707" lon="13.162990367038244"><ele>197.0</ele><time>2026-04-18T08:18:26Z</time></trkpt><trkpt lat="46.21569295995805" lon="13.163398150789336"><ele>195.5</ele><time>2026-04-18T08:18:27Z</time></trkpt><trkpt lat="46.21589168897009" lon="13.16379581826465"><ele>194.0</ele><time>2026-04-18T08:18:28Z</time></trkpt><trkpt lat="46.21608442737477" lon="13.16416985860042"><ele>193.0</ele><time>2026-04-18T08:18:29Z</time></trkpt><trkpt lat="46.2162753185731" lon="13.164546656560828"><ele>192.0</ele><time>2026-04-18T08:18:30Z</time></trkpt><trkpt lat="46.216471323699444" lon="13.164936300858585"><ele>192.5</ele><time>2026-04-18T08:18:31Z</time></trkpt><trkpt lat="46.21666760249974" lon="13.165319751362569"><ele>193.0</ele><time>2026-04-18T08:18:32Z</time></trkpt><trkpt lat="46.21684731361919" lon="13.16567149779116"><ele>192.5</ele><time>2026-04-18T08:18:33Z</time></trkpt><trkpt lat="46.21701918895326" lon="13.166009122240986"><ele>192.0</ele><time>2026-04-18T08:18:34Z</time></trkpt><trkpt lat="46.21718967210466" lon="13.166340789029908"><ele>194.5</ele><time>2026-04-18T08:18:35Z</time></trkpt><trkpt lat="46.217358184794975" lon="13.166666644318703"><ele>197.0</ele><time>2026-04-18T08:18:36Z</time></trkpt><trkpt lat="46.21752473467991" lon="13.166996061195764"><ele>197.0</ele><time>2026-04-18T08:18:37Z</time></trkpt><trkpt lat="46.21768983782376" lon="13.16733958508184"><ele>197.0</ele><time>2026-04-18T08:18:38Z</time></trkpt><trkpt lat="46.21784700472791" lon="13.16771339800674"><ele>195.0</ele><time>2026-04-18T08:18:39Z</time></trkpt><trkpt lat="46.21798338558534" lon="13.16809107429861"><ele>193.0</ele><time>2026-04-18T08:18:40Z</time></trkpt><trkpt lat="46.21810696191058" lon="13.16847854999771"><ele>194.0</ele><time>2026-04-18T08:18:41Z</time></trkpt><trkpt lat="46.21821564988092" lon="13.168876781929018"><ele>195.0</ele><time>2026-04-18T08:18:42Z</time></trkpt><trkpt lat="46.21831500948667" lon="13.169263390756475"><ele>195.5</ele><time>2026-04-18T08:18:43Z</time></trkpt><trkpt lat="46.21840637124802" lon="13.169615988186477"><ele>196.0</ele><time>2026-04-18T08:18:44Z</time></trkpt><trkpt lat="46.218491915549116" lon="13.169952289342842"><ele>194.0</ele><time>2026-04-18T08:18:45Z</time></trkpt><trkpt lat="46.21857523044701" lon="13.170280779959779"><ele>192.0</ele><time>2026-04-18T08:18:46Z</time></trkpt><trkpt lat="46.2186577197396" lon="13.170603941115214"><ele>192.5</ele><time>2026-04-18T08:18:47Z</time></trkpt><trkpt lat="46.21874123821086" lon="13.170927750752526"><ele>193.0</ele><time>2026-04-18T08:18:48Z</time></trkpt><trkpt lat="46.218826042112404" lon="13.171252651866771"><ele>191.5</ele><time>2026-04-18T08:18:49Z</time></trkpt><trkpt lat="46.21891200831394" lon="13.171578590480156"><ele>190.0</ele><time>2026-04-18T08:18:50Z</time></trkpt><trkpt lat="46.21899821831795" lon="13.171911737099288"><ele>192.0</ele><time>2026-04-18T08:18:51Z</time></trkpt><trkpt lat="46.21908502512322" lon="13.172254783509967"><ele>194.0</ele><time>2026-04-18T08:18:52Z</time></trkpt><trkpt lat="46.219172311822895" lon="13.172598118518446"><ele>194.0</ele><time>2026-04-18T08:18:53Z</time></trkpt><trkpt lat="46.21926391860636" lon="13.172946724187385"><ele>194.0</ele><time>2026-04-18T08:18:54Z</time></trkpt><trkpt lat="46.21935718941373" lon="13.173298584650546"><ele>193.0</ele><time>2026-04-18T08:18:55Z</time></trkpt><trkpt lat="46.21944928192111" lon="13.173658922498852"><ele>192.0</ele><time>2026-04-18T08:18:56Z</time></trkpt><trkpt lat="46.21954366154969" lon="13.174026603167855"><ele>191.0</ele><time>2026-04-18T08:18:57Z</time></trkpt><trkpt lat="46.21963735562592" lon="13.174392544471273"><ele>190.0</ele><time>2026-04-18T08:18:58Z</time></trkpt><trkpt lat="46.21973358436439" lon="13.174749619395369"><ele>191.0</ele><time>2026-04-18T08:18:59Z</time></trkpt><trkpt lat="46.21982345807436" lon="13.175107027124293"><ele>192.0</ele><time>2026-04-18T08:19:00Z</time></trkpt><trkpt lat="46.21991223524895" lon="13.175463533737325"><ele>191.5</ele><time>2026-04-18T08:19:01Z</time></trkpt><trkpt lat="46.21999926849246" lon="13.175805824520559"><ele>191.0</ele><time>2026-04-18T08:19:02Z</time></trkpt><trkpt lat="46.22008535219659" lon="13.176138100707043"><ele>191.0</ele><time>2026-04-18T08:19:03Z</time></trkpt><trkpt lat="46.22016819487554" lon="13.176463101422188"><ele>191.0</ele><time>2026-04-18T08:19:04Z</time></trkpt><trkpt lat="46.220247432181054" lon="13.176775492993121"><ele>191.0</ele><time>2026-04-18T08:19:05Z</time></trkpt><trkpt lat="46.220318607877786" lon="13.177062526193545"><ele>191.0</ele><time>2026-04-18T08:19:06Z</time></trkpt><trkpt lat="46.22037937375716" lon="13.177347880831343"><ele>191.0</ele><time>2026-04-18T08:19:07Z</time></trkpt><trkpt lat="46.22042694179059" lon="13.17762650117381"><ele>191.0</ele><time>2026-04-18T08:19:08Z</time></trkpt><trkpt lat="46.2204597488026" lon="13.177884713374521"><ele>191.0</ele><time>2026-04-18T08:19:09Z</time></trkpt><trkpt lat="46.22047808306618" lon="13.178107003390249"><ele>191.0</ele><time>2026-04-18T08:19:10Z</time></trkpt><trkpt lat="46.2204849006964" lon="13.178295127137156"><ele>191.20000000000002</ele><time>2026-04-18T08:19:11Z</time></trkpt><trkpt lat="46.22048838571554" lon="13.178456885649105"><ele>191.4</ele><time>2026-04-18T08:19:12Z</time></trkpt><trkpt lat="46.2204871086453" lon="13.178611498138185"><ele>191.6</ele><time>2026-04-18T08:19:13Z</time></trkpt><trkpt lat="46.22048103423738" lon="13.178741894444713"><ele>191.8</ele><time>2026-04-18T08:19:14Z</time></trkpt><trkpt lat="46.220472696667834" lon="13.178859001577935"><ele>192.0</ele><time>2026-04-18T08:19:15Z</time></trkpt><trkpt lat="46.22045800482671" lon="13.178962797505578"><ele>192.2</ele><time>2026-04-18T08:19:16Z</time></trkpt><trkpt lat="46.22043331470299" lon="13.179112815579497"><ele>192.39999999999998</ele><time>2026-04-18T08:19:18Z</time></trkpt><trkpt lat="46.22041715132959" lon="13.179213222691818"><ele>192.60000000000002</ele><time>2026-04-18T08:19:22Z</time></trkpt><trkpt lat="46.22041163690122" lon="13.179373053069332"><ele>192.8</ele><time>2026-04-18T08:19:53Z</time></trkpt><trkpt lat="46.2204252543656" lon="13.179508143643726"><ele>193.0</ele><time>2026-04-18T08:19:55Z</time></trkpt><trkpt lat="46.22061850929237" lon="13.17953501652899"><ele>193.16666666666666</ele><time>2026-04-18T08:19:57Z</time></trkpt><trkpt lat="46.22069583415152" lon="13.179508067179592"><ele>193.33333333333331</ele><time>2026-04-18T08:19:58Z</time></trkpt><trkpt lat="46.22077301820835" lon="13.179477484075235"><ele>193.5</ele><time>2026-04-18T08:19:59Z</time></trkpt><trkpt lat="46.22085273542072" lon="13.179440520524432"><ele>193.66666666666669</ele><time>2026-04-18T08:20:00Z</time></trkpt><trkpt lat="46.220931531910566" lon="13.17939784281108"><ele>193.83333333333334</ele><time>2026-04-18T08:20:01Z</time></trkpt><trkpt lat="46.22104006165491" lon="13.179364634212325"><ele>194.0</ele><time>2026-04-18T08:20:03Z</time></trkpt><trkpt lat="46.2211071616746" lon="13.179338598862508"><ele>194.0</ele><time>2026-04-18T08:20:05Z</time></trkpt><trkpt lat="46.22118996068173" lon="13.1792735210562"><ele>194.0</ele><time>2026-04-18T08:20:31Z</time></trkpt><trkpt lat="46.22129843760273" lon="13.179202198174417"><ele>194.0</ele><time>2026-04-18T08:20:33Z</time></trkpt><trkpt lat="46.22138627757054" lon="13.179152378921263"><ele>194.0</ele><time>2026-04-18T08:20:34Z</time></trkpt><trkpt lat="46.22149523768454" lon="13.179098040695267"><ele>194.0</ele><time>2026-04-18T08:20:35Z</time></trkpt><trkpt lat="46.22163006668707" lon="13.179017291624318"><ele>194.0</ele><time>2026-04-18T08:20:36Z</time></trkpt><trkpt lat="46.22179623608332" lon="13.178924546072487"><ele>194.0</ele><time>2026-04-18T08:20:37Z</time></trkpt><trkpt lat="46.221953842154214" lon="13.178840676134564"><ele>194.0</ele><time>2026-04-18T08:20:38Z</time></trkpt><trkpt lat="46.22210829715955" lon="13.178768540409862"><ele>194.0</ele><time>2026-04-18T08:20:39Z</time></trkpt><trkpt lat="46.222248111475224" lon="13.178702201638275"><ele>194.0</ele><time>2026-04-18T08:20:40Z</time></trkpt><trkpt lat="46.22237491250694" lon="13.178661827136446"><ele>194.0</ele><time>2026-04-18T08:20:41Z</time></trkpt><trkpt lat="46.222483606422166" lon="13.178608873684142"><ele>194.0</ele><time>2026-04-18T08:20:42Z</time></trkpt><trkpt lat="46.222590229040705" lon="13.178556929344154"><ele>194.0</ele><time>2026-04-18T08:20:43Z</time></trkpt><trkpt lat="46.22268637327205" lon="13.178485480678221"><ele>194.0</ele><time>2026-04-18T08:20:44Z</time></trkpt><trkpt lat="46.22279575678356" lon="13.178431589326912"><ele>194.0</ele><time>2026-04-18T08:20:45Z</time></trkpt><trkpt lat="46.22291469662212" lon="13.178398855390274"><ele>194.0</ele><time>2026-04-18T08:20:46Z</time></trkpt><trkpt lat="46.22302602169149" lon="13.178344620086092"><ele>194.0</ele><time>2026-04-18T08:20:47Z</time></trkpt><trkpt lat="46.22314731794983" lon="13.17828486545463"><ele>194.0</ele><time>2026-04-18T08:20:48Z</time></trkpt><trkpt lat="46.22327386402203" lon="13.178201270360335"><ele>194.0</ele><time>2026-04-18T08:20:49Z</time></trkpt><trkpt lat="46.22341306267852" lon="13.178141948950703"><ele>194.0</ele><time>2026-04-18T08:20:50Z</time></trkpt><trkpt lat="46.223556617829615" lon="13.1780761411844"><ele>193.33333333333334</ele><time>2026-04-18T08:20:51Z</time></trkpt><trkpt lat="46.22370649860579" lon="13.177994910627168"><ele>192.66666666666669</ele><time>2026-04-18T08:20:52Z</time></trkpt><trkpt lat="46.223850422548864" lon="13.177906918312475"><ele>192.0</ele><time>2026-04-18T08:20:53Z</time></trkpt><trkpt lat="46.22398462501108" lon="13.177813024785884"><ele>191.75</ele><time>2026-04-18T08:20:54Z</time></trkpt><trkpt lat="46.22410979446782" lon="13.177714301141258"><ele>191.5</ele><time>2026-04-18T08:20:55Z</time></trkpt><trkpt lat="46.22423021562534" lon="13.177618123028779"><ele>191.25</ele><time>2026-04-18T08:20:56Z</time></trkpt><trkpt lat="46.22434821210473" lon="13.177515879388663"><ele>191.0</ele><time>2026-04-18T08:20:57Z</time></trkpt><trkpt lat="46.22446672504917" lon="13.177405744210054"><ele>190.66666666666666</ele><time>2026-04-18T08:20:58Z</time></trkpt><trkpt lat="46.224592944206094" lon="13.17727807158953"><ele>190.33333333333334</ele><time>2026-04-18T08:20:59Z</time></trkpt><trkpt lat="46.22471927111238" lon="13.177138022256772"><ele>190.0</ele><time>2026-04-18T08:21:00Z</time></trkpt><trkpt lat="46.224844001848396" lon="13.176999265421776"><ele>190.0</ele><time>2026-04-18T08:21:01Z</time></trkpt><trkpt lat="46.22495977109519" lon="13.176869968741165"><ele>190.0</ele><time>2026-04-18T08:21:02Z</time></trkpt><trkpt lat="46.22507000285423" lon="13.176745933866957"><ele>190.0</ele><time>2026-04-18T08:21:03Z</time></trkpt><trkpt lat="46.225185445815555" lon="13.176622732461434"><ele>190.0</ele><time>2026-04-18T08:21:04Z</time></trkpt><trkpt lat="46.22530131478654" lon="13.17649103022386"><ele>190.0</ele><time>2026-04-18T08:21:05Z</time></trkpt><trkpt lat="46.22541986407975" lon="13.176358876337925"><ele>190.0</ele><time>2026-04-18T08:21:06Z</time></trkpt><trkpt lat="46.22553645663424" lon="13.176233119272819"><ele>190.0</ele><time>2026-04-18T08:21:07Z</time></trkpt><trkpt lat="46.22564754208393" lon="13.176110761972346"><ele>190.0</ele><time>2026-04-18T08:21:08Z</time></trkpt><trkpt lat="46.225757451174054" lon="13.175990987355336"><ele>190.0</ele><time>2026-04-18T08:21:09Z</time></trkpt><trkpt lat="46.22586564597843" lon="13.175872532744402"><ele>190.0</ele><time>2026-04-18T08:21:10Z</time></trkpt><trkpt lat="46.22597214041345" lon="13.175753725966763"><ele>190.0</ele><time>2026-04-18T08:21:11Z</time></trkpt><trkpt lat="46.226082811707315" lon="13.175631629077364"><ele>190.0</ele><time>2026-04-18T08:21:12Z</time></trkpt><trkpt lat="46.22619933856336" lon="13.175504317287013"><ele>190.0</ele><time>2026-04-18T08:21:13Z</time></trkpt><trkpt lat="46.22633616685124" lon="13.175380657827716"><ele>190.0</ele><time>2026-04-18T08:21:14Z</time></trkpt><trkpt lat="46.22646453680322" lon="13.175214501597534"><ele>190.0</ele><time>2026-04-18T08:21:15Z</time></trkpt><trkpt lat="46.22660946807573" lon="13.175058566045672"><ele>190.0</ele><time>2026-04-18T08:21:16Z</time></trkpt><trkpt lat="46.226762843438394" lon="13.174890219417916"><ele>190.0</ele><time>2026-04-18T08:21:17Z</time></trkpt><trkpt lat="46.226913352820766" lon="13.174725166564047"><ele>190.0</ele><time>2026-04-18T08:21:18Z</time></trkpt><trkpt lat="46.227064526463245" lon="13.174553661244106"><ele>190.0</ele><time>2026-04-18T08:21:19Z</time></trkpt><trkpt lat="46.22721012801915" lon="13.174385373661146"><ele>190.0</ele><time>2026-04-18T08:21:20Z</time></trkpt><trkpt lat="46.22735152283369" lon="13.174210761149961"><ele>190.0</ele><time>2026-04-18T08:21:21Z</time></trkpt><trkpt lat="46.227490408834186" lon="13.174028762482612"><ele>190.0</ele><time>2026-04-18T08:21:22Z</time></trkpt><trkpt lat="46.227626168660585" lon="13.173844375175483"><ele>190.0</ele><time>2026-04-18T08:21:23Z</time></trkpt><trkpt lat="46.22775836549981" lon="13.17365831756129"><ele>190.0</ele><time>2026-04-18T08:21:24Z</time></trkpt><trkpt lat="46.22788631605548" lon="13.173471157730734"><ele>190.0</ele><time>2026-04-18T08:21:25Z</time></trkpt><trkpt lat="46.228008799044275" lon="13.173284753516523"><ele>190.0</ele><time>2026-04-18T08:21:26Z</time></trkpt><trkpt lat="46.22812574699844" lon="13.173095396871457"><ele>190.0</ele><time>2026-04-18T08:21:27Z</time></trkpt><trkpt lat="46.22823775824912" lon="13.17290445302761"><ele>189.66666666666669</ele><time>2026-04-18T08:21:28Z</time></trkpt><trkpt lat="46.22834996114223" lon="13.172709321481902"><ele>189.33333333333334</ele><time>2026-04-18T08:21:29Z</time></trkpt><trkpt lat="46.2284623121051" lon="13.172505260780587"><ele>189.0</ele><time>2026-04-18T08:21:30Z</time></trkpt><trkpt lat="46.22857341035823" lon="13.17229676948608"><ele>188.33333333333334</ele><time>2026-04-18T08:21:31Z</time></trkpt><trkpt lat="46.22868278274682" lon="13.172079567633967"><ele>187.66666666666669</ele><time>2026-04-18T08:21:32Z</time></trkpt><trkpt lat="46.228788495649916" lon="13.171859729931834"><ele>187.0</ele><time>2026-04-18T08:21:33Z</time></trkpt><trkpt lat="46.22888940527114" lon="13.171634397980325"><ele>187.66666666666669</ele><time>2026-04-18T08:21:34Z</time></trkpt><trkpt lat="46.2289852678856" lon="13.171404546809635"><ele>188.33333333333334</ele><time>2026-04-18T08:21:35Z</time></trkpt><trkpt lat="46.22907793015911" lon="13.171171585577676"><ele>189.0</ele><time>2026-04-18T08:21:36Z</time></trkpt><trkpt lat="46.22916415539399" lon="13.170930788581979"><ele>188.66666666666666</ele><time>2026-04-18T08:21:37Z</time></trkpt><trkpt lat="46.229244647700135" lon="13.17068667429336"><ele>188.33333333333331</ele><time>2026-04-18T08:21:38Z</time></trkpt><trkpt lat="46.22932407688378" lon="13.170442361562625"><ele>188.0</ele><time>2026-04-18T08:21:39Z</time></trkpt><trkpt lat="46.229398764182484" lon="13.170193829177242"><ele>188.0</ele><time>2026-04-18T08:21:40Z</time></trkpt><trkpt lat="46.22946831766747" lon="13.169939014991133"><ele>188.0</ele><time>2026-04-18T08:21:41Z</time></trkpt><trkpt lat="46.22953661626535" lon="13.16968010539143"><ele>188.0</ele><time>2026-04-18T08:21:42Z</time></trkpt><trkpt lat="46.22960304758327" lon="13.1694192826472"><ele>187.66666666666666</ele><time>2026-04-18T08:21:43Z</time></trkpt><trkpt lat="46.229664531807046" lon="13.169153424057722"><ele>187.33333333333334</ele><time>2026-04-18T08:21:44Z</time></trkpt><trkpt lat="46.229722021347804" lon="13.168872736702415"><ele>187.0</ele><time>2026-04-18T08:21:45Z</time></trkpt><trkpt lat="46.22978383868605" lon="13.168571502495983"><ele>187.5</ele><time>2026-04-18T08:21:46Z</time></trkpt><trkpt lat="46.22985340648234" lon="13.16824322833117"><ele>188.0</ele><time>2026-04-18T08:21:47Z</time></trkpt><trkpt lat="46.22992676948805" lon="13.167897617139593"><ele>187.33333333333331</ele><time>2026-04-18T08:21:48Z</time></trkpt><trkpt lat="46.22999304542648" lon="13.167575475914198"><ele>186.66666666666666</ele><time>2026-04-18T08:21:49Z</time></trkpt><trkpt lat="46.23004897657909" lon="13.167291442561387"><ele>186.0</ele><time>2026-04-18T08:21:50Z</time></trkpt><trkpt lat="46.230103544634595" lon="13.167027631720902"><ele>186.0</ele><time>2026-04-18T08:21:51Z</time></trkpt><trkpt lat="46.230152811516895" lon="13.16677166027152"><ele>186.0</ele><time>2026-04-18T08:21:52Z</time></trkpt><trkpt lat="46.2302010457934" lon="13.16651977660534"><ele>186.0</ele><time>2026-04-18T08:21:53Z</time></trkpt><trkpt lat="46.230252218587495" lon="13.166257525854448"><ele>186.0</ele><time>2026-04-18T08:21:54Z</time></trkpt><trkpt lat="46.23030368094876" lon="13.165991088202963"><ele>186.0</ele><time>2026-04-18T08:21:55Z</time></trkpt><trkpt lat="46.23035348046675" lon="13.165721150855326"><ele>186.0</ele><time>2026-04-18T08:21:56Z</time></trkpt><trkpt lat="46.23040328503158" lon="13.16544169845098"><ele>186.0</ele><time>2026-04-18T08:21:57Z</time></trkpt><trkpt lat="46.230451990583816" lon="13.165161562501448"><ele>186.0</ele><time>2026-04-18T08:21:58Z</time></trkpt><trkpt lat="46.2305019357905" lon="13.16487351803111"><ele>186.0</ele><time>2026-04-18T08:21:59Z</time></trkpt><trkpt lat="46.23055528450631" lon="13.164581473733548"><ele>186.0</ele><time>2026-04-18T08:22:00Z</time></trkpt><trkpt lat="46.23061003561767" lon="13.164302534514471"><ele>186.0</ele><time>2026-04-18T08:22:01Z</time></trkpt><trkpt lat="46.230664603157656" lon="13.16402845711832"><ele>186.0</ele><time>2026-04-18T08:22:02Z</time></trkpt><trkpt lat="46.230715986729585" lon="13.16376298653387"><ele>186.0</ele><time>2026-04-18T08:22:03Z</time></trkpt><trkpt lat="46.23076372541049" lon="13.16350037575394"><ele>186.0</ele><time>2026-04-18T08:22:04Z</time></trkpt><trkpt lat="46.230810086122716" lon="13.163238780868351"><ele>186.0</ele><time>2026-04-18T08:22:05Z</time></trkpt><trkpt lat="46.230857392942916" lon="13.162978340564434"><ele>186.66666666666666</ele><time>2026-04-18T08:22:06Z</time></trkpt><trkpt lat="46.23090592907083" lon="13.162719861792256"><ele>187.33333333333331</ele><time>2026-04-18T08:22:07Z</time></trkpt><trkpt lat="46.230957097984174" lon="13.162455489797855"><ele>188.0</ele><time>2026-04-18T08:22:08Z</time></trkpt><trkpt lat="46.23100732099546" lon="13.162194171188704"><ele>188.0</ele><time>2026-04-18T08:22:09Z</time></trkpt><trkpt lat="46.23105513790816" lon="13.16192970602552"><ele>188.0</ele><time>2026-04-18T08:22:10Z</time></trkpt><trkpt lat="46.2311029477195" lon="13.161667626835404"><ele>188.0</ele><time>2026-04-18T08:22:11Z</time></trkpt><trkpt lat="46.231151534733115" lon="13.161403275541636"><ele>187.66666666666666</ele><time>2026-04-18T08:22:12Z</time></trkpt><trkpt lat="46.23119843922852" lon="13.161137096423214"><ele>187.33333333333334</ele><time>2026-04-18T08:22:13Z</time></trkpt><trkpt lat="46.23124834253667" lon="13.160859961854039"><ele>187.0</ele><time>2026-04-18T08:22:14Z</time></trkpt><trkpt lat="46.23129869633952" lon="13.160573804490442"><ele>187.0</ele><time>2026-04-18T08:22:15Z</time></trkpt><trkpt lat="46.23135239352203" lon="13.160275649008659"><ele>187.0</ele><time>2026-04-18T08:22:16Z</time></trkpt><trkpt lat="46.23140995843475" lon="13.159950067859645"><ele>187.0</ele><time>2026-04-18T08:22:17Z</time></trkpt><trkpt lat="46.23147741206667" lon="13.159587815076138"><ele>187.0</ele><time>2026-04-18T08:22:18Z</time></trkpt><trkpt lat="46.23155074520841" lon="13.15919642739754"><ele>187.0</ele><time>2026-04-18T08:22:19Z</time></trkpt><trkpt lat="46.23162277055963" lon="13.15881203501368"><ele>187.0</ele><time>2026-04-18T08:22:20Z</time></trkpt><trkpt lat="46.231691286388596" lon="13.15844072385968"><ele>187.0</ele><time>2026-04-18T08:22:21Z</time></trkpt><trkpt lat="46.23175470220191" lon="13.158105723084939"><ele>186.66666666666669</ele><time>2026-04-18T08:22:22Z</time></trkpt><trkpt lat="46.23181031685275" lon="13.157796803655303"><ele>186.33333333333334</ele><time>2026-04-18T08:22:23Z</time></trkpt><trkpt lat="46.231862437578414" lon="13.157507680288948"><ele>186.0</ele><time>2026-04-18T08:22:24.001Z</time></trkpt><trkpt lat="46.23191313766045" lon="13.157232376243188"><ele>186.0</ele><time>2026-04-18T08:22:25.001Z</time></trkpt><trkpt lat="46.23196287101744" lon="13.156972431128208"><ele>186.0</ele><time>2026-04-18T08:22:26.001Z</time></trkpt><trkpt lat="46.23200968207587" lon="13.156722951586339"><ele>186.0</ele><time>2026-04-18T08:22:27.001Z</time></trkpt><trkpt lat="46.23205422833692" lon="13.156484026052208"><ele>186.66666666666666</ele><time>2026-04-18T08:22:28.001Z</time></trkpt><trkpt lat="46.23209813984142" lon="13.15624913569037"><ele>187.33333333333331</ele><time>2026-04-18T08:22:29.001Z</time></trkpt><trkpt lat="46.23214393962934" lon="13.15600249575327"><ele>188.0</ele><time>2026-04-18T08:22:30.001Z</time></trkpt><trkpt lat="46.2321906546262" lon="13.155745874425671"><ele>188.0</ele><time>2026-04-18T08:22:31.001Z</time></trkpt><trkpt lat="46.23223811677096" lon="13.155486165801335"><ele>188.0</ele><time>2026-04-18T08:22:32.001Z</time></trkpt><trkpt lat="46.232283565226496" lon="13.15522762947288"><ele>188.0</ele><time>2026-04-18T08:22:33.001Z</time></trkpt><trkpt lat="46.23232874027977" lon="13.15496712319777"><ele>187.0</ele><time>2026-04-18T08:22:34.001Z</time></trkpt><trkpt lat="46.232375074080615" lon="13.154702683717161"><ele>186.0</ele><time>2026-04-18T08:22:35Z</time></trkpt><trkpt lat="46.232423319582004" lon="13.15443385376256"><ele>185.0</ele><time>2026-04-18T08:22:36Z</time></trkpt><trkpt lat="46.23247331139254" lon="13.154160887235623"><ele>185.0</ele><time>2026-04-18T08:22:37Z</time></trkpt><trkpt lat="46.232525460202325" lon="13.153879811876624"><ele>185.0</ele><time>2026-04-18T08:22:38Z</time></trkpt><trkpt lat="46.232578934193945" lon="13.153594848886982"><ele>185.0</ele><time>2026-04-18T08:22:39Z</time></trkpt><trkpt lat="46.23264376153738" lon="13.153298379879024"><ele>184.5</ele><time>2026-04-18T08:22:40Z</time></trkpt><trkpt lat="46.23272822744609" lon="13.152993017834019"><ele>184.0</ele><time>2026-04-18T08:22:41Z</time></trkpt><trkpt lat="46.23282450546169" lon="13.152680165373905"><ele>183.5</ele><time>2026-04-18T08:22:42Z</time></trkpt><trkpt lat="46.23293071248512" lon="13.152349936379638"><ele>183.0</ele><time>2026-04-18T08:22:43Z</time></trkpt><trkpt lat="46.23303806752971" lon="13.152009236524206"><ele>183.5</ele><time>2026-04-18T08:22:44Z</time></trkpt><trkpt lat="46.23314080615616" lon="13.15167962309241"><ele>184.0</ele><time>2026-04-18T08:22:45Z</time></trkpt><trkpt lat="46.23324119896533" lon="13.151361942858527"><ele>184.0</ele><time>2026-04-18T08:22:46Z</time></trkpt><trkpt lat="46.23333937360272" lon="13.151055242407613"><ele>184.0</ele><time>2026-04-18T08:22:47Z</time></trkpt><trkpt lat="46.233433578677605" lon="13.150755321189138"><ele>183.0</ele><time>2026-04-18T08:22:48Z</time></trkpt><trkpt lat="46.23352378873564" lon="13.150459767407636"><ele>182.0</ele><time>2026-04-18T08:22:49Z</time></trkpt><trkpt lat="46.233586291461414" lon="13.150153936771485"><ele>181.0</ele><time>2026-04-18T08:22:50Z</time></trkpt><trkpt lat="46.23364451938234" lon="13.149856841042936"><ele>180.5</ele><time>2026-04-18T08:22:51Z</time></trkpt><trkpt lat="46.23370606758994" lon="13.14956942666031"><ele>180.0</ele><time>2026-04-18T08:22:52Z</time></trkpt><trkpt lat="46.23388629168345" lon="13.149336761017157"><ele>180.33333333333334</ele><time>2026-04-18T08:22:53Z</time></trkpt><trkpt lat="46.23397177050059" lon="13.149073058697681"><ele>180.66666666666669</ele><time>2026-04-18T08:22:54Z</time></trkpt><trkpt lat="46.234056905905014" lon="13.148810425928142"><ele>181.0</ele><time>2026-04-18T08:22:55Z</time></trkpt><trkpt lat="46.23414672889886" lon="13.148537523225324"><ele>181.0</ele><time>2026-04-18T08:22:56Z</time></trkpt><trkpt lat="46.23424205956869" lon="13.148251886208087"><ele>181.0</ele><time>2026-04-18T08:22:57Z</time></trkpt><trkpt lat="46.23434669857961" lon="13.147954174365939"><ele>180.66666666666669</ele><time>2026-04-18T08:22:58Z</time></trkpt><trkpt lat="46.23445376933056" lon="13.1476685577878"><ele>180.33333333333334</ele><time>2026-04-18T08:22:59Z</time></trkpt><trkpt lat="46.23456732817116" lon="13.147394648715865"><ele>180.0</ele><time>2026-04-18T08:23:00Z</time></trkpt><trkpt lat="46.23468954553763" lon="13.147126854302812"><ele>180.0</ele><time>2026-04-18T08:23:01Z</time></trkpt><trkpt lat="46.23481632961756" lon="13.14687210478558"><ele>180.0</ele><time>2026-04-18T08:23:02Z</time></trkpt><trkpt lat="46.23494324457909" lon="13.146626563555587"><ele>180.0</ele><time>2026-04-18T08:23:03Z</time></trkpt><trkpt lat="46.23507003469357" lon="13.146384929734639"><ele>180.0</ele><time>2026-04-18T08:23:04Z</time></trkpt><trkpt lat="46.235202121472554" lon="13.14615065655554"><ele>180.0</ele><time>2026-04-18T08:23:05Z</time></trkpt><trkpt lat="46.23534190256195" lon="13.145921674223782"><ele>180.0</ele><time>2026-04-18T08:23:06Z</time></trkpt><trkpt lat="46.2354883684831" lon="13.145701335084775"><ele>180.0</ele><time>2026-04-18T08:23:07Z</time></trkpt><trkpt lat="46.235636773059426" lon="13.145480329283838"><ele>180.0</ele><time>2026-04-18T08:23:08Z</time></trkpt><trkpt lat="46.235786114503654" lon="13.145252615646335"><ele>180.0</ele><time>2026-04-18T08:23:09Z</time></trkpt><trkpt lat="46.23593970599068" lon="13.145022195711167"><ele>179.0</ele><time>2026-04-18T08:23:10Z</time></trkpt><trkpt lat="46.236093299484246" lon="13.144800545151945"><ele>178.0</ele><time>2026-04-18T08:23:11Z</time></trkpt><trkpt lat="46.2362443485748" lon="13.144581518771052"><ele>177.0</ele><time>2026-04-18T08:23:12Z</time></trkpt><trkpt lat="46.23638737873877" lon="13.14436608895481"><ele>177.33333333333334</ele><time>2026-04-18T08:23:13Z</time></trkpt><trkpt lat="46.23652877274774" lon="13.144157623276675"><ele>177.66666666666669</ele><time>2026-04-18T08:23:14Z</time></trkpt><trkpt lat="46.23667045587001" lon="13.143947456609343"><ele>178.0</ele><time>2026-04-18T08:23:15Z</time></trkpt><trkpt lat="46.23681129804872" lon="13.143740332275497"><ele>178.0</ele><time>2026-04-18T08:23:16Z</time></trkpt><trkpt lat="46.236951811660205" lon="13.143540862495787"><ele>178.0</ele><time>2026-04-18T08:23:17Z</time></trkpt><trkpt lat="46.2370909026373" lon="13.143348021480225"><ele>178.0</ele><time>2026-04-18T08:23:18Z</time></trkpt><trkpt lat="46.23722845072351" lon="13.143159741780988"><ele>179.33333333333334</ele><time>2026-04-18T08:23:19Z</time></trkpt><trkpt lat="46.2373696623544" lon="13.142977550404844"><ele>180.66666666666666</ele><time>2026-04-18T08:23:20Z</time></trkpt><trkpt lat="46.23751971666954" lon="13.142800101608426"><ele>182.0</ele><time>2026-04-18T08:23:21Z</time></trkpt><trkpt lat="46.23767627569339" lon="13.142627632664896"><ele>182.0</ele><time>2026-04-18T08:23:22Z</time></trkpt><trkpt lat="46.23783741242091" lon="13.142460932237704"><ele>182.0</ele><time>2026-04-18T08:23:23Z</time></trkpt><trkpt lat="46.23800552794261" lon="13.142296099155233"><ele>182.0</ele><time>2026-04-18T08:23:24Z</time></trkpt><trkpt lat="46.23818029885883" lon="13.14213477994057"><ele>180.66666666666666</ele><time>2026-04-18T08:23:25Z</time></trkpt><trkpt lat="46.23836021969676" lon="13.141972805707224"><ele>179.33333333333334</ele><time>2026-04-18T08:23:26Z</time></trkpt><trkpt lat="46.238539945064325" lon="13.141812669285894"><ele>178.0</ele><time>2026-04-18T08:23:27Z</time></trkpt><trkpt lat="46.23871846040916" lon="13.141651205976448"><ele>177.33333333333334</ele><time>2026-04-18T08:23:28Z</time></trkpt><trkpt lat="46.2388990682832" lon="13.141485742115346"><ele>176.66666666666666</ele><time>2026-04-18T08:23:29Z</time></trkpt><trkpt lat="46.23908431115669" lon="13.141323395383152"><ele>176.0</ele><time>2026-04-18T08:23:30Z</time></trkpt><trkpt lat="46.23927794084204" lon="13.141152172247265"><ele>176.0</ele><time>2026-04-18T08:23:31Z</time></trkpt><trkpt lat="46.239477073657234" lon="13.140970838517047"><ele>176.0</ele><time>2026-04-18T08:23:32Z</time></trkpt><trkpt lat="46.2396823990736" lon="13.140784798579022"><ele>175.0</ele><time>2026-04-18T08:23:33Z</time></trkpt><trkpt lat="46.2398916526904" lon="13.140596623059972"><ele>174.0</ele><time>2026-04-18T08:23:34Z</time></trkpt><trkpt lat="46.240093142541085" lon="13.140419460309802"><ele>174.0</ele><time>2026-04-18T08:23:35Z</time></trkpt><trkpt lat="46.24028875557573" lon="13.14024560351318"><ele>174.0</ele><time>2026-04-18T08:23:36Z</time></trkpt><trkpt lat="46.24048036348741" lon="13.140073792282708"><ele>174.66666666666666</ele><time>2026-04-18T08:23:37Z</time></trkpt><trkpt lat="46.240672556645485" lon="13.139901984687192"><ele>175.33333333333331</ele><time>2026-04-18T08:23:38Z</time></trkpt><trkpt lat="46.24086090696141" lon="13.139735856100824"><ele>176.0</ele><time>2026-04-18T08:23:39Z</time></trkpt><trkpt lat="46.241045105352015" lon="13.139573901212207"><ele>176.0</ele><time>2026-04-18T08:23:40Z</time></trkpt><trkpt lat="46.24122527812792" lon="13.139413962432752"><ele>176.0</ele><time>2026-04-18T08:23:41Z</time></trkpt><trkpt lat="46.24140175981318" lon="13.139254803817565"><ele>176.0</ele><time>2026-04-18T08:23:42Z</time></trkpt><trkpt lat="46.241577900168885" lon="13.139097418536656"><ele>176.66666666666666</ele><time>2026-04-18T08:23:43Z</time></trkpt><trkpt lat="46.241752548917184" lon="13.138939465832866"><ele>177.33333333333334</ele><time>2026-04-18T08:23:44Z</time></trkpt><trkpt lat="46.24193010596128" lon="13.138778467826423"><ele>178.0</ele><time>2026-04-18T08:23:45Z</time></trkpt><trkpt lat="46.24210741584356" lon="13.138613535547767"><ele>178.0</ele><time>2026-04-18T08:23:46Z</time></trkpt><trkpt lat="46.24228365012311" lon="13.13842872486714"><ele>178.0</ele><time>2026-04-18T08:23:47Z</time></trkpt><trkpt lat="46.2424568999452" lon="13.138219075020762"><ele>178.0</ele><time>2026-04-18T08:23:48Z</time></trkpt><trkpt lat="46.24262535976408" lon="13.137990054095537"><ele>177.5</ele><time>2026-04-18T08:23:49Z</time></trkpt><trkpt lat="46.24278400794486" lon="13.137751028930404"><ele>177.0</ele><time>2026-04-18T08:23:50Z</time></trkpt><trkpt lat="46.24293562816522" lon="13.137506119936404"><ele>177.0</ele><time>2026-04-18T08:23:51Z</time></trkpt><trkpt lat="46.2430794474074" lon="13.137257332669968"><ele>177.0</ele><time>2026-04-18T08:23:52Z</time></trkpt><trkpt lat="46.24321505064102" lon="13.137002124073195"><ele>177.0</ele><time>2026-04-18T08:23:53Z</time></trkpt><trkpt lat="46.24332919813725" lon="13.136765800191135"><ele>177.66666666666666</ele><time>2026-04-18T08:23:54Z</time></trkpt><trkpt lat="46.24342833396175" lon="13.136543521064226"><ele>178.33333333333331</ele><time>2026-04-18T08:23:55Z</time></trkpt><trkpt lat="46.24351524688027" lon="13.136330076083937"><ele>179.0</ele><time>2026-04-18T08:23:56Z</time></trkpt><trkpt lat="46.243591840090694" lon="13.136100777227128"><ele>179.0</ele><time>2026-04-18T08:23:57Z</time></trkpt><trkpt lat="46.243658299940364" lon="13.135849560923054"><ele>179.0</ele><time>2026-04-18T08:23:58Z</time></trkpt><trkpt lat="46.24372345573662" lon="13.135587461635298"><ele>179.0</ele><time>2026-04-18T08:23:59Z</time></trkpt><trkpt lat="46.24378611387312" lon="13.135315348472293"><ele>178.33333333333331</ele><time>2026-04-18T08:24:00Z</time></trkpt><trkpt lat="46.24384910470352" lon="13.135028599714051"><ele>177.66666666666666</ele><time>2026-04-18T08:24:01Z</time></trkpt><trkpt lat="46.24391380622925" lon="13.134723314016513"><ele>177.0</ele><time>2026-04-18T08:24:02Z</time></trkpt><trkpt lat="46.24398680701764" lon="13.134394608404707"><ele>177.0</ele><time>2026-04-18T08:24:03Z</time></trkpt><trkpt lat="46.24405970646889" lon="13.134063096903457"><ele>177.0</ele><time>2026-04-18T08:24:04Z</time></trkpt><trkpt lat="46.24413410370901" lon="13.133743755017772"><ele>177.33333333333334</ele><time>2026-04-18T08:24:05Z</time></trkpt><trkpt lat="46.2442101224808" lon="13.133427451174734"><ele>177.66666666666669</ele><time>2026-04-18T08:24:06Z</time></trkpt><trkpt lat="46.24427667017685" lon="13.133135695497469"><ele>178.0</ele><time>2026-04-18T08:24:07Z</time></trkpt><trkpt lat="46.24434014961955" lon="13.132868043932207"><ele>177.33333333333334</ele><time>2026-04-18T08:24:08Z</time></trkpt><trkpt lat="46.244400683697876" lon="13.13261856677923"><ele>176.66666666666666</ele><time>2026-04-18T08:24:09Z</time></trkpt><trkpt lat="46.2444538785042" lon="13.132393683862496"><ele>176.0</ele><time>2026-04-18T08:24:10Z</time></trkpt><trkpt lat="46.24450220772305" lon="13.132188918990837"><ele>175.66666666666666</ele><time>2026-04-18T08:24:11Z</time></trkpt><trkpt lat="46.24454892652261" lon="13.131986741157805"><ele>175.33333333333334</ele><time>2026-04-18T08:24:12Z</time></trkpt><trkpt lat="46.24459787047689" lon="13.131782663027607"><ele>175.0</ele><time>2026-04-18T08:24:13Z</time></trkpt><trkpt lat="46.24464768924102" lon="13.131566261229196"><ele>175.0</ele><time>2026-04-18T08:24:14Z</time></trkpt><trkpt lat="46.244703100307014" lon="13.131328266376082"><ele>175.0</ele><time>2026-04-18T08:24:15Z</time></trkpt><trkpt lat="46.24476405755938" lon="13.131080912287574"><ele>175.0</ele><time>2026-04-18T08:24:16Z</time></trkpt><trkpt lat="46.24482380662556" lon="13.130842299895116"><ele>175.33333333333334</ele><time>2026-04-18T08:24:17Z</time></trkpt><trkpt lat="46.244882908651405" lon="13.130595726878397"><ele>175.66666666666666</ele><time>2026-04-18T08:24:18Z</time></trkpt><trkpt lat="46.244942233481304" lon="13.130341037381381"><ele>176.0</ele><time>2026-04-18T08:24:19Z</time></trkpt><trkpt lat="46.244999505201186" lon="13.13008019178043"><ele>176.0</ele><time>2026-04-18T08:24:20Z</time></trkpt><trkpt lat="46.24505633310049" lon="13.12981663088261"><ele>176.0</ele><time>2026-04-18T08:24:21Z</time></trkpt><trkpt lat="46.24511812259515" lon="13.129541472666544"><ele>176.0</ele><time>2026-04-18T08:24:22Z</time></trkpt><trkpt lat="46.245186903277116" lon="13.129243700880922"><ele>176.5</ele><time>2026-04-18T08:24:23Z</time></trkpt><trkpt lat="46.245263612507706" lon="13.128896832344225"><ele>177.0</ele><time>2026-04-18T08:24:24Z</time></trkpt><trkpt lat="46.24535949133225" lon="13.128471567607553"><ele>178.0</ele><time>2026-04-18T08:24:25Z</time></trkpt><trkpt lat="46.24546998660484" lon="13.127995456030987"><ele>179.0</ele><time>2026-04-18T08:24:26Z</time></trkpt><trkpt lat="46.24558676317764" lon="13.12751730504718"><ele>178.0</ele><time>2026-04-18T08:24:27Z</time></trkpt><trkpt lat="46.245682843643756" lon="13.127106305943792"><ele>177.0</ele><time>2026-04-18T08:24:28Z</time></trkpt><trkpt lat="46.245772161213196" lon="13.126726063718671"><ele>178.0</ele><time>2026-04-18T08:24:29Z</time></trkpt><trkpt lat="46.24585679478823" lon="13.126374370917121"><ele>179.0</ele><time>2026-04-18T08:24:30Z</time></trkpt><trkpt lat="46.24593782335183" lon="13.12606003170022"><ele>179.0</ele><time>2026-04-18T08:24:31Z</time></trkpt><trkpt lat="46.246014824711885" lon="13.125788962192924"><ele>179.0</ele><time>2026-04-18T08:24:32Z</time></trkpt><trkpt lat="46.24608788954418" lon="13.125557375639664"><ele>179.0</ele><time>2026-04-18T08:24:33Z</time></trkpt><trkpt lat="46.246159268387714" lon="13.125347507219193"><ele>178.75</ele><time>2026-04-18T08:24:34Z</time></trkpt><trkpt lat="46.2462273238827" lon="13.125156023379168"><ele>178.5</ele><time>2026-04-18T08:24:35Z</time></trkpt><trkpt lat="46.246290554814614" lon="13.124975350342645"><ele>178.25</ele><time>2026-04-18T08:24:36Z</time></trkpt><trkpt lat="46.24635589126673" lon="13.124795629076448"><ele>178.0</ele><time>2026-04-18T08:24:37Z</time></trkpt><trkpt lat="46.246422911156635" lon="13.124612955199943"><ele>177.25</ele><time>2026-04-18T08:24:38Z</time></trkpt><trkpt lat="46.24648932784767" lon="13.124428725807563"><ele>176.5</ele><time>2026-04-18T08:24:39Z</time></trkpt><trkpt lat="46.246551001731596" lon="13.12425670210473"><ele>175.75</ele><time>2026-04-18T08:24:40Z</time></trkpt><trkpt lat="46.2466147246071" lon="13.124089449692272"><ele>175.0</ele><time>2026-04-18T08:24:41Z</time></trkpt><trkpt lat="46.24668445865298" lon="13.1239247684519"><ele>175.0</ele><time>2026-04-18T08:24:42Z</time></trkpt><trkpt lat="46.24675991694811" lon="13.123764072500466"><ele>175.0</ele><time>2026-04-18T08:24:43Z</time></trkpt><trkpt lat="46.24684663764123" lon="13.123594105141626"><ele>175.0</ele><time>2026-04-18T08:24:44Z</time></trkpt><trkpt lat="46.24694359592951" lon="13.12341894499918"><ele>175.0</ele><time>2026-04-18T08:24:45Z</time></trkpt><trkpt lat="46.247049615075156" lon="13.123245061968824"><ele>175.0</ele><time>2026-04-18T08:24:46Z</time></trkpt><trkpt lat="46.24715669097066" lon="13.12307989739814"><ele>175.0</ele><time>2026-04-18T08:24:47Z</time></trkpt><trkpt lat="46.247263145642606" lon="13.12292080696682"><ele>175.0</ele><time>2026-04-18T08:24:48Z</time></trkpt><trkpt lat="46.24736391394125" lon="13.122772178298154"><ele>175.5</ele><time>2026-04-18T08:24:49Z</time></trkpt><trkpt lat="46.24746372074349" lon="13.122625702306737"><ele>176.0</ele><time>2026-04-18T08:24:50Z</time></trkpt><trkpt lat="46.247563884989034" lon="13.122477920740906"><ele>176.5</ele><time>2026-04-18T08:24:51Z</time></trkpt><trkpt lat="46.24766199698723" lon="13.122332336946968"><ele>177.0</ele><time>2026-04-18T08:24:52Z</time></trkpt><trkpt lat="46.24775894993035" lon="13.122186899471046"><ele>177.0</ele><time>2026-04-18T08:24:53Z</time></trkpt><trkpt lat="46.24785701368247" lon="13.12203970485841"><ele>177.0</ele><time>2026-04-18T08:24:54Z</time></trkpt><trkpt lat="46.24795935879918" lon="13.121889153586968"><ele>177.0</ele><time>2026-04-18T08:24:55Z</time></trkpt><trkpt lat="46.24806486285594" lon="13.12173768609743"><ele>177.0</ele><time>2026-04-18T08:24:56Z</time></trkpt><trkpt lat="46.248172583154414" lon="13.121585173158172"><ele>177.66666666666666</ele><time>2026-04-18T08:24:57Z</time></trkpt><trkpt lat="46.2482797872857" lon="13.121427524316163"><ele>178.33333333333331</ele><time>2026-04-18T08:24:58Z</time></trkpt><trkpt lat="46.24838736341256" lon="13.121272096449434"><ele>179.0</ele><time>2026-04-18T08:24:59Z</time></trkpt><trkpt lat="46.24848896563742" lon="13.121122964901492"><ele>179.0</ele><time>2026-04-18T08:25:00Z</time></trkpt><trkpt lat="46.24858108656626" lon="13.120983915315371"><ele>179.0</ele><time>2026-04-18T08:25:01Z</time></trkpt><trkpt lat="46.24867605904063" lon="13.120842278908531"><ele>179.0</ele><time>2026-04-18T08:25:02Z</time></trkpt><trkpt lat="46.24877061033663" lon="13.120704478753794"><ele>179.0</ele><time>2026-04-18T08:25:03Z</time></trkpt><trkpt lat="46.248864145479004" lon="13.120568850465723"><ele>178.5</ele><time>2026-04-18T08:25:04Z</time></trkpt><trkpt lat="46.248957298359244" lon="13.120432143431144"><ele>178.0</ele><time>2026-04-18T08:25:05Z</time></trkpt><trkpt lat="46.249049886181254" lon="13.120295402930449"><ele>177.5</ele><time>2026-04-18T08:25:06Z</time></trkpt><trkpt lat="46.24914058900918" lon="13.120157592984567"><ele>177.0</ele><time>2026-04-18T08:25:07Z</time></trkpt><trkpt lat="46.249226889290405" lon="13.120029578576776"><ele>177.0</ele><time>2026-04-18T08:25:08Z</time></trkpt><trkpt lat="46.24931157043956" lon="13.119905617052225"><ele>177.0</ele><time>2026-04-18T08:25:09Z</time></trkpt><trkpt lat="46.24939693686975" lon="13.119779142023551"><ele>177.0</ele><time>2026-04-18T08:25:10Z</time></trkpt><trkpt lat="46.24948176938558" lon="13.11965510945962"><ele>177.0</ele><time>2026-04-18T08:25:11Z</time></trkpt><trkpt lat="46.24956746539065" lon="13.119529243302086"><ele>177.0</ele><time>2026-04-18T08:25:12Z</time></trkpt><trkpt lat="46.24965545648475" lon="13.11940222396066"><ele>177.0</ele><time>2026-04-18T08:25:13Z</time></trkpt><trkpt lat="46.24974206470903" lon="13.119273686004906"><ele>177.0</ele><time>2026-04-18T08:25:14Z</time></trkpt><trkpt lat="46.24982921153529" lon="13.119143852393698"><ele>177.0</ele><time>2026-04-18T08:25:15Z</time></trkpt><trkpt lat="46.24991715146493" lon="13.11901483114129"><ele>177.75</ele><time>2026-04-18T08:25:16Z</time></trkpt><trkpt lat="46.250005312755874" lon="13.118881698139075"><ele>178.5</ele><time>2026-04-18T08:25:17Z</time></trkpt><trkpt lat="46.25009272100423" lon="13.118749382543479"><ele>179.25</ele><time>2026-04-18T08:25:18Z</time></trkpt><trkpt lat="46.25017880976973" lon="13.118619455336024"><ele>180.0</ele><time>2026-04-18T08:25:19Z</time></trkpt><trkpt lat="46.250260504175" lon="13.118498131753366"><ele>180.0</ele><time>2026-04-18T08:25:20Z</time></trkpt><trkpt lat="46.25034556826878" lon="13.118370415600134"><ele>180.0</ele><time>2026-04-18T08:25:21Z</time></trkpt><trkpt lat="46.250429266045046" lon="13.118245789367139"><ele>180.0</ele><time>2026-04-18T08:25:22Z</time></trkpt><trkpt lat="46.25050646013563" lon="13.118130255963056"><ele>180.0</ele><time>2026-04-18T08:25:23Z</time></trkpt><trkpt lat="46.250579610083555" lon="13.11802061943406"><ele>180.0</ele><time>2026-04-18T08:25:24Z</time></trkpt><trkpt lat="46.250650749140696" lon="13.117911789108385"><ele>180.0</ele><time>2026-04-18T08:25:25Z</time></trkpt><trkpt lat="46.2507228108227" lon="13.117799879339517"><ele>180.0</ele><time>2026-04-18T08:25:26Z</time></trkpt><trkpt lat="46.250797967159826" lon="13.117687927809564"><ele>180.0</ele><time>2026-04-18T08:25:27Z</time></trkpt><trkpt lat="46.25087189004134" lon="13.117578569359178"><ele>180.0</ele><time>2026-04-18T08:25:28Z</time></trkpt><trkpt lat="46.25094462345512" lon="13.117469486874912"><ele>179.8</ele><time>2026-04-18T08:25:29Z</time></trkpt><trkpt lat="46.25100985081921" lon="13.117375133232848"><ele>179.6</ele><time>2026-04-18T08:25:30Z</time></trkpt><trkpt lat="46.25107260761921" lon="13.117277745850082"><ele>179.39999999999998</ele><time>2026-04-18T08:25:31Z</time></trkpt><trkpt lat="46.251139886774666" lon="13.117174279901835"><ele>179.2</ele><time>2026-04-18T08:25:32Z</time></trkpt><trkpt lat="46.251209381422484" lon="13.11707075325555"><ele>179.0</ele><time>2026-04-18T08:25:33Z</time></trkpt><trkpt lat="46.2512793235923" lon="13.11696797496008"><ele>179.0</ele><time>2026-04-18T08:25:34Z</time></trkpt><trkpt lat="46.251352110851585" lon="13.116859420501692"><ele>179.0</ele><time>2026-04-18T08:25:35Z</time></trkpt><trkpt lat="46.25142436261063" lon="13.116745957463056"><ele>179.0</ele><time>2026-04-18T08:25:36Z</time></trkpt><trkpt lat="46.251497292190145" lon="13.116636136184741"><ele>179.0</ele><time>2026-04-18T08:25:37Z</time></trkpt><trkpt lat="46.25156972500399" lon="13.116526229744457"><ele>179.0</ele><time>2026-04-18T08:25:38Z</time></trkpt><trkpt lat="46.251638525108696" lon="13.116422662871608"><ele>178.66666666666666</ele><time>2026-04-18T08:25:39Z</time></trkpt><trkpt lat="46.251700498342586" lon="13.11633181764259"><ele>178.33333333333331</ele><time>2026-04-18T08:25:40Z</time></trkpt><trkpt lat="46.25175932538593" lon="13.116248631783803"><ele>178.0</ele><time>2026-04-18T08:25:41Z</time></trkpt><trkpt lat="46.251816365903004" lon="13.116166236195003"><ele>177.66666666666666</ele><time>2026-04-18T08:25:42Z</time></trkpt><trkpt lat="46.25186548719383" lon="13.11609715268684"><ele>177.33333333333334</ele><time>2026-04-18T08:25:43Z</time></trkpt><trkpt lat="46.25195005502447" lon="13.11598843081638"><ele>177.0</ele><time>2026-04-18T08:25:45Z</time></trkpt><trkpt lat="46.25206893800968" lon="13.115902000848845"><ele>177.0</ele><time>2026-04-18T08:25:47Z</time></trkpt><trkpt lat="46.25214837804398" lon="13.115853986000907"><ele>177.0</ele><time>2026-04-18T08:25:48Z</time></trkpt><trkpt lat="46.25222983240776" lon="13.115754526543133"><ele>177.0</ele><time>2026-04-18T08:25:49Z</time></trkpt><trkpt lat="46.25229517709641" lon="13.115644038363397"><ele>177.0</ele><time>2026-04-18T08:25:50Z</time></trkpt><trkpt lat="46.25237413598016" lon="13.115541347820562"><ele>177.0</ele><time>2026-04-18T08:25:51Z</time></trkpt><trkpt lat="46.252459923958824" lon="13.115455438939774"><ele>177.2</ele><time>2026-04-18T08:25:52Z</time></trkpt><trkpt lat="46.25254895809065" lon="13.115361992553195"><ele>177.39999999999998</ele><time>2026-04-18T08:25:53Z</time></trkpt><trkpt lat="46.252637517897945" lon="13.115265741147194"><ele>177.60000000000002</ele><time>2026-04-18T08:25:54Z</time></trkpt><trkpt lat="46.25272655590735" lon="13.115172856688167"><ele>177.8</ele><time>2026-04-18T08:25:55Z</time></trkpt><trkpt lat="46.25282123115727" lon="13.115072049116062"><ele>178.0</ele><time>2026-04-18T08:25:56Z</time></trkpt><trkpt lat="46.25291012067575" lon="13.114977804336162"><ele>178.4</ele><time>2026-04-18T08:25:57Z</time></trkpt><trkpt lat="46.25299332866731" lon="13.114893800816724"><ele>178.8</ele><time>2026-04-18T08:25:58Z</time></trkpt><trkpt lat="46.25307452888159" lon="13.114811042016218"><ele>179.2</ele><time>2026-04-18T08:25:59Z</time></trkpt><trkpt lat="46.25315448610703" lon="13.114727405579522"><ele>179.6</ele><time>2026-04-18T08:26:00Z</time></trkpt><trkpt lat="46.2532405806926" lon="13.114641390993418"><ele>180.0</ele><time>2026-04-18T08:26:01Z</time></trkpt><trkpt lat="46.253336900475574" lon="13.114543905512347"><ele>180.0</ele><time>2026-04-18T08:26:02Z</time></trkpt><trkpt lat="46.253436559725394" lon="13.114441977746898"><ele>180.0</ele><time>2026-04-18T08:26:03Z</time></trkpt><trkpt lat="46.25353578180185" lon="13.11434643267886"><ele>180.0</ele><time>2026-04-18T08:26:04Z</time></trkpt><trkpt lat="46.253633083884424" lon="13.114245889520308"><ele>180.0</ele><time>2026-04-18T08:26:05Z</time></trkpt><trkpt lat="46.25373433730314" lon="13.114141370052176"><ele>180.0</ele><time>2026-04-18T08:26:06Z</time></trkpt><trkpt lat="46.25384084422185" lon="13.11403345495174"><ele>180.0</ele><time>2026-04-18T08:26:07Z</time></trkpt><trkpt lat="46.25394734694306" lon="13.113928661412496"><ele>180.0</ele><time>2026-04-18T08:26:08Z</time></trkpt><trkpt lat="46.25405113284788" lon="13.113825369262795"><ele>180.0</ele><time>2026-04-18T08:26:09Z</time></trkpt><trkpt lat="46.254147394648705" lon="13.11372636808635"><ele>180.5</ele><time>2026-04-18T08:26:10Z</time></trkpt><trkpt lat="46.254246075445785" lon="13.113629212365238"><ele>181.0</ele><time>2026-04-18T08:26:11Z</time></trkpt><trkpt lat="46.254343509451544" lon="13.11353204506804"><ele>181.5</ele><time>2026-04-18T08:26:12Z</time></trkpt><trkpt lat="46.25444228999867" lon="13.113433584900893"><ele>182.0</ele><time>2026-04-18T08:26:13Z</time></trkpt><trkpt lat="46.254541463078866" lon="13.113331591365371"><ele>181.75</ele><time>2026-04-18T08:26:14Z</time></trkpt><trkpt lat="46.25464354853007" lon="13.113228117491683"><ele>181.5</ele><time>2026-04-18T08:26:15Z</time></trkpt><trkpt lat="46.254749160880735" lon="13.113125067066077"><ele>181.25</ele><time>2026-04-18T08:26:16Z</time></trkpt><trkpt lat="46.25485752976736" lon="13.113020877696878"><ele>181.0</ele><time>2026-04-18T08:26:17Z</time></trkpt><trkpt lat="46.25496498382198" lon="13.112909673496299"><ele>181.0</ele><time>2026-04-18T08:26:18Z</time></trkpt><trkpt lat="46.2550753474775" lon="13.112786398508343"><ele>181.0</ele><time>2026-04-18T08:26:19Z</time></trkpt><trkpt lat="46.25519286002306" lon="13.112664681017389"><ele>181.0</ele><time>2026-04-18T08:26:20Z</time></trkpt><trkpt lat="46.25531898613975" lon="13.112532940521655"><ele>181.0</ele><time>2026-04-18T08:26:21Z</time></trkpt><trkpt lat="46.255448846079595" lon="13.112396239924152"><ele>180.5</ele><time>2026-04-18T08:26:22Z</time></trkpt><trkpt lat="46.25557114623848" lon="13.11226966366423"><ele>180.0</ele><time>2026-04-18T08:26:23Z</time></trkpt><trkpt lat="46.25569016340126" lon="13.112146482611093"><ele>179.5</ele><time>2026-04-18T08:26:24Z</time></trkpt><trkpt lat="46.255803613102266" lon="13.112030350037777"><ele>179.0</ele><time>2026-04-18T08:26:25Z</time></trkpt><trkpt lat="46.25591837550441" lon="13.111911523270868"><ele>180.0</ele><time>2026-04-18T08:26:26Z</time></trkpt><trkpt lat="46.25603532175944" lon="13.111792865848342"><ele>181.0</ele><time>2026-04-18T08:26:27Z</time></trkpt><trkpt lat="46.25615097313232" lon="13.111675189774138"><ele>182.0</ele><time>2026-04-18T08:26:28Z</time></trkpt><trkpt lat="46.25626423296464" lon="13.11156053567148"><ele>183.0</ele><time>2026-04-18T08:26:29Z</time></trkpt><trkpt lat="46.25637653922108" lon="13.111443683009716"><ele>183.25</ele><time>2026-04-18T08:26:30Z</time></trkpt><trkpt lat="46.256485758877176" lon="13.11133309668037"><ele>183.5</ele><time>2026-04-18T08:26:31Z</time></trkpt><trkpt lat="46.25659180299526" lon="13.111223407630234"><ele>183.75</ele><time>2026-04-18T08:26:32Z</time></trkpt><trkpt lat="46.25669803517933" lon="13.111111332870527"><ele>184.0</ele><time>2026-04-18T08:26:33Z</time></trkpt><trkpt lat="46.256805801782185" lon="13.1110029077414"><ele>184.0</ele><time>2026-04-18T08:26:34Z</time></trkpt><trkpt lat="46.256917235197804" lon="13.110888160539574"><ele>184.0</ele><time>2026-04-18T08:26:35Z</time></trkpt><trkpt lat="46.25703347414525" lon="13.110767293370259"><ele>184.0</ele><time>2026-04-18T08:26:36Z</time></trkpt><trkpt lat="46.25715330295703" lon="13.110648925981911"><ele>184.0</ele><time>2026-04-18T08:26:37Z</time></trkpt><trkpt lat="46.257275271049316" lon="13.110528527829663"><ele>184.0</ele><time>2026-04-18T08:26:38Z</time></trkpt><trkpt lat="46.257401279137014" lon="13.110410076664063"><ele>184.0</ele><time>2026-04-18T08:26:39Z</time></trkpt><trkpt lat="46.25752700642839" lon="13.110298940871724"><ele>184.0</ele><time>2026-04-18T08:26:40Z</time></trkpt><trkpt lat="46.257654398545135" lon="13.110192212226607"><ele>184.0</ele><time>2026-04-18T08:26:41Z</time></trkpt><trkpt lat="46.25778155085775" lon="13.110087657743817"><ele>184.0</ele><time>2026-04-18T08:26:42Z</time></trkpt><trkpt lat="46.25790906205347" lon="13.109985210815"><ele>184.0</ele><time>2026-04-18T08:26:43Z</time></trkpt><trkpt lat="46.258035427570164" lon="13.109882998657795"><ele>184.0</ele><time>2026-04-18T08:26:44Z</time></trkpt><trkpt lat="46.25816677601871" lon="13.109775170742655"><ele>184.0</ele><time>2026-04-18T08:26:45Z</time></trkpt><trkpt lat="46.25830223509452" lon="13.109667195077677"><ele>183.66666666666669</ele><time>2026-04-18T08:26:46Z</time></trkpt><trkpt lat="46.258440308955166" lon="13.109555265030084"><ele>183.33333333333334</ele><time>2026-04-18T08:26:47Z</time></trkpt><trkpt lat="46.25857770174509" lon="13.109442856273176"><ele>183.0</ele><time>2026-04-18T08:26:48Z</time></trkpt><trkpt lat="46.25870926231412" lon="13.109333278411574"><ele>183.0</ele><time>2026-04-18T08:26:49Z</time></trkpt><trkpt lat="46.25883432920909" lon="13.109236739944894"><ele>183.0</ele><time>2026-04-18T08:26:50Z</time></trkpt><trkpt lat="46.25895589185672" lon="13.109142768728717"><ele>183.0</ele><time>2026-04-18T08:26:51Z</time></trkpt><trkpt lat="46.259074891484474" lon="13.10905184792722"><ele>183.0</ele><time>2026-04-18T08:26:52Z</time></trkpt><trkpt lat="46.25919649333174" lon="13.108968964441063"><ele>183.75</ele><time>2026-04-18T08:26:53Z</time></trkpt><trkpt lat="46.25931439431577" lon="13.108891419449309"><ele>184.5</ele><time>2026-04-18T08:26:54Z</time></trkpt><trkpt lat="46.2594360992967" lon="13.108817270865515"><ele>185.25</ele><time>2026-04-18T08:26:55Z</time></trkpt><trkpt lat="46.259568936140724" lon="13.108751772316966"><ele>186.0</ele><time>2026-04-18T08:26:56Z</time></trkpt><trkpt lat="46.25970797020112" lon="13.108683632013827"><ele>186.66666666666666</ele><time>2026-04-18T08:26:57Z</time></trkpt><trkpt lat="46.259851910985816" lon="13.108621657453828"><ele>187.33333333333331</ele><time>2026-04-18T08:26:58Z</time></trkpt><trkpt lat="46.25999923782369" lon="13.108568735328591"><ele>188.0</ele><time>2026-04-18T08:26:59Z</time></trkpt><trkpt lat="46.26014838538007" lon="13.108520910828886"><ele>188.0</ele><time>2026-04-18T08:27:00Z</time></trkpt><trkpt lat="46.26030068814929" lon="13.108481596140653"><ele>188.0</ele><time>2026-04-18T08:27:01Z</time></trkpt><trkpt lat="46.26045279093469" lon="13.108450917446318"><ele>188.0</ele><time>2026-04-18T08:27:02Z</time></trkpt><trkpt lat="46.26060569094483" lon="13.108423769053099"><ele>188.0</ele><time>2026-04-18T08:27:03Z</time></trkpt><trkpt lat="46.260755380903746" lon="13.108403825125999"><ele>188.0</ele><time>2026-04-18T08:27:04Z</time></trkpt><trkpt lat="46.26090024490466" lon="13.108381259198287"><ele>188.0</ele><time>2026-04-18T08:27:05Z</time></trkpt><trkpt lat="46.261034520518486" lon="13.108365075233493"><ele>188.0</ele><time>2026-04-18T08:27:06Z</time></trkpt><trkpt lat="46.261166597558315" lon="13.108347870737528"><ele>188.0</ele><time>2026-04-18T08:27:07Z</time></trkpt><trkpt lat="46.26129393538911" lon="13.108330320825885"><ele>188.0</ele><time>2026-04-18T08:27:08Z</time></trkpt><trkpt lat="46.261419002528065" lon="13.108314289708973"><ele>188.0</ele><time>2026-04-18T08:27:09Z</time></trkpt><trkpt lat="46.261540338799996" lon="13.108297077509937"><ele>188.0</ele><time>2026-04-18T08:27:10Z</time></trkpt><trkpt lat="46.261654867590536" lon="13.108286189263364"><ele>187.75</ele><time>2026-04-18T08:27:11Z</time></trkpt><trkpt lat="46.26176462996305" lon="13.108273991549837"><ele>187.5</ele><time>2026-04-18T08:27:12Z</time></trkpt><trkpt lat="46.26187466819649" lon="13.1082602750942"><ele>187.25</ele><time>2026-04-18T08:27:13Z</time></trkpt><trkpt lat="46.26198610823221" lon="13.108248773526899"><ele>187.0</ele><time>2026-04-18T08:27:14Z</time></trkpt><trkpt lat="46.262106708483195" lon="13.108231250112807"><ele>187.0</ele><time>2026-04-18T08:27:15Z</time></trkpt><trkpt lat="46.262246339529604" lon="13.108211868079438"><ele>187.0</ele><time>2026-04-18T08:27:16Z</time></trkpt><trkpt lat="46.26239651461" lon="13.108184156159261"><ele>187.0</ele><time>2026-04-18T08:27:17Z</time></trkpt><trkpt lat="46.26256529939028" lon="13.108172978779525"><ele>186.66666666666669</ele><time>2026-04-18T08:27:18Z</time></trkpt><trkpt lat="46.26274069387646" lon="13.108149633506649"><ele>186.33333333333334</ele><time>2026-04-18T08:27:19Z</time></trkpt><trkpt lat="46.262891418171975" lon="13.108126595349196"><ele>186.0</ele><time>2026-04-18T08:27:20Z</time></trkpt><trkpt lat="46.26303343556684" lon="13.108109011630159"><ele>185.5</ele><time>2026-04-18T08:27:21Z</time></trkpt><trkpt lat="46.2631728990973" lon="13.108093460205241"><ele>185.0</ele><time>2026-04-18T08:27:22Z</time></trkpt><trkpt lat="46.263304474828495" lon="13.108080620895942"><ele>184.5</ele><time>2026-04-18T08:27:23Z</time></trkpt><trkpt lat="46.263434519521766" lon="13.108063492701898"><ele>184.0</ele><time>2026-04-18T08:27:24Z</time></trkpt><trkpt lat="46.263570612014625" lon="13.108043004396466"><ele>184.0</ele><time>2026-04-18T08:27:25Z</time></trkpt><trkpt lat="46.263710395700734" lon="13.108024618083045"><ele>184.0</ele><time>2026-04-18T08:27:26Z</time></trkpt><trkpt lat="46.263862618633034" lon="13.108003340983707"><ele>184.0</ele><time>2026-04-18T08:27:27Z</time></trkpt><trkpt lat="46.26401579544436" lon="13.107985599257436"><ele>184.0</ele><time>2026-04-18T08:27:28Z</time></trkpt><trkpt lat="46.2641662579793" lon="13.107968328110024"><ele>184.75</ele><time>2026-04-18T08:27:29Z</time></trkpt><trkpt lat="46.26431348869265" lon="13.10795404586145"><ele>185.5</ele><time>2026-04-18T08:27:30Z</time></trkpt><trkpt lat="46.26445444455158" lon="13.107936881766042"><ele>186.25</ele><time>2026-04-18T08:27:31Z</time></trkpt><trkpt lat="46.26458798494005" lon="13.107922839929405"><ele>187.0</ele><time>2026-04-18T08:27:32Z</time></trkpt><trkpt lat="46.264713305463346" lon="13.107908031609457"><ele>186.8</ele><time>2026-04-18T08:27:33Z</time></trkpt><trkpt lat="46.26482891335171" lon="13.107889733791389"><ele>186.6</ele><time>2026-04-18T08:27:34Z</time></trkpt><trkpt lat="46.264939171650326" lon="13.107873614015954"><ele>186.4</ele><time>2026-04-18T08:27:35Z</time></trkpt><trkpt lat="46.265045581085005" lon="13.107861051816794"><ele>186.20000000000002</ele><time>2026-04-18T08:27:36Z</time></trkpt><trkpt lat="46.26514041148276" lon="13.10785194074329"><ele>186.0</ele><time>2026-04-18T08:27:37Z</time></trkpt><trkpt lat="46.265237135999946" lon="13.107849287066289"><ele>186.0</ele><time>2026-04-18T08:27:38Z</time></trkpt><trkpt lat="46.26533687705166" lon="13.107849105988715"><ele>186.0</ele><time>2026-04-18T08:27:39Z</time></trkpt><trkpt lat="46.26543606079385" lon="13.107846051364499"><ele>186.0</ele><time>2026-04-18T08:27:40Z</time></trkpt><trkpt lat="46.26553861178366" lon="13.107838576947705"><ele>186.0</ele><time>2026-04-18T08:27:41Z</time></trkpt><trkpt lat="46.26564264650861" lon="13.107833716847008"><ele>186.0</ele><time>2026-04-18T08:27:42Z</time></trkpt><trkpt lat="46.265738295025336" lon="13.107836407634831"><ele>186.20000000000002</ele><time>2026-04-18T08:27:43Z</time></trkpt><trkpt lat="46.2658322967496" lon="13.10786155661284"><ele>186.4</ele><time>2026-04-18T08:27:44Z</time></trkpt><trkpt lat="46.26591327048166" lon="13.107912218650656"><ele>186.6</ele><time>2026-04-18T08:27:45Z</time></trkpt><trkpt lat="46.26598391372543" lon="13.10797645557497"><ele>186.8</ele><time>2026-04-18T08:27:46Z</time></trkpt><trkpt lat="46.266056260572306" lon="13.108055172819158"><ele>187.0</ele><time>2026-04-18T08:27:47Z</time></trkpt><trkpt lat="46.26612217337701" lon="13.108157021885855"><ele>187.0</ele><time>2026-04-18T08:27:48Z</time></trkpt><trkpt lat="46.266182150374995" lon="13.108286812240982"><ele>187.0</ele><time>2026-04-18T08:27:49Z</time></trkpt><trkpt lat="46.26622734178325" lon="13.108439287107384"><ele>187.0</ele><time>2026-04-18T08:27:50Z</time></trkpt><trkpt lat="46.26625546308703" lon="13.108601122641625"><ele>187.0</ele><time>2026-04-18T08:27:51Z</time></trkpt><trkpt lat="46.266251257078466" lon="13.108766629611772"><ele>187.0</ele><time>2026-04-18T08:27:52Z</time></trkpt><trkpt lat="46.26625576043309" lon="13.10893119189955"><ele>187.0</ele><time>2026-04-18T08:27:53Z</time></trkpt><trkpt lat="46.266270649417876" lon="13.109100905692141"><ele>187.0</ele><time>2026-04-18T08:27:54Z</time></trkpt><trkpt lat="46.26627528322335" lon="13.109285179052275"><ele>187.0</ele><time>2026-04-18T08:27:55Z</time></trkpt><trkpt lat="46.26628055952798" lon="13.109480148628114"><ele>187.25</ele><time>2026-04-18T08:27:56Z</time></trkpt><trkpt lat="46.26628132990216" lon="13.109665605172642"><ele>187.5</ele><time>2026-04-18T08:27:57Z</time></trkpt><trkpt lat="46.26628109459529" lon="13.109854736246918"><ele>187.75</ele><time>2026-04-18T08:27:58Z</time></trkpt><trkpt lat="46.2662809510451" lon="13.110047742524996"><ele>188.0</ele><time>2026-04-18T08:27:59Z</time></trkpt><trkpt lat="46.26628412240932" lon="13.110241849551453"><ele>188.0</ele><time>2026-04-18T08:28:00Z</time></trkpt><trkpt lat="46.266288657328765" lon="13.110437932521481"><ele>188.0</ele><time>2026-04-18T08:28:01Z</time></trkpt><trkpt lat="46.266290851304845" lon="13.110629303806938"><ele>188.0</ele><time>2026-04-18T08:28:02Z</time></trkpt><trkpt lat="46.266287691321956" lon="13.110815297420753"><ele>188.0</ele><time>2026-04-18T08:28:03Z</time></trkpt><trkpt lat="46.26628978187403" lon="13.110983889551804"><ele>188.0</ele><time>2026-04-18T08:28:04Z</time></trkpt><trkpt lat="46.266292291976306" lon="13.111145667495352"><ele>188.0</ele><time>2026-04-18T08:28:05Z</time></trkpt><trkpt lat="46.266292553956454" lon="13.11130209873822"><ele>188.0</ele><time>2026-04-18T08:28:06Z</time></trkpt><trkpt lat="46.26629086706284" lon="13.111456085012327"><ele>188.0</ele><time>2026-04-18T08:28:07Z</time></trkpt><trkpt lat="46.26629179233223" lon="13.111609750949928"><ele>188.0</ele><time>2026-04-18T08:28:08Z</time></trkpt><trkpt lat="46.26630011357237" lon="13.111763180330913"><ele>188.0</ele><time>2026-04-18T08:28:09Z</time></trkpt><trkpt lat="46.26630494373698" lon="13.111898731442016"><ele>188.0</ele><time>2026-04-18T08:28:10Z</time></trkpt><trkpt lat="46.26630464573811" lon="13.1120117259343"><ele>188.0</ele><time>2026-04-18T08:28:11Z</time></trkpt><trkpt lat="46.26630482213846" lon="13.112112171524732"><ele>188.0</ele><time>2026-04-18T08:28:12Z</time></trkpt><trkpt lat="46.26630111327848" lon="13.11223376216794"><ele>188.0</ele><time>2026-04-18T08:28:14Z</time></trkpt><trkpt lat="46.266260852786644" lon="13.11233214305377"><ele>188.0</ele><time>2026-04-18T08:28:19Z</time></trkpt><trkpt lat="46.26618608161463" lon="13.112451231433043"><ele>188.0</ele><time>2026-04-18T08:28:21Z</time></trkpt><trkpt lat="46.266161767643794" lon="13.112578013405633"><ele>188.0</ele><time>2026-04-18T08:28:23Z</time></trkpt><trkpt lat="46.266233616270796" lon="13.112709845411345"><ele>188.0</ele><time>2026-04-18T08:28:25Z</time></trkpt><trkpt lat="46.26628756025383" lon="13.112779329694595"><ele>188.0</ele><time>2026-04-18T08:28:26Z</time></trkpt><trkpt lat="46.26633332716387" lon="13.112878479053347"><ele>188.0</ele><time>2026-04-18T08:28:27Z</time></trkpt><trkpt lat="46.26637051436866" lon="13.112993388220783"><ele>188.0</ele><time>2026-04-18T08:28:28Z</time></trkpt><trkpt lat="46.2663981363843" lon="13.113118424205076"><ele>188.0</ele><time>2026-04-18T08:28:29Z</time></trkpt><trkpt lat="46.26642022927249" lon="13.113255457122479"><ele>188.0</ele><time>2026-04-18T08:28:30Z</time></trkpt><trkpt lat="46.26643999687849" lon="13.113413487197553"><ele>188.0</ele><time>2026-04-18T08:28:31Z</time></trkpt><trkpt lat="46.26645723179367" lon="13.113571819168572"><ele>188.0</ele><time>2026-04-18T08:28:32Z</time></trkpt><trkpt lat="46.26647753850266" lon="13.11373093321448"><ele>188.0</ele><time>2026-04-18T08:28:33Z</time></trkpt><trkpt lat="46.266504133286894" lon="13.113901924970689"><ele>188.0</ele><time>2026-04-18T08:28:34Z</time></trkpt><trkpt lat="46.26651988375779" lon="13.114076820056226"><ele>188.0</ele><time>2026-04-18T08:28:35Z</time></trkpt><trkpt lat="46.26654076215579" lon="13.114259842567334"><ele>188.0</ele><time>2026-04-18T08:28:36Z</time></trkpt><trkpt lat="46.26656748424432" lon="13.114450128247755"><ele>188.0</ele><time>2026-04-18T08:28:37Z</time></trkpt><trkpt lat="46.266592724087175" lon="13.114639205533667"><ele>188.0</ele><time>2026-04-18T08:28:38Z</time></trkpt><trkpt lat="46.26662336624392" lon="13.114817470249362"><ele>188.0</ele><time>2026-04-18T08:28:39Z</time></trkpt><trkpt lat="46.26666836391444" lon="13.114999082819272"><ele>188.0</ele><time>2026-04-18T08:28:40Z</time></trkpt><trkpt lat="46.26671956104458" lon="13.115191636462008"><ele>188.0</ele><time>2026-04-18T08:28:41Z</time></trkpt><trkpt lat="46.26677847305688" lon="13.115389001862221"><ele>188.0</ele><time>2026-04-18T08:28:42Z</time></trkpt><trkpt lat="46.26683798209382" lon="13.115589122607824"><ele>188.0</ele><time>2026-04-18T08:28:43Z</time></trkpt><trkpt lat="46.26689689126166" lon="13.115780514209796"><ele>188.0</ele><time>2026-04-18T08:28:44Z</time></trkpt><trkpt lat="46.26694757571024" lon="13.115969691704015"><ele>188.0</ele><time>2026-04-18T08:28:45Z</time></trkpt><trkpt lat="46.26700873030861" lon="13.116148753108988"><ele>188.0</ele><time>2026-04-18T08:28:46Z</time></trkpt><trkpt lat="46.26706249483848" lon="13.11633208570347"><ele>188.0</ele><time>2026-04-18T08:28:47Z</time></trkpt><trkpt lat="46.26711661773624" lon="13.116511069345076"><ele>188.0</ele><time>2026-04-18T08:28:48Z</time></trkpt><trkpt lat="46.26716901383912" lon="13.116691471171539"><ele>188.0</ele><time>2026-04-18T08:28:49Z</time></trkpt><trkpt lat="46.2672199140239" lon="13.116878587858608"><ele>188.0</ele><time>2026-04-18T08:28:50Z</time></trkpt><trkpt lat="46.26727178920293" lon="13.117065058572887"><ele>188.0</ele><time>2026-04-18T08:28:51Z</time></trkpt><trkpt lat="46.26731994246561" lon="13.117238881737423"><ele>188.0</ele><time>2026-04-18T08:28:52Z</time></trkpt><trkpt lat="46.26736104428912" lon="13.117390504440314"><ele>188.0</ele><time>2026-04-18T08:28:53Z</time></trkpt><trkpt lat="46.26740270584436" lon="13.11752862500563"><ele>188.0</ele><time>2026-04-18T08:28:54Z</time></trkpt><trkpt lat="46.267440593761904" lon="13.11765464181509"><ele>188.0</ele><time>2026-04-18T08:28:55Z</time></trkpt><trkpt lat="46.26747635182408" lon="13.117775890967168"><ele>188.0</ele><time>2026-04-18T08:28:56Z</time></trkpt><trkpt lat="46.26751491697926" lon="13.117902923215146"><ele>188.0</ele><time>2026-04-18T08:28:57Z</time></trkpt><trkpt lat="46.267551286695834" lon="13.11803400241909"><ele>188.0</ele><time>2026-04-18T08:28:58Z</time></trkpt><trkpt lat="46.267590703356575" lon="13.118166169546365"><ele>187.5</ele><time>2026-04-18T08:28:59Z</time></trkpt><trkpt lat="46.2676311024131" lon="13.118299457922971"><ele>187.0</ele><time>2026-04-18T08:29:00Z</time></trkpt><trkpt lat="46.26766605872693" lon="13.11841787435705"><ele>186.5</ele><time>2026-04-18T08:29:01Z</time></trkpt><trkpt lat="46.26769651790865" lon="13.118528879570116"><ele>186.0</ele><time>2026-04-18T08:29:02Z</time></trkpt><trkpt lat="46.2677245793947" lon="13.118628853229051"><ele>185.5</ele><time>2026-04-18T08:29:03Z</time></trkpt><trkpt lat="46.267752621548" lon="13.11872762455348"><ele>185.0</ele><time>2026-04-18T08:29:04Z</time></trkpt><trkpt lat="46.26778043415018" lon="13.118829012557589"><ele>185.0</ele><time>2026-04-18T08:29:05Z</time></trkpt><trkpt lat="46.2678198293891" lon="13.118985384939975"><ele>185.0</ele><time>2026-04-18T08:29:07Z</time></trkpt><trkpt lat="46.26785123364809" lon="13.119103012971772"><ele>185.0</ele><time>2026-04-18T08:29:09Z</time></trkpt><trkpt lat="46.267876046150725" lon="13.119207677166903"><ele>185.0</ele><time>2026-04-18T08:29:11Z</time></trkpt><trkpt lat="46.267901923258535" lon="13.119308934072075"><ele>185.0</ele><time>2026-04-18T08:29:14Z</time></trkpt><trkpt lat="46.26792567346582" lon="13.119397851026733"><ele>185.0</ele><time>2026-04-18T08:29:17Z</time></trkpt><trkpt lat="46.26796133487657" lon="13.11952597037726"><ele>185.0</ele><time>2026-04-18T08:29:20Z</time></trkpt><trkpt lat="46.26798909372052" lon="13.119625609897593"><ele>185.0</ele><time>2026-04-18T08:29:22Z</time></trkpt><trkpt lat="46.268025377645564" lon="13.119765557672531"><ele>185.0</ele><time>2026-04-18T08:29:24Z</time></trkpt><trkpt lat="46.26805007279776" lon="13.119852832685233"><ele>185.0</ele><time>2026-04-18T08:29:25Z</time></trkpt><trkpt lat="46.26807647123549" lon="13.119952240384313"><ele>185.0</ele><time>2026-04-18T08:29:26Z</time></trkpt><trkpt lat="46.268104429440584" lon="13.120050030373337"><ele>185.0</ele><time>2026-04-18T08:29:27Z</time></trkpt><trkpt lat="46.268136833536985" lon="13.120140885140549"><ele>185.0</ele><time>2026-04-18T08:29:28Z</time></trkpt><trkpt lat="46.268164206624405" lon="13.12023935393406"><ele>185.0</ele><time>2026-04-18T08:29:29Z</time></trkpt><trkpt lat="46.26819030344882" lon="13.120339238472287"><ele>185.0</ele><time>2026-04-18T08:29:30Z</time></trkpt><trkpt lat="46.268221809762025" lon="13.120448137895643"><ele>185.0</ele><time>2026-04-18T08:29:31Z</time></trkpt><trkpt lat="46.26825692927472" lon="13.120578262470161"><ele>185.0</ele><time>2026-04-18T08:29:32Z</time></trkpt><trkpt lat="46.26829427848294" lon="13.120716316988807"><ele>185.0</ele><time>2026-04-18T08:29:33Z</time></trkpt><trkpt lat="46.268319950546285" lon="13.120832765453585"><ele>185.16666666666666</ele><time>2026-04-18T08:29:34Z</time></trkpt><trkpt lat="46.26835003330916" lon="13.120947741069571"><ele>185.33333333333331</ele><time>2026-04-18T08:29:35Z</time></trkpt><trkpt lat="46.26838754633287" lon="13.121076459405733"><ele>185.5</ele><time>2026-04-18T08:29:36Z</time></trkpt><trkpt lat="46.26842170838283" lon="13.121200965576092"><ele>185.66666666666666</ele><time>2026-04-18T08:29:37Z</time></trkpt><trkpt lat="46.268448852492604" lon="13.12131710607368"><ele>185.83333333333334</ele><time>2026-04-18T08:29:38Z</time></trkpt><trkpt lat="46.26847983101586" lon="13.121427745075591"><ele>186.0</ele><time>2026-04-18T08:29:39Z</time></trkpt><trkpt lat="46.26851085487896" lon="13.121544562941226"><ele>186.20000000000002</ele><time>2026-04-18T08:29:40Z</time></trkpt><trkpt lat="46.26854747133366" lon="13.121664949952013"><ele>186.4</ele><time>2026-04-18T08:29:41Z</time></trkpt><trkpt lat="46.26856933663112" lon="13.121797444814773"><ele>186.6</ele><time>2026-04-18T08:29:42Z</time></trkpt><trkpt lat="46.26862177100378" lon="13.121918397792399"><ele>186.8</ele><time>2026-04-18T08:29:43Z</time></trkpt><trkpt lat="46.26866474996151" lon="13.122045904968832"><ele>187.0</ele><time>2026-04-18T08:29:44Z</time></trkpt><trkpt lat="46.26870904237474" lon="13.122169852380734"><ele>187.0</ele><time>2026-04-18T08:29:45Z</time></trkpt><trkpt lat="46.26875727333886" lon="13.122288603932391"><ele>187.0</ele><time>2026-04-18T08:29:46Z</time></trkpt><trkpt lat="46.26881350983422" lon="13.122405290437392"><ele>187.0</ele><time>2026-04-18T08:29:47Z</time></trkpt><trkpt lat="46.268882589719354" lon="13.122520691549523"><ele>187.0</ele><time>2026-04-18T08:29:48Z</time></trkpt><trkpt lat="46.26895491659046" lon="13.122649443223851"><ele>187.0</ele><time>2026-04-18T08:29:49Z</time></trkpt><trkpt lat="46.269009345755435" lon="13.122807419324323"><ele>187.2</ele><time>2026-04-18T08:29:50Z</time></trkpt><trkpt lat="46.269078273909585" lon="13.122932998342197"><ele>187.39999999999998</ele><time>2026-04-18T08:29:51Z</time></trkpt><trkpt lat="46.26915019368474" lon="13.123064027604642"><ele>187.60000000000002</ele><time>2026-04-18T08:29:52Z</time></trkpt><trkpt lat="46.269212398658695" lon="13.12317735682441"><ele>187.8</ele><time>2026-04-18T08:29:53Z</time></trkpt><trkpt lat="46.26926758728064" lon="13.123276592400739"><ele>188.0</ele><time>2026-04-18T08:29:54Z</time></trkpt><trkpt lat="46.269323199954385" lon="13.123376404720352"><ele>188.2</ele><time>2026-04-18T08:29:55Z</time></trkpt><trkpt lat="46.2693829746025" lon="13.12348379111357"><ele>188.4</ele><time>2026-04-18T08:29:56Z</time></trkpt><trkpt lat="46.26945106942866" lon="13.123583473688477"><ele>188.6</ele><time>2026-04-18T08:29:57Z</time></trkpt><trkpt lat="46.269514616660665" lon="13.123691628562685"><ele>188.79999999999998</ele><time>2026-04-18T08:29:58Z</time></trkpt><trkpt lat="46.26957054079809" lon="13.123795545385759"><ele>189.0</ele><time>2026-04-18T08:29:59Z</time></trkpt><trkpt lat="46.26962567977599" lon="13.123891982983581"><ele>189.0</ele><time>2026-04-18T08:30:00Z</time></trkpt><trkpt lat="46.26968204172712" lon="13.123996640221897"><ele>189.0</ele><time>2026-04-18T08:30:01Z</time></trkpt><trkpt lat="46.26973409751171" lon="13.124103050183647"><ele>189.0</ele><time>2026-04-18T08:30:02Z</time></trkpt><trkpt lat="46.26978293025919" lon="13.124202208407405"><ele>189.0</ele><time>2026-04-18T08:30:03Z</time></trkpt><trkpt lat="46.26981979982307" lon="13.12431323235823"><ele>189.0</ele><time>2026-04-18T08:30:04Z</time></trkpt><trkpt lat="46.2698677354609" lon="13.124418267628267"><ele>189.0</ele><time>2026-04-18T08:30:05Z</time></trkpt><trkpt lat="46.269914597963776" lon="13.124526772170906"><ele>189.0</ele><time>2026-04-18T08:30:06Z</time></trkpt><trkpt lat="46.2699751213897" lon="13.124622868677285"><ele>189.0</ele><time>2026-04-18T08:30:07Z</time></trkpt><trkpt lat="46.270023704071576" lon="13.124737439471437"><ele>189.0</ele><time>2026-04-18T08:30:08Z</time></trkpt><trkpt lat="46.2700740809951" lon="13.12485396027108"><ele>189.0</ele><time>2026-04-18T08:30:09Z</time></trkpt><trkpt lat="46.27012360870783" lon="13.124973402470179"><ele>189.0</ele><time>2026-04-18T08:30:10Z</time></trkpt><trkpt lat="46.27017348767983" lon="13.125095634564863"><ele>188.79999999999998</ele><time>2026-04-18T08:30:11Z</time></trkpt><trkpt lat="46.27022458430188" lon="13.125215285013322"><ele>188.6</ele><time>2026-04-18T08:30:12Z</time></trkpt><trkpt lat="46.27026201004665" lon="13.125341791101523"><ele>188.4</ele><time>2026-04-18T08:30:13Z</time></trkpt><trkpt lat="46.27032472210113" lon="13.125431608314765"><ele>188.2</ele><time>2026-04-18T08:30:14Z</time></trkpt><trkpt lat="46.270363351994035" lon="13.12553995704787"><ele>188.0</ele><time>2026-04-18T08:30:15Z</time></trkpt><trkpt lat="46.27043357761016" lon="13.125622870432206"><ele>188.0</ele><time>2026-04-18T08:30:16Z</time></trkpt><trkpt lat="46.27048633429204" lon="13.125722461933856"><ele>188.0</ele><time>2026-04-18T08:30:17Z</time></trkpt><trkpt lat="46.27054847041213" lon="13.125815169307513"><ele>188.0</ele><time>2026-04-18T08:30:18Z</time></trkpt><trkpt lat="46.270608944311036" lon="13.125905264427821"><ele>188.0</ele><time>2026-04-18T08:30:19Z</time></trkpt><trkpt lat="46.270674513832" lon="13.125989126963203"><ele>188.0</ele><time>2026-04-18T08:30:20Z</time></trkpt><trkpt lat="46.270724126904405" lon="13.126069702421482"><ele>188.0</ele><time>2026-04-18T08:30:21Z</time></trkpt><trkpt lat="46.27078008805925" lon="13.126148316729193"><ele>188.0</ele><time>2026-04-18T08:30:22Z</time></trkpt><trkpt lat="46.27083521149979" lon="13.126221449454233"><ele>188.0</ele><time>2026-04-18T08:30:23Z</time></trkpt><trkpt lat="46.27088867029356" lon="13.126296241147202"><ele>188.0</ele><time>2026-04-18T08:30:24Z</time></trkpt><trkpt lat="46.270925636210954" lon="13.126385350449313"><ele>188.0</ele><time>2026-04-18T08:30:25Z</time></trkpt><trkpt lat="46.27096748369443" lon="13.126473332802703"><ele>188.0</ele><time>2026-04-18T08:30:26Z</time></trkpt><trkpt lat="46.27099971521534" lon="13.126565541368972"><ele>188.0</ele><time>2026-04-18T08:30:27Z</time></trkpt><trkpt lat="46.27103035876334" lon="13.126660412885135"><ele>188.0</ele><time>2026-04-18T08:30:28Z</time></trkpt><trkpt lat="46.27106058603266" lon="13.126752400661008"><ele>188.0</ele><time>2026-04-18T08:30:29Z</time></trkpt><trkpt lat="46.27108658430985" lon="13.126845253574148"><ele>188.0</ele><time>2026-04-18T08:30:30Z</time></trkpt><trkpt lat="46.27112574347745" lon="13.12693703276449"><ele>188.0</ele><time>2026-04-18T08:30:31Z</time></trkpt><trkpt lat="46.271150572942915" lon="13.127041341660538"><ele>188.0</ele><time>2026-04-18T08:30:32Z</time></trkpt><trkpt lat="46.27117575925823" lon="13.127146009924687"><ele>188.0</ele><time>2026-04-18T08:30:33Z</time></trkpt><trkpt lat="46.27120487891432" lon="13.127252396685162"><ele>188.0</ele><time>2026-04-18T08:30:34Z</time></trkpt><trkpt lat="46.271238669528195" lon="13.127357618539087"><ele>188.33333333333331</ele><time>2026-04-18T08:30:35Z</time></trkpt><trkpt lat="46.271271545375626" lon="13.127463383941095"><ele>188.66666666666666</ele><time>2026-04-18T08:30:36Z</time></trkpt><trkpt lat="46.27130178909328" lon="13.127573212840463"><ele>189.0</ele><time>2026-04-18T08:30:37Z</time></trkpt><trkpt lat="46.27133176098299" lon="13.127681802114596"><ele>189.33333333333334</ele><time>2026-04-18T08:30:38Z</time></trkpt><trkpt lat="46.27134656818519" lon="13.127788040002585"><ele>189.66666666666669</ele><time>2026-04-18T08:30:39Z</time></trkpt><trkpt lat="46.27137522001244" lon="13.127886415931059"><ele>190.0</ele><time>2026-04-18T08:30:40Z</time></trkpt><trkpt lat="46.27140529270278" lon="13.127979382800303"><ele>190.0</ele><time>2026-04-18T08:30:41Z</time></trkpt><trkpt lat="46.27143411740576" lon="13.128068491632979"><ele>190.0</ele><time>2026-04-18T08:30:42Z</time></trkpt><trkpt lat="46.271462530427954" lon="13.128155218641409"><ele>190.0</ele><time>2026-04-18T08:30:43Z</time></trkpt><trkpt lat="46.27150563489413" lon="13.12828495054735"><ele>190.0</ele><time>2026-04-18T08:30:45Z</time></trkpt><trkpt lat="46.27154176719272" lon="13.128393698184876"><ele>190.0</ele><time>2026-04-18T08:30:47Z</time></trkpt><trkpt lat="46.271580039246615" lon="13.128508885935037"><ele>190.0</ele><time>2026-04-18T08:30:49Z</time></trkpt><trkpt lat="46.27162081158693" lon="13.128631598767504"><ele>190.0</ele><time>2026-04-18T08:30:51Z</time></trkpt><trkpt lat="46.27166586338729" lon="13.12877020307477"><ele>190.0</ele><time>2026-04-18T08:30:53Z</time></trkpt><trkpt lat="46.27170096962831" lon="13.128886143166483"><ele>190.0</ele><time>2026-04-18T08:30:55Z</time></trkpt><trkpt lat="46.27174471359761" lon="13.129002129124308"><ele>190.0</ele><time>2026-04-18T08:30:58Z</time></trkpt><trkpt lat="46.27176229169483" lon="13.129168086623753"><ele>190.0</ele><time>2026-04-18T08:31:00Z</time></trkpt><trkpt lat="46.27176601377799" lon="13.129320919327148"><ele>190.2</ele><time>2026-04-18T08:31:02Z</time></trkpt><trkpt lat="46.27180432770644" lon="13.129472939274482"><ele>190.4</ele><time>2026-04-18T08:31:07Z</time></trkpt><trkpt lat="46.27183713418349" lon="13.129573584797242"><ele>190.60000000000002</ele><time>2026-04-18T08:31:09Z</time></trkpt><trkpt lat="46.27197256595512" lon="13.129541065268754"><ele>190.8</ele><time>2026-04-18T08:31:10Z</time></trkpt><trkpt lat="46.27208115523067" lon="13.129465246680057"><ele>191.0</ele><time>2026-04-18T08:31:11Z</time></trkpt><trkpt lat="46.27222271227006" lon="13.129367324286195"><ele>191.5</ele><time>2026-04-18T08:31:12Z</time></trkpt><trkpt lat="46.27236792539736" lon="13.129295065637065"><ele>192.0</ele><time>2026-04-18T08:31:13Z</time></trkpt><trkpt lat="46.272507317190346" lon="13.12922810059183"><ele>192.5</ele><time>2026-04-18T08:31:14Z</time></trkpt><trkpt lat="46.27262731383233" lon="13.129165893192857"><ele>193.0</ele><time>2026-04-18T08:31:15Z</time></trkpt><trkpt lat="46.2727313699955" lon="13.129114939720953"><ele>193.0</ele><time>2026-04-18T08:31:16Z</time></trkpt><trkpt lat="46.27282823087335" lon="13.129069847045361"><ele>193.0</ele><time>2026-04-18T08:31:17Z</time></trkpt><trkpt lat="46.272915017322966" lon="13.12902883278267"><ele>193.0</ele><time>2026-04-18T08:31:18Z</time></trkpt><trkpt lat="46.27299696431448" lon="13.128994633600929"><ele>193.0</ele><time>2026-04-18T08:31:19Z</time></trkpt><trkpt lat="46.273083672229326" lon="13.128967972120794"><ele>193.0</ele><time>2026-04-18T08:31:20Z</time></trkpt><trkpt lat="46.27317508484022" lon="13.128944889759874"><ele>193.0</ele><time>2026-04-18T08:31:21Z</time></trkpt><trkpt lat="46.27326562885342" lon="13.128916893648645"><ele>193.0</ele><time>2026-04-18T08:31:22Z</time></trkpt><trkpt lat="46.27335973888829" lon="13.128891437100501"><ele>193.0</ele><time>2026-04-18T08:31:23Z</time></trkpt><trkpt lat="46.27345380279966" lon="13.128866871152194"><ele>193.0</ele><time>2026-04-18T08:31:24Z</time></trkpt><trkpt lat="46.27355047309153" lon="13.128848303444265"><ele>193.0</ele><time>2026-04-18T08:31:25Z</time></trkpt><trkpt lat="46.27364644594482" lon="13.128834517422197"><ele>192.99999999999997</ele><time>2026-04-18T08:31:26Z</time></trkpt><trkpt lat="46.27374063209706" lon="13.128820491074862"><ele>193.0</ele><time>2026-04-18T08:31:27Z</time></trkpt><trkpt lat="46.2738340555468" lon="13.128807182019784"><ele>193.0</ele><time>2026-04-18T08:31:28Z</time></trkpt><trkpt lat="46.27392619819848" lon="13.128792779859873"><ele>193.0</ele><time>2026-04-18T08:31:29Z</time></trkpt><trkpt lat="46.274010693448275" lon="13.1287792614483"><ele>192.99999999999997</ele><time>2026-04-18T08:31:30Z</time></trkpt><trkpt lat="46.27408492517385" lon="13.128765354359047"><ele>193.0</ele><time>2026-04-18T08:31:31Z</time></trkpt><trkpt lat="46.27414745430232" lon="13.12874785257009"><ele>193.2</ele><time>2026-04-18T08:31:32Z</time></trkpt><trkpt lat="46.27426284024342" lon="13.128731221872052"><ele>193.4</ele><time>2026-04-18T08:31:34Z</time></trkpt><trkpt lat="46.274373300708135" lon="13.128723432469812"><ele>193.6</ele><time>2026-04-18T08:31:36Z</time></trkpt><trkpt lat="46.27443577643851" lon="13.128860664902462"><ele>193.79999999999998</ele><time>2026-04-18T08:31:37Z</time></trkpt><trkpt lat="46.2744813995756" lon="13.128944891810537"><ele>194.0</ele><time>2026-04-18T08:31:38Z</time></trkpt><trkpt lat="46.274518211866045" lon="13.129041793647444"><ele>194.00000000000003</ele><time>2026-04-18T08:31:39Z</time></trkpt><trkpt lat="46.27455841078319" lon="13.12914696321426"><ele>194.0</ele><time>2026-04-18T08:31:40Z</time></trkpt><trkpt lat="46.274600264276" lon="13.129260111943521"><ele>194.0</ele><time>2026-04-18T08:31:41Z</time></trkpt><trkpt lat="46.274641227547455" lon="13.129379813103572"><ele>194.0</ele><time>2026-04-18T08:31:42Z</time></trkpt><trkpt lat="46.274683416710154" lon="13.129493069219622"><ele>194.00000000000003</ele><time>2026-04-18T08:31:43Z</time></trkpt><trkpt lat="46.274719983452094" lon="13.129590038489717"><ele>194.0</ele><time>2026-04-18T08:31:44Z</time></trkpt><trkpt lat="46.27474890022563" lon="13.129685902845171"><ele>194.0</ele><time>2026-04-18T08:31:45Z</time></trkpt><trkpt lat="46.27477899959486" lon="13.129774333931188"><ele>194.0</ele><time>2026-04-18T08:31:46Z</time></trkpt><trkpt lat="46.2748118296842" lon="13.129858979259721"><ele>194.0</ele><time>2026-04-18T08:31:47Z</time></trkpt><trkpt lat="46.27484732441675" lon="13.129946504594859"><ele>194.0</ele><time>2026-04-18T08:31:48Z</time></trkpt><trkpt lat="46.274875162325124" lon="13.130039689938034"><ele>194.0</ele><time>2026-04-18T08:31:49Z</time></trkpt><trkpt lat="46.27490706224793" lon="13.130133151380013"><ele>194.0</ele><time>2026-04-18T08:31:50Z</time></trkpt><trkpt lat="46.274945844974646" lon="13.130227021052674"><ele>194.0</ele><time>2026-04-18T08:31:51Z</time></trkpt><trkpt lat="46.27498220193333" lon="13.13032164543495"><ele>194.0</ele><time>2026-04-18T08:31:52Z</time></trkpt><trkpt lat="46.275014677292205" lon="13.130415059477702"><ele>194.0</ele><time>2026-04-18T08:31:53Z</time></trkpt><trkpt lat="46.275042953146915" lon="13.13049775431928"><ele>194.0</ele><time>2026-04-18T08:31:54Z</time></trkpt><trkpt lat="46.275098198538906" lon="13.13064247859023"><ele>194.0</ele><time>2026-04-18T08:31:56Z</time></trkpt><trkpt lat="46.275154217832394" lon="13.13079880763986"><ele>194.0</ele><time>2026-04-18T08:31:58Z</time></trkpt><trkpt lat="46.27520099250292" lon="13.130936780166452"><ele>193.83333333333334</ele><time>2026-04-18T08:32:00Z</time></trkpt><trkpt lat="46.275246384102225" lon="13.131035384685104"><ele>193.66666666666669</ele><time>2026-04-18T08:32:02Z</time></trkpt><trkpt lat="46.27527608139143" lon="13.13118079163752"><ele>193.5</ele><time>2026-04-18T08:32:04Z</time></trkpt><trkpt lat="46.275302511506574" lon="13.131271162613006"><ele>193.33333333333331</ele><time>2026-04-18T08:32:05Z</time></trkpt><trkpt lat="46.27535213960679" lon="13.1313724160628"><ele>193.16666666666666</ele><time>2026-04-18T08:32:06Z</time></trkpt><trkpt lat="46.27541285064038" lon="13.131503437297178"><ele>193.0</ele><time>2026-04-18T08:32:07Z</time></trkpt><trkpt lat="46.2754692162539" lon="13.131655336923213"><ele>193.0</ele><time>2026-04-18T08:32:08Z</time></trkpt><trkpt lat="46.27551956359566" lon="13.131795401977865"><ele>193.0</ele><time>2026-04-18T08:32:09Z</time></trkpt><trkpt lat="46.2755679490176" lon="13.131926009924488"><ele>193.0</ele><time>2026-04-18T08:32:10Z</time></trkpt><trkpt lat="46.27561403685621" lon="13.13204912571948"><ele>193.0</ele><time>2026-04-18T08:32:11Z</time></trkpt><trkpt lat="46.275652614356474" lon="13.132174523079023"><ele>193.0</ele><time>2026-04-18T08:32:12Z</time></trkpt><trkpt lat="46.27569861908699" lon="13.132288650344165"><ele>193.8</ele><time>2026-04-18T08:32:13Z</time></trkpt><trkpt lat="46.27574416926388" lon="13.132406389338893"><ele>194.60000000000002</ele><time>2026-04-18T08:32:14Z</time></trkpt><trkpt lat="46.27578980660398" lon="13.132533636464451"><ele>195.39999999999998</ele><time>2026-04-18T08:32:15Z</time></trkpt><trkpt lat="46.27582121778432" lon="13.132671736994169"><ele>196.2</ele><time>2026-04-18T08:32:16Z</time></trkpt><trkpt lat="46.27585883333172" lon="13.1327880194049"><ele>197.0</ele><time>2026-04-18T08:32:17Z</time></trkpt><trkpt lat="46.275893453923075" lon="13.132901434731673"><ele>197.00000000000003</ele><time>2026-04-18T08:32:18Z</time></trkpt><trkpt lat="46.27592779861972" lon="13.133005293668717"><ele>197.0</ele><time>2026-04-18T08:32:19Z</time></trkpt><trkpt lat="46.275936796528896" lon="13.133124559372934"><ele>197.0</ele><time>2026-04-18T08:32:20Z</time></trkpt><trkpt lat="46.27592428225006" lon="13.1332537777468"><ele>197.0</ele><time>2026-04-18T08:32:21Z</time></trkpt><trkpt lat="46.275898274876354" lon="13.133392697042538"><ele>197.00000000000003</ele><time>2026-04-18T08:32:22Z</time></trkpt><trkpt lat="46.27585701525034" lon="13.133516517228138"><ele>197.0</ele><time>2026-04-18T08:32:23Z</time></trkpt><trkpt lat="46.27580559432683" lon="13.133634090506058"><ele>197.0</ele><time>2026-04-18T08:32:24Z</time></trkpt><trkpt lat="46.27573008460012" lon="13.133740341055551"><ele>197.0</ele><time>2026-04-18T08:32:25Z</time></trkpt><trkpt lat="46.27565386076055" lon="13.133839531857483"><ele>197.0</ele><time>2026-04-18T08:32:26Z</time></trkpt><trkpt lat="46.27558916861609" lon="13.133932745345298"><ele>197.0</ele><time>2026-04-18T08:32:27Z</time></trkpt><trkpt lat="46.27552614511428" lon="13.134020656083502"><ele>197.0</ele><time>2026-04-18T08:32:28Z</time></trkpt><trkpt lat="46.27546626783745" lon="13.134102954469286"><ele>197.83333333333334</ele><time>2026-04-18T08:32:29Z</time></trkpt><trkpt lat="46.27540732927553" lon="13.134180384738697"><ele>198.66666666666669</ele><time>2026-04-18T08:32:30Z</time></trkpt><trkpt lat="46.27534502711499" lon="13.134250718004488"><ele>199.5</ele><time>2026-04-18T08:32:31Z</time></trkpt><trkpt lat="46.275302018679184" lon="13.134359522015103"><ele>200.33333333333331</ele><time>2026-04-18T08:32:32Z</time></trkpt><trkpt lat="46.27527345250803" lon="13.134479553813945"><ele>201.16666666666666</ele><time>2026-04-18T08:32:33Z</time></trkpt><trkpt lat="46.27526224811884" lon="13.134607210870493"><ele>202.0</ele><time>2026-04-18T08:32:34Z</time></trkpt><trkpt lat="46.275262729574465" lon="13.134735243141364"><ele>201.99999999999997</ele><time>2026-04-18T08:32:35Z</time></trkpt><trkpt lat="46.27528667178591" lon="13.134865851815713"><ele>202.0</ele><time>2026-04-18T08:32:36Z</time></trkpt><trkpt lat="46.275333512152976" lon="13.13498466399935"><ele>202.0</ele><time>2026-04-18T08:32:37Z</time></trkpt><trkpt lat="46.27540299304739" lon="13.135063451399674"><ele>202.0</ele><time>2026-04-18T08:32:38Z</time></trkpt><trkpt lat="46.275458789272946" lon="13.135156229437772"><ele>201.99999999999997</ele><time>2026-04-18T08:32:39Z</time></trkpt><trkpt lat="46.275538450799075" lon="13.135206768092573"><ele>202.0</ele><time>2026-04-18T08:32:40Z</time></trkpt><trkpt lat="46.275623632971914" lon="13.135229771394553"><ele>204.0</ele><time>2026-04-18T08:32:41Z</time></trkpt><trkpt lat="46.27571129250993" lon="13.13520185386922"><ele>206.0</ele><time>2026-04-18T08:32:42Z</time></trkpt><trkpt lat="46.275801865892305" lon="13.135179264761943"><ele>208.0</ele><time>2026-04-18T08:32:43Z</time></trkpt><trkpt lat="46.27587034647986" lon="13.13515286596714"><ele>210.0</ele><time>2026-04-18T08:32:44Z</time></trkpt><trkpt lat="46.275968810319725" lon="13.135131135831864"><ele>212.0</ele><time>2026-04-18T08:32:46Z</time></trkpt><trkpt lat="46.27606647091803" lon="13.135105779021195"><ele>212.0</ele><time>2026-04-18T08:32:48Z</time></trkpt><trkpt lat="46.276130116716985" lon="13.135085768779337"><ele>212.0</ele><time>2026-04-18T08:32:49Z</time></trkpt><trkpt lat="46.27620534421516" lon="13.135057793278229"><ele>212.0</ele><time>2026-04-18T08:32:50Z</time></trkpt><trkpt lat="46.276294988750124" lon="13.135012258471857"><ele>212.0</ele><time>2026-04-18T08:32:51Z</time></trkpt><trkpt lat="46.27640092588312" lon="13.134950941036465"><ele>212.0</ele><time>2026-04-18T08:32:52Z</time></trkpt><trkpt lat="46.27652102224801" lon="13.134849080013868"><ele>212.25</ele><time>2026-04-18T08:32:52.999Z</time></trkpt><trkpt lat="46.276635143840494" lon="13.134746599697657"><ele>212.5</ele><time>2026-04-18T08:32:54Z</time></trkpt><trkpt lat="46.27673551734138" lon="13.13466070524431"><ele>212.75</ele><time>2026-04-18T08:32:55Z</time></trkpt><trkpt lat="46.276833527892784" lon="13.134593769958538"><ele>213.0</ele><time>2026-04-18T08:32:56Z</time></trkpt><trkpt lat="46.27693572764384" lon="13.134554735873788"><ele>213.0</ele><time>2026-04-18T08:32:57Z</time></trkpt><trkpt lat="46.27704104172771" lon="13.134553429497132"><ele>213.0</ele><time>2026-04-18T08:32:58Z</time></trkpt><trkpt lat="46.277134574285185" lon="13.134618031416124"><ele>213.0</ele><time>2026-04-18T08:32:59Z</time></trkpt><trkpt lat="46.277219194339956" lon="13.13470224139559"><ele>213.0</ele><time>2026-04-18T08:33:00Z</time></trkpt><trkpt lat="46.27729053313189" lon="13.13481451743804"><ele>213.0</ele><time>2026-04-18T08:33:01Z</time></trkpt><trkpt lat="46.27733661218248" lon="13.134933790640744"><ele>214.16666666666666</ele><time>2026-04-18T08:33:02Z</time></trkpt><trkpt lat="46.27735399107901" lon="13.135057827189133"><ele>215.33333333333331</ele><time>2026-04-18T08:33:03Z</time></trkpt><trkpt lat="46.277370676657696" lon="13.135163399563881"><ele>216.5</ele><time>2026-04-18T08:33:04Z</time></trkpt><trkpt lat="46.27735778022323" lon="13.135278585767344"><ele>217.66666666666666</ele><time>2026-04-18T08:33:05Z</time></trkpt><trkpt lat="46.27732499713202" lon="13.135387825897375"><ele>218.83333333333331</ele><time>2026-04-18T08:33:06Z</time></trkpt><trkpt lat="46.277272987641595" lon="13.13549487719304"><ele>220.0</ele><time>2026-04-18T08:33:07Z</time></trkpt><trkpt lat="46.277208201151566" lon="13.135598159149223"><ele>220.0</ele><time>2026-04-18T08:33:08Z</time></trkpt><trkpt lat="46.2771461604123" lon="13.135704966076519"><ele>220.0</ele><time>2026-04-18T08:33:09Z</time></trkpt><trkpt lat="46.27707287678414" lon="13.135821412642692"><ele>220.0</ele><time>2026-04-18T08:33:10Z</time></trkpt><trkpt lat="46.276994257250564" lon="13.135955739222014"><ele>220.0</ele><time>2026-04-18T08:33:11Z</time></trkpt><trkpt lat="46.27690674337419" lon="13.136101796968148"><ele>221.6</ele><time>2026-04-18T08:33:12Z</time></trkpt><trkpt lat="46.27684029351228" lon="13.136274612749265"><ele>223.2</ele><time>2026-04-18T08:33:13Z</time></trkpt><trkpt lat="46.276798678572945" lon="13.136433936405565"><ele>224.8</ele><time>2026-04-18T08:33:14Z</time></trkpt><trkpt lat="46.276753214390325" lon="13.136551764129413"><ele>226.4</ele><time>2026-04-18T08:33:15Z</time></trkpt><trkpt lat="46.27670828901317" lon="13.136665793370348"><ele>228.0</ele><time>2026-04-18T08:33:16Z</time></trkpt><trkpt lat="46.27666316488694" lon="13.13677164074285"><ele>227.8</ele><time>2026-04-18T08:33:17Z</time></trkpt><trkpt lat="46.27661935788623" lon="13.136877893452562"><ele>227.60000000000002</ele><time>2026-04-18T08:33:18Z</time></trkpt><trkpt lat="46.276582005893" lon="13.13698492331387"><ele>227.39999999999998</ele><time>2026-04-18T08:33:19Z</time></trkpt><trkpt lat="46.27653725051192" lon="13.137099182538858"><ele>227.2</ele><time>2026-04-18T08:33:20Z</time></trkpt><trkpt lat="46.27646768575836" lon="13.137215124615551"><ele>227.0</ele><time>2026-04-18T08:33:21Z</time></trkpt><trkpt lat="46.276389465781605" lon="13.137325117148686"><ele>227.39999999999998</ele><time>2026-04-18T08:33:22Z</time></trkpt><trkpt lat="46.27631205141634" lon="13.137424831626324"><ele>227.79999999999998</ele><time>2026-04-18T08:33:23Z</time></trkpt><trkpt lat="46.27623895109251" lon="13.137519231242864"><ele>228.2</ele><time>2026-04-18T08:33:24Z</time></trkpt><trkpt lat="46.27616883157965" lon="13.13761289313079"><ele>228.6</ele><time>2026-04-18T08:33:25Z</time></trkpt><trkpt lat="46.27610877688815" lon="13.137714223998639"><ele>229.0</ele><time>2026-04-18T08:33:26Z</time></trkpt><trkpt lat="46.27605471332991" lon="13.137824548678545"><ele>229.0</ele><time>2026-04-18T08:33:27Z</time></trkpt><trkpt lat="46.27599131780216" lon="13.137945945847832"><ele>228.99999999999997</ele><time>2026-04-18T08:33:28Z</time></trkpt><trkpt lat="46.275924943407205" lon="13.138066391109028"><ele>228.99999999999997</ele><time>2026-04-18T08:33:29Z</time></trkpt><trkpt lat="46.275873540428556" lon="13.138179797547997"><ele>229.0</ele><time>2026-04-18T08:33:30Z</time></trkpt><trkpt lat="46.27583221655146" lon="13.138289865000097"><ele>229.0</ele><time>2026-04-18T08:33:31Z</time></trkpt><trkpt lat="46.27579116740517" lon="13.138388591810687"><ele>228.83333333333331</ele><time>2026-04-18T08:33:32Z</time></trkpt><trkpt lat="46.27574047678152" lon="13.13846440544382"><ele>228.66666666666666</ele><time>2026-04-18T08:33:33Z</time></trkpt><trkpt lat="46.275680498173514" lon="13.138533187838625"><ele>228.5</ele><time>2026-04-18T08:33:34Z</time></trkpt><trkpt lat="46.275601068834966" lon="13.138555316985851"><ele>228.33333333333331</ele><time>2026-04-18T08:33:35Z</time></trkpt><trkpt lat="46.275527015614266" lon="13.138513273262884"><ele>228.16666666666666</ele><time>2026-04-18T08:33:36Z</time></trkpt><trkpt lat="46.27545196586041" lon="13.138513599115335"><ele>228.0</ele><time>2026-04-18T08:33:37Z</time></trkpt><trkpt lat="46.275377492127646" lon="13.138495242012713"><ele>228.0</ele><time>2026-04-18T08:33:38Z</time></trkpt><trkpt lat="46.27531010256549" lon="13.138458895915333"><ele>228.0</ele><time>2026-04-18T08:33:39Z</time></trkpt><trkpt lat="46.275181422235214" lon="13.138487568495531"><ele>228.0</ele><time>2026-04-18T08:33:41Z</time></trkpt><trkpt lat="46.275125905307384" lon="13.13853873063579"><ele>228.0</ele><time>2026-04-18T08:33:42Z</time></trkpt><trkpt lat="46.27504969198829" lon="13.138606630330253"><ele>228.0</ele><time>2026-04-18T08:33:44Z</time></trkpt><trkpt lat="46.275014505740735" lon="13.138723354262623"><ele>228.0</ele><time>2026-04-18T08:33:46Z</time></trkpt><trkpt lat="46.275071288891745" lon="13.13881963040195"><ele>228.0</ele><time>2026-04-18T08:33:48Z</time></trkpt><trkpt lat="46.27517437636573" lon="13.138780887575292"><ele>228.0</ele><time>2026-04-18T08:33:50Z</time></trkpt><trkpt lat="46.27523482384805" lon="13.138658126418136"><ele>228.0</ele><time>2026-04-18T08:33:52Z</time></trkpt><trkpt lat="46.27531062636537" lon="13.138587765027204"><ele>228.0</ele><time>2026-04-18T08:33:54Z</time></trkpt><trkpt lat="46.275379563192125" lon="13.138583362097757"><ele>228.0</ele><time>2026-04-18T08:33:55Z</time></trkpt><trkpt lat="46.27545654407156" lon="13.138650159321234"><ele>228.0</ele><time>2026-04-18T08:33:56Z</time></trkpt><trkpt lat="46.275527983877105" lon="13.138651871745525"><ele>228.0</ele><time>2026-04-18T08:33:57Z</time></trkpt><trkpt lat="46.27561043460828" lon="13.138692792500649"><ele>228.0</ele><time>2026-04-18T08:33:58Z</time></trkpt><trkpt lat="46.27568693729918" lon="13.13875058877171"><ele>228.0</ele><time>2026-04-18T08:33:59Z</time></trkpt><trkpt lat="46.2757496457673" lon="13.138780121660995"><ele>228.0</ele><time>2026-04-18T08:34:00Z</time></trkpt><trkpt lat="46.27584421368784" lon="13.138807938506451"><ele>228.0</ele><time>2026-04-18T08:34:02Z</time></trkpt><trkpt lat="46.27592822284852" lon="13.138852172538282"><ele>231.2</ele><time>2026-04-18T08:34:04Z</time></trkpt><trkpt lat="46.27601310653036" lon="13.138908169050008"><ele>234.4</ele><time>2026-04-18T08:34:06Z</time></trkpt><trkpt lat="46.27610410470561" lon="13.13900064930441"><ele>237.59999999999997</ele><time>2026-04-18T08:34:08Z</time></trkpt><trkpt lat="46.2761574320261" lon="13.139072469761945"><ele>240.79999999999998</ele><time>2026-04-18T08:34:09Z</time></trkpt><trkpt lat="46.276217974939506" lon="13.139155663056423"><ele>244.0</ele><time>2026-04-18T08:34:10Z</time></trkpt><trkpt lat="46.27629089660176" lon="13.139245707971002"><ele>247.16666666666666</ele><time>2026-04-18T08:34:11Z</time></trkpt><trkpt lat="46.27636092928763" lon="13.139337204896185"><ele>250.33333333333331</ele><time>2026-04-18T08:34:12Z</time></trkpt><trkpt lat="46.27642670033917" lon="13.139428695374995"><ele>253.5</ele><time>2026-04-18T08:34:13Z</time></trkpt><trkpt lat="46.27648705676269" lon="13.139513227366677"><ele>256.6666666666667</ele><time>2026-04-18T08:34:14Z</time></trkpt><trkpt lat="46.27654290157734" lon="13.13959294876529"><ele>259.83333333333337</ele><time>2026-04-18T08:34:15Z</time></trkpt><trkpt lat="46.2765939995355" lon="13.139662762059869"><ele>263.0</ele><time>2026-04-18T08:34:16Z</time></trkpt><trkpt lat="46.27664412423453" lon="13.139728097283033"><ele>263.0</ele><time>2026-04-18T08:34:17Z</time></trkpt><trkpt lat="46.276691912725596" lon="13.1397965329596"><ele>263.0</ele><time>2026-04-18T08:34:18Z</time></trkpt><trkpt lat="46.27675423254442" lon="13.139893416586473"><ele>263.0</ele><time>2026-04-18T08:34:20Z</time></trkpt><trkpt lat="46.27679544033588" lon="13.139968741891403"><ele>263.0</ele><time>2026-04-18T08:34:22Z</time></trkpt><trkpt lat="46.27684317366435" lon="13.140046189306815"><ele>263.0</ele><time>2026-04-18T08:34:25Z</time></trkpt><trkpt lat="46.27689413186692" lon="13.140125314753252"><ele>263.0</ele><time>2026-04-18T08:34:27Z</time></trkpt><trkpt lat="46.2769582740614" lon="13.140202656250286"><ele>265.0</ele><time>2026-04-18T08:34:29Z</time></trkpt><trkpt lat="46.27707225497614" lon="13.140138434334473"><ele>267.0</ele><time>2026-04-18T08:34:31Z</time></trkpt><trkpt lat="46.277155450720066" lon="13.140094532162589"><ele>269.0</ele><time>2026-04-18T08:34:33Z</time></trkpt><trkpt lat="46.27723912722379" lon="13.140058719560301"><ele>271.0</ele><time>2026-04-18T08:34:35Z</time></trkpt><trkpt lat="46.27730819662766" lon="13.140038655679222"><ele>273.0</ele><time>2026-04-18T08:34:37Z</time></trkpt><trkpt lat="46.277376922580565" lon="13.140020162557894"><ele>275.0</ele><time>2026-04-18T08:34:39Z</time></trkpt><trkpt lat="46.277457320263586" lon="13.140021618546495"><ele>275.0</ele><time>2026-04-18T08:34:41Z</time></trkpt><trkpt lat="46.2775349524508" lon="13.140002481726365"><ele>275.0</ele><time>2026-04-18T08:34:43Z</time></trkpt><trkpt lat="46.277599254754506" lon="13.139986630809604"><ele>275.0</ele><time>2026-04-18T08:34:45Z</time></trkpt><trkpt lat="46.277671832685385" lon="13.139990836507923"><ele>275.0</ele><time>2026-04-18T08:34:47Z</time></trkpt><trkpt lat="46.2777446614172" lon="13.13998854104148"><ele>275.0</ele><time>2026-04-18T08:34:48.999Z</time></trkpt><trkpt lat="46.27782165647129" lon="13.139991243778313"><ele>275.0</ele><time>2026-04-18T08:34:50.999Z</time></trkpt><trkpt lat="46.27789157156944" lon="13.139988402287345"><ele>275.0</ele><time>2026-04-18T08:34:52.999Z</time></trkpt><trkpt lat="46.27796546814831" lon="13.139970116749362"><ele>275.0</ele><time>2026-04-18T08:34:54.999Z</time></trkpt><trkpt lat="46.278042402495" lon="13.139931057246578"><ele>275.0</ele><time>2026-04-18T08:34:56.999Z</time></trkpt><trkpt lat="46.278112159190236" lon="13.13988136036387"><ele>275.0</ele><time>2026-04-18T08:34:58.999Z</time></trkpt><trkpt lat="46.278179905134785" lon="13.139834122855767"><ele>275.0</ele><time>2026-04-18T08:35:01Z</time></trkpt><trkpt lat="46.278251934353264" lon="13.139782044678672"><ele>275.0</ele><time>2026-04-18T08:35:03Z</time></trkpt><trkpt lat="46.278321678299434" lon="13.13971193158491"><ele>275.0</ele><time>2026-04-18T08:35:05Z</time></trkpt><trkpt lat="46.27840667711218" lon="13.139662814084296"><ele>274.5</ele><time>2026-04-18T08:35:07Z</time></trkpt><trkpt lat="46.27848745381946" lon="13.139594648390057"><ele>274.0</ele><time>2026-04-18T08:35:09Z</time></trkpt><trkpt lat="46.27855032003114" lon="13.13954108061789"><ele>273.5</ele><time>2026-04-18T08:35:11Z</time></trkpt><trkpt lat="46.27862317325603" lon="13.139509749974026"><ele>273.0</ele><time>2026-04-18T08:35:13Z</time></trkpt><trkpt lat="46.278800923946314" lon="13.139282963944668"><ele>273.0</ele><time>2026-04-18T08:36:34Z</time></trkpt><trkpt lat="46.27886164611852" lon="13.139225197338005"><ele>273.0</ele><time>2026-04-18T08:36:35Z</time></trkpt><trkpt lat="46.27893819980334" lon="13.139221287967459"><ele>273.0</ele><time>2026-04-18T08:36:36Z</time></trkpt><trkpt lat="46.27902251073443" lon="13.139135061972931"><ele>273.0</ele><time>2026-04-18T08:36:38Z</time></trkpt><trkpt lat="46.27908170747857" lon="13.139059191778331"><ele>273.0</ele><time>2026-04-18T08:36:40Z</time></trkpt><trkpt lat="46.279137837467324" lon="13.138971443713427"><ele>273.0</ele><time>2026-04-18T08:36:42Z</time></trkpt><trkpt lat="46.279168788909985" lon="13.138868925853018"><ele>273.0</ele><time>2026-04-18T08:36:44Z</time></trkpt><trkpt lat="46.27922507411003" lon="13.13877668181933"><ele>273.0</ele><time>2026-04-18T08:36:46Z</time></trkpt><trkpt lat="46.27929353838668" lon="13.138672370105327"><ele>273.0</ele><time>2026-04-18T08:36:47.999Z</time></trkpt><trkpt lat="46.27936861372002" lon="13.138554468510488"><ele>273.0</ele><time>2026-04-18T08:36:49.999Z</time></trkpt><trkpt lat="46.27943639226381" lon="13.138520711168047"><ele>273.0</ele><time>2026-04-18T08:36:50.999Z</time></trkpt><trkpt lat="46.27950600847039" lon="13.138422863852872"><ele>273.0</ele><time>2026-04-18T08:36:52.999Z</time></trkpt><trkpt lat="46.279570946992585" lon="13.13831888193603"><ele>273.0</ele><time>2026-04-18T08:36:54.999Z</time></trkpt><trkpt lat="46.27963504620861" lon="13.138210805868532"><ele>273.0</ele><time>2026-04-18T08:36:56.999Z</time></trkpt><trkpt lat="46.279697106701796" lon="13.138114827225454"><ele>273.0</ele><time>2026-04-18T08:36:58.999Z</time></trkpt><trkpt lat="46.279769944688645" lon="13.138030797210021"><ele>273.0</ele><time>2026-04-18T08:37:00.999Z</time></trkpt><trkpt lat="46.279845320884824" lon="13.137937752685357"><ele>272.8</ele><time>2026-04-18T08:37:02.999Z</time></trkpt><trkpt lat="46.27992188835426" lon="13.137843239280874"><ele>272.6</ele><time>2026-04-18T08:37:04.999Z</time></trkpt><trkpt lat="46.27999403615167" lon="13.137716624878028"><ele>272.4</ele><time>2026-04-18T08:37:07Z</time></trkpt><trkpt lat="46.280079593754806" lon="13.137598035481366"><ele>272.2</ele><time>2026-04-18T08:37:09Z</time></trkpt><trkpt lat="46.28015635343728" lon="13.137481489288259"><ele>272.0</ele><time>2026-04-18T08:37:11Z</time></trkpt><trkpt lat="46.28021278969946" lon="13.137356836770003"><ele>269.8</ele><time>2026-04-18T08:37:13Z</time></trkpt><trkpt lat="46.2802582132795" lon="13.137228643112326"><ele>267.6</ele><time>2026-04-18T08:37:15Z</time></trkpt><trkpt lat="46.2802974361903" lon="13.137087516112521"><ele>265.40000000000003</ele><time>2026-04-18T08:37:17Z</time></trkpt><trkpt lat="46.28035639671734" lon="13.13694228148157"><ele>263.2</ele><time>2026-04-18T08:37:19Z</time></trkpt><trkpt lat="46.28039903389576" lon="13.136869401021675"><ele>261.0</ele><time>2026-04-18T08:37:20Z</time></trkpt><trkpt lat="46.28045896861002" lon="13.136810335515873"><ele>261.0</ele><time>2026-04-18T08:37:21Z</time></trkpt><trkpt lat="46.280520133983195" lon="13.136752325333259"><ele>261.0</ele><time>2026-04-18T08:37:22Z</time></trkpt><trkpt lat="46.28058027292494" lon="13.136680983401565"><ele>261.0</ele><time>2026-04-18T08:37:23Z</time></trkpt><trkpt lat="46.28064413653525" lon="13.136612735264851"><ele>261.0</ele><time>2026-04-18T08:37:24Z</time></trkpt><trkpt lat="46.28070145217416" lon="13.136543121497997"><ele>261.0</ele><time>2026-04-18T08:37:25Z</time></trkpt><trkpt lat="46.28076819623557" lon="13.136492211164768"><ele>261.0</ele><time>2026-04-18T08:37:26Z</time></trkpt><trkpt lat="46.28083452226555" lon="13.136413867517753"><ele>260.8333333333333</ele><time>2026-04-18T08:37:27Z</time></trkpt><trkpt lat="46.28089923235934" lon="13.13633609585685"><ele>260.6666666666667</ele><time>2026-04-18T08:37:28Z</time></trkpt><trkpt lat="46.28095927724008" lon="13.136262837176455"><ele>260.5</ele><time>2026-04-18T08:37:29Z</time></trkpt><trkpt lat="46.28100752029943" lon="13.136173499210704"><ele>260.33333333333337</ele><time>2026-04-18T08:37:30Z</time></trkpt><trkpt lat="46.28106790017669" lon="13.136112890536209"><ele>260.1666666666667</ele><time>2026-04-18T08:37:31Z</time></trkpt><trkpt lat="46.281122750024174" lon="13.136045403419097"><ele>260.0</ele><time>2026-04-18T08:37:32Z</time></trkpt><trkpt lat="46.28117439927853" lon="13.1359822991721"><ele>260.0</ele><time>2026-04-18T08:37:33Z</time></trkpt><trkpt lat="46.28122478581043" lon="13.135923424005439"><ele>260.0</ele><time>2026-04-18T08:37:34Z</time></trkpt><trkpt lat="46.281311948093325" lon="13.135814222235684"><ele>260.0</ele><time>2026-04-18T08:37:36Z</time></trkpt><trkpt lat="46.28136655512009" lon="13.135742257605601"><ele>260.0</ele><time>2026-04-18T08:37:38Z</time></trkpt><trkpt lat="46.281421292871045" lon="13.135673005282623"><ele>260.0</ele><time>2026-04-18T08:37:42Z</time></trkpt><trkpt lat="46.281480690874375" lon="13.135626681280133"><ele>260.0</ele><time>2026-04-18T08:37:44Z</time></trkpt><trkpt lat="46.28141808109511" lon="13.135501789792162"><ele>258.0</ele><time>2026-04-18T08:37:45Z</time></trkpt><trkpt lat="46.28132237414449" lon="13.135412902747328"><ele>256.0</ele><time>2026-04-18T08:37:47Z</time></trkpt><trkpt lat="46.28120364590979" lon="13.135445266167528"><ele>254.0</ele><time>2026-04-18T08:37:49Z</time></trkpt><trkpt lat="46.28114128832661" lon="13.13550406741281"><ele>252.0</ele><time>2026-04-18T08:37:50Z</time></trkpt><trkpt lat="46.28107203098114" lon="13.135559413639958"><ele>250.0</ele><time>2026-04-18T08:37:51Z</time></trkpt><trkpt lat="46.2809991773053" lon="13.13560565469668"><ele>249.99999999999997</ele><time>2026-04-18T08:37:52Z</time></trkpt><trkpt lat="46.280929181912235" lon="13.135650449942984"><ele>250.0</ele><time>2026-04-18T08:37:53Z</time></trkpt><trkpt lat="46.280861249753116" lon="13.13569357023949"><ele>250.0</ele><time>2026-04-18T08:37:54Z</time></trkpt><trkpt lat="46.28079728597351" lon="13.135722691788798"><ele>250.0</ele><time>2026-04-18T08:37:55Z</time></trkpt><trkpt lat="46.28068637201924" lon="13.135765669862478"><ele>249.99999999999997</ele><time>2026-04-18T08:37:57Z</time></trkpt><trkpt lat="46.28059196590084" lon="13.135769098974473"><ele>250.0</ele><time>2026-04-18T08:37:59Z</time></trkpt><trkpt lat="46.28049223606489" lon="13.135764882181434"><ele>250.6</ele><time>2026-04-18T08:38:01Z</time></trkpt><trkpt lat="46.28038915770839" lon="13.135764053985037"><ele>251.2</ele><time>2026-04-18T08:38:03Z</time></trkpt><trkpt lat="46.28029987232862" lon="13.135761398823837"><ele>251.8</ele><time>2026-04-18T08:38:05Z</time></trkpt><trkpt lat="46.28020604697438" lon="13.135767567184118"><ele>252.4</ele><time>2026-04-18T08:38:07Z</time></trkpt><trkpt lat="46.28010200626855" lon="13.135814552506572"><ele>253.0</ele><time>2026-04-18T08:38:09Z</time></trkpt><trkpt lat="46.28001140375503" lon="13.135867399655217"><ele>253.0</ele><time>2026-04-18T08:38:11Z</time></trkpt><trkpt lat="46.27992812104213" lon="13.13592542774719"><ele>253.0</ele><time>2026-04-18T08:38:13Z</time></trkpt><trkpt lat="46.27983221848052" lon="13.135984316561544"><ele>253.0</ele><time>2026-04-18T08:38:15Z</time></trkpt><trkpt lat="46.27972886870103" lon="13.136051244030542"><ele>253.0</ele><time>2026-04-18T08:38:17Z</time></trkpt><trkpt lat="46.279625301194514" lon="13.136116234118646"><ele>253.0</ele><time>2026-04-18T08:38:19Z</time></trkpt><trkpt lat="46.27956531155724" lon="13.136153729178098"><ele>251.99999999999997</ele><time>2026-04-18T08:38:20Z</time></trkpt><trkpt lat="46.27947042106353" lon="13.136213884762908"><ele>251.0</ele><time>2026-04-18T08:38:22Z</time></trkpt><trkpt lat="46.279406787981706" lon="13.136278287016973"><ele>250.0</ele><time>2026-04-18T08:38:24Z</time></trkpt><trkpt lat="46.27932908392695" lon="13.136323616146562"><ele>249.0</ele><time>2026-04-18T08:38:28Z</time></trkpt><trkpt lat="46.27926803335612" lon="13.13629338369241"><ele>247.99999999999997</ele><time>2026-04-18T08:38:31Z</time></trkpt><trkpt lat="46.279234255311174" lon="13.136148764136989"><ele>247.0</ele><time>2026-04-18T08:38:33Z</time></trkpt><trkpt lat="46.279198775332645" lon="13.136005544057062"><ele>246.99999999999997</ele><time>2026-04-18T08:38:35Z</time></trkpt><trkpt lat="46.27917495806386" lon="13.13587194679344"><ele>247.0</ele><time>2026-04-18T08:38:37Z</time></trkpt><trkpt lat="46.27916799803103" lon="13.135749988700313"><ele>247.0</ele><time>2026-04-18T08:38:39Z</time></trkpt><trkpt lat="46.279167115054726" lon="13.13565869439567"><ele>247.0</ele><time>2026-04-18T08:38:41Z</time></trkpt><trkpt lat="46.27914838085978" lon="13.135557081500304"><ele>246.99999999999997</ele><time>2026-04-18T08:38:45.999Z</time></trkpt><trkpt lat="46.27912811140872" lon="13.135443244004541"><ele>247.0</ele><time>2026-04-18T08:38:49.999Z</time></trkpt><trkpt lat="46.27917925802677" lon="13.135349649164354"><ele>245.39999999999998</ele><time>2026-04-18T08:38:51.999Z</time></trkpt><trkpt lat="46.27920837096167" lon="13.135232580152458"><ele>243.79999999999998</ele><time>2026-04-18T08:38:53.999Z</time></trkpt><trkpt lat="46.27923588961501" lon="13.135110127585595"><ele>242.2</ele><time>2026-04-18T08:38:55.999Z</time></trkpt><trkpt lat="46.27926125453343" lon="13.134982009773756"><ele>240.6</ele><time>2026-04-18T08:38:57.999Z</time></trkpt><trkpt lat="46.27927767774182" lon="13.134848204729565"><ele>239.0</ele><time>2026-04-18T08:38:59.999Z</time></trkpt><trkpt lat="46.27929842015925" lon="13.134705276230209"><ele>237.79999999999998</ele><time>2026-04-18T08:39:01.999Z</time></trkpt><trkpt lat="46.27931435769546" lon="13.13461159582507"><ele>236.59999999999997</ele><time>2026-04-18T08:39:02.999Z</time></trkpt><trkpt lat="46.2793332352632" lon="13.134499309236658"><ele>235.4</ele><time>2026-04-18T08:39:03.999Z</time></trkpt><trkpt lat="46.27936439533397" lon="13.134383200007747"><ele>234.2</ele><time>2026-04-18T08:39:04.999Z</time></trkpt><trkpt lat="46.27940680319713" lon="13.134250699557668"><ele>233.0</ele><time>2026-04-18T08:39:05.999Z</time></trkpt><trkpt lat="46.279450354899275" lon="13.1340895845708"><ele>231.5</ele><time>2026-04-18T08:39:06.999Z</time></trkpt><trkpt lat="46.27950665755599" lon="13.133906005906026"><ele>230.0</ele><time>2026-04-18T08:39:07.999Z</time></trkpt><trkpt lat="46.27955481845198" lon="13.133742798274215"><ele>228.5</ele><time>2026-04-18T08:39:08.999Z</time></trkpt><trkpt lat="46.27959562619767" lon="13.133600586704304"><ele>227.0</ele><time>2026-04-18T08:39:09.999Z</time></trkpt><trkpt lat="46.279628322370094" lon="13.133481795699918"><ele>227.00000000000003</ele><time>2026-04-18T08:39:11Z</time></trkpt><trkpt lat="46.279654636502684" lon="13.133383509736516"><ele>227.0</ele><time>2026-04-18T08:39:12Z</time></trkpt><trkpt lat="46.27966873762643" lon="13.133288714141944"><ele>227.0</ele><time>2026-04-18T08:39:13Z</time></trkpt><trkpt lat="46.27963593817613" lon="13.133187184724218"><ele>227.0</ele><time>2026-04-18T08:39:14Z</time></trkpt><trkpt lat="46.279583746351584" lon="13.133109051315344"><ele>227.00000000000003</ele><time>2026-04-18T08:39:15Z</time></trkpt><trkpt lat="46.279509184415495" lon="13.13306575881706"><ele>227.0</ele><time>2026-04-18T08:39:16Z</time></trkpt><trkpt lat="46.27943087575595" lon="13.13303918734098"><ele>225.0</ele><time>2026-04-18T08:39:17Z</time></trkpt><trkpt lat="46.279352613318956" lon="13.133008614148046"><ele>223.0</ele><time>2026-04-18T08:39:18Z</time></trkpt><trkpt lat="46.279268737309394" lon="13.132968569057795"><ele>221.0</ele><time>2026-04-18T08:39:19Z</time></trkpt><trkpt lat="46.27919045705666" lon="13.132901717133695"><ele>219.0</ele><time>2026-04-18T08:39:20Z</time></trkpt><trkpt lat="46.27911654993713" lon="13.132820438212377"><ele>217.0</ele><time>2026-04-18T08:39:21Z</time></trkpt><trkpt lat="46.27904583039605" lon="13.132724685443689"><ele>217.0</ele><time>2026-04-18T08:39:22Z</time></trkpt><trkpt lat="46.27895971943498" lon="13.132631900141634"><ele>217.0</ele><time>2026-04-18T08:39:23Z</time></trkpt><trkpt lat="46.278871438386865" lon="13.13254345418618"><ele>217.0</ele><time>2026-04-18T08:39:24Z</time></trkpt><trkpt lat="46.27878633232776" lon="13.13247284679263"><ele>217.0</ele><time>2026-04-18T08:39:25Z</time></trkpt><trkpt lat="46.278700907189574" lon="13.132411970097959"><ele>217.0</ele><time>2026-04-18T08:39:26Z</time></trkpt><trkpt lat="46.27863372393094" lon="13.132350578023212"><ele>215.33333333333331</ele><time>2026-04-18T08:39:27Z</time></trkpt><trkpt lat="46.278575512688896" lon="13.132275956439955"><ele>213.66666666666666</ele><time>2026-04-18T08:39:28Z</time></trkpt><trkpt lat="46.27853727355296" lon="13.132162896528616"><ele>212.0</ele><time>2026-04-18T08:39:29Z</time></trkpt><trkpt lat="46.27852281217479" lon="13.132025705540336"><ele>210.33333333333331</ele><time>2026-04-18T08:39:30Z</time></trkpt><trkpt lat="46.27851480496597" lon="13.131896923682092"><ele>208.66666666666666</ele><time>2026-04-18T08:39:31Z</time></trkpt><trkpt lat="46.27850662656418" lon="13.131773918473343"><ele>207.0</ele><time>2026-04-18T08:39:32Z</time></trkpt><trkpt lat="46.27849553739301" lon="13.131667500191309"><ele>207.0</ele><time>2026-04-18T08:39:33Z</time></trkpt><trkpt lat="46.2784778884651" lon="13.131559043971702"><ele>207.0</ele><time>2026-04-18T08:39:34Z</time></trkpt><trkpt lat="46.27844460678176" lon="13.131459461714652"><ele>207.0</ele><time>2026-04-18T08:39:35Z</time></trkpt><trkpt lat="46.27840017241102" lon="13.131364220855232"><ele>207.0</ele><time>2026-04-18T08:39:36Z</time></trkpt><trkpt lat="46.27835052912228" lon="13.131265922545559"><ele>207.0</ele><time>2026-04-18T08:39:37Z</time></trkpt><trkpt lat="46.278304047341145" lon="13.131163802275676"><ele>207.0</ele><time>2026-04-18T08:39:38Z</time></trkpt><trkpt lat="46.278263501149084" lon="13.131057080844894"><ele>206.33333333333334</ele><time>2026-04-18T08:39:39Z</time></trkpt><trkpt lat="46.27822740600401" lon="13.130946741635652"><ele>205.66666666666669</ele><time>2026-04-18T08:39:40Z</time></trkpt><trkpt lat="46.27819447186883" lon="13.130838176676823"><ele>205.0</ele><time>2026-04-18T08:39:41Z</time></trkpt><trkpt lat="46.27815941558334" lon="13.130729035872967"><ele>204.33333333333334</ele><time>2026-04-18T08:39:42Z</time></trkpt><trkpt lat="46.278118869612086" lon="13.130610308447247"><ele>203.66666666666669</ele><time>2026-04-18T08:39:43Z</time></trkpt><trkpt lat="46.278073258476596" lon="13.13048002732576"><ele>203.0</ele><time>2026-04-18T08:39:44Z</time></trkpt><trkpt lat="46.27802968700626" lon="13.130334918604014"><ele>201.75</ele><time>2026-04-18T08:39:45Z</time></trkpt><trkpt lat="46.27797923688621" lon="13.13017905136934"><ele>200.5</ele><time>2026-04-18T08:39:46Z</time></trkpt><trkpt lat="46.277923718296655" lon="13.130016258102412"><ele>199.25</ele><time>2026-04-18T08:39:47Z</time></trkpt><trkpt lat="46.277879420013825" lon="13.129863314640243"><ele>198.0</ele><time>2026-04-18T08:39:48Z</time></trkpt><trkpt lat="46.27783268129396" lon="13.129724355053146"><ele>197.4</ele><time>2026-04-18T08:39:49Z</time></trkpt><trkpt lat="46.27779207933655" lon="13.129588353923836"><ele>196.8</ele><time>2026-04-18T08:39:50Z</time></trkpt><trkpt lat="46.27775531030463" lon="13.129450116905366"><ele>196.2</ele><time>2026-04-18T08:39:51Z</time></trkpt><trkpt lat="46.277722829595064" lon="13.129309826122197"><ele>195.6</ele><time>2026-04-18T08:39:52Z</time></trkpt><trkpt lat="46.27769676440358" lon="13.129167771384472"><ele>195.0</ele><time>2026-04-18T08:39:53Z</time></trkpt><trkpt lat="46.27768301976354" lon="13.129034922988692"><ele>195.0</ele><time>2026-04-18T08:39:54Z</time></trkpt><trkpt lat="46.27766004272988" lon="13.128910700475798"><ele>195.0</ele><time>2026-04-18T08:39:55Z</time></trkpt><trkpt lat="46.27763693992627" lon="13.12879389006956"><ele>195.0</ele><time>2026-04-18T08:39:56Z</time></trkpt><trkpt lat="46.27761232386645" lon="13.128687033907296"><ele>195.0</ele><time>2026-04-18T08:39:57Z</time></trkpt><trkpt lat="46.27758973284584" lon="13.128590578387445"><ele>195.0</ele><time>2026-04-18T08:39:58Z</time></trkpt><trkpt lat="46.27757034960186" lon="13.12850202918576"><ele>195.0</ele><time>2026-04-18T08:39:59Z</time></trkpt><trkpt lat="46.27753042772864" lon="13.12833861459915"><ele>195.0</ele><time>2026-04-18T08:40:01Z</time></trkpt><trkpt lat="46.27751171268373" lon="13.128245981284557"><ele>195.0</ele><time>2026-04-18T08:40:02Z</time></trkpt><trkpt lat="46.277491303854504" lon="13.128141237622696"><ele>195.0</ele><time>2026-04-18T08:40:03Z</time></trkpt><trkpt lat="46.27746678058582" lon="13.12802529928868"><ele>195.0</ele><time>2026-04-18T08:40:04Z</time></trkpt><trkpt lat="46.27743316379662" lon="13.127902637254946"><ele>195.0</ele><time>2026-04-18T08:40:05Z</time></trkpt><trkpt lat="46.277399698933955" lon="13.12777431432808"><ele>195.0</ele><time>2026-04-18T08:40:06Z</time></trkpt><trkpt lat="46.27737258764771" lon="13.127651995134007"><ele>195.0</ele><time>2026-04-18T08:40:07Z</time></trkpt><trkpt lat="46.27734262563762" lon="13.127547143316436"><ele>195.0</ele><time>2026-04-18T08:40:08Z</time></trkpt><trkpt lat="46.27731984048731" lon="13.127457488404742"><ele>195.0</ele><time>2026-04-18T08:40:09Z</time></trkpt><trkpt lat="46.27729508347991" lon="13.127354717650553"><ele>195.0</ele><time>2026-04-18T08:40:11Z</time></trkpt><trkpt lat="46.277267135299745" lon="13.127232854791165"><ele>195.0</ele><time>2026-04-18T08:40:37Z</time></trkpt><trkpt lat="46.277137917321184" lon="13.127176204142605"><ele>195.0</ele><time>2026-04-18T08:40:40Z</time></trkpt><trkpt lat="46.27706726104808" lon="13.127223156445549"><ele>195.0</ele><time>2026-04-18T08:40:41Z</time></trkpt><trkpt lat="46.27698486062672" lon="13.127265474105558"><ele>195.0</ele><time>2026-04-18T08:40:42Z</time></trkpt><trkpt lat="46.2768905504564" lon="13.127313744366283"><ele>195.0</ele><time>2026-04-18T08:40:43Z</time></trkpt><trkpt lat="46.27680517419041" lon="13.127360452326743"><ele>195.0</ele><time>2026-04-18T08:40:44Z</time></trkpt><trkpt lat="46.27672854317463" lon="13.12740261113483"><ele>195.0</ele><time>2026-04-18T08:40:45Z</time></trkpt><trkpt lat="46.276653160402944" lon="13.127444036555822"><ele>195.0</ele><time>2026-04-18T08:40:46Z</time></trkpt><trkpt lat="46.27657785428927" lon="13.127486221559636"><ele>195.2</ele><time>2026-04-18T08:40:47Z</time></trkpt><trkpt lat="46.27649900162359" lon="13.127532242149751"><ele>195.4</ele><time>2026-04-18T08:40:48Z</time></trkpt><trkpt lat="46.27641104296119" lon="13.127575125100696"><ele>195.60000000000002</ele><time>2026-04-18T08:40:48.999Z</time></trkpt><trkpt lat="46.27632103802552" lon="13.127618172573003"><ele>195.8</ele><time>2026-04-18T08:40:49.999Z</time></trkpt><trkpt lat="46.276225109476755" lon="13.127667359838869"><ele>196.0</ele><time>2026-04-18T08:40:50.999Z</time></trkpt><trkpt lat="46.276129162389296" lon="13.127716533112231"><ele>195.60000000000002</ele><time>2026-04-18T08:40:51.999Z</time></trkpt><trkpt lat="46.27603554053464" lon="13.127764309854076"><ele>195.2</ele><time>2026-04-18T08:40:52.999Z</time></trkpt><trkpt lat="46.2759419822792" lon="13.127814107641088"><ele>194.8</ele><time>2026-04-18T08:40:53.999Z</time></trkpt><trkpt lat="46.27585039012391" lon="13.127861544545853"><ele>194.39999999999998</ele><time>2026-04-18T08:40:54.999Z</time></trkpt><trkpt lat="46.27576011091373" lon="13.127916802596465"><ele>194.0</ele><time>2026-04-18T08:40:55.999Z</time></trkpt><trkpt lat="46.27567040381076" lon="13.12797064974552"><ele>194.0</ele><time>2026-04-18T08:40:56.999Z</time></trkpt><trkpt lat="46.27558117198125" lon="13.128018801151672"><ele>194.0</ele><time>2026-04-18T08:40:57.999Z</time></trkpt><trkpt lat="46.275490331407575" lon="13.128062288952423"><ele>194.0</ele><time>2026-04-18T08:40:58.999Z</time></trkpt><trkpt lat="46.27539848147867" lon="13.128104692938912"><ele>194.0</ele><time>2026-04-18T08:40:59.999Z</time></trkpt><trkpt lat="46.27530930892432" lon="13.128152093511565"><ele>194.0</ele><time>2026-04-18T08:41:00.999Z</time></trkpt><trkpt lat="46.27521834587725" lon="13.128198322612455"><ele>194.00000000000003</ele><time>2026-04-18T08:41:01.999Z</time></trkpt><trkpt lat="46.27512788891772" lon="13.128239375226405"><ele>194.0</ele><time>2026-04-18T08:41:02.999Z</time></trkpt><trkpt lat="46.27504333240813" lon="13.128283660135676"><ele>194.0</ele><time>2026-04-18T08:41:03.999Z</time></trkpt><trkpt lat="46.274969075442" lon="13.128324551271024"><ele>194.0</ele><time>2026-04-18T08:41:04.999Z</time></trkpt><trkpt lat="46.27490040494052" lon="13.128359154105087"><ele>194.00000000000003</ele><time>2026-04-18T08:41:05.999Z</time></trkpt><trkpt lat="46.27482820704216" lon="13.12838775769569"><ele>194.0</ele><time>2026-04-18T08:41:06.999Z</time></trkpt><trkpt lat="46.27475945663004" lon="13.128422522832327"><ele>194.00000000000003</ele><time>2026-04-18T08:41:07.999Z</time></trkpt><trkpt lat="46.274692863436684" lon="13.128453098242954"><ele>194.0</ele><time>2026-04-18T08:41:08.999Z</time></trkpt><trkpt lat="46.27459564167927" lon="13.128481454001344"><ele>194.0</ele><time>2026-04-18T08:41:10.999Z</time></trkpt><trkpt lat="46.27453108197051" lon="13.1285019124582"><ele>194.0</ele><time>2026-04-18T08:41:13.999Z</time></trkpt><trkpt lat="46.27444017939854" lon="13.128525705955404"><ele>194.00000000000003</ele><time>2026-04-18T08:41:15.999Z</time></trkpt><trkpt lat="46.27437827159904" lon="13.128546683432074"><ele>194.0</ele><time>2026-04-18T08:41:17Z</time></trkpt><trkpt lat="46.27431281816573" lon="13.128593583201566"><ele>194.00000000000003</ele><time>2026-04-18T08:41:18Z</time></trkpt><trkpt lat="46.274240380854216" lon="13.128625299272505"><ele>194.0</ele><time>2026-04-18T08:41:19Z</time></trkpt><trkpt lat="46.274165392213355" lon="13.12864356924225"><ele>194.0</ele><time>2026-04-18T08:41:20Z</time></trkpt><trkpt lat="46.27408921045331" lon="13.128663241448141"><ele>194.0</ele><time>2026-04-18T08:41:21Z</time></trkpt><trkpt lat="46.274008392291115" lon="13.128678490745765"><ele>194.00000000000003</ele><time>2026-04-18T08:41:22Z</time></trkpt><trkpt lat="46.2739290615551" lon="13.128692632683997"><ele>194.0</ele><time>2026-04-18T08:41:23Z</time></trkpt><trkpt lat="46.273844908782" lon="13.12870890433546"><ele>193.79999999999998</ele><time>2026-04-18T08:41:24Z</time></trkpt><trkpt lat="46.27375524644252" lon="13.128727888727301"><ele>193.6</ele><time>2026-04-18T08:41:25Z</time></trkpt><trkpt lat="46.273659122368656" lon="13.128750464325083"><ele>193.4</ele><time>2026-04-18T08:41:26Z</time></trkpt><trkpt lat="46.273554658775794" lon="13.128773000027763"><ele>193.2</ele><time>2026-04-18T08:41:27Z</time></trkpt><trkpt lat="46.273437282194735" lon="13.128801934955426"><ele>193.0</ele><time>2026-04-18T08:41:28Z</time></trkpt><trkpt lat="46.273310938791504" lon="13.128841807147744"><ele>193.0</ele><time>2026-04-18T08:41:29Z</time></trkpt><trkpt lat="46.27319054458924" lon="13.128882591204745"><ele>193.0</ele><time>2026-04-18T08:41:30Z</time></trkpt><trkpt lat="46.27308352424995" lon="13.128920732716574"><ele>193.0</ele><time>2026-04-18T08:41:31Z</time></trkpt><trkpt lat="46.27297994379776" lon="13.128962464226205"><ele>193.0</ele><time>2026-04-18T08:41:32Z</time></trkpt><trkpt lat="46.272876937857404" lon="13.129007089091166"><ele>193.0</ele><time>2026-04-18T08:41:33Z</time></trkpt><trkpt lat="46.272774166907666" lon="13.12905096377467"><ele>193.0</ele><time>2026-04-18T08:41:34Z</time></trkpt><trkpt lat="46.27267421129874" lon="13.12909554688643"><ele>193.0</ele><time>2026-04-18T08:41:35Z</time></trkpt><trkpt lat="46.27257727651401" lon="13.12914119646192"><ele>193.0</ele><time>2026-04-18T08:41:36Z</time></trkpt><trkpt lat="46.272488600725424" lon="13.1291829851421"><ele>193.0</ele><time>2026-04-18T08:41:37Z</time></trkpt><trkpt lat="46.27240829354875" lon="13.129222810159714"><ele>193.0</ele><time>2026-04-18T08:41:38Z</time></trkpt><trkpt lat="46.27233349007843" lon="13.129262556738432"><ele>192.66666666666666</ele><time>2026-04-18T08:41:39Z</time></trkpt><trkpt lat="46.27226023054229" lon="13.129299355682276"><ele>192.33333333333331</ele><time>2026-04-18T08:41:40Z</time></trkpt><trkpt lat="46.27219536569309" lon="13.129331943127807"><ele>192.0</ele><time>2026-04-18T08:41:41Z</time></trkpt><trkpt lat="46.272135366717585" lon="13.129364299554133"><ele>191.66666666666666</ele><time>2026-04-18T08:41:42Z</time></trkpt><trkpt lat="46.27203427565496" lon="13.12941255393903"><ele>191.33333333333331</ele><time>2026-04-18T08:41:44Z</time></trkpt><trkpt lat="46.27194236982503" lon="13.12942419918636"><ele>191.0</ele><time>2026-04-18T08:41:46Z</time></trkpt><trkpt lat="46.271855487564835" lon="13.129444346830388"><ele>191.0</ele><time>2026-04-18T08:41:48Z</time></trkpt><trkpt lat="46.27180410584426" lon="13.129497010305515"><ele>191.0</ele><time>2026-04-18T08:41:50Z</time></trkpt><trkpt lat="46.27182643009676" lon="13.129648551182667"><ele>191.0</ele><time>2026-04-18T08:41:51Z</time></trkpt><trkpt lat="46.27184073027768" lon="13.129743594923303"><ele>191.0</ele><time>2026-04-18T08:41:52Z</time></trkpt><trkpt lat="46.271851191343586" lon="13.129844149750026"><ele>191.0</ele><time>2026-04-18T08:41:53Z</time></trkpt><trkpt lat="46.27187142121004" lon="13.129999022740673"><ele>191.0</ele><time>2026-04-18T08:41:55Z</time></trkpt><trkpt lat="46.271889862102476" lon="13.130093341460148"><ele>191.0</ele><time>2026-04-18T08:41:57Z</time></trkpt><trkpt lat="46.2718971853273" lon="13.130211197014601"><ele>191.0</ele><time>2026-04-18T08:42:22Z</time></trkpt><trkpt lat="46.27190778568443" lon="13.130321420179037"><ele>191.0</ele><time>2026-04-18T08:42:24Z</time></trkpt><trkpt lat="46.27192346006401" lon="13.130466945210951"><ele>191.0</ele><time>2026-04-18T08:42:26Z</time></trkpt><trkpt lat="46.2719280675087" lon="13.13060291962484"><ele>191.0</ele><time>2026-04-18T08:42:28Z</time></trkpt><trkpt lat="46.27192874485702" lon="13.13074853589958"><ele>191.0</ele><time>2026-04-18T08:42:30Z</time></trkpt><trkpt lat="46.27191377017148" lon="13.130906690900193"><ele>191.0</ele><time>2026-04-18T08:42:32Z</time></trkpt><trkpt lat="46.27193084842419" lon="13.131066465904201"><ele>191.0</ele><time>2026-04-18T08:42:34Z</time></trkpt><trkpt lat="46.27193322176543" lon="13.131222697974188"><ele>191.0</ele><time>2026-04-18T08:42:36Z</time></trkpt><trkpt lat="46.27194217349885" lon="13.13131345528008"><ele>191.0</ele><time>2026-04-18T08:42:37Z</time></trkpt><trkpt lat="46.27194332522633" lon="13.131423025549447"><ele>191.0</ele><time>2026-04-18T08:42:38Z</time></trkpt><trkpt lat="46.27196247952617" lon="13.131535315127591"><ele>191.0</ele><time>2026-04-18T08:42:39Z</time></trkpt><trkpt lat="46.271991855516774" lon="13.131657399047926"><ele>191.0</ele><time>2026-04-18T08:42:40Z</time></trkpt><trkpt lat="46.27203492179428" lon="13.13178006926709"><ele>191.0</ele><time>2026-04-18T08:42:41Z</time></trkpt><trkpt lat="46.272068227534746" lon="13.131911895714321"><ele>191.0</ele><time>2026-04-18T08:42:42Z</time></trkpt><trkpt lat="46.27210370896772" lon="13.132036672307727"><ele>191.0</ele><time>2026-04-18T08:42:43Z</time></trkpt><trkpt lat="46.27213653671037" lon="13.132152529991792"><ele>191.0</ele><time>2026-04-18T08:42:44Z</time></trkpt><trkpt lat="46.27216076513638" lon="13.13225959015935"><ele>191.0</ele><time>2026-04-18T08:42:45Z</time></trkpt><trkpt lat="46.272187018884765" lon="13.132368071135883"><ele>191.0</ele><time>2026-04-18T08:42:46Z</time></trkpt><trkpt lat="46.27221939795969" lon="13.13247626681458"><ele>191.0</ele><time>2026-04-18T08:42:47Z</time></trkpt><trkpt lat="46.27224875775038" lon="13.132586003274294"><ele>191.0</ele><time>2026-04-18T08:42:48Z</time></trkpt><trkpt lat="46.2722757503313" lon="13.132688695214462"><ele>191.0</ele><time>2026-04-18T08:42:49Z</time></trkpt><trkpt lat="46.27230541403332" lon="13.132786010664546"><ele>191.0</ele><time>2026-04-18T08:42:49.999Z</time></trkpt><trkpt lat="46.2723161364266" lon="13.132894568619026"><ele>191.0</ele><time>2026-04-18T08:42:50.999Z</time></trkpt><trkpt lat="46.27234268601724" lon="13.132999702728602"><ele>191.0</ele><time>2026-04-18T08:42:51.999Z</time></trkpt><trkpt lat="46.27236898635492" lon="13.133106901909047"><ele>191.0</ele><time>2026-04-18T08:42:52.999Z</time></trkpt><trkpt lat="46.272395253382" lon="13.133225358682294"><ele>191.0</ele><time>2026-04-18T08:42:53.999Z</time></trkpt><trkpt lat="46.27243347222921" lon="13.133340825005067"><ele>191.0</ele><time>2026-04-18T08:42:54.999Z</time></trkpt><trkpt lat="46.27245955238333" lon="13.133460180151504"><ele>191.0</ele><time>2026-04-18T08:42:55.999Z</time></trkpt><trkpt lat="46.27247275142925" lon="13.133584683442786"><ele>191.0</ele><time>2026-04-18T08:42:56.999Z</time></trkpt><trkpt lat="46.272505791192856" lon="13.133699154982708"><ele>191.0</ele><time>2026-04-18T08:42:57.999Z</time></trkpt><trkpt lat="46.272551557398565" lon="13.133813087054884"><ele>191.0</ele><time>2026-04-18T08:42:58.999Z</time></trkpt><trkpt lat="46.27260283876427" lon="13.133933637808536"><ele>191.0</ele><time>2026-04-18T08:42:59.999Z</time></trkpt><trkpt lat="46.272657751142646" lon="13.1340600697855"><ele>191.0</ele><time>2026-04-18T08:43:00.999Z</time></trkpt><trkpt lat="46.2727133714492" lon="13.134180507211266"><ele>191.0</ele><time>2026-04-18T08:43:01.999Z</time></trkpt><trkpt lat="46.27277113358452" lon="13.134303261419396"><ele>191.0</ele><time>2026-04-18T08:43:02.999Z</time></trkpt><trkpt lat="46.27282194708042" lon="13.13442342114831"><ele>191.0</ele><time>2026-04-18T08:43:03.999Z</time></trkpt><trkpt lat="46.27287343916252" lon="13.1345460212227"><ele>191.0</ele><time>2026-04-18T08:43:04.999Z</time></trkpt><trkpt lat="46.27293494476987" lon="13.13468153838401"><ele>191.0</ele><time>2026-04-18T08:43:05.999Z</time></trkpt><trkpt lat="46.27301759467215" lon="13.13482570607893"><ele>191.0</ele><time>2026-04-18T08:43:06.999Z</time></trkpt><trkpt lat="46.27312518473903" lon="13.134968428389941"><ele>191.0</ele><time>2026-04-18T08:43:07.999Z</time></trkpt><trkpt lat="46.27322886780526" lon="13.135082365471911"><ele>191.0</ele><time>2026-04-18T08:43:08.999Z</time></trkpt><trkpt lat="46.27332657279881" lon="13.135148894556803"><ele>191.8</ele><time>2026-04-18T08:43:09.999Z</time></trkpt><trkpt lat="46.273407673452624" lon="13.135247632802756"><ele>192.60000000000002</ele><time>2026-04-18T08:43:10.999Z</time></trkpt><trkpt lat="46.273497874932744" lon="13.13531743261056"><ele>193.4</ele><time>2026-04-18T08:43:11.999Z</time></trkpt><trkpt lat="46.27359315713667" lon="13.135373789180322"><ele>194.2</ele><time>2026-04-18T08:43:12.999Z</time></trkpt><trkpt lat="46.27368213623277" lon="13.13545545828199"><ele>195.0</ele><time>2026-04-18T08:43:13.999Z</time></trkpt><trkpt lat="46.27377404014797" lon="13.135543304268644"><ele>195.0</ele><time>2026-04-18T08:43:14.999Z</time></trkpt><trkpt lat="46.273866555997415" lon="13.135645840384502"><ele>195.0</ele><time>2026-04-18T08:43:15.999Z</time></trkpt><trkpt lat="46.27395220758974" lon="13.135751459810768"><ele>195.0</ele><time>2026-04-18T08:43:16.999Z</time></trkpt><trkpt lat="46.27403626748429" lon="13.135865844209473"><ele>195.0</ele><time>2026-04-18T08:43:17.999Z</time></trkpt><trkpt lat="46.27412136473882" lon="13.135987023991776"><ele>197.2</ele><time>2026-04-18T08:43:18.999Z</time></trkpt><trkpt lat="46.27420155791465" lon="13.136111708982636"><ele>199.4</ele><time>2026-04-18T08:43:19.999Z</time></trkpt><trkpt lat="46.27427405010276" lon="13.136227361054075"><ele>201.60000000000002</ele><time>2026-04-18T08:43:20.999Z</time></trkpt><trkpt lat="46.27434459467812" lon="13.136329910708419"><ele>203.8</ele><time>2026-04-18T08:43:21.999Z</time></trkpt><trkpt lat="46.274394115992564" lon="13.136449208742599"><ele>206.0</ele><time>2026-04-18T08:43:23Z</time></trkpt><trkpt lat="46.27445056466356" lon="13.136548379448755"><ele>206.4</ele><time>2026-04-18T08:43:24Z</time></trkpt><trkpt lat="46.27451064053885" lon="13.136642340976953"><ele>206.8</ele><time>2026-04-18T08:43:25Z</time></trkpt><trkpt lat="46.2745435025813" lon="13.136769786292769"><ele>207.20000000000002</ele><time>2026-04-18T08:43:26Z</time></trkpt><trkpt lat="46.27456284620939" lon="13.136921737272392"><ele>207.60000000000002</ele><time>2026-04-18T08:43:27Z</time></trkpt><trkpt lat="46.27453183645351" lon="13.137096816362297"><ele>208.0</ele><time>2026-04-18T08:43:28Z</time></trkpt><trkpt lat="46.27450378240021" lon="13.137274893987486"><ele>209.0</ele><time>2026-04-18T08:43:29Z</time></trkpt><trkpt lat="46.27447164756175" lon="13.13747713530063"><ele>210.0</ele><time>2026-04-18T08:43:30Z</time></trkpt><trkpt lat="46.27443526672145" lon="13.137691311481207"><ele>211.0</ele><time>2026-04-18T08:43:31Z</time></trkpt><trkpt lat="46.27439622789728" lon="13.137909920072303"><ele>211.0</ele><time>2026-04-18T08:43:32Z</time></trkpt><trkpt lat="46.27436011978637" lon="13.138115233702447"><ele>211.0</ele><time>2026-04-18T08:43:33Z</time></trkpt><trkpt lat="46.2743296338091" lon="13.138291305094574"><ele>211.0</ele><time>2026-04-18T08:43:34Z</time></trkpt><trkpt lat="46.27432410233787" lon="13.138462215841265"><ele>211.0</ele><time>2026-04-18T08:43:35Z</time></trkpt><trkpt lat="46.27430869266922" lon="13.138611648869398"><ele>211.8</ele><time>2026-04-18T08:43:36Z</time></trkpt><trkpt lat="46.27431023332484" lon="13.13875099416024"><ele>212.60000000000002</ele><time>2026-04-18T08:43:37Z</time></trkpt><trkpt lat="46.27433042967672" lon="13.13888762239559"><ele>213.4</ele><time>2026-04-18T08:43:38Z</time></trkpt><trkpt lat="46.27434221284828" lon="13.139039213587663"><ele>214.2</ele><time>2026-04-18T08:43:39Z</time></trkpt><trkpt lat="46.27438449345764" lon="13.139188533854757"><ele>215.0</ele><time>2026-04-18T08:43:40Z</time></trkpt><trkpt lat="46.27443301581616" lon="13.139336034739356"><ele>216.5</ele><time>2026-04-18T08:43:41Z</time></trkpt><trkpt lat="46.27447998083559" lon="13.139484129755663"><ele>218.0</ele><time>2026-04-18T08:43:42Z</time></trkpt><trkpt lat="46.27451102958321" lon="13.13963818678305"><ele>219.5</ele><time>2026-04-18T08:43:43Z</time></trkpt><trkpt lat="46.27452745499681" lon="13.139808026438926"><ele>221.0</ele><time>2026-04-18T08:43:44Z</time></trkpt><trkpt lat="46.27451637660428" lon="13.139993041521585"><ele>223.25</ele><time>2026-04-18T08:43:45Z</time></trkpt><trkpt lat="46.2744844424615" lon="13.140198071136151"><ele>225.5</ele><time>2026-04-18T08:43:46Z</time></trkpt><trkpt lat="46.27445709845448" lon="13.140404233130024"><ele>227.75</ele><time>2026-04-18T08:43:47Z</time></trkpt><trkpt lat="46.274437930301644" lon="13.140577425565978"><ele>230.0</ele><time>2026-04-18T08:43:48Z</time></trkpt><trkpt lat="46.274432657444464" lon="13.140742031508267"><ele>230.75</ele><time>2026-04-18T08:43:49Z</time></trkpt><trkpt lat="46.274447748881144" lon="13.140913461688015"><ele>231.5</ele><time>2026-04-18T08:43:50Z</time></trkpt><trkpt lat="46.274485806739705" lon="13.1410982393863"><ele>232.25</ele><time>2026-04-18T08:43:51Z</time></trkpt><trkpt lat="46.274532420982176" lon="13.141263863723788"><ele>233.0</ele><time>2026-04-18T08:43:52Z</time></trkpt><trkpt lat="46.274567056674115" lon="13.1413898448519"><ele>233.0</ele><time>2026-04-18T08:43:53Z</time></trkpt><trkpt lat="46.27459554607593" lon="13.141530624200085"><ele>233.0</ele><time>2026-04-18T08:43:54Z</time></trkpt><trkpt lat="46.27461220849638" lon="13.14167742133551"><ele>233.0</ele><time>2026-04-18T08:43:55Z</time></trkpt><trkpt lat="46.27462797219424" lon="13.141818385737551"><ele>233.0</ele><time>2026-04-18T08:43:56Z</time></trkpt><trkpt lat="46.274632484886126" lon="13.141968566775326"><ele>233.0</ele><time>2026-04-18T08:43:57Z</time></trkpt><trkpt lat="46.2746623954641" lon="13.14211181258942"><ele>232.4</ele><time>2026-04-18T08:43:58Z</time></trkpt><trkpt lat="46.27471742359875" lon="13.142251714546715"><ele>231.8</ele><time>2026-04-18T08:43:59Z</time></trkpt><trkpt lat="46.274804272921834" lon="13.142379543895121"><ele>231.2</ele><time>2026-04-18T08:44:00Z</time></trkpt><trkpt lat="46.27487974475042" lon="13.142478642700118"><ele>230.6</ele><time>2026-04-18T08:44:01Z</time></trkpt><trkpt lat="46.27494989563601" lon="13.142570086647785"><ele>230.0</ele><time>2026-04-18T08:44:02Z</time></trkpt><trkpt lat="46.27501659703614" lon="13.142657853040719"><ele>233.00000000000003</ele><time>2026-04-18T08:44:03Z</time></trkpt><trkpt lat="46.27507943874907" lon="13.142736274276368"><ele>236.0</ele><time>2026-04-18T08:44:04Z</time></trkpt><trkpt lat="46.27515316790385" lon="13.142780244687087"><ele>239.0</ele><time>2026-04-18T08:44:05Z</time></trkpt><trkpt lat="46.27521618794632" lon="13.142823435271922"><ele>242.0</ele><time>2026-04-18T08:44:06Z</time></trkpt><trkpt lat="46.27530712623869" lon="13.142863913101296"><ele>245.00000000000003</ele><time>2026-04-18T08:44:08Z</time></trkpt><trkpt lat="46.27538634630983" lon="13.142920040624062"><ele>248.0</ele><time>2026-04-18T08:44:10Z</time></trkpt><trkpt lat="46.27539012717459" lon="13.14313633050239"><ele>247.25</ele><time>2026-04-18T08:44:12Z</time></trkpt><trkpt lat="46.27537492169192" lon="13.14329445444873"><ele>246.5</ele><time>2026-04-18T08:44:13Z</time></trkpt><trkpt lat="46.27531734200442" lon="13.14347744511242"><ele>245.75</ele><time>2026-04-18T08:44:14Z</time></trkpt><trkpt lat="46.275252707714046" lon="13.143648615001576"><ele>245.0</ele><time>2026-04-18T08:44:15Z</time></trkpt><trkpt lat="46.27517245053309" lon="13.143787722474311"><ele>245.0</ele><time>2026-04-18T08:44:16Z</time></trkpt><trkpt lat="46.2750721846701" lon="13.14391241055534"><ele>245.0</ele><time>2026-04-18T08:44:17Z</time></trkpt><trkpt lat="46.27496166097927" lon="13.144002468452056"><ele>245.0</ele><time>2026-04-18T08:44:18Z</time></trkpt><trkpt lat="46.27486673527495" lon="13.144057009340518"><ele>245.0</ele><time>2026-04-18T08:44:19Z</time></trkpt><trkpt lat="46.274778369449145" lon="13.14409265003767"><ele>244.16666666666669</ele><time>2026-04-18T08:44:20Z</time></trkpt><trkpt lat="46.27468670043697" lon="13.144120157089038"><ele>243.33333333333334</ele><time>2026-04-18T08:44:21Z</time></trkpt><trkpt lat="46.27460797559696" lon="13.14415153927533"><ele>242.5</ele><time>2026-04-18T08:44:22Z</time></trkpt><trkpt lat="46.274542227560794" lon="13.144222410524018"><ele>241.66666666666669</ele><time>2026-04-18T08:44:23Z</time></trkpt><trkpt lat="46.2744531697536" lon="13.14427833922429"><ele>240.83333333333334</ele><time>2026-04-18T08:44:24Z</time></trkpt><trkpt lat="46.27438476698948" lon="13.144300612314783"><ele>240.0</ele><time>2026-04-18T08:44:25Z</time></trkpt><trkpt lat="46.27417981351948" lon="13.144370363741341"><ele>240.0</ele><time>2026-04-18T08:44:26Z</time></trkpt><trkpt lat="46.273997448459035" lon="13.144433218114859"><ele>240.0</ele><time>2026-04-18T08:44:27Z</time></trkpt><trkpt lat="46.27383167479098" lon="13.144616106507733"><ele>240.0</ele><time>2026-04-18T08:44:28Z</time></trkpt><trkpt lat="46.27366949087388" lon="13.144699540682621"><ele>236.0</ele><time>2026-04-18T08:44:29Z</time></trkpt><trkpt lat="46.27352533171427" lon="13.14477881278451"><ele>232.0</ele><time>2026-04-18T08:44:30Z</time></trkpt><trkpt lat="46.273388957858266" lon="13.144849356266617"><ele>228.0</ele><time>2026-04-18T08:44:31Z</time></trkpt><trkpt lat="46.27326362080644" lon="13.144914096977363"><ele>224.0</ele><time>2026-04-18T08:44:32Z</time></trkpt><trkpt lat="46.27314965182823" lon="13.144979636985942"><ele>228.0</ele><time>2026-04-18T08:44:33Z</time></trkpt><trkpt lat="46.273039368585" lon="13.145033036146884"><ele>232.0</ele><time>2026-04-18T08:44:34Z</time></trkpt><trkpt lat="46.27292363669242" lon="13.145092301784306"><ele>236.0</ele><time>2026-04-18T08:44:35Z</time></trkpt><trkpt lat="46.272813607760554" lon="13.145141458424238"><ele>240.0</ele><time>2026-04-18T08:44:36Z</time></trkpt><trkpt lat="46.272698996189156" lon="13.145188162174607"><ele>240.0</ele><time>2026-04-18T08:44:37Z</time></trkpt><trkpt lat="46.27259231844243" lon="13.14525927899663"><ele>240.0</ele><time>2026-04-18T08:44:38Z</time></trkpt><trkpt lat="46.272481805271255" lon="13.145345881330398"><ele>240.0</ele><time>2026-04-18T08:44:39Z</time></trkpt><trkpt lat="46.272370690547916" lon="13.14544845425719"><ele>240.0</ele><time>2026-04-18T08:44:40Z</time></trkpt><trkpt lat="46.27225644611562" lon="13.145572485059212"><ele>243.0</ele><time>2026-04-18T08:44:41Z</time></trkpt><trkpt lat="46.27213967423149" lon="13.145700885745937"><ele>246.0</ele><time>2026-04-18T08:44:42Z</time></trkpt><trkpt lat="46.27201038423489" lon="13.145836076729779"><ele>249.0</ele><time>2026-04-18T08:44:43Z</time></trkpt><trkpt lat="46.27188217240172" lon="13.145964654008322"><ele>249.0</ele><time>2026-04-18T08:44:44Z</time></trkpt><trkpt lat="46.27175937889587" lon="13.146088433477617"><ele>249.0</ele><time>2026-04-18T08:44:45Z</time></trkpt><trkpt lat="46.27164599623066" lon="13.146207081909989"><ele>249.0</ele><time>2026-04-18T08:44:46Z</time></trkpt><trkpt lat="46.2715412834011" lon="13.146314244347197"><ele>249.0</ele><time>2026-04-18T08:44:47Z</time></trkpt><trkpt lat="46.27144334454259" lon="13.146400149811985"><ele>250.79999999999998</ele><time>2026-04-18T08:44:48Z</time></trkpt><trkpt lat="46.27134629312849" lon="13.1464600152836"><ele>252.59999999999997</ele><time>2026-04-18T08:44:49Z</time></trkpt><trkpt lat="46.27124434259577" lon="13.146510165035572"><ele>254.4</ele><time>2026-04-18T08:44:50Z</time></trkpt><trkpt lat="46.27114499377979" lon="13.146566851667144"><ele>256.2</ele><time>2026-04-18T08:44:51Z</time></trkpt><trkpt lat="46.27103472478255" lon="13.146637859999965"><ele>258.0</ele><time>2026-04-18T08:44:52Z</time></trkpt><trkpt lat="46.27092079544258" lon="13.146721590651929"><ele>258.0</ele><time>2026-04-18T08:44:53Z</time></trkpt><trkpt lat="46.270788149471834" lon="13.146818097753144"><ele>258.0</ele><time>2026-04-18T08:44:54Z</time></trkpt><trkpt lat="46.2706605465027" lon="13.146916878110636"><ele>258.0</ele><time>2026-04-18T08:44:54.999Z</time></trkpt><trkpt lat="46.270538321694104" lon="13.147013142906284"><ele>258.0</ele><time>2026-04-18T08:44:55.999Z</time></trkpt><trkpt lat="46.27041585665672" lon="13.147104315239561"><ele>254.25</ele><time>2026-04-18T08:44:56.999Z</time></trkpt><trkpt lat="46.270294671890305" lon="13.147190577924945"><ele>250.5</ele><time>2026-04-18T08:44:57.999Z</time></trkpt><trkpt lat="46.27017325302377" lon="13.147286006208345"><ele>246.75</ele><time>2026-04-18T08:44:58.999Z</time></trkpt><trkpt lat="46.27005591049595" lon="13.147363760562044"><ele>243.0</ele><time>2026-04-18T08:44:59.999Z</time></trkpt><trkpt lat="46.269945998531554" lon="13.147424365025037"><ele>245.0</ele><time>2026-04-18T08:45:00.999Z</time></trkpt><trkpt lat="46.26983663544317" lon="13.147485272552505"><ele>247.0</ele><time>2026-04-18T08:45:01.999Z</time></trkpt><trkpt lat="46.269732738225834" lon="13.14755178088591"><ele>249.0</ele><time>2026-04-18T08:45:02.999Z</time></trkpt><trkpt lat="46.269635201558664" lon="13.147627466688563"><ele>251.0</ele><time>2026-04-18T08:45:03.999Z</time></trkpt><trkpt lat="46.26954407502826" lon="13.14772305230791"><ele>251.0</ele><time>2026-04-18T08:45:04.999Z</time></trkpt><trkpt lat="46.269458438989744" lon="13.147830119671461"><ele>251.0</ele><time>2026-04-18T08:45:05.999Z</time></trkpt><trkpt lat="46.269366885892794" lon="13.147952006577784"><ele>251.0</ele><time>2026-04-18T08:45:06.999Z</time></trkpt><trkpt lat="46.269283998888405" lon="13.148083028626145"><ele>251.0</ele><time>2026-04-18T08:45:07.999Z</time></trkpt><trkpt lat="46.26918882401884" lon="13.148199975359093"><ele>253.75</ele><time>2026-04-18T08:45:08.999Z</time></trkpt><trkpt lat="46.269076005467234" lon="13.148306288772378"><ele>256.5</ele><time>2026-04-18T08:45:09.999Z</time></trkpt><trkpt lat="46.26895689795579" lon="13.148407182621973"><ele>259.25</ele><time>2026-04-18T08:45:10.999Z</time></trkpt><trkpt lat="46.26882454368449" lon="13.148479162245309"><ele>262.0</ele><time>2026-04-18T08:45:11.999Z</time></trkpt><trkpt lat="46.268691834106185" lon="13.14853843212139"><ele>262.0</ele><time>2026-04-18T08:45:12.999Z</time></trkpt><trkpt lat="46.26856018547688" lon="13.148609033788505"><ele>262.0</ele><time>2026-04-18T08:45:13.999Z</time></trkpt><trkpt lat="46.26843115005954" lon="13.148675671448908"><ele>262.0</ele><time>2026-04-18T08:45:14.999Z</time></trkpt><trkpt lat="46.26831393105914" lon="13.148742155848966"><ele>262.0</ele><time>2026-04-18T08:45:15.999Z</time></trkpt><trkpt lat="46.268203371622185" lon="13.148817818882447"><ele>264.75</ele><time>2026-04-18T08:45:16.999Z</time></trkpt><trkpt lat="46.26809406705693" lon="13.148893658984957"><ele>267.5</ele><time>2026-04-18T08:45:17.999Z</time></trkpt><trkpt lat="46.26798300519653" lon="13.148963191304745"><ele>270.25</ele><time>2026-04-18T08:45:18.999Z</time></trkpt><trkpt lat="46.267870593341584" lon="13.149034131643065"><ele>273.0</ele><time>2026-04-18T08:45:19.999Z</time></trkpt><trkpt lat="46.267758860392924" lon="13.149112773816018"><ele>273.0</ele><time>2026-04-18T08:45:20.999Z</time></trkpt><trkpt lat="46.2676433466983" lon="13.14920907108891"><ele>273.0</ele><time>2026-04-18T08:45:21.999Z</time></trkpt><trkpt lat="46.26753151249032" lon="13.149327215895472"><ele>273.0</ele><time>2026-04-18T08:45:22.999Z</time></trkpt><trkpt lat="46.267401496846205" lon="13.149458194306407"><ele>273.0</ele><time>2026-04-18T08:45:23.999Z</time></trkpt><trkpt lat="46.2672626577587" lon="13.149559634102358"><ele>269.5</ele><time>2026-04-18T08:45:24.999Z</time></trkpt><trkpt lat="46.267123340943265" lon="13.149641459379374"><ele>266.0</ele><time>2026-04-18T08:45:25.999Z</time></trkpt><trkpt lat="46.266994908077635" lon="13.149707041754"><ele>262.5</ele><time>2026-04-18T08:45:26.999Z</time></trkpt><trkpt lat="46.26688499810912" lon="13.149776568503242"><ele>259.0</ele><time>2026-04-18T08:45:28Z</time></trkpt><trkpt lat="46.26677754143798" lon="13.149836935393946"><ele>260.0</ele><time>2026-04-18T08:45:29Z</time></trkpt><trkpt lat="46.266673716876234" lon="13.149902757304494"><ele>261.0</ele><time>2026-04-18T08:45:30Z</time></trkpt><trkpt lat="46.2665756393395" lon="13.14999233400995"><ele>262.0</ele><time>2026-04-18T08:45:31Z</time></trkpt><trkpt lat="46.2664780204299" lon="13.150080972928768"><ele>263.0</ele><time>2026-04-18T08:45:32Z</time></trkpt><trkpt lat="46.26639256349835" lon="13.150165001431366"><ele>264.0</ele><time>2026-04-18T08:45:33Z</time></trkpt><trkpt lat="46.266307255116196" lon="13.150249072631071"><ele>264.0</ele><time>2026-04-18T08:45:34Z</time></trkpt><trkpt lat="46.266226615557194" lon="13.150339898657126"><ele>264.0</ele><time>2026-04-18T08:45:35Z</time></trkpt><trkpt lat="46.26614942391695" lon="13.150443047756095"><ele>264.0</ele><time>2026-04-18T08:45:36Z</time></trkpt><trkpt lat="46.26606008873459" lon="13.150545441423073"><ele>264.0</ele><time>2026-04-18T08:45:37Z</time></trkpt><trkpt lat="46.26597401954117" lon="13.150676781927856"><ele>264.0</ele><time>2026-04-18T08:45:38Z</time></trkpt><trkpt lat="46.26590623553263" lon="13.150813100435178"><ele>265.0</ele><time>2026-04-18T08:45:39Z</time></trkpt><trkpt lat="46.2658289172121" lon="13.150915200987875"><ele>266.0</ele><time>2026-04-18T08:45:40Z</time></trkpt><trkpt lat="46.265745679914126" lon="13.151000698539674"><ele>267.0</ele><time>2026-04-18T08:45:41Z</time></trkpt><trkpt lat="46.26566307930014" lon="13.151069333847184"><ele>268.0</ele><time>2026-04-18T08:45:42Z</time></trkpt><trkpt lat="46.26558978571645" lon="13.151144618981458"><ele>269.0</ele><time>2026-04-18T08:45:43Z</time></trkpt><trkpt lat="46.265527338380124" lon="13.151241656768276"><ele>269.0</ele><time>2026-04-18T08:45:44Z</time></trkpt><trkpt lat="46.265463502730036" lon="13.151352623560339"><ele>269.0</ele><time>2026-04-18T08:45:45Z</time></trkpt><trkpt lat="46.265393045377564" lon="13.151457168027923"><ele>269.0</ele><time>2026-04-18T08:45:46Z</time></trkpt><trkpt lat="46.265304944299174" lon="13.151534420848726"><ele>269.0</ele><time>2026-04-18T08:45:47Z</time></trkpt><trkpt lat="46.265196425631835" lon="13.151562855557017"><ele>269.0</ele><time>2026-04-18T08:45:48Z</time></trkpt><trkpt lat="46.26508350135372" lon="13.15152772512159"><ele>269.0</ele><time>2026-04-18T08:45:49Z</time></trkpt><trkpt lat="46.26499283975698" lon="13.151475304271298"><ele>269.0</ele><time>2026-04-18T08:45:50Z</time></trkpt><trkpt lat="46.26491951653581" lon="13.151420527097448"><ele>269.0</ele><time>2026-04-18T08:45:51Z</time></trkpt><trkpt lat="46.26485409337824" lon="13.151356362746707"><ele>269.0</ele><time>2026-04-18T08:45:52Z</time></trkpt><trkpt lat="46.2647939946697" lon="13.151307657737979"><ele>269.0</ele><time>2026-04-18T08:45:53Z</time></trkpt><trkpt lat="46.264686422783186" lon="13.151261270145799"><ele>269.0</ele><time>2026-04-18T08:45:55Z</time></trkpt><trkpt lat="46.264624117478945" lon="13.151192477682427"><ele>269.4</ele><time>2026-04-18T08:45:57Z</time></trkpt><trkpt lat="46.26450365892857" lon="13.151281960541828"><ele>269.79999999999995</ele><time>2026-04-18T08:45:59Z</time></trkpt><trkpt lat="46.264387624181445" lon="13.151303554323967"><ele>270.20000000000005</ele><time>2026-04-18T08:46:01Z</time></trkpt><trkpt lat="46.26431360887591" lon="13.151312912112486"><ele>270.6</ele><time>2026-04-18T08:46:02Z</time></trkpt><trkpt lat="46.26423205416106" lon="13.151331730973652"><ele>271.0</ele><time>2026-04-18T08:46:03Z</time></trkpt><trkpt lat="46.26414621267679" lon="13.151352333228616"><ele>271.0</ele><time>2026-04-18T08:46:04Z</time></trkpt><trkpt lat="46.26405579661603" lon="13.1513657329064"><ele>271.0</ele><time>2026-04-18T08:46:05Z</time></trkpt><trkpt lat="46.26396180549827" lon="13.151374047416352"><ele>271.0</ele><time>2026-04-18T08:46:06Z</time></trkpt><trkpt lat="46.263869560371326" lon="13.151385452692844"><ele>271.0</ele><time>2026-04-18T08:46:07Z</time></trkpt><trkpt lat="46.263788901663794" lon="13.151397208646813"><ele>271.0</ele><time>2026-04-18T08:46:08Z</time></trkpt><trkpt lat="46.263714151655634" lon="13.15140586409773"><ele>271.0</ele><time>2026-04-18T08:46:09Z</time></trkpt><trkpt lat="46.263645755450824" lon="13.151407249990218"><ele>270.40000000000003</ele><time>2026-04-18T08:46:10Z</time></trkpt><trkpt lat="46.2635146890834" lon="13.151412494002178"><ele>269.8</ele><time>2026-04-18T08:46:12Z</time></trkpt><trkpt lat="46.263438456550816" lon="13.15141502151654"><ele>269.20000000000005</ele><time>2026-04-18T08:46:13Z</time></trkpt><trkpt lat="46.26335594312699" lon="13.151422531239255"><ele>268.6</ele><time>2026-04-18T08:46:14Z</time></trkpt><trkpt lat="46.263272411287176" lon="13.151431069803605"><ele>268.0</ele><time>2026-04-18T08:46:15Z</time></trkpt><trkpt lat="46.26319038302961" lon="13.151435205520265"><ele>267.0</ele><time>2026-04-18T08:46:16Z</time></trkpt><trkpt lat="46.263109940773106" lon="13.151442323746307"><ele>266.0</ele><time>2026-04-18T08:46:17Z</time></trkpt><trkpt lat="46.26302386928157" lon="13.151453981389018"><ele>265.0</ele><time>2026-04-18T08:46:18Z</time></trkpt><trkpt lat="46.26293556448025" lon="13.151465583641263"><ele>264.0</ele><time>2026-04-18T08:46:19Z</time></trkpt><trkpt lat="46.262851606501755" lon="13.151478210886193"><ele>263.0</ele><time>2026-04-18T08:46:20Z</time></trkpt><trkpt lat="46.262774352274725" lon="13.151491277501632"><ele>262.0</ele><time>2026-04-18T08:46:21Z</time></trkpt><trkpt lat="46.26271151995202" lon="13.151507321477403"><ele>262.0</ele><time>2026-04-18T08:46:22Z</time></trkpt><trkpt lat="46.262615465764604" lon="13.151538955614383"><ele>262.0</ele><time>2026-04-18T08:46:24Z</time></trkpt><trkpt lat="46.26253100140917" lon="13.151569884211375"><ele>262.0</ele><time>2026-04-18T08:46:26Z</time></trkpt><trkpt lat="46.2624231340364" lon="13.151628389697544"><ele>262.0</ele><time>2026-04-18T08:46:28Z</time></trkpt><trkpt lat="46.26235165195934" lon="13.151667024173737"><ele>262.0</ele><time>2026-04-18T08:46:29Z</time></trkpt><trkpt lat="46.26226905791341" lon="13.151703796783886"><ele>263.0</ele><time>2026-04-18T08:46:30Z</time></trkpt><trkpt lat="46.26218311429255" lon="13.151758680207074"><ele>264.0</ele><time>2026-04-18T08:46:31Z</time></trkpt><trkpt lat="46.26209493883851" lon="13.151820260415462"><ele>265.0</ele><time>2026-04-18T08:46:32Z</time></trkpt><trkpt lat="46.262015401135145" lon="13.151880579926575"><ele>266.0</ele><time>2026-04-18T08:46:33Z</time></trkpt><trkpt lat="46.26194887628359" lon="13.15193693603775"><ele>267.0</ele><time>2026-04-18T08:46:34Z</time></trkpt><trkpt lat="46.26189212163357" lon="13.151983737147521"><ele>268.0</ele><time>2026-04-18T08:46:35Z</time></trkpt><trkpt lat="46.26179635856444" lon="13.152055523805096"><ele>268.0</ele><time>2026-04-18T08:46:37Z</time></trkpt><trkpt lat="46.261723547945806" lon="13.152119310157785"><ele>268.0</ele><time>2026-04-18T08:46:39Z</time></trkpt><trkpt lat="46.26165907122443" lon="13.152184069954634"><ele>268.0</ele><time>2026-04-18T08:46:41Z</time></trkpt><trkpt lat="46.26158832320473" lon="13.15223454998072"><ele>268.0</ele><time>2026-04-18T08:46:43Z</time></trkpt><trkpt lat="46.261490163091814" lon="13.152337488976421"><ele>268.0</ele><time>2026-04-18T08:46:45Z</time></trkpt><trkpt lat="46.26142955767164" lon="13.152403444485778"><ele>268.0</ele><time>2026-04-18T08:46:46Z</time></trkpt><trkpt lat="46.26137287920974" lon="13.152501545015808"><ele>267.6</ele><time>2026-04-18T08:46:47Z</time></trkpt><trkpt lat="46.26131679095602" lon="13.15261023831634"><ele>267.20000000000005</ele><time>2026-04-18T08:46:48Z</time></trkpt><trkpt lat="46.261262945016334" lon="13.152718054860554"><ele>266.8</ele><time>2026-04-18T08:46:49Z</time></trkpt><trkpt lat="46.261214656674454" lon="13.152825409542013"><ele>266.40000000000003</ele><time>2026-04-18T08:46:50Z</time></trkpt><trkpt lat="46.26115981583604" lon="13.152930710128214"><ele>266.0</ele><time>2026-04-18T08:46:51Z</time></trkpt><trkpt lat="46.26110352552585" lon="13.153028643745575"><ele>266.0</ele><time>2026-04-18T08:46:52Z</time></trkpt><trkpt lat="46.261040603287455" lon="13.153117901400948"><ele>266.0</ele><time>2026-04-18T08:46:53Z</time></trkpt><trkpt lat="46.260970687433506" lon="13.153210894107662"><ele>266.0</ele><time>2026-04-18T08:46:54Z</time></trkpt><trkpt lat="46.26089803859932" lon="13.153316419007332"><ele>266.0</ele><time>2026-04-18T08:46:55Z</time></trkpt><trkpt lat="46.2608274725787" lon="13.153439498952586"><ele>266.0</ele><time>2026-04-18T08:46:56Z</time></trkpt><trkpt lat="46.260750784201406" lon="13.15357484770856"><ele>265.75</ele><time>2026-04-18T08:46:56.999Z</time></trkpt><trkpt lat="46.26067333171024" lon="13.153716513289497"><ele>265.5</ele><time>2026-04-18T08:46:57.999Z</time></trkpt><trkpt lat="46.2606051697788" lon="13.153860797166491"><ele>265.25</ele><time>2026-04-18T08:46:58.999Z</time></trkpt><trkpt lat="46.26053689181882" lon="13.15399068328918"><ele>265.0</ele><time>2026-04-18T08:46:59.999Z</time></trkpt><trkpt lat="46.26047949658223" lon="13.154112006923752"><ele>265.0</ele><time>2026-04-18T08:47:00.999Z</time></trkpt><trkpt lat="46.26042116260621" lon="13.154227628077326"><ele>265.0</ele><time>2026-04-18T08:47:01.999Z</time></trkpt><trkpt lat="46.2603661786756" lon="13.154345508358068"><ele>265.0</ele><time>2026-04-18T08:47:02.999Z</time></trkpt><trkpt lat="46.26031493664714" lon="13.154459382989353"><ele>265.0</ele><time>2026-04-18T08:47:03.999Z</time></trkpt><trkpt lat="46.2602642732467" lon="13.154571574032442"><ele>265.0</ele><time>2026-04-18T08:47:04.999Z</time></trkpt><trkpt lat="46.26021925627325" lon="13.154681617435225"><ele>265.0</ele><time>2026-04-18T08:47:05.999Z</time></trkpt><trkpt lat="46.2601770790285" lon="13.154781031931234"><ele>265.0</ele><time>2026-04-18T08:47:06.999Z</time></trkpt><trkpt lat="46.26014671645484" lon="13.15488551392459"><ele>265.0</ele><time>2026-04-18T08:47:07.999Z</time></trkpt><trkpt lat="46.26011638924487" lon="13.154994279073899"><ele>265.0</ele><time>2026-04-18T08:47:08.999Z</time></trkpt><trkpt lat="46.260086204228145" lon="13.15510429350723"><ele>265.0</ele><time>2026-04-18T08:47:09.999Z</time></trkpt><trkpt lat="46.26006349769893" lon="13.155220164662087"><ele>265.0</ele><time>2026-04-18T08:47:10.999Z</time></trkpt><trkpt lat="46.26004933554482" lon="13.155329316025655"><ele>265.66666666666663</ele><time>2026-04-18T08:47:11.999Z</time></trkpt><trkpt lat="46.26002335834042" lon="13.15544461424949"><ele>266.3333333333333</ele><time>2026-04-18T08:47:12.999Z</time></trkpt><trkpt lat="46.26001354919632" lon="13.15556125064632"><ele>267.0</ele><time>2026-04-18T08:47:13.999Z</time></trkpt><trkpt lat="46.26000739678881" lon="13.155674819999106"><ele>267.6666666666667</ele><time>2026-04-18T08:47:14.999Z</time></trkpt><trkpt lat="46.26000355151772" lon="13.155779530541762"><ele>268.33333333333337</ele><time>2026-04-18T08:47:15.999Z</time></trkpt><trkpt lat="46.25999588118773" lon="13.155945017720653"><ele>269.0</ele><time>2026-04-18T08:47:17.999Z</time></trkpt><trkpt lat="46.25996539785195" lon="13.156143504602236"><ele>269.1666666666667</ele><time>2026-04-18T08:47:20.999Z</time></trkpt><trkpt lat="46.25991864850158" lon="13.156219061565537"><ele>269.33333333333337</ele><time>2026-04-18T08:47:21.999Z</time></trkpt><trkpt lat="46.259860285638176" lon="13.156295080423181"><ele>269.5</ele><time>2026-04-18T08:47:22.999Z</time></trkpt><trkpt lat="46.25979605656032" lon="13.15637448065672"><ele>269.6666666666667</ele><time>2026-04-18T08:47:23.999Z</time></trkpt><trkpt lat="46.259731611838866" lon="13.15647029076934"><ele>269.8333333333333</ele><time>2026-04-18T08:47:24.999Z</time></trkpt><trkpt lat="46.25966363648266" lon="13.156576383780662"><ele>270.0</ele><time>2026-04-18T08:47:25.999Z</time></trkpt><trkpt lat="46.25960230418393" lon="13.156663984871372"><ele>268.3333333333333</ele><time>2026-04-18T08:47:26.999Z</time></trkpt><trkpt lat="46.25954951920786" lon="13.15674929538335"><ele>266.6666666666667</ele><time>2026-04-18T08:47:27.999Z</time></trkpt><trkpt lat="46.25950087114091" lon="13.156837308219734"><ele>265.0</ele><time>2026-04-18T08:47:28.999Z</time></trkpt><trkpt lat="46.25944640308133" lon="13.156927516516381"><ele>263.33333333333337</ele><time>2026-04-18T08:47:29.999Z</time></trkpt><trkpt lat="46.25938146792948" lon="13.157022569624054"><ele>261.6666666666667</ele><time>2026-04-18T08:47:30.999Z</time></trkpt><trkpt lat="46.259323254247946" lon="13.157113698231065"><ele>260.0</ele><time>2026-04-18T08:47:31.999Z</time></trkpt><trkpt lat="46.25926603796311" lon="13.157197041090603"><ele>260.0</ele><time>2026-04-18T08:47:33Z</time></trkpt><trkpt lat="46.259206261301244" lon="13.157281967310524"><ele>260.0</ele><time>2026-04-18T08:47:34Z</time></trkpt><trkpt lat="46.25914146489772" lon="13.157373682333569"><ele>260.0</ele><time>2026-04-18T08:47:35Z</time></trkpt><trkpt lat="46.259068284382394" lon="13.157456976164827"><ele>260.0</ele><time>2026-04-18T08:47:36Z</time></trkpt><trkpt lat="46.25898639132857" lon="13.15753898755494"><ele>260.0</ele><time>2026-04-18T08:47:37Z</time></trkpt><trkpt lat="46.25889759101098" lon="13.157628287686105"><ele>257.25</ele><time>2026-04-18T08:47:38Z</time></trkpt><trkpt lat="46.25881207538164" lon="13.15775576827406"><ele>254.5</ele><time>2026-04-18T08:47:39Z</time></trkpt><trkpt lat="46.25871760920453" lon="13.157891412862307"><ele>251.75</ele><time>2026-04-18T08:47:40Z</time></trkpt><trkpt lat="46.25863646911307" lon="13.158047583049022"><ele>249.0</ele><time>2026-04-18T08:47:41Z</time></trkpt><trkpt lat="46.25856732736169" lon="13.158194160393244"><ele>252.6</ele><time>2026-04-18T08:47:42Z</time></trkpt><trkpt lat="46.25849489528338" lon="13.158300141338218"><ele>256.2</ele><time>2026-04-18T08:47:43Z</time></trkpt><trkpt lat="46.25841422872644" lon="13.15837792696798"><ele>259.79999999999995</ele><time>2026-04-18T08:47:44Z</time></trkpt><trkpt lat="46.25832648632043" lon="13.158445012564256"><ele>263.4</ele><time>2026-04-18T08:47:45Z</time></trkpt><trkpt lat="46.25823653748756" lon="13.158494966377365"><ele>267.0</ele><time>2026-04-18T08:47:46Z</time></trkpt><trkpt lat="46.25814878760657" lon="13.158515591416913"><ele>265.3333333333333</ele><time>2026-04-18T08:47:47Z</time></trkpt><trkpt lat="46.25806752309204" lon="13.158532283088304"><ele>263.6666666666667</ele><time>2026-04-18T08:47:48Z</time></trkpt><trkpt lat="46.25798948529165" lon="13.158557445244407"><ele>262.0</ele><time>2026-04-18T08:47:49Z</time></trkpt><trkpt lat="46.257913998860005" lon="13.158597505871336"><ele>260.33333333333337</ele><time>2026-04-18T08:47:50Z</time></trkpt><trkpt lat="46.25783779434913" lon="13.15867553733345"><ele>258.6666666666667</ele><time>2026-04-18T08:47:51Z</time></trkpt><trkpt lat="46.25776528271203" lon="13.158783877766407"><ele>257.0</ele><time>2026-04-18T08:47:52Z</time></trkpt><trkpt lat="46.257699135918784" lon="13.158926856936965"><ele>261.5</ele><time>2026-04-18T08:47:53Z</time></trkpt><trkpt lat="46.257629548672064" lon="13.159059522504482"><ele>266.0</ele><time>2026-04-18T08:47:54Z</time></trkpt><trkpt lat="46.257561385942005" lon="13.159191262570287"><ele>270.5</ele><time>2026-04-18T08:47:55Z</time></trkpt><trkpt lat="46.2574870589306" lon="13.159319787714077"><ele>275.0</ele><time>2026-04-18T08:47:56Z</time></trkpt><trkpt lat="46.257418613483026" lon="13.159454329529629"><ele>275.0</ele><time>2026-04-18T08:47:57Z</time></trkpt><trkpt lat="46.257357418061" lon="13.159601226182335"><ele>275.0</ele><time>2026-04-18T08:47:58Z</time></trkpt><trkpt lat="46.25730106124337" lon="13.15975142968686"><ele>275.0</ele><time>2026-04-18T08:47:59Z</time></trkpt><trkpt lat="46.25726358614509" lon="13.159915960284156"><ele>275.0</ele><time>2026-04-18T08:48:00Z</time></trkpt><trkpt lat="46.25724534786121" lon="13.160099006698628"><ele>275.25</ele><time>2026-04-18T08:48:01Z</time></trkpt><trkpt lat="46.257245125259026" lon="13.160290418557056"><ele>275.5</ele><time>2026-04-18T08:48:02Z</time></trkpt><trkpt lat="46.25724670422552" lon="13.1605016343131"><ele>275.75</ele><time>2026-04-18T08:48:03Z</time></trkpt><trkpt lat="46.25724492807123" lon="13.16072539798536"><ele>276.0</ele><time>2026-04-18T08:48:04Z</time></trkpt><trkpt lat="46.25725101312979" lon="13.160926192756007"><ele>278.6666666666667</ele><time>2026-04-18T08:48:05Z</time></trkpt><trkpt lat="46.257254554986545" lon="13.161078326511989"><ele>281.3333333333333</ele><time>2026-04-18T08:48:06Z</time></trkpt><trkpt lat="46.25725046078494" lon="13.161209242195358"><ele>284.0</ele><time>2026-04-18T08:48:07Z</time></trkpt><trkpt lat="46.25722457476173" lon="13.161311165222301"><ele>286.66666666666663</ele><time>2026-04-18T08:48:08Z</time></trkpt><trkpt lat="46.25720748073363" lon="13.161412403055802"><ele>289.3333333333333</ele><time>2026-04-18T08:48:09Z</time></trkpt><trkpt lat="46.25715306840631" lon="13.16149387694086"><ele>292.0</ele><time>2026-04-18T08:48:10Z</time></trkpt><trkpt lat="46.25707634422147" lon="13.16154700781519"><ele>292.0</ele><time>2026-04-18T08:48:11Z</time></trkpt><trkpt lat="46.2569898693652" lon="13.161566425456156"><ele>292.0</ele><time>2026-04-18T08:48:12Z</time></trkpt><trkpt lat="46.2569023562627" lon="13.161532328859614"><ele>292.0</ele><time>2026-04-18T08:48:13Z</time></trkpt><trkpt lat="46.25683517261713" lon="13.161445033173623"><ele>292.0</ele><time>2026-04-18T08:48:14Z</time></trkpt><trkpt lat="46.25678461071146" lon="13.161332813856095"><ele>292.0</ele><time>2026-04-18T08:48:15Z</time></trkpt><trkpt lat="46.25673931673212" lon="13.161195924150825"><ele>292.0</ele><time>2026-04-18T08:48:16Z</time></trkpt><trkpt lat="46.256676080657535" lon="13.161048470385866"><ele>292.0</ele><time>2026-04-18T08:48:17Z</time></trkpt><trkpt lat="46.256603744421206" lon="13.160899634430766"><ele>292.0</ele><time>2026-04-18T08:48:18Z</time></trkpt><trkpt lat="46.25654009038917" lon="13.160746314053094"><ele>292.0</ele><time>2026-04-18T08:48:19Z</time></trkpt><trkpt lat="46.256483310557066" lon="13.160639863489765"><ele>291.0</ele><time>2026-04-18T08:48:20Z</time></trkpt><trkpt lat="46.256422985675584" lon="13.160537010398869"><ele>290.0</ele><time>2026-04-18T08:48:21Z</time></trkpt><trkpt lat="46.256336130516836" lon="13.160444468120797"><ele>289.0</ele><time>2026-04-18T08:48:22Z</time></trkpt><trkpt lat="46.25625038334352" lon="13.160377987504608"><ele>288.0</ele><time>2026-04-18T08:48:23Z</time></trkpt><trkpt lat="46.25618488613009" lon="13.160322684474199"><ele>287.0</ele><time>2026-04-18T08:48:24Z</time></trkpt><trkpt lat="46.25607300528875" lon="13.160295329189747"><ele>287.0</ele><time>2026-04-18T08:48:26Z</time></trkpt><trkpt lat="46.25597672919138" lon="13.160399851508464"><ele>287.0</ele><time>2026-04-18T08:48:28Z</time></trkpt><trkpt lat="46.25593217495591" lon="13.16048847301237"><ele>287.0</ele><time>2026-04-18T08:48:29Z</time></trkpt><trkpt lat="46.255910133313364" lon="13.160596994974844"><ele>287.0</ele><time>2026-04-18T08:48:30Z</time></trkpt><trkpt lat="46.255867172330994" lon="13.160708521489584"><ele>287.0</ele><time>2026-04-18T08:48:31Z</time></trkpt><trkpt lat="46.25583109087485" lon="13.160800212608493"><ele>287.0</ele><time>2026-04-18T08:48:32Z</time></trkpt><trkpt lat="46.25579457110761" lon="13.160883917132562"><ele>289.83333333333337</ele><time>2026-04-18T08:48:33Z</time></trkpt><trkpt lat="46.25574841389881" lon="13.160960140773762"><ele>292.6666666666667</ele><time>2026-04-18T08:48:34Z</time></trkpt><trkpt lat="46.255691170928195" lon="13.16101242276722"><ele>295.5</ele><time>2026-04-18T08:48:35Z</time></trkpt><trkpt lat="46.255604627076124" lon="13.161102067917957"><ele>298.3333333333333</ele><time>2026-04-18T08:48:37Z</time></trkpt><trkpt lat="46.25557888610294" lon="13.161253100183968"><ele>301.16666666666663</ele><time>2026-04-18T08:48:39Z</time></trkpt><trkpt lat="46.25558364807113" lon="13.161349678010149"><ele>304.0</ele><time>2026-04-18T08:48:40Z</time></trkpt><trkpt lat="46.25563004913149" lon="13.161428814862521"><ele>304.0</ele><time>2026-04-18T08:48:41Z</time></trkpt><trkpt lat="46.25570666604382" lon="13.161454979374616"><ele>304.0</ele><time>2026-04-18T08:48:42Z</time></trkpt><trkpt lat="46.2557859262338" lon="13.161426738966847"><ele>304.0</ele><time>2026-04-18T08:48:43Z</time></trkpt><trkpt lat="46.2558339109467" lon="13.161320900358549"><ele>304.0</ele><time>2026-04-18T08:48:44Z</time></trkpt><trkpt lat="46.25587568376666" lon="13.161228740900642"><ele>304.0</ele><time>2026-04-18T08:48:45Z</time></trkpt><trkpt lat="46.25592095837801" lon="13.161132759947938"><ele>304.0</ele><time>2026-04-18T08:48:46Z</time></trkpt><trkpt lat="46.2559642878948" lon="13.161034060628653"><ele>304.0</ele><time>2026-04-18T08:48:47Z</time></trkpt><trkpt lat="46.256025920612" lon="13.16097114767871"><ele>304.0</ele><time>2026-04-18T08:48:48Z</time></trkpt><trkpt lat="46.25607712060143" lon="13.160892871185013"><ele>304.0</ele><time>2026-04-18T08:48:49Z</time></trkpt><trkpt lat="46.25615361315649" lon="13.160915794534416"><ele>304.0</ele><time>2026-04-18T08:48:50Z</time></trkpt><trkpt lat="46.256212837329294" lon="13.160959599271317"><ele>304.0</ele><time>2026-04-18T08:48:51Z</time></trkpt><trkpt lat="46.25625405954855" lon="13.161039048626979"><ele>304.0</ele><time>2026-04-18T08:48:52Z</time></trkpt><trkpt lat="46.256285992640294" lon="13.161131017576286"><ele>304.0</ele><time>2026-04-18T08:48:53Z</time></trkpt><trkpt lat="46.25625198388931" lon="13.161240862349622"><ele>304.0</ele><time>2026-04-18T08:48:54Z</time></trkpt><trkpt lat="46.25620480688727" lon="13.161338919538483"><ele>304.0</ele><time>2026-04-18T08:48:54.999Z</time></trkpt><trkpt lat="46.25614971122056" lon="13.161455577609074"><ele>304.0</ele><time>2026-04-18T08:48:55.999Z</time></trkpt><trkpt lat="46.2560868115819" lon="13.161583260934801"><ele>304.0</ele><time>2026-04-18T08:48:56.999Z</time></trkpt><trkpt lat="46.25601488782345" lon="13.161720783359351"><ele>304.0</ele><time>2026-04-18T08:48:57.999Z</time></trkpt><trkpt lat="46.25593858893977" lon="13.161817529382143"><ele>307.0</ele><time>2026-04-18T08:48:58.999Z</time></trkpt><trkpt lat="46.25584582895429" lon="13.161905265491793"><ele>310.0</ele><time>2026-04-18T08:48:59.999Z</time></trkpt><trkpt lat="46.255742069186205" lon="13.161973473458835"><ele>313.0</ele><time>2026-04-18T08:49:00.999Z</time></trkpt><trkpt lat="46.2556296444089" lon="13.162017374904297"><ele>316.0</ele><time>2026-04-18T08:49:01.999Z</time></trkpt><trkpt lat="46.255525197347694" lon="13.162060844295853"><ele>319.20000000000005</ele><time>2026-04-18T08:49:02.999Z</time></trkpt><trkpt lat="46.2554386422212" lon="13.162102732122676"><ele>322.40000000000003</ele><time>2026-04-18T08:49:03.999Z</time></trkpt><trkpt lat="46.255371248862765" lon="13.162122683310065"><ele>325.6</ele><time>2026-04-18T08:49:04.999Z</time></trkpt><trkpt lat="46.25530675838024" lon="13.162224088356236"><ele>328.8</ele><time>2026-04-18T08:49:06.999Z</time></trkpt><trkpt lat="46.255263377780935" lon="13.162409341806944"><ele>332.0</ele><time>2026-04-18T08:49:08.999Z</time></trkpt><trkpt lat="46.25532051177267" lon="13.162525849032232"><ele>331.6</ele><time>2026-04-18T08:49:09.999Z</time></trkpt><trkpt lat="46.25542709362506" lon="13.162568996859317"><ele>331.20000000000005</ele><time>2026-04-18T08:49:10.999Z</time></trkpt><trkpt lat="46.255539868963766" lon="13.162533989217758"><ele>330.8</ele><time>2026-04-18T08:49:11.999Z</time></trkpt><trkpt lat="46.25564816348509" lon="13.162518346084038"><ele>330.4</ele><time>2026-04-18T08:49:12.999Z</time></trkpt><trkpt lat="46.255752500731575" lon="13.162502927735057"><ele>330.0</ele><time>2026-04-18T08:49:13.999Z</time></trkpt><trkpt lat="46.25583586837529" lon="13.162492743895164"><ele>330.0</ele><time>2026-04-18T08:49:14.999Z</time></trkpt><trkpt lat="46.255905899365565" lon="13.16248706380355"><ele>330.0</ele><time>2026-04-18T08:49:15.999Z</time></trkpt><trkpt lat="46.25599268622671" lon="13.16252167090275"><ele>330.0</ele><time>2026-04-18T08:49:17.999Z</time></trkpt><trkpt lat="46.25601309771185" lon="13.16265205264507"><ele>330.0</ele><time>2026-04-18T08:49:19.999Z</time></trkpt><trkpt lat="46.255958472352035" lon="13.162725385882641"><ele>330.0</ele><time>2026-04-18T08:49:20.999Z</time></trkpt><trkpt lat="46.25588850714837" lon="13.162771740377176"><ele>330.0</ele><time>2026-04-18T08:49:21.999Z</time></trkpt><trkpt lat="46.25581587999963" lon="13.162835121281063"><ele>330.0</ele><time>2026-04-18T08:49:22.999Z</time></trkpt><trkpt lat="46.25573034022689" lon="13.162924059062366"><ele>330.0</ele><time>2026-04-18T08:49:23.999Z</time></trkpt><trkpt lat="46.25562879593502" lon="13.163013788600102"><ele>330.0</ele><time>2026-04-18T08:49:24.999Z</time></trkpt><trkpt lat="46.25554300982696" lon="13.163076179515478"><ele>330.0</ele><time>2026-04-18T08:49:25.999Z</time></trkpt><trkpt lat="46.25547953942283" lon="13.163133190419686"><ele>330.0</ele><time>2026-04-18T08:49:26.999Z</time></trkpt><trkpt lat="46.25542746900079" lon="13.163192443122348"><ele>331.8333333333333</ele><time>2026-04-18T08:49:27.999Z</time></trkpt><trkpt lat="46.255394969198264" lon="13.163283807980433"><ele>333.6666666666667</ele><time>2026-04-18T08:49:28.999Z</time></trkpt><trkpt lat="46.255401358501345" lon="13.163393374101252"><ele>335.5</ele><time>2026-04-18T08:49:29.999Z</time></trkpt><trkpt lat="46.25538874773203" lon="13.163505477613691"><ele>337.33333333333337</ele><time>2026-04-18T08:49:30.999Z</time></trkpt><trkpt lat="46.25539155771398" lon="13.163641360139575"><ele>339.1666666666667</ele><time>2026-04-18T08:49:31.999Z</time></trkpt><trkpt lat="46.25538573051627" lon="13.163794387221042"><ele>341.0</ele><time>2026-04-18T08:49:32.999Z</time></trkpt><trkpt lat="46.25534461199669" lon="13.1639206686864"><ele>341.0</ele><time>2026-04-18T08:49:33.999Z</time></trkpt><trkpt lat="46.255307911210714" lon="13.164014459962415"><ele>341.0</ele><time>2026-04-18T08:49:34.999Z</time></trkpt><trkpt lat="46.255253275752224" lon="13.164162695777035"><ele>341.0</ele><time>2026-04-18T08:49:36.999Z</time></trkpt><trkpt lat="46.25518787162557" lon="13.164303757781838"><ele>341.0</ele><time>2026-04-18T08:49:39Z</time></trkpt><trkpt lat="46.25513683768942" lon="13.164359215043683"><ele>341.0</ele><time>2026-04-18T08:49:40Z</time></trkpt><trkpt lat="46.25507164627344" lon="13.164392986978127"><ele>341.0</ele><time>2026-04-18T08:49:41Z</time></trkpt><trkpt lat="46.25500363092914" lon="13.164404309282796"><ele>342.6</ele><time>2026-04-18T08:49:42Z</time></trkpt><trkpt lat="46.25489885881141" lon="13.164407606503154"><ele>344.20000000000005</ele><time>2026-04-18T08:49:44Z</time></trkpt><trkpt lat="46.25478500735684" lon="13.16446785162148"><ele>345.79999999999995</ele><time>2026-04-18T08:49:46Z</time></trkpt><trkpt lat="46.254723204261545" lon="13.16449970221143"><ele>347.4</ele><time>2026-04-18T08:49:47Z</time></trkpt><trkpt lat="46.25460986801639" lon="13.164553580422401"><ele>349.0</ele><time>2026-04-18T08:49:49Z</time></trkpt><trkpt lat="46.25454826162111" lon="13.164581465243314"><ele>349.0</ele><time>2026-04-18T08:49:50Z</time></trkpt><trkpt lat="46.25447462506764" lon="13.16462487487731"><ele>349.0</ele><time>2026-04-18T08:49:51Z</time></trkpt><trkpt lat="46.2543829147779" lon="13.16469531418431"><ele>349.0</ele><time>2026-04-18T08:49:52Z</time></trkpt><trkpt lat="46.254273236417745" lon="13.164760227436627"><ele>349.0</ele><time>2026-04-18T08:49:53Z</time></trkpt><trkpt lat="46.25415789551604" lon="13.164877735919331"><ele>349.0</ele><time>2026-04-18T08:49:54Z</time></trkpt><trkpt lat="46.25405666506361" lon="13.164983114093484"><ele>350.79999999999995</ele><time>2026-04-18T08:49:55Z</time></trkpt><trkpt lat="46.253962212615754" lon="13.165037211948635"><ele>352.59999999999997</ele><time>2026-04-18T08:49:56Z</time></trkpt><trkpt lat="46.25387357161814" lon="13.165051187576442"><ele>354.4</ele><time>2026-04-18T08:49:57Z</time></trkpt><trkpt lat="46.253808495059786" lon="13.165066908899888"><ele>356.2</ele><time>2026-04-18T08:49:58Z</time></trkpt><trkpt lat="46.25370985445647" lon="13.165164049457145"><ele>358.0</ele><time>2026-04-18T08:50:00Z</time></trkpt><trkpt lat="46.2537061083356" lon="13.16534263266856"><ele>358.0</ele><time>2026-04-18T08:50:02Z</time></trkpt><trkpt lat="46.25373617290159" lon="13.165427304266062"><ele>358.0</ele><time>2026-04-18T08:50:03Z</time></trkpt><trkpt lat="46.25381041395189" lon="13.165482249355641"><ele>358.0</ele><time>2026-04-18T08:50:04Z</time></trkpt><trkpt lat="46.25391687360562" lon="13.165449674741229"><ele>358.0</ele><time>2026-04-18T08:50:05Z</time></trkpt><trkpt lat="46.25402518730036" lon="13.16541676421971"><ele>358.0</ele><time>2026-04-18T08:50:06Z</time></trkpt><trkpt lat="46.25414216967651" lon="13.16538436573765"><ele>358.2</ele><time>2026-04-18T08:50:07Z</time></trkpt><trkpt lat="46.25424399849556" lon="13.165357285452986"><ele>358.4</ele><time>2026-04-18T08:50:08Z</time></trkpt><trkpt lat="46.25434915660866" lon="13.165333712241257"><ele>358.59999999999997</ele><time>2026-04-18T08:50:09Z</time></trkpt><trkpt lat="46.254465335585564" lon="13.165367282878549"><ele>358.79999999999995</ele><time>2026-04-18T08:50:10Z</time></trkpt><trkpt lat="46.25455418220745" lon="13.165405511336425"><ele>359.0</ele><time>2026-04-18T08:50:11Z</time></trkpt><trkpt lat="46.254623333567885" lon="13.165468116658422"><ele>359.0</ele><time>2026-04-18T08:50:12Z</time></trkpt><trkpt lat="46.25469002627407" lon="13.165494996519742"><ele>359.0</ele><time>2026-04-18T08:50:13Z</time></trkpt><trkpt lat="46.254725229407335" lon="13.165657582482662"><ele>359.0</ele><time>2026-04-18T08:50:15Z</time></trkpt><trkpt lat="46.25468956953833" lon="13.165733587116943"><ele>359.0</ele><time>2026-04-18T08:50:16Z</time></trkpt><trkpt lat="46.25461283560195" lon="13.16575650140361"><ele>359.0</ele><time>2026-04-18T08:50:17Z</time></trkpt><trkpt lat="46.254527894379244" lon="13.165731207200345"><ele>359.0</ele><time>2026-04-18T08:50:18Z</time></trkpt><trkpt lat="46.25442794884276" lon="13.16571249331573"><ele>361.0</ele><time>2026-04-18T08:50:19Z</time></trkpt><trkpt lat="46.25433094852675" lon="13.165711550409338"><ele>363.0</ele><time>2026-04-18T08:50:20Z</time></trkpt><trkpt lat="46.254243713006396" lon="13.165735083305243"><ele>365.0</ele><time>2026-04-18T08:50:21Z</time></trkpt><trkpt lat="46.25415582909154" lon="13.165807806790875"><ele>367.0</ele><time>2026-04-18T08:50:22Z</time></trkpt><trkpt lat="46.25405701190264" lon="13.165912857939563"><ele>369.0</ele><time>2026-04-18T08:50:23Z</time></trkpt><trkpt lat="46.25395273066947" lon="13.166028476136932"><ele>369.0</ele><time>2026-04-18T08:50:24Z</time></trkpt><trkpt lat="46.25384314501957" lon="13.16614997547103"><ele>369.0</ele><time>2026-04-18T08:50:25Z</time></trkpt><trkpt lat="46.25373744919294" lon="13.166267146565492"><ele>369.0</ele><time>2026-04-18T08:50:26Z</time></trkpt><trkpt lat="46.25364964536102" lon="13.166391622685737"><ele>369.0</ele><time>2026-04-18T08:50:27Z</time></trkpt><trkpt lat="46.253551413520526" lon="13.166492245790675"><ele>371.79999999999995</ele><time>2026-04-18T08:50:28Z</time></trkpt><trkpt lat="46.25345770299678" lon="13.166594235215248"><ele>374.59999999999997</ele><time>2026-04-18T08:50:29Z</time></trkpt><trkpt lat="46.25338155499237" lon="13.166682238837579"><ele>377.4</ele><time>2026-04-18T08:50:30Z</time></trkpt><trkpt lat="46.25331594076506" lon="13.166773911653113"><ele>380.2</ele><time>2026-04-18T08:50:31Z</time></trkpt><trkpt lat="46.253261983472726" lon="13.166913136474758"><ele>383.0</ele><time>2026-04-18T08:50:32Z</time></trkpt><trkpt lat="46.25323417079959" lon="13.167036734845762"><ele>383.0</ele><time>2026-04-18T08:50:33Z</time></trkpt><trkpt lat="46.25321240068907" lon="13.167134132840252"><ele>383.0</ele><time>2026-04-18T08:50:34Z</time></trkpt><trkpt lat="46.25318408068094" lon="13.167271527427248"><ele>383.0</ele><time>2026-04-18T08:50:36Z</time></trkpt><trkpt lat="46.25316150679522" lon="13.167374939654433"><ele>383.0</ele><time>2026-04-18T08:50:38Z</time></trkpt><trkpt lat="46.253134424570945" lon="13.167509687632476"><ele>383.0</ele><time>2026-04-18T08:50:40Z</time></trkpt><trkpt lat="46.253213823691425" lon="13.167659705151907"><ele>384.5</ele><time>2026-04-18T08:50:41Z</time></trkpt><trkpt lat="46.253233206085106" lon="13.167795033637377"><ele>386.0</ele><time>2026-04-18T08:50:42Z</time></trkpt><trkpt lat="46.253274475656035" lon="13.167910923292846"><ele>387.5</ele><time>2026-04-18T08:50:43Z</time></trkpt><trkpt lat="46.25334252168882" lon="13.16800606263047"><ele>389.0</ele><time>2026-04-18T08:50:44Z</time></trkpt><trkpt lat="46.25342052925125" lon="13.168067595857188"><ele>390.49999999999994</ele><time>2026-04-18T08:50:45Z</time></trkpt><trkpt lat="46.253492422020535" lon="13.168107668969618"><ele>392.0</ele><time>2026-04-18T08:50:46Z</time></trkpt><trkpt lat="46.25356941999131" lon="13.168119812741349"><ele>391.99999999999994</ele><time>2026-04-18T08:50:47Z</time></trkpt><trkpt lat="46.25364713071593" lon="13.16813552788674"><ele>392.0</ele><time>2026-04-18T08:50:48Z</time></trkpt><trkpt lat="46.25372358562829" lon="13.168162257665994"><ele>392.0</ele><time>2026-04-18T08:50:49Z</time></trkpt><trkpt lat="46.25380851359722" lon="13.168162133491093"><ele>392.0</ele><time>2026-04-18T08:50:50Z</time></trkpt><trkpt lat="46.25390078296262" lon="13.168147893881791"><ele>391.99999999999994</ele><time>2026-04-18T08:50:51Z</time></trkpt><trkpt lat="46.25399582765004" lon="13.168123360129979"><ele>392.0</ele><time>2026-04-18T08:50:52Z</time></trkpt><trkpt lat="46.254106919412585" lon="13.168115128748992"><ele>394.0</ele><time>2026-04-18T08:50:53Z</time></trkpt><trkpt lat="46.25421457693545" lon="13.16805526182074"><ele>396.0</ele><time>2026-04-18T08:50:54Z</time></trkpt><trkpt lat="46.25430220196983" lon="13.16801594044085"><ele>398.0</ele><time>2026-04-18T08:50:55Z</time></trkpt><trkpt lat="46.25438957156836" lon="13.16800879647097"><ele>400.0</ele><time>2026-04-18T08:50:56Z</time></trkpt><trkpt lat="46.25447790668532" lon="13.168072527136314"><ele>402.0</ele><time>2026-04-18T08:50:57Z</time></trkpt><trkpt lat="46.254571275197144" lon="13.168133788338084"><ele>402.8</ele><time>2026-04-18T08:50:58Z</time></trkpt><trkpt lat="46.25463387933655" lon="13.168262399262082"><ele>403.6</ele><time>2026-04-18T08:50:58.999Z</time></trkpt><trkpt lat="46.25469854213884" lon="13.168384096745454"><ele>404.40000000000003</ele><time>2026-04-18T08:50:59.999Z</time></trkpt><trkpt lat="46.254771895443426" lon="13.16853015884301"><ele>405.20000000000005</ele><time>2026-04-18T08:51:00.999Z</time></trkpt><trkpt lat="46.25482856652353" lon="13.168660156966064"><ele>406.0</ele><time>2026-04-18T08:51:01.999Z</time></trkpt><trkpt lat="46.25488030861949" lon="13.168785359881973"><ele>407.8</ele><time>2026-04-18T08:51:02.999Z</time></trkpt><trkpt lat="46.254919660755185" lon="13.168904249598873"><ele>409.6</ele><time>2026-04-18T08:51:03.999Z</time></trkpt><trkpt lat="46.254953347997144" lon="13.169016013601711"><ele>411.4</ele><time>2026-04-18T08:51:04.999Z</time></trkpt><trkpt lat="46.25494254515701" lon="13.169155043688727"><ele>413.2</ele><time>2026-04-18T08:51:05.999Z</time></trkpt><trkpt lat="46.25491131882846" lon="13.169279951228312"><ele>415.0</ele><time>2026-04-18T08:51:06.999Z</time></trkpt><trkpt lat="46.254867789742214" lon="13.16938774832221"><ele>414.6</ele><time>2026-04-18T08:51:07.999Z</time></trkpt><trkpt lat="46.25481332513666" lon="13.16949175239334"><ele>414.2</ele><time>2026-04-18T08:51:08.999Z</time></trkpt><trkpt lat="46.25472795932341" lon="13.169584771478927"><ele>413.79999999999995</ele><time>2026-04-18T08:51:09.999Z</time></trkpt><trkpt lat="46.25463278736135" lon="13.169676580728678"><ele>413.4</ele><time>2026-04-18T08:51:10.999Z</time></trkpt><trkpt lat="46.25454384957565" lon="13.169772071079246"><ele>413.0</ele><time>2026-04-18T08:51:11.999Z</time></trkpt><trkpt lat="46.25445456154971" lon="13.169861667267554"><ele>416.0</ele><time>2026-04-18T08:51:12.999Z</time></trkpt><trkpt lat="46.25435935080534" lon="13.169950919709086"><ele>419.0</ele><time>2026-04-18T08:51:13.999Z</time></trkpt><trkpt lat="46.25427110195357" lon="13.170033462313464"><ele>421.99999999999994</ele><time>2026-04-18T08:51:14.999Z</time></trkpt><trkpt lat="46.25419905294596" lon="13.170110356623328"><ele>425.0</ele><time>2026-04-18T08:51:15.999Z</time></trkpt><trkpt lat="46.25413361159029" lon="13.170221885607667"><ele>428.0</ele><time>2026-04-18T08:51:16.999Z</time></trkpt><trkpt lat="46.254085978379685" lon="13.170331642822863"><ele>428.0</ele><time>2026-04-18T08:51:17.999Z</time></trkpt><trkpt lat="46.25404257445001" lon="13.170447015951638"><ele>427.99999999999994</ele><time>2026-04-18T08:51:18.999Z</time></trkpt><trkpt lat="46.25404856493442" lon="13.170619377412416"><ele>427.99999999999994</ele><time>2026-04-18T08:51:19.999Z</time></trkpt><trkpt lat="46.25406360552729" lon="13.170792712164467"><ele>428.0</ele><time>2026-04-18T08:51:20.999Z</time></trkpt><trkpt lat="46.2540776100469" lon="13.170955260190212"><ele>428.0</ele><time>2026-04-18T08:51:21.999Z</time></trkpt><trkpt lat="46.25409103026301" lon="13.171108633807634"><ele>430.2</ele><time>2026-04-18T08:51:22.999Z</time></trkpt><trkpt lat="46.25410452307761" lon="13.171262837594025"><ele>432.4</ele><time>2026-04-18T08:51:23.999Z</time></trkpt><trkpt lat="46.25411717306624" lon="13.171405588160729"><ele>434.59999999999997</ele><time>2026-04-18T08:51:24.999Z</time></trkpt><trkpt lat="46.25413881580598" lon="13.171541903793138"><ele>436.79999999999995</ele><time>2026-04-18T08:51:25.999Z</time></trkpt><trkpt lat="46.2541115310769" lon="13.17168791643586"><ele>439.0</ele><time>2026-04-18T08:51:26.999Z</time></trkpt><trkpt lat="46.25408597891934" lon="13.17184338656272"><ele>442.0</ele><time>2026-04-18T08:51:27.999Z</time></trkpt><trkpt lat="46.25404942833193" lon="13.172017716670165"><ele>445.0</ele><time>2026-04-18T08:51:28.999Z</time></trkpt><trkpt lat="46.25400755280368" lon="13.172211313841247"><ele>448.0</ele><time>2026-04-18T08:51:29.999Z</time></trkpt><trkpt lat="46.25397093650017" lon="13.172379644349345"><ele>451.0</ele><time>2026-04-18T08:51:30.999Z</time></trkpt><trkpt lat="46.25395910418484" lon="13.17250960990022"><ele>453.1666666666667</ele><time>2026-04-18T08:51:31.999Z</time></trkpt><trkpt lat="46.253934973191626" lon="13.172622481137898"><ele>455.33333333333337</ele><time>2026-04-18T08:51:32.999Z</time></trkpt><trkpt lat="46.25391368877338" lon="13.172732476085585"><ele>457.5</ele><time>2026-04-18T08:51:33.999Z</time></trkpt><trkpt lat="46.25389351265484" lon="13.17284502323054"><ele>459.66666666666663</ele><time>2026-04-18T08:51:34.999Z</time></trkpt><trkpt lat="46.25388408968846" lon="13.172962223355745"><ele>461.8333333333333</ele><time>2026-04-18T08:51:35.999Z</time></trkpt><trkpt lat="46.25388132811177" lon="13.173086633186504"><ele>464.0</ele><time>2026-04-18T08:51:36.999Z</time></trkpt><trkpt lat="46.2538843217286" lon="13.173203210648785"><ele>464.00000000000006</ele><time>2026-04-18T08:51:37.999Z</time></trkpt><trkpt lat="46.25389058538916" lon="13.173309844903333"><ele>464.0</ele><time>2026-04-18T08:51:38.999Z</time></trkpt><trkpt lat="46.25389094686538" lon="13.173418856810907"><ele>464.00000000000006</ele><time>2026-04-18T08:51:39.999Z</time></trkpt><trkpt lat="46.25389093380467" lon="13.17352022166425"><ele>464.00000000000006</ele><time>2026-04-18T08:51:40.999Z</time></trkpt><trkpt lat="46.25389043305515" lon="13.173624996046286"><ele>464.0</ele><time>2026-04-18T08:51:41.999Z</time></trkpt><trkpt lat="46.25388910059991" lon="13.173734669366231"><ele>464.00000000000006</ele><time>2026-04-18T08:51:42.999Z</time></trkpt><trkpt lat="46.253893857648904" lon="13.173850647124315"><ele>464.00000000000006</ele><time>2026-04-18T08:51:43.999Z</time></trkpt><trkpt lat="46.25389703145585" lon="13.173970294079409"><ele>463.16666666666663</ele><time>2026-04-18T08:51:45Z</time></trkpt><trkpt lat="46.25389458607748" lon="13.174090655161903"><ele>462.3333333333333</ele><time>2026-04-18T08:51:46Z</time></trkpt><trkpt lat="46.2538984178299" lon="13.174210992970172"><ele>461.5</ele><time>2026-04-18T08:51:47Z</time></trkpt><trkpt lat="46.2539046839251" lon="13.174327687519375"><ele>460.66666666666663</ele><time>2026-04-18T08:51:48Z</time></trkpt><trkpt lat="46.253908010057" lon="13.174446883692495"><ele>459.8333333333333</ele><time>2026-04-18T08:51:49Z</time></trkpt><trkpt lat="46.25391237247051" lon="13.174567633449351"><ele>459.0</ele><time>2026-04-18T08:51:50Z</time></trkpt><trkpt lat="46.25391706754465" lon="13.174684033968898"><ele>459.0</ele><time>2026-04-18T08:51:51Z</time></trkpt><trkpt lat="46.253922023024515" lon="13.174804502665346"><ele>459.0</ele><time>2026-04-18T08:51:52Z</time></trkpt><trkpt lat="46.25392244993532" lon="13.174932494419302"><ele>459.0</ele><time>2026-04-18T08:51:53Z</time></trkpt><trkpt lat="46.2539279808343" lon="13.175065655538031"><ele>459.0</ele><time>2026-04-18T08:51:54Z</time></trkpt><trkpt lat="46.253934717686185" lon="13.17520871880802"><ele>459.0</ele><time>2026-04-18T08:51:55Z</time></trkpt><trkpt lat="46.253935493353445" lon="13.175347840249934"><ele>458.3333333333333</ele><time>2026-04-18T08:51:56Z</time></trkpt><trkpt lat="46.253937726138815" lon="13.17546767738982"><ele>457.66666666666663</ele><time>2026-04-18T08:51:57Z</time></trkpt><trkpt lat="46.25394095379861" lon="13.175584669544671"><ele>457.0</ele><time>2026-04-18T08:51:58Z</time></trkpt><trkpt lat="46.253945999924966" lon="13.17570868528705"><ele>456.3333333333333</ele><time>2026-04-18T08:51:59Z</time></trkpt><trkpt lat="46.253953415319806" lon="13.175830871674407"><ele>455.66666666666663</ele><time>2026-04-18T08:52:00Z</time></trkpt><trkpt lat="46.25395781487234" lon="13.175954819892434"><ele>455.0</ele><time>2026-04-18T08:52:01Z</time></trkpt><trkpt lat="46.25395786903673" lon="13.17608038734865"><ele>455.0</ele><time>2026-04-18T08:52:02Z</time></trkpt><trkpt lat="46.25396426906235" lon="13.17621182740331"><ele>455.0</ele><time>2026-04-18T08:52:03Z</time></trkpt><trkpt lat="46.25397388524915" lon="13.176355562118344"><ele>455.0</ele><time>2026-04-18T08:52:04Z</time></trkpt><trkpt lat="46.25399007367062" lon="13.176510644376691"><ele>455.0</ele><time>2026-04-18T08:52:05Z</time></trkpt><trkpt lat="46.2540191524865" lon="13.176671765843006"><ele>455.0</ele><time>2026-04-18T08:52:06Z</time></trkpt><trkpt lat="46.25403114559102" lon="13.176830269110749"><ele>455.6</ele><time>2026-04-18T08:52:07Z</time></trkpt><trkpt lat="46.25405890452638" lon="13.176978791231479"><ele>456.2</ele><time>2026-04-18T08:52:08Z</time></trkpt><trkpt lat="46.25410578172642" lon="13.177114768765513"><ele>456.79999999999995</ele><time>2026-04-18T08:52:09Z</time></trkpt><trkpt lat="46.25413548200075" lon="13.177258406970074"><ele>457.4</ele><time>2026-04-18T08:52:10Z</time></trkpt><trkpt lat="46.254176969655674" lon="13.177396040123073"><ele>458.0</ele><time>2026-04-18T08:52:11Z</time></trkpt><trkpt lat="46.254228152275005" lon="13.177519462235285"><ele>456.0</ele><time>2026-04-18T08:52:12Z</time></trkpt><trkpt lat="46.2542828396911" lon="13.17763502877061"><ele>453.99999999999994</ele><time>2026-04-18T08:52:13Z</time></trkpt><trkpt lat="46.25433927349922" lon="13.17773344027472"><ele>451.99999999999994</ele><time>2026-04-18T08:52:14Z</time></trkpt><trkpt lat="46.25440884800625" lon="13.177822157176537"><ele>450.0</ele><time>2026-04-18T08:52:15Z</time></trkpt><trkpt lat="46.254483242351846" lon="13.17790788600648"><ele>448.0</ele><time>2026-04-18T08:52:16Z</time></trkpt><trkpt lat="46.2545586185957" lon="13.17799675854199"><ele>448.0</ele><time>2026-04-18T08:52:17Z</time></trkpt><trkpt lat="46.25463735836401" lon="13.178088670124382"><ele>447.99999999999994</ele><time>2026-04-18T08:52:18Z</time></trkpt><trkpt lat="46.25471494397193" lon="13.178188123816657"><ele>447.99999999999994</ele><time>2026-04-18T08:52:19Z</time></trkpt><trkpt lat="46.25478613050896" lon="13.178305704428485"><ele>448.0</ele><time>2026-04-18T08:52:20Z</time></trkpt><trkpt lat="46.254857503638924" lon="13.178430482925068"><ele>448.0</ele><time>2026-04-18T08:52:21Z</time></trkpt><trkpt lat="46.25492575684945" lon="13.178565387624605"><ele>448.0</ele><time>2026-04-18T08:52:22Z</time></trkpt><trkpt lat="46.254988923029295" lon="13.17870892161932"><ele>448.0</ele><time>2026-04-18T08:52:23Z</time></trkpt><trkpt lat="46.25504819672068" lon="13.178851143148872"><ele>448.0</ele><time>2026-04-18T08:52:24Z</time></trkpt><trkpt lat="46.2551042160953" lon="13.178990172867005"><ele>448.0</ele><time>2026-04-18T08:52:25Z</time></trkpt><trkpt lat="46.25514541630335" lon="13.179138920641668"><ele>448.0</ele><time>2026-04-18T08:52:26Z</time></trkpt><trkpt lat="46.255205744171505" lon="13.179277037980716"><ele>448.0</ele><time>2026-04-18T08:52:27Z</time></trkpt><trkpt lat="46.25527824656975" lon="13.17940689280242"><ele>448.0</ele><time>2026-04-18T08:52:28Z</time></trkpt><trkpt lat="46.25536491894321" lon="13.179523976172252"><ele>448.0</ele><time>2026-04-18T08:52:29Z</time></trkpt><trkpt lat="46.25546762378337" lon="13.179632055593276"><ele>448.0</ele><time>2026-04-18T08:52:30Z</time></trkpt><trkpt lat="46.25558845770082" lon="13.179702245643266"><ele>448.0</ele><time>2026-04-18T08:52:31Z</time></trkpt><trkpt lat="46.255710324111014" lon="13.179797009950583"><ele>448.0</ele><time>2026-04-18T08:52:32Z</time></trkpt><trkpt lat="46.25580572222287" lon="13.179894940114272"><ele>448.0</ele><time>2026-04-18T08:52:33Z</time></trkpt><trkpt lat="46.255896749782906" lon="13.180026484020578"><ele>450.25</ele><time>2026-04-18T08:52:34Z</time></trkpt><trkpt lat="46.255969000332" lon="13.180188277347483"><ele>452.5</ele><time>2026-04-18T08:52:35Z</time></trkpt><trkpt lat="46.25604658336948" lon="13.180356712394218"><ele>454.75</ele><time>2026-04-18T08:52:36Z</time></trkpt><trkpt lat="46.25612721610158" lon="13.180485503289267"><ele>457.0</ele><time>2026-04-18T08:52:37Z</time></trkpt><trkpt lat="46.25620297699216" lon="13.18058984226511"><ele>457.00000000000006</ele><time>2026-04-18T08:52:38Z</time></trkpt><trkpt lat="46.25626146740566" lon="13.180675569407315"><ele>457.0</ele><time>2026-04-18T08:52:39Z</time></trkpt><trkpt lat="46.25632215355238" lon="13.180749089182424"><ele>457.0</ele><time>2026-04-18T08:52:40Z</time></trkpt><trkpt lat="46.25637560754314" lon="13.180799384098025"><ele>457.0</ele><time>2026-04-18T08:52:41Z</time></trkpt><trkpt lat="46.256440956972355" lon="13.180830303041335"><ele>457.00000000000006</ele><time>2026-04-18T08:52:42Z</time></trkpt><trkpt lat="46.25652372610407" lon="13.180821911253918"><ele>457.0</ele><time>2026-04-18T08:52:43Z</time></trkpt><trkpt lat="46.25661489905191" lon="13.180796845114697"><ele>459.33333333333337</ele><time>2026-04-18T08:52:44Z</time></trkpt><trkpt lat="46.25669953973909" lon="13.180775591921016"><ele>461.6666666666667</ele><time>2026-04-18T08:52:45Z</time></trkpt><trkpt lat="46.25677886051086" lon="13.180774119903145"><ele>464.0</ele><time>2026-04-18T08:52:46Z</time></trkpt><trkpt lat="46.25685117091435" lon="13.1807911701388"><ele>466.33333333333337</ele><time>2026-04-18T08:52:47Z</time></trkpt><trkpt lat="46.256915968843856" lon="13.180825296282155"><ele>468.6666666666667</ele><time>2026-04-18T08:52:48Z</time></trkpt><trkpt lat="46.256981584989184" lon="13.180872231515496"><ele>471.0</ele><time>2026-04-18T08:52:49Z</time></trkpt><trkpt lat="46.257051698051775" lon="13.180928707476856"><ele>471.0</ele><time>2026-04-18T08:52:50Z</time></trkpt><trkpt lat="46.257111361415056" lon="13.18100425738629"><ele>471.0</ele><time>2026-04-18T08:52:51Z</time></trkpt><trkpt lat="46.2571702742824" lon="13.181087206060063"><ele>471.0</ele><time>2026-04-18T08:52:52Z</time></trkpt><trkpt lat="46.25723176956732" lon="13.181173569073149"><ele>471.0</ele><time>2026-04-18T08:52:53Z</time></trkpt><trkpt lat="46.25729162335141" lon="13.181272538214227"><ele>471.0</ele><time>2026-04-18T08:52:54Z</time></trkpt><trkpt lat="46.257354765845996" lon="13.181380569730027"><ele>471.0</ele><time>2026-04-18T08:52:55Z</time></trkpt><trkpt lat="46.25741335652764" lon="13.181498825102635"><ele>473.25</ele><time>2026-04-18T08:52:56Z</time></trkpt><trkpt lat="46.25744840531408" lon="13.18164294021421"><ele>475.5</ele><time>2026-04-18T08:52:57Z</time></trkpt><trkpt lat="46.25747060250859" lon="13.181803777889963"><ele>477.75</ele><time>2026-04-18T08:52:58Z</time></trkpt><trkpt lat="46.257512497765454" lon="13.181978162605985"><ele>480.0</ele><time>2026-04-18T08:52:59Z</time></trkpt><trkpt lat="46.257554063693156" lon="13.182139144600573"><ele>480.0</ele><time>2026-04-18T08:53:00Z</time></trkpt><trkpt lat="46.25758781594786" lon="13.182274155638835"><ele>480.0</ele><time>2026-04-18T08:53:01Z</time></trkpt><trkpt lat="46.257618375180485" lon="13.182409687022705"><ele>480.0</ele><time>2026-04-18T08:53:01.999Z</time></trkpt><trkpt lat="46.257642578375595" lon="13.182538799089377"><ele>480.0</ele><time>2026-04-18T08:53:02.999Z</time></trkpt><trkpt lat="46.25766974187959" lon="13.182640226218808"><ele>480.0</ele><time>2026-04-18T08:53:03.999Z</time></trkpt><trkpt lat="46.25770434699669" lon="13.182742916021922"><ele>480.0</ele><time>2026-04-18T08:53:04.999Z</time></trkpt><trkpt lat="46.25774239953931" lon="13.182847836893284"><ele>480.0</ele><time>2026-04-18T08:53:05.999Z</time></trkpt><trkpt lat="46.25778077395006" lon="13.182945128995899"><ele>480.0</ele><time>2026-04-18T08:53:06.999Z</time></trkpt><trkpt lat="46.25783343014644" lon="13.183033071110213"><ele>480.0</ele><time>2026-04-18T08:53:07.999Z</time></trkpt><trkpt lat="46.25785977934424" lon="13.183160243818"><ele>480.0</ele><time>2026-04-18T08:53:08.999Z</time></trkpt><trkpt lat="46.25790418513776" lon="13.183293761073847"><ele>480.0</ele><time>2026-04-18T08:53:09.999Z</time></trkpt><trkpt lat="46.257951986631895" lon="13.183444367456058"><ele>480.0</ele><time>2026-04-18T08:53:10.999Z</time></trkpt><trkpt lat="46.25800143668802" lon="13.183613064651821"><ele>480.0</ele><time>2026-04-18T08:53:11.999Z</time></trkpt><trkpt lat="46.2580450700448" lon="13.183777981548394"><ele>480.0</ele><time>2026-04-18T08:53:12.999Z</time></trkpt><trkpt lat="46.25809381743027" lon="13.18391655935902"><ele>480.0</ele><time>2026-04-18T08:53:13.999Z</time></trkpt><trkpt lat="46.25812586546956" lon="13.184043977055076"><ele>483.6</ele><time>2026-04-18T08:53:14.999Z</time></trkpt><trkpt lat="46.258173614046065" lon="13.184161485035913"><ele>487.2</ele><time>2026-04-18T08:53:15.999Z</time></trkpt><trkpt lat="46.25822649906356" lon="13.184273033905882"><ele>490.79999999999995</ele><time>2026-04-18T08:53:16.999Z</time></trkpt><trkpt lat="46.258282926154024" lon="13.184375992399225"><ele>494.4</ele><time>2026-04-18T08:53:17.999Z</time></trkpt><trkpt lat="46.25834829060475" lon="13.184463473611597"><ele>498.0</ele><time>2026-04-18T08:53:18.999Z</time></trkpt><trkpt lat="46.2584198103892" lon="13.184532285443517"><ele>498.0</ele><time>2026-04-18T08:53:19.999Z</time></trkpt><trkpt lat="46.25848875419593" lon="13.184568269059993"><ele>498.0</ele><time>2026-04-18T08:53:20.999Z</time></trkpt><trkpt lat="46.25855189037586" lon="13.184576949631438"><ele>498.0</ele><time>2026-04-18T08:53:21.999Z</time></trkpt><trkpt lat="46.258623748565086" lon="13.18454904805869"><ele>498.0</ele><time>2026-04-18T08:53:22.999Z</time></trkpt><trkpt lat="46.25869602563728" lon="13.184483224857813"><ele>498.0</ele><time>2026-04-18T08:53:23.999Z</time></trkpt><trkpt lat="46.25876763774979" lon="13.184420770307018"><ele>498.0</ele><time>2026-04-18T08:53:24.999Z</time></trkpt><trkpt lat="46.25883252578376" lon="13.184377118740219"><ele>498.0</ele><time>2026-04-18T08:53:25.999Z</time></trkpt><trkpt lat="46.25891453383187" lon="13.184350345359345"><ele>498.0</ele><time>2026-04-18T08:53:26.999Z</time></trkpt><trkpt lat="46.25901570040957" lon="13.18434268614352"><ele>498.0</ele><time>2026-04-18T08:53:27.999Z</time></trkpt><trkpt lat="46.25911183954478" lon="13.184367785554157"><ele>498.0</ele><time>2026-04-18T08:53:28.999Z</time></trkpt><trkpt lat="46.259191050721576" lon="13.184394954858885"><ele>498.0</ele><time>2026-04-18T08:53:29.999Z</time></trkpt><trkpt lat="46.25925142826296" lon="13.184425028388558"><ele>498.0</ele><time>2026-04-18T08:53:30.999Z</time></trkpt><trkpt lat="46.25931019531194" lon="13.184462108564547"><ele>499.0</ele><time>2026-04-18T08:53:31.999Z</time></trkpt><trkpt lat="46.2593749592016" lon="13.184502073474944"><ele>500.0</ele><time>2026-04-18T08:53:32.999Z</time></trkpt><trkpt lat="46.25944819206033" lon="13.184537305341399"><ele>501.0</ele><time>2026-04-18T08:53:33.999Z</time></trkpt><trkpt lat="46.259521952955296" lon="13.184578783313421"><ele>502.0</ele><time>2026-04-18T08:53:34.999Z</time></trkpt><trkpt lat="46.25959625722382" lon="13.184629592646283"><ele>503.0</ele><time>2026-04-18T08:53:35.999Z</time></trkpt><trkpt lat="46.25967259803104" lon="13.184672371756752"><ele>504.0</ele><time>2026-04-18T08:53:36.999Z</time></trkpt><trkpt lat="46.2597399215427" lon="13.184733776759014"><ele>505.6666666666667</ele><time>2026-04-18T08:53:37.999Z</time></trkpt><trkpt lat="46.25980844513698" lon="13.184782034166668"><ele>507.33333333333337</ele><time>2026-04-18T08:53:38.999Z</time></trkpt><trkpt lat="46.25986757099061" lon="13.184837738101363"><ele>509.0</ele><time>2026-04-18T08:53:39.999Z</time></trkpt><trkpt lat="46.259928343798755" lon="13.184885645828453"><ele>510.6666666666667</ele><time>2026-04-18T08:53:40.999Z</time></trkpt><trkpt lat="46.259964885426506" lon="13.18498114106671"><ele>512.3333333333334</ele><time>2026-04-18T08:53:41.999Z</time></trkpt><trkpt lat="46.2599583006219" lon="13.185094956150856"><ele>514.0</ele><time>2026-04-18T08:53:42.999Z</time></trkpt><trkpt lat="46.25995739354573" lon="13.18520992085043"><ele>514.0</ele><time>2026-04-18T08:53:43.999Z</time></trkpt><trkpt lat="46.25993311622641" lon="13.185332877219377"><ele>514.0</ele><time>2026-04-18T08:53:44.999Z</time></trkpt><trkpt lat="46.25990226664724" lon="13.185467337917329"><ele>514.0</ele><time>2026-04-18T08:53:45.999Z</time></trkpt><trkpt lat="46.259881167858815" lon="13.185612156772857"><ele>514.0</ele><time>2026-04-18T08:53:46.999Z</time></trkpt><trkpt lat="46.25986382049133" lon="13.185746475190832"><ele>514.0</ele><time>2026-04-18T08:53:47.999Z</time></trkpt><trkpt lat="46.25984978574935" lon="13.185855095029813"><ele>516.0</ele><time>2026-04-18T08:53:48.999Z</time></trkpt><trkpt lat="46.25983513661063" lon="13.185951989602286"><ele>518.0</ele><time>2026-04-18T08:53:49.999Z</time></trkpt><trkpt lat="46.2598318610177" lon="13.186046013216295"><ele>520.0</ele><time>2026-04-18T08:53:51Z</time></trkpt><trkpt lat="46.25981695815186" lon="13.18614118759066"><ele>522.0</ele><time>2026-04-18T08:53:52Z</time></trkpt><trkpt lat="46.25984560538523" lon="13.186260603279873"><ele>524.0</ele><time>2026-04-18T08:53:53Z</time></trkpt><trkpt lat="46.25988479028761" lon="13.186369461627212"><ele>526.0</ele><time>2026-04-18T08:53:54Z</time></trkpt><trkpt lat="46.25990673868768" lon="13.186475202274353"><ele>526.3333333333334</ele><time>2026-04-18T08:53:55Z</time></trkpt><trkpt lat="46.25993688559274" lon="13.18656033150823"><ele>526.6666666666667</ele><time>2026-04-18T08:53:56Z</time></trkpt><trkpt lat="46.25998472780167" lon="13.18662865567801"><ele>527.0</ele><time>2026-04-18T08:53:57Z</time></trkpt><trkpt lat="46.260050563113865" lon="13.186681993680965"><ele>527.3333333333334</ele><time>2026-04-18T08:53:58Z</time></trkpt><trkpt lat="46.260124650141684" lon="13.18673494222443"><ele>527.6666666666666</ele><time>2026-04-18T08:53:59Z</time></trkpt><trkpt lat="46.260205762724986" lon="13.186804681061595"><ele>528.0</ele><time>2026-04-18T08:54:00Z</time></trkpt><trkpt lat="46.260280313820715" lon="13.186875930860934"><ele>528.0</ele><time>2026-04-18T08:54:01Z</time></trkpt><trkpt lat="46.260355904693085" lon="13.186946543639241"><ele>528.0</ele><time>2026-04-18T08:54:02Z</time></trkpt><trkpt lat="46.26043059108293" lon="13.187013069102255"><ele>528.0</ele><time>2026-04-18T08:54:03Z</time></trkpt><trkpt lat="46.26051038177729" lon="13.187062272925164"><ele>528.0</ele><time>2026-04-18T08:54:04Z</time></trkpt><trkpt lat="46.260594129824646" lon="13.187093555673894"><ele>528.0</ele><time>2026-04-18T08:54:05Z</time></trkpt><trkpt lat="46.26067509045218" lon="13.187127279256833"><ele>528.0</ele><time>2026-04-18T08:54:06Z</time></trkpt><trkpt lat="46.26073474966366" lon="13.187158570176294"><ele>527.4</ele><time>2026-04-18T08:54:07Z</time></trkpt><trkpt lat="46.26081532092648" lon="13.187226247393053"><ele>526.8</ele><time>2026-04-18T08:54:09Z</time></trkpt><trkpt lat="46.26079278066883" lon="13.187365372735107"><ele>526.2</ele><time>2026-04-18T08:54:11Z</time></trkpt><trkpt lat="46.260699064543" lon="13.187467540942432"><ele>525.6</ele><time>2026-04-18T08:54:13Z</time></trkpt><trkpt lat="46.26064594156221" lon="13.187550523151513"><ele>525.0</ele><time>2026-04-18T08:54:14Z</time></trkpt><trkpt lat="46.26060522826613" lon="13.18762773012061"><ele>525.0</ele><time>2026-04-18T08:54:15Z</time></trkpt><trkpt lat="46.26052733127485" lon="13.187744684456598"><ele>525.0</ele><time>2026-04-18T08:54:17Z</time></trkpt><trkpt lat="46.26055707976753" lon="13.187922395022474"><ele>525.0</ele><time>2026-04-18T08:54:19Z</time></trkpt><trkpt lat="46.260600096155905" lon="13.188012538256867"><ele>525.0</ele><time>2026-04-18T08:54:20Z</time></trkpt><trkpt lat="46.26063714760532" lon="13.188119854982064"><ele>525.0</ele><time>2026-04-18T08:54:21Z</time></trkpt><trkpt lat="46.26068928157662" lon="13.188185547113754"><ele>528.8</ele><time>2026-04-18T08:54:22Z</time></trkpt><trkpt lat="46.260772393181114" lon="13.188294103268174"><ele>532.6</ele><time>2026-04-18T08:54:24Z</time></trkpt><trkpt lat="46.260892427188644" lon="13.188346216220717"><ele>536.4</ele><time>2026-04-18T08:54:26Z</time></trkpt><trkpt lat="46.260962925720854" lon="13.188349533125189"><ele>540.2</ele><time>2026-04-18T08:54:27Z</time></trkpt><trkpt lat="46.26104473715553" lon="13.188360067186736"><ele>544.0</ele><time>2026-04-18T08:54:28Z</time></trkpt><trkpt lat="46.261136617507844" lon="13.188391261006373"><ele>544.0</ele><time>2026-04-18T08:54:29Z</time></trkpt><trkpt lat="46.26123827917501" lon="13.18845920188855"><ele>544.0</ele><time>2026-04-18T08:54:30Z</time></trkpt><trkpt lat="46.26133029895007" lon="13.188501659216143"><ele>544.0</ele><time>2026-04-18T08:54:31Z</time></trkpt><trkpt lat="46.26140457564165" lon="13.188540500710097"><ele>544.0</ele><time>2026-04-18T08:54:32Z</time></trkpt><trkpt lat="46.26147304800542" lon="13.18857026300111"><ele>544.0</ele><time>2026-04-18T08:54:33Z</time></trkpt><trkpt lat="46.26152071782548" lon="13.188655007427366"><ele>544.0</ele><time>2026-04-18T08:54:34Z</time></trkpt><trkpt lat="46.26154387380076" lon="13.18877017817683"><ele>548.6</ele><time>2026-04-18T08:54:35Z</time></trkpt><trkpt lat="46.26154475237515" lon="13.18891309133594"><ele>553.2</ele><time>2026-04-18T08:54:36Z</time></trkpt><trkpt lat="46.261521515826004" lon="13.189051324519623"><ele>557.8000000000001</ele><time>2026-04-18T08:54:37Z</time></trkpt><trkpt lat="46.261522126646" lon="13.189195316658871"><ele>562.4</ele><time>2026-04-18T08:54:38Z</time></trkpt><trkpt lat="46.26149576974259" lon="13.189335244845191"><ele>567.0</ele><time>2026-04-18T08:54:39Z</time></trkpt><trkpt lat="46.26150025163311" lon="13.189482726683995"><ele>567.0</ele><time>2026-04-18T08:54:40Z</time></trkpt><trkpt lat="46.261540263702905" lon="13.189633283425774"><ele>567.0</ele><time>2026-04-18T08:54:41Z</time></trkpt><trkpt lat="46.26160789384338" lon="13.189758113616131"><ele>567.0</ele><time>2026-04-18T08:54:42Z</time></trkpt><trkpt lat="46.26161490377825" lon="13.189901974735093"><ele>567.0</ele><time>2026-04-18T08:54:43Z</time></trkpt><trkpt lat="46.261570570417376" lon="13.190027118477008"><ele>567.0</ele><time>2026-04-18T08:54:44Z</time></trkpt><trkpt lat="46.26155632233507" lon="13.190170121849984"><ele>566.6</ele><time>2026-04-18T08:54:45Z</time></trkpt><trkpt lat="46.26153564287395" lon="13.190313074606026"><ele>566.2</ele><time>2026-04-18T08:54:46Z</time></trkpt><trkpt lat="46.26151997241844" lon="13.190467660127164"><ele>565.8</ele><time>2026-04-18T08:54:47Z</time></trkpt><trkpt lat="46.26149927504103" lon="13.190609651547742"><ele>565.4</ele><time>2026-04-18T08:54:48Z</time></trkpt><trkpt lat="46.26146780679097" lon="13.190748822401414"><ele>565.0</ele><time>2026-04-18T08:54:49Z</time></trkpt><trkpt lat="46.26142546027835" lon="13.190886726300654"><ele>561.8</ele><time>2026-04-18T08:54:50Z</time></trkpt><trkpt lat="46.2613757988185" lon="13.191008974657498"><ele>558.6</ele><time>2026-04-18T08:54:51Z</time></trkpt><trkpt lat="46.26133636669351" lon="13.191119999266709"><ele>555.4</ele><time>2026-04-18T08:54:52Z</time></trkpt><trkpt lat="46.261317724823" lon="13.191241041898936"><ele>552.2</ele><time>2026-04-18T08:54:53Z</time></trkpt><trkpt lat="46.26131341315701" lon="13.19137071149061"><ele>549.0</ele><time>2026-04-18T08:54:54Z</time></trkpt><trkpt lat="46.26133199628451" lon="13.191508508411705"><ele>549.0</ele><time>2026-04-18T08:54:55Z</time></trkpt><trkpt lat="46.26136576519199" lon="13.191658068204097"><ele>549.0</ele><time>2026-04-18T08:54:56Z</time></trkpt><trkpt lat="46.26140298666264" lon="13.191823093431937"><ele>549.0</ele><time>2026-04-18T08:54:57Z</time></trkpt><trkpt lat="46.26143249120731" lon="13.191990875894247"><ele>549.0</ele><time>2026-04-18T08:54:58Z</time></trkpt><trkpt lat="46.26144750652323" lon="13.192159338851685"><ele>550.4</ele><time>2026-04-18T08:54:59Z</time></trkpt><trkpt lat="46.261445932365824" lon="13.192341228199224"><ele>551.8</ele><time>2026-04-18T08:55:00Z</time></trkpt><trkpt lat="46.261445196106735" lon="13.192493944047731"><ele>553.2</ele><time>2026-04-18T08:55:01Z</time></trkpt><trkpt lat="46.26145646571693" lon="13.192640660292696"><ele>554.6</ele><time>2026-04-18T08:55:02Z</time></trkpt><trkpt lat="46.26148193350716" lon="13.192793021434184"><ele>556.0</ele><time>2026-04-18T08:55:03Z</time></trkpt><trkpt lat="46.2614993429556" lon="13.19295553047583"><ele>562.25</ele><time>2026-04-18T08:55:04Z</time></trkpt><trkpt lat="46.26153981795256" lon="13.193114377312034"><ele>568.5</ele><time>2026-04-18T08:55:05Z</time></trkpt><trkpt lat="46.26160100183124" lon="13.193263564024654"><ele>574.75</ele><time>2026-04-18T08:55:06Z</time></trkpt><trkpt lat="46.261664216501686" lon="13.193412201651782"><ele>581.0</ele><time>2026-04-18T08:55:06.999Z</time></trkpt><trkpt lat="46.261743334524034" lon="13.19355590667402"><ele>581.25</ele><time>2026-04-18T08:55:07.999Z</time></trkpt><trkpt lat="46.26182783181831" lon="13.193705236893454"><ele>581.5</ele><time>2026-04-18T08:55:08.999Z</time></trkpt><trkpt lat="46.261907647201035" lon="13.193865774498834"><ele>581.75</ele><time>2026-04-18T08:55:09.999Z</time></trkpt><trkpt lat="46.26197605508067" lon="13.194031787292408"><ele>582.0</ele><time>2026-04-18T08:55:10.999Z</time></trkpt><trkpt lat="46.26203160009729" lon="13.194204465983603"><ele>582.0</ele><time>2026-04-18T08:55:11.999Z</time></trkpt><trkpt lat="46.26208368280091" lon="13.194378384272113"><ele>582.0</ele><time>2026-04-18T08:55:12.999Z</time></trkpt><trkpt lat="46.26215200479287" lon="13.194535654104858"><ele>582.0</ele><time>2026-04-18T08:55:13.999Z</time></trkpt><trkpt lat="46.2622333119069" lon="13.1946846072509"><ele>582.0</ele><time>2026-04-18T08:55:14.999Z</time></trkpt><trkpt lat="46.26230359673181" lon="13.194819381393243"><ele>585.8333333333334</ele><time>2026-04-18T08:55:15.999Z</time></trkpt><trkpt lat="46.26236351784625" lon="13.194921413278879"><ele>589.6666666666666</ele><time>2026-04-18T08:55:16.999Z</time></trkpt><trkpt lat="46.262416358694765" lon="13.194992877289755"><ele>593.5</ele><time>2026-04-18T08:55:17.999Z</time></trkpt><trkpt lat="46.26248037359955" lon="13.195055480196874"><ele>597.3333333333333</ele><time>2026-04-18T08:55:18.999Z</time></trkpt><trkpt lat="46.262556149359646" lon="13.195111893821107"><ele>601.1666666666666</ele><time>2026-04-18T08:55:19.999Z</time></trkpt><trkpt lat="46.262645510752755" lon="13.195138252674512"><ele>605.0</ele><time>2026-04-18T08:55:20.999Z</time></trkpt><trkpt lat="46.2627419675649" lon="13.195139033898167"><ele>605.0</ele><time>2026-04-18T08:55:21.999Z</time></trkpt><trkpt lat="46.26281959797687" lon="13.195148932423484"><ele>605.0</ele><time>2026-04-18T08:55:22.999Z</time></trkpt><trkpt lat="46.26288580168367" lon="13.195191527781157"><ele>605.0</ele><time>2026-04-18T08:55:23.999Z</time></trkpt><trkpt lat="46.26293996200659" lon="13.195273469294703"><ele>605.0</ele><time>2026-04-18T08:55:24.999Z</time></trkpt><trkpt lat="46.262971816165035" lon="13.195387510045236"><ele>605.0</ele><time>2026-04-18T08:55:25.999Z</time></trkpt><trkpt lat="46.26298003727181" lon="13.195516422108664"><ele>605.0</ele><time>2026-04-18T08:55:26.999Z</time></trkpt><trkpt lat="46.262926883361324" lon="13.195606505309035"><ele>605.0</ele><time>2026-04-18T08:55:27.999Z</time></trkpt><trkpt lat="46.262903762321024" lon="13.195704270421805"><ele>605.0</ele><time>2026-04-18T08:55:28.999Z</time></trkpt><trkpt lat="46.26290510008373" lon="13.195803223060295"><ele>605.0</ele><time>2026-04-18T08:55:29.999Z</time></trkpt><trkpt lat="46.262911702809845" lon="13.19591301182486"><ele>605.0</ele><time>2026-04-18T08:55:30.999Z</time></trkpt><trkpt lat="46.26297434837383" lon="13.195997118697392"><ele>605.0</ele><time>2026-04-18T08:55:31.999Z</time></trkpt><trkpt lat="46.263042458156455" lon="13.196075916371498"><ele>605.0</ele><time>2026-04-18T08:55:32.999Z</time></trkpt><trkpt lat="46.263119414536746" lon="13.196174553697729"><ele>609.6</ele><time>2026-04-18T08:55:33.999Z</time></trkpt><trkpt lat="46.26319034917622" lon="13.196292960151021"><ele>614.2</ele><time>2026-04-18T08:55:34.999Z</time></trkpt><trkpt lat="46.26326079523468" lon="13.196411958360422"><ele>618.8</ele><time>2026-04-18T08:55:35.999Z</time></trkpt><trkpt lat="46.26332500944635" lon="13.196529651093574"><ele>623.4</ele><time>2026-04-18T08:55:36.999Z</time></trkpt><trkpt lat="46.263378673657876" lon="13.196622321972841"><ele>628.0</ele><time>2026-04-18T08:55:37.999Z</time></trkpt><trkpt lat="46.26343210842902" lon="13.196691657264862"><ele>628.0</ele><time>2026-04-18T08:55:38.999Z</time></trkpt><trkpt lat="46.26350055315979" lon="13.196737183666462"><ele>628.0</ele><time>2026-04-18T08:55:39.999Z</time></trkpt><trkpt lat="46.26357929187475" lon="13.196761387626845"><ele>628.0</ele><time>2026-04-18T08:55:40.999Z</time></trkpt><trkpt lat="46.263663035467836" lon="13.196760740550996"><ele>628.0</ele><time>2026-04-18T08:55:41.999Z</time></trkpt><trkpt lat="46.26374039155717" lon="13.19673455694289"><ele>628.0</ele><time>2026-04-18T08:55:42.999Z</time></trkpt><trkpt lat="46.263810303868816" lon="13.196698642270466"><ele>628.0</ele><time>2026-04-18T08:55:43.999Z</time></trkpt><trkpt lat="46.263879333979304" lon="13.196688285927006"><ele>631.1666666666667</ele><time>2026-04-18T08:55:44.999Z</time></trkpt><trkpt lat="46.26394755237427" lon="13.196722500801675"><ele>634.3333333333334</ele><time>2026-04-18T08:55:45.999Z</time></trkpt><trkpt lat="46.264003102661206" lon="13.196797064512259"><ele>637.5</ele><time>2026-04-18T08:55:46.999Z</time></trkpt><trkpt lat="46.26404182945002" lon="13.196895158079617"><ele>640.6666666666666</ele><time>2026-04-18T08:55:47.999Z</time></trkpt><trkpt lat="46.26406490368773" lon="13.197012959524617"><ele>643.8333333333333</ele><time>2026-04-18T08:55:48.999Z</time></trkpt><trkpt lat="46.26408767842535" lon="13.197135103106158"><ele>647.0</ele><time>2026-04-18T08:55:49.999Z</time></trkpt><trkpt lat="46.26410019032876" lon="13.197272173409587"><ele>648.0</ele><time>2026-04-18T08:55:50.999Z</time></trkpt><trkpt lat="46.26409364527346" lon="13.197427808868563"><ele>649.0</ele><time>2026-04-18T08:55:51.999Z</time></trkpt><trkpt lat="46.26403921726196" lon="13.197535358233692"><ele>650.0</ele><time>2026-04-18T08:55:52.999Z</time></trkpt><trkpt lat="46.263971050469344" lon="13.197617441060547"><ele>651.0</ele><time>2026-04-18T08:55:53.999Z</time></trkpt><trkpt lat="46.26389321048347" lon="13.197705013897297"><ele>652.0</ele><time>2026-04-18T08:55:54.999Z</time></trkpt><trkpt lat="46.26383257626483" lon="13.197770815553842"><ele>651.5</ele><time>2026-04-18T08:55:55.999Z</time></trkpt><trkpt lat="46.263782521889105" lon="13.197828477089352"><ele>651.0</ele><time>2026-04-18T08:55:57Z</time></trkpt><trkpt lat="46.26370887800679" lon="13.197952405285314"><ele>650.5</ele><time>2026-04-18T08:55:59Z</time></trkpt><trkpt lat="46.263692425458856" lon="13.198071169126122"><ele>650.0</ele><time>2026-04-18T08:56:00Z</time></trkpt><trkpt lat="46.263702358481076" lon="13.198210462223315"><ele>649.5</ele><time>2026-04-18T08:56:01Z</time></trkpt><trkpt lat="46.263700408215804" lon="13.19830634687645"><ele>649.0</ele><time>2026-04-18T08:56:02Z</time></trkpt><trkpt lat="46.26367835979343" lon="13.19847878463809"><ele>649.0</ele><time>2026-04-18T08:56:04Z</time></trkpt><trkpt lat="46.26358833501964" lon="13.198579135772977"><ele>649.0</ele><time>2026-04-18T08:56:06Z</time></trkpt><trkpt lat="46.263475375251566" lon="13.198649285311639"><ele>649.0</ele><time>2026-04-18T08:56:08Z</time></trkpt><trkpt lat="46.26340018872617" lon="13.198653883775473"><ele>649.0</ele><time>2026-04-18T08:56:09Z</time></trkpt><trkpt lat="46.26332877326552" lon="13.198619603477773"><ele>649.0</ele><time>2026-04-18T08:56:10Z</time></trkpt><trkpt lat="46.2632455553399" lon="13.198606556276946"><ele>649.0</ele><time>2026-04-18T08:56:11Z</time></trkpt><trkpt lat="46.26314896333536" lon="13.198593967500239"><ele>649.0</ele><time>2026-04-18T08:56:12Z</time></trkpt><trkpt lat="46.26304478892951" lon="13.198578616461331"><ele>649.0</ele><time>2026-04-18T08:56:13Z</time></trkpt><trkpt lat="46.26294215819292" lon="13.198542485832927"><ele>649.0</ele><time>2026-04-18T08:56:14Z</time></trkpt><trkpt lat="46.26284791252933" lon="13.19846316750866"><ele>649.0</ele><time>2026-04-18T08:56:15Z</time></trkpt><trkpt lat="46.26277119833964" lon="13.19840115363391"><ele>649.6666666666667</ele><time>2026-04-18T08:56:16Z</time></trkpt><trkpt lat="46.26270794353892" lon="13.198350814317033"><ele>650.3333333333334</ele><time>2026-04-18T08:56:17Z</time></trkpt><trkpt lat="46.2626000063892" lon="13.198332568076182"><ele>651.0</ele><time>2026-04-18T08:56:19Z</time></trkpt><trkpt lat="46.26250317081116" lon="13.198445137912032"><ele>651.6666666666666</ele><time>2026-04-18T08:56:21Z</time></trkpt><trkpt lat="46.262470227409295" lon="13.198532897872584"><ele>652.3333333333333</ele><time>2026-04-18T08:56:22Z</time></trkpt><trkpt lat="46.262444808958456" lon="13.198629788554962"><ele>653.0</ele><time>2026-04-18T08:56:23Z</time></trkpt><trkpt lat="46.26243258299196" lon="13.198744321333006"><ele>653.0000000000001</ele><time>2026-04-18T08:56:24Z</time></trkpt><trkpt lat="46.26241360938249" lon="13.19886856006822"><ele>653.0</ele><time>2026-04-18T08:56:25Z</time></trkpt><trkpt lat="46.26244212758069" lon="13.198981116890529"><ele>653.0</ele><time>2026-04-18T08:56:26Z</time></trkpt><trkpt lat="46.26246825046618" lon="13.199071101678378"><ele>653.0</ele><time>2026-04-18T08:56:27Z</time></trkpt><trkpt lat="46.26248275128049" lon="13.199163478650133"><ele>653.0</ele><time>2026-04-18T08:56:28Z</time></trkpt><trkpt lat="46.26251652131157" lon="13.199243578006564"><ele>653.0000000000001</ele><time>2026-04-18T08:56:29Z</time></trkpt><trkpt lat="46.26249853617888" lon="13.199344893651173"><ele>653.0</ele><time>2026-04-18T08:56:30Z</time></trkpt><trkpt lat="46.262453829226686" lon="13.199435413682034"><ele>654.2857142857143</ele><time>2026-04-18T08:56:31Z</time></trkpt><trkpt lat="46.26240129352296" lon="13.199514526539518"><ele>655.5714285714286</ele><time>2026-04-18T08:56:32Z</time></trkpt><trkpt lat="46.26233247512345" lon="13.199569948104333"><ele>656.8571428571429</ele><time>2026-04-18T08:56:33Z</time></trkpt><trkpt lat="46.26226736264231" lon="13.199623765138767"><ele>658.1428571428571</ele><time>2026-04-18T08:56:34Z</time></trkpt><trkpt lat="46.26220946152537" lon="13.199672855949142"><ele>659.4285714285714</ele><time>2026-04-18T08:56:35Z</time></trkpt><trkpt lat="46.262141283669784" lon="13.199706951124845"><ele>660.7142857142858</ele><time>2026-04-18T08:56:36Z</time></trkpt><trkpt lat="46.26207022124079" lon="13.199689370753585"><ele>662.0</ele><time>2026-04-18T08:56:37Z</time></trkpt><trkpt lat="46.26200357664273" lon="13.199649076838872"><ele>662.0</ele><time>2026-04-18T08:56:38Z</time></trkpt><trkpt lat="46.261948180097356" lon="13.199573678648083"><ele>662.0</ele><time>2026-04-18T08:56:39Z</time></trkpt><trkpt lat="46.26191176690668" lon="13.199471357220714"><ele>662.0</ele><time>2026-04-18T08:56:40Z</time></trkpt><trkpt lat="46.26188353102597" lon="13.199366625990828"><ele>662.0</ele><time>2026-04-18T08:56:41Z</time></trkpt><trkpt lat="46.26185043345437" lon="13.19925076257736"><ele>662.0</ele><time>2026-04-18T08:56:42Z</time></trkpt><trkpt lat="46.26181667846675" lon="13.199128674544998"><ele>662.0</ele><time>2026-04-18T08:56:43Z</time></trkpt><trkpt lat="46.26178399342664" lon="13.19902268051906"><ele>660.0</ele><time>2026-04-18T08:56:44Z</time></trkpt><trkpt lat="46.261754666359614" lon="13.198937835542743"><ele>658.0</ele><time>2026-04-18T08:56:45Z</time></trkpt><trkpt lat="46.26172031212692" lon="13.19886141028554"><ele>656.0</ele><time>2026-04-18T08:56:46Z</time></trkpt><trkpt lat="46.261682128482015" lon="13.198775655874272"><ele>654.0</ele><time>2026-04-18T08:56:47Z</time></trkpt><trkpt lat="46.26161508377497" lon="13.198721797428238"><ele>652.0</ele><time>2026-04-18T08:56:48Z</time></trkpt><trkpt lat="46.26151499429906" lon="13.198635600180356"><ele>650.0</ele><time>2026-04-18T08:56:50Z</time></trkpt><trkpt lat="46.26145162475702" lon="13.1985896009484"><ele>650.1666666666666</ele><time>2026-04-18T08:56:51Z</time></trkpt><trkpt lat="46.26138064841163" lon="13.198601373442616"><ele>650.3333333333333</ele><time>2026-04-18T08:56:52Z</time></trkpt><trkpt lat="46.26127592342231" lon="13.198694542169655"><ele>650.5</ele><time>2026-04-18T08:56:54Z</time></trkpt><trkpt lat="46.26123526644079" lon="13.198786407980046"><ele>650.6666666666666</ele><time>2026-04-18T08:56:55Z</time></trkpt><trkpt lat="46.26122447652462" lon="13.19890825845381"><ele>650.8333333333334</ele><time>2026-04-18T08:56:56Z</time></trkpt><trkpt lat="46.26117997702288" lon="13.199004042273216"><ele>651.0</ele><time>2026-04-18T08:56:57Z</time></trkpt><trkpt lat="46.26111836899104" lon="13.199094715373105"><ele>654.1999999999999</ele><time>2026-04-18T08:56:58Z</time></trkpt><trkpt lat="46.2610375039182" lon="13.199162675504864"><ele>657.4</ele><time>2026-04-18T08:56:59Z</time></trkpt><trkpt lat="46.26094264386979" lon="13.19917776215958"><ele>660.6</ele><time>2026-04-18T08:57:00Z</time></trkpt><trkpt lat="46.26083986814341" lon="13.199150123758084"><ele>663.8</ele><time>2026-04-18T08:57:01Z</time></trkpt><trkpt lat="46.26075056705264" lon="13.199138633355036"><ele>667.0</ele><time>2026-04-18T08:57:02Z</time></trkpt><trkpt lat="46.260661829134165" lon="13.199170075362476"><ele>666.8</ele><time>2026-04-18T08:57:03Z</time></trkpt><trkpt lat="46.26055660633267" lon="13.199201948750375"><ele>666.6</ele><time>2026-04-18T08:57:04Z</time></trkpt><trkpt lat="46.260450806556314" lon="13.19925737817354"><ele>666.4</ele><time>2026-04-18T08:57:05Z</time></trkpt><trkpt lat="46.26035866792791" lon="13.19930498743196"><ele>666.1999999999999</ele><time>2026-04-18T08:57:06Z</time></trkpt><trkpt lat="46.26028680288023" lon="13.199355606820617"><ele>666.0</ele><time>2026-04-18T08:57:07Z</time></trkpt><trkpt lat="46.26021887363514" lon="13.199373251141441"><ele>666.0</ele><time>2026-04-18T08:57:08Z</time></trkpt><trkpt lat="46.26011584767512" lon="13.199379702180407"><ele>666.0</ele><time>2026-04-18T08:57:10Z</time></trkpt><trkpt lat="46.26003443812118" lon="13.19943014220544"><ele>666.0</ele><time>2026-04-18T08:57:11.999Z</time></trkpt><trkpt lat="46.25995686382226" lon="13.199460138057908"><ele>666.0</ele><time>2026-04-18T08:57:14.999Z</time></trkpt><trkpt lat="46.259803145665266" lon="13.199653159302011"><ele>665.8333333333334</ele><time>2026-04-18T09:00:38Z</time></trkpt><trkpt lat="46.25974757050273" lon="13.199720602596553"><ele>665.6666666666666</ele><time>2026-04-18T09:00:39Z</time></trkpt><trkpt lat="46.25969192432967" lon="13.19981891240576"><ele>665.5</ele><time>2026-04-18T09:00:40Z</time></trkpt><trkpt lat="46.25964274483189" lon="13.199923424958458"><ele>665.3333333333333</ele><time>2026-04-18T09:00:41Z</time></trkpt><trkpt lat="46.25961244825113" lon="13.200049562477936"><ele>665.1666666666666</ele><time>2026-04-18T09:00:42Z</time></trkpt><trkpt lat="46.25959941704276" lon="13.200181033948548"><ele>665.0</ele><time>2026-04-18T09:00:43Z</time></trkpt><trkpt lat="46.2595932443506" lon="13.20030054323657"><ele>665.0</ele><time>2026-04-18T09:00:44Z</time></trkpt><trkpt lat="46.25958090890414" lon="13.200456817717788"><ele>665.0</ele><time>2026-04-18T09:00:46Z</time></trkpt><trkpt lat="46.25957797169115" lon="13.200587268834722"><ele>665.0</ele><time>2026-04-18T09:00:48Z</time></trkpt><trkpt lat="46.259584493699045" lon="13.200736044214946"><ele>665.0</ele><time>2026-04-18T09:00:50Z</time></trkpt><trkpt lat="46.25963407190988" lon="13.20089161319505"><ele>665.0</ele><time>2026-04-18T09:00:52Z</time></trkpt><trkpt lat="46.25967736791612" lon="13.20096506057005"><ele>665.0</ele><time>2026-04-18T09:00:53Z</time></trkpt><trkpt lat="46.259738330337925" lon="13.201035805633534"><ele>665.0</ele><time>2026-04-18T09:00:54Z</time></trkpt><trkpt lat="46.2597963704245" lon="13.201099469268444"><ele>665.0</ele><time>2026-04-18T09:00:55Z</time></trkpt><trkpt lat="46.2598281131885" lon="13.20119764733119"><ele>665.0</ele><time>2026-04-18T09:00:56Z</time></trkpt><trkpt lat="46.25986365775072" lon="13.20133344553891"><ele>665.0</ele><time>2026-04-18T09:00:58Z</time></trkpt><trkpt lat="46.259914645679835" lon="13.201423596952248"><ele>665.0</ele><time>2026-04-18T09:01:00Z</time></trkpt><trkpt lat="46.26002862065413" lon="13.201438294871101"><ele>665.0</ele><time>2026-04-18T09:01:02Z</time></trkpt><trkpt lat="46.260094053492665" lon="13.201432819313755"><ele>665.0</ele><time>2026-04-18T09:01:03Z</time></trkpt><trkpt lat="46.26017201013163" lon="13.201419670720465"><ele>665.0</ele><time>2026-04-18T09:01:04Z</time></trkpt><trkpt lat="46.260252995403306" lon="13.201409363145688"><ele>665.0</ele><time>2026-04-18T09:01:05Z</time></trkpt><trkpt lat="46.26033734430218" lon="13.20138531820766"><ele>665.0</ele><time>2026-04-18T09:01:06Z</time></trkpt><trkpt lat="46.26041812687786" lon="13.201370717252564"><ele>665.0</ele><time>2026-04-18T09:01:07Z</time></trkpt><trkpt lat="46.26048756265218" lon="13.201376571290213"><ele>665.0</ele><time>2026-04-18T09:01:08Z</time></trkpt><trkpt lat="46.260550674836495" lon="13.20136878641453"><ele>665.0</ele><time>2026-04-18T09:01:09Z</time></trkpt><trkpt lat="46.260644179045784" lon="13.20133352900811"><ele>665.0</ele><time>2026-04-18T09:01:11Z</time></trkpt><trkpt lat="46.26071266149058" lon="13.20128722965358"><ele>665.0</ele><time>2026-04-18T09:01:13Z</time></trkpt><trkpt lat="46.260801548721844" lon="13.201308714350407"><ele>665.0</ele><time>2026-04-18T09:01:15Z</time></trkpt><trkpt lat="46.26086894487117" lon="13.201434453395757"><ele>665.0</ele><time>2026-04-18T09:01:16.999Z</time></trkpt><trkpt lat="46.260886225416165" lon="13.201527990398834"><ele>662.5</ele><time>2026-04-18T09:01:17.999Z</time></trkpt><trkpt lat="46.26091103921647" lon="13.201626943456006"><ele>660.0</ele><time>2026-04-18T09:01:18.999Z</time></trkpt><trkpt lat="46.26093652310688" lon="13.201719724499986"><ele>657.5</ele><time>2026-04-18T09:01:19.999Z</time></trkpt><trkpt lat="46.26096355399548" lon="13.201862184784845"><ele>655.0</ele><time>2026-04-18T09:01:21.999Z</time></trkpt><trkpt lat="46.26101202671211" lon="13.201955655140626"><ele>652.5</ele><time>2026-04-18T09:01:23.999Z</time></trkpt><trkpt lat="46.261104372902835" lon="13.202014318109068"><ele>650.0</ele><time>2026-04-18T09:01:25.999Z</time></trkpt><trkpt lat="46.26117924536945" lon="13.20199203204073"><ele>650.0</ele><time>2026-04-18T09:01:26.999Z</time></trkpt><trkpt lat="46.26126125990384" lon="13.201978303616665"><ele>650.0</ele><time>2026-04-18T09:01:27.999Z</time></trkpt><trkpt lat="46.26134320825807" lon="13.201992025949313"><ele>650.0</ele><time>2026-04-18T09:01:28.999Z</time></trkpt><trkpt lat="46.26141951960787" lon="13.202039729049446"><ele>650.0</ele><time>2026-04-18T09:01:29.999Z</time></trkpt><trkpt lat="46.261505659747634" lon="13.2020774371075"><ele>650.0</ele><time>2026-04-18T09:01:30.999Z</time></trkpt><trkpt lat="46.26157523222605" lon="13.202125079878337"><ele>650.0</ele><time>2026-04-18T09:01:31.999Z</time></trkpt><trkpt lat="46.26163808099538" lon="13.20216395356503"><ele>648.1666666666666</ele><time>2026-04-18T09:01:32.999Z</time></trkpt><trkpt lat="46.26170064236763" lon="13.202207822598224"><ele>646.3333333333333</ele><time>2026-04-18T09:01:33.999Z</time></trkpt><trkpt lat="46.261772305154345" lon="13.202189202340833"><ele>644.5</ele><time>2026-04-18T09:01:34.999Z</time></trkpt><trkpt lat="46.26184808984825" lon="13.202185287448014"><ele>642.6666666666666</ele><time>2026-04-18T09:01:35.999Z</time></trkpt><trkpt lat="46.26191377434931" lon="13.202198738563885"><ele>640.8333333333334</ele><time>2026-04-18T09:01:36.999Z</time></trkpt><trkpt lat="46.26197516208769" lon="13.20222811834241"><ele>639.0</ele><time>2026-04-18T09:01:37.999Z</time></trkpt><trkpt lat="46.262060220061485" lon="13.202347302919259"><ele>639.0</ele><time>2026-04-18T09:01:39.999Z</time></trkpt><trkpt lat="46.26210491343665" lon="13.202517793641087"><ele>639.0</ele><time>2026-04-18T09:01:41.999Z</time></trkpt><trkpt lat="46.26213309803248" lon="13.202608686866828"><ele>639.0</ele><time>2026-04-18T09:01:42.999Z</time></trkpt><trkpt lat="46.26217151659083" lon="13.202684156976941"><ele>639.0</ele><time>2026-04-18T09:01:43.999Z</time></trkpt><trkpt lat="46.262231506859536" lon="13.202751121898"><ele>639.0</ele><time>2026-04-18T09:01:44.999Z</time></trkpt><trkpt lat="46.26230840398223" lon="13.202803717910694"><ele>639.0</ele><time>2026-04-18T09:01:45.999Z</time></trkpt><trkpt lat="46.26237196162352" lon="13.202865539686696"><ele>639.2</ele><time>2026-04-18T09:01:46.999Z</time></trkpt><trkpt lat="46.26242932666191" lon="13.202956007568067"><ele>639.4</ele><time>2026-04-18T09:01:47.999Z</time></trkpt><trkpt lat="46.26248415750029" lon="13.203070995939132"><ele>639.6</ele><time>2026-04-18T09:01:48.999Z</time></trkpt><trkpt lat="46.26253950817166" lon="13.203184506731214"><ele>639.8</ele><time>2026-04-18T09:01:49.999Z</time></trkpt><trkpt lat="46.26259496053622" lon="13.203302200001943"><ele>640.0</ele><time>2026-04-18T09:01:50.999Z</time></trkpt><trkpt lat="46.262649070481544" lon="13.203397569245737"><ele>640.0</ele><time>2026-04-18T09:01:51.999Z</time></trkpt><trkpt lat="46.262693172861226" lon="13.203472127702222"><ele>640.0</ele><time>2026-04-18T09:01:52.999Z</time></trkpt><trkpt lat="46.262738298355565" lon="13.203537224148816"><ele>640.0</ele><time>2026-04-18T09:01:53.999Z</time></trkpt><trkpt lat="46.26285941478708" lon="13.203582350042206"><ele>640.0</ele><time>2026-04-18T09:01:55.999Z</time></trkpt><trkpt lat="46.262923133725536" lon="13.203587186740956"><ele>640.0</ele><time>2026-04-18T09:01:56.999Z</time></trkpt><trkpt lat="46.26299341107258" lon="13.203589765255055"><ele>640.0</ele><time>2026-04-18T09:01:57.999Z</time></trkpt><trkpt lat="46.263059710188976" lon="13.203594012547939"><ele>639.0</ele><time>2026-04-18T09:01:58.999Z</time></trkpt><trkpt lat="46.263162721650154" lon="13.203563725392138"><ele>638.0</ele><time>2026-04-18T09:02:00.999Z</time></trkpt><trkpt lat="46.26321942768977" lon="13.20339797335232"><ele>637.0</ele><time>2026-04-18T09:02:02.999Z</time></trkpt><trkpt lat="46.26326193371816" lon="13.20328319635687"><ele>636.0</ele><time>2026-04-18T09:02:03.999Z</time></trkpt><trkpt lat="46.263292697262905" lon="13.20313876709068"><ele>635.0</ele><time>2026-04-18T09:02:04.999Z</time></trkpt><trkpt lat="46.26331625043382" lon="13.202975894494982"><ele>638.4</ele><time>2026-04-18T09:02:05.999Z</time></trkpt><trkpt lat="46.26335716882404" lon="13.202815636624424"><ele>641.8</ele><time>2026-04-18T09:02:06.999Z</time></trkpt><trkpt lat="46.26339174186214" lon="13.202670673273513"><ele>645.2</ele><time>2026-04-18T09:02:07.999Z</time></trkpt><trkpt lat="46.26343027468244" lon="13.202542400716247"><ele>648.6</ele><time>2026-04-18T09:02:08.999Z</time></trkpt><trkpt lat="46.26347922750478" lon="13.202447178138291"><ele>652.0</ele><time>2026-04-18T09:02:09.999Z</time></trkpt><trkpt lat="46.26354507791517" lon="13.202383664680937"><ele>652.0</ele><time>2026-04-18T09:02:10.999Z</time></trkpt><trkpt lat="46.263619032943836" lon="13.202349399171048"><ele>652.0</ele><time>2026-04-18T09:02:11.999Z</time></trkpt><trkpt lat="46.26369188589404" lon="13.202296148196753"><ele>652.0</ele><time>2026-04-18T09:02:12.999Z</time></trkpt><trkpt lat="46.26374431597612" lon="13.202213827387984"><ele>652.0</ele><time>2026-04-18T09:02:13.999Z</time></trkpt><trkpt lat="46.26379162322716" lon="13.202127066099077"><ele>652.0</ele><time>2026-04-18T09:02:15Z</time></trkpt><trkpt lat="46.26384720507424" lon="13.202033436755285"><ele>652.0</ele><time>2026-04-18T09:02:16Z</time></trkpt><trkpt lat="46.26390939422506" lon="13.201927969904052"><ele>652.0</ele><time>2026-04-18T09:02:17Z</time></trkpt><trkpt lat="46.263970392640275" lon="13.201811297565797"><ele>652.0</ele><time>2026-04-18T09:02:18Z</time></trkpt><trkpt lat="46.264023819473" lon="13.201674042788689"><ele>652.0</ele><time>2026-04-18T09:02:19Z</time></trkpt><trkpt lat="46.264081668813404" lon="13.201533256427465"><ele>652.0</ele><time>2026-04-18T09:02:20Z</time></trkpt><trkpt lat="46.26413688802283" lon="13.201395181766951"><ele>652.0</ele><time>2026-04-18T09:02:21Z</time></trkpt><trkpt lat="46.26418549901123" lon="13.201270377140254"><ele>652.0</ele><time>2026-04-18T09:02:22Z</time></trkpt><trkpt lat="46.264225335280436" lon="13.201165152204776"><ele>652.0</ele><time>2026-04-18T09:02:23Z</time></trkpt><trkpt lat="46.26426397461642" lon="13.201074312509077"><ele>652.0</ele><time>2026-04-18T09:02:24Z</time></trkpt><trkpt lat="46.264313563241885" lon="13.201004646043968"><ele>652.0</ele><time>2026-04-18T09:02:25Z</time></trkpt><trkpt lat="46.26438454640524" lon="13.200984973903566"><ele>652.0</ele><time>2026-04-18T09:02:26Z</time></trkpt><trkpt lat="46.264457405316705" lon="13.201026207460341"><ele>652.0</ele><time>2026-04-18T09:02:27Z</time></trkpt><trkpt lat="46.26451583317513" lon="13.201095945236876"><ele>652.0</ele><time>2026-04-18T09:02:28Z</time></trkpt><trkpt lat="46.26458367872421" lon="13.201152678604078"><ele>652.0</ele><time>2026-04-18T09:02:29Z</time></trkpt><trkpt lat="46.264659132685615" lon="13.20122173178119"><ele>652.0</ele><time>2026-04-18T09:02:30Z</time></trkpt><trkpt lat="46.26473516379834" lon="13.201310435237785"><ele>652.0</ele><time>2026-04-18T09:02:31Z</time></trkpt><trkpt lat="46.26479792297063" lon="13.201411002332033"><ele>652.0</ele><time>2026-04-18T09:02:32Z</time></trkpt><trkpt lat="46.26484500032188" lon="13.201524095847791"><ele>647.5</ele><time>2026-04-18T09:02:33Z</time></trkpt><trkpt lat="46.264874934789184" lon="13.201622934089736"><ele>643.0</ele><time>2026-04-18T09:02:34Z</time></trkpt><trkpt lat="46.26489825289393" lon="13.201719261002292"><ele>638.5</ele><time>2026-04-18T09:02:35Z</time></trkpt><trkpt lat="46.264937748236484" lon="13.201873993195635"><ele>634.0</ele><time>2026-04-18T09:02:37Z</time></trkpt><trkpt lat="46.26502744567699" lon="13.201924248778505"><ele>629.5</ele><time>2026-04-18T09:02:39Z</time></trkpt><trkpt lat="46.26508752839897" lon="13.201891657987954"><ele>625.0</ele><time>2026-04-18T09:02:40Z</time></trkpt><trkpt lat="46.26513220698272" lon="13.201799684855645"><ele>625.0</ele><time>2026-04-18T09:02:41Z</time></trkpt><trkpt lat="46.26515006776469" lon="13.201682433283922"><ele>625.0</ele><time>2026-04-18T09:02:42Z</time></trkpt><trkpt lat="46.26516009849204" lon="13.201577821537766"><ele>625.0</ele><time>2026-04-18T09:02:43Z</time></trkpt><trkpt lat="46.26517095728943" lon="13.201483357283006"><ele>625.0</ele><time>2026-04-18T09:02:44Z</time></trkpt><trkpt lat="46.26525057080415" lon="13.201358396733461"><ele>625.0</ele><time>2026-04-18T09:02:46Z</time></trkpt><trkpt lat="46.26531006186642" lon="13.201325058905079"><ele>625.0</ele><time>2026-04-18T09:02:47Z</time></trkpt><trkpt lat="46.26537492221122" lon="13.201214000918103"><ele>629.5</ele><time>2026-04-18T09:02:49Z</time></trkpt><trkpt lat="46.265390512119346" lon="13.201028402246683"><ele>634.0</ele><time>2026-04-18T09:02:51Z</time></trkpt><trkpt lat="46.265360216526055" lon="13.20087892342326"><ele>638.5</ele><time>2026-04-18T09:02:53Z</time></trkpt><trkpt lat="46.26543995139639" lon="13.200762930966038"><ele>643.0</ele><time>2026-04-18T09:02:55Z</time></trkpt><trkpt lat="46.26555248908185" lon="13.200709546687602"><ele>644.4</ele><time>2026-04-18T09:02:57Z</time></trkpt><trkpt lat="46.26561606494081" lon="13.200588870345248"><ele>645.8</ele><time>2026-04-18T09:02:59Z</time></trkpt><trkpt lat="46.26560056377463" lon="13.20040075749255"><ele>647.2</ele><time>2026-04-18T09:03:01Z</time></trkpt><trkpt lat="46.265589317926015" lon="13.200291615403458"><ele>648.6</ele><time>2026-04-18T09:03:02Z</time></trkpt><trkpt lat="46.26557832190918" lon="13.200178123112979"><ele>650.0</ele><time>2026-04-18T09:03:03Z</time></trkpt><trkpt lat="46.265568498359684" lon="13.200076682899994"><ele>650.0</ele><time>2026-04-18T09:03:04Z</time></trkpt><trkpt lat="46.26556332968705" lon="13.199983332851007"><ele>650.0</ele><time>2026-04-18T09:03:05Z</time></trkpt><trkpt lat="46.26560252045177" lon="13.199832289533008"><ele>650.0</ele><time>2026-04-18T09:03:07Z</time></trkpt><trkpt lat="46.26572405170366" lon="13.19979607485881"><ele>650.0</ele><time>2026-04-18T09:03:09Z</time></trkpt><trkpt lat="46.26578922805964" lon="13.199782941669989"><ele>650.0</ele><time>2026-04-18T09:03:10Z</time></trkpt><trkpt lat="46.2658536616349" lon="13.199836127954768"><ele>650.0</ele><time>2026-04-18T09:03:11Z</time></trkpt><trkpt lat="46.26589555899775" lon="13.199932799133881"><ele>646.3333333333333</ele><time>2026-04-18T09:03:12Z</time></trkpt><trkpt lat="46.26591948489018" lon="13.200043443430038"><ele>642.6666666666666</ele><time>2026-04-18T09:03:13Z</time></trkpt><trkpt lat="46.2659504585668" lon="13.200152080477121"><ele>639.0</ele><time>2026-04-18T09:03:14Z</time></trkpt><trkpt lat="46.26599099931067" lon="13.200261820644233"><ele>635.3333333333334</ele><time>2026-04-18T09:03:15Z</time></trkpt><trkpt lat="46.266026436354764" lon="13.200380189955604"><ele>631.6666666666667</ele><time>2026-04-18T09:03:16Z</time></trkpt><trkpt lat="46.266057351222955" lon="13.200500053678663"><ele>628.0</ele><time>2026-04-18T09:03:17Z</time></trkpt><trkpt lat="46.26610369233333" lon="13.200639827675676"><ele>626.25</ele><time>2026-04-18T09:03:17.999Z</time></trkpt><trkpt lat="46.266162906752804" lon="13.200808581285845"><ele>624.5</ele><time>2026-04-18T09:03:18.999Z</time></trkpt><trkpt lat="46.26622863591269" lon="13.200986880310708"><ele>622.75</ele><time>2026-04-18T09:03:19.999Z</time></trkpt><trkpt lat="46.266281229113346" lon="13.201141589728012"><ele>621.0</ele><time>2026-04-18T09:03:20.999Z</time></trkpt><trkpt lat="46.26632156092578" lon="13.2012844636747"><ele>621.0</ele><time>2026-04-18T09:03:21.999Z</time></trkpt><trkpt lat="46.26635035312543" lon="13.201416655412862"><ele>621.0</ele><time>2026-04-18T09:03:22.999Z</time></trkpt><trkpt lat="46.266363526217596" lon="13.20154823853385"><ele>621.0</ele><time>2026-04-18T09:03:23.999Z</time></trkpt><trkpt lat="46.266371533570876" lon="13.201670909246324"><ele>621.0</ele><time>2026-04-18T09:03:24.999Z</time></trkpt><trkpt lat="46.26637462980332" lon="13.201783853959318"><ele>621.0</ele><time>2026-04-18T09:03:25.999Z</time></trkpt><trkpt lat="46.26638232362012" lon="13.201894461573836"><ele>621.0</ele><time>2026-04-18T09:03:26.999Z</time></trkpt><trkpt lat="46.26639112245652" lon="13.202001350475891"><ele>620.0</ele><time>2026-04-18T09:03:27.999Z</time></trkpt><trkpt lat="46.26641217033233" lon="13.202093156690273"><ele>619.0</ele><time>2026-04-18T09:03:28.999Z</time></trkpt><trkpt lat="46.26645291919231" lon="13.202173917285984"><ele>618.0</ele><time>2026-04-18T09:03:29.999Z</time></trkpt><trkpt lat="46.26651000551662" lon="13.202221740818514"><ele>617.0</ele><time>2026-04-18T09:03:30.999Z</time></trkpt><trkpt lat="46.26657484361036" lon="13.202226774853795"><ele>616.0</ele><time>2026-04-18T09:03:31.999Z</time></trkpt><trkpt lat="46.26667527450458" lon="13.202168790756076"><ele>615.0</ele><time>2026-04-18T09:03:33.999Z</time></trkpt><trkpt lat="46.266740657409855" lon="13.202086585031351"><ele>615.0</ele><time>2026-04-18T09:03:36.999Z</time></trkpt><trkpt lat="46.2668168538685" lon="13.202027478329784"><ele>615.0</ele><time>2026-04-18T09:03:39.999Z</time></trkpt><trkpt lat="46.2668842085709" lon="13.201952370501369"><ele>615.0</ele><time>2026-04-18T09:03:41.999Z</time></trkpt><trkpt lat="46.26695160643323" lon="13.201883663150127"><ele>615.0</ele><time>2026-04-18T09:03:43.999Z</time></trkpt><trkpt lat="46.26702262125651" lon="13.20183627172497"><ele>615.0</ele><time>2026-04-18T09:03:45.999Z</time></trkpt><trkpt lat="46.26709536867799" lon="13.20181478284104"><ele>615.0</ele><time>2026-04-18T09:03:47.999Z</time></trkpt><trkpt lat="46.26718271549646" lon="13.201906436845436"><ele>615.0</ele><time>2026-04-18T09:03:49.999Z</time></trkpt><trkpt lat="46.26720133181742" lon="13.202051208234208"><ele>615.0</ele><time>2026-04-18T09:03:51.999Z</time></trkpt><trkpt lat="46.2672052472848" lon="13.20219857314835"><ele>615.0</ele><time>2026-04-18T09:03:53.999Z</time></trkpt><trkpt lat="46.26717250559409" lon="13.202353330758346"><ele>615.0</ele><time>2026-04-18T09:03:55.999Z</time></trkpt><trkpt lat="46.267153877291925" lon="13.202443172126399"><ele>615.0</ele><time>2026-04-18T09:03:56.999Z</time></trkpt><trkpt lat="46.26713227904383" lon="13.202557390676471"><ele>611.4</ele><time>2026-04-18T09:03:57.999Z</time></trkpt><trkpt lat="46.26713371575648" lon="13.202690297391356"><ele>607.8</ele><time>2026-04-18T09:03:58.999Z</time></trkpt><trkpt lat="46.267136372086895" lon="13.202833974725293"><ele>604.2</ele><time>2026-04-18T09:03:59.999Z</time></trkpt><trkpt lat="46.26713624327649" lon="13.202972733152073"><ele>600.6</ele><time>2026-04-18T09:04:00.999Z</time></trkpt><trkpt lat="46.26713883228631" lon="13.20310627229137"><ele>597.0</ele><time>2026-04-18T09:04:01.999Z</time></trkpt><trkpt lat="46.26714574282012" lon="13.20322144218136"><ele>596.3333333333334</ele><time>2026-04-18T09:04:02.999Z</time></trkpt><trkpt lat="46.26716138105702" lon="13.203325942247163"><ele>595.6666666666666</ele><time>2026-04-18T09:04:03.999Z</time></trkpt><trkpt lat="46.26721383267785" lon="13.20341486002253"><ele>595.0</ele><time>2026-04-18T09:04:04.999Z</time></trkpt><trkpt lat="46.26729987643369" lon="13.203473936514806"><ele>594.3333333333333</ele><time>2026-04-18T09:04:05.999Z</time></trkpt><trkpt lat="46.267386965624354" lon="13.203510968451546"><ele>593.6666666666666</ele><time>2026-04-18T09:04:06.999Z</time></trkpt><trkpt lat="46.26748087725558" lon="13.203504302676464"><ele>593.0</ele><time>2026-04-18T09:04:07.999Z</time></trkpt><trkpt lat="46.26757854535477" lon="13.203534914749671"><ele>593.0</ele><time>2026-04-18T09:04:08.999Z</time></trkpt><trkpt lat="46.267680551434104" lon="13.203529148204986"><ele>593.0</ele><time>2026-04-18T09:04:09.999Z</time></trkpt><trkpt lat="46.26777387979084" lon="13.203506926794743"><ele>593.0</ele><time>2026-04-18T09:04:10.999Z</time></trkpt><trkpt lat="46.26785784082141" lon="13.203476266033324"><ele>593.0</ele><time>2026-04-18T09:04:11.999Z</time></trkpt><trkpt lat="46.26793248036678" lon="13.203486852282577"><ele>593.0</ele><time>2026-04-18T09:04:12.999Z</time></trkpt><trkpt lat="46.26799583114229" lon="13.203514756427364"><ele>593.0</ele><time>2026-04-18T09:04:13.999Z</time></trkpt><trkpt lat="46.2680463115129" lon="13.203570902961578"><ele>593.0</ele><time>2026-04-18T09:04:14.999Z</time></trkpt><trkpt lat="46.268080507148156" lon="13.203735440013011"><ele>593.0</ele><time>2026-04-18T09:04:16.999Z</time></trkpt><trkpt lat="46.26805619749603" lon="13.203841104349957"><ele>593.0</ele><time>2026-04-18T09:04:17.999Z</time></trkpt><trkpt lat="46.267996347279336" lon="13.20391597029277"><ele>593.0</ele><time>2026-04-18T09:04:18.999Z</time></trkpt><trkpt lat="46.267948508213856" lon="13.204010954516717"><ele>593.0</ele><time>2026-04-18T09:04:19.999Z</time></trkpt><trkpt lat="46.26785856517814" lon="13.204053814392218"><ele>590.6</ele><time>2026-04-18T09:04:21Z</time></trkpt><trkpt lat="46.267767386234446" lon="13.204103093127712"><ele>588.1999999999999</ele><time>2026-04-18T09:04:22Z</time></trkpt><trkpt lat="46.26766714962998" lon="13.20415407574866"><ele>585.8</ele><time>2026-04-18T09:04:23Z</time></trkpt><trkpt lat="46.26756461533274" lon="13.204213717011301"><ele>583.4</ele><time>2026-04-18T09:04:24Z</time></trkpt><trkpt lat="46.26746413160958" lon="13.204277484296885"><ele>581.0</ele><time>2026-04-18T09:04:25Z</time></trkpt><trkpt lat="46.267371838078965" lon="13.204364595801604"><ele>581.0</ele><time>2026-04-18T09:04:26Z</time></trkpt><trkpt lat="46.267282565244365" lon="13.204427345853821"><ele>581.0</ele><time>2026-04-18T09:04:27Z</time></trkpt><trkpt lat="46.26720165280188" lon="13.20449958094601"><ele>581.0</ele><time>2026-04-18T09:04:28Z</time></trkpt><trkpt lat="46.26712811741663" lon="13.204584237662015"><ele>581.0</ele><time>2026-04-18T09:04:29Z</time></trkpt><trkpt lat="46.2670607570263" lon="13.204672529039517"><ele>581.0</ele><time>2026-04-18T09:04:30Z</time></trkpt><trkpt lat="46.26700652406686" lon="13.204773589449903"><ele>579.8333333333333</ele><time>2026-04-18T09:04:31Z</time></trkpt><trkpt lat="46.26695543737937" lon="13.20488792043126"><ele>578.6666666666666</ele><time>2026-04-18T09:04:32Z</time></trkpt><trkpt lat="46.26691829785053" lon="13.205014861852742"><ele>577.5</ele><time>2026-04-18T09:04:33Z</time></trkpt><trkpt lat="46.26688998495813" lon="13.205132102841075"><ele>576.3333333333334</ele><time>2026-04-18T09:04:34Z</time></trkpt><trkpt lat="46.26688133032812" lon="13.2052486134957"><ele>575.1666666666667</ele><time>2026-04-18T09:04:35Z</time></trkpt><trkpt lat="46.266890098920555" lon="13.2053664489671"><ele>574.0</ele><time>2026-04-18T09:04:36Z</time></trkpt><trkpt lat="46.26690947095215" lon="13.205476682027816"><ele>574.0</ele><time>2026-04-18T09:04:37Z</time></trkpt><trkpt lat="46.26697631268569" lon="13.205619621745173"><ele>574.0</ele><time>2026-04-18T09:04:39Z</time></trkpt><trkpt lat="46.26702127882095" lon="13.205686891816505"><ele>574.0</ele><time>2026-04-18T09:04:40Z</time></trkpt><trkpt lat="46.26709938501847" lon="13.205734958186476"><ele>574.0</ele><time>2026-04-18T09:04:41Z</time></trkpt><trkpt lat="46.267208232437106" lon="13.205767588530046"><ele>574.0</ele><time>2026-04-18T09:04:42Z</time></trkpt><trkpt lat="46.26731475636233" lon="13.205774826817972"><ele>577.8333333333334</ele><time>2026-04-18T09:04:43Z</time></trkpt><trkpt lat="46.26740038734616" lon="13.205843551077221"><ele>581.6666666666667</ele><time>2026-04-18T09:04:44Z</time></trkpt><trkpt lat="46.267465656538405" lon="13.205895356634478"><ele>585.5</ele><time>2026-04-18T09:04:45Z</time></trkpt><trkpt lat="46.26752215600272" lon="13.205957518461028"><ele>589.3333333333334</ele><time>2026-04-18T09:04:46Z</time></trkpt><trkpt lat="46.26756205953425" lon="13.206115340041684"><ele>593.1666666666666</ele><time>2026-04-18T09:04:48Z</time></trkpt><trkpt lat="46.26751905273778" lon="13.206182173539164"><ele>597.0</ele><time>2026-04-18T09:04:49Z</time></trkpt><trkpt lat="46.26743828035986" lon="13.206301080115354"><ele>597.0000000000001</ele><time>2026-04-18T09:04:51Z</time></trkpt><trkpt lat="46.267389588279784" lon="13.206376684795174"><ele>597.0</ele><time>2026-04-18T09:04:52Z</time></trkpt><trkpt lat="46.26735122291054" lon="13.206463558740806"><ele>597.0</ele><time>2026-04-18T09:04:53Z</time></trkpt><trkpt lat="46.26729258936302" lon="13.206514109488312"><ele>597.0</ele><time>2026-04-18T09:04:54Z</time></trkpt><trkpt lat="46.2672344403405" lon="13.20656743966609"><ele>597.0</ele><time>2026-04-18T09:04:55Z</time></trkpt><trkpt lat="46.2671705029872" lon="13.206622759100648"><ele>597.0000000000001</ele><time>2026-04-18T09:04:56Z</time></trkpt><trkpt lat="46.26711088336742" lon="13.206706927028877"><ele>597.0</ele><time>2026-04-18T09:04:57Z</time></trkpt><trkpt lat="46.26706134141062" lon="13.206811206797076"><ele>597.4</ele><time>2026-04-18T09:04:58Z</time></trkpt><trkpt lat="46.26702732683332" lon="13.20693319953224"><ele>597.8000000000001</ele><time>2026-04-18T09:04:59Z</time></trkpt><trkpt lat="46.267014301154425" lon="13.207072745733553"><ele>598.2</ele><time>2026-04-18T09:05:00Z</time></trkpt><trkpt lat="46.26701117664529" lon="13.207217156695789"><ele>598.6</ele><time>2026-04-18T09:05:01Z</time></trkpt><trkpt lat="46.26700938185958" lon="13.207371967845008"><ele>599.0</ele><time>2026-04-18T09:05:01.999Z</time></trkpt><trkpt lat="46.26699908071761" lon="13.20753253589509"><ele>599.0</ele><time>2026-04-18T09:05:02.999Z</time></trkpt><trkpt lat="46.26697664367955" lon="13.207703787219378"><ele>599.0</ele><time>2026-04-18T09:05:03.999Z</time></trkpt><trkpt lat="46.2669303145435" lon="13.20786974395474"><ele>599.0</ele><time>2026-04-18T09:05:04.999Z</time></trkpt><trkpt lat="46.26688692187998" lon="13.207995464923922"><ele>599.0</ele><time>2026-04-18T09:05:05.999Z</time></trkpt><trkpt lat="46.26684707661442" lon="13.20811459468528"><ele>599.0</ele><time>2026-04-18T09:05:06.999Z</time></trkpt><trkpt lat="46.26680921829339" lon="13.208241818757775"><ele>600.6</ele><time>2026-04-18T09:05:07.999Z</time></trkpt><trkpt lat="46.26679125173607" lon="13.208357218390786"><ele>602.2</ele><time>2026-04-18T09:05:08.999Z</time></trkpt><trkpt lat="46.26677818275383" lon="13.208460721762897"><ele>603.8000000000001</ele><time>2026-04-18T09:05:09.999Z</time></trkpt><trkpt lat="46.266787989595194" lon="13.208645639098439"><ele>605.4</ele><time>2026-04-18T09:05:11.999Z</time></trkpt><trkpt lat="46.26682040403671" lon="13.20882603250682"><ele>607.0</ele><time>2026-04-18T09:05:13.999Z</time></trkpt><trkpt lat="46.266860956419066" lon="13.208923041806067"><ele>606.8000000000001</ele><time>2026-04-18T09:05:14.999Z</time></trkpt><trkpt lat="46.26690921556922" lon="13.209029188047188"><ele>606.6</ele><time>2026-04-18T09:05:15.999Z</time></trkpt><trkpt lat="46.26696781824972" lon="13.209151328774041"><ele>606.4000000000001</ele><time>2026-04-18T09:05:16.999Z</time></trkpt><trkpt lat="46.26705312241628" lon="13.209252502016435"><ele>606.2</ele><time>2026-04-18T09:05:17.999Z</time></trkpt><trkpt lat="46.26714125466099" lon="13.209348943168964"><ele>606.0</ele><time>2026-04-18T09:05:18.999Z</time></trkpt><trkpt lat="46.26721985694386" lon="13.20943779781535"><ele>605.8333333333334</ele><time>2026-04-18T09:05:19.999Z</time></trkpt><trkpt lat="46.26728425478875" lon="13.209522625007475"><ele>605.6666666666666</ele><time>2026-04-18T09:05:20.999Z</time></trkpt><trkpt lat="46.267337525990655" lon="13.209630845153653"><ele>605.5</ele><time>2026-04-18T09:05:21.999Z</time></trkpt><trkpt lat="46.26737464710008" lon="13.20973856170357"><ele>605.3333333333333</ele><time>2026-04-18T09:05:22.999Z</time></trkpt><trkpt lat="46.26741278713802" lon="13.209825160649524"><ele>605.1666666666666</ele><time>2026-04-18T09:05:23.999Z</time></trkpt><trkpt lat="46.2674723158844" lon="13.209876463556425"><ele>605.0</ele><time>2026-04-18T09:05:24.999Z</time></trkpt><trkpt lat="46.267541314045395" lon="13.20992337306312"><ele>605.0</ele><time>2026-04-18T09:05:25.999Z</time></trkpt><trkpt lat="46.267603927145316" lon="13.20997331139255"><ele>605.0</ele><time>2026-04-18T09:05:26.999Z</time></trkpt><trkpt lat="46.26765328852946" lon="13.21004257741325"><ele>605.0</ele><time>2026-04-18T09:05:27.999Z</time></trkpt><trkpt lat="46.26768338575942" lon="13.210127164183907"><ele>605.0</ele><time>2026-04-18T09:05:28.999Z</time></trkpt><trkpt lat="46.267700355919764" lon="13.210234092182287"><ele>605.0</ele><time>2026-04-18T09:05:29.999Z</time></trkpt><trkpt lat="46.26772937113293" lon="13.21033920872695"><ele>605.0</ele><time>2026-04-18T09:05:30.999Z</time></trkpt><trkpt lat="46.26777974686665" lon="13.210427130482307"><ele>605.0</ele><time>2026-04-18T09:05:31.999Z</time></trkpt><trkpt lat="46.26783075930147" lon="13.2105198752001"><ele>605.0</ele><time>2026-04-18T09:05:32.999Z</time></trkpt><trkpt lat="46.267879931283325" lon="13.210616464575061"><ele>605.0</ele><time>2026-04-18T09:05:33.999Z</time></trkpt><trkpt lat="46.267934727055035" lon="13.21070901566682"><ele>605.0</ele><time>2026-04-18T09:05:34.999Z</time></trkpt><trkpt lat="46.26798408364646" lon="13.210801930431272"><ele>605.0</ele><time>2026-04-18T09:05:35.999Z</time></trkpt><trkpt lat="46.26802434963855" lon="13.210908088144157"><ele>605.0</ele><time>2026-04-18T09:05:36.999Z</time></trkpt><trkpt lat="46.26805884745219" lon="13.211026981513813"><ele>605.0</ele><time>2026-04-18T09:05:37.999Z</time></trkpt><trkpt lat="46.26807589258162" lon="13.211158964219225"><ele>605.3333333333333</ele><time>2026-04-18T09:05:38.999Z</time></trkpt><trkpt lat="46.26811725621127" lon="13.211271674692037"><ele>605.6666666666666</ele><time>2026-04-18T09:05:39.999Z</time></trkpt><trkpt lat="46.268132617915036" lon="13.211377791991536"><ele>606.0</ele><time>2026-04-18T09:05:40.999Z</time></trkpt><trkpt lat="46.26814296803407" lon="13.211473672938753"><ele>606.3333333333334</ele><time>2026-04-18T09:05:41.999Z</time></trkpt><trkpt lat="46.26816093804569" lon="13.2116495558356"><ele>606.6666666666667</ele><time>2026-04-18T09:05:43.999Z</time></trkpt><trkpt lat="46.268185531261835" lon="13.211735215149789"><ele>607.0</ele><time>2026-04-18T09:05:44.999Z</time></trkpt><trkpt lat="46.268218448006046" lon="13.211821910195432"><ele>607.0</ele><time>2026-04-18T09:05:45.999Z</time></trkpt><trkpt lat="46.268259534609065" lon="13.211915555340218"><ele>607.0</ele><time>2026-04-18T09:05:46.999Z</time></trkpt><trkpt lat="46.26830074090437" lon="13.212015840623694"><ele>607.0</ele><time>2026-04-18T09:05:47.999Z</time></trkpt><trkpt lat="46.268342465736914" lon="13.212113527528068"><ele>607.0</ele><time>2026-04-18T09:05:48.999Z</time></trkpt><trkpt lat="46.26839483751532" lon="13.212200554791854"><ele>607.0</ele><time>2026-04-18T09:05:49.999Z</time></trkpt><trkpt lat="46.26846078378863" lon="13.212267433546359"><ele>607.0</ele><time>2026-04-18T09:05:50.999Z</time></trkpt><trkpt lat="46.268538791824284" lon="13.212298727923526"><ele>603.5</ele><time>2026-04-18T09:05:51.999Z</time></trkpt><trkpt lat="46.26861744941529" lon="13.21233090224357"><ele>600.0</ele><time>2026-04-18T09:05:52.999Z</time></trkpt><trkpt lat="46.26869200031721" lon="13.212383180192957"><ele>596.5</ele><time>2026-04-18T09:05:53.999Z</time></trkpt><trkpt lat="46.26874471841967" lon="13.212467857847967"><ele>593.0</ele><time>2026-04-18T09:05:54.999Z</time></trkpt><trkpt lat="46.26879273171728" lon="13.212555645706082"><ele>589.5</ele><time>2026-04-18T09:05:55.999Z</time></trkpt><trkpt lat="46.26883170388678" lon="13.212653830889057"><ele>586.0</ele><time>2026-04-18T09:05:56.999Z</time></trkpt><trkpt lat="46.26887513670173" lon="13.212749391881836"><ele>586.0</ele><time>2026-04-18T09:05:57.999Z</time></trkpt><trkpt lat="46.26888343040345" lon="13.212862312124445"><ele>586.0</ele><time>2026-04-18T09:05:58.999Z</time></trkpt><trkpt lat="46.26889418063306" lon="13.212977493811781"><ele>586.0</ele><time>2026-04-18T09:05:59.999Z</time></trkpt><trkpt lat="46.26890335092213" lon="13.21310229665438"><ele>586.0</ele><time>2026-04-18T09:06:00.999Z</time></trkpt><trkpt lat="46.26891923199666" lon="13.213227406084776"><ele>586.0</ele><time>2026-04-18T09:06:01.999Z</time></trkpt><trkpt lat="46.26893873812027" lon="13.213349699997748"><ele>586.0</ele><time>2026-04-18T09:06:02.999Z</time></trkpt><trkpt lat="46.26897070741915" lon="13.213467627477392"><ele>586.1666666666667</ele><time>2026-04-18T09:06:03.999Z</time></trkpt><trkpt lat="46.26902888024808" lon="13.21357013136734"><ele>586.3333333333334</ele><time>2026-04-18T09:06:04.999Z</time></trkpt><trkpt lat="46.26910379023421" lon="13.213627907817349"><ele>586.5</ele><time>2026-04-18T09:06:05.999Z</time></trkpt><trkpt lat="46.269175421308965" lon="13.213670533550372"><ele>586.6666666666666</ele><time>2026-04-18T09:06:06.999Z</time></trkpt><trkpt lat="46.269252122330165" lon="13.213675689715519"><ele>586.8333333333333</ele><time>2026-04-18T09:06:07.999Z</time></trkpt><trkpt lat="46.2693255412377" lon="13.213661827647307"><ele>587.0</ele><time>2026-04-18T09:06:08.999Z</time></trkpt><trkpt lat="46.2693972990398" lon="13.213658998714285"><ele>587.0</ele><time>2026-04-18T09:06:09.999Z</time></trkpt><trkpt lat="46.26945604174394" lon="13.213727889311386"><ele>587.0</ele><time>2026-04-18T09:06:10.999Z</time></trkpt><trkpt lat="46.269526427335755" lon="13.213872393330677"><ele>587.0</ele><time>2026-04-18T09:06:12.999Z</time></trkpt><trkpt lat="46.26949867227454" lon="13.21397777256203"><ele>587.0</ele><time>2026-04-18T09:06:13.999Z</time></trkpt><trkpt lat="46.269480037900045" lon="13.214081622572742"><ele>587.0</ele><time>2026-04-18T09:06:14.999Z</time></trkpt><trkpt lat="46.26943903930734" lon="13.214166379961494"><ele>587.0</ele><time>2026-04-18T09:06:15.999Z</time></trkpt><trkpt lat="46.26938728412231" lon="13.214232524771809"><ele>584.8333333333333</ele><time>2026-04-18T09:06:16.999Z</time></trkpt><trkpt lat="46.26934380695273" lon="13.214308797220795"><ele>582.6666666666666</ele><time>2026-04-18T09:06:17.999Z</time></trkpt><trkpt lat="46.26927018822478" lon="13.214387600286472"><ele>580.5</ele><time>2026-04-18T09:06:18.999Z</time></trkpt><trkpt lat="46.269176265435156" lon="13.214431892085086"><ele>578.3333333333334</ele><time>2026-04-18T09:06:19.999Z</time></trkpt><trkpt lat="46.26908637804962" lon="13.21446975556781"><ele>576.1666666666667</ele><time>2026-04-18T09:06:20.999Z</time></trkpt><trkpt lat="46.269005107649974" lon="13.214514629551976"><ele>574.0</ele><time>2026-04-18T09:06:21.999Z</time></trkpt><trkpt lat="46.26894654244499" lon="13.214581015193911"><ele>571.0</ele><time>2026-04-18T09:06:22.999Z</time></trkpt><trkpt lat="46.26888577982393" lon="13.214623490593535"><ele>568.0</ele><time>2026-04-18T09:06:23.999Z</time></trkpt><trkpt lat="46.2688273315816" lon="13.214682555003634"><ele>565.0</ele><time>2026-04-18T09:06:24.999Z</time></trkpt><trkpt lat="46.26878430271948" lon="13.214755026637395"><ele>562.0</ele><time>2026-04-18T09:06:25.999Z</time></trkpt><trkpt lat="46.268759469712776" lon="13.214864532299897"><ele>559.0</ele><time>2026-04-18T09:06:27Z</time></trkpt><trkpt lat="46.268747256758196" lon="13.21499684772434"><ele>556.0</ele><time>2026-04-18T09:06:28Z</time></trkpt><trkpt lat="46.26875800359794" lon="13.215137816289817"><ele>556.0</ele><time>2026-04-18T09:06:29Z</time></trkpt><trkpt lat="46.268780922759206" lon="13.215306404510809"><ele>556.0</ele><time>2026-04-18T09:06:30Z</time></trkpt><trkpt lat="46.268793022696975" lon="13.215502311549745"><ele>556.0</ele><time>2026-04-18T09:06:31Z</time></trkpt><trkpt lat="46.268798212407376" lon="13.215683144003279"><ele>556.0</ele><time>2026-04-18T09:06:32Z</time></trkpt><trkpt lat="46.26878499112552" lon="13.215830612887235"><ele>556.0</ele><time>2026-04-18T09:06:33Z</time></trkpt><trkpt lat="46.26878855297168" lon="13.215973607730357"><ele>556.0</ele><time>2026-04-18T09:06:34Z</time></trkpt><trkpt lat="46.268798950828845" lon="13.216120663010766"><ele>556.0</ele><time>2026-04-18T09:06:35Z</time></trkpt><trkpt lat="46.268824807819605" lon="13.216251451054635"><ele>556.0</ele><time>2026-04-18T09:06:36Z</time></trkpt><trkpt lat="46.268823178331665" lon="13.21638139550852"><ele>556.0</ele><time>2026-04-18T09:06:37Z</time></trkpt><trkpt lat="46.268816809781306" lon="13.216501850808864"><ele>558.4</ele><time>2026-04-18T09:06:38Z</time></trkpt><trkpt lat="46.26876217795049" lon="13.216596586100493"><ele>560.8</ele><time>2026-04-18T09:06:39Z</time></trkpt><trkpt lat="46.26871833844567" lon="13.216714366249464"><ele>563.1999999999999</ele><time>2026-04-18T09:06:40Z</time></trkpt><trkpt lat="46.268671376325784" lon="13.216840535813935"><ele>565.6</ele><time>2026-04-18T09:06:41Z</time></trkpt><trkpt lat="46.268627996092356" lon="13.21695640215277"><ele>568.0</ele><time>2026-04-18T09:06:42Z</time></trkpt><trkpt lat="46.26858670059151" lon="13.217062710129142"><ele>568.0</ele><time>2026-04-18T09:06:43Z</time></trkpt><trkpt lat="46.26854500275847" lon="13.217135781151754"><ele>568.0</ele><time>2026-04-18T09:06:44Z</time></trkpt><trkpt lat="46.26849359725465" lon="13.217188925563663"><ele>568.0</ele><time>2026-04-18T09:06:45Z</time></trkpt><trkpt lat="46.26837898804988" lon="13.217241843134845"><ele>568.0</ele><time>2026-04-18T09:06:47Z</time></trkpt><trkpt lat="46.26831555675069" lon="13.21726942949284"><ele>568.0</ele><time>2026-04-18T09:06:48Z</time></trkpt><trkpt lat="46.268251696541995" lon="13.217297202439932"><ele>568.0</ele><time>2026-04-18T09:06:49Z</time></trkpt><trkpt lat="46.26818625710642" lon="13.217328329645964"><ele>567.1666666666667</ele><time>2026-04-18T09:06:50Z</time></trkpt><trkpt lat="46.26811991327446" lon="13.217379870987923"><ele>566.3333333333334</ele><time>2026-04-18T09:06:51Z</time></trkpt><trkpt lat="46.26805799004561" lon="13.217460728562218"><ele>565.5</ele><time>2026-04-18T09:06:52Z</time></trkpt><trkpt lat="46.26804164693521" lon="13.217596979181753"><ele>564.6666666666666</ele><time>2026-04-18T09:06:53Z</time></trkpt><trkpt lat="46.26800869243571" lon="13.217707863858376"><ele>563.8333333333333</ele><time>2026-04-18T09:06:54Z</time></trkpt><trkpt lat="46.267970172905585" lon="13.217838980459648"><ele>563.0</ele><time>2026-04-18T09:06:55Z</time></trkpt><trkpt lat="46.2679268364054" lon="13.217976341599467"><ele>563.0</ele><time>2026-04-18T09:06:56Z</time></trkpt><trkpt lat="46.267879363207356" lon="13.21812038255714"><ele>563.0</ele><time>2026-04-18T09:06:57Z</time></trkpt><trkpt lat="46.267835248275475" lon="13.21826614210596"><ele>563.0</ele><time>2026-04-18T09:06:58Z</time></trkpt><trkpt lat="46.26779649377164" lon="13.218407102514588"><ele>563.0</ele><time>2026-04-18T09:06:59Z</time></trkpt><trkpt lat="46.267754718577216" lon="13.218537801070767"><ele>563.0</ele><time>2026-04-18T09:07:00Z</time></trkpt><trkpt lat="46.26770834722967" lon="13.218661738565"><ele>565.4</ele><time>2026-04-18T09:07:01Z</time></trkpt><trkpt lat="46.26765412618968" lon="13.218772105431702"><ele>567.8</ele><time>2026-04-18T09:07:02Z</time></trkpt><trkpt lat="46.267579498999126" lon="13.21886384517496"><ele>570.2</ele><time>2026-04-18T09:07:03Z</time></trkpt><trkpt lat="46.26750429590199" lon="13.218946742539044"><ele>572.6</ele><time>2026-04-18T09:07:04Z</time></trkpt><trkpt lat="46.267413033018244" lon="13.218995912561624"><ele>575.0</ele><time>2026-04-18T09:07:05Z</time></trkpt><trkpt lat="46.26732425290076" lon="13.219052117989424"><ele>578.0</ele><time>2026-04-18T09:07:06Z</time></trkpt><trkpt lat="46.267231210955956" lon="13.219099015304746"><ele>581.0</ele><time>2026-04-18T09:07:07Z</time></trkpt><trkpt lat="46.267131155294756" lon="13.219162487041617"><ele>584.0</ele><time>2026-04-18T09:07:08Z</time></trkpt><trkpt lat="46.267020574283805" lon="13.219192667251153"><ele>587.0</ele><time>2026-04-18T09:07:08.999Z</time></trkpt><trkpt lat="46.26691360026143" lon="13.219218847174716"><ele>590.0</ele><time>2026-04-18T09:07:09.999Z</time></trkpt><trkpt lat="46.266812356960855" lon="13.219241865450176"><ele>590.0</ele><time>2026-04-18T09:07:10.999Z</time></trkpt><trkpt lat="46.2667165375233" lon="13.219264387908343"><ele>590.0</ele><time>2026-04-18T09:07:11.999Z</time></trkpt><trkpt lat="46.266623955845475" lon="13.219271104332645"><ele>590.0</ele><time>2026-04-18T09:07:12.999Z</time></trkpt><trkpt lat="46.26653177850903" lon="13.21923984220803"><ele>590.0</ele><time>2026-04-18T09:07:13.999Z</time></trkpt><trkpt lat="46.26645361713616" lon="13.219174002299615"><ele>590.0</ele><time>2026-04-18T09:07:14.999Z</time></trkpt><trkpt lat="46.26638153158056" lon="13.219124677010717"><ele>589.5</ele><time>2026-04-18T09:07:15.999Z</time></trkpt><trkpt lat="46.26630261637491" lon="13.219100086699871"><ele>589.0</ele><time>2026-04-18T09:07:16.999Z</time></trkpt><trkpt lat="46.26621415965329" lon="13.219103284406685"><ele>588.5</ele><time>2026-04-18T09:07:17.999Z</time></trkpt><trkpt lat="46.26612257503399" lon="13.219118820078348"><ele>588.0</ele><time>2026-04-18T09:07:18.999Z</time></trkpt><trkpt lat="46.26603623036787" lon="13.219145105181592"><ele>587.5</ele><time>2026-04-18T09:07:19.999Z</time></trkpt><trkpt lat="46.265967931730756" lon="13.219205491520569"><ele>587.0</ele><time>2026-04-18T09:07:20.999Z</time></trkpt><trkpt lat="46.265897975422156" lon="13.219253408493064"><ele>587.0</ele><time>2026-04-18T09:07:21.999Z</time></trkpt><trkpt lat="46.26583439315953" lon="13.219320113830731"><ele>587.0</ele><time>2026-04-18T09:07:22.999Z</time></trkpt><trkpt lat="46.265781782701275" lon="13.219411888436648"><ele>587.0</ele><time>2026-04-18T09:07:23.999Z</time></trkpt><trkpt lat="46.26570823179503" lon="13.219504837325868"><ele>587.0</ele><time>2026-04-18T09:07:24.999Z</time></trkpt><trkpt lat="46.26565557964148" lon="13.219637522767508"><ele>587.0</ele><time>2026-04-18T09:07:25.999Z</time></trkpt><trkpt lat="46.26558372729024" lon="13.219768781538072"><ele>584.5</ele><time>2026-04-18T09:07:26.999Z</time></trkpt><trkpt lat="46.2655133560799" lon="13.219912100041658"><ele>582.0</ele><time>2026-04-18T09:07:27.999Z</time></trkpt><trkpt lat="46.26544421124839" lon="13.220068688919415"><ele>579.5</ele><time>2026-04-18T09:07:28.999Z</time></trkpt><trkpt lat="46.26537649330369" lon="13.22024105165161"><ele>577.0</ele><time>2026-04-18T09:07:29.999Z</time></trkpt><trkpt lat="46.26530732881123" lon="13.22042236121419"><ele>577.0</ele><time>2026-04-18T09:07:30.999Z</time></trkpt><trkpt lat="46.265243484968295" lon="13.220593369559392"><ele>577.0</ele><time>2026-04-18T09:07:31.999Z</time></trkpt><trkpt lat="46.265179130339206" lon="13.220746185899344"><ele>577.0</ele><time>2026-04-18T09:07:32.999Z</time></trkpt><trkpt lat="46.265107256540325" lon="13.220872563639354"><ele>577.0</ele><time>2026-04-18T09:07:33.999Z</time></trkpt><trkpt lat="46.265015346751106" lon="13.220932591153332"><ele>579.8333333333334</ele><time>2026-04-18T09:07:34.999Z</time></trkpt><trkpt lat="46.264940899460115" lon="13.221011660112625"><ele>582.6666666666667</ele><time>2026-04-18T09:07:35.999Z</time></trkpt><trkpt lat="46.26488120045825" lon="13.221096676998851"><ele>585.5</ele><time>2026-04-18T09:07:36.999Z</time></trkpt><trkpt lat="46.26485184074044" lon="13.221190141250814"><ele>588.3333333333334</ele><time>2026-04-18T09:07:37.999Z</time></trkpt><trkpt lat="46.2648154426316" lon="13.221302913749097"><ele>591.1666666666666</ele><time>2026-04-18T09:07:38.999Z</time></trkpt><trkpt lat="46.26479368838133" lon="13.221436171551359"><ele>594.0</ele><time>2026-04-18T09:07:39.999Z</time></trkpt><trkpt lat="46.264776196439975" lon="13.221598672568867"><ele>594.0</ele><time>2026-04-18T09:07:40.999Z</time></trkpt><trkpt lat="46.26473751625223" lon="13.22177536058504"><ele>594.0</ele><time>2026-04-18T09:07:41.999Z</time></trkpt><trkpt lat="46.26471107939642" lon="13.222003945051267"><ele>594.0</ele><time>2026-04-18T09:07:42.999Z</time></trkpt><trkpt lat="46.26465333791655" lon="13.22223292289474"><ele>596.0</ele><time>2026-04-18T09:07:43.999Z</time></trkpt><trkpt lat="46.26458034889914" lon="13.222408692272126"><ele>598.0</ele><time>2026-04-18T09:07:44.999Z</time></trkpt><trkpt lat="46.26452913097128" lon="13.222558341683195"><ele>600.0</ele><time>2026-04-18T09:07:45.999Z</time></trkpt><trkpt lat="46.26447752798784" lon="13.222669691548163"><ele>602.0</ele><time>2026-04-18T09:07:46.999Z</time></trkpt><trkpt lat="46.26441979137125" lon="13.222747586056604"><ele>604.0</ele><time>2026-04-18T09:07:47.999Z</time></trkpt><trkpt lat="46.26435580333259" lon="13.222769745906858"><ele>604.0</ele><time>2026-04-18T09:07:48.999Z</time></trkpt><trkpt lat="46.264277975674226" lon="13.222804413962647"><ele>604.0</ele><time>2026-04-18T09:07:49.999Z</time></trkpt><trkpt lat="46.2641858914526" lon="13.222845221093246"><ele>604.0</ele><time>2026-04-18T09:07:50.999Z</time></trkpt><trkpt lat="46.264087908416634" lon="13.222882691872982"><ele>604.0</ele><time>2026-04-18T09:07:51.999Z</time></trkpt><trkpt lat="46.26399408182366" lon="13.222913904955751"><ele>604.0</ele><time>2026-04-18T09:07:52.999Z</time></trkpt><trkpt lat="46.263903604916564" lon="13.222938997658304"><ele>604.6666666666667</ele><time>2026-04-18T09:07:53.999Z</time></trkpt><trkpt lat="46.26381601886875" lon="13.222950044103845"><ele>605.3333333333334</ele><time>2026-04-18T09:07:54.999Z</time></trkpt><trkpt lat="46.263731682387736" lon="13.222944974920598"><ele>606.0</ele><time>2026-04-18T09:07:55.999Z</time></trkpt><trkpt lat="46.26364629824347" lon="13.22293869716897"><ele>606.6666666666666</ele><time>2026-04-18T09:07:56.999Z</time></trkpt><trkpt lat="46.263573190786566" lon="13.222929413605913"><ele>607.3333333333333</ele><time>2026-04-18T09:07:57.999Z</time></trkpt><trkpt lat="46.263509430938946" lon="13.222945504809283"><ele>608.0</ele><time>2026-04-18T09:07:58.999Z</time></trkpt><trkpt lat="46.263437431109516" lon="13.2229757494678"><ele>608.0</ele><time>2026-04-18T09:07:59.999Z</time></trkpt><trkpt lat="46.26334370678185" lon="13.223033469035402"><ele>608.0</ele><time>2026-04-18T09:08:00.999Z</time></trkpt><trkpt lat="46.26324174745036" lon="13.223149453988436"><ele>608.0</ele><time>2026-04-18T09:08:01.999Z</time></trkpt><trkpt lat="46.26314045530448" lon="13.223273770070804"><ele>608.0</ele><time>2026-04-18T09:08:02.999Z</time></trkpt><trkpt lat="46.263051818342674" lon="13.223366949435286"><ele>609.3333333333333</ele><time>2026-04-18T09:08:03.999Z</time></trkpt><trkpt lat="46.2629712453456" lon="13.223413170017892"><ele>610.6666666666666</ele><time>2026-04-18T09:08:04.999Z</time></trkpt><trkpt lat="46.26288315491326" lon="13.223424737633781"><ele>612.0</ele><time>2026-04-18T09:08:05.999Z</time></trkpt><trkpt lat="46.262786426014486" lon="13.22344172855903"><ele>613.3333333333334</ele><time>2026-04-18T09:08:06.999Z</time></trkpt><trkpt lat="46.2627079058684" lon="13.223457323074864"><ele>614.6666666666667</ele><time>2026-04-18T09:08:07.999Z</time></trkpt><trkpt lat="46.262637050591614" lon="13.223499984699663"><ele>616.0</ele><time>2026-04-18T09:08:08.999Z</time></trkpt><trkpt lat="46.26256481284471" lon="13.223550956439977"><ele>616.0</ele><time>2026-04-18T09:08:09.999Z</time></trkpt><trkpt lat="46.262480574687515" lon="13.223621943962334"><ele>616.0</ele><time>2026-04-18T09:08:10.999Z</time></trkpt><trkpt lat="46.262396322416244" lon="13.223738660170365"><ele>616.0</ele><time>2026-04-18T09:08:11.999Z</time></trkpt><trkpt lat="46.26230706417103" lon="13.223858470064958"><ele>616.0</ele><time>2026-04-18T09:08:12.999Z</time></trkpt><trkpt lat="46.262229395955075" lon="13.223923731276233"><ele>616.0</ele><time>2026-04-18T09:08:13.999Z</time></trkpt><trkpt lat="46.262145924371985" lon="13.223942553178334"><ele>619.6</ele><time>2026-04-18T09:08:14.999Z</time></trkpt><trkpt lat="46.262065662691455" lon="13.223999759718094"><ele>623.2</ele><time>2026-04-18T09:08:15.999Z</time></trkpt><trkpt lat="46.26198880624235" lon="13.22406570549187"><ele>626.8</ele><time>2026-04-18T09:08:16.999Z</time></trkpt><trkpt lat="46.26190718027586" lon="13.22415690922945"><ele>630.4</ele><time>2026-04-18T09:08:17.999Z</time></trkpt><trkpt lat="46.261836432229366" lon="13.224249757500429"><ele>634.0</ele><time>2026-04-18T09:08:18.999Z</time></trkpt><trkpt lat="46.26177279893775" lon="13.224325039574582"><ele>634.0</ele><time>2026-04-18T09:08:19.999Z</time></trkpt><trkpt lat="46.26170463286055" lon="13.224369957048335"><ele>634.0</ele><time>2026-04-18T09:08:20.999Z</time></trkpt><trkpt lat="46.26163106434199" lon="13.224380816582716"><ele>634.0</ele><time>2026-04-18T09:08:21.999Z</time></trkpt><trkpt lat="46.26155166178798" lon="13.224371387390685"><ele>634.0</ele><time>2026-04-18T09:08:22.999Z</time></trkpt><trkpt lat="46.26145583503879" lon="13.224351792063505"><ele>634.0</ele><time>2026-04-18T09:08:23.999Z</time></trkpt><trkpt lat="46.26135775005944" lon="13.224323189333802"><ele>634.0</ele><time>2026-04-18T09:08:24.999Z</time></trkpt><trkpt lat="46.26126722487932" lon="13.224285103342737"><ele>633.0</ele><time>2026-04-18T09:08:25.999Z</time></trkpt><trkpt lat="46.26116980264917" lon="13.224236598975022"><ele>632.0</ele><time>2026-04-18T09:08:26.999Z</time></trkpt><trkpt lat="46.261076168281875" lon="13.224174338338932"><ele>631.0</ele><time>2026-04-18T09:08:27.999Z</time></trkpt><trkpt lat="46.26098502608336" lon="13.224108377020622"><ele>630.0</ele><time>2026-04-18T09:08:28.999Z</time></trkpt><trkpt lat="46.260888069298026" lon="13.224058820192045"><ele>629.0</ele><time>2026-04-18T09:08:29.999Z</time></trkpt><trkpt lat="46.26076551779399" lon="13.224065098868678"><ele>629.0</ele><time>2026-04-18T09:08:30.999Z</time></trkpt><trkpt lat="46.26066570879356" lon="13.224103536187423"><ele>629.0</ele><time>2026-04-18T09:08:31.999Z</time></trkpt><trkpt lat="46.26058728745275" lon="13.224113544860739"><ele>629.0</ele><time>2026-04-18T09:08:33Z</time></trkpt><trkpt lat="46.26049615610462" lon="13.22411703045355"><ele>629.0</ele><time>2026-04-18T09:08:34Z</time></trkpt><trkpt lat="46.26039519033557" lon="13.224130468804248"><ele>629.0</ele><time>2026-04-18T09:08:35Z</time></trkpt><trkpt lat="46.2602974159323" lon="13.224094355313621"><ele>628.0</ele><time>2026-04-18T09:08:36Z</time></trkpt><trkpt lat="46.26019810516833" lon="13.224054864633604"><ele>627.0</ele><time>2026-04-18T09:08:37Z</time></trkpt><trkpt lat="46.26009558247071" lon="13.22405415718808"><ele>626.0</ele><time>2026-04-18T09:08:38Z</time></trkpt><trkpt lat="46.25999514023501" lon="13.224078780662351"><ele>625.0</ele><time>2026-04-18T09:08:39Z</time></trkpt><trkpt lat="46.25989672095889" lon="13.224119280099274"><ele>624.0</ele><time>2026-04-18T09:08:40Z</time></trkpt><trkpt lat="46.25979664490325" lon="13.22416930147488"><ele>622.25</ele><time>2026-04-18T09:08:41Z</time></trkpt><trkpt lat="46.259690518822296" lon="13.224231019242314"><ele>620.5</ele><time>2026-04-18T09:08:42Z</time></trkpt><trkpt lat="46.25957759520824" lon="13.224304782680775"><ele>618.75</ele><time>2026-04-18T09:08:43Z</time></trkpt><trkpt lat="46.259457654227774" lon="13.224384194912883"><ele>617.0</ele><time>2026-04-18T09:08:44Z</time></trkpt><trkpt lat="46.259343124777686" lon="13.22446002401523"><ele>617.0</ele><time>2026-04-18T09:08:45Z</time></trkpt><trkpt lat="46.259241679378626" lon="13.224558318631983"><ele>617.0</ele><time>2026-04-18T09:08:46Z</time></trkpt><trkpt lat="46.25912700130614" lon="13.224613194897248"><ele>617.0</ele><time>2026-04-18T09:08:47Z</time></trkpt><trkpt lat="46.259003718111614" lon="13.22460721334462"><ele>617.0</ele><time>2026-04-18T09:08:48Z</time></trkpt><trkpt lat="46.25887263165236" lon="13.224616117440885"><ele>620.25</ele><time>2026-04-18T09:08:49Z</time></trkpt><trkpt lat="46.258733184269616" lon="13.224624917772246"><ele>623.5</ele><time>2026-04-18T09:08:50Z</time></trkpt><trkpt lat="46.258584683273796" lon="13.224637912849317"><ele>626.75</ele><time>2026-04-18T09:08:51Z</time></trkpt><trkpt lat="46.25843363259385" lon="13.224653675403225"><ele>630.0</ele><time>2026-04-18T09:08:52Z</time></trkpt><trkpt lat="46.258277805280194" lon="13.224692726441189"><ele>638.0</ele><time>2026-04-18T09:08:53Z</time></trkpt><trkpt lat="46.258114414965384" lon="13.224714691411704"><ele>646.0</ele><time>2026-04-18T09:08:54Z</time></trkpt><trkpt lat="46.25795799204308" lon="13.224722535356085"><ele>654.0</ele><time>2026-04-18T09:08:55Z</time></trkpt><trkpt lat="46.2578148498337" lon="13.224753039021255"><ele>654.0</ele><time>2026-04-18T09:08:56Z</time></trkpt><trkpt lat="46.257683684565386" lon="13.224787526668445"><ele>654.0</ele><time>2026-04-18T09:08:57Z</time></trkpt><trkpt lat="46.25757295834466" lon="13.224825681600118"><ele>654.0</ele><time>2026-04-18T09:08:58Z</time></trkpt><trkpt lat="46.2574647992085" lon="13.224875955902615"><ele>654.0</ele><time>2026-04-18T09:08:59Z</time></trkpt><trkpt lat="46.25735774844974" lon="13.224939406547524"><ele>653.0</ele><time>2026-04-18T09:09:00Z</time></trkpt><trkpt lat="46.257275271904376" lon="13.22499741529507"><ele>652.0</ele><time>2026-04-18T09:09:01Z</time></trkpt><trkpt lat="46.25721269264187" lon="13.22507587643847"><ele>651.0</ele><time>2026-04-18T09:09:02Z</time></trkpt><trkpt lat="46.25713996548706" lon="13.22515440629823"><ele>650.0</ele><time>2026-04-18T09:09:03Z</time></trkpt><trkpt lat="46.25705397669198" lon="13.225244165420982"><ele>649.0</ele><time>2026-04-18T09:09:04Z</time></trkpt><trkpt lat="46.25698871057496" lon="13.225369421086373"><ele>649.0</ele><time>2026-04-18T09:09:05Z</time></trkpt><trkpt lat="46.256925132142975" lon="13.22549941453976"><ele>649.0</ele><time>2026-04-18T09:09:06Z</time></trkpt><trkpt lat="46.25685509218433" lon="13.225628556017005"><ele>649.0</ele><time>2026-04-18T09:09:07Z</time></trkpt><trkpt lat="46.25678594015318" lon="13.225756556862775"><ele>649.0</ele><time>2026-04-18T09:09:08Z</time></trkpt><trkpt lat="46.25672666032034" lon="13.22589271279991"><ele>649.0</ele><time>2026-04-18T09:09:09Z</time></trkpt><trkpt lat="46.25665164146725" lon="13.226019385398203"><ele>649.5</ele><time>2026-04-18T09:09:10Z</time></trkpt><trkpt lat="46.25657726561654" lon="13.226154844726276"><ele>650.0</ele><time>2026-04-18T09:09:11Z</time></trkpt><trkpt lat="46.256507780932054" lon="13.226289030727829"><ele>650.5</ele><time>2026-04-18T09:09:12Z</time></trkpt><trkpt lat="46.25644147035029" lon="13.226425471512979"><ele>651.0</ele><time>2026-04-18T09:09:13Z</time></trkpt><trkpt lat="46.25637908574896" lon="13.226547676258992"><ele>649.8</ele><time>2026-04-18T09:09:14Z</time></trkpt><trkpt lat="46.25632355448325" lon="13.226663822539985"><ele>648.5999999999999</ele><time>2026-04-18T09:09:15Z</time></trkpt><trkpt lat="46.25625832649464" lon="13.226762629625973"><ele>647.4</ele><time>2026-04-18T09:09:16Z</time></trkpt><trkpt lat="46.25619441891297" lon="13.226887908959384"><ele>646.2</ele><time>2026-04-18T09:09:17Z</time></trkpt><trkpt lat="46.25613219113387" lon="13.227040317261475"><ele>645.0</ele><time>2026-04-18T09:09:18Z</time></trkpt><trkpt lat="46.256041882250415" lon="13.227164338631836"><ele>645.0</ele><time>2026-04-18T09:09:19Z</time></trkpt><trkpt lat="46.25595888408713" lon="13.227273532861282"><ele>645.0</ele><time>2026-04-18T09:09:20Z</time></trkpt><trkpt lat="46.25588332132419" lon="13.227366177967648"><ele>645.0</ele><time>2026-04-18T09:09:21Z</time></trkpt><trkpt lat="46.255810968958755" lon="13.227440174972125"><ele>645.0</ele><time>2026-04-18T09:09:22Z</time></trkpt><trkpt lat="46.25573632680192" lon="13.227502775087302"><ele>645.0</ele><time>2026-04-18T09:09:23Z</time></trkpt><trkpt lat="46.25565998808261" lon="13.227554556652722"><ele>645.0</ele><time>2026-04-18T09:09:24Z</time></trkpt><trkpt lat="46.25558233029852" lon="13.227593192704495"><ele>645.0</ele><time>2026-04-18T09:09:24.999Z</time></trkpt><trkpt lat="46.25551004818664" lon="13.227618892568326"><ele>645.0</ele><time>2026-04-18T09:09:25.999Z</time></trkpt><trkpt lat="46.25544477966519" lon="13.22764751803008"><ele>645.0</ele><time>2026-04-18T09:09:26.999Z</time></trkpt><trkpt lat="46.255391367919486" lon="13.227733069374501"><ele>645.0</ele><time>2026-04-18T09:09:27.999Z</time></trkpt><trkpt lat="46.255336213489116" lon="13.227794142871264"><ele>645.0</ele><time>2026-04-18T09:09:28.999Z</time></trkpt><trkpt lat="46.25527996218038" lon="13.22786885528753"><ele>645.0</ele><time>2026-04-18T09:09:29.999Z</time></trkpt><trkpt lat="46.25524431108619" lon="13.22798721362198"><ele>645.0</ele><time>2026-04-18T09:09:30.999Z</time></trkpt><trkpt lat="46.25520741119566" lon="13.228109071255826"><ele>645.0</ele><time>2026-04-18T09:09:31.999Z</time></trkpt><trkpt lat="46.25516818790989" lon="13.228233244352358"><ele>645.0</ele><time>2026-04-18T09:09:32.999Z</time></trkpt><trkpt lat="46.25511395151725" lon="13.228338005100392"><ele>645.0</ele><time>2026-04-18T09:09:33.999Z</time></trkpt><trkpt lat="46.25504277607492" lon="13.228431791108566"><ele>643.8333333333334</ele><time>2026-04-18T09:09:34.999Z</time></trkpt><trkpt lat="46.25495808814135" lon="13.228500054651601"><ele>642.6666666666666</ele><time>2026-04-18T09:09:35.999Z</time></trkpt><trkpt lat="46.25487421923598" lon="13.22855115561264"><ele>641.5</ele><time>2026-04-18T09:09:36.999Z</time></trkpt><trkpt lat="46.254795622163286" lon="13.228589025847008"><ele>640.3333333333333</ele><time>2026-04-18T09:09:37.999Z</time></trkpt><trkpt lat="46.25471820371124" lon="13.228598178403995"><ele>639.1666666666666</ele><time>2026-04-18T09:09:38.999Z</time></trkpt><trkpt lat="46.25464114309493" lon="13.228652152115911"><ele>638.0</ele><time>2026-04-18T09:09:39.999Z</time></trkpt><trkpt lat="46.254581112191104" lon="13.228749870955449"><ele>638.0</ele><time>2026-04-18T09:09:40.999Z</time></trkpt><trkpt lat="46.25453995342761" lon="13.228860261473942"><ele>638.0</ele><time>2026-04-18T09:09:41.999Z</time></trkpt><trkpt lat="46.25446146943014" lon="13.228945802857462"><ele>638.0</ele><time>2026-04-18T09:09:42.999Z</time></trkpt><trkpt lat="46.254382279135015" lon="13.229051800756654"><ele>638.0</ele><time>2026-04-18T09:09:43.999Z</time></trkpt><trkpt lat="46.25429217897015" lon="13.229172401309517"><ele>638.0</ele><time>2026-04-18T09:09:44.999Z</time></trkpt><trkpt lat="46.25419689925621" lon="13.229307577888507"><ele>639.5999999999999</ele><time>2026-04-18T09:09:45.999Z</time></trkpt><trkpt lat="46.254123464411755" lon="13.229453920508707"><ele>641.1999999999999</ele><time>2026-04-18T09:09:46.999Z</time></trkpt><trkpt lat="46.25406333201802" lon="13.229577785194396"><ele>642.8</ele><time>2026-04-18T09:09:47.999Z</time></trkpt><trkpt lat="46.254001014672205" lon="13.229659076386357"><ele>644.4</ele><time>2026-04-18T09:09:48.999Z</time></trkpt><trkpt lat="46.25393673500252" lon="13.229727065896423"><ele>646.0</ele><time>2026-04-18T09:09:49.999Z</time></trkpt><trkpt lat="46.25386526148562" lon="13.229782723719145"><ele>646.0</ele><time>2026-04-18T09:09:50.999Z</time></trkpt><trkpt lat="46.253793293899356" lon="13.229810968925483"><ele>646.0</ele><time>2026-04-18T09:09:51.999Z</time></trkpt><trkpt lat="46.25371445435628" lon="13.229828980787731"><ele>646.0</ele><time>2026-04-18T09:09:52.999Z</time></trkpt><trkpt lat="46.25363397329988" lon="13.229830803751833"><ele>646.0</ele><time>2026-04-18T09:09:53.999Z</time></trkpt><trkpt lat="46.25354846422237" lon="13.229807471049778"><ele>646.0</ele><time>2026-04-18T09:09:54.999Z</time></trkpt><trkpt lat="46.253476816439374" lon="13.229761975375283"><ele>646.0</ele><time>2026-04-18T09:09:55.999Z</time></trkpt><trkpt lat="46.253396952405446" lon="13.229701742534441"><ele>646.0</ele><time>2026-04-18T09:09:56.999Z</time></trkpt><trkpt lat="46.25332499945692" lon="13.229655424308483"><ele>646.0</ele><time>2026-04-18T09:09:57.999Z</time></trkpt><trkpt lat="46.25325370717768" lon="13.22965143927535"><ele>646.0</ele><time>2026-04-18T09:09:58.999Z</time></trkpt><trkpt lat="46.25317741390079" lon="13.229639451286621"><ele>646.0</ele><time>2026-04-18T09:09:59.999Z</time></trkpt><trkpt lat="46.253095494010346" lon="13.229620946840086"><ele>646.0</ele><time>2026-04-18T09:10:00.999Z</time></trkpt><trkpt lat="46.253015866699236" lon="13.229600159526283"><ele>646.0</ele><time>2026-04-18T09:10:01.999Z</time></trkpt><trkpt lat="46.252930013866234" lon="13.229576828156313"><ele>646.8333333333334</ele><time>2026-04-18T09:10:02.999Z</time></trkpt><trkpt lat="46.252859088945506" lon="13.229549900947323"><ele>647.6666666666667</ele><time>2026-04-18T09:10:03.999Z</time></trkpt><trkpt lat="46.2527769911309" lon="13.22950387906999"><ele>648.5</ele><time>2026-04-18T09:10:04.999Z</time></trkpt><trkpt lat="46.252687543876974" lon="13.229448089867477"><ele>649.3333333333334</ele><time>2026-04-18T09:10:05.999Z</time></trkpt><trkpt lat="46.25261260512721" lon="13.229372159435512"><ele>650.1666666666666</ele><time>2026-04-18T09:10:06.999Z</time></trkpt><trkpt lat="46.25253492895392" lon="13.229314559705575"><ele>651.0</ele><time>2026-04-18T09:10:07.999Z</time></trkpt><trkpt lat="46.252451105138746" lon="13.229268764266289"><ele>651.0</ele><time>2026-04-18T09:10:08.999Z</time></trkpt><trkpt lat="46.252353799545716" lon="13.2292560136958"><ele>651.0</ele><time>2026-04-18T09:10:09.999Z</time></trkpt><trkpt lat="46.25225837336927" lon="13.229214049476516"><ele>651.0</ele><time>2026-04-18T09:10:10.999Z</time></trkpt><trkpt lat="46.2521680931698" lon="13.22918574591808"><ele>651.0</ele><time>2026-04-18T09:10:11.999Z</time></trkpt><trkpt lat="46.25207757786993" lon="13.229151817029233"><ele>651.0</ele><time>2026-04-18T09:10:12.999Z</time></trkpt><trkpt lat="46.251987857680994" lon="13.229099368883809"><ele>651.3333333333334</ele><time>2026-04-18T09:10:13.999Z</time></trkpt><trkpt lat="46.25189825699915" lon="13.229026845990019"><ele>651.6666666666666</ele><time>2026-04-18T09:10:14.999Z</time></trkpt><trkpt lat="46.251817227156856" lon="13.22896010130999"><ele>652.0</ele><time>2026-04-18T09:10:15.999Z</time></trkpt><trkpt lat="46.251742877117486" lon="13.228898858579045"><ele>652.3333333333333</ele><time>2026-04-18T09:10:16.999Z</time></trkpt><trkpt lat="46.25167136461644" lon="13.228839953321726"><ele>652.6666666666666</ele><time>2026-04-18T09:10:17.999Z</time></trkpt><trkpt lat="46.25161055211815" lon="13.228792971025255"><ele>653.0</ele><time>2026-04-18T09:10:18.999Z</time></trkpt><trkpt lat="46.25154382928598" lon="13.228755183585902"><ele>649.6666666666666</ele><time>2026-04-18T09:10:19.999Z</time></trkpt><trkpt lat="46.251471729461" lon="13.2287490094699"><ele>646.3333333333333</ele><time>2026-04-18T09:10:20.999Z</time></trkpt><trkpt lat="46.25139956516882" lon="13.2287621156124"><ele>643.0</ele><time>2026-04-18T09:10:21.999Z</time></trkpt><trkpt lat="46.25131364297145" lon="13.228813084756304"><ele>639.6666666666666</ele><time>2026-04-18T09:10:22.999Z</time></trkpt><trkpt lat="46.25123790216747" lon="13.228865228744663"><ele>636.3333333333334</ele><time>2026-04-18T09:10:23.999Z</time></trkpt><trkpt lat="46.25116696580067" lon="13.228882862059619"><ele>633.0</ele><time>2026-04-18T09:10:24.999Z</time></trkpt><trkpt lat="46.251088652343036" lon="13.22886629471267"><ele>632.1666666666666</ele><time>2026-04-18T09:10:25.999Z</time></trkpt><trkpt lat="46.25103396545302" lon="13.228782056217215"><ele>631.3333333333334</ele><time>2026-04-18T09:10:26.999Z</time></trkpt><trkpt lat="46.25097931786888" lon="13.228730298613492"><ele>630.5</ele><time>2026-04-18T09:10:27.999Z</time></trkpt><trkpt lat="46.25092236312767" lon="13.228688294080364"><ele>629.6666666666667</ele><time>2026-04-18T09:10:28.999Z</time></trkpt><trkpt lat="46.25084839325822" lon="13.228707636510855"><ele>628.8333333333334</ele><time>2026-04-18T09:10:29.999Z</time></trkpt><trkpt lat="46.25080020017804" lon="13.228814205302015"><ele>628.0</ele><time>2026-04-18T09:10:30.999Z</time></trkpt><trkpt lat="46.250731722822856" lon="13.228878214762611"><ele>628.0</ele><time>2026-04-18T09:10:31.999Z</time></trkpt><trkpt lat="46.250679446722735" lon="13.22894082930083"><ele>628.0</ele><time>2026-04-18T09:10:32.999Z</time></trkpt><trkpt lat="46.25062839104833" lon="13.228995654680382"><ele>628.0</ele><time>2026-04-18T09:10:33.999Z</time></trkpt><trkpt lat="46.25056354399391" lon="13.228999727376177"><ele>628.0</ele><time>2026-04-18T09:10:34.999Z</time></trkpt><trkpt lat="46.25051397771739" lon="13.22893783312609"><ele>628.0</ele><time>2026-04-18T09:10:35.999Z</time></trkpt><trkpt lat="46.25040111451702" lon="13.22882914995"><ele>628.0</ele><time>2026-04-18T09:10:37.999Z</time></trkpt><trkpt lat="46.2503490900494" lon="13.228773430858123"><ele>628.0</ele><time>2026-04-18T09:10:39Z</time></trkpt><trkpt lat="46.25024835206938" lon="13.228709606906449"><ele>628.0</ele><time>2026-04-18T09:10:41Z</time></trkpt><trkpt lat="46.250176058058756" lon="13.228777519152331"><ele>628.0</ele><time>2026-04-18T09:10:42Z</time></trkpt><trkpt lat="46.25011004683923" lon="13.228781766542594"><ele>628.0</ele><time>2026-04-18T09:10:43Z</time></trkpt><trkpt lat="46.250034810477935" lon="13.228821720635684"><ele>628.0</ele><time>2026-04-18T09:10:44Z</time></trkpt><trkpt lat="46.24997303087819" lon="13.228900046082815"><ele>628.0</ele><time>2026-04-18T09:10:45Z</time></trkpt><trkpt lat="46.249898353808014" lon="13.228970023859523"><ele>631.0</ele><time>2026-04-18T09:10:46Z</time></trkpt><trkpt lat="46.24982807781166" lon="13.229074166771422"><ele>634.0</ele><time>2026-04-18T09:10:47Z</time></trkpt><trkpt lat="46.24975800075438" lon="13.229149109639032"><ele>637.0</ele><time>2026-04-18T09:10:48Z</time></trkpt><trkpt lat="46.24967842164978" lon="13.229195309243963"><ele>640.0</ele><time>2026-04-18T09:10:49Z</time></trkpt><trkpt lat="46.24959901360692" lon="13.22917821152877"><ele>643.0</ele><time>2026-04-18T09:10:50Z</time></trkpt><trkpt lat="46.24953062139033" lon="13.229140731873644"><ele>646.0</ele><time>2026-04-18T09:10:51Z</time></trkpt><trkpt lat="46.24945648676732" lon="13.229093025309677"><ele>646.1666666666667</ele><time>2026-04-18T09:10:52Z</time></trkpt><trkpt lat="46.2493645884636" lon="13.22905743594202"><ele>646.3333333333334</ele><time>2026-04-18T09:10:53Z</time></trkpt><trkpt lat="46.24929835183963" lon="13.228973341636308"><ele>646.5</ele><time>2026-04-18T09:10:54Z</time></trkpt><trkpt lat="46.24923628037957" lon="13.22892371327337"><ele>646.6666666666666</ele><time>2026-04-18T09:10:55Z</time></trkpt><trkpt lat="46.24916654894469" lon="13.2288914471742"><ele>646.8333333333333</ele><time>2026-04-18T09:10:56Z</time></trkpt><trkpt lat="46.24907969669591" lon="13.228887211523435"><ele>647.0</ele><time>2026-04-18T09:10:57Z</time></trkpt><trkpt lat="46.24899404917363" lon="13.228901334659746"><ele>645.8333333333333</ele><time>2026-04-18T09:10:58Z</time></trkpt><trkpt lat="46.24892280327908" lon="13.228973359690185"><ele>644.6666666666666</ele><time>2026-04-18T09:10:59Z</time></trkpt><trkpt lat="46.24884717391262" lon="13.229009076137219"><ele>643.5</ele><time>2026-04-18T09:11:00Z</time></trkpt><trkpt lat="46.24877065184843" lon="13.22907538504268"><ele>642.3333333333334</ele><time>2026-04-18T09:11:01Z</time></trkpt><trkpt lat="46.248691403416984" lon="13.229144543899059"><ele>641.1666666666667</ele><time>2026-04-18T09:11:02Z</time></trkpt><trkpt lat="46.24861110261247" lon="13.229214621117459"><ele>640.0</ele><time>2026-04-18T09:11:03Z</time></trkpt><trkpt lat="46.24853727260568" lon="13.229275078308186"><ele>640.0</ele><time>2026-04-18T09:11:04Z</time></trkpt><trkpt lat="46.248434671593806" lon="13.229353028058831"><ele>640.0</ele><time>2026-04-18T09:11:06Z</time></trkpt><trkpt lat="46.24833937542913" lon="13.229269809352427"><ele>640.0</ele><time>2026-04-18T09:11:08Z</time></trkpt><trkpt lat="46.24832564416367" lon="13.229100069567673"><ele>640.0</ele><time>2026-04-18T09:11:10Z</time></trkpt><trkpt lat="46.24831279557586" lon="13.228995518803586"><ele>640.0</ele><time>2026-04-18T09:11:11Z</time></trkpt><trkpt lat="46.24829079670872" lon="13.228897240792843"><ele>635.3333333333334</ele><time>2026-04-18T09:11:12Z</time></trkpt><trkpt lat="46.24822800588999" lon="13.228817911570516"><ele>630.6666666666667</ele><time>2026-04-18T09:11:13Z</time></trkpt><trkpt lat="46.24817191076743" lon="13.228760524438574"><ele>626.0</ele><time>2026-04-18T09:11:14Z</time></trkpt><trkpt lat="46.24808964426666" lon="13.2287747111136"><ele>621.3333333333334</ele><time>2026-04-18T09:11:15Z</time></trkpt><trkpt lat="46.248017513509346" lon="13.228756485207251"><ele>616.6666666666666</ele><time>2026-04-18T09:11:16Z</time></trkpt><trkpt lat="46.24793429559671" lon="13.228784765833613"><ele>612.0</ele><time>2026-04-18T09:11:17Z</time></trkpt><trkpt lat="46.24785409417689" lon="13.228851089220644"><ele>611.6</ele><time>2026-04-18T09:11:18Z</time></trkpt><trkpt lat="46.247764101182064" lon="13.228902244538471"><ele>611.2</ele><time>2026-04-18T09:11:19Z</time></trkpt><trkpt lat="46.24766151663415" lon="13.228968054176207"><ele>610.8</ele><time>2026-04-18T09:11:20Z</time></trkpt><trkpt lat="46.24757254536389" lon="13.229042289951481"><ele>610.4</ele><time>2026-04-18T09:11:21Z</time></trkpt><trkpt lat="46.24747994520244" lon="13.22909101750083"><ele>610.0</ele><time>2026-04-18T09:11:22Z</time></trkpt><trkpt lat="46.24739854591602" lon="13.229157578344237"><ele>614.3333333333334</ele><time>2026-04-18T09:11:23Z</time></trkpt><trkpt lat="46.24732853253249" lon="13.22921324799264"><ele>618.6666666666667</ele><time>2026-04-18T09:11:24Z</time></trkpt><trkpt lat="46.24726292442965" lon="13.229261731024538"><ele>623.0</ele><time>2026-04-18T09:11:25Z</time></trkpt><trkpt lat="46.247202243061544" lon="13.229293468425784"><ele>627.3333333333334</ele><time>2026-04-18T09:11:26Z</time></trkpt><trkpt lat="46.24713449843429" lon="13.229277582336387"><ele>631.6666666666666</ele><time>2026-04-18T09:11:27Z</time></trkpt><trkpt lat="46.247021050418596" lon="13.229179807191256"><ele>636.0</ele><time>2026-04-18T09:11:29Z</time></trkpt><trkpt lat="46.24696548221487" lon="13.229108994269884"><ele>638.0</ele><time>2026-04-18T09:11:30Z</time></trkpt><trkpt lat="46.24688635339403" lon="13.229024181522114"><ele>640.0</ele><time>2026-04-18T09:11:31Z</time></trkpt><trkpt lat="46.246837172568476" lon="13.228889718888304"><ele>642.0</ele><time>2026-04-18T09:11:32Z</time></trkpt><trkpt lat="46.246795010606824" lon="13.228774318380733"><ele>644.0</ele><time>2026-04-18T09:11:33Z</time></trkpt><trkpt lat="46.246759549890896" lon="13.228654891870564"><ele>646.0</ele><time>2026-04-18T09:11:33.999Z</time></trkpt><trkpt lat="46.24673045237685" lon="13.228532826969696"><ele>642.0</ele><time>2026-04-18T09:11:34.999Z</time></trkpt><trkpt lat="46.246699194895854" lon="13.228417408719954"><ele>638.0</ele><time>2026-04-18T09:11:35.999Z</time></trkpt><trkpt lat="46.24668986076153" lon="13.22829545989954"><ele>634.0</ele><time>2026-04-18T09:11:36.999Z</time></trkpt><trkpt lat="46.24669336371883" lon="13.22817182209832"><ele>630.0</ele><time>2026-04-18T09:11:37.999Z</time></trkpt><trkpt lat="46.24670287215926" lon="13.228061050283603"><ele>626.0</ele><time>2026-04-18T09:11:38.999Z</time></trkpt><trkpt lat="46.24671252491262" lon="13.227968499279434"><ele>622.0</ele><time>2026-04-18T09:11:39.999Z</time></trkpt><trkpt lat="46.246743125433845" lon="13.22783169047557"><ele>620.5</ele><time>2026-04-18T09:11:41.999Z</time></trkpt><trkpt lat="46.246767970273694" lon="13.227721745629797"><ele>619.0</ele><time>2026-04-18T09:11:43.999Z</time></trkpt><trkpt lat="46.24676053307603" lon="13.227616468962438"><ele>617.5</ele><time>2026-04-18T09:11:46.999Z</time></trkpt><trkpt lat="46.246749467429495" lon="13.227499401271166"><ele>616.0</ele><time>2026-04-18T09:11:51.999Z</time></trkpt><trkpt lat="46.246641644554394" lon="13.227435449860863"><ele>614.5</ele><time>2026-04-18T09:11:53.999Z</time></trkpt><trkpt lat="46.24663187974303" lon="13.227319980758017"><ele>613.0</ele><time>2026-04-18T09:11:55.999Z</time></trkpt><trkpt lat="46.24663257768369" lon="13.227186154328942"><ele>610.0</ele><time>2026-04-18T09:11:57.999Z</time></trkpt><trkpt lat="46.24662334230395" lon="13.227046909723242"><ele>607.0</ele><time>2026-04-18T09:11:59.999Z</time></trkpt><trkpt lat="46.2466163149478" lon="13.226873445331622"><ele>604.0</ele><time>2026-04-18T09:12:01.999Z</time></trkpt><trkpt lat="46.246624841658196" lon="13.226697593324648"><ele>601.0</ele><time>2026-04-18T09:12:03.999Z</time></trkpt><trkpt lat="46.24663671851925" lon="13.226522447671863"><ele>599.3333333333334</ele><time>2026-04-18T09:12:05.999Z</time></trkpt><trkpt lat="46.24666347270062" lon="13.22642703157817"><ele>597.6666666666667</ele><time>2026-04-18T09:12:06.999Z</time></trkpt><trkpt lat="46.24669731246306" lon="13.226330252304985"><ele>596.0</ele><time>2026-04-18T09:12:07.999Z</time></trkpt><trkpt lat="46.24673945214986" lon="13.226227457815828"><ele>594.3333333333334</ele><time>2026-04-18T09:12:08.999Z</time></trkpt><trkpt lat="46.24678252470284" lon="13.226118716411854"><ele>592.6666666666666</ele><time>2026-04-18T09:12:09.999Z</time></trkpt><trkpt lat="46.24682484312823" lon="13.226013733397517"><ele>591.0</ele><time>2026-04-18T09:12:10.999Z</time></trkpt><trkpt lat="46.24686230234402" lon="13.225915334763613"><ele>591.0</ele><time>2026-04-18T09:12:11.999Z</time></trkpt><trkpt lat="46.24691316294449" lon="13.225834127034878"><ele>591.0</ele><time>2026-04-18T09:12:12.999Z</time></trkpt><trkpt lat="46.246988964786595" lon="13.225770858567655"><ele>591.0</ele><time>2026-04-18T09:12:13.999Z</time></trkpt><trkpt lat="46.24706176930087" lon="13.225708715084412"><ele>591.0</ele><time>2026-04-18T09:12:14.999Z</time></trkpt><trkpt lat="46.24712625390943" lon="13.225652620429178"><ele>591.0</ele><time>2026-04-18T09:12:15.999Z</time></trkpt><trkpt lat="46.24718848112169" lon="13.225591637872192"><ele>591.0</ele><time>2026-04-18T09:12:16.999Z</time></trkpt><trkpt lat="46.24724520798623" lon="13.225536823047722"><ele>589.1666666666666</ele><time>2026-04-18T09:12:17.999Z</time></trkpt><trkpt lat="46.247311979494675" lon="13.225505167324556"><ele>587.3333333333334</ele><time>2026-04-18T09:12:18.999Z</time></trkpt><trkpt lat="46.2473759406847" lon="13.225494805444951"><ele>585.5</ele><time>2026-04-18T09:12:19.999Z</time></trkpt><trkpt lat="46.247463751977506" lon="13.22544475719628"><ele>583.6666666666667</ele><time>2026-04-18T09:12:21.999Z</time></trkpt><trkpt lat="46.247473749549684" lon="13.22530670465807"><ele>581.8333333333334</ele><time>2026-04-18T09:12:23.999Z</time></trkpt><trkpt lat="46.24741273436737" lon="13.225231621421045"><ele>580.0</ele><time>2026-04-18T09:12:24.999Z</time></trkpt><trkpt lat="46.247324289492774" lon="13.225264569776423"><ele>577.8</ele><time>2026-04-18T09:12:25.999Z</time></trkpt><trkpt lat="46.2472638597662" lon="13.225308983530292"><ele>575.6</ele><time>2026-04-18T09:12:26.999Z</time></trkpt><trkpt lat="46.247162618072586" lon="13.22537700764763"><ele>573.4</ele><time>2026-04-18T09:12:28.999Z</time></trkpt><trkpt lat="46.24710314616945" lon="13.225419529722895"><ele>571.2</ele><time>2026-04-18T09:12:29.999Z</time></trkpt><trkpt lat="46.24700194878569" lon="13.22546695554931"><ele>569.0</ele><time>2026-04-18T09:12:31.999Z</time></trkpt><trkpt lat="46.24689588421569" lon="13.225484599017749"><ele>569.0</ele><time>2026-04-18T09:12:33.999Z</time></trkpt><trkpt lat="46.24677816360689" lon="13.22550166612705"><ele>569.0</ele><time>2026-04-18T09:12:35.999Z</time></trkpt><trkpt lat="46.24667053640693" lon="13.225562740490169"><ele>569.0</ele><time>2026-04-18T09:12:37.999Z</time></trkpt><trkpt lat="46.24659460982289" lon="13.225637654721384"><ele>569.0</ele><time>2026-04-18T09:12:39.999Z</time></trkpt><trkpt lat="46.24654551192661" lon="13.225569409863603"><ele>569.0</ele><time>2026-04-18T09:12:45Z</time></trkpt><trkpt lat="46.24663302656502" lon="13.22550093576446"><ele>569.0</ele><time>2026-04-18T09:12:47Z</time></trkpt><trkpt lat="46.246727256353594" lon="13.225437623680234"><ele>569.0</ele><time>2026-04-18T09:12:49Z</time></trkpt><trkpt lat="46.24679363046926" lon="13.22539418757084"><ele>569.0</ele><time>2026-04-18T09:12:50Z</time></trkpt><trkpt lat="46.24686745262386" lon="13.22534521938844"><ele>569.0</ele><time>2026-04-18T09:12:51Z</time></trkpt><trkpt lat="46.24693884762337" lon="13.22528955855998"><ele>569.0</ele><time>2026-04-18T09:12:52Z</time></trkpt><trkpt lat="46.24699977915565" lon="13.225219916024267"><ele>569.0</ele><time>2026-04-18T09:12:53Z</time></trkpt><trkpt lat="46.24704778208154" lon="13.225131076313787"><ele>569.0</ele><time>2026-04-18T09:12:54Z</time></trkpt><trkpt lat="46.24708854662858" lon="13.225032215093814"><ele>569.0</ele><time>2026-04-18T09:12:55Z</time></trkpt><trkpt lat="46.24712581378969" lon="13.224940525241527"><ele>569.0</ele><time>2026-04-18T09:12:56Z</time></trkpt><trkpt lat="46.24716755086623" lon="13.224863081929268"><ele>569.0</ele><time>2026-04-18T09:12:57Z</time></trkpt><trkpt lat="46.24726293305094" lon="13.224752182429885"><ele>569.0</ele><time>2026-04-18T09:12:59Z</time></trkpt><trkpt lat="46.24732896694352" lon="13.224738242417034"><ele>569.0</ele><time>2026-04-18T09:13:00Z</time></trkpt><trkpt lat="46.24739494301236" lon="13.224737668435786"><ele>570.8333333333333</ele><time>2026-04-18T09:13:01Z</time></trkpt><trkpt lat="46.24746899687078" lon="13.22473386646875"><ele>572.6666666666666</ele><time>2026-04-18T09:13:02Z</time></trkpt><trkpt lat="46.24755280094891" lon="13.224735199297802"><ele>574.5</ele><time>2026-04-18T09:13:03Z</time></trkpt><trkpt lat="46.247637238115445" lon="13.22475715337167"><ele>576.3333333333334</ele><time>2026-04-18T09:13:04Z</time></trkpt><trkpt lat="46.24771404534457" lon="13.224788401221574"><ele>578.1666666666667</ele><time>2026-04-18T09:13:05Z</time></trkpt><trkpt lat="46.24778775651818" lon="13.224835286236658"><ele>580.0</ele><time>2026-04-18T09:13:06Z</time></trkpt><trkpt lat="46.24785864800714" lon="13.22487621021949"><ele>580.0</ele><time>2026-04-18T09:13:07Z</time></trkpt><trkpt lat="46.247929846859996" lon="13.224894795860356"><ele>580.0</ele><time>2026-04-18T09:13:08Z</time></trkpt><trkpt lat="46.247999063255094" lon="13.22489262248319"><ele>580.0</ele><time>2026-04-18T09:13:09Z</time></trkpt><trkpt lat="46.24806480442275" lon="13.224894555065855"><ele>580.0</ele><time>2026-04-18T09:13:10Z</time></trkpt><trkpt lat="46.24818004769227" lon="13.224916433311204"><ele>580.0</ele><time>2026-04-18T09:13:12Z</time></trkpt><trkpt lat="46.24826924313961" lon="13.224902261222805"><ele>580.0</ele><time>2026-04-18T09:13:14Z</time></trkpt><trkpt lat="46.248301914822406" lon="13.22478148068859"><ele>575.6666666666667</ele><time>2026-04-18T09:13:16Z</time></trkpt><trkpt lat="46.248237364800836" lon="13.22467081353311"><ele>571.3333333333334</ele><time>2026-04-18T09:13:18Z</time></trkpt><trkpt lat="46.24815831006317" lon="13.224659049788633"><ele>567.0</ele><time>2026-04-18T09:13:19Z</time></trkpt><trkpt lat="46.2480800116083" lon="13.224664725560928"><ele>562.6666666666666</ele><time>2026-04-18T09:13:20Z</time></trkpt><trkpt lat="46.24800277651079" lon="13.224670051677206"><ele>558.3333333333333</ele><time>2026-04-18T09:13:21Z</time></trkpt><trkpt lat="46.24793689756882" lon="13.224659449464273"><ele>554.0</ele><time>2026-04-18T09:13:22Z</time></trkpt><trkpt lat="46.247835660175745" lon="13.224546895331352"><ele>554.0</ele><time>2026-04-18T09:13:24Z</time></trkpt><trkpt lat="46.247783105743906" lon="13.224465443053363"><ele>554.0</ele><time>2026-04-18T09:13:25Z</time></trkpt><trkpt lat="46.247737721061895" lon="13.224396318886608"><ele>554.0</ele><time>2026-04-18T09:13:26Z</time></trkpt><trkpt lat="46.24761534435581" lon="13.22435425528938"><ele>554.0</ele><time>2026-04-18T09:13:28Z</time></trkpt><trkpt lat="46.24755348399351" lon="13.224310317343509"><ele>554.0</ele><time>2026-04-18T09:13:29Z</time></trkpt><trkpt lat="46.24748217733275" lon="13.224275814603358"><ele>554.0</ele><time>2026-04-18T09:13:30Z</time></trkpt><trkpt lat="46.247415124407475" lon="13.224223966883269"><ele>554.0</ele><time>2026-04-18T09:13:31Z</time></trkpt><trkpt lat="46.24735171712559" lon="13.224164194689067"><ele>554.0</ele><time>2026-04-18T09:13:32Z</time></trkpt><trkpt lat="46.24730172337284" lon="13.224081008586646"><ele>554.0</ele><time>2026-04-18T09:13:33Z</time></trkpt><trkpt lat="46.24725377505906" lon="13.224005319667999"><ele>554.0</ele><time>2026-04-18T09:13:34Z</time></trkpt><trkpt lat="46.247203234957134" lon="13.223926963214819"><ele>554.0</ele><time>2026-04-18T09:13:35Z</time></trkpt><trkpt lat="46.247124264110575" lon="13.223883927515303"><ele>554.0</ele><time>2026-04-18T09:13:36Z</time></trkpt><trkpt lat="46.247045459784424" lon="13.223874997221223"><ele>551.8333333333333</ele><time>2026-04-18T09:13:37Z</time></trkpt><trkpt lat="46.246981357550254" lon="13.223874885863685"><ele>549.6666666666666</ele><time>2026-04-18T09:13:38Z</time></trkpt><trkpt lat="46.246912210950846" lon="13.223896291050652"><ele>547.5</ele><time>2026-04-18T09:13:39Z</time></trkpt><trkpt lat="46.246842867522915" lon="13.22396614951491"><ele>545.3333333333334</ele><time>2026-04-18T09:13:40Z</time></trkpt><trkpt lat="46.246782044874884" lon="13.22406800542045"><ele>543.1666666666667</ele><time>2026-04-18T09:13:40.999Z</time></trkpt><trkpt lat="46.24672813743972" lon="13.22417364371981"><ele>541.0</ele><time>2026-04-18T09:13:41.999Z</time></trkpt><trkpt lat="46.24668642926319" lon="13.224286867020483"><ele>541.0</ele><time>2026-04-18T09:13:42.999Z</time></trkpt><trkpt lat="46.24666488722872" lon="13.224379931355909"><ele>541.0</ele><time>2026-04-18T09:13:43.999Z</time></trkpt><trkpt lat="46.246622498042306" lon="13.224485147949498"><ele>541.0</ele><time>2026-04-18T09:13:45.999Z</time></trkpt><trkpt lat="46.24653495729233" lon="13.224494264872252"><ele>541.0</ele><time>2026-04-18T09:13:47.999Z</time></trkpt><trkpt lat="46.24641531751242" lon="13.224504359256489"><ele>541.0</ele><time>2026-04-18T09:13:49.999Z</time></trkpt><trkpt lat="46.24635226470118" lon="13.224512526142243"><ele>541.0</ele><time>2026-04-18T09:13:50.999Z</time></trkpt><trkpt lat="46.246278238610294" lon="13.224522114377239"><ele>536.2</ele><time>2026-04-18T09:13:51.999Z</time></trkpt><trkpt lat="46.246194181473314" lon="13.22453087237467"><ele>531.4000000000001</ele><time>2026-04-18T09:13:52.999Z</time></trkpt><trkpt lat="46.24610759831075" lon="13.224531845484531"><ele>526.6</ele><time>2026-04-18T09:13:53.999Z</time></trkpt><trkpt lat="46.24601708180263" lon="13.224502478825883"><ele>521.8000000000001</ele><time>2026-04-18T09:13:54.999Z</time></trkpt><trkpt lat="46.24594385754449" lon="13.22451671596244"><ele>517.0</ele><time>2026-04-18T09:13:55.999Z</time></trkpt><trkpt lat="46.24582907547985" lon="13.224518219247555"><ele>517.0</ele><time>2026-04-18T09:13:57.999Z</time></trkpt><trkpt lat="46.2457322235514" lon="13.224635812576862"><ele>517.0</ele><time>2026-04-18T09:13:59.999Z</time></trkpt><trkpt lat="46.24570693673644" lon="13.224749960598903"><ele>517.0</ele><time>2026-04-18T09:14:00.999Z</time></trkpt><trkpt lat="46.24564799916015" lon="13.224832167218233"><ele>517.0</ele><time>2026-04-18T09:14:01.999Z</time></trkpt><trkpt lat="46.24558220221904" lon="13.224899185341087"><ele>517.0</ele><time>2026-04-18T09:14:02.999Z</time></trkpt><trkpt lat="46.24553010248601" lon="13.224986668441062"><ele>515.0</ele><time>2026-04-18T09:14:03.999Z</time></trkpt><trkpt lat="46.24545485248288" lon="13.225044756741077"><ele>513.0</ele><time>2026-04-18T09:14:04.999Z</time></trkpt><trkpt lat="46.24536445313508" lon="13.225080186350374"><ele>511.0</ele><time>2026-04-18T09:14:05.999Z</time></trkpt><trkpt lat="46.24531124673437" lon="13.22518157931405"><ele>509.0</ele><time>2026-04-18T09:14:06.999Z</time></trkpt><trkpt lat="46.245253815148864" lon="13.225261710742531"><ele>507.00000000000006</ele><time>2026-04-18T09:14:07.999Z</time></trkpt><trkpt lat="46.24520933469732" lon="13.225349334031709"><ele>505.0</ele><time>2026-04-18T09:14:08.999Z</time></trkpt><trkpt lat="46.245135381521436" lon="13.225383128334718"><ele>505.00000000000006</ele><time>2026-04-18T09:14:09.999Z</time></trkpt><trkpt lat="46.245061295611364" lon="13.225435140763276"><ele>505.0</ele><time>2026-04-18T09:14:10.999Z</time></trkpt><trkpt lat="46.24499804007187" lon="13.225473936693723"><ele>505.0</ele><time>2026-04-18T09:14:11.999Z</time></trkpt><trkpt lat="46.2449205701801" lon="13.225513230920367"><ele>505.0</ele><time>2026-04-18T09:14:12.999Z</time></trkpt><trkpt lat="46.24485055959733" lon="13.22554708115015"><ele>505.00000000000006</ele><time>2026-04-18T09:14:13.999Z</time></trkpt><trkpt lat="46.24475793429769" lon="13.225644442355334"><ele>505.0</ele><time>2026-04-18T09:14:15.999Z</time></trkpt><trkpt lat="46.24469956642599" lon="13.2257560371917"><ele>502.0</ele><time>2026-04-18T09:14:17.999Z</time></trkpt><trkpt lat="46.244721977010855" lon="13.225855955719666"><ele>499.0</ele><time>2026-04-18T09:14:18.999Z</time></trkpt><trkpt lat="46.2448768277542" lon="13.225922651098202"><ele>496.0</ele><time>2026-04-18T09:14:20.999Z</time></trkpt><trkpt lat="46.24493101830448" lon="13.226015915679236"><ele>493.0</ele><time>2026-04-18T09:14:21.999Z</time></trkpt><trkpt lat="46.244978676787724" lon="13.22611924277984"><ele>490.0</ele><time>2026-04-18T09:14:22.999Z</time></trkpt><trkpt lat="46.24503376667241" lon="13.22620767456356"><ele>491.83333333333337</ele><time>2026-04-18T09:14:23.999Z</time></trkpt><trkpt lat="46.245066366054616" lon="13.22628609980285"><ele>493.6666666666667</ele><time>2026-04-18T09:14:24.999Z</time></trkpt><trkpt lat="46.245086356722275" lon="13.226395772104361"><ele>495.5</ele><time>2026-04-18T09:14:26.999Z</time></trkpt><trkpt lat="46.24504706774559" lon="13.226483583601265"><ele>497.33333333333337</ele><time>2026-04-18T09:14:30.999Z</time></trkpt><trkpt lat="46.24497984415619" lon="13.226518366740189"><ele>499.1666666666667</ele><time>2026-04-18T09:14:32.999Z</time></trkpt><trkpt lat="46.24488357628141" lon="13.226497430345681"><ele>501.0</ele><time>2026-04-18T09:14:34.999Z</time></trkpt><trkpt lat="46.24477330549261" lon="13.226491689898145"><ele>501.0</ele><time>2026-04-18T09:14:36.999Z</time></trkpt><trkpt lat="46.244692034918536" lon="13.226485734747833"><ele>501.0</ele><time>2026-04-18T09:14:37.999Z</time></trkpt><trkpt lat="46.24462247822083" lon="13.226483321795019"><ele>501.0</ele><time>2026-04-18T09:14:38.999Z</time></trkpt><trkpt lat="46.24455319130582" lon="13.22648091820036"><ele>501.0</ele><time>2026-04-18T09:14:39.999Z</time></trkpt><trkpt lat="46.24448189663321" lon="13.226478444962831"><ele>501.0</ele><time>2026-04-18T09:14:40.999Z</time></trkpt><trkpt lat="46.244405084976215" lon="13.226475780334741"><ele>501.0</ele><time>2026-04-18T09:14:41.999Z</time></trkpt><trkpt lat="46.24432723520098" lon="13.226472923014205"><ele>501.0</ele><time>2026-04-18T09:14:42.999Z</time></trkpt><trkpt lat="46.244248611835026" lon="13.226465123132606"><ele>499.1666666666667</ele><time>2026-04-18T09:14:43.999Z</time></trkpt><trkpt lat="46.24416860646169" lon="13.226460789583617"><ele>497.33333333333337</ele><time>2026-04-18T09:14:44.999Z</time></trkpt><trkpt lat="46.24410177289219" lon="13.226428424962823"><ele>495.5</ele><time>2026-04-18T09:14:45.999Z</time></trkpt><trkpt lat="46.2440380082197" lon="13.226406171574387"><ele>493.6666666666667</ele><time>2026-04-18T09:14:46.999Z</time></trkpt><trkpt lat="46.2439564829245" lon="13.226377639453588"><ele>491.83333333333337</ele><time>2026-04-18T09:14:48.999Z</time></trkpt><trkpt lat="46.243879103808325" lon="13.226330334788523"><ele>490.0</ele><time>2026-04-18T09:14:51Z</time></trkpt><trkpt lat="46.24390228557908" lon="13.22623652665582"><ele>490.00000000000006</ele><time>2026-04-18T09:14:53Z</time></trkpt><trkpt lat="46.24398658664282" lon="13.226286159289295"><ele>490.0</ele><time>2026-04-18T09:14:55Z</time></trkpt><trkpt lat="46.24409009531276" lon="13.226312410723889"><ele>490.0</ele><time>2026-04-18T09:14:57Z</time></trkpt><trkpt lat="46.24416504413028" lon="13.226316111545652"><ele>490.0</ele><time>2026-04-18T09:14:58Z</time></trkpt><trkpt lat="46.244245623108014" lon="13.226327653161865"><ele>490.00000000000006</ele><time>2026-04-18T09:14:59Z</time></trkpt><trkpt lat="46.24431961687283" lon="13.226336707685864"><ele>490.0</ele><time>2026-04-18T09:15:00Z</time></trkpt><trkpt lat="46.24441932157533" lon="13.226334293624783"><ele>490.0</ele><time>2026-04-18T09:15:02Z</time></trkpt><trkpt lat="46.244494631240904" lon="13.22627884559767"><ele>490.0</ele><time>2026-04-18T09:15:04Z</time></trkpt><trkpt lat="46.244491263018325" lon="13.22611458677059"><ele>490.0</ele><time>2026-04-18T09:15:06Z</time></trkpt><trkpt lat="46.244438127911565" lon="13.22602944163177"><ele>490.0</ele><time>2026-04-18T09:15:07Z</time></trkpt><trkpt lat="46.24437761658198" lon="13.225938352348185"><ele>490.0</ele><time>2026-04-18T09:15:08Z</time></trkpt><trkpt lat="46.24432666963113" lon="13.22583774476008"><ele>490.00000000000006</ele><time>2026-04-18T09:15:09Z</time></trkpt><trkpt lat="46.244292040715926" lon="13.22575755755886"><ele>490.0</ele><time>2026-04-18T09:15:10Z</time></trkpt><trkpt lat="46.24425359956733" lon="13.225675783672298"><ele>490.0</ele><time>2026-04-18T09:15:11Z</time></trkpt><trkpt lat="46.244210692363325" lon="13.225599707894833"><ele>490.0</ele><time>2026-04-18T09:15:12Z</time></trkpt><trkpt lat="46.244143287157414" lon="13.225492288209617"><ele>490.00000000000006</ele><time>2026-04-18T09:15:14Z</time></trkpt><trkpt lat="46.24410347693526" lon="13.225387485060443"><ele>490.0</ele><time>2026-04-18T09:15:16Z</time></trkpt><trkpt lat="46.24414960588844" lon="13.225245508361505"><ele>486.83333333333337</ele><time>2026-04-18T09:15:18Z</time></trkpt><trkpt lat="46.244221884315664" lon="13.225191355810136"><ele>483.6666666666667</ele><time>2026-04-18T09:15:19Z</time></trkpt><trkpt lat="46.24430266893529" lon="13.225149264311305"><ele>480.5</ele><time>2026-04-18T09:15:20Z</time></trkpt><trkpt lat="46.24438278381269" lon="13.225097155861613"><ele>477.33333333333337</ele><time>2026-04-18T09:15:21Z</time></trkpt><trkpt lat="46.24445643131061" lon="13.22504185581773"><ele>474.1666666666667</ele><time>2026-04-18T09:15:22Z</time></trkpt><trkpt lat="46.24453255134891" lon="13.224994904619846"><ele>471.0</ele><time>2026-04-18T09:15:23Z</time></trkpt><trkpt lat="46.2446035128237" lon="13.224944844983854"><ele>471.0</ele><time>2026-04-18T09:15:24Z</time></trkpt><trkpt lat="46.2446670815917" lon="13.224875406675329"><ele>471.0</ele><time>2026-04-18T09:15:25Z</time></trkpt><trkpt lat="46.24471424393252" lon="13.224774406660682"><ele>471.0</ele><time>2026-04-18T09:15:26Z</time></trkpt><trkpt lat="46.24475691092127" lon="13.224652628380653"><ele>471.0</ele><time>2026-04-18T09:15:27Z</time></trkpt><trkpt lat="46.244807461921006" lon="13.224536327199539"><ele>471.0</ele><time>2026-04-18T09:15:28Z</time></trkpt><trkpt lat="46.244860085896285" lon="13.224432047585246"><ele>471.0</ele><time>2026-04-18T09:15:29Z</time></trkpt><trkpt lat="46.24490217544971" lon="13.224324779877477"><ele>471.6666666666667</ele><time>2026-04-18T09:15:30Z</time></trkpt><trkpt lat="46.244934754046355" lon="13.22421243959159"><ele>472.33333333333337</ele><time>2026-04-18T09:15:31Z</time></trkpt><trkpt lat="46.24497010808863" lon="13.22410351588967"><ele>473.0</ele><time>2026-04-18T09:15:32Z</time></trkpt><trkpt lat="46.245000812662866" lon="13.22400698722983"><ele>473.6666666666667</ele><time>2026-04-18T09:15:33Z</time></trkpt><trkpt lat="46.24506336826857" lon="13.22386609865242"><ele>474.33333333333337</ele><time>2026-04-18T09:15:35Z</time></trkpt><trkpt lat="46.24505656059075" lon="13.223738135465055"><ele>475.0</ele><time>2026-04-18T09:15:37Z</time></trkpt><trkpt lat="46.244946536777825" lon="13.223704746856333"><ele>475.00000000000006</ele><time>2026-04-18T09:15:39Z</time></trkpt><trkpt lat="46.24490508107387" lon="13.22384662463334"><ele>475.0</ele><time>2026-04-18T09:15:40Z</time></trkpt><trkpt lat="46.24486521887871" lon="13.223959133251334"><ele>475.0</ele><time>2026-04-18T09:15:41Z</time></trkpt><trkpt lat="46.24482257804692" lon="13.224060820348788"><ele>475.0</ele><time>2026-04-18T09:15:42Z</time></trkpt><trkpt lat="46.244769594599745" lon="13.224157943345405"><ele>475.00000000000006</ele><time>2026-04-18T09:15:43Z</time></trkpt><trkpt lat="46.244713526753614" lon="13.224247889860719"><ele>475.0</ele><time>2026-04-18T09:15:44Z</time></trkpt><trkpt lat="46.24465542933479" lon="13.224333673659988"><ele>470.1666666666667</ele><time>2026-04-18T09:15:45Z</time></trkpt><trkpt lat="46.24459222535009" lon="13.224410443238874"><ele>465.33333333333337</ele><time>2026-04-18T09:15:46Z</time></trkpt><trkpt lat="46.244528677479806" lon="13.224499526839132"><ele>460.5</ele><time>2026-04-18T09:15:46.999Z</time></trkpt><trkpt lat="46.24447516976655" lon="13.224580215954635"><ele>455.66666666666663</ele><time>2026-04-18T09:15:47.999Z</time></trkpt><trkpt lat="46.24440345805236" lon="13.224621459698472"><ele>450.8333333333333</ele><time>2026-04-18T09:15:48.999Z</time></trkpt><trkpt lat="46.24433395137496" lon="13.224632892076984"><ele>446.0</ele><time>2026-04-18T09:15:49.999Z</time></trkpt><trkpt lat="46.244258517018835" lon="13.224650123664961"><ele>446.0</ele><time>2026-04-18T09:15:50.999Z</time></trkpt><trkpt lat="46.244185861222206" lon="13.224668051700604"><ele>446.0</ele><time>2026-04-18T09:15:51.999Z</time></trkpt><trkpt lat="46.244113877689465" lon="13.224678794254764"><ele>446.0</ele><time>2026-04-18T09:15:52.999Z</time></trkpt><trkpt lat="46.24404315106888" lon="13.224673352616545"><ele>446.0</ele><time>2026-04-18T09:15:53.999Z</time></trkpt><trkpt lat="46.24397401096698" lon="13.224649961849149"><ele>446.0</ele><time>2026-04-18T09:15:54.999Z</time></trkpt><trkpt lat="46.243900762213194" lon="13.224638936016845"><ele>446.0</ele><time>2026-04-18T09:15:55.999Z</time></trkpt><trkpt lat="46.2438380745406" lon="13.224595529055694"><ele>446.0</ele><time>2026-04-18T09:15:56.999Z</time></trkpt><trkpt lat="46.24377923997996" lon="13.224540494477557"><ele>445.20000000000005</ele><time>2026-04-18T09:15:57.999Z</time></trkpt><trkpt lat="46.24373113021491" lon="13.224457262667798"><ele>444.40000000000003</ele><time>2026-04-18T09:15:58.999Z</time></trkpt><trkpt lat="46.24368503368513" lon="13.224387312357146"><ele>443.6</ele><time>2026-04-18T09:15:59.999Z</time></trkpt><trkpt lat="46.24356144690605" lon="13.224333240138549"><ele>442.8</ele><time>2026-04-18T09:16:01.999Z</time></trkpt><trkpt lat="46.243481391101426" lon="13.224339972773441"><ele>442.0</ele><time>2026-04-18T09:16:02.999Z</time></trkpt><trkpt lat="46.24337292675549" lon="13.224307754618957"><ele>442.00000000000006</ele><time>2026-04-18T09:16:04.999Z</time></trkpt><trkpt lat="46.243309407080616" lon="13.224283772330251"><ele>442.0</ele><time>2026-04-18T09:16:05.999Z</time></trkpt><trkpt lat="46.243246448363706" lon="13.224267534957798"><ele>442.0</ele><time>2026-04-18T09:16:06.999Z</time></trkpt><trkpt lat="46.24318668772857" lon="13.224226367727157"><ele>442.0</ele><time>2026-04-18T09:16:07.999Z</time></trkpt><trkpt lat="46.24311441435532" lon="13.22418573788034"><ele>442.0</ele><time>2026-04-18T09:16:08.999Z</time></trkpt><trkpt lat="46.24304321161055" lon="13.224139797491668"><ele>442.00000000000006</ele><time>2026-04-18T09:16:09.999Z</time></trkpt><trkpt lat="46.24298660219239" lon="13.224075769806408"><ele>442.0</ele><time>2026-04-18T09:16:10.999Z</time></trkpt><trkpt lat="46.242914368470586" lon="13.224036789542536"><ele>438.6666666666667</ele><time>2026-04-18T09:16:11.999Z</time></trkpt><trkpt lat="46.24285013976962" lon="13.223970767330439"><ele>435.33333333333337</ele><time>2026-04-18T09:16:12.999Z</time></trkpt><trkpt lat="46.24279576665328" lon="13.223909321352867"><ele>432.0</ele><time>2026-04-18T09:16:13.999Z</time></trkpt><trkpt lat="46.24272923743268" lon="13.223864514650689"><ele>428.66666666666663</ele><time>2026-04-18T09:16:14.999Z</time></trkpt><trkpt lat="46.24265483680815" lon="13.223816119776314"><ele>425.3333333333333</ele><time>2026-04-18T09:16:15.999Z</time></trkpt><trkpt lat="46.24256141153961" lon="13.223822326039894"><ele>422.0</ele><time>2026-04-18T09:16:16.999Z</time></trkpt><trkpt lat="46.2424770558045" lon="13.223800452066552"><ele>421.99999999999994</ele><time>2026-04-18T09:16:17.999Z</time></trkpt><trkpt lat="46.24240270925501" lon="13.223770359134429"><ele>422.0</ele><time>2026-04-18T09:16:18.999Z</time></trkpt><trkpt lat="46.24233452981584" lon="13.223724007332072"><ele>422.0</ele><time>2026-04-18T09:16:19.999Z</time></trkpt><trkpt lat="46.24228182372526" lon="13.223642382539792"><ele>422.0</ele><time>2026-04-18T09:16:20.999Z</time></trkpt><trkpt lat="46.242245152033895" lon="13.22354028506886"><ele>421.99999999999994</ele><time>2026-04-18T09:16:21.999Z</time></trkpt><trkpt lat="46.242225496144094" lon="13.223424734025455"><ele>422.0</ele><time>2026-04-18T09:16:22.999Z</time></trkpt><trkpt lat="46.24221477962765" lon="13.223308056210694"><ele>422.66666666666663</ele><time>2026-04-18T09:16:23.999Z</time></trkpt><trkpt lat="46.24220064456876" lon="13.22321420405237"><ele>423.3333333333333</ele><time>2026-04-18T09:16:24.999Z</time></trkpt><trkpt lat="46.24210492665331" lon="13.2231077984082"><ele>424.0</ele><time>2026-04-18T09:16:26.999Z</time></trkpt><trkpt lat="46.24202886095458" lon="13.223113217462359"><ele>424.66666666666663</ele><time>2026-04-18T09:16:27.999Z</time></trkpt><trkpt lat="46.24194422220922" lon="13.223158214134124"><ele>425.3333333333333</ele><time>2026-04-18T09:16:28.999Z</time></trkpt><trkpt lat="46.24185939589645" lon="13.223187635125043"><ele>426.0</ele><time>2026-04-18T09:16:29.999Z</time></trkpt><trkpt lat="46.241779580389135" lon="13.223168039698885"><ele>421.4</ele><time>2026-04-18T09:16:30.999Z</time></trkpt><trkpt lat="46.2417168792575" lon="13.223089940695928"><ele>416.8</ele><time>2026-04-18T09:16:31.999Z</time></trkpt><trkpt lat="46.24167670985396" lon="13.222996770058025"><ele>412.2</ele><time>2026-04-18T09:16:32.999Z</time></trkpt><trkpt lat="46.24160072971421" lon="13.222875840302168"><ele>407.59999999999997</ele><time>2026-04-18T09:16:34.999Z</time></trkpt><trkpt lat="46.241474286423475" lon="13.222893555599976"><ele>403.0</ele><time>2026-04-18T09:16:36.999Z</time></trkpt><trkpt lat="46.24140743243646" lon="13.222898724503588"><ele>402.83333333333337</ele><time>2026-04-18T09:16:37.999Z</time></trkpt><trkpt lat="46.241341519485616" lon="13.22291863689762"><ele>402.6666666666667</ele><time>2026-04-18T09:16:38.999Z</time></trkpt><trkpt lat="46.24127096510995" lon="13.222934865679107"><ele>402.5</ele><time>2026-04-18T09:16:39.999Z</time></trkpt><trkpt lat="46.2412085213264" lon="13.2229086371993"><ele>402.33333333333337</ele><time>2026-04-18T09:16:40.999Z</time></trkpt><trkpt lat="46.24114158300227" lon="13.222874295029063"><ele>402.1666666666667</ele><time>2026-04-18T09:16:41.999Z</time></trkpt><trkpt lat="46.24107957497705" lon="13.222829950425782"><ele>402.0</ele><time>2026-04-18T09:16:42.999Z</time></trkpt><trkpt lat="46.24097985304867" lon="13.2227696250179"><ele>402.0</ele><time>2026-04-18T09:16:44.999Z</time></trkpt><trkpt lat="46.24089642081462" lon="13.222766336071395"><ele>402.0</ele><time>2026-04-18T09:16:46.999Z</time></trkpt><trkpt lat="46.24085772670702" lon="13.22293409566668"><ele>402.0</ele><time>2026-04-18T09:16:48.999Z</time></trkpt><trkpt lat="46.24085355763468" lon="13.22304560868436"><ele>402.0</ele><time>2026-04-18T09:16:49.999Z</time></trkpt><trkpt lat="46.24087114350117" lon="13.223143540573695"><ele>402.0</ele><time>2026-04-18T09:16:50.999Z</time></trkpt><trkpt lat="46.24089068252864" lon="13.223245783725293"><ele>402.0</ele><time>2026-04-18T09:16:51.999Z</time></trkpt><trkpt lat="46.24091044248043" lon="13.223351771673261"><ele>402.1428571428571</ele><time>2026-04-18T09:16:52.999Z</time></trkpt><trkpt lat="46.24092799851855" lon="13.223454930809153"><ele>402.28571428571433</ele><time>2026-04-18T09:16:53.999Z</time></trkpt><trkpt lat="46.240938086219764" lon="13.223549217662644"><ele>402.42857142857144</ele><time>2026-04-18T09:16:54.999Z</time></trkpt><trkpt lat="46.240921858513154" lon="13.223637968999554"><ele>402.57142857142856</ele><time>2026-04-18T09:16:55.999Z</time></trkpt><trkpt lat="46.240899670625566" lon="13.223742603053225"><ele>402.71428571428567</ele><time>2026-04-18T09:16:57Z</time></trkpt><trkpt lat="46.240877740702196" lon="13.223849737767956"><ele>402.8571428571429</ele><time>2026-04-18T09:16:58Z</time></trkpt><trkpt lat="46.24085649320841" lon="13.223953538914376"><ele>403.0</ele><time>2026-04-18T09:16:59Z</time></trkpt><trkpt lat="46.24083433233862" lon="13.224050330304596"><ele>403.0</ele><time>2026-04-18T09:17:00Z</time></trkpt><trkpt lat="46.24081048634947" lon="13.224137004986959"><ele>403.0</ele><time>2026-04-18T09:17:01Z</time></trkpt><trkpt lat="46.240751256107814" lon="13.224276072781922"><ele>403.0</ele><time>2026-04-18T09:17:03Z</time></trkpt><trkpt lat="46.240687972822755" lon="13.224390319361921"><ele>403.0</ele><time>2026-04-18T09:17:05Z</time></trkpt><trkpt lat="46.240580043620355" lon="13.224457018337237"><ele>403.0</ele><time>2026-04-18T09:17:07Z</time></trkpt><trkpt lat="46.24052592483532" lon="13.224573424716713"><ele>398.59999999999997</ele><time>2026-04-18T09:17:09Z</time></trkpt><trkpt lat="46.24043997064073" lon="13.224657623647776"><ele>394.2</ele><time>2026-04-18T09:17:11Z</time></trkpt><trkpt lat="46.24032605936929" lon="13.224649044718157"><ele>389.8</ele><time>2026-04-18T09:17:13Z</time></trkpt><trkpt lat="46.24023789203259" lon="13.224569431298129"><ele>385.4</ele><time>2026-04-18T09:17:15Z</time></trkpt><trkpt lat="46.240173993129396" lon="13.224591757887504"><ele>381.0</ele><time>2026-04-18T09:17:16Z</time></trkpt><trkpt lat="46.24009015687367" lon="13.224608882010054"><ele>381.0</ele><time>2026-04-18T09:17:17Z</time></trkpt><trkpt lat="46.240009345237404" lon="13.224644447814768"><ele>381.0</ele><time>2026-04-18T09:17:18Z</time></trkpt><trkpt lat="46.2399319314643" lon="13.224677007233858"><ele>381.0</ele><time>2026-04-18T09:17:19Z</time></trkpt><trkpt lat="46.23986176794923" lon="13.224712973532263"><ele>381.0</ele><time>2026-04-18T09:17:20Z</time></trkpt><trkpt lat="46.239794752457136" lon="13.22474919145921"><ele>381.0</ele><time>2026-04-18T09:17:21Z</time></trkpt><trkpt lat="46.23973090523075" lon="13.224774252596577"><ele>381.0</ele><time>2026-04-18T09:17:22Z</time></trkpt><trkpt lat="46.239666117285054" lon="13.22478099998193"><ele>381.0</ele><time>2026-04-18T09:17:23Z</time></trkpt><trkpt lat="46.239600064419584" lon="13.224763385351489"><ele>379.1666666666667</ele><time>2026-04-18T09:17:24Z</time></trkpt><trkpt lat="46.23948610875488" lon="13.22468491757032"><ele>377.3333333333333</ele><time>2026-04-18T09:17:26Z</time></trkpt><trkpt lat="46.23941977631329" lon="13.224651042946919"><ele>375.5</ele><time>2026-04-18T09:17:27Z</time></trkpt><trkpt lat="46.239347309285066" lon="13.22462233316694"><ele>373.66666666666663</ele><time>2026-04-18T09:17:28Z</time></trkpt><trkpt lat="46.23926721554085" lon="13.224621801354782"><ele>371.8333333333333</ele><time>2026-04-18T09:17:29Z</time></trkpt><trkpt lat="46.239179986568004" lon="13.22462693885704"><ele>370.0</ele><time>2026-04-18T09:17:30Z</time></trkpt><trkpt lat="46.23908653539323" lon="13.224626917584098"><ele>370.0</ele><time>2026-04-18T09:17:31Z</time></trkpt><trkpt lat="46.23898871605336" lon="13.22462897620691"><ele>370.0</ele><time>2026-04-18T09:17:32Z</time></trkpt><trkpt lat="46.238886252619736" lon="13.224639783335288"><ele>370.0</ele><time>2026-04-18T09:17:33Z</time></trkpt><trkpt lat="46.23879467177623" lon="13.224650720230299"><ele>370.0</ele><time>2026-04-18T09:17:33.999Z</time></trkpt><trkpt lat="46.238722956836575" lon="13.224665425422335"><ele>370.0</ele><time>2026-04-18T09:17:34.999Z</time></trkpt><trkpt lat="46.23865422354526" lon="13.224666717484975"><ele>370.0</ele><time>2026-04-18T09:17:35.999Z</time></trkpt><trkpt lat="46.238544377685216" lon="13.224727752134298"><ele>369.3333333333333</ele><time>2026-04-18T09:17:37.999Z</time></trkpt><trkpt lat="46.23850269244278" lon="13.224875928972642"><ele>368.66666666666663</ele><time>2026-04-18T09:17:39.999Z</time></trkpt><trkpt lat="46.23849901377445" lon="13.224979965555171"><ele>368.0</ele><time>2026-04-18T09:17:40.999Z</time></trkpt><trkpt lat="46.23850826789349" lon="13.225087262101184"><ele>367.3333333333333</ele><time>2026-04-18T09:17:41.999Z</time></trkpt><trkpt lat="46.238507432391785" lon="13.225181277111355"><ele>366.6666666666667</ele><time>2026-04-18T09:17:42.999Z</time></trkpt><trkpt lat="46.23848840797968" lon="13.225274057341757"><ele>366.0</ele><time>2026-04-18T09:17:43.999Z</time></trkpt><trkpt lat="46.23846720628496" lon="13.225373886825238"><ele>366.0</ele><time>2026-04-18T09:17:44.999Z</time></trkpt><trkpt lat="46.23840628936754" lon="13.225440442104045"><ele>366.0</ele><time>2026-04-18T09:17:45.999Z</time></trkpt><trkpt lat="46.23833712589285" lon="13.225461098347989"><ele>366.0</ele><time>2026-04-18T09:17:46.999Z</time></trkpt><trkpt lat="46.23827227167981" lon="13.225488003346284"><ele>366.0</ele><time>2026-04-18T09:17:47.999Z</time></trkpt><trkpt lat="46.238207705582404" lon="13.225515216437845"><ele>366.0</ele><time>2026-04-18T09:17:48.999Z</time></trkpt><trkpt lat="46.23809420409767" lon="13.225563185049875"><ele>366.0</ele><time>2026-04-18T09:17:50.999Z</time></trkpt><trkpt lat="46.23801323065061" lon="13.225578251520533"><ele>366.0</ele><time>2026-04-18T09:17:52.999Z</time></trkpt><trkpt lat="46.23795684173783" lon="13.225502366496459"><ele>366.0</ele><time>2026-04-18T09:17:54.999Z</time></trkpt><trkpt lat="46.23801982041899" lon="13.225392166730252"><ele>366.0</ele><time>2026-04-18T09:17:56.999Z</time></trkpt><trkpt lat="46.23812000893666" lon="13.225398699645623"><ele>366.0</ele><time>2026-04-18T09:17:58.999Z</time></trkpt><trkpt lat="46.238218670856014" lon="13.225395670624128"><ele>366.0</ele><time>2026-04-18T09:18:00.999Z</time></trkpt><trkpt lat="46.23832506244404" lon="13.225347115509374"><ele>366.0</ele><time>2026-04-18T09:18:02.999Z</time></trkpt><trkpt lat="46.238359985705" lon="13.225260674322326"><ele>366.0</ele><time>2026-04-18T09:18:03.999Z</time></trkpt><trkpt lat="46.23837151885053" lon="13.225169925120905"><ele>366.0</ele><time>2026-04-18T09:18:04.999Z</time></trkpt><trkpt lat="46.238341668693856" lon="13.225082704112108"><ele>366.0</ele><time>2026-04-18T09:18:05.999Z</time></trkpt><trkpt lat="46.23824844893799" lon="13.224943865278224"><ele>366.0</ele><time>2026-04-18T09:18:07.999Z</time></trkpt><trkpt lat="46.238186038147454" lon="13.2248867636925"><ele>366.0</ele><time>2026-04-18T09:18:08.999Z</time></trkpt><trkpt lat="46.23811808164655" lon="13.224836112993437"><ele>362.5</ele><time>2026-04-18T09:18:09.999Z</time></trkpt><trkpt lat="46.238045106849285" lon="13.224779127034916"><ele>359.0</ele><time>2026-04-18T09:18:10.999Z</time></trkpt><trkpt lat="46.2379694071204" lon="13.224716130281521"><ele>355.5</ele><time>2026-04-18T09:18:11.999Z</time></trkpt><trkpt lat="46.23789376060231" lon="13.224649152782417"><ele>352.0</ele><time>2026-04-18T09:18:12.999Z</time></trkpt><trkpt lat="46.2378247617418" lon="13.2245816321572"><ele>348.5</ele><time>2026-04-18T09:18:13.999Z</time></trkpt><trkpt lat="46.237756616445466" lon="13.224509975210077"><ele>345.0</ele><time>2026-04-18T09:18:14.999Z</time></trkpt><trkpt lat="46.237688857635085" lon="13.224429497315036"><ele>345.0</ele><time>2026-04-18T09:18:15.999Z</time></trkpt><trkpt lat="46.237620430951985" lon="13.224349454673492"><ele>345.0</ele><time>2026-04-18T09:18:16.999Z</time></trkpt><trkpt lat="46.237537827552934" lon="13.224287193060732"><ele>345.0</ele><time>2026-04-18T09:18:17.999Z</time></trkpt><trkpt lat="46.23744698682955" lon="13.224242141601458"><ele>345.0</ele><time>2026-04-18T09:18:18.999Z</time></trkpt><trkpt lat="46.23734857984909" lon="13.22420333199834"><ele>345.0</ele><time>2026-04-18T09:18:19.999Z</time></trkpt><trkpt lat="46.23725067716785" lon="13.224165334998817"><ele>345.3333333333333</ele><time>2026-04-18T09:18:20.999Z</time></trkpt><trkpt lat="46.237163699574516" lon="13.22411190951586"><ele>345.6666666666667</ele><time>2026-04-18T09:18:21.999Z</time></trkpt><trkpt lat="46.23708557002308" lon="13.224035891399064"><ele>346.0</ele><time>2026-04-18T09:18:22.999Z</time></trkpt><trkpt lat="46.23702600867978" lon="13.223932538986858"><ele>346.33333333333337</ele><time>2026-04-18T09:18:23.999Z</time></trkpt><trkpt lat="46.23699386975646" lon="13.223824804672896"><ele>346.6666666666667</ele><time>2026-04-18T09:18:24.999Z</time></trkpt><trkpt lat="46.23694908696288" lon="13.223740320993365"><ele>347.0</ele><time>2026-04-18T09:18:25.999Z</time></trkpt><trkpt lat="46.23687508530098" lon="13.223683007815612"><ele>347.6</ele><time>2026-04-18T09:18:26.999Z</time></trkpt><trkpt lat="46.236797057137615" lon="13.22363349740814"><ele>348.20000000000005</ele><time>2026-04-18T09:18:27.999Z</time></trkpt><trkpt lat="46.23671505260203" lon="13.223587011353963"><ele>348.8</ele><time>2026-04-18T09:18:28.999Z</time></trkpt><trkpt lat="46.236630585057" lon="13.22352134569714"><ele>349.4</ele><time>2026-04-18T09:18:29.999Z</time></trkpt><trkpt lat="46.23654761054776" lon="13.223453260059786"><ele>350.0</ele><time>2026-04-18T09:18:30.999Z</time></trkpt><trkpt lat="46.236465993468734" lon="13.223390558759192"><ele>350.33333333333337</ele><time>2026-04-18T09:18:31.999Z</time></trkpt><trkpt lat="46.236389560663305" lon="13.223332138381727"><ele>350.6666666666667</ele><time>2026-04-18T09:18:32.999Z</time></trkpt><trkpt lat="46.23632428915209" lon="13.223267637520633"><ele>351.0</ele><time>2026-04-18T09:18:33.999Z</time></trkpt><trkpt lat="46.23626798821123" lon="13.223187298049002"><ele>351.3333333333333</ele><time>2026-04-18T09:18:34.999Z</time></trkpt><trkpt lat="46.23623739332685" lon="13.223070632896988"><ele>351.66666666666663</ele><time>2026-04-18T09:18:35.999Z</time></trkpt><trkpt lat="46.23624233305177" lon="13.222950459494777"><ele>352.0</ele><time>2026-04-18T09:18:36.999Z</time></trkpt><trkpt lat="46.23625585483202" lon="13.222825334896665"><ele>352.0</ele><time>2026-04-18T09:18:37.999Z</time></trkpt><trkpt lat="46.236282394131266" lon="13.222699831846827"><ele>352.0</ele><time>2026-04-18T09:18:38.999Z</time></trkpt><trkpt lat="46.23628914840235" lon="13.222586177577643"><ele>352.0</ele><time>2026-04-18T09:18:39.999Z</time></trkpt><trkpt lat="46.23626941162443" lon="13.222475796563645"><ele>352.0</ele><time>2026-04-18T09:18:40.999Z</time></trkpt><trkpt lat="46.236221633166416" lon="13.222385358557714"><ele>352.0</ele><time>2026-04-18T09:18:41.999Z</time></trkpt><trkpt lat="46.236161289538764" lon="13.222294645828953"><ele>352.0</ele><time>2026-04-18T09:18:42.999Z</time></trkpt><trkpt lat="46.23610310249383" lon="13.222201805118212"><ele>347.16666666666663</ele><time>2026-04-18T09:18:43.999Z</time></trkpt><trkpt lat="46.23604668604345" lon="13.222125381428473"><ele>342.3333333333333</ele><time>2026-04-18T09:18:44.999Z</time></trkpt><trkpt lat="46.23598834899711" lon="13.222069205174467"><ele>337.5</ele><time>2026-04-18T09:18:45.999Z</time></trkpt><trkpt lat="46.23591856457748" lon="13.222050922416171"><ele>332.6666666666667</ele><time>2026-04-18T09:18:46.999Z</time></trkpt><trkpt lat="46.235841941570136" lon="13.22206560583093"><ele>327.83333333333337</ele><time>2026-04-18T09:18:47.999Z</time></trkpt><trkpt lat="46.23575711707606" lon="13.222064887167447"><ele>323.0</ele><time>2026-04-18T09:18:48.999Z</time></trkpt><trkpt lat="46.23568647467874" lon="13.22202097998472"><ele>324.0</ele><time>2026-04-18T09:18:49.999Z</time></trkpt><trkpt lat="46.23563257416627" lon="13.221945240064048"><ele>325.0</ele><time>2026-04-18T09:18:50.999Z</time></trkpt><trkpt lat="46.235590284291064" lon="13.22185695176905"><ele>326.0</ele><time>2026-04-18T09:18:51.999Z</time></trkpt><trkpt lat="46.23554629261064" lon="13.221748491484716"><ele>327.0</ele><time>2026-04-18T09:18:52.999Z</time></trkpt><trkpt lat="46.23550278413346" lon="13.221632694501363"><ele>328.0</ele><time>2026-04-18T09:18:53.999Z</time></trkpt><trkpt lat="46.23547463557689" lon="13.221507828197437"><ele>329.0</ele><time>2026-04-18T09:18:54.999Z</time></trkpt><trkpt lat="46.23546181282325" lon="13.22137808420841"><ele>329.0</ele><time>2026-04-18T09:18:55.999Z</time></trkpt><trkpt lat="46.23545653193077" lon="13.221250478174666"><ele>329.0</ele><time>2026-04-18T09:18:56.999Z</time></trkpt><trkpt lat="46.23545903795079" lon="13.22112144414328"><ele>329.0</ele><time>2026-04-18T09:18:57.999Z</time></trkpt><trkpt lat="46.23545528763924" lon="13.220994294651984"><ele>329.0</ele><time>2026-04-18T09:18:58.999Z</time></trkpt><trkpt lat="46.23544277794016" lon="13.220871452179999"><ele>329.0</ele><time>2026-04-18T09:18:59.999Z</time></trkpt><trkpt lat="46.23541908664668" lon="13.22075573668426"><ele>329.0</ele><time>2026-04-18T09:19:00.999Z</time></trkpt><trkpt lat="46.23537865919637" lon="13.220654109512653"><ele>324.2</ele><time>2026-04-18T09:19:01.999Z</time></trkpt><trkpt lat="46.23531720365999" lon="13.220554988747434"><ele>319.4</ele><time>2026-04-18T09:19:03Z</time></trkpt><trkpt lat="46.23523987562137" lon="13.22046780042267"><ele>314.6</ele><time>2026-04-18T09:19:04Z</time></trkpt><trkpt lat="46.23516360855698" lon="13.220367622992596"><ele>309.8</ele><time>2026-04-18T09:19:05Z</time></trkpt><trkpt lat="46.23509328394805" lon="13.220270661679628"><ele>305.0</ele><time>2026-04-18T09:19:06Z</time></trkpt><trkpt lat="46.23501263714865" lon="13.220197877883907"><ele>305.0</ele><time>2026-04-18T09:19:07Z</time></trkpt><trkpt lat="46.234918996504334" lon="13.220142118932934"><ele>305.0</ele><time>2026-04-18T09:19:08Z</time></trkpt><trkpt lat="46.23482546200317" lon="13.22009365978288"><ele>305.0</ele><time>2026-04-18T09:19:09Z</time></trkpt><trkpt lat="46.234729224705" lon="13.220055119417214"><ele>305.0</ele><time>2026-04-18T09:19:10Z</time></trkpt><trkpt lat="46.23463227820774" lon="13.220043983711166"><ele>305.0</ele><time>2026-04-18T09:19:11Z</time></trkpt><trkpt lat="46.2345344750912" lon="13.220056171683046"><ele>303.8</ele><time>2026-04-18T09:19:12Z</time></trkpt><trkpt lat="46.234427732685944" lon="13.220066493531094"><ele>302.6</ele><time>2026-04-18T09:19:13Z</time></trkpt><trkpt lat="46.234318941431994" lon="13.22006549826336"><ele>301.4</ele><time>2026-04-18T09:19:14Z</time></trkpt><trkpt lat="46.23421891516143" lon="13.220045784856133"><ele>300.2</ele><time>2026-04-18T09:19:15Z</time></trkpt><trkpt lat="46.23411944145391" lon="13.22000034268033"><ele>299.0</ele><time>2026-04-18T09:19:16Z</time></trkpt><trkpt lat="46.234027124805785" lon="13.219936804521838"><ele>296.2</ele><time>2026-04-18T09:19:17Z</time></trkpt><trkpt lat="46.233932553150375" lon="13.219882998297923"><ele>293.4</ele><time>2026-04-18T09:19:18Z</time></trkpt><trkpt lat="46.23383540941195" lon="13.219844592966794"><ele>290.6</ele><time>2026-04-18T09:19:19Z</time></trkpt><trkpt lat="46.23373998948082" lon="13.2198032213147"><ele>287.8</ele><time>2026-04-18T09:19:20Z</time></trkpt><trkpt lat="46.23364876275582" lon="13.219762590175593"><ele>285.0</ele><time>2026-04-18T09:19:21Z</time></trkpt><trkpt lat="46.23355776714767" lon="13.219728722222806"><ele>282.6</ele><time>2026-04-18T09:19:22Z</time></trkpt><trkpt lat="46.23347013316062" lon="13.219708445544303"><ele>280.2</ele><time>2026-04-18T09:19:23Z</time></trkpt><trkpt lat="46.233380036753836" lon="13.21971394375122"><ele>277.8</ele><time>2026-04-18T09:19:24Z</time></trkpt><trkpt lat="46.23328197401583" lon="13.219740027039036"><ele>275.4</ele><time>2026-04-18T09:19:25Z</time></trkpt><trkpt lat="46.233183676355054" lon="13.219777951567158"><ele>273.0</ele><time>2026-04-18T09:19:26Z</time></trkpt><trkpt lat="46.23309002559638" lon="13.219825956090348"><ele>273.0</ele><time>2026-04-18T09:19:27Z</time></trkpt><trkpt lat="46.23300205678294" lon="13.219870425949498"><ele>273.0</ele><time>2026-04-18T09:19:28Z</time></trkpt><trkpt lat="46.232912533695895" lon="13.21990862568189"><ele>273.0</ele><time>2026-04-18T09:19:29Z</time></trkpt><trkpt lat="46.23283678379616" lon="13.219948343369643"><ele>273.0</ele><time>2026-04-18T09:19:30Z</time></trkpt><trkpt lat="46.2327770667295" lon="13.219981968864122"><ele>273.0</ele><time>2026-04-18T09:19:31Z</time></trkpt><trkpt lat="46.232684692122994" lon="13.219996440621165"><ele>273.0</ele><time>2026-04-18T09:19:33Z</time></trkpt><trkpt lat="46.232647344253415" lon="13.219891609457134"><ele>270.3333333333333</ele><time>2026-04-18T09:19:35Z</time></trkpt><trkpt lat="46.23274820884877" lon="13.219808977521868"><ele>267.6666666666667</ele><time>2026-04-18T09:19:37Z</time></trkpt><trkpt lat="46.23280878855087" lon="13.219740765731595"><ele>265.0</ele><time>2026-04-18T09:19:38Z</time></trkpt><trkpt lat="46.23288127602702" lon="13.219692286286056"><ele>262.33333333333337</ele><time>2026-04-18T09:19:39Z</time></trkpt><trkpt lat="46.23295447806429" lon="13.219643681621228"><ele>259.6666666666667</ele><time>2026-04-18T09:19:40Z</time></trkpt><trkpt lat="46.23302533383611" lon="13.219595862990216"><ele>257.0</ele><time>2026-04-18T09:19:41Z</time></trkpt><trkpt lat="46.23309120259783" lon="13.219546664168853"><ele>257.0</ele><time>2026-04-18T09:19:41.999Z</time></trkpt><trkpt lat="46.23314728968535" lon="13.219489730739342"><ele>257.0</ele><time>2026-04-18T09:19:42.999Z</time></trkpt><trkpt lat="46.23317975478506" lon="13.219399384779548"><ele>257.0</ele><time>2026-04-18T09:19:43.999Z</time></trkpt><trkpt lat="46.23318631069236" lon="13.219293009897637"><ele>257.0</ele><time>2026-04-18T09:19:44.999Z</time></trkpt><trkpt lat="46.233163827868836" lon="13.219193815647253"><ele>257.0</ele><time>2026-04-18T09:19:45.999Z</time></trkpt><trkpt lat="46.233119548063286" lon="13.219118589963045"><ele>257.0</ele><time>2026-04-18T09:19:46.999Z</time></trkpt><trkpt lat="46.233056468710465" lon="13.21908563423937"><ele>257.0</ele><time>2026-04-18T09:19:47.999Z</time></trkpt><trkpt lat="46.232990614703034" lon="13.219072412176109"><ele>257.0</ele><time>2026-04-18T09:19:48.999Z</time></trkpt><trkpt lat="46.23287557254921" lon="13.218998129080815"><ele>257.0</ele><time>2026-04-18T09:19:50.999Z</time></trkpt><trkpt lat="46.23275472821282" lon="13.219016426600096"><ele>257.0</ele><time>2026-04-18T09:19:52.999Z</time></trkpt><trkpt lat="46.23268457304445" lon="13.21900232516451"><ele>257.0</ele><time>2026-04-18T09:19:54.999Z</time></trkpt><trkpt lat="46.23262081489003" lon="13.218979661325056"><ele>257.0</ele><time>2026-04-18T09:19:57.999Z</time></trkpt><trkpt lat="46.23255166253039" lon="13.218966811715884"><ele>257.0</ele><time>2026-04-18T09:20:00.999Z</time></trkpt><trkpt lat="46.23243335859422" lon="13.218989492418288"><ele>257.0</ele><time>2026-04-18T09:20:02.999Z</time></trkpt><trkpt lat="46.23236477364979" lon="13.219038202441698"><ele>257.0</ele><time>2026-04-18T09:20:03.999Z</time></trkpt><trkpt lat="46.232291568332165" lon="13.219087689815819"><ele>257.0</ele><time>2026-04-18T09:20:04.999Z</time></trkpt><trkpt lat="46.232222057611025" lon="13.219136572155334"><ele>257.0</ele><time>2026-04-18T09:20:05.999Z</time></trkpt><trkpt lat="46.23215849288365" lon="13.2191892380028"><ele>257.0</ele><time>2026-04-18T09:20:06.999Z</time></trkpt><trkpt lat="46.23210343357771" lon="13.219240809638464"><ele>255.83333333333334</ele><time>2026-04-18T09:20:07.999Z</time></trkpt><trkpt lat="46.232055098362956" lon="13.219312827610269"><ele>254.66666666666669</ele><time>2026-04-18T09:20:08.999Z</time></trkpt><trkpt lat="46.2320090991948" lon="13.219396613826609"><ele>253.5</ele><time>2026-04-18T09:20:09.999Z</time></trkpt><trkpt lat="46.23196501631662" lon="13.219484203577585"><ele>252.33333333333331</ele><time>2026-04-18T09:20:10.999Z</time></trkpt><trkpt lat="46.231914964326606" lon="13.219574105006219"><ele>251.16666666666666</ele><time>2026-04-18T09:20:11.999Z</time></trkpt><trkpt lat="46.23186461258836" lon="13.219676172600641"><ele>250.0</ele><time>2026-04-18T09:20:12.999Z</time></trkpt><trkpt lat="46.23179857007773" lon="13.219775498048493"><ele>251.2</ele><time>2026-04-18T09:20:13.999Z</time></trkpt><trkpt lat="46.2317420951291" lon="13.219883199359147"><ele>252.4</ele><time>2026-04-18T09:20:14.999Z</time></trkpt><trkpt lat="46.231677632101274" lon="13.219982391541853"><ele>253.60000000000002</ele><time>2026-04-18T09:20:15.999Z</time></trkpt><trkpt lat="46.231612585824244" lon="13.220085090427123"><ele>254.8</ele><time>2026-04-18T09:20:16.999Z</time></trkpt><trkpt lat="46.231550268228865" lon="13.220182921962246"><ele>256.0</ele><time>2026-04-18T09:20:17.999Z</time></trkpt><trkpt lat="46.23148124920186" lon="13.220277069773616"><ele>254.0</ele><time>2026-04-18T09:20:18.999Z</time></trkpt><trkpt lat="46.23141269849265" lon="13.220377648028752"><ele>252.00000000000003</ele><time>2026-04-18T09:20:19.999Z</time></trkpt><trkpt lat="46.23133773123041" lon="13.220484911580831"><ele>250.00000000000003</ele><time>2026-04-18T09:20:20.999Z</time></trkpt><trkpt lat="46.23125169072657" lon="13.220592927792934"><ele>248.0</ele><time>2026-04-18T09:20:21.999Z</time></trkpt><trkpt lat="46.231164453577684" lon="13.220722340758874"><ele>246.0</ele><time>2026-04-18T09:20:22.999Z</time></trkpt><trkpt lat="46.2310914835329" lon="13.220865737237743"><ele>246.0</ele><time>2026-04-18T09:20:23.999Z</time></trkpt><trkpt lat="46.23102276032583" lon="13.22100764782229"><ele>246.0</ele><time>2026-04-18T09:20:24.999Z</time></trkpt><trkpt lat="46.230945293002385" lon="13.221151124230538"><ele>246.0</ele><time>2026-04-18T09:20:25.999Z</time></trkpt><trkpt lat="46.230870238576706" lon="13.221301614504066"><ele>246.0</ele><time>2026-04-18T09:20:26.999Z</time></trkpt><trkpt lat="46.23080909001204" lon="13.2214206417478"><ele>247.0</ele><time>2026-04-18T09:20:27.999Z</time></trkpt><trkpt lat="46.2307581383177" lon="13.221526658720606"><ele>248.0</ele><time>2026-04-18T09:20:28.999Z</time></trkpt><trkpt lat="46.230720640236726" lon="13.221632922351365"><ele>249.0</ele><time>2026-04-18T09:20:29.999Z</time></trkpt><trkpt lat="46.230683744612136" lon="13.221741413366022"><ele>250.0</ele><time>2026-04-18T09:20:30.999Z</time></trkpt><trkpt lat="46.230663162171616" lon="13.221853777702346"><ele>251.0</ele><time>2026-04-18T09:20:31.999Z</time></trkpt><trkpt lat="46.23065445860677" lon="13.221958810820695"><ele>252.0</ele><time>2026-04-18T09:20:32.999Z</time></trkpt><trkpt lat="46.230669288749624" lon="13.2220679443228"><ele>252.0</ele><time>2026-04-18T09:20:33.999Z</time></trkpt><trkpt lat="46.23069455524045" lon="13.222181704705903"><ele>252.0</ele><time>2026-04-18T09:20:34.999Z</time></trkpt><trkpt lat="46.23071476665784" lon="13.222294508005993"><ele>252.0</ele><time>2026-04-18T09:20:35.999Z</time></trkpt><trkpt lat="46.23073940586285" lon="13.222403860151626"><ele>252.0</ele><time>2026-04-18T09:20:36.999Z</time></trkpt><trkpt lat="46.23076745887351" lon="13.222505175275385"><ele>252.0</ele><time>2026-04-18T09:20:37.999Z</time></trkpt><trkpt lat="46.230794277183314" lon="13.222602475004177"><ele>252.0</ele><time>2026-04-18T09:20:38.999Z</time></trkpt><trkpt lat="46.230821534255924" lon="13.22269524622693"><ele>251.6</ele><time>2026-04-18T09:20:39.999Z</time></trkpt><trkpt lat="46.230847425306486" lon="13.222863475361583"><ele>251.2</ele><time>2026-04-18T09:20:41.999Z</time></trkpt><trkpt lat="46.23084752729174" lon="13.222995226810069"><ele>250.8</ele><time>2026-04-18T09:20:43.999Z</time></trkpt><trkpt lat="46.23081437520985" lon="13.223151012359493"><ele>250.4</ele><time>2026-04-18T09:20:45.999Z</time></trkpt><trkpt lat="46.23078346899051" lon="13.223242623323655"><ele>250.0</ele><time>2026-04-18T09:20:46.999Z</time></trkpt><trkpt lat="46.23071852602348" lon="13.223319363844189"><ele>249.33333333333331</ele><time>2026-04-18T09:20:47.999Z</time></trkpt><trkpt lat="46.23068113196139" lon="13.22343301146765"><ele>248.66666666666666</ele><time>2026-04-18T09:20:48.999Z</time></trkpt><trkpt lat="46.23061204694706" lon="13.223526079171736"><ele>248.0</ele><time>2026-04-18T09:20:49.999Z</time></trkpt><trkpt lat="46.230564525100895" lon="13.223634903987541"><ele>247.33333333333331</ele><time>2026-04-18T09:20:50.999Z</time></trkpt><trkpt lat="46.23050408722546" lon="13.223709679365628"><ele>246.66666666666666</ele><time>2026-04-18T09:20:51.999Z</time></trkpt><trkpt lat="46.23044368175984" lon="13.223772055660383"><ele>246.0</ele><time>2026-04-18T09:20:52.999Z</time></trkpt><trkpt lat="46.23038203609156" lon="13.22382683298705"><ele>245.66666666666666</ele><time>2026-04-18T09:20:53.999Z</time></trkpt><trkpt lat="46.23031530364937" lon="13.2238934384623"><ele>245.33333333333331</ele><time>2026-04-18T09:20:54.999Z</time></trkpt><trkpt lat="46.23024286955542" lon="13.22395926202436"><ele>245.0</ele><time>2026-04-18T09:20:55.999Z</time></trkpt><trkpt lat="46.23016215812078" lon="13.224019230724544"><ele>244.66666666666666</ele><time>2026-04-18T09:20:56.999Z</time></trkpt><trkpt lat="46.230083121168015" lon="13.224058109004044"><ele>244.33333333333331</ele><time>2026-04-18T09:20:57.999Z</time></trkpt><trkpt lat="46.23000628926389" lon="13.224071251286313"><ele>244.0</ele><time>2026-04-18T09:20:58.999Z</time></trkpt><trkpt lat="46.22992631130394" lon="13.224049992506574"><ele>242.79999999999998</ele><time>2026-04-18T09:20:59.999Z</time></trkpt><trkpt lat="46.22984929599666" lon="13.223999992475555"><ele>241.59999999999997</ele><time>2026-04-18T09:21:00.999Z</time></trkpt><trkpt lat="46.22976449679223" lon="13.223921617484992"><ele>240.4</ele><time>2026-04-18T09:21:01.999Z</time></trkpt><trkpt lat="46.229661311859374" lon="13.223835185693135"><ele>239.2</ele><time>2026-04-18T09:21:02.999Z</time></trkpt><trkpt lat="46.229527770530694" lon="13.223763526577487"><ele>238.0</ele><time>2026-04-18T09:21:03.999Z</time></trkpt><trkpt lat="46.22940590157321" lon="13.22371035763765"><ele>238.0</ele><time>2026-04-18T09:21:04.999Z</time></trkpt><trkpt lat="46.22927548681788" lon="13.223653380331978"><ele>238.0</ele><time>2026-04-18T09:21:05.999Z</time></trkpt><trkpt lat="46.22913998993815" lon="13.223589487016273"><ele>238.0</ele><time>2026-04-18T09:21:06.999Z</time></trkpt><trkpt lat="46.22901166685192" lon="13.223526011786364"><ele>238.0</ele><time>2026-04-18T09:21:07.999Z</time></trkpt><trkpt lat="46.22886415717704" lon="13.223460205592001"><ele>237.0</ele><time>2026-04-18T09:21:09Z</time></trkpt><trkpt lat="46.22872642453874" lon="13.223399642562295"><ele>236.0</ele><time>2026-04-18T09:21:10Z</time></trkpt><trkpt lat="46.22860646314238" lon="13.223351797777436"><ele>235.0</ele><time>2026-04-18T09:21:11Z</time></trkpt><trkpt lat="46.228501105031704" lon="13.223303054497274"><ele>234.0</ele><time>2026-04-18T09:21:12Z</time></trkpt><trkpt lat="46.22840531430389" lon="13.223256251693048"><ele>234.0</ele><time>2026-04-18T09:21:13Z</time></trkpt><trkpt lat="46.228316800847786" lon="13.223203132403164"><ele>233.99999999999997</ele><time>2026-04-18T09:21:14Z</time></trkpt><trkpt lat="46.22824322883273" lon="13.223148468912013"><ele>233.99999999999997</ele><time>2026-04-18T09:21:15Z</time></trkpt><trkpt lat="46.22817798057028" lon="13.223096465158436"><ele>234.0</ele><time>2026-04-18T09:21:16Z</time></trkpt><trkpt lat="46.22812007513918" lon="13.223053683495518"><ele>234.0</ele><time>2026-04-18T09:21:17Z</time></trkpt><trkpt lat="46.22798837616002" lon="13.22301436758496"><ele>233.79999999999998</ele><time>2026-04-18T09:21:19Z</time></trkpt><trkpt lat="46.22790084806707" lon="13.223062651270173"><ele>233.59999999999997</ele><time>2026-04-18T09:21:20Z</time></trkpt><trkpt lat="46.22780650490939" lon="13.223136300740794"><ele>233.4</ele><time>2026-04-18T09:21:21Z</time></trkpt><trkpt lat="46.22770463125491" lon="13.223203918305899"><ele>233.2</ele><time>2026-04-18T09:21:22Z</time></trkpt><trkpt lat="46.22759813837059" lon="13.223252321594844"><ele>233.0</ele><time>2026-04-18T09:21:23Z</time></trkpt><trkpt lat="46.22748844512926" lon="13.223291891569028"><ele>233.0</ele><time>2026-04-18T09:21:24Z</time></trkpt><trkpt lat="46.22736988437065" lon="13.223312212145464"><ele>233.0</ele><time>2026-04-18T09:21:25Z</time></trkpt><trkpt lat="46.227242802482834" lon="13.223309467636778"><ele>233.0</ele><time>2026-04-18T09:21:26Z</time></trkpt><trkpt lat="46.22710950999983" lon="13.223295574673424"><ele>233.0</ele><time>2026-04-18T09:21:27Z</time></trkpt><trkpt lat="46.22697592901534" lon="13.223272971064915"><ele>234.25</ele><time>2026-04-18T09:21:28Z</time></trkpt><trkpt lat="46.22684835870524" lon="13.223255442027888"><ele>235.5</ele><time>2026-04-18T09:21:29Z</time></trkpt><trkpt lat="46.22673582704096" lon="13.223240181527224"><ele>236.75</ele><time>2026-04-18T09:21:30Z</time></trkpt><trkpt lat="46.226630387641706" lon="13.223230730434326"><ele>238.0</ele><time>2026-04-18T09:21:31Z</time></trkpt><trkpt lat="46.226520551277325" lon="13.22323938039581"><ele>238.0</ele><time>2026-04-18T09:21:32Z</time></trkpt><trkpt lat="46.22641447547265" lon="13.22325794880221"><ele>238.0</ele><time>2026-04-18T09:21:33Z</time></trkpt><trkpt lat="46.22631069927808" lon="13.223276914181964"><ele>238.0</ele><time>2026-04-18T09:21:34Z</time></trkpt><trkpt lat="46.22620848147648" lon="13.223295662594516"><ele>238.0</ele><time>2026-04-18T09:21:35Z</time></trkpt><trkpt lat="46.22610563801163" lon="13.223327915843573"><ele>238.0</ele><time>2026-04-18T09:21:36Z</time></trkpt><trkpt lat="46.22599612887849" lon="13.223354042565786"><ele>238.0</ele><time>2026-04-18T09:21:37Z</time></trkpt><trkpt lat="46.22588889572479" lon="13.223363933665382"><ele>238.0</ele><time>2026-04-18T09:21:38Z</time></trkpt><trkpt lat="46.22578850744742" lon="13.223359427621888"><ele>238.0</ele><time>2026-04-18T09:21:39Z</time></trkpt><trkpt lat="46.22569651644453" lon="13.223342572040162"><ele>238.0</ele><time>2026-04-18T09:21:40Z</time></trkpt><trkpt lat="46.22561099014062" lon="13.223309704995538"><ele>238.0</ele><time>2026-04-18T09:21:41Z</time></trkpt><trkpt lat="46.22553639396557" lon="13.223262905716716"><ele>237.4</ele><time>2026-04-18T09:21:42Z</time></trkpt><trkpt lat="46.22545282333612" lon="13.223209101519284"><ele>236.8</ele><time>2026-04-18T09:21:43Z</time></trkpt><trkpt lat="46.22536282994749" lon="13.223140454950043"><ele>236.2</ele><time>2026-04-18T09:21:44Z</time></trkpt><trkpt lat="46.22528182377284" lon="13.223050349244483"><ele>235.6</ele><time>2026-04-18T09:21:45Z</time></trkpt><trkpt lat="46.22520378497314" lon="13.22295170406333"><ele>235.0</ele><time>2026-04-18T09:21:46Z</time></trkpt><trkpt lat="46.22512201478077" lon="13.222858861826069"><ele>235.0</ele><time>2026-04-18T09:21:46.999Z</time></trkpt><trkpt lat="46.22504146006262" lon="13.222769163380534"><ele>235.0</ele><time>2026-04-18T09:21:47.999Z</time></trkpt><trkpt lat="46.22495241785749" lon="13.222695814702075"><ele>235.0</ele><time>2026-04-18T09:21:48.999Z</time></trkpt><trkpt lat="46.224849624923785" lon="13.222628294837321"><ele>235.0</ele><time>2026-04-18T09:21:49.999Z</time></trkpt><trkpt lat="46.22474415278941" lon="13.222554706423942"><ele>235.0</ele><time>2026-04-18T09:21:50.999Z</time></trkpt><trkpt lat="46.22463334066569" lon="13.222473409086646"><ele>234.75</ele><time>2026-04-18T09:21:51.999Z</time></trkpt><trkpt lat="46.22451579094015" lon="13.222385366707583"><ele>234.5</ele><time>2026-04-18T09:21:52.999Z</time></trkpt><trkpt lat="46.22439743878448" lon="13.222280582191887"><ele>234.25</ele><time>2026-04-18T09:21:53.999Z</time></trkpt><trkpt lat="46.224285080505936" lon="13.222166989525169"><ele>234.0</ele><time>2026-04-18T09:21:54.999Z</time></trkpt><trkpt lat="46.22417897749424" lon="13.222045366252681"><ele>234.0</ele><time>2026-04-18T09:21:55.999Z</time></trkpt><trkpt lat="46.22407769326032" lon="13.221929406148604"><ele>234.0</ele><time>2026-04-18T09:21:56.999Z</time></trkpt><trkpt lat="46.223983626003665" lon="13.221814925869946"><ele>234.0</ele><time>2026-04-18T09:21:57.999Z</time></trkpt><trkpt lat="46.22389281556437" lon="13.22170851283272"><ele>234.0</ele><time>2026-04-18T09:21:58.999Z</time></trkpt><trkpt lat="46.22380963032578" lon="13.221613396358249"><ele>233.39999999999998</ele><time>2026-04-18T09:21:59.999Z</time></trkpt><trkpt lat="46.22373625525501" lon="13.22152038094688"><ele>232.79999999999998</ele><time>2026-04-18T09:22:00.999Z</time></trkpt><trkpt lat="46.22366341033109" lon="13.221428322300731"><ele>232.20000000000002</ele><time>2026-04-18T09:22:01.999Z</time></trkpt><trkpt lat="46.22357974272033" lon="13.221345096660013"><ele>231.60000000000002</ele><time>2026-04-18T09:22:02.999Z</time></trkpt><trkpt lat="46.22349325235083" lon="13.221274653643674"><ele>231.0</ele><time>2026-04-18T09:22:03.999Z</time></trkpt><trkpt lat="46.223385749548896" lon="13.221238749860499"><ele>231.60000000000002</ele><time>2026-04-18T09:22:04.999Z</time></trkpt><trkpt lat="46.22325916276835" lon="13.221234756686378"><ele>232.20000000000002</ele><time>2026-04-18T09:22:05.999Z</time></trkpt><trkpt lat="46.22314836852262" lon="13.221234639896098"><ele>232.79999999999998</ele><time>2026-04-18T09:22:06.999Z</time></trkpt><trkpt lat="46.22305091846048" lon="13.22122340656122"><ele>233.39999999999998</ele><time>2026-04-18T09:22:07.999Z</time></trkpt><trkpt lat="46.22294997603396" lon="13.22120997313023"><ele>234.0</ele><time>2026-04-18T09:22:08.999Z</time></trkpt><trkpt lat="46.22285724948055" lon="13.221208371581351"><ele>234.0</ele><time>2026-04-18T09:22:09.999Z</time></trkpt><trkpt lat="46.222767738772" lon="13.22120738419413"><ele>233.99999999999997</ele><time>2026-04-18T09:22:10.999Z</time></trkpt><trkpt lat="46.2226762345608" lon="13.221201431535025"><ele>233.99999999999997</ele><time>2026-04-18T09:22:11.999Z</time></trkpt><trkpt lat="46.22258450457223" lon="13.221202423488297"><ele>234.0</ele><time>2026-04-18T09:22:12.999Z</time></trkpt><trkpt lat="46.22249036826492" lon="13.221200916018791"><ele>234.0</ele><time>2026-04-18T09:22:13.999Z</time></trkpt><trkpt lat="46.22239607785822" lon="13.221201504522632"><ele>233.79999999999998</ele><time>2026-04-18T09:22:14.999Z</time></trkpt><trkpt lat="46.22229988269429" lon="13.221203891365953"><ele>233.59999999999997</ele><time>2026-04-18T09:22:15.999Z</time></trkpt><trkpt lat="46.22219935024558" lon="13.221200885959508"><ele>233.4</ele><time>2026-04-18T09:22:16.999Z</time></trkpt><trkpt lat="46.22209469170935" lon="13.2211906771966"><ele>233.2</ele><time>2026-04-18T09:22:17.999Z</time></trkpt><trkpt lat="46.22198635610681" lon="13.221188286537783"><ele>233.0</ele><time>2026-04-18T09:22:18.999Z</time></trkpt><trkpt lat="46.22187412962236" lon="13.221192599057522"><ele>233.0</ele><time>2026-04-18T09:22:19.999Z</time></trkpt><trkpt lat="46.2217584247519" lon="13.221192120772228"><ele>233.0</ele><time>2026-04-18T09:22:20.999Z</time></trkpt><trkpt lat="46.221640541721435" lon="13.221201245990166"><ele>233.0</ele><time>2026-04-18T09:22:21.999Z</time></trkpt><trkpt lat="46.221517574222375" lon="13.221218368330563"><ele>233.0</ele><time>2026-04-18T09:22:22.999Z</time></trkpt><trkpt lat="46.22139032324984" lon="13.221237786191297"><ele>232.75</ele><time>2026-04-18T09:22:23.999Z</time></trkpt><trkpt lat="46.22126077701831" lon="13.221266551562048"><ele>232.5</ele><time>2026-04-18T09:22:24.999Z</time></trkpt><trkpt lat="46.22112999741892" lon="13.221283255162325"><ele>232.25</ele><time>2026-04-18T09:22:25.999Z</time></trkpt><trkpt lat="46.22100426559908" lon="13.221299939511374"><ele>232.0</ele><time>2026-04-18T09:22:26.999Z</time></trkpt><trkpt lat="46.22088231399189" lon="13.221323387154586"><ele>232.0</ele><time>2026-04-18T09:22:27.999Z</time></trkpt><trkpt lat="46.22075695630734" lon="13.221345304218277"><ele>232.0</ele><time>2026-04-18T09:22:28.999Z</time></trkpt><trkpt lat="46.22063001233259" lon="13.221366975123141"><ele>232.0</ele><time>2026-04-18T09:22:29.999Z</time></trkpt><trkpt lat="46.22050373927112" lon="13.221391523982517"><ele>232.0</ele><time>2026-04-18T09:22:30.999Z</time></trkpt><trkpt lat="46.22037832495593" lon="13.221417442509273"><ele>232.75</ele><time>2026-04-18T09:22:31.999Z</time></trkpt><trkpt lat="46.22025600381837" lon="13.221453916370692"><ele>233.5</ele><time>2026-04-18T09:22:32.999Z</time></trkpt><trkpt lat="46.22014046740296" lon="13.221503499142406"><ele>234.25</ele><time>2026-04-18T09:22:33.999Z</time></trkpt><trkpt lat="46.22003376906721" lon="13.221561205815215"><ele>235.0</ele><time>2026-04-18T09:22:34.999Z</time></trkpt><trkpt lat="46.21992972191755" lon="13.221613786224863"><ele>234.0</ele><time>2026-04-18T09:22:35.999Z</time></trkpt><trkpt lat="46.219825142323664" lon="13.221662974866229"><ele>233.0</ele><time>2026-04-18T09:22:36.999Z</time></trkpt><trkpt lat="46.21972833640696" lon="13.221713226685102"><ele>232.0</ele><time>2026-04-18T09:22:37.999Z</time></trkpt><trkpt lat="46.219640724998406" lon="13.22176050090762"><ele>231.0</ele><time>2026-04-18T09:22:38.999Z</time></trkpt><trkpt lat="46.21955867829451" lon="13.22180006778168"><ele>230.0</ele><time>2026-04-18T09:22:39.999Z</time></trkpt><trkpt lat="46.21947560896521" lon="13.22183149971476"><ele>230.0</ele><time>2026-04-18T09:22:40.999Z</time></trkpt><trkpt lat="46.21938699178894" lon="13.221859366641548"><ele>230.0</ele><time>2026-04-18T09:22:41.999Z</time></trkpt><trkpt lat="46.2192960896096" lon="13.221880210729246"><ele>230.0</ele><time>2026-04-18T09:22:42.999Z</time></trkpt><trkpt lat="46.219201912703596" lon="13.221889548581862"><ele>230.0</ele><time>2026-04-18T09:22:43.999Z</time></trkpt><trkpt lat="46.21910839374277" lon="13.221891085119758"><ele>230.0</ele><time>2026-04-18T09:22:44.999Z</time></trkpt><trkpt lat="46.21901932341117" lon="13.221886778715893"><ele>229.0</ele><time>2026-04-18T09:22:45.999Z</time></trkpt><trkpt lat="46.2189256874532" lon="13.22187208306745"><ele>228.0</ele><time>2026-04-18T09:22:46.999Z</time></trkpt><trkpt lat="46.21882822960908" lon="13.22183965065993"><ele>227.0</ele><time>2026-04-18T09:22:47.999Z</time></trkpt><trkpt lat="46.21872825459531" lon="13.22180020182481"><ele>226.0</ele><time>2026-04-18T09:22:48.999Z</time></trkpt><trkpt lat="46.218626900987026" lon="13.22175078510258"><ele>225.0</ele><time>2026-04-18T09:22:49.999Z</time></trkpt><trkpt lat="46.21851478324845" lon="13.221700925459883"><ele>225.0</ele><time>2026-04-18T09:22:50.999Z</time></trkpt><trkpt lat="46.218394493949724" lon="13.22165089990326"><ele>225.0</ele><time>2026-04-18T09:22:51.999Z</time></trkpt><trkpt lat="46.218273352060066" lon="13.221594181362688"><ele>225.0</ele><time>2026-04-18T09:22:52.999Z</time></trkpt><trkpt lat="46.218152235415566" lon="13.221543727433314"><ele>225.0</ele><time>2026-04-18T09:22:53.999Z</time></trkpt><trkpt lat="46.218038759620356" lon="13.221493776246975"><ele>228.0</ele><time>2026-04-18T09:22:54.999Z</time></trkpt><trkpt lat="46.21793351831361" lon="13.221442277644053"><ele>231.0</ele><time>2026-04-18T09:22:55.999Z</time></trkpt><trkpt lat="46.21783333530869" lon="13.221383805296831"><ele>234.0</ele><time>2026-04-18T09:22:56.999Z</time></trkpt><trkpt lat="46.217731896072074" lon="13.221341955658847"><ele>237.0</ele><time>2026-04-18T09:22:57.999Z</time></trkpt><trkpt lat="46.217625397418054" lon="13.221314603715541"><ele>240.0</ele><time>2026-04-18T09:22:58.999Z</time></trkpt><trkpt lat="46.21751951874747" lon="13.221292610692092"><ele>240.0</ele><time>2026-04-18T09:22:59.999Z</time></trkpt><trkpt lat="46.21741395548607" lon="13.221282491449072"><ele>240.0</ele><time>2026-04-18T09:23:00.999Z</time></trkpt><trkpt lat="46.21730857501306" lon="13.221298845485986"><ele>240.0</ele><time>2026-04-18T09:23:01.999Z</time></trkpt><trkpt lat="46.21721251064127" lon="13.22132438170379"><ele>240.0</ele><time>2026-04-18T09:23:02.999Z</time></trkpt><trkpt lat="46.217129417300775" lon="13.221350812433698"><ele>240.0</ele><time>2026-04-18T09:23:03.999Z</time></trkpt><trkpt lat="46.217055043670214" lon="13.22138626806146"><ele>240.0</ele><time>2026-04-18T09:23:04.999Z</time></trkpt><trkpt lat="46.216990126800525" lon="13.221428675839666"><ele>240.0</ele><time>2026-04-18T09:23:05.999Z</time></trkpt><trkpt lat="46.216929730759574" lon="13.22146306423155"><ele>240.0</ele><time>2026-04-18T09:23:06.999Z</time></trkpt><trkpt lat="46.216827993829234" lon="13.221519505945837"><ele>240.0</ele><time>2026-04-18T09:23:08.999Z</time></trkpt><trkpt lat="46.216741853808045" lon="13.221577370835755"><ele>240.0</ele><time>2026-04-18T09:23:10.999Z</time></trkpt><trkpt lat="46.216674913384" lon="13.22162330969597"><ele>240.0</ele><time>2026-04-18T09:23:12.999Z</time></trkpt><trkpt lat="46.216600081321374" lon="13.221661042055244"><ele>239.42857142857144</ele><time>2026-04-18T09:23:16Z</time></trkpt><trkpt lat="46.216536345842776" lon="13.221670762747946"><ele>238.85714285714283</ele><time>2026-04-18T09:23:20Z</time></trkpt><trkpt lat="46.21647358518531" lon="13.221698139465461"><ele>238.28571428571428</ele><time>2026-04-18T09:23:23Z</time></trkpt><trkpt lat="46.21640458166342" lon="13.221728488962516"><ele>237.71428571428572</ele><time>2026-04-18T09:23:27Z</time></trkpt><trkpt lat="46.216335230322386" lon="13.221760019359706"><ele>237.14285714285717</ele><time>2026-04-18T09:23:36Z</time></trkpt><trkpt lat="46.216246976633315" lon="13.221810153701034"><ele>236.57142857142856</ele><time>2026-04-18T09:23:40Z</time></trkpt><trkpt lat="46.21618710033985" lon="13.221858259400312"><ele>236.0</ele><time>2026-04-18T09:23:43Z</time></trkpt><trkpt lat="46.21613572416921" lon="13.221915847644565"><ele>230.0</ele><time>2026-04-18T09:23:46Z</time></trkpt><trkpt lat="46.216083260717475" lon="13.221974593048825"><ele>230.0</ele><time>2026-04-18T09:23:51.999Z</time></trkpt><trkpt lat="46.21614795473026" lon="13.222006035386615"><ele>230.0</ele><time>2026-04-18T09:25:05.999Z</time></trkpt><trkpt lat="46.21620812285079" lon="13.222050433106352"><ele>230.0</ele><time>2026-04-18T09:25:14.999Z</time></trkpt><trkpt lat="46.21627037855968" lon="13.222095389836646"><ele>230.0</ele><time>2026-04-18T09:25:52Z</time></trkpt></trkseg><trkseg><trkpt lat="46.2161245364538" lon="13.221877048463824"><ele>230.0</ele><time>2026-04-18T09:48:44Z</time></trkpt><trkpt lat="46.21606405889682" lon="13.2219980712225"><ele>230.0</ele><time>2026-04-18T09:49:45Z</time></trkpt><trkpt lat="46.21613623926439" lon="13.222062938458237"><ele>230.0</ele><time>2026-04-18T09:49:54Z</time></trkpt><trkpt lat="46.216162155028826" lon="13.2222085672534"><ele>230.0</ele><time>2026-04-18T09:49:56Z</time></trkpt><trkpt lat="46.216194472546114" lon="13.222320659833413"><ele>230.0</ele><time>2026-04-18T09:49:58Z</time></trkpt><trkpt lat="46.21620996933768" lon="13.222431499672473"><ele>230.16666666666669</ele><time>2026-04-18T09:50:00Z</time></trkpt><trkpt lat="46.21621646849728" lon="13.222524715050671"><ele>230.33333333333334</ele><time>2026-04-18T09:50:03Z</time></trkpt><trkpt lat="46.21626077205767" lon="13.222657506940878"><ele>230.5</ele><time>2026-04-18T09:50:07Z</time></trkpt><trkpt lat="46.2163250903252" lon="13.222704771762466"><ele>230.66666666666669</ele><time>2026-04-18T09:50:09Z</time></trkpt><trkpt lat="46.21643748050787" lon="13.22274732793459"><ele>230.83333333333334</ele><time>2026-04-18T09:50:11Z</time></trkpt><trkpt lat="46.21651047041005" lon="13.22276271383007"><ele>231.0</ele><time>2026-04-18T09:50:12Z</time></trkpt><trkpt lat="46.21657197475307" lon="13.222794019580721"><ele>230.5</ele><time>2026-04-18T09:50:13Z</time></trkpt><trkpt lat="46.21666349604218" lon="13.222876737104478"><ele>230.0</ele><time>2026-04-18T09:50:15Z</time></trkpt><trkpt lat="46.216726630974506" lon="13.222908682968036"><ele>229.5</ele><time>2026-04-18T09:50:16Z</time></trkpt><trkpt lat="46.21679773180357" lon="13.222937074086571"><ele>229.0</ele><time>2026-04-18T09:50:17Z</time></trkpt><trkpt lat="46.21686479126733" lon="13.222987886499197"><ele>228.5</ele><time>2026-04-18T09:50:18Z</time></trkpt><trkpt lat="46.216942674185965" lon="13.22305105559876"><ele>228.0</ele><time>2026-04-18T09:50:19Z</time></trkpt><trkpt lat="46.21701811957882" lon="13.223085344666316"><ele>228.0</ele><time>2026-04-18T09:50:20Z</time></trkpt><trkpt lat="46.2170780849074" lon="13.223132440315855"><ele>227.99999999999997</ele><time>2026-04-18T09:50:21Z</time></trkpt><trkpt lat="46.217133377794376" lon="13.223180218868324"><ele>228.0</ele><time>2026-04-18T09:50:22Z</time></trkpt><trkpt lat="46.217191047707885" lon="13.223221094897239"><ele>228.0</ele><time>2026-04-18T09:50:23Z</time></trkpt><trkpt lat="46.21723596333217" lon="13.223302024052211"><ele>227.99999999999997</ele><time>2026-04-18T09:50:24Z</time></trkpt><trkpt lat="46.217298600484" lon="13.223341365924618"><ele>228.0</ele><time>2026-04-18T09:50:25Z</time></trkpt><trkpt lat="46.21736247806565" lon="13.223382944233858"><ele>228.0</ele><time>2026-04-18T09:50:26Z</time></trkpt><trkpt lat="46.21742433662182" lon="13.223428507943085"><ele>227.33333333333334</ele><time>2026-04-18T09:50:27Z</time></trkpt><trkpt lat="46.217480012312045" lon="13.223487817322294"><ele>226.66666666666669</ele><time>2026-04-18T09:50:28Z</time></trkpt><trkpt lat="46.21752136448373" lon="13.223571754950578"><ele>226.0</ele><time>2026-04-18T09:50:29Z</time></trkpt><trkpt lat="46.217546873641616" lon="13.223684852845349"><ele>225.33333333333334</ele><time>2026-04-18T09:50:30Z</time></trkpt><trkpt lat="46.21756673601146" lon="13.223802802984089"><ele>224.66666666666669</ele><time>2026-04-18T09:50:30.999Z</time></trkpt><trkpt lat="46.21759973548805" lon="13.223930499262242"><ele>224.0</ele><time>2026-04-18T09:50:31.999Z</time></trkpt><trkpt lat="46.217630867117634" lon="13.224050374133855"><ele>224.0</ele><time>2026-04-18T09:50:32.999Z</time></trkpt><trkpt lat="46.217655356176614" lon="13.224163449392115"><ele>223.99999999999997</ele><time>2026-04-18T09:50:33.999Z</time></trkpt><trkpt lat="46.21767645112877" lon="13.224330563906262"><ele>223.99999999999997</ele><time>2026-04-18T09:50:35.999Z</time></trkpt><trkpt lat="46.21765712550801" lon="13.224434264985966"><ele>224.0</ele><time>2026-04-18T09:50:38.999Z</time></trkpt><trkpt lat="46.21757251127501" lon="13.224532195432841"><ele>224.0</ele><time>2026-04-18T09:50:42Z</time></trkpt><trkpt lat="46.21749013396248" lon="13.22456003895764"><ele>224.00000000000003</ele><time>2026-04-18T09:50:43Z</time></trkpt><trkpt lat="46.217420270047214" lon="13.224589569494768"><ele>224.0</ele><time>2026-04-18T09:50:44Z</time></trkpt><trkpt lat="46.21735871261522" lon="13.224634274331304"><ele>224.0</ele><time>2026-04-18T09:50:45Z</time></trkpt><trkpt lat="46.21724830308366" lon="13.224715837934802"><ele>224.0</ele><time>2026-04-18T09:50:47Z</time></trkpt><trkpt lat="46.2171845806566" lon="13.224765936086309"><ele>224.00000000000003</ele><time>2026-04-18T09:50:48Z</time></trkpt><trkpt lat="46.217124514868416" lon="13.22481358771693"><ele>224.0</ele><time>2026-04-18T09:50:49Z</time></trkpt><trkpt lat="46.2170523070035" lon="13.224876468164373"><ele>223.83333333333334</ele><time>2026-04-18T09:50:50Z</time></trkpt><trkpt lat="46.21698263218939" lon="13.224928645535757"><ele>223.66666666666669</ele><time>2026-04-18T09:50:51Z</time></trkpt><trkpt lat="46.216916755971724" lon="13.224978706483874"><ele>223.5</ele><time>2026-04-18T09:50:52Z</time></trkpt><trkpt lat="46.2168447471779" lon="13.225038382371938"><ele>223.33333333333331</ele><time>2026-04-18T09:50:53Z</time></trkpt><trkpt lat="46.216771744905806" lon="13.22509695510721"><ele>223.16666666666666</ele><time>2026-04-18T09:50:54Z</time></trkpt><trkpt lat="46.21669162815688" lon="13.22516053827944"><ele>223.0</ele><time>2026-04-18T09:50:55Z</time></trkpt><trkpt lat="46.216613283636306" lon="13.225223079581584"><ele>223.0</ele><time>2026-04-18T09:50:56Z</time></trkpt><trkpt lat="46.216526490562835" lon="13.22526796692878"><ele>223.0</ele><time>2026-04-18T09:50:57Z</time></trkpt><trkpt lat="46.21645099761154" lon="13.225325502486621"><ele>223.0</ele><time>2026-04-18T09:50:58Z</time></trkpt><trkpt lat="46.216369102771566" lon="13.22538836371841"><ele>223.0</ele><time>2026-04-18T09:50:59Z</time></trkpt><trkpt lat="46.216283700021336" lon="13.225453845956098"><ele>223.0</ele><time>2026-04-18T09:51:00Z</time></trkpt><trkpt lat="46.21619506657823" lon="13.225521805405117"><ele>223.60000000000002</ele><time>2026-04-18T09:51:01Z</time></trkpt><trkpt lat="46.21610508786632" lon="13.225590796358862"><ele>224.20000000000002</ele><time>2026-04-18T09:51:02Z</time></trkpt><trkpt lat="46.21601687734566" lon="13.225658431552633"><ele>224.8</ele><time>2026-04-18T09:51:03Z</time></trkpt><trkpt lat="46.21593678741929" lon="13.225744899406838"><ele>225.4</ele><time>2026-04-18T09:51:04Z</time></trkpt><trkpt lat="46.21584258163084" lon="13.225816864776082"><ele>226.0</ele><time>2026-04-18T09:51:05Z</time></trkpt><trkpt lat="46.2157437280679" lon="13.225890137090879"><ele>225.99999999999997</ele><time>2026-04-18T09:51:06Z</time></trkpt><trkpt lat="46.2156599884008" lon="13.225955075384764"><ele>226.0</ele><time>2026-04-18T09:51:07Z</time></trkpt><trkpt lat="46.21558210978859" lon="13.226005212255842"><ele>226.0</ele><time>2026-04-18T09:51:08Z</time></trkpt><trkpt lat="46.21551419426359" lon="13.226057699158831"><ele>226.0</ele><time>2026-04-18T09:51:09Z</time></trkpt><trkpt lat="46.215450134329345" lon="13.226106943647846"><ele>225.99999999999997</ele><time>2026-04-18T09:51:10Z</time></trkpt><trkpt lat="46.21538227989608" lon="13.226172878285496"><ele>226.0</ele><time>2026-04-18T09:51:11Z</time></trkpt><trkpt lat="46.21530082644992" lon="13.226212551553225"><ele>226.16666666666666</ele><time>2026-04-18T09:51:12Z</time></trkpt><trkpt lat="46.21523380169229" lon="13.226280677207235"><ele>226.33333333333331</ele><time>2026-04-18T09:51:13Z</time></trkpt><trkpt lat="46.2151613825718" lon="13.226335604974045"><ele>226.5</ele><time>2026-04-18T09:51:14Z</time></trkpt><trkpt lat="46.21509289478372" lon="13.226394460907336"><ele>226.66666666666669</ele><time>2026-04-18T09:51:15Z</time></trkpt><trkpt lat="46.21502658236693" lon="13.226449987882038"><ele>226.83333333333334</ele><time>2026-04-18T09:51:16Z</time></trkpt><trkpt lat="46.214959786109986" lon="13.226503835523646"><ele>227.0</ele><time>2026-04-18T09:51:17Z</time></trkpt><trkpt lat="46.21489299364208" lon="13.226558091474509"><ele>227.0</ele><time>2026-04-18T09:51:18Z</time></trkpt><trkpt lat="46.21482450765247" lon="13.226606989827438"><ele>227.0</ele><time>2026-04-18T09:51:19Z</time></trkpt><trkpt lat="46.2147506199492" lon="13.226660848842776"><ele>227.0</ele><time>2026-04-18T09:51:20Z</time></trkpt><trkpt lat="46.21466799203399" lon="13.226718153773671"><ele>227.0</ele><time>2026-04-18T09:51:21Z</time></trkpt><trkpt lat="46.21457518560817" lon="13.226771848611365"><ele>227.0</ele><time>2026-04-18T09:51:22Z</time></trkpt><trkpt lat="46.21447336279583" lon="13.226823412266976"><ele>225.25</ele><time>2026-04-18T09:51:23Z</time></trkpt><trkpt lat="46.21435305503154" lon="13.226872747944359"><ele>223.5</ele><time>2026-04-18T09:51:24Z</time></trkpt><trkpt lat="46.21421721566422" lon="13.226911170982586"><ele>221.75</ele><time>2026-04-18T09:51:25Z</time></trkpt><trkpt lat="46.21408058787299" lon="13.226941157434716"><ele>220.0</ele><time>2026-04-18T09:51:26Z</time></trkpt><trkpt lat="46.21395188835088" lon="13.226979064851538"><ele>218.5</ele><time>2026-04-18T09:51:27Z</time></trkpt><trkpt lat="46.21382621908918" lon="13.227022838179648"><ele>217.0</ele><time>2026-04-18T09:51:28Z</time></trkpt><trkpt lat="46.213697734600174" lon="13.227075412648798"><ele>215.5</ele><time>2026-04-18T09:51:29Z</time></trkpt><trkpt lat="46.213569182686925" lon="13.22713770491788"><ele>214.0</ele><time>2026-04-18T09:51:30Z</time></trkpt><trkpt lat="46.213424016561085" lon="13.227214910175926"><ele>214.0</ele><time>2026-04-18T09:51:31Z</time></trkpt><trkpt lat="46.21328092211797" lon="13.22729712181459"><ele>214.0</ele><time>2026-04-18T09:51:32Z</time></trkpt><trkpt lat="46.213134489045935" lon="13.227371788282706"><ele>214.0</ele><time>2026-04-18T09:51:33Z</time></trkpt><trkpt lat="46.212994012027856" lon="13.227443745172424"><ele>214.25</ele><time>2026-04-18T09:51:34Z</time></trkpt><trkpt lat="46.21285657215736" lon="13.227511751441224"><ele>214.5</ele><time>2026-04-18T09:51:35Z</time></trkpt><trkpt lat="46.21272809993715" lon="13.227577786109544"><ele>214.75</ele><time>2026-04-18T09:51:36Z</time></trkpt><trkpt lat="46.21259802899937" lon="13.227640733514264"><ele>215.0</ele><time>2026-04-18T09:51:37Z</time></trkpt><trkpt lat="46.21246303049253" lon="13.227712842558963"><ele>215.0</ele><time>2026-04-18T09:51:38Z</time></trkpt><trkpt lat="46.212325475977494" lon="13.227774004650092"><ele>215.0</ele><time>2026-04-18T09:51:39Z</time></trkpt><trkpt lat="46.212180894411546" lon="13.227844490522822"><ele>215.0</ele><time>2026-04-18T09:51:40Z</time></trkpt><trkpt lat="46.212028167139565" lon="13.22792056752532"><ele>215.0</ele><time>2026-04-18T09:51:41Z</time></trkpt><trkpt lat="46.21187247297696" lon="13.228000499951866"><ele>215.0</ele><time>2026-04-18T09:51:42Z</time></trkpt><trkpt lat="46.21172007126543" lon="13.22807889343489"><ele>215.0</ele><time>2026-04-18T09:51:43Z</time></trkpt><trkpt lat="46.211570649618196" lon="13.228153053101034"><ele>215.66666666666669</ele><time>2026-04-18T09:51:44Z</time></trkpt><trkpt lat="46.211424675318135" lon="13.228228354723877"><ele>216.33333333333331</ele><time>2026-04-18T09:51:45Z</time></trkpt><trkpt lat="46.21128195966671" lon="13.228308208730365"><ele>217.0</ele><time>2026-04-18T09:51:46Z</time></trkpt><trkpt lat="46.211135392973254" lon="13.228383686621964"><ele>217.0</ele><time>2026-04-18T09:51:47Z</time></trkpt><trkpt lat="46.21098821061398" lon="13.228462098190475"><ele>217.0</ele><time>2026-04-18T09:51:48Z</time></trkpt><trkpt lat="46.210838283452375" lon="13.228542010045487"><ele>217.0</ele><time>2026-04-18T09:51:49Z</time></trkpt><trkpt lat="46.21068977960381" lon="13.228619433970875"><ele>215.0</ele><time>2026-04-18T09:51:50Z</time></trkpt><trkpt lat="46.21054062285398" lon="13.228693943601682"><ele>213.0</ele><time>2026-04-18T09:51:51Z</time></trkpt><trkpt lat="46.21038945811824" lon="13.228771536345846"><ele>211.0</ele><time>2026-04-18T09:51:52Z</time></trkpt><trkpt lat="46.21023913556854" lon="13.228849751584951"><ele>211.0</ele><time>2026-04-18T09:51:53Z</time></trkpt><trkpt lat="46.21009162729258" lon="13.228926785144749"><ele>211.0</ele><time>2026-04-18T09:51:54Z</time></trkpt><trkpt lat="46.20994522380265" lon="13.229004059739726"><ele>211.0</ele><time>2026-04-18T09:51:55Z</time></trkpt><trkpt lat="46.20979809261893" lon="13.229079079728047"><ele>212.0</ele><time>2026-04-18T09:51:56Z</time></trkpt><trkpt lat="46.209648859031454" lon="13.229148339788944"><ele>213.0</ele><time>2026-04-18T09:51:57Z</time></trkpt><trkpt lat="46.209500976980536" lon="13.229226403866914"><ele>214.0</ele><time>2026-04-18T09:51:58Z</time></trkpt><trkpt lat="46.20934712406751" lon="13.229300863117404"><ele>214.0</ele><time>2026-04-18T09:51:59Z</time></trkpt><trkpt lat="46.20918459471393" lon="13.229381379853708"><ele>214.0</ele><time>2026-04-18T09:52:00Z</time></trkpt><trkpt lat="46.209015874665965" lon="13.229470786838984"><ele>214.0</ele><time>2026-04-18T09:52:01Z</time></trkpt><trkpt lat="46.20884796575967" lon="13.229560307613749"><ele>212.33333333333331</ele><time>2026-04-18T09:52:02Z</time></trkpt><trkpt lat="46.20868311226713" lon="13.229646295781764"><ele>210.66666666666669</ele><time>2026-04-18T09:52:03Z</time></trkpt><trkpt lat="46.20852871034097" lon="13.229725557637959"><ele>209.0</ele><time>2026-04-18T09:52:04Z</time></trkpt><trkpt lat="46.208382345164274" lon="13.229795699635408"><ele>210.0</ele><time>2026-04-18T09:52:05Z</time></trkpt><trkpt lat="46.20824308686235" lon="13.229867714224824"><ele>211.0</ele><time>2026-04-18T09:52:06Z</time></trkpt><trkpt lat="46.20810954817088" lon="13.229940668929148"><ele>212.0</ele><time>2026-04-18T09:52:07Z</time></trkpt><trkpt lat="46.20797381621585" lon="13.230017365909694"><ele>213.0</ele><time>2026-04-18T09:52:08Z</time></trkpt><trkpt lat="46.20782755150779" lon="13.230062927901516"><ele>213.0</ele><time>2026-04-18T09:52:09Z</time></trkpt><trkpt lat="46.20767853665066" lon="13.230111377205352"><ele>213.0</ele><time>2026-04-18T09:52:10Z</time></trkpt><trkpt lat="46.207527596307514" lon="13.230158347271617"><ele>213.0</ele><time>2026-04-18T09:52:11Z</time></trkpt><trkpt lat="46.207374659800905" lon="13.23018895845576"><ele>213.0</ele><time>2026-04-18T09:52:12Z</time></trkpt><trkpt lat="46.20721594717138" lon="13.230200770034259"><ele>213.0</ele><time>2026-04-18T09:52:13Z</time></trkpt><trkpt lat="46.20705682439962" lon="13.230213710644186"><ele>213.0</ele><time>2026-04-18T09:52:14Z</time></trkpt><trkpt lat="46.20689327114683" lon="13.230230509143242"><ele>213.0</ele><time>2026-04-18T09:52:15Z</time></trkpt><trkpt lat="46.20672050709922" lon="13.230245064909994"><ele>213.0</ele><time>2026-04-18T09:52:16Z</time></trkpt><trkpt lat="46.206536686598284" lon="13.230271474751918"><ele>213.0</ele><time>2026-04-18T09:52:17Z</time></trkpt><trkpt lat="46.206343380675676" lon="13.23029949775727"><ele>212.0</ele><time>2026-04-18T09:52:18Z</time></trkpt><trkpt lat="46.2061439188213" lon="13.230322352511783"><ele>211.0</ele><time>2026-04-18T09:52:19Z</time></trkpt><trkpt lat="46.20594998138139" lon="13.230351322131945"><ele>210.0</ele><time>2026-04-18T09:52:20Z</time></trkpt><trkpt lat="46.205764784335585" lon="13.230383556613639"><ele>211.0</ele><time>2026-04-18T09:52:21Z</time></trkpt><trkpt lat="46.20558891382358" lon="13.230409032450874"><ele>212.0</ele><time>2026-04-18T09:52:22Z</time></trkpt><trkpt lat="46.20541954256737" lon="13.230433283926562"><ele>213.0</ele><time>2026-04-18T09:52:23Z</time></trkpt><trkpt lat="46.20525900363436" lon="13.230455255863975"><ele>213.0</ele><time>2026-04-18T09:52:24Z</time></trkpt><trkpt lat="46.20510161730387" lon="13.230475046756494"><ele>213.0</ele><time>2026-04-18T09:52:25Z</time></trkpt><trkpt lat="46.20495791164319" lon="13.230489641584905"><ele>213.0</ele><time>2026-04-18T09:52:26Z</time></trkpt><trkpt lat="46.20482341027302" lon="13.230484575833088"><ele>213.0</ele><time>2026-04-18T09:52:27Z</time></trkpt><trkpt lat="46.204689481695766" lon="13.230447489745314"><ele>212.25</ele><time>2026-04-18T09:52:28Z</time></trkpt><trkpt lat="46.20456187851008" lon="13.230389707326786"><ele>211.5</ele><time>2026-04-18T09:52:29Z</time></trkpt><trkpt lat="46.20444474948269" lon="13.230327948254738"><ele>210.75</ele><time>2026-04-18T09:52:30Z</time></trkpt><trkpt lat="46.20434099777728" lon="13.23027165729693"><ele>210.0</ele><time>2026-04-18T09:52:31Z</time></trkpt><trkpt lat="46.20423286000175" lon="13.230218036472186"><ele>210.0</ele><time>2026-04-18T09:52:32Z</time></trkpt><trkpt lat="46.204116840480744" lon="13.230173574162666"><ele>210.0</ele><time>2026-04-18T09:52:33Z</time></trkpt><trkpt lat="46.203996166013795" lon="13.230135199797171"><ele>210.0</ele><time>2026-04-18T09:52:34Z</time></trkpt><trkpt lat="46.20387311184875" lon="13.230104542301609"><ele>210.0</ele><time>2026-04-18T09:52:35Z</time></trkpt><trkpt lat="46.20376296234071" lon="13.230067786340475"><ele>209.83333333333334</ele><time>2026-04-18T09:52:36Z</time></trkpt><trkpt lat="46.20366916086557" lon="13.230036970751575"><ele>209.66666666666669</ele><time>2026-04-18T09:52:37Z</time></trkpt><trkpt lat="46.20359428127531" lon="13.230013986809752"><ele>209.5</ele><time>2026-04-18T09:52:38Z</time></trkpt><trkpt lat="46.203528067436" lon="13.22998974374336"><ele>209.33333333333334</ele><time>2026-04-18T09:52:38.999Z</time></trkpt><trkpt lat="46.203466058640736" lon="13.229967222326314"><ele>209.16666666666669</ele><time>2026-04-18T09:52:39.999Z</time></trkpt><trkpt lat="46.20336757686712" lon="13.22992474207011"><ele>209.0</ele><time>2026-04-18T09:52:41.999Z</time></trkpt><trkpt lat="46.2033045887543" lon="13.229892425609643"><ele>209.0</ele><time>2026-04-18T09:52:46.999Z</time></trkpt><trkpt lat="46.20323567773944" lon="13.229882668214428"><ele>209.0</ele><time>2026-04-18T09:52:51Z</time></trkpt><trkpt lat="46.20311671968173" lon="13.229962258724932"><ele>209.0</ele><time>2026-04-18T09:52:53Z</time></trkpt><trkpt lat="46.20303720797965" lon="13.230023937006365"><ele>209.0</ele><time>2026-04-18T09:52:54Z</time></trkpt><trkpt lat="46.202934829015874" lon="13.230076871368642"><ele>209.0</ele><time>2026-04-18T09:52:55Z</time></trkpt><trkpt lat="46.202835809871566" lon="13.230126921683004"><ele>208.79999999999998</ele><time>2026-04-18T09:52:56Z</time></trkpt><trkpt lat="46.20274331556619" lon="13.230170754321696"><ele>208.6</ele><time>2026-04-18T09:52:57Z</time></trkpt><trkpt lat="46.20264506240912" lon="13.230214248376303"><ele>208.4</ele><time>2026-04-18T09:52:58Z</time></trkpt><trkpt lat="46.20253437033187" lon="13.230259475819697"><ele>208.2</ele><time>2026-04-18T09:52:59Z</time></trkpt><trkpt lat="46.202415725312385" lon="13.230304786369162"><ele>208.0</ele><time>2026-04-18T09:53:00Z</time></trkpt><trkpt lat="46.20228947700627" lon="13.230354619921666"><ele>207.0</ele><time>2026-04-18T09:53:01Z</time></trkpt><trkpt lat="46.202158401167175" lon="13.230409153215708"><ele>206.0</ele><time>2026-04-18T09:53:02Z</time></trkpt><trkpt lat="46.20202386186766" lon="13.230477368228966"><ele>205.0</ele><time>2026-04-18T09:53:03Z</time></trkpt><trkpt lat="46.201885330102776" lon="13.230568905849577"><ele>204.0</ele><time>2026-04-18T09:53:04Z</time></trkpt><trkpt lat="46.20174521668097" lon="13.230672555725068"><ele>204.0</ele><time>2026-04-18T09:53:05Z</time></trkpt><trkpt lat="46.201601177905125" lon="13.230788505494578"><ele>204.0</ele><time>2026-04-18T09:53:06Z</time></trkpt><trkpt lat="46.201461967899384" lon="13.230908645261623"><ele>204.0</ele><time>2026-04-18T09:53:07Z</time></trkpt><trkpt lat="46.201326220099745" lon="13.231037959577849"><ele>204.0</ele><time>2026-04-18T09:53:08Z</time></trkpt><trkpt lat="46.20119465006387" lon="13.231164386810832"><ele>204.0</ele><time>2026-04-18T09:53:09Z</time></trkpt><trkpt lat="46.201062727838426" lon="13.231289570462648"><ele>204.0</ele><time>2026-04-18T09:53:10Z</time></trkpt><trkpt lat="46.20091759096936" lon="13.231429466116545"><ele>204.0</ele><time>2026-04-18T09:53:11Z</time></trkpt><trkpt lat="46.200764738839126" lon="13.231575827953781"><ele>204.0</ele><time>2026-04-18T09:53:12Z</time></trkpt><trkpt lat="46.20061204957679" lon="13.231719142122643"><ele>204.0</ele><time>2026-04-18T09:53:13Z</time></trkpt><trkpt lat="46.20045430619715" lon="13.231863187293136"><ele>204.0</ele><time>2026-04-18T09:53:14Z</time></trkpt><trkpt lat="46.20028931763619" lon="13.232020040778712"><ele>204.0</ele><time>2026-04-18T09:53:15Z</time></trkpt><trkpt lat="46.20012300073152" lon="13.232180791109089"><ele>204.0</ele><time>2026-04-18T09:53:16Z</time></trkpt><trkpt lat="46.19995875077753" lon="13.232335589975179"><ele>203.33333333333331</ele><time>2026-04-18T09:53:17Z</time></trkpt><trkpt lat="46.19979653805827" lon="13.23246811660799"><ele>202.66666666666666</ele><time>2026-04-18T09:53:18Z</time></trkpt><trkpt lat="46.19963276517724" lon="13.232571168852868"><ele>202.0</ele><time>2026-04-18T09:53:19Z</time></trkpt><trkpt lat="46.19946617243398" lon="13.23266940334634"><ele>202.0</ele><time>2026-04-18T09:53:20Z</time></trkpt><trkpt lat="46.19929609824488" lon="13.232773060504782"><ele>202.0</ele><time>2026-04-18T09:53:21Z</time></trkpt><trkpt lat="46.199124813728744" lon="13.23286980457548"><ele>202.0</ele><time>2026-04-18T09:53:22Z</time></trkpt><trkpt lat="46.19895533339584" lon="13.23296334025971"><ele>202.66666666666666</ele><time>2026-04-18T09:53:23Z</time></trkpt><trkpt lat="46.198798359597156" lon="13.233065975809522"><ele>203.33333333333331</ele><time>2026-04-18T09:53:24Z</time></trkpt><trkpt lat="46.19865488777669" lon="13.233193847275738"><ele>204.0</ele><time>2026-04-18T09:53:25Z</time></trkpt><trkpt lat="46.198526896334194" lon="13.23335139535648"><ele>204.0</ele><time>2026-04-18T09:53:26Z</time></trkpt><trkpt lat="46.19841568983133" lon="13.233545692993102"><ele>204.0</ele><time>2026-04-18T09:53:27Z</time></trkpt><trkpt lat="46.19830072636242" lon="13.233744188633677"><ele>204.0</ele><time>2026-04-18T09:53:28Z</time></trkpt><trkpt lat="46.198180942950565" lon="13.233937764099112"><ele>203.33333333333331</ele><time>2026-04-18T09:53:29Z</time></trkpt><trkpt lat="46.19805003138762" lon="13.234117834764788"><ele>202.66666666666666</ele><time>2026-04-18T09:53:30Z</time></trkpt><trkpt lat="46.19789220763298" lon="13.234263721899318"><ele>202.0</ele><time>2026-04-18T09:53:31Z</time></trkpt><trkpt lat="46.19771685538979" lon="13.234393906608226"><ele>202.0</ele><time>2026-04-18T09:53:32Z</time></trkpt><trkpt lat="46.19754671980111" lon="13.234542974430962"><ele>202.0</ele><time>2026-04-18T09:53:33Z</time></trkpt><trkpt lat="46.19739449703136" lon="13.234715580231406"><ele>202.0</ele><time>2026-04-18T09:53:34Z</time></trkpt><trkpt lat="46.197258840492175" lon="13.234907590202782"><ele>201.0</ele><time>2026-04-18T09:53:35Z</time></trkpt><trkpt lat="46.19713323887474" lon="13.235100359943855"><ele>200.0</ele><time>2026-04-18T09:53:36Z</time></trkpt><trkpt lat="46.19700809530107" lon="13.235304194612091"><ele>199.0</ele><time>2026-04-18T09:53:37Z</time></trkpt><trkpt lat="46.19687909220519" lon="13.235512490361021"><ele>198.66666666666666</ele><time>2026-04-18T09:53:38Z</time></trkpt><trkpt lat="46.19674560797872" lon="13.235718935793795"><ele>198.33333333333331</ele><time>2026-04-18T09:53:39Z</time></trkpt><trkpt lat="46.196614125575344" lon="13.235927943358924"><ele>198.0</ele><time>2026-04-18T09:53:40Z</time></trkpt><trkpt lat="46.1964850469404" lon="13.236136288574848"><ele>198.0</ele><time>2026-04-18T09:53:41Z</time></trkpt><trkpt lat="46.19635887692483" lon="13.236335072051533"><ele>198.0</ele><time>2026-04-18T09:53:42Z</time></trkpt><trkpt lat="46.19623711371774" lon="13.236524093981863"><ele>198.0</ele><time>2026-04-18T09:53:43Z</time></trkpt><trkpt lat="46.19612588020253" lon="13.236698685576124"><ele>198.0</ele><time>2026-04-18T09:53:44Z</time></trkpt><trkpt lat="46.196025239580855" lon="13.236858591119766"><ele>198.0</ele><time>2026-04-18T09:53:45Z</time></trkpt><trkpt lat="46.1959466023926" lon="13.237009105593307"><ele>198.0</ele><time>2026-04-18T09:53:46Z</time></trkpt><trkpt lat="46.1958920705489" lon="13.237179078270902"><ele>198.0</ele><time>2026-04-18T09:53:47Z</time></trkpt><trkpt lat="46.19584419460793" lon="13.237389644556067"><ele>199.0</ele><time>2026-04-18T09:53:48Z</time></trkpt><trkpt lat="46.19581635300628" lon="13.237615414650552"><ele>200.0</ele><time>2026-04-18T09:53:49Z</time></trkpt><trkpt lat="46.195793510368105" lon="13.237821392776556"><ele>201.0</ele><time>2026-04-18T09:53:50Z</time></trkpt><trkpt lat="46.19577327645684" lon="13.23803647585587"><ele>201.33333333333331</ele><time>2026-04-18T09:53:51Z</time></trkpt><trkpt lat="46.19575253431418" lon="13.238267854660188"><ele>201.66666666666666</ele><time>2026-04-18T09:53:52Z</time></trkpt><trkpt lat="46.19573100518911" lon="13.238508012144822"><ele>202.0</ele><time>2026-04-18T09:53:53Z</time></trkpt><trkpt lat="46.19570991504252" lon="13.238758467034618"><ele>201.0</ele><time>2026-04-18T09:53:54Z</time></trkpt><trkpt lat="46.19569005126112" lon="13.239006862562373"><ele>200.0</ele><time>2026-04-18T09:53:55Z</time></trkpt><trkpt lat="46.19567303797541" lon="13.239255461860399"><ele>199.0</ele><time>2026-04-18T09:53:56Z</time></trkpt><trkpt lat="46.19567760669767" lon="13.239512002800199"><ele>199.0</ele><time>2026-04-18T09:53:57Z</time></trkpt><trkpt lat="46.19570397385775" lon="13.239772468717437"><ele>199.0</ele><time>2026-04-18T09:53:58Z</time></trkpt><trkpt lat="46.19573575465007" lon="13.240034745141715"><ele>199.0</ele><time>2026-04-18T09:53:59Z</time></trkpt><trkpt lat="46.195768686648854" lon="13.240307587633513"><ele>197.66666666666666</ele><time>2026-04-18T09:54:00Z</time></trkpt><trkpt lat="46.19580313065552" lon="13.240597768953009"><ele>196.33333333333331</ele><time>2026-04-18T09:54:01Z</time></trkpt><trkpt lat="46.19583885341265" lon="13.240898723403257"><ele>195.0</ele><time>2026-04-18T09:54:02Z</time></trkpt><trkpt lat="46.1958765518492" lon="13.241209795801566"><ele>195.0</ele><time>2026-04-18T09:54:03Z</time></trkpt><trkpt lat="46.19591368363094" lon="13.241512749128031"><ele>195.0</ele><time>2026-04-18T09:54:04Z</time></trkpt><trkpt lat="46.195949740771034" lon="13.241806934456388"><ele>195.0</ele><time>2026-04-18T09:54:05Z</time></trkpt><trkpt lat="46.19598412301402" lon="13.242092192193324"><ele>195.0</ele><time>2026-04-18T09:54:06Z</time></trkpt><trkpt lat="46.19601674061778" lon="13.242366391716507"><ele>195.0</ele><time>2026-04-18T09:54:07Z</time></trkpt><trkpt lat="46.19604502101108" lon="13.242628393620516"><ele>195.0</ele><time>2026-04-18T09:54:08Z</time></trkpt><trkpt lat="46.19605921062128" lon="13.242879919813367"><ele>195.0</ele><time>2026-04-18T09:54:09Z</time></trkpt><trkpt lat="46.196057845584946" lon="13.243123493641079"><ele>195.0</ele><time>2026-04-18T09:54:10Z</time></trkpt><trkpt lat="46.19604301278186" lon="13.243379919879064"><ele>195.0</ele><time>2026-04-18T09:54:11Z</time></trkpt><trkpt lat="46.19602047195225" lon="13.243652051532447"><ele>195.0</ele><time>2026-04-18T09:54:12Z</time></trkpt><trkpt lat="46.195999495916794" lon="13.24393555068257"><ele>195.0</ele><time>2026-04-18T09:54:13Z</time></trkpt><trkpt lat="46.19598605548779" lon="13.244233118188825"><ele>195.0</ele><time>2026-04-18T09:54:14Z</time></trkpt><trkpt lat="46.19598182958075" lon="13.244537027705583"><ele>195.33333333333331</ele><time>2026-04-18T09:54:15Z</time></trkpt><trkpt lat="46.19598253139287" lon="13.244848710344652"><ele>195.66666666666666</ele><time>2026-04-18T09:54:16Z</time></trkpt><trkpt lat="46.19598353114912" lon="13.245167052883497"><ele>196.0</ele><time>2026-04-18T09:54:17Z</time></trkpt><trkpt lat="46.195984572239915" lon="13.245479714803926"><ele>197.0</ele><time>2026-04-18T09:54:18Z</time></trkpt><trkpt lat="46.19598531986958" lon="13.24578501528668"><ele>198.0</ele><time>2026-04-18T09:54:19Z</time></trkpt><trkpt lat="46.19598230588248" lon="13.246090382426676"><ele>199.0</ele><time>2026-04-18T09:54:20Z</time></trkpt><trkpt lat="46.19596085766133" lon="13.246391596915313"><ele>199.5</ele><time>2026-04-18T09:54:21Z</time></trkpt><trkpt lat="46.19590057996499" lon="13.24669038126083"><ele>200.0</ele><time>2026-04-18T09:54:22Z</time></trkpt><trkpt lat="46.19581608361253" lon="13.247020978286722"><ele>202.5</ele><time>2026-04-18T09:54:23Z</time></trkpt><trkpt lat="46.195725871081606" lon="13.247369694575609"><ele>205.0</ele><time>2026-04-18T09:54:24Z</time></trkpt><trkpt lat="46.19563659642362" lon="13.247714597059286"><ele>198.5</ele><time>2026-04-18T09:54:25Z</time></trkpt><trkpt lat="46.1955504656257" lon="13.248049970320208"><ele>192.0</ele><time>2026-04-18T09:54:26Z</time></trkpt><trkpt lat="46.19547186027994" lon="13.248357203302886"><ele>192.0</ele><time>2026-04-18T09:54:27Z</time></trkpt><trkpt lat="46.19539941327169" lon="13.248640366102338"><ele>192.0</ele><time>2026-04-18T09:54:28Z</time></trkpt><trkpt lat="46.19533047225885" lon="13.24890982556342"><ele>192.0</ele><time>2026-04-18T09:54:29Z</time></trkpt><trkpt lat="46.19526021576504" lon="13.24918442663323"><ele>192.0</ele><time>2026-04-18T09:54:30Z</time></trkpt><trkpt lat="46.19518630266243" lon="13.249473900422553"><ele>192.0</ele><time>2026-04-18T09:54:31Z</time></trkpt><trkpt lat="46.19511205992878" lon="13.249760277110424"><ele>192.0</ele><time>2026-04-18T09:54:32Z</time></trkpt><trkpt lat="46.19503908590941" lon="13.25004120346808"><ele>192.0</ele><time>2026-04-18T09:54:33Z</time></trkpt><trkpt lat="46.19496666841864" lon="13.25031759459262"><ele>192.0</ele><time>2026-04-18T09:54:34Z</time></trkpt><trkpt lat="46.19489638280003" lon="13.250587129850206"><ele>192.0</ele><time>2026-04-18T09:54:35Z</time></trkpt><trkpt lat="46.19482836391049" lon="13.250848515663446"><ele>192.0</ele><time>2026-04-18T09:54:36Z</time></trkpt><trkpt lat="46.19476256570349" lon="13.251105039650206"><ele>192.0</ele><time>2026-04-18T09:54:37Z</time></trkpt><trkpt lat="46.194701178671714" lon="13.25136243950759"><ele>192.0</ele><time>2026-04-18T09:54:38Z</time></trkpt><trkpt lat="46.19465233313092" lon="13.251612745616166"><ele>192.0</ele><time>2026-04-18T09:54:39Z</time></trkpt><trkpt lat="46.19461694706168" lon="13.25185750721213"><ele>192.0</ele><time>2026-04-18T09:54:39.999Z</time></trkpt><trkpt lat="46.194592231160875" lon="13.252096111128502"><ele>192.0</ele><time>2026-04-18T09:54:40.999Z</time></trkpt><trkpt lat="46.19457822322145" lon="13.252332023457942"><ele>192.66666666666669</ele><time>2026-04-18T09:54:41.999Z</time></trkpt><trkpt lat="46.19458369604466" lon="13.252566920734068"><ele>193.33333333333334</ele><time>2026-04-18T09:54:42.999Z</time></trkpt><trkpt lat="46.19460180494997" lon="13.252807099597266"><ele>194.0</ele><time>2026-04-18T09:54:43.999Z</time></trkpt><trkpt lat="46.19462812884231" lon="13.253063854205214"><ele>194.0</ele><time>2026-04-18T09:54:44.999Z</time></trkpt><trkpt lat="46.19467564740332" lon="13.253312103559885"><ele>194.0</ele><time>2026-04-18T09:54:45.999Z</time></trkpt><trkpt lat="46.19472576678586" lon="13.253540697804008"><ele>194.0</ele><time>2026-04-18T09:54:46.999Z</time></trkpt><trkpt lat="46.19477590550715" lon="13.253753712265627"><ele>194.0</ele><time>2026-04-18T09:54:47.999Z</time></trkpt><trkpt lat="46.19483040144223" lon="13.253964338769903"><ele>194.0</ele><time>2026-04-18T09:54:48.999Z</time></trkpt><trkpt lat="46.19488622714856" lon="13.254174785306162"><ele>194.0</ele><time>2026-04-18T09:54:49.999Z</time></trkpt><trkpt lat="46.19493940781493" lon="13.25437254028285"><ele>194.0</ele><time>2026-04-18T09:54:50.999Z</time></trkpt><trkpt lat="46.194990853413756" lon="13.254554004544255"><ele>194.0</ele><time>2026-04-18T09:54:51.999Z</time></trkpt><trkpt lat="46.19503924849112" lon="13.254722645072517"><ele>194.0</ele><time>2026-04-18T09:54:52.999Z</time></trkpt><trkpt lat="46.19508642575247" lon="13.254889890274885"><ele>194.0</ele><time>2026-04-18T09:54:54Z</time></trkpt><trkpt lat="46.19513491809368" lon="13.255055313677268"><ele>194.25</ele><time>2026-04-18T09:54:55Z</time></trkpt><trkpt lat="46.195195330864166" lon="13.255216677187555"><ele>194.5</ele><time>2026-04-18T09:54:56Z</time></trkpt><trkpt lat="46.195284281139486" lon="13.255358469060871"><ele>194.75</ele><time>2026-04-18T09:54:57Z</time></trkpt><trkpt lat="46.19538655240931" lon="13.255476873516976"><ele>195.0</ele><time>2026-04-18T09:54:58Z</time></trkpt><trkpt lat="46.19549509140263" lon="13.255575023591867"><ele>195.75</ele><time>2026-04-18T09:54:59Z</time></trkpt><trkpt lat="46.19560383977975" lon="13.255670351118484"><ele>196.5</ele><time>2026-04-18T09:55:00Z</time></trkpt><trkpt lat="46.19570921376366" lon="13.255769725578487"><ele>197.25</ele><time>2026-04-18T09:55:01Z</time></trkpt><trkpt lat="46.195807691990694" lon="13.255882583231047"><ele>198.0</ele><time>2026-04-18T09:55:02Z</time></trkpt><trkpt lat="46.19589597438887" lon="13.256014892725759"><ele>198.25</ele><time>2026-04-18T09:55:03Z</time></trkpt><trkpt lat="46.195944325474215" lon="13.256194244998504"><ele>198.5</ele><time>2026-04-18T09:55:04Z</time></trkpt><trkpt lat="46.19597633527986" lon="13.256377742265906"><ele>198.75</ele><time>2026-04-18T09:55:05Z</time></trkpt><trkpt lat="46.19600876835993" lon="13.256544947744551"><ele>199.0</ele><time>2026-04-18T09:55:06Z</time></trkpt><trkpt lat="46.196033711328106" lon="13.256695840191366"><ele>199.2</ele><time>2026-04-18T09:55:07Z</time></trkpt><trkpt lat="46.196053908541046" lon="13.256841726971555"><ele>199.39999999999998</ele><time>2026-04-18T09:55:08Z</time></trkpt><trkpt lat="46.19606962789528" lon="13.256993090308876"><ele>199.6</ele><time>2026-04-18T09:55:09Z</time></trkpt><trkpt lat="46.196048735409526" lon="13.257160365699646"><ele>199.8</ele><time>2026-04-18T09:55:10Z</time></trkpt><trkpt lat="46.19602559447664" lon="13.257318490434269"><ele>200.0</ele><time>2026-04-18T09:55:11Z</time></trkpt><trkpt lat="46.19600593326762" lon="13.257486280966667"><ele>200.2</ele><time>2026-04-18T09:55:12Z</time></trkpt><trkpt lat="46.196006826514854" lon="13.257659615126224"><ele>200.4</ele><time>2026-04-18T09:55:13Z</time></trkpt><trkpt lat="46.195995674811066" lon="13.257811746564165"><ele>200.60000000000002</ele><time>2026-04-18T09:55:14Z</time></trkpt><trkpt lat="46.19598692102601" lon="13.25796730534122"><ele>200.8</ele><time>2026-04-18T09:55:15Z</time></trkpt><trkpt lat="46.19602411781639" lon="13.2581173318277"><ele>201.0</ele><time>2026-04-18T09:55:16Z</time></trkpt><trkpt lat="46.196071607889564" lon="13.258242962729394"><ele>201.60000000000002</ele><time>2026-04-18T09:55:17Z</time></trkpt><trkpt lat="46.19612839315137" lon="13.25836212142223"><ele>202.2</ele><time>2026-04-18T09:55:18Z</time></trkpt><trkpt lat="46.196193340292965" lon="13.258477705960791"><ele>202.8</ele><time>2026-04-18T09:55:19Z</time></trkpt><trkpt lat="46.196259435505134" lon="13.258594384709543"><ele>203.39999999999998</ele><time>2026-04-18T09:55:20Z</time></trkpt><trkpt lat="46.1963248212319" lon="13.258713311025945"><ele>204.0</ele><time>2026-04-18T09:55:21Z</time></trkpt><trkpt lat="46.19638144583003" lon="13.258838929275852"><ele>204.2</ele><time>2026-04-18T09:55:22Z</time></trkpt><trkpt lat="46.196404158971546" lon="13.258976582979773"><ele>204.39999999999998</ele><time>2026-04-18T09:55:23Z</time></trkpt><trkpt lat="46.1964042216605" lon="13.259125034888502"><ele>204.6</ele><time>2026-04-18T09:55:24Z</time></trkpt><trkpt lat="46.19640374101787" lon="13.259275145529195"><ele>204.8</ele><time>2026-04-18T09:55:25Z</time></trkpt><trkpt lat="46.19640291356894" lon="13.259436084491943"><ele>205.0</ele><time>2026-04-18T09:55:26Z</time></trkpt><trkpt lat="46.196403160088416" lon="13.259624749401945"><ele>204.5</ele><time>2026-04-18T09:55:27Z</time></trkpt><trkpt lat="46.19640519941031" lon="13.259826355477157"><ele>204.0</ele><time>2026-04-18T09:55:28Z</time></trkpt><trkpt lat="46.19640786099649" lon="13.260030487405473"><ele>203.5</ele><time>2026-04-18T09:55:29Z</time></trkpt><trkpt lat="46.19641095781118" lon="13.260215152818532"><ele>203.0</ele><time>2026-04-18T09:55:30Z</time></trkpt><trkpt lat="46.19641423731643" lon="13.260392652280705"><ele>203.0</ele><time>2026-04-18T09:55:31Z</time></trkpt><trkpt lat="46.196420236910946" lon="13.260569090289918"><ele>203.0</ele><time>2026-04-18T09:55:32Z</time></trkpt><trkpt lat="46.19643150572732" lon="13.260738878550768"><ele>203.0</ele><time>2026-04-18T09:55:33Z</time></trkpt><trkpt lat="46.19645825941712" lon="13.260905992551931"><ele>203.0</ele><time>2026-04-18T09:55:34Z</time></trkpt><trkpt lat="46.19649167408536" lon="13.261071572854242"><ele>203.0</ele><time>2026-04-18T09:55:35Z</time></trkpt><trkpt lat="46.19654218404434" lon="13.261227216416462"><ele>203.0</ele><time>2026-04-18T09:55:36Z</time></trkpt><trkpt lat="46.19660282847413" lon="13.261374417275535"><ele>203.0</ele><time>2026-04-18T09:55:37Z</time></trkpt><trkpt lat="46.19666652399979" lon="13.261516971293492"><ele>203.0</ele><time>2026-04-18T09:55:38Z</time></trkpt><trkpt lat="46.1967319596796" lon="13.261666094961043"><ele>203.25</ele><time>2026-04-18T09:55:39Z</time></trkpt><trkpt lat="46.19679835949499" lon="13.261819701678482"><ele>203.5</ele><time>2026-04-18T09:55:40Z</time></trkpt><trkpt lat="46.19686234987877" lon="13.26197717210835"><ele>203.75</ele><time>2026-04-18T09:55:41Z</time></trkpt><trkpt lat="46.19692111612343" lon="13.262147775587705"><ele>204.0</ele><time>2026-04-18T09:55:42Z</time></trkpt><trkpt lat="46.196974668739244" lon="13.262319670762054"><ele>204.2</ele><time>2026-04-18T09:55:43Z</time></trkpt><trkpt lat="46.19702089155347" lon="13.262473379652135"><ele>204.39999999999998</ele><time>2026-04-18T09:55:44Z</time></trkpt><trkpt lat="46.19706097880179" lon="13.262615080127974"><ele>204.6</ele><time>2026-04-18T09:55:45Z</time></trkpt><trkpt lat="46.19709722283478" lon="13.262751044961924"><ele>204.8</ele><time>2026-04-18T09:55:46Z</time></trkpt><trkpt lat="46.19713428398195" lon="13.262895103192173"><ele>205.0</ele><time>2026-04-18T09:55:47Z</time></trkpt><trkpt lat="46.19716350624304" lon="13.26304035581105"><ele>204.75</ele><time>2026-04-18T09:55:48Z</time></trkpt><trkpt lat="46.197180402771686" lon="13.263192415032707"><ele>204.5</ele><time>2026-04-18T09:55:49Z</time></trkpt><trkpt lat="46.19718589280468" lon="13.263349013658223"><ele>204.25</ele><time>2026-04-18T09:55:50Z</time></trkpt><trkpt lat="46.19718535313707" lon="13.263517568752881"><ele>204.0</ele><time>2026-04-18T09:55:51Z</time></trkpt><trkpt lat="46.197176191912874" lon="13.26369786171244"><ele>204.0</ele><time>2026-04-18T09:55:52Z</time></trkpt><trkpt lat="46.19716419155155" lon="13.26388376488719"><ele>204.0</ele><time>2026-04-18T09:55:53Z</time></trkpt><trkpt lat="46.19715100223409" lon="13.264069886270988"><ele>204.0</ele><time>2026-04-18T09:55:54Z</time></trkpt><trkpt lat="46.197140807978116" lon="13.264249751746108"><ele>204.0</ele><time>2026-04-18T09:55:55Z</time></trkpt><trkpt lat="46.19713769068773" lon="13.264421989132154"><ele>204.0</ele><time>2026-04-18T09:55:56Z</time></trkpt><trkpt lat="46.19715021805914" lon="13.2645864104214"><ele>204.0</ele><time>2026-04-18T09:55:57Z</time></trkpt><trkpt lat="46.19717749786996" lon="13.264743612976055"><ele>204.0</ele><time>2026-04-18T09:55:58Z</time></trkpt><trkpt lat="46.19720738660768" lon="13.264888420844311"><ele>204.0</ele><time>2026-04-18T09:55:59Z</time></trkpt><trkpt lat="46.19725534449032" lon="13.265007710987202"><ele>204.0</ele><time>2026-04-18T09:56:00Z</time></trkpt><trkpt lat="46.197284165908066" lon="13.265125653005184"><ele>204.0</ele><time>2026-04-18T09:56:01Z</time></trkpt><trkpt lat="46.197319649458485" lon="13.2652306089087"><ele>204.0</ele><time>2026-04-18T09:56:02Z</time></trkpt><trkpt lat="46.197352035242965" lon="13.265330165086745"><ele>204.0</ele><time>2026-04-18T09:56:03Z</time></trkpt><trkpt lat="46.19740500029186" lon="13.265400430915124"><ele>204.0</ele><time>2026-04-18T09:56:04Z</time></trkpt><trkpt lat="46.19748508801904" lon="13.26543998346904"><ele>204.0</ele><time>2026-04-18T09:56:05Z</time></trkpt><trkpt lat="46.197561595593356" lon="13.265469010159801"><ele>204.0</ele><time>2026-04-18T09:56:06Z</time></trkpt><trkpt lat="46.19764702329539" lon="13.265491063522044"><ele>204.0</ele><time>2026-04-18T09:56:07Z</time></trkpt><trkpt lat="46.19774020217421" lon="13.265505167946655"><ele>204.0</ele><time>2026-04-18T09:56:08Z</time></trkpt><trkpt lat="46.19783390876144" lon="13.265517373401778"><ele>204.0</ele><time>2026-04-18T09:56:09Z</time></trkpt><trkpt lat="46.197929448609656" lon="13.26547524029259"><ele>204.0</ele><time>2026-04-18T09:56:10Z</time></trkpt><trkpt lat="46.19802234055985" lon="13.265457139259981"><ele>204.0</ele><time>2026-04-18T09:56:11Z</time></trkpt><trkpt lat="46.19811300146605" lon="13.265441079719574"><ele>204.2</ele><time>2026-04-18T09:56:12Z</time></trkpt><trkpt lat="46.19820113380994" lon="13.26542136151794"><ele>204.39999999999998</ele><time>2026-04-18T09:56:13Z</time></trkpt><trkpt lat="46.19828684117636" lon="13.265400453496955"><ele>204.6</ele><time>2026-04-18T09:56:14Z</time></trkpt><trkpt lat="46.198378707831395" lon="13.265381629333882"><ele>204.8</ele><time>2026-04-18T09:56:15Z</time></trkpt><trkpt lat="46.19847898644162" lon="13.265358286466823"><ele>205.0</ele><time>2026-04-18T09:56:16Z</time></trkpt><trkpt lat="46.198580915361475" lon="13.265336791811224"><ele>205.0</ele><time>2026-04-18T09:56:17Z</time></trkpt><trkpt lat="46.198688608241845" lon="13.26531550167726"><ele>205.0</ele><time>2026-04-18T09:56:18Z</time></trkpt><trkpt lat="46.198800325305825" lon="13.26529692017291"><ele>205.0</ele><time>2026-04-18T09:56:19Z</time></trkpt><trkpt lat="46.19891597505383" lon="13.26527148860611"><ele>205.0</ele><time>2026-04-18T09:56:20Z</time></trkpt><trkpt lat="46.199031350813506" lon="13.26524718126346"><ele>205.2</ele><time>2026-04-18T09:56:21Z</time></trkpt><trkpt lat="46.19914419701098" lon="13.265229822697988"><ele>205.4</ele><time>2026-04-18T09:56:22Z</time></trkpt><trkpt lat="46.19925558864654" lon="13.265201532949543"><ele>205.60000000000002</ele><time>2026-04-18T09:56:23Z</time></trkpt><trkpt lat="46.1993653402409" lon="13.265178613404295"><ele>205.8</ele><time>2026-04-18T09:56:24Z</time></trkpt><trkpt lat="46.1994752005202" lon="13.265159071639147"><ele>206.0</ele><time>2026-04-18T09:56:25Z</time></trkpt><trkpt lat="46.1995758525963" lon="13.265141856998657"><ele>205.99999999999997</ele><time>2026-04-18T09:56:26Z</time></trkpt><trkpt lat="46.19966870277174" lon="13.265118811560106"><ele>206.0</ele><time>2026-04-18T09:56:27Z</time></trkpt><trkpt lat="46.19975097026781" lon="13.265102645975748"><ele>206.0</ele><time>2026-04-18T09:56:28Z</time></trkpt><trkpt lat="46.19982122095856" lon="13.265092250460446"><ele>206.0</ele><time>2026-04-18T09:56:29Z</time></trkpt><trkpt lat="46.19988678494332" lon="13.265083223413844"><ele>206.0</ele><time>2026-04-18T09:56:30Z</time></trkpt><trkpt lat="46.19995019616723" lon="13.265067742708851"><ele>205.99999999999997</ele><time>2026-04-18T09:56:31Z</time></trkpt><trkpt lat="46.20001274206553" lon="13.265049693777177"><ele>206.0</ele><time>2026-04-18T09:56:32Z</time></trkpt><trkpt lat="46.20012885820022" lon="13.26504362698913"><ele>206.4</ele><time>2026-04-18T09:56:34Z</time></trkpt><trkpt lat="46.200215138992746" lon="13.265121992439823"><ele>206.8</ele><time>2026-04-18T09:56:36Z</time></trkpt><trkpt lat="46.20025410343197" lon="13.265262574644204"><ele>207.20000000000002</ele><time>2026-04-18T09:56:38Z</time></trkpt><trkpt lat="46.2002494157526" lon="13.265443845713577"><ele>207.60000000000002</ele><time>2026-04-18T09:56:40Z</time></trkpt><trkpt lat="46.20022990520925" lon="13.265558833521851"><ele>208.0</ele><time>2026-04-18T09:56:41Z</time></trkpt><trkpt lat="46.20021351788217" lon="13.265687268874634"><ele>208.16666666666666</ele><time>2026-04-18T09:56:42Z</time></trkpt><trkpt lat="46.200199453414065" lon="13.265798259402423"><ele>208.33333333333331</ele><time>2026-04-18T09:56:42.999Z</time></trkpt><trkpt lat="46.20018328688236" lon="13.265913618915675"><ele>208.5</ele><time>2026-04-18T09:56:43.999Z</time></trkpt><trkpt lat="46.200163309447476" lon="13.266027490178002"><ele>208.66666666666669</ele><time>2026-04-18T09:56:44.999Z</time></trkpt><trkpt lat="46.20014138043536" lon="13.266144187325024"><ele>208.83333333333334</ele><time>2026-04-18T09:56:45.999Z</time></trkpt><trkpt lat="46.20012111667471" lon="13.26626496638822"><ele>209.0</ele><time>2026-04-18T09:56:46.999Z</time></trkpt><trkpt lat="46.200100992915985" lon="13.266387894595637"><ele>209.39999999999998</ele><time>2026-04-18T09:56:47.999Z</time></trkpt><trkpt lat="46.20008111704664" lon="13.266514110654088"><ele>209.8</ele><time>2026-04-18T09:56:48.999Z</time></trkpt><trkpt lat="46.200062510324784" lon="13.266648389773206"><ele>210.2</ele><time>2026-04-18T09:56:49.999Z</time></trkpt><trkpt lat="46.200040604586555" lon="13.26678931588844"><ele>210.60000000000002</ele><time>2026-04-18T09:56:50.999Z</time></trkpt><trkpt lat="46.20000328336751" lon="13.266932877512527"><ele>211.0</ele><time>2026-04-18T09:56:51.999Z</time></trkpt><trkpt lat="46.200005450715445" lon="13.267088668301032"><ele>211.0</ele><time>2026-04-18T09:56:52.999Z</time></trkpt><trkpt lat="46.1999798054614" lon="13.267245540539117"><ele>211.0</ele><time>2026-04-18T09:56:53.999Z</time></trkpt><trkpt lat="46.19997758125743" lon="13.267418204163363"><ele>211.0</ele><time>2026-04-18T09:56:54.999Z</time></trkpt><trkpt lat="46.19998017185951" lon="13.267605339390753"><ele>211.0</ele><time>2026-04-18T09:56:55.999Z</time></trkpt><trkpt lat="46.19998757780429" lon="13.267806267733683"><ele>210.5</ele><time>2026-04-18T09:56:56.999Z</time></trkpt><trkpt lat="46.199995223799476" lon="13.268013708782462"><ele>210.0</ele><time>2026-04-18T09:56:57.999Z</time></trkpt><trkpt lat="46.20000346388831" lon="13.268217674204172"><ele>209.5</ele><time>2026-04-18T09:56:58.999Z</time></trkpt><trkpt lat="46.200011039937756" lon="13.268408753090299"><ele>209.0</ele><time>2026-04-18T09:57:00Z</time></trkpt><trkpt lat="46.20002441104657" lon="13.268587835123924"><ele>208.75</ele><time>2026-04-18T09:57:01Z</time></trkpt><trkpt lat="46.20001107416678" lon="13.268767265148204"><ele>208.5</ele><time>2026-04-18T09:57:02Z</time></trkpt><trkpt lat="46.199997962348135" lon="13.26894248126399"><ele>208.25</ele><time>2026-04-18T09:57:03Z</time></trkpt><trkpt lat="46.199980796108015" lon="13.269119754569747"><ele>208.0</ele><time>2026-04-18T09:57:04Z</time></trkpt><trkpt lat="46.199973047457846" lon="13.269303811831426"><ele>207.25</ele><time>2026-04-18T09:57:05Z</time></trkpt><trkpt lat="46.19996996268421" lon="13.269480608182906"><ele>206.5</ele><time>2026-04-18T09:57:06Z</time></trkpt><trkpt lat="46.19997375014669" lon="13.269644601819085"><ele>205.75</ele><time>2026-04-18T09:57:07Z</time></trkpt><trkpt lat="46.19998706783319" lon="13.269805166789439"><ele>205.0</ele><time>2026-04-18T09:57:08Z</time></trkpt><trkpt lat="46.20000350538336" lon="13.269976434536476"><ele>204.0</ele><time>2026-04-18T09:57:09Z</time></trkpt><trkpt lat="46.20002503265121" lon="13.270149668933469"><ele>203.0</ele><time>2026-04-18T09:57:10Z</time></trkpt><trkpt lat="46.20003459691891" lon="13.270336090616532"><ele>202.0</ele><time>2026-04-18T09:57:11Z</time></trkpt><trkpt lat="46.20005833961739" lon="13.270516579607856"><ele>201.0</ele><time>2026-04-18T09:57:12Z</time></trkpt><trkpt lat="46.20008043183566" lon="13.270692265695724"><ele>200.5</ele><time>2026-04-18T09:57:13Z</time></trkpt><trkpt lat="46.20009894699048" lon="13.270869150533814"><ele>200.0</ele><time>2026-04-18T09:57:14Z</time></trkpt><trkpt lat="46.20011333426331" lon="13.27107107059368"><ele>199.5</ele><time>2026-04-18T09:57:15Z</time></trkpt><trkpt lat="46.20012406001842" lon="13.271291826993949"><ele>199.0</ele><time>2026-04-18T09:57:16Z</time></trkpt><trkpt lat="46.20013518398095" lon="13.271522761497689"><ele>198.33333333333331</ele><time>2026-04-18T09:57:17Z</time></trkpt><trkpt lat="46.20014576992258" lon="13.271753068254233"><ele>197.66666666666669</ele><time>2026-04-18T09:57:18Z</time></trkpt><trkpt lat="46.20015624207494" lon="13.271980899421672"><ele>197.0</ele><time>2026-04-18T09:57:19Z</time></trkpt><trkpt lat="46.200167146404034" lon="13.272218132950362"><ele>197.0</ele><time>2026-04-18T09:57:20Z</time></trkpt><trkpt lat="46.20017895616463" lon="13.272466783142997"><ele>197.0</ele><time>2026-04-18T09:57:21Z</time></trkpt><trkpt lat="46.200191229954875" lon="13.272724815716353"><ele>197.0</ele><time>2026-04-18T09:57:22Z</time></trkpt><trkpt lat="46.20020494622288" lon="13.273004745556062"><ele>198.0</ele><time>2026-04-18T09:57:23Z</time></trkpt><trkpt lat="46.20021809766602" lon="13.273266283046492"><ele>199.0</ele><time>2026-04-18T09:57:24Z</time></trkpt><trkpt lat="46.200229648069445" lon="13.273494929492376"><ele>200.0</ele><time>2026-04-18T09:57:25Z</time></trkpt><trkpt lat="46.20023983572648" lon="13.27369732553562"><ele>200.0</ele><time>2026-04-18T09:57:26Z</time></trkpt><trkpt lat="46.20024943960039" lon="13.273888594554007"><ele>200.0</ele><time>2026-04-18T09:57:27Z</time></trkpt><trkpt lat="46.20025880249951" lon="13.274075064356039"><ele>200.0</ele><time>2026-04-18T09:57:28Z</time></trkpt><trkpt lat="46.20026734630545" lon="13.274243735493865"><ele>200.0</ele><time>2026-04-18T09:57:29Z</time></trkpt><trkpt lat="46.200274803575276" lon="13.274389371553458"><ele>200.83333333333334</ele><time>2026-04-18T09:57:30Z</time></trkpt><trkpt lat="46.200281574955156" lon="13.274521612576756"><ele>201.66666666666669</ele><time>2026-04-18T09:57:31Z</time></trkpt><trkpt lat="46.2002876424768" lon="13.274640107506723"><ele>202.5</ele><time>2026-04-18T09:57:32Z</time></trkpt><trkpt lat="46.20030654587237" lon="13.27477092784519"><ele>203.33333333333331</ele><time>2026-04-18T09:57:33Z</time></trkpt><trkpt lat="46.20035223641355" lon="13.27487997180053"><ele>204.16666666666666</ele><time>2026-04-18T09:57:34Z</time></trkpt><trkpt lat="46.20038841925699" lon="13.274997935534037"><ele>205.0</ele><time>2026-04-18T09:57:35Z</time></trkpt><trkpt lat="46.200413484276076" lon="13.275117668546965"><ele>205.99999999999997</ele><time>2026-04-18T09:57:36Z</time></trkpt><trkpt lat="46.20043537532182" lon="13.27522765915348"><ele>207.0</ele><time>2026-04-18T09:57:37Z</time></trkpt><trkpt lat="46.20042894650684" lon="13.27534806742511"><ele>208.0</ele><time>2026-04-18T09:57:38Z</time></trkpt><trkpt lat="46.200415996727564" lon="13.275456529158928"><ele>209.0</ele><time>2026-04-18T09:57:39Z</time></trkpt><trkpt lat="46.2003811971268" lon="13.275566379160255"><ele>209.99999999999997</ele><time>2026-04-18T09:57:40Z</time></trkpt><trkpt lat="46.20037137843992" lon="13.275686115038805"><ele>211.0</ele><time>2026-04-18T09:57:41Z</time></trkpt><trkpt lat="46.200375243005674" lon="13.275820301565028"><ele>211.0</ele><time>2026-04-18T09:57:42Z</time></trkpt><trkpt lat="46.20039330353084" lon="13.275971305155183"><ele>211.0</ele><time>2026-04-18T09:57:43Z</time></trkpt><trkpt lat="46.200431669756725" lon="13.276136857086234"><ele>211.0</ele><time>2026-04-18T09:57:44Z</time></trkpt><trkpt lat="46.20047050976234" lon="13.276300787576067"><ele>211.0</ele><time>2026-04-18T09:57:45Z</time></trkpt><trkpt lat="46.200511689134885" lon="13.276475525540757"><ele>210.5</ele><time>2026-04-18T09:57:46Z</time></trkpt><trkpt lat="46.20055104511708" lon="13.276642042664811"><ele>210.0</ele><time>2026-04-18T09:57:47Z</time></trkpt><trkpt lat="46.20058926176942" lon="13.276803495297877"><ele>209.5</ele><time>2026-04-18T09:57:48Z</time></trkpt><trkpt lat="46.200631230025444" lon="13.27698079721722"><ele>209.0</ele><time>2026-04-18T09:57:49Z</time></trkpt><trkpt lat="46.200676483716876" lon="13.277171978989152"><ele>210.75</ele><time>2026-04-18T09:57:50Z</time></trkpt><trkpt lat="46.200720995121834" lon="13.2773639106611"><ele>212.5</ele><time>2026-04-18T09:57:51Z</time></trkpt><trkpt lat="46.20076139161418" lon="13.277541344495457"><ele>214.25</ele><time>2026-04-18T09:57:52Z</time></trkpt><trkpt lat="46.200800312789454" lon="13.277715272864787"><ele>216.0</ele><time>2026-04-18T09:57:53Z</time></trkpt><trkpt lat="46.200836728670915" lon="13.277898681640137"><ele>216.0</ele><time>2026-04-18T09:57:54Z</time></trkpt><trkpt lat="46.200866393020775" lon="13.278092713480811"><ele>216.0</ele><time>2026-04-18T09:57:55Z</time></trkpt><trkpt lat="46.200903426045116" lon="13.27830421202661"><ele>216.0</ele><time>2026-04-18T09:57:56Z</time></trkpt><trkpt lat="46.20092033852872" lon="13.278540960888998"><ele>214.5</ele><time>2026-04-18T09:57:57Z</time></trkpt><trkpt lat="46.20092155209537" lon="13.278817491155205"><ele>213.0</ele><time>2026-04-18T09:57:58Z</time></trkpt><trkpt lat="46.20094113293996" lon="13.279197821773849"><ele>211.0</ele><time>2026-04-18T09:57:59Z</time></trkpt><trkpt lat="46.20096565581788" lon="13.279620097419254"><ele>209.0</ele><time>2026-04-18T09:58:00Z</time></trkpt><trkpt lat="46.200987500924406" lon="13.27999432186222"><ele>208.66666666666669</ele><time>2026-04-18T09:58:01Z</time></trkpt><trkpt lat="46.20100639465453" lon="13.280326275395158"><ele>208.33333333333331</ele><time>2026-04-18T09:58:02Z</time></trkpt><trkpt lat="46.201023540687586" lon="13.28063159296756"><ele>208.0</ele><time>2026-04-18T09:58:03Z</time></trkpt><trkpt lat="46.20103926971433" lon="13.28093873693045"><ele>208.0</ele><time>2026-04-18T09:58:04Z</time></trkpt><trkpt lat="46.2010501201352" lon="13.281254499589972"><ele>208.0</ele><time>2026-04-18T09:58:05Z</time></trkpt><trkpt lat="46.20105782583723" lon="13.281579265035587"><ele>208.0</ele><time>2026-04-18T09:58:06Z</time></trkpt><trkpt lat="46.201063029609564" lon="13.281917685653092"><ele>209.5</ele><time>2026-04-18T09:58:07Z</time></trkpt><trkpt lat="46.201075123825916" lon="13.282281044885861"><ele>211.0</ele><time>2026-04-18T09:58:08Z</time></trkpt><trkpt lat="46.2011062940162" lon="13.282679528048599"><ele>211.0</ele><time>2026-04-18T09:58:09Z</time></trkpt><trkpt lat="46.20113836344453" lon="13.283048060326182"><ele>211.0</ele><time>2026-04-18T09:58:10Z</time></trkpt><trkpt lat="46.20116765018059" lon="13.283376682938886"><ele>212.66666666666666</ele><time>2026-04-18T09:58:11Z</time></trkpt><trkpt lat="46.201193817683674" lon="13.2836687656382"><ele>214.33333333333331</ele><time>2026-04-18T09:58:12Z</time></trkpt><trkpt lat="46.20121929823273" lon="13.28395318037503"><ele>216.0</ele><time>2026-04-18T09:58:13Z</time></trkpt><trkpt lat="46.20124557924774" lon="13.284244692359305"><ele>216.33333333333331</ele><time>2026-04-18T09:58:14Z</time></trkpt><trkpt lat="46.20127212161955" lon="13.284542502066117"><ele>216.66666666666666</ele><time>2026-04-18T09:58:15Z</time></trkpt><trkpt lat="46.201298799283734" lon="13.284839952271282"><ele>217.0</ele><time>2026-04-18T09:58:16Z</time></trkpt><trkpt lat="46.201323127601896" lon="13.28509907812968"><ele>217.0</ele><time>2026-04-18T09:58:17Z</time></trkpt><trkpt lat="46.20136039139871" lon="13.285336068643108"><ele>217.0</ele><time>2026-04-18T09:58:18Z</time></trkpt><trkpt lat="46.20136216971634" lon="13.285562395968945"><ele>217.0</ele><time>2026-04-18T09:58:19Z</time></trkpt><trkpt lat="46.20137759370004" lon="13.285778565561994"><ele>216.66666666666666</ele><time>2026-04-18T09:58:20Z</time></trkpt><trkpt lat="46.201338018825105" lon="13.286000263455053"><ele>216.33333333333331</ele><time>2026-04-18T09:58:21Z</time></trkpt><trkpt lat="46.20124827823483" lon="13.286182846123488"><ele>216.0</ele><time>2026-04-18T09:58:22Z</time></trkpt><trkpt lat="46.20118442153248" lon="13.286364846999737"><ele>216.33333333333331</ele><time>2026-04-18T09:58:23Z</time></trkpt><trkpt lat="46.20109699994434" lon="13.286549602648543"><ele>216.66666666666666</ele><time>2026-04-18T09:58:24Z</time></trkpt><trkpt lat="46.201011377226784" lon="13.286746037952076"><ele>217.0</ele><time>2026-04-18T09:58:25Z</time></trkpt><trkpt lat="46.2009252802975" lon="13.286940976091604"><ele>217.0</ele><time>2026-04-18T09:58:26Z</time></trkpt><trkpt lat="46.200837002055046" lon="13.287145124859146"><ele>217.0</ele><time>2026-04-18T09:58:27Z</time></trkpt><trkpt lat="46.20074477062467" lon="13.28736023289718"><ele>217.0</ele><time>2026-04-18T09:58:28Z</time></trkpt><trkpt lat="46.200654397421296" lon="13.287566893499287"><ele>218.75</ele><time>2026-04-18T09:58:29Z</time></trkpt><trkpt lat="46.20056927120157" lon="13.28776268877028"><ele>220.5</ele><time>2026-04-18T09:58:30Z</time></trkpt><trkpt lat="46.20048803880487" lon="13.28794340480224"><ele>222.25</ele><time>2026-04-18T09:58:31Z</time></trkpt><trkpt lat="46.20040225249417" lon="13.288103252306817"><ele>224.0</ele><time>2026-04-18T09:58:32Z</time></trkpt><trkpt lat="46.20030287535278" lon="13.288233624117774"><ele>226.5</ele><time>2026-04-18T09:58:33Z</time></trkpt><trkpt lat="46.20018526971246" lon="13.288333978847797"><ele>229.0</ele><time>2026-04-18T09:58:34Z</time></trkpt><trkpt lat="46.200044536461455" lon="13.288403611977184"><ele>231.5</ele><time>2026-04-18T09:58:35Z</time></trkpt><trkpt lat="46.1998946470645" lon="13.288435551214945"><ele>234.0</ele><time>2026-04-18T09:58:36Z</time></trkpt><trkpt lat="46.19974857887177" lon="13.288442808201907"><ele>234.5</ele><time>2026-04-18T09:58:37Z</time></trkpt><trkpt lat="46.199615065763254" lon="13.288455578745227"><ele>235.0</ele><time>2026-04-18T09:58:38Z</time></trkpt><trkpt lat="46.19950307348709" lon="13.28850914903108"><ele>235.5</ele><time>2026-04-18T09:58:39Z</time></trkpt><trkpt lat="46.19939985947681" lon="13.288603480369359"><ele>236.0</ele><time>2026-04-18T09:58:40Z</time></trkpt><trkpt lat="46.199313566530485" lon="13.288733495598917"><ele>236.0</ele><time>2026-04-18T09:58:41Z</time></trkpt><trkpt lat="46.19924393751555" lon="13.2888983688947"><ele>236.0</ele><time>2026-04-18T09:58:42Z</time></trkpt><trkpt lat="46.19917696686901" lon="13.289072815109895"><ele>236.0</ele><time>2026-04-18T09:58:42.999Z</time></trkpt><trkpt lat="46.199086201097245" lon="13.289242068089482"><ele>236.0</ele><time>2026-04-18T09:58:43.999Z</time></trkpt><trkpt lat="46.1989944512441" lon="13.289397677861034"><ele>240.60000000000002</ele><time>2026-04-18T09:58:44.999Z</time></trkpt><trkpt lat="46.19891918308482" lon="13.289523621239832"><ele>245.20000000000002</ele><time>2026-04-18T09:58:45.999Z</time></trkpt><trkpt lat="46.19884358931846" lon="13.28964364796072"><ele>249.79999999999998</ele><time>2026-04-18T09:58:46.999Z</time></trkpt><trkpt lat="46.198755762962755" lon="13.289715459602453"><ele>254.39999999999998</ele><time>2026-04-18T09:58:47.999Z</time></trkpt><trkpt lat="46.198647051704675" lon="13.289716390233693"><ele>259.0</ele><time>2026-04-18T09:58:48.999Z</time></trkpt><trkpt lat="46.19854596192009" lon="13.28964070208986"><ele>259.0</ele><time>2026-04-18T09:58:49.999Z</time></trkpt><trkpt lat="46.1984842703718" lon="13.289509283732198"><ele>259.0</ele><time>2026-04-18T09:58:50.999Z</time></trkpt><trkpt lat="46.19847576387989" lon="13.289376203049247"><ele>259.0</ele><time>2026-04-18T09:58:51.999Z</time></trkpt><trkpt lat="46.1984831177052" lon="13.28924321632611"><ele>259.0</ele><time>2026-04-18T09:58:52.999Z</time></trkpt><trkpt lat="46.19845119330397" lon="13.289105640932718"><ele>259.0</ele><time>2026-04-18T09:58:53.999Z</time></trkpt><trkpt lat="46.19837759540758" lon="13.288989175162504"><ele>259.0</ele><time>2026-04-18T09:58:54.999Z</time></trkpt><trkpt lat="46.19828616069174" lon="13.288929149546583"><ele>259.0</ele><time>2026-04-18T09:58:55.999Z</time></trkpt><trkpt lat="46.19818810516169" lon="13.288908252959928"><ele>259.0</ele><time>2026-04-18T09:58:56.999Z</time></trkpt><trkpt lat="46.19807912175014" lon="13.288887909910615"><ele>259.0</ele><time>2026-04-18T09:58:57.999Z</time></trkpt><trkpt lat="46.19796673344074" lon="13.28886715211818"><ele>259.0</ele><time>2026-04-18T09:58:58.999Z</time></trkpt><trkpt lat="46.197850521481854" lon="13.28884590133457"><ele>259.59999999999997</ele><time>2026-04-18T09:58:59.999Z</time></trkpt><trkpt lat="46.19774045305238" lon="13.28883139239509"><ele>260.2</ele><time>2026-04-18T09:59:00.999Z</time></trkpt><trkpt lat="46.19763097985404" lon="13.288845204557662"><ele>260.79999999999995</ele><time>2026-04-18T09:59:01.999Z</time></trkpt><trkpt lat="46.197530839531915" lon="13.28890954255587"><ele>261.4</ele><time>2026-04-18T09:59:02.999Z</time></trkpt><trkpt lat="46.197442103793755" lon="13.28901037230422"><ele>262.0</ele><time>2026-04-18T09:59:03.999Z</time></trkpt><trkpt lat="46.197366528440575" lon="13.289125142543412"><ele>264.25</ele><time>2026-04-18T09:59:04.999Z</time></trkpt><trkpt lat="46.19728403561811" lon="13.289242367702807"><ele>266.5</ele><time>2026-04-18T09:59:06Z</time></trkpt><trkpt lat="46.1971880872395" lon="13.289370708094063"><ele>268.75</ele><time>2026-04-18T09:59:07Z</time></trkpt><trkpt lat="46.19708293768782" lon="13.289514591430406"><ele>271.0</ele><time>2026-04-18T09:59:08Z</time></trkpt><trkpt lat="46.196987128283915" lon="13.289647517104386"><ele>268.40000000000003</ele><time>2026-04-18T09:59:09Z</time></trkpt><trkpt lat="46.196909715325084" lon="13.289773279684438"><ele>265.8</ele><time>2026-04-18T09:59:10Z</time></trkpt><trkpt lat="46.19685208037682" lon="13.289913446208956"><ele>263.20000000000005</ele><time>2026-04-18T09:59:11Z</time></trkpt><trkpt lat="46.196829366157814" lon="13.290061455771221"><ele>260.6</ele><time>2026-04-18T09:59:12Z</time></trkpt><trkpt lat="46.196817805267706" lon="13.290201560335438"><ele>258.0</ele><time>2026-04-18T09:59:13Z</time></trkpt><trkpt lat="46.196843559652635" lon="13.290336239023544"><ele>258.0</ele><time>2026-04-18T09:59:14Z</time></trkpt><trkpt lat="46.19688994768865" lon="13.290458259248382"><ele>258.0</ele><time>2026-04-18T09:59:15Z</time></trkpt><trkpt lat="46.19696574446325" lon="13.290575312293772"><ele>258.0</ele><time>2026-04-18T09:59:16Z</time></trkpt><trkpt lat="46.19707101733922" lon="13.290668144428144"><ele>258.0</ele><time>2026-04-18T09:59:17Z</time></trkpt><trkpt lat="46.197167920767406" lon="13.29076287349426"><ele>258.0</ele><time>2026-04-18T09:59:18Z</time></trkpt><trkpt lat="46.197259354115594" lon="13.290879302571389"><ele>256.25</ele><time>2026-04-18T09:59:19Z</time></trkpt><trkpt lat="46.19732923494954" lon="13.291022645053374"><ele>254.5</ele><time>2026-04-18T09:59:20Z</time></trkpt><trkpt lat="46.197398614095434" lon="13.291168943912929"><ele>252.75</ele><time>2026-04-18T09:59:21Z</time></trkpt><trkpt lat="46.197435934599525" lon="13.291325781009524"><ele>251.0</ele><time>2026-04-18T09:59:22Z</time></trkpt><trkpt lat="46.19749785494933" lon="13.291450538384709"><ele>251.0</ele><time>2026-04-18T09:59:23Z</time></trkpt><trkpt lat="46.19758633545169" lon="13.291550017643361"><ele>251.0</ele><time>2026-04-18T09:59:24Z</time></trkpt><trkpt lat="46.197672328041115" lon="13.291682821925058"><ele>251.0</ele><time>2026-04-18T09:59:25Z</time></trkpt><trkpt lat="46.19778034705931" lon="13.29178390145485"><ele>251.0</ele><time>2026-04-18T09:59:26Z</time></trkpt><trkpt lat="46.19789443611488" lon="13.291888242908227"><ele>251.0</ele><time>2026-04-18T09:59:27Z</time></trkpt><trkpt lat="46.198013928638076" lon="13.291998234495972"><ele>251.0</ele><time>2026-04-18T09:59:28Z</time></trkpt><trkpt lat="46.198130660300606" lon="13.292106820603767"><ele>251.0</ele><time>2026-04-18T09:59:29Z</time></trkpt><trkpt lat="46.19823458378594" lon="13.292202328429614"><ele>251.0</ele><time>2026-04-18T09:59:30Z</time></trkpt><trkpt lat="46.19833441702885" lon="13.292287176304118"><ele>253.20000000000002</ele><time>2026-04-18T09:59:31Z</time></trkpt><trkpt lat="46.19842540060215" lon="13.292361604400902"><ele>255.40000000000003</ele><time>2026-04-18T09:59:32Z</time></trkpt><trkpt lat="46.19850052571735" lon="13.29245085021352"><ele>257.6</ele><time>2026-04-18T09:59:33Z</time></trkpt><trkpt lat="46.19855913744782" lon="13.292552455111743"><ele>259.8</ele><time>2026-04-18T09:59:34Z</time></trkpt><trkpt lat="46.19855711213585" lon="13.29268443299108"><ele>262.0</ele><time>2026-04-18T09:59:35Z</time></trkpt><trkpt lat="46.19850716247216" lon="13.292809220876821"><ele>262.0</ele><time>2026-04-18T09:59:36Z</time></trkpt><trkpt lat="46.198428215855465" lon="13.292882138671107"><ele>262.0</ele><time>2026-04-18T09:59:37Z</time></trkpt><trkpt lat="46.198336924252786" lon="13.292898265108855"><ele>262.0</ele><time>2026-04-18T09:59:38Z</time></trkpt><trkpt lat="46.19825089897228" lon="13.292870796245287"><ele>262.0</ele><time>2026-04-18T09:59:39Z</time></trkpt><trkpt lat="46.19816802334624" lon="13.292799755852757"><ele>262.0</ele><time>2026-04-18T09:59:40Z</time></trkpt><trkpt lat="46.198072183173224" lon="13.29273220485721"><ele>258.0</ele><time>2026-04-18T09:59:41Z</time></trkpt><trkpt lat="46.1979519720861" lon="13.292683913795248"><ele>254.0</ele><time>2026-04-18T09:59:42Z</time></trkpt><trkpt lat="46.19781090480609" lon="13.292650057663181"><ele>250.0</ele><time>2026-04-18T09:59:43Z</time></trkpt><trkpt lat="46.19765031731422" lon="13.292632012025491"><ele>246.0</ele><time>2026-04-18T09:59:44Z</time></trkpt><trkpt lat="46.19748333830822" lon="13.292618230034616"><ele>241.25</ele><time>2026-04-18T09:59:45Z</time></trkpt><trkpt lat="46.19732124847925" lon="13.292594406488371"><ele>236.5</ele><time>2026-04-18T09:59:46Z</time></trkpt><trkpt lat="46.197176561957306" lon="13.292578898934416"><ele>231.75</ele><time>2026-04-18T09:59:47Z</time></trkpt><trkpt lat="46.197046663672616" lon="13.292577374218023"><ele>227.0</ele><time>2026-04-18T09:59:48Z</time></trkpt><trkpt lat="46.19692972713204" lon="13.292592476517417"><ele>227.0</ele><time>2026-04-18T09:59:49Z</time></trkpt><trkpt lat="46.19681615572939" lon="13.292629302857854"><ele>227.0</ele><time>2026-04-18T09:59:50Z</time></trkpt><trkpt lat="46.19671646514011" lon="13.292705150088283"><ele>227.0</ele><time>2026-04-18T09:59:51Z</time></trkpt><trkpt lat="46.19664825185005" lon="13.292815014877398"><ele>227.0</ele><time>2026-04-18T09:59:52Z</time></trkpt><trkpt lat="46.19661001108045" lon="13.292954218169818"><ele>227.0</ele><time>2026-04-18T09:59:53Z</time></trkpt><trkpt lat="46.19660141510636" lon="13.293115379668565"><ele>225.5</ele><time>2026-04-18T09:59:54Z</time></trkpt><trkpt lat="46.19660019808774" lon="13.29328021804212"><ele>224.0</ele><time>2026-04-18T09:59:55Z</time></trkpt><trkpt lat="46.19657641250862" lon="13.293436572445097"><ele>222.5</ele><time>2026-04-18T09:59:56Z</time></trkpt><trkpt lat="46.19650539585846" lon="13.293582893218051"><ele>221.0</ele><time>2026-04-18T09:59:57Z</time></trkpt><trkpt lat="46.1964246938328" lon="13.29369773111216"><ele>221.0</ele><time>2026-04-18T09:59:58Z</time></trkpt><trkpt lat="46.196381569175905" lon="13.293815688045786"><ele>221.00000000000003</ele><time>2026-04-18T09:59:59Z</time></trkpt><trkpt lat="46.19637939781015" lon="13.293951750699758"><ele>221.00000000000003</ele><time>2026-04-18T10:00:00Z</time></trkpt><trkpt lat="46.19642245630092" lon="13.294072605739492"><ele>221.0</ele><time>2026-04-18T10:00:01Z</time></trkpt><trkpt lat="46.19649089615746" lon="13.294166881647124"><ele>221.0</ele><time>2026-04-18T10:00:02Z</time></trkpt><trkpt lat="46.196570828044365" lon="13.294226403756184"><ele>220.00000000000003</ele><time>2026-04-18T10:00:03Z</time></trkpt><trkpt lat="46.19664265531864" lon="13.294292102899654"><ele>219.0</ele><time>2026-04-18T10:00:04Z</time></trkpt><trkpt lat="46.19667890874479" lon="13.294394494333012"><ele>218.0</ele><time>2026-04-18T10:00:05Z</time></trkpt><trkpt lat="46.196675296596936" lon="13.294527706026448"><ele>217.0</ele><time>2026-04-18T10:00:06Z</time></trkpt><trkpt lat="46.19661913866063" lon="13.294637222073076"><ele>216.00000000000003</ele><time>2026-04-18T10:00:07Z</time></trkpt><trkpt lat="46.19653369659569" lon="13.29468878341413"><ele>215.0</ele><time>2026-04-18T10:00:08Z</time></trkpt><trkpt lat="46.19643283448569" lon="13.294683235267605"><ele>215.0</ele><time>2026-04-18T10:00:09Z</time></trkpt><trkpt lat="46.196342918593935" lon="13.294632987856978"><ele>215.0</ele><time>2026-04-18T10:00:10Z</time></trkpt><trkpt lat="46.19625134542678" lon="13.29458807480085"><ele>215.0</ele><time>2026-04-18T10:00:11Z</time></trkpt><trkpt lat="46.19615538575213" lon="13.294596561621795"><ele>215.0</ele><time>2026-04-18T10:00:12Z</time></trkpt><trkpt lat="46.19606655621129" lon="13.294645365914224"><ele>215.0</ele><time>2026-04-18T10:00:13Z</time></trkpt><trkpt lat="46.19598979089469" lon="13.294721758801527"><ele>214.2</ele><time>2026-04-18T10:00:14Z</time></trkpt><trkpt lat="46.19592437434754" lon="13.294822328189468"><ele>213.4</ele><time>2026-04-18T10:00:15Z</time></trkpt><trkpt lat="46.195877996654346" lon="13.294948720305454"><ele>212.60000000000002</ele><time>2026-04-18T10:00:16Z</time></trkpt><trkpt lat="46.19584938154475" lon="13.295099951984737"><ele>211.8</ele><time>2026-04-18T10:00:17Z</time></trkpt><trkpt lat="46.19584274439081" lon="13.295275150225285"><ele>211.0</ele><time>2026-04-18T10:00:18Z</time></trkpt><trkpt lat="46.19585033268863" lon="13.295476687425806"><ele>210.0</ele><time>2026-04-18T10:00:19Z</time></trkpt><trkpt lat="46.195856898492025" lon="13.295706772108048"><ele>209.0</ele><time>2026-04-18T10:00:20Z</time></trkpt><trkpt lat="46.19584846453549" lon="13.295955848078973"><ele>208.0</ele><time>2026-04-18T10:00:21Z</time></trkpt><trkpt lat="46.19583297030417" lon="13.296217782892848"><ele>206.66666666666666</ele><time>2026-04-18T10:00:22Z</time></trkpt><trkpt lat="46.195803171557856" lon="13.296457773743247"><ele>205.33333333333331</ele><time>2026-04-18T10:00:23Z</time></trkpt><trkpt lat="46.1957553633274" lon="13.296687375629212"><ele>204.0</ele><time>2026-04-18T10:00:24Z</time></trkpt><trkpt lat="46.19569652981355" lon="13.296911085824417"><ele>203.66666666666669</ele><time>2026-04-18T10:00:25Z</time></trkpt><trkpt lat="46.195627491556905" lon="13.297136205352242"><ele>203.33333333333334</ele><time>2026-04-18T10:00:26Z</time></trkpt><trkpt lat="46.195548821519466" lon="13.297352660958975"><ele>203.0</ele><time>2026-04-18T10:00:27Z</time></trkpt><trkpt lat="46.195464678325564" lon="13.297554403947307"><ele>203.0</ele><time>2026-04-18T10:00:28Z</time></trkpt><trkpt lat="46.195381540693425" lon="13.29774770578812"><ele>203.0</ele><time>2026-04-18T10:00:29Z</time></trkpt><trkpt lat="46.19530265231112" lon="13.297936403194013"><ele>203.0</ele><time>2026-04-18T10:00:30Z</time></trkpt><trkpt lat="46.195220429758145" lon="13.298136031062969"><ele>203.66666666666669</ele><time>2026-04-18T10:00:31Z</time></trkpt><trkpt lat="46.19513059214772" lon="13.298354653668177"><ele>204.33333333333331</ele><time>2026-04-18T10:00:32Z</time></trkpt><trkpt lat="46.19503674989238" lon="13.298584066791564"><ele>205.0</ele><time>2026-04-18T10:00:33Z</time></trkpt><trkpt lat="46.19493813067577" lon="13.298829172358733"><ele>205.33333333333331</ele><time>2026-04-18T10:00:34Z</time></trkpt><trkpt lat="46.19482767170428" lon="13.299089837764692"><ele>205.66666666666669</ele><time>2026-04-18T10:00:35Z</time></trkpt><trkpt lat="46.194709373612554" lon="13.299367796994009"><ele>206.0</ele><time>2026-04-18T10:00:36Z</time></trkpt><trkpt lat="46.19458955686856" lon="13.299647927506028"><ele>203.33333333333334</ele><time>2026-04-18T10:00:37Z</time></trkpt><trkpt lat="46.19446550387168" lon="13.299914026783066"><ele>200.66666666666669</ele><time>2026-04-18T10:00:38Z</time></trkpt><trkpt lat="46.19433060640648" lon="13.300166520749046"><ele>198.0</ele><time>2026-04-18T10:00:39Z</time></trkpt><trkpt lat="46.194186355908464" lon="13.300395306987255"><ele>198.33333333333331</ele><time>2026-04-18T10:00:39.999Z</time></trkpt><trkpt lat="46.194040148336285" lon="13.300595005881396"><ele>198.66666666666666</ele><time>2026-04-18T10:00:40.999Z</time></trkpt><trkpt lat="46.1938945317572" lon="13.300767323373151"><ele>199.0</ele><time>2026-04-18T10:00:41.999Z</time></trkpt><trkpt lat="46.19375730095253" lon="13.300911563799664"><ele>199.0</ele><time>2026-04-18T10:00:42.999Z</time></trkpt><trkpt lat="46.19363253158446" lon="13.30104510461518"><ele>199.0</ele><time>2026-04-18T10:00:43.999Z</time></trkpt><trkpt lat="46.19350974655141" lon="13.30118001891112"><ele>199.0</ele><time>2026-04-18T10:00:44.999Z</time></trkpt><trkpt lat="46.19339034067321" lon="13.301308009111755"><ele>197.33333333333331</ele><time>2026-04-18T10:00:45.999Z</time></trkpt><trkpt lat="46.19327294285486" lon="13.301435369749187"><ele>195.66666666666669</ele><time>2026-04-18T10:00:46.999Z</time></trkpt><trkpt lat="46.19315322761648" lon="13.301569854186573"><ele>194.0</ele><time>2026-04-18T10:00:47.999Z</time></trkpt><trkpt lat="46.193030911908394" lon="13.30170672349387"><ele>193.33333333333334</ele><time>2026-04-18T10:00:48.999Z</time></trkpt><trkpt lat="46.192907123053665" lon="13.301848380846929"><ele>192.66666666666669</ele><time>2026-04-18T10:00:49.999Z</time></trkpt><trkpt lat="46.192780043359086" lon="13.301988560347638"><ele>192.0</ele><time>2026-04-18T10:00:50.999Z</time></trkpt><trkpt lat="46.19264836461983" lon="13.302131218910116"><ele>193.0</ele><time>2026-04-18T10:00:51.999Z</time></trkpt><trkpt lat="46.19251420544221" lon="13.302277202276128"><ele>194.0</ele><time>2026-04-18T10:00:52.999Z</time></trkpt><trkpt lat="46.192377567549535" lon="13.302425398579295"><ele>195.0</ele><time>2026-04-18T10:00:53.999Z</time></trkpt><trkpt lat="46.19224219942142" lon="13.302575123782422"><ele>195.33333333333331</ele><time>2026-04-18T10:00:54.999Z</time></trkpt><trkpt lat="46.192105288325585" lon="13.302729897101125"><ele>195.66666666666666</ele><time>2026-04-18T10:00:55.999Z</time></trkpt><trkpt lat="46.191969801824975" lon="13.302877681384722"><ele>196.0</ele><time>2026-04-18T10:00:56.999Z</time></trkpt><trkpt lat="46.19183384796341" lon="13.303011967838069"><ele>196.0</ele><time>2026-04-18T10:00:57.999Z</time></trkpt><trkpt lat="46.19170017971634" lon="13.30312728885739"><ele>196.0</ele><time>2026-04-18T10:00:58.999Z</time></trkpt><trkpt lat="46.19156246703023" lon="13.303235500134548"><ele>196.0</ele><time>2026-04-18T10:00:59.999Z</time></trkpt><trkpt lat="46.19141909917309" lon="13.303337208539334"><ele>195.33333333333331</ele><time>2026-04-18T10:01:00.999Z</time></trkpt><trkpt lat="46.19126961558073" lon="13.303431956784964"><ele>194.66666666666669</ele><time>2026-04-18T10:01:01.999Z</time></trkpt><trkpt lat="46.19111596350662" lon="13.303530372350364"><ele>194.0</ele><time>2026-04-18T10:01:02.999Z</time></trkpt><trkpt lat="46.19095864859237" lon="13.303632087769524"><ele>194.0</ele><time>2026-04-18T10:01:03.999Z</time></trkpt><trkpt lat="46.19080325545394" lon="13.303734209300835"><ele>194.0</ele><time>2026-04-18T10:01:04.999Z</time></trkpt><trkpt lat="46.19065668241812" lon="13.303848028963788"><ele>194.0</ele><time>2026-04-18T10:01:05.999Z</time></trkpt><trkpt lat="46.19051770707162" lon="13.303976439353452"><ele>194.0</ele><time>2026-04-18T10:01:06.999Z</time></trkpt><trkpt lat="46.19039887950006" lon="13.304107846906206"><ele>194.0</ele><time>2026-04-18T10:01:07.999Z</time></trkpt><trkpt lat="46.190293667870925" lon="13.304245625366502"><ele>194.0</ele><time>2026-04-18T10:01:08.999Z</time></trkpt><trkpt lat="46.19019271512538" lon="13.304397518652204"><ele>194.0</ele><time>2026-04-18T10:01:09.999Z</time></trkpt><trkpt lat="46.19009863150764" lon="13.304563771113566"><ele>194.0</ele><time>2026-04-18T10:01:10.999Z</time></trkpt><trkpt lat="46.190011917153505" lon="13.304736978346423"><ele>194.0</ele><time>2026-04-18T10:01:12Z</time></trkpt><trkpt lat="46.189932639773794" lon="13.304904826842419"><ele>194.0</ele><time>2026-04-18T10:01:13Z</time></trkpt><trkpt lat="46.18986029039025" lon="13.305053932222226"><ele>194.0</ele><time>2026-04-18T10:01:14Z</time></trkpt><trkpt lat="46.18979257697181" lon="13.305195686342756"><ele>194.5</ele><time>2026-04-18T10:01:15Z</time></trkpt><trkpt lat="46.18972535569251" lon="13.305333073476408"><ele>195.0</ele><time>2026-04-18T10:01:16Z</time></trkpt><trkpt lat="46.189638245368805" lon="13.305435826873968"><ele>195.5</ele><time>2026-04-18T10:01:17Z</time></trkpt><trkpt lat="46.189534207381286" lon="13.305501169331137"><ele>196.0</ele><time>2026-04-18T10:01:18Z</time></trkpt><trkpt lat="46.18942353664631" lon="13.305530683175418"><ele>196.0</ele><time>2026-04-18T10:01:19Z</time></trkpt><trkpt lat="46.189297468995484" lon="13.305527257305819"><ele>196.0</ele><time>2026-04-18T10:01:20Z</time></trkpt><trkpt lat="46.18916980287614" lon="13.30551544753785"><ele>196.0</ele><time>2026-04-18T10:01:21Z</time></trkpt><trkpt lat="46.18905495137399" lon="13.305509022561223"><ele>196.0</ele><time>2026-04-18T10:01:22Z</time></trkpt><trkpt lat="46.188938881971836" lon="13.305511274941223"><ele>195.8</ele><time>2026-04-18T10:01:23Z</time></trkpt><trkpt lat="46.18883326665978" lon="13.305522879375548"><ele>195.60000000000002</ele><time>2026-04-18T10:01:24Z</time></trkpt><trkpt lat="46.18872837864475" lon="13.305559051402401"><ele>195.4</ele><time>2026-04-18T10:01:25Z</time></trkpt><trkpt lat="46.1886315449294" lon="13.30560797517512"><ele>195.2</ele><time>2026-04-18T10:01:26Z</time></trkpt><trkpt lat="46.188556058732715" lon="13.305673253066333"><ele>195.0</ele><time>2026-04-18T10:01:27Z</time></trkpt><trkpt lat="46.18848019956653" lon="13.305753232804047"><ele>195.0</ele><time>2026-04-18T10:01:28Z</time></trkpt><trkpt lat="46.18840073582101" lon="13.305836973697936"><ele>195.0</ele><time>2026-04-18T10:01:29Z</time></trkpt><trkpt lat="46.18831933663511" lon="13.305919332006013"><ele>195.0</ele><time>2026-04-18T10:01:30Z</time></trkpt><trkpt lat="46.188240993083255" lon="13.305999488083788"><ele>195.0</ele><time>2026-04-18T10:01:31Z</time></trkpt><trkpt lat="46.18816917591279" lon="13.306074141470678"><ele>195.0</ele><time>2026-04-18T10:01:32Z</time></trkpt><trkpt lat="46.18809484903332" lon="13.306150494315062"><ele>194.75</ele><time>2026-04-18T10:01:33Z</time></trkpt><trkpt lat="46.188012956914754" lon="13.306223921692512"><ele>194.5</ele><time>2026-04-18T10:01:34Z</time></trkpt><trkpt lat="46.18791662242127" lon="13.30629497632728"><ele>194.25</ele><time>2026-04-18T10:01:35Z</time></trkpt><trkpt lat="46.187806648268484" lon="13.306356542400428"><ele>194.0</ele><time>2026-04-18T10:01:36Z</time></trkpt><trkpt lat="46.18768311073399" lon="13.306401638840793"><ele>194.0</ele><time>2026-04-18T10:01:37Z</time></trkpt><trkpt lat="46.187545089626866" lon="13.306442600539087"><ele>194.0</ele><time>2026-04-18T10:01:38Z</time></trkpt><trkpt lat="46.187395627547" lon="13.306490550306622"><ele>194.0</ele><time>2026-04-18T10:01:39Z</time></trkpt><trkpt lat="46.187249607498856" lon="13.306536451679309"><ele>194.0</ele><time>2026-04-18T10:01:40Z</time></trkpt><trkpt lat="46.18710466678111" lon="13.306583859320584"><ele>194.0</ele><time>2026-04-18T10:01:41Z</time></trkpt><trkpt lat="46.18696211646942" lon="13.30663108826583"><ele>194.0</ele><time>2026-04-18T10:01:42Z</time></trkpt><trkpt lat="46.186822806896465" lon="13.306692155606912"><ele>194.0</ele><time>2026-04-18T10:01:43Z</time></trkpt><trkpt lat="46.18668319058123" lon="13.306776092743698"><ele>194.0</ele><time>2026-04-18T10:01:44Z</time></trkpt><trkpt lat="46.18653703358902" lon="13.306869026765595"><ele>193.33333333333334</ele><time>2026-04-18T10:01:45Z</time></trkpt><trkpt lat="46.18638390688766" lon="13.306970924516811"><ele>192.66666666666669</ele><time>2026-04-18T10:01:46Z</time></trkpt><trkpt lat="46.1862367634209" lon="13.307077718338364"><ele>192.0</ele><time>2026-04-18T10:01:47Z</time></trkpt><trkpt lat="46.18609941208212" lon="13.307172543479465"><ele>192.5</ele><time>2026-04-18T10:01:48Z</time></trkpt><trkpt lat="46.18597273021977" lon="13.30725144300679"><ele>193.0</ele><time>2026-04-18T10:01:49Z</time></trkpt><trkpt lat="46.18583818198809" lon="13.307325265114036"><ele>193.5</ele><time>2026-04-18T10:01:50Z</time></trkpt><trkpt lat="46.185697655810344" lon="13.30738780918647"><ele>194.0</ele><time>2026-04-18T10:01:51Z</time></trkpt><trkpt lat="46.18555260764269" lon="13.307444143923735"><ele>192.66666666666669</ele><time>2026-04-18T10:01:52Z</time></trkpt><trkpt lat="46.18540833430557" lon="13.307498013205278"><ele>191.33333333333334</ele><time>2026-04-18T10:01:53Z</time></trkpt><trkpt lat="46.18525792380338" lon="13.307553546563861"><ele>190.0</ele><time>2026-04-18T10:01:54Z</time></trkpt><trkpt lat="46.18509647044372" lon="13.307608536221576"><ele>190.0</ele><time>2026-04-18T10:01:55Z</time></trkpt><trkpt lat="46.184924203936916" lon="13.307659506708111"><ele>190.0</ele><time>2026-04-18T10:01:56Z</time></trkpt><trkpt lat="46.18474867389753" lon="13.307712068224149"><ele>190.0</ele><time>2026-04-18T10:01:57Z</time></trkpt><trkpt lat="46.18457227063794" lon="13.307761440840483"><ele>189.0</ele><time>2026-04-18T10:01:58Z</time></trkpt><trkpt lat="46.1843986093946" lon="13.30781214712292"><ele>188.0</ele><time>2026-04-18T10:01:59Z</time></trkpt><trkpt lat="46.18423060214138" lon="13.307866970876688"><ele>187.0</ele><time>2026-04-18T10:02:00Z</time></trkpt><trkpt lat="46.18407092252065" lon="13.307920611444818"><ele>186.66666666666669</ele><time>2026-04-18T10:02:01Z</time></trkpt><trkpt lat="46.18391626564554" lon="13.307977482491719"><ele>186.33333333333334</ele><time>2026-04-18T10:02:02Z</time></trkpt><trkpt lat="46.18375996977678" lon="13.30805390548767"><ele>186.0</ele><time>2026-04-18T10:02:03Z</time></trkpt><trkpt lat="46.18360387683732" lon="13.308155216635855"><ele>186.0</ele><time>2026-04-18T10:02:04Z</time></trkpt><trkpt lat="46.18344819616004" lon="13.308284264061445"><ele>186.0</ele><time>2026-04-18T10:02:05Z</time></trkpt><trkpt lat="46.183290370519664" lon="13.30842392886681"><ele>186.0</ele><time>2026-04-18T10:02:06Z</time></trkpt><trkpt lat="46.183127187487386" lon="13.30857670344864"><ele>186.0</ele><time>2026-04-18T10:02:07Z</time></trkpt><trkpt lat="46.18295724256101" lon="13.308735679001613"><ele>186.0</ele><time>2026-04-18T10:02:08Z</time></trkpt><trkpt lat="46.18278218099451" lon="13.308900441093005"><ele>186.0</ele><time>2026-04-18T10:02:09Z</time></trkpt><trkpt lat="46.1826013263653" lon="13.309065657874617"><ele>189.0</ele><time>2026-04-18T10:02:10Z</time></trkpt><trkpt lat="46.18241163228953" lon="13.309240631016381"><ele>192.0</ele><time>2026-04-18T10:02:11Z</time></trkpt><trkpt lat="46.18221163815937" lon="13.3094287259297"><ele>192.0</ele><time>2026-04-18T10:02:12Z</time></trkpt><trkpt lat="46.18199827347656" lon="13.309625890536008"><ele>192.0</ele><time>2026-04-18T10:02:13Z</time></trkpt><trkpt lat="46.181767262212844" lon="13.309839264766174"><ele>191.5</ele><time>2026-04-18T10:02:14Z</time></trkpt><trkpt lat="46.18152920306181" lon="13.310061140367262"><ele>191.0</ele><time>2026-04-18T10:02:15Z</time></trkpt><trkpt lat="46.181285384834354" lon="13.310284781194225"><ele>193.5</ele><time>2026-04-18T10:02:16Z</time></trkpt><trkpt lat="46.18105338461359" lon="13.310499397838603"><ele>196.0</ele><time>2026-04-18T10:02:17Z</time></trkpt><trkpt lat="46.180834799000166" lon="13.310699128261714"><ele>193.5</ele><time>2026-04-18T10:02:18Z</time></trkpt><trkpt lat="46.18061470973854" lon="13.310889904596428"><ele>191.0</ele><time>2026-04-18T10:02:19Z</time></trkpt><trkpt lat="46.180414624130826" lon="13.311062753334971"><ele>191.0</ele><time>2026-04-18T10:02:20Z</time></trkpt><trkpt lat="46.18022968636469" lon="13.311220834158503"><ele>191.0</ele><time>2026-04-18T10:02:21Z</time></trkpt><trkpt lat="46.18005579699848" lon="13.31137311352603"><ele>191.0</ele><time>2026-04-18T10:02:22Z</time></trkpt><trkpt lat="46.179835278833416" lon="13.311534665949953"><ele>185.0</ele><time>2026-04-18T10:02:23Z</time></trkpt><trkpt lat="46.179581771666925" lon="13.311747489361293"><ele>179.0</ele><time>2026-04-18T10:02:24Z</time></trkpt><trkpt lat="46.17930405429738" lon="13.312007653517151"><ele>176.5</ele><time>2026-04-18T10:02:25Z</time></trkpt><trkpt lat="46.178988942627875" lon="13.312262585050895"><ele>174.0</ele><time>2026-04-18T10:02:26Z</time></trkpt><trkpt lat="46.178670789558865" lon="13.312531003173547"><ele>174.0</ele><time>2026-04-18T10:02:27Z</time></trkpt><trkpt lat="46.17838974874294" lon="13.312766368221855"><ele>174.0</ele><time>2026-04-18T10:02:28Z</time></trkpt><trkpt lat="46.17812801118877" lon="13.312983617171998"><ele>175.0</ele><time>2026-04-18T10:02:29Z</time></trkpt><trkpt lat="46.177888184161695" lon="13.313184422348359"><ele>176.0</ele><time>2026-04-18T10:02:30Z</time></trkpt><trkpt lat="46.177664479389534" lon="13.313371587120946"><ele>176.0</ele><time>2026-04-18T10:02:31Z</time></trkpt><trkpt lat="46.17745510114877" lon="13.313547556451434"><ele>176.0</ele><time>2026-04-18T10:02:32Z</time></trkpt><trkpt lat="46.177252030994254" lon="13.313718044506276"><ele>176.5</ele><time>2026-04-18T10:02:33Z</time></trkpt><trkpt lat="46.17705026286485" lon="13.313886040430935"><ele>177.0</ele><time>2026-04-18T10:02:34Z</time></trkpt><trkpt lat="46.17683766327785" lon="13.314068288163705"><ele>177.0</ele><time>2026-04-18T10:02:35Z</time></trkpt><trkpt lat="46.17661944797693" lon="13.314256232539687"><ele>177.0</ele><time>2026-04-18T10:02:36Z</time></trkpt><trkpt lat="46.17639580980096" lon="13.314444690866182"><ele>177.5</ele><time>2026-04-18T10:02:37Z</time></trkpt><trkpt lat="46.176169492400035" lon="13.314640107564273"><ele>178.0</ele><time>2026-04-18T10:02:38Z</time></trkpt><trkpt lat="46.17593829046274" lon="13.314845741942396"><ele>178.5</ele><time>2026-04-18T10:02:39Z</time></trkpt><trkpt lat="46.175702253077006" lon="13.31506459738357"><ele>179.0</ele><time>2026-04-18T10:02:39.999Z</time></trkpt><trkpt lat="46.17546303096458" lon="13.31529155946927"><ele>176.5</ele><time>2026-04-18T10:02:40.999Z</time></trkpt><trkpt lat="46.17522131415444" lon="13.315520142154899"><ele>174.0</ele><time>2026-04-18T10:02:41.999Z</time></trkpt><trkpt lat="46.174988720546736" lon="13.315745423108241"><ele>172.0</ele><time>2026-04-18T10:02:42.999Z</time></trkpt><trkpt lat="46.174778163724376" lon="13.315952372284324"><ele>170.0</ele><time>2026-04-18T10:02:43.999Z</time></trkpt><trkpt lat="46.174579091253385" lon="13.316144052821087"><ele>170.0</ele><time>2026-04-18T10:02:44.999Z</time></trkpt><trkpt lat="46.174388543214896" lon="13.316322553897823"><ele>170.0</ele><time>2026-04-18T10:02:45.999Z</time></trkpt><trkpt lat="46.17419893668202" lon="13.316503247298035"><ele>169.5</ele><time>2026-04-18T10:02:46.999Z</time></trkpt><trkpt lat="46.17400553557311" lon="13.316690634320034"><ele>169.0</ele><time>2026-04-18T10:02:47.999Z</time></trkpt><trkpt lat="46.173811473734396" lon="13.316875634687932"><ele>169.0</ele><time>2026-04-18T10:02:48.999Z</time></trkpt><trkpt lat="46.173622898683725" lon="13.317057808249924"><ele>169.0</ele><time>2026-04-18T10:02:49.999Z</time></trkpt><trkpt lat="46.17343495934707" lon="13.317239216543229"><ele>170.0</ele><time>2026-04-18T10:02:50.999Z</time></trkpt><trkpt lat="46.17324135620215" lon="13.317424516497068"><ele>171.0</ele><time>2026-04-18T10:02:51.999Z</time></trkpt><trkpt lat="46.173041269275764" lon="13.31761761580864"><ele>171.0</ele><time>2026-04-18T10:02:52.999Z</time></trkpt><trkpt lat="46.172848467386906" lon="13.317800513493799"><ele>171.0</ele><time>2026-04-18T10:02:53.999Z</time></trkpt><trkpt lat="46.172667434449515" lon="13.317972415531687"><ele>171.0</ele><time>2026-04-18T10:02:54.999Z</time></trkpt><trkpt lat="46.172492508213395" lon="13.318140210082284"><ele>173.33333333333334</ele><time>2026-04-18T10:02:55.999Z</time></trkpt><trkpt lat="46.17231506775528" lon="13.318310654764161"><ele>175.66666666666669</ele><time>2026-04-18T10:02:56.999Z</time></trkpt><trkpt lat="46.17213309823307" lon="13.3184855689795"><ele>178.0</ele><time>2026-04-18T10:02:57.999Z</time></trkpt><trkpt lat="46.171949503302734" lon="13.31865735601266"><ele>178.0</ele><time>2026-04-18T10:02:58.999Z</time></trkpt><trkpt lat="46.17176545974378" lon="13.31882791351979"><ele>178.0</ele><time>2026-04-18T10:02:59.999Z</time></trkpt><trkpt lat="46.171598320229904" lon="13.318984878788267"><ele>178.0</ele><time>2026-04-18T10:03:00.999Z</time></trkpt><trkpt lat="46.17144772008319" lon="13.319130162288252"><ele>180.25</ele><time>2026-04-18T10:03:01.999Z</time></trkpt><trkpt lat="46.17131076941443" lon="13.319263400169099"><ele>182.5</ele><time>2026-04-18T10:03:02.999Z</time></trkpt><trkpt lat="46.17118251304205" lon="13.319389402228243"><ele>184.75</ele><time>2026-04-18T10:03:03.999Z</time></trkpt><trkpt lat="46.171082175115195" lon="13.31950268804696"><ele>187.0</ele><time>2026-04-18T10:03:04.999Z</time></trkpt><trkpt lat="46.17101601516663" lon="13.319589490850404"><ele>187.0</ele><time>2026-04-18T10:03:05.999Z</time></trkpt><trkpt lat="46.17096810393871" lon="13.319652038441408"><ele>187.0</ele><time>2026-04-18T10:03:06.999Z</time></trkpt><trkpt lat="46.17092000813788" lon="13.319716745827726"><ele>187.0</ele><time>2026-04-18T10:03:07.999Z</time></trkpt><trkpt lat="46.17085214828517" lon="13.319816575973613"><ele>187.0</ele><time>2026-04-18T10:03:08.999Z</time></trkpt><trkpt lat="46.17077572453339" lon="13.319918605679133"><ele>187.0</ele><time>2026-04-18T10:03:09.999Z</time></trkpt><trkpt lat="46.17069331876828" lon="13.32002151982276"><ele>187.0</ele><time>2026-04-18T10:03:10.999Z</time></trkpt><trkpt lat="46.17060277896473" lon="13.32013232718207"><ele>183.75</ele><time>2026-04-18T10:03:11.999Z</time></trkpt><trkpt lat="46.17050719621683" lon="13.320253098187774"><ele>180.5</ele><time>2026-04-18T10:03:12.999Z</time></trkpt><trkpt lat="46.17043017185706" lon="13.320357379136192"><ele>177.25</ele><time>2026-04-18T10:03:13.999Z</time></trkpt><trkpt lat="46.170341964853144" lon="13.320467065469554"><ele>174.0</ele><time>2026-04-18T10:03:14.999Z</time></trkpt><trkpt lat="46.170238255371" lon="13.320594922304958"><ele>173.75</ele><time>2026-04-18T10:03:15.999Z</time></trkpt><trkpt lat="46.17013756131456" lon="13.320724815647043"><ele>173.5</ele><time>2026-04-18T10:03:16.999Z</time></trkpt><trkpt lat="46.170036962490606" lon="13.320852591929617"><ele>173.25</ele><time>2026-04-18T10:03:18Z</time></trkpt><trkpt lat="46.16994074562887" lon="13.320977511565323"><ele>173.0</ele><time>2026-04-18T10:03:19Z</time></trkpt><trkpt lat="46.16984597338139" lon="13.321094280706118"><ele>173.0</ele><time>2026-04-18T10:03:20Z</time></trkpt><trkpt lat="46.16975508277722" lon="13.32121196303351"><ele>173.0</ele><time>2026-04-18T10:03:21Z</time></trkpt><trkpt lat="46.169653488094234" lon="13.321339998329972"><ele>173.0</ele><time>2026-04-18T10:03:22Z</time></trkpt><trkpt lat="46.16954623692396" lon="13.321472325608397"><ele>173.0</ele><time>2026-04-18T10:03:23Z</time></trkpt><trkpt lat="46.16943577567516" lon="13.321611105494014"><ele>173.0</ele><time>2026-04-18T10:03:24Z</time></trkpt><trkpt lat="46.16932239529425" lon="13.321757140772352"><ele>173.0</ele><time>2026-04-18T10:03:25Z</time></trkpt><trkpt lat="46.16920545980731" lon="13.321905719056474"><ele>173.0</ele><time>2026-04-18T10:03:26Z</time></trkpt><trkpt lat="46.16908808399146" lon="13.32205488347893"><ele>172.66666666666666</ele><time>2026-04-18T10:03:27Z</time></trkpt><trkpt lat="46.16896873035136" lon="13.322208447799134"><ele>172.33333333333334</ele><time>2026-04-18T10:03:28Z</time></trkpt><trkpt lat="46.16885099945417" lon="13.322359966596293"><ele>172.0</ele><time>2026-04-18T10:03:29Z</time></trkpt><trkpt lat="46.16873572568501" lon="13.32250435609722"><ele>172.0</ele><time>2026-04-18T10:03:30Z</time></trkpt><trkpt lat="46.16861979507259" lon="13.3226478185793"><ele>172.0</ele><time>2026-04-18T10:03:31Z</time></trkpt><trkpt lat="46.16850305878954" lon="13.322796141109034"><ele>172.0</ele><time>2026-04-18T10:03:32Z</time></trkpt><trkpt lat="46.16838283313721" lon="13.322949050409544"><ele>172.66666666666669</ele><time>2026-04-18T10:03:33Z</time></trkpt><trkpt lat="46.16826137862875" lon="13.323105721847934"><ele>173.33333333333334</ele><time>2026-04-18T10:03:34Z</time></trkpt><trkpt lat="46.1681371288406" lon="13.323263784831653"><ele>174.0</ele><time>2026-04-18T10:03:35Z</time></trkpt><trkpt lat="46.16800806310092" lon="13.323427768132209"><ele>174.0</ele><time>2026-04-18T10:03:36Z</time></trkpt><trkpt lat="46.167882088850554" lon="13.32358970049264"><ele>174.0</ele><time>2026-04-18T10:03:37Z</time></trkpt><trkpt lat="46.167761757988615" lon="13.323743863106166"><ele>174.0</ele><time>2026-04-18T10:03:38Z</time></trkpt><trkpt lat="46.16764608468421" lon="13.323892698074893"><ele>174.0</ele><time>2026-04-18T10:03:39Z</time></trkpt><trkpt lat="46.16753388025174" lon="13.324039329016056"><ele>174.0</ele><time>2026-04-18T10:03:40Z</time></trkpt><trkpt lat="46.167422506143616" lon="13.32418325462439"><ele>174.0</ele><time>2026-04-18T10:03:41Z</time></trkpt><trkpt lat="46.16731327120469" lon="13.324318368694357"><ele>174.0</ele><time>2026-04-18T10:03:42Z</time></trkpt><trkpt lat="46.16721119483701" lon="13.324451501392943"><ele>174.0</ele><time>2026-04-18T10:03:43Z</time></trkpt><trkpt lat="46.167109793990946" lon="13.324583623275187"><ele>174.0</ele><time>2026-04-18T10:03:44Z</time></trkpt><trkpt lat="46.16700852947966" lon="13.324710600851315"><ele>174.0</ele><time>2026-04-18T10:03:45Z</time></trkpt><trkpt lat="46.166911513941" lon="13.324831480205235"><ele>174.0</ele><time>2026-04-18T10:03:46Z</time></trkpt><trkpt lat="46.166823686893345" lon="13.324942737596194"><ele>174.39999999999998</ele><time>2026-04-18T10:03:47Z</time></trkpt><trkpt lat="46.16674056694022" lon="13.325052828868518"><ele>174.8</ele><time>2026-04-18T10:03:48Z</time></trkpt><trkpt lat="46.16665799021362" lon="13.325161570862505"><ele>175.2</ele><time>2026-04-18T10:03:49Z</time></trkpt><trkpt lat="46.166575567230495" lon="13.325267663948862"><ele>175.60000000000002</ele><time>2026-04-18T10:03:50Z</time></trkpt><trkpt lat="46.16648982293087" lon="13.325363151827707"><ele>176.0</ele><time>2026-04-18T10:03:51Z</time></trkpt><trkpt lat="46.166388058969794" lon="13.325455191834566"><ele>175.75</ele><time>2026-04-18T10:03:52Z</time></trkpt><trkpt lat="46.16627244098996" lon="13.325546027188814"><ele>175.5</ele><time>2026-04-18T10:03:53Z</time></trkpt><trkpt lat="46.16615674854311" lon="13.32564046982181"><ele>175.25</ele><time>2026-04-18T10:03:54Z</time></trkpt><trkpt lat="46.16604194773932" lon="13.325747098201806"><ele>175.0</ele><time>2026-04-18T10:03:55Z</time></trkpt><trkpt lat="46.16592502091436" lon="13.325850136540572"><ele>175.0</ele><time>2026-04-18T10:03:56Z</time></trkpt><trkpt lat="46.16580724608247" lon="13.325940055275733"><ele>175.0</ele><time>2026-04-18T10:03:57Z</time></trkpt><trkpt lat="46.165692292292526" lon="13.326015332132817"><ele>175.0</ele><time>2026-04-18T10:03:58Z</time></trkpt><trkpt lat="46.165581728278966" lon="13.326078063102118"><ele>175.0</ele><time>2026-04-18T10:03:59Z</time></trkpt><trkpt lat="46.16547803202661" lon="13.326134807892355"><ele>174.5</ele><time>2026-04-18T10:04:00Z</time></trkpt><trkpt lat="46.16537265749418" lon="13.326195642149646"><ele>174.0</ele><time>2026-04-18T10:04:01Z</time></trkpt><trkpt lat="46.16526343989926" lon="13.326258409633235"><ele>173.5</ele><time>2026-04-18T10:04:02Z</time></trkpt><trkpt lat="46.16514386709989" lon="13.326320080411616"><ele>173.0</ele><time>2026-04-18T10:04:03Z</time></trkpt><trkpt lat="46.165018611625044" lon="13.326385862956528"><ele>173.0</ele><time>2026-04-18T10:04:04Z</time></trkpt><trkpt lat="46.16488448089509" lon="13.326454477750898"><ele>173.0</ele><time>2026-04-18T10:04:05Z</time></trkpt><trkpt lat="46.164751282400395" lon="13.326523887683285"><ele>173.0</ele><time>2026-04-18T10:04:06Z</time></trkpt><trkpt lat="46.164608918781454" lon="13.326601468091802"><ele>173.0</ele><time>2026-04-18T10:04:07Z</time></trkpt><trkpt lat="46.16445499857308" lon="13.326681404943795"><ele>171.66666666666666</ele><time>2026-04-18T10:04:08Z</time></trkpt><trkpt lat="46.16429398059698" lon="13.326762414825097"><ele>170.33333333333334</ele><time>2026-04-18T10:04:09Z</time></trkpt><trkpt lat="46.16413286567537" lon="13.326846094187044"><ele>169.0</ele><time>2026-04-18T10:04:10Z</time></trkpt><trkpt lat="46.16397438618824" lon="13.32692985901189"><ele>168.33333333333334</ele><time>2026-04-18T10:04:11Z</time></trkpt><trkpt lat="46.16382323783628" lon="13.327007940080831"><ele>167.66666666666666</ele><time>2026-04-18T10:04:12Z</time></trkpt><trkpt lat="46.163677427511516" lon="13.327082557022042"><ele>167.0</ele><time>2026-04-18T10:04:13Z</time></trkpt><trkpt lat="46.16353577959126" lon="13.327158254517114"><ele>167.33333333333331</ele><time>2026-04-18T10:04:14Z</time></trkpt><trkpt lat="46.16339291273592" lon="13.327234286845984"><ele>167.66666666666666</ele><time>2026-04-18T10:04:15Z</time></trkpt><trkpt lat="46.163245999202246" lon="13.32730803555821"><ele>168.0</ele><time>2026-04-18T10:04:16Z</time></trkpt><trkpt lat="46.16309489291105" lon="13.327388977157547"><ele>166.66666666666666</ele><time>2026-04-18T10:04:17Z</time></trkpt><trkpt lat="46.162935643400395" lon="13.3274745682453"><ele>165.33333333333331</ele><time>2026-04-18T10:04:18Z</time></trkpt><trkpt lat="46.16277216512552" lon="13.327562462675917"><ele>164.0</ele><time>2026-04-18T10:04:19Z</time></trkpt><trkpt lat="46.16260925721701" lon="13.32766233071329"><ele>164.0</ele><time>2026-04-18T10:04:20Z</time></trkpt><trkpt lat="46.162455116038316" lon="13.327776067326818"><ele>164.0</ele><time>2026-04-18T10:04:21Z</time></trkpt><trkpt lat="46.16231117039795" lon="13.327890043586974"><ele>164.0</ele><time>2026-04-18T10:04:22Z</time></trkpt><trkpt lat="46.1621746715598" lon="13.32799838864778"><ele>165.33333333333331</ele><time>2026-04-18T10:04:23Z</time></trkpt><trkpt lat="46.1620420412" lon="13.328103306407131"><ele>166.66666666666666</ele><time>2026-04-18T10:04:24Z</time></trkpt><trkpt lat="46.161910917843926" lon="13.328208923853227"><ele>168.0</ele><time>2026-04-18T10:04:25Z</time></trkpt><trkpt lat="46.161779050062506" lon="13.328314812203168"><ele>168.0</ele><time>2026-04-18T10:04:26Z</time></trkpt><trkpt lat="46.16163893593103" lon="13.328426962994381"><ele>168.0</ele><time>2026-04-18T10:04:27Z</time></trkpt><trkpt lat="46.16149604919024" lon="13.328544348037958"><ele>168.0</ele><time>2026-04-18T10:04:28Z</time></trkpt><trkpt lat="46.16135108352163" lon="13.32866411782967"><ele>166.0</ele><time>2026-04-18T10:04:29Z</time></trkpt><trkpt lat="46.16120182072665" lon="13.328781277993633"><ele>164.0</ele><time>2026-04-18T10:04:30Z</time></trkpt><trkpt lat="46.16105742574603" lon="13.328896873371738"><ele>162.0</ele><time>2026-04-18T10:04:31Z</time></trkpt><trkpt lat="46.160916702211956" lon="13.32900948521717"><ele>162.0</ele><time>2026-04-18T10:04:32Z</time></trkpt><trkpt lat="46.16077879355901" lon="13.329119007733611"><ele>162.0</ele><time>2026-04-18T10:04:33Z</time></trkpt><trkpt lat="46.16063218146334" lon="13.32923227880531"><ele>162.0</ele><time>2026-04-18T10:04:34Z</time></trkpt><trkpt lat="46.16048343018731" lon="13.32934967079201"><ele>161.33333333333334</ele><time>2026-04-18T10:04:35Z</time></trkpt><trkpt lat="46.16033954004709" lon="13.329464699638908"><ele>160.66666666666669</ele><time>2026-04-18T10:04:36Z</time></trkpt><trkpt lat="46.16020119842663" lon="13.329576190825732"><ele>160.0</ele><time>2026-04-18T10:04:37Z</time></trkpt><trkpt lat="46.160067809752526" lon="13.329686414671029"><ele>160.5</ele><time>2026-04-18T10:04:38Z</time></trkpt><trkpt lat="46.15993970665299" lon="13.329805740967869"><ele>161.0</ele><time>2026-04-18T10:04:39Z</time></trkpt><trkpt lat="46.15984029065757" lon="13.329936670795625"><ele>161.5</ele><time>2026-04-18T10:04:40Z</time></trkpt><trkpt lat="46.15976152931323" lon="13.330099238193439"><ele>162.0</ele><time>2026-04-18T10:04:41Z</time></trkpt><trkpt lat="46.15971440118666" lon="13.330285432232753"><ele>162.0</ele><time>2026-04-18T10:04:42Z</time></trkpt><trkpt lat="46.15968204581974" lon="13.330481397397826"><ele>162.0</ele><time>2026-04-18T10:04:43Z</time></trkpt><trkpt lat="46.15965160528755" lon="13.330696619626726"><ele>162.0</ele><time>2026-04-18T10:04:43.999Z</time></trkpt><trkpt lat="46.15962025442171" lon="13.330922141334872"><ele>162.66666666666666</ele><time>2026-04-18T10:04:44.999Z</time></trkpt><trkpt lat="46.159583679996" lon="13.331141862941964"><ele>163.33333333333331</ele><time>2026-04-18T10:04:45.999Z</time></trkpt><trkpt lat="46.15954845395158" lon="13.331367758068813"><ele>164.0</ele><time>2026-04-18T10:04:46.999Z</time></trkpt><trkpt lat="46.15951541834938" lon="13.331589874130346"><ele>165.33333333333331</ele><time>2026-04-18T10:04:47.999Z</time></trkpt><trkpt lat="46.15948511671352" lon="13.331804760073396"><ele>166.66666666666666</ele><time>2026-04-18T10:04:48.999Z</time></trkpt><trkpt lat="46.15945277981063" lon="13.33201812240712"><ele>168.0</ele><time>2026-04-18T10:04:49.999Z</time></trkpt><trkpt lat="46.15941985170466" lon="13.332233626053844"><ele>169.0</ele><time>2026-04-18T10:04:50.999Z</time></trkpt><trkpt lat="46.15938704293022" lon="13.332449190211378"><ele>170.0</ele><time>2026-04-18T10:04:51.999Z</time></trkpt><trkpt lat="46.15935655924084" lon="13.33265932854741"><ele>171.0</ele><time>2026-04-18T10:04:52.999Z</time></trkpt><trkpt lat="46.15932649654858" lon="13.332862809829045"><ele>172.0</ele><time>2026-04-18T10:04:53.999Z</time></trkpt><trkpt lat="46.15929612927867" lon="13.333068711453576"><ele>172.75</ele><time>2026-04-18T10:04:54.999Z</time></trkpt><trkpt lat="46.159266687769204" lon="13.33326714463368"><ele>173.5</ele><time>2026-04-18T10:04:55.999Z</time></trkpt><trkpt lat="46.159238355802536" lon="13.333459024358307"><ele>174.25</ele><time>2026-04-18T10:04:56.999Z</time></trkpt><trkpt lat="46.15918307351643" lon="13.33363936319604"><ele>175.0</ele><time>2026-04-18T10:04:57.999Z</time></trkpt><trkpt lat="46.159154131057036" lon="13.33383130799695"><ele>178.0</ele><time>2026-04-18T10:04:58.999Z</time></trkpt><trkpt lat="46.1591246292638" lon="13.334026962268394"><ele>181.0</ele><time>2026-04-18T10:04:59.999Z</time></trkpt><trkpt lat="46.15909580354771" lon="13.334218132834105"><ele>184.0</ele><time>2026-04-18T10:05:00.999Z</time></trkpt><trkpt lat="46.15906859256722" lon="13.334398594557825"><ele>187.0</ele><time>2026-04-18T10:05:01.999Z</time></trkpt><trkpt lat="46.1590446800054" lon="13.334559831797211"><ele>187.83333333333334</ele><time>2026-04-18T10:05:02.999Z</time></trkpt><trkpt lat="46.15902358081409" lon="13.334702262695018"><ele>188.66666666666669</ele><time>2026-04-18T10:05:03.999Z</time></trkpt><trkpt lat="46.15900627266887" lon="13.334813104933389"><ele>189.5</ele><time>2026-04-18T10:05:04.999Z</time></trkpt><trkpt lat="46.15898914360832" lon="13.334921538466647"><ele>190.33333333333334</ele><time>2026-04-18T10:05:05.999Z</time></trkpt><trkpt lat="46.15896865826589" lon="13.335051218556659"><ele>191.16666666666666</ele><time>2026-04-18T10:05:06.999Z</time></trkpt><trkpt lat="46.15894768470214" lon="13.335180420491781"><ele>192.0</ele><time>2026-04-18T10:05:07.999Z</time></trkpt><trkpt lat="46.158925993332076" lon="13.335302660404869"><ele>192.5</ele><time>2026-04-18T10:05:08.999Z</time></trkpt><trkpt lat="46.15890328311114" lon="13.33540916155854"><ele>193.0</ele><time>2026-04-18T10:05:09.999Z</time></trkpt><trkpt lat="46.15888055527363" lon="13.335497974535155"><ele>193.5</ele><time>2026-04-18T10:05:10.999Z</time></trkpt><trkpt lat="46.158838063006634" lon="13.335615206924958"><ele>194.0</ele><time>2026-04-18T10:05:12.999Z</time></trkpt><trkpt lat="46.15879698665878" lon="13.335712855116789"><ele>194.5</ele><time>2026-04-18T10:05:14.999Z</time></trkpt><trkpt lat="46.15875824324771" lon="13.335798856896178"><ele>195.0</ele><time>2026-04-18T10:05:15.999Z</time></trkpt><trkpt lat="46.158682584906295" lon="13.335944567869612"><ele>195.0</ele><time>2026-04-18T10:05:16.999Z</time></trkpt><trkpt lat="46.15858383582387" lon="13.336111118543267"><ele>195.0</ele><time>2026-04-18T10:05:17.999Z</time></trkpt><trkpt lat="46.15844732179838" lon="13.336315229168779"><ele>195.0</ele><time>2026-04-18T10:05:18.999Z</time></trkpt><trkpt lat="46.158309208807864" lon="13.336522885136839"><ele>191.33333333333334</ele><time>2026-04-18T10:05:19.999Z</time></trkpt><trkpt lat="46.158191714602765" lon="13.336696304719519"><ele>187.66666666666669</ele><time>2026-04-18T10:05:20.999Z</time></trkpt><trkpt lat="46.15808577784395" lon="13.336853636285472"><ele>184.0</ele><time>2026-04-18T10:05:21.999Z</time></trkpt><trkpt lat="46.15798187338727" lon="13.337001016957531"><ele>184.0</ele><time>2026-04-18T10:05:22.999Z</time></trkpt><trkpt lat="46.157882030033136" lon="13.337151320909445"><ele>184.0</ele><time>2026-04-18T10:05:24Z</time></trkpt><trkpt lat="46.15778511485616" lon="13.337296631626558"><ele>184.0</ele><time>2026-04-18T10:05:25Z</time></trkpt><trkpt lat="46.157696087904434" lon="13.337459821130409"><ele>184.0</ele><time>2026-04-18T10:05:26Z</time></trkpt><trkpt lat="46.15761397632614" lon="13.337643321368015"><ele>185.5</ele><time>2026-04-18T10:05:27Z</time></trkpt><trkpt lat="46.15754194317" lon="13.337829238532818"><ele>187.0</ele><time>2026-04-18T10:05:28Z</time></trkpt><trkpt lat="46.15748081109074" lon="13.3380072476269"><ele>188.5</ele><time>2026-04-18T10:05:29Z</time></trkpt><trkpt lat="46.15741467641659" lon="13.338169598186752"><ele>190.0</ele><time>2026-04-18T10:05:30Z</time></trkpt><trkpt lat="46.15735264651919" lon="13.33833384349942"><ele>190.0</ele><time>2026-04-18T10:05:30.999Z</time></trkpt><trkpt lat="46.15728952044147" lon="13.338498918003054"><ele>190.0</ele><time>2026-04-18T10:05:31.999Z</time></trkpt><trkpt lat="46.157226658794606" lon="13.33866356542579"><ele>190.0</ele><time>2026-04-18T10:05:32.999Z</time></trkpt><trkpt lat="46.15716298411717" lon="13.338832117548083"><ele>190.0</ele><time>2026-04-18T10:05:33.999Z</time></trkpt><trkpt lat="46.15710373358449" lon="13.338993021679375"><ele>192.4</ele><time>2026-04-18T10:05:34.999Z</time></trkpt><trkpt lat="46.15704763316865" lon="13.339131124141742"><ele>194.8</ele><time>2026-04-18T10:05:35.999Z</time></trkpt><trkpt lat="46.156989648688366" lon="13.339254063934908"><ele>197.2</ele><time>2026-04-18T10:05:36.999Z</time></trkpt><trkpt lat="46.15692376476402" lon="13.339374116302992"><ele>199.6</ele><time>2026-04-18T10:05:37.999Z</time></trkpt><trkpt lat="46.15684830155291" lon="13.339490378096823"><ele>202.0</ele><time>2026-04-18T10:05:38.999Z</time></trkpt><trkpt lat="46.156754180012264" lon="13.339581825778861"><ele>202.0</ele><time>2026-04-18T10:05:39.999Z</time></trkpt><trkpt lat="46.1566446277406" lon="13.33963609169703"><ele>202.0</ele><time>2026-04-18T10:05:40.999Z</time></trkpt><trkpt lat="46.156540690733486" lon="13.339676954819748"><ele>202.0</ele><time>2026-04-18T10:05:41.999Z</time></trkpt><trkpt lat="46.15644646549311" lon="13.339728112480723"><ele>202.0</ele><time>2026-04-18T10:05:43Z</time></trkpt><trkpt lat="46.15634464205633" lon="13.339778892585947"><ele>202.0</ele><time>2026-04-18T10:05:44Z</time></trkpt><trkpt lat="46.15624723611517" lon="13.339827805653247"><ele>200.2</ele><time>2026-04-18T10:05:45Z</time></trkpt><trkpt lat="46.156157498791266" lon="13.339880821216049"><ele>198.39999999999998</ele><time>2026-04-18T10:05:46Z</time></trkpt><trkpt lat="46.15606614887755" lon="13.339935669566684"><ele>196.60000000000002</ele><time>2026-04-18T10:05:47Z</time></trkpt><trkpt lat="46.155976682042535" lon="13.339998340637003"><ele>194.8</ele><time>2026-04-18T10:05:48Z</time></trkpt><trkpt lat="46.15589937195595" lon="13.340071361011262"><ele>193.0</ele><time>2026-04-18T10:05:49Z</time></trkpt><trkpt lat="46.15583036067618" lon="13.340172040674691"><ele>193.0</ele><time>2026-04-18T10:05:50Z</time></trkpt><trkpt lat="46.15577497014999" lon="13.340298703289422"><ele>193.0</ele><time>2026-04-18T10:05:51Z</time></trkpt><trkpt lat="46.15572060750404" lon="13.340435535305737"><ele>193.0</ele><time>2026-04-18T10:05:51.999Z</time></trkpt><trkpt lat="46.155656112396414" lon="13.340576295322355"><ele>193.0</ele><time>2026-04-18T10:05:52.999Z</time></trkpt><trkpt lat="46.155584437923125" lon="13.340717536845132"><ele>192.5</ele><time>2026-04-18T10:05:53.999Z</time></trkpt><trkpt lat="46.1555033710109" lon="13.34084692524549"><ele>192.0</ele><time>2026-04-18T10:05:54.999Z</time></trkpt><trkpt lat="46.15540726378476" lon="13.34094720358407"><ele>191.5</ele><time>2026-04-18T10:05:55.999Z</time></trkpt><trkpt lat="46.155306006985114" lon="13.341025093715096"><ele>191.0</ele><time>2026-04-18T10:05:56.999Z</time></trkpt><trkpt lat="46.15521368397549" lon="13.341097085040689"><ele>191.0</ele><time>2026-04-18T10:05:57.999Z</time></trkpt><trkpt lat="46.15512665817482" lon="13.341175589425642"><ele>191.0</ele><time>2026-04-18T10:05:58.999Z</time></trkpt><trkpt lat="46.15504138203007" lon="13.341269610154995"><ele>191.0</ele><time>2026-04-18T10:05:59.999Z</time></trkpt><trkpt lat="46.15496593232588" lon="13.34139029770506"><ele>191.0</ele><time>2026-04-18T10:06:00.999Z</time></trkpt><trkpt lat="46.15489702625558" lon="13.34151888396632"><ele>191.0</ele><time>2026-04-18T10:06:01.999Z</time></trkpt><trkpt lat="46.15483012264726" lon="13.341662347266709"><ele>190.25</ele><time>2026-04-18T10:06:02.999Z</time></trkpt><trkpt lat="46.154762533132185" lon="13.341808099106267"><ele>189.5</ele><time>2026-04-18T10:06:03.999Z</time></trkpt><trkpt lat="46.15469533676251" lon="13.341952317441738"><ele>188.75</ele><time>2026-04-18T10:06:04.999Z</time></trkpt><trkpt lat="46.15463009956534" lon="13.342091289566218"><ele>188.0</ele><time>2026-04-18T10:06:05.999Z</time></trkpt><trkpt lat="46.15457243703767" lon="13.342220471830199"><ele>188.0</ele><time>2026-04-18T10:06:06.999Z</time></trkpt><trkpt lat="46.154517267915516" lon="13.342339835074629"><ele>188.0</ele><time>2026-04-18T10:06:07.999Z</time></trkpt><trkpt lat="46.15445753654485" lon="13.342449047274165"><ele>188.0</ele><time>2026-04-18T10:06:08.999Z</time></trkpt><trkpt lat="46.15438916585885" lon="13.342539491267676"><ele>188.0</ele><time>2026-04-18T10:06:09.999Z</time></trkpt><trkpt lat="46.15431485219468" lon="13.342606299953031"><ele>188.0</ele><time>2026-04-18T10:06:10.999Z</time></trkpt><trkpt lat="46.154244863332664" lon="13.342669209332744"><ele>188.0</ele><time>2026-04-18T10:06:11.999Z</time></trkpt><trkpt lat="46.15419812997346" lon="13.342766467795695"><ele>188.0</ele><time>2026-04-18T10:06:12.999Z</time></trkpt><trkpt lat="46.15418895164196" lon="13.342881923271854"><ele>188.0</ele><time>2026-04-18T10:06:13.999Z</time></trkpt><trkpt lat="46.154170276152925" lon="13.343001013963516"><ele>188.0</ele><time>2026-04-18T10:06:14.999Z</time></trkpt><trkpt lat="46.1541789019343" lon="13.343132724661718"><ele>188.0</ele><time>2026-04-18T10:06:15.999Z</time></trkpt><trkpt lat="46.15415432661365" lon="13.343266096709018"><ele>188.0</ele><time>2026-04-18T10:06:16.999Z</time></trkpt><trkpt lat="46.154112917554436" lon="13.343399610621807"><ele>189.0</ele><time>2026-04-18T10:06:17.999Z</time></trkpt><trkpt lat="46.154061459457935" lon="13.343521112123051"><ele>190.0</ele><time>2026-04-18T10:06:18.999Z</time></trkpt><trkpt lat="46.15400462246298" lon="13.343629266643221"><ele>191.0</ele><time>2026-04-18T10:06:19.999Z</time></trkpt><trkpt lat="46.15394967346285" lon="13.343738365912168"><ele>192.0</ele><time>2026-04-18T10:06:20.999Z</time></trkpt><trkpt lat="46.15389881792611" lon="13.34384709766023"><ele>193.0</ele><time>2026-04-18T10:06:21.999Z</time></trkpt><trkpt lat="46.15385042172902" lon="13.343955727466284"><ele>190.33333333333331</ele><time>2026-04-18T10:06:22.999Z</time></trkpt><trkpt lat="46.15380107876986" lon="13.344059072809117"><ele>187.66666666666666</ele><time>2026-04-18T10:06:23.999Z</time></trkpt><trkpt lat="46.15375079146436" lon="13.344160478538885"><ele>185.0</ele><time>2026-04-18T10:06:24.999Z</time></trkpt><trkpt lat="46.15370430625259" lon="13.344261835876162"><ele>182.33333333333331</ele><time>2026-04-18T10:06:25.999Z</time></trkpt><trkpt lat="46.15366027545138" lon="13.344360303336616"><ele>179.66666666666666</ele><time>2026-04-18T10:06:26.999Z</time></trkpt><trkpt lat="46.15361917210444" lon="13.34446628769752"><ele>177.0</ele><time>2026-04-18T10:06:27.999Z</time></trkpt><trkpt lat="46.15358429158778" lon="13.344590754832778"><ele>177.0</ele><time>2026-04-18T10:06:28.999Z</time></trkpt><trkpt lat="46.1535627248438" lon="13.344731840529525"><ele>177.0</ele><time>2026-04-18T10:06:29.999Z</time></trkpt><trkpt lat="46.15352549144225" lon="13.344879438544936"><ele>177.0</ele><time>2026-04-18T10:06:30.999Z</time></trkpt><trkpt lat="46.153504459934105" lon="13.345040436040536"><ele>177.0</ele><time>2026-04-18T10:06:31.999Z</time></trkpt><trkpt lat="46.153482929405016" lon="13.345205253558495"><ele>177.0</ele><time>2026-04-18T10:06:32.999Z</time></trkpt><trkpt lat="46.15346277094751" lon="13.345359567811586"><ele>177.0</ele><time>2026-04-18T10:06:33.999Z</time></trkpt><trkpt lat="46.15344389521627" lon="13.345504062713543"><ele>177.0</ele><time>2026-04-18T10:06:34.999Z</time></trkpt><trkpt lat="46.153426915456684" lon="13.34562829850763"><ele>177.0</ele><time>2026-04-18T10:06:35.999Z</time></trkpt><trkpt lat="46.15340990397895" lon="13.3457423616672"><ele>177.0</ele><time>2026-04-18T10:06:36.999Z</time></trkpt><trkpt lat="46.1533935112126" lon="13.345848246781296"><ele>177.0</ele><time>2026-04-18T10:06:37.999Z</time></trkpt><trkpt lat="46.153374279525856" lon="13.345940238923506"><ele>177.0</ele><time>2026-04-18T10:06:38.999Z</time></trkpt><trkpt lat="46.15334220635005" lon="13.346018776861271"><ele>176.75</ele><time>2026-04-18T10:06:39.999Z</time></trkpt><trkpt lat="46.15325961113878" lon="13.34615574282542"><ele>176.5</ele><time>2026-04-18T10:06:41.999Z</time></trkpt><trkpt lat="46.153162364311086" lon="13.346250935120448"><ele>176.25</ele><time>2026-04-18T10:06:43.999Z</time></trkpt><trkpt lat="46.15307030055764" lon="13.346332612037802"><ele>176.0</ele><time>2026-04-18T10:06:45.999Z</time></trkpt><trkpt lat="46.1529497492231" lon="13.34634765587322"><ele>175.16666666666666</ele><time>2026-04-18T10:06:47.999Z</time></trkpt><trkpt lat="46.15288273817063" lon="13.346303881621948"><ele>174.33333333333331</ele><time>2026-04-18T10:06:48.999Z</time></trkpt><trkpt lat="46.152818839791095" lon="13.346245778228424"><ele>173.5</ele><time>2026-04-18T10:06:49.999Z</time></trkpt><trkpt lat="46.15275970267788" lon="13.346186343873548"><ele>172.66666666666666</ele><time>2026-04-18T10:06:50.999Z</time></trkpt><trkpt lat="46.152705780164425" lon="13.346133843625937"><ele>171.83333333333334</ele><time>2026-04-18T10:06:51.999Z</time></trkpt><trkpt lat="46.15262220051218" lon="13.34604851124673"><ele>171.0</ele><time>2026-04-18T10:06:53.999Z</time></trkpt><trkpt lat="46.15255406521969" lon="13.345988038692973"><ele>171.0</ele><time>2026-04-18T10:06:56.999Z</time></trkpt><trkpt lat="46.152505660357484" lon="13.345929346679954"><ele>171.0</ele><time>2026-04-18T10:07:05.999Z</time></trkpt><trkpt lat="46.1524473476699" lon="13.345889446576631"><ele>171.0</ele><time>2026-04-18T10:07:27.999Z</time></trkpt><trkpt lat="46.15245512288972" lon="13.34598645829298"><ele>171.0</ele><time>2026-04-18T10:07:31.999Z</time></trkpt><trkpt lat="46.15254280799155" lon="13.345994105530659"><ele>171.0</ele><time>2026-04-18T10:07:35.999Z</time></trkpt><trkpt lat="46.15262735280455" lon="13.346073347473073"><ele>171.0</ele><time>2026-04-18T10:07:37.999Z</time></trkpt><trkpt lat="46.152678546922985" lon="13.346142885039127"><ele>171.0</ele><time>2026-04-18T10:07:39Z</time></trkpt><trkpt lat="46.152745487807834" lon="13.346194570985503"><ele>171.0</ele><time>2026-04-18T10:07:40Z</time></trkpt><trkpt lat="46.15281392098904" lon="13.346258547255792"><ele>171.0</ele><time>2026-04-18T10:07:41Z</time></trkpt><trkpt lat="46.15287524166222" lon="13.346332745155259"><ele>171.0</ele><time>2026-04-18T10:07:42Z</time></trkpt><trkpt lat="46.152961157175405" lon="13.346504260530194"><ele>171.0</ele><time>2026-04-18T10:07:43Z</time></trkpt><trkpt lat="46.15302428016029" lon="13.34663862412345"><ele>171.0</ele><time>2026-04-18T10:07:44Z</time></trkpt><trkpt lat="46.15307126265928" lon="13.346745364134042"><ele>171.0</ele><time>2026-04-18T10:07:45Z</time></trkpt><trkpt lat="46.15311934830911" lon="13.346856320229827"><ele>171.0</ele><time>2026-04-18T10:07:46Z</time></trkpt><trkpt lat="46.15316891217537" lon="13.346960731285007"><ele>171.0</ele><time>2026-04-18T10:07:47Z</time></trkpt><trkpt lat="46.15321614614745" lon="13.34706327881012"><ele>171.0</ele><time>2026-04-18T10:07:48Z</time></trkpt><trkpt lat="46.15326856390692" lon="13.347169752705486"><ele>171.0</ele><time>2026-04-18T10:07:49Z</time></trkpt><trkpt lat="46.15332806675573" lon="13.347294411313653"><ele>171.5</ele><time>2026-04-18T10:07:50Z</time></trkpt><trkpt lat="46.15340680610217" lon="13.347419518161717"><ele>172.0</ele><time>2026-04-18T10:07:51Z</time></trkpt><trkpt lat="46.15349228689353" lon="13.347532832930957"><ele>172.5</ele><time>2026-04-18T10:07:52Z</time></trkpt><trkpt lat="46.15358327986219" lon="13.347629015165708"><ele>173.0</ele><time>2026-04-18T10:07:53Z</time></trkpt><trkpt lat="46.15368539757886" lon="13.347718580499548"><ele>173.0</ele><time>2026-04-18T10:07:54Z</time></trkpt><trkpt lat="46.153781562212096" lon="13.347798049651898"><ele>173.0</ele><time>2026-04-18T10:07:55Z</time></trkpt><trkpt lat="46.153870871670634" lon="13.347866761989797"><ele>173.0</ele><time>2026-04-18T10:07:56Z</time></trkpt><trkpt lat="46.15395736738775" lon="13.347917627339239"><ele>173.0</ele><time>2026-04-18T10:07:57Z</time></trkpt><trkpt lat="46.154037082927196" lon="13.347964656442988"><ele>173.0</ele><time>2026-04-18T10:07:58Z</time></trkpt><trkpt lat="46.15411392160708" lon="13.348009071284459"><ele>173.66666666666666</ele><time>2026-04-18T10:07:59Z</time></trkpt><trkpt lat="46.154176203915405" lon="13.34809543577119"><ele>174.33333333333331</ele><time>2026-04-18T10:08:00Z</time></trkpt><trkpt lat="46.154247118678995" lon="13.348141051396516"><ele>175.0</ele><time>2026-04-18T10:08:01Z</time></trkpt><trkpt lat="46.15431925186339" lon="13.348188824161397"><ele>175.66666666666666</ele><time>2026-04-18T10:08:02Z</time></trkpt><trkpt lat="46.15439629379931" lon="13.34823988929948"><ele>176.33333333333334</ele><time>2026-04-18T10:08:03Z</time></trkpt><trkpt lat="46.154482157005866" lon="13.348297935247729"><ele>177.0</ele><time>2026-04-18T10:08:04Z</time></trkpt><trkpt lat="46.154579510788764" lon="13.348364614687785"><ele>177.0</ele><time>2026-04-18T10:08:05Z</time></trkpt><trkpt lat="46.15468349592316" lon="13.348436862492179"><ele>177.0</ele><time>2026-04-18T10:08:06Z</time></trkpt><trkpt lat="46.15479244782495" lon="13.348528002888646"><ele>177.0</ele><time>2026-04-18T10:08:07Z</time></trkpt><trkpt lat="46.154896775358345" lon="13.34865180742915"><ele>177.0</ele><time>2026-04-18T10:08:08Z</time></trkpt><trkpt lat="46.15499393918047" lon="13.348789009690316"><ele>177.75</ele><time>2026-04-18T10:08:09Z</time></trkpt><trkpt lat="46.155081503009015" lon="13.348907314445558"><ele>178.5</ele><time>2026-04-18T10:08:10Z</time></trkpt><trkpt lat="46.15516781063508" lon="13.349009871352429"><ele>179.25</ele><time>2026-04-18T10:08:11Z</time></trkpt><trkpt lat="46.15527568224323" lon="13.349092654365148"><ele>180.0</ele><time>2026-04-18T10:08:12Z</time></trkpt><trkpt lat="46.15540038885631" lon="13.349164226345898"><ele>180.0</ele><time>2026-04-18T10:08:13Z</time></trkpt><trkpt lat="46.15552972763725" lon="13.349238888014339"><ele>180.0</ele><time>2026-04-18T10:08:14Z</time></trkpt><trkpt lat="46.15565838012018" lon="13.34931315351735"><ele>180.0</ele><time>2026-04-18T10:08:15Z</time></trkpt><trkpt lat="46.15578560285601" lon="13.349393926824188"><ele>180.0</ele><time>2026-04-18T10:08:16Z</time></trkpt><trkpt lat="46.155906984166776" lon="13.349488235987804"><ele>179.8</ele><time>2026-04-18T10:08:17Z</time></trkpt><trkpt lat="46.15600837115972" lon="13.349596549150082"><ele>179.6</ele><time>2026-04-18T10:08:18Z</time></trkpt><trkpt lat="46.156087222464656" lon="13.349708966966038"><ele>179.39999999999998</ele><time>2026-04-18T10:08:19Z</time></trkpt><trkpt lat="46.15614922827166" lon="13.349811265945194"><ele>179.2</ele><time>2026-04-18T10:08:20Z</time></trkpt><trkpt lat="46.15620663079082" lon="13.34991775380973"><ele>179.0</ele><time>2026-04-18T10:08:21Z</time></trkpt><trkpt lat="46.15626160353371" lon="13.350027556302072"><ele>179.0</ele><time>2026-04-18T10:08:21.999Z</time></trkpt><trkpt lat="46.15631028299302" lon="13.350127767009731"><ele>179.0</ele><time>2026-04-18T10:08:22.999Z</time></trkpt><trkpt lat="46.15635689839409" lon="13.350223728688846"><ele>179.0</ele><time>2026-04-18T10:08:23.999Z</time></trkpt><trkpt lat="46.15640347638264" lon="13.350319613348404"><ele>179.0</ele><time>2026-04-18T10:08:24.999Z</time></trkpt><trkpt lat="46.15644665739759" lon="13.350408505055476"><ele>179.0</ele><time>2026-04-18T10:08:25.999Z</time></trkpt><trkpt lat="46.15650213013098" lon="13.350487868194415"><ele>179.0</ele><time>2026-04-18T10:08:26.999Z</time></trkpt><trkpt lat="46.15658487722771" lon="13.350524246555153"><ele>180.0</ele><time>2026-04-18T10:08:27.999Z</time></trkpt><trkpt lat="46.156668555281044" lon="13.35058316296071"><ele>181.0</ele><time>2026-04-18T10:08:28.999Z</time></trkpt><trkpt lat="46.15677015589205" lon="13.350635380627763"><ele>182.0</ele><time>2026-04-18T10:08:29.999Z</time></trkpt><trkpt lat="46.156882362232516" lon="13.35069317372545"><ele>183.0</ele><time>2026-04-18T10:08:30.999Z</time></trkpt><trkpt lat="46.1570055899375" lon="13.350752524560862"><ele>183.0</ele><time>2026-04-18T10:08:31.999Z</time></trkpt><trkpt lat="46.157116783332555" lon="13.350814731004416"><ele>183.0</ele><time>2026-04-18T10:08:32.999Z</time></trkpt><trkpt lat="46.157226782738555" lon="13.350876269485816"><ele>183.0</ele><time>2026-04-18T10:08:33.999Z</time></trkpt><trkpt lat="46.157337279116106" lon="13.35095871939747"><ele>183.0</ele><time>2026-04-18T10:08:34.999Z</time></trkpt><trkpt lat="46.15744695683887" lon="13.351060199052366"><ele>184.25</ele><time>2026-04-18T10:08:35.999Z</time></trkpt><trkpt lat="46.15754827836932" lon="13.35118053357487"><ele>185.5</ele><time>2026-04-18T10:08:36.999Z</time></trkpt><trkpt lat="46.15764702654507" lon="13.351310948888282"><ele>186.75</ele><time>2026-04-18T10:08:37.999Z</time></trkpt><trkpt lat="46.157744300979" lon="13.351448210403557"><ele>188.0</ele><time>2026-04-18T10:08:38.999Z</time></trkpt><trkpt lat="46.15784617305105" lon="13.351590381397402"><ele>188.0</ele><time>2026-04-18T10:08:39.999Z</time></trkpt><trkpt lat="46.15794592220257" lon="13.351728134059291"><ele>188.0</ele><time>2026-04-18T10:08:40.999Z</time></trkpt><trkpt lat="46.15805082936326" lon="13.351840169104713"><ele>188.0</ele><time>2026-04-18T10:08:41.999Z</time></trkpt><trkpt lat="46.15813160592543" lon="13.351984561622206"><ele>188.0</ele><time>2026-04-18T10:08:42.999Z</time></trkpt><trkpt lat="46.15822567349555" lon="13.352114468097257"><ele>187.75</ele><time>2026-04-18T10:08:43.999Z</time></trkpt><trkpt lat="46.158320926048106" lon="13.35224466497701"><ele>187.5</ele><time>2026-04-18T10:08:44.999Z</time></trkpt><trkpt lat="46.15841416422258" lon="13.352370270804442"><ele>187.25</ele><time>2026-04-18T10:08:45.999Z</time></trkpt><trkpt lat="46.158512685249825" lon="13.352471707178427"><ele>187.0</ele><time>2026-04-18T10:08:46.999Z</time></trkpt><trkpt lat="46.15859376575187" lon="13.352581397970464"><ele>187.0</ele><time>2026-04-18T10:08:47.999Z</time></trkpt><trkpt lat="46.1586593085754" lon="13.352675022219394"><ele>187.0</ele><time>2026-04-18T10:08:48.999Z</time></trkpt><trkpt lat="46.15873663460997" lon="13.352751850188529"><ele>187.0</ele><time>2026-04-18T10:08:49.999Z</time></trkpt><trkpt lat="46.15882409299688" lon="13.35282391360062"><ele>187.0</ele><time>2026-04-18T10:08:50.999Z</time></trkpt><trkpt lat="46.15892331831155" lon="13.35289259541782"><ele>187.0</ele><time>2026-04-18T10:08:51.999Z</time></trkpt><trkpt lat="46.159020162662436" lon="13.35300336673865"><ele>188.25</ele><time>2026-04-18T10:08:52.999Z</time></trkpt><trkpt lat="46.159143030346684" lon="13.353091592218494"><ele>189.5</ele><time>2026-04-18T10:08:53.999Z</time></trkpt><trkpt lat="46.159268371619056" lon="13.353179578170185"><ele>190.75</ele><time>2026-04-18T10:08:54.999Z</time></trkpt><trkpt lat="46.15938499505022" lon="13.353260934674912"><ele>192.0</ele><time>2026-04-18T10:08:55.999Z</time></trkpt><trkpt lat="46.15950245563863" lon="13.3533439656667"><ele>192.0</ele><time>2026-04-18T10:08:56.999Z</time></trkpt><trkpt lat="46.15962389320701" lon="13.35343037667512"><ele>192.0</ele><time>2026-04-18T10:08:57.999Z</time></trkpt><trkpt lat="46.15974578756719" lon="13.353527160370959"><ele>192.0</ele><time>2026-04-18T10:08:58.999Z</time></trkpt><trkpt lat="46.1598665901692" lon="13.353634855345286"><ele>192.0</ele><time>2026-04-18T10:08:59.999Z</time></trkpt><trkpt lat="46.15998955976687" lon="13.353743328432605"><ele>192.75</ele><time>2026-04-18T10:09:00.999Z</time></trkpt><trkpt lat="46.16009171080215" lon="13.353894166343354"><ele>193.5</ele><time>2026-04-18T10:09:01.999Z</time></trkpt><trkpt lat="46.16019466020646" lon="13.354056820193684"><ele>194.25</ele><time>2026-04-18T10:09:02.999Z</time></trkpt><trkpt lat="46.160284256804616" lon="13.354229624585736"><ele>195.0</ele><time>2026-04-18T10:09:03.999Z</time></trkpt><trkpt lat="46.16039287995378" lon="13.354364557024695"><ele>195.0</ele><time>2026-04-18T10:09:04.999Z</time></trkpt><trkpt lat="46.160483685581426" lon="13.354504337832378"><ele>195.0</ele><time>2026-04-18T10:09:05.999Z</time></trkpt><trkpt lat="46.16056645280975" lon="13.354636829393723"><ele>195.0</ele><time>2026-04-18T10:09:06.999Z</time></trkpt><trkpt lat="46.1606511992759" lon="13.354766359728377"><ele>195.0</ele><time>2026-04-18T10:09:07.999Z</time></trkpt><trkpt lat="46.16073616662998" lon="13.35490358155766"><ele>196.25</ele><time>2026-04-18T10:09:08.999Z</time></trkpt><trkpt lat="46.16081568310499" lon="13.35505892617535"><ele>197.5</ele><time>2026-04-18T10:09:09.999Z</time></trkpt><trkpt lat="46.16091725779819" lon="13.355189252242408"><ele>198.75</ele><time>2026-04-18T10:09:10.999Z</time></trkpt><trkpt lat="46.16103319565438" lon="13.355294618242224"><ele>200.0</ele><time>2026-04-18T10:09:11.999Z</time></trkpt><trkpt lat="46.16113462936241" lon="13.355424882630928"><ele>198.75</ele><time>2026-04-18T10:09:12.999Z</time></trkpt><trkpt lat="46.16123861316879" lon="13.355565542620118"><ele>197.5</ele><time>2026-04-18T10:09:13.999Z</time></trkpt><trkpt lat="46.161330627819694" lon="13.35571747904224"><ele>196.25</ele><time>2026-04-18T10:09:14.999Z</time></trkpt><trkpt lat="46.161397173221836" lon="13.355866364246273"><ele>195.0</ele><time>2026-04-18T10:09:15.999Z</time></trkpt><trkpt lat="46.161479187952885" lon="13.355984039169426"><ele>196.6</ele><time>2026-04-18T10:09:16.999Z</time></trkpt><trkpt lat="46.1615498624522" lon="13.356106107610762"><ele>198.2</ele><time>2026-04-18T10:09:17.999Z</time></trkpt><trkpt lat="46.16162217964683" lon="13.356224131869075"><ele>199.8</ele><time>2026-04-18T10:09:18.999Z</time></trkpt><trkpt lat="46.16169767387817" lon="13.356336297809433"><ele>201.4</ele><time>2026-04-18T10:09:19.999Z</time></trkpt><trkpt lat="46.16177158415053" lon="13.356455159291013"><ele>203.0</ele><time>2026-04-18T10:09:20.999Z</time></trkpt><trkpt lat="46.1618744295683" lon="13.356526650087465"><ele>203.0</ele><time>2026-04-18T10:09:21.999Z</time></trkpt><trkpt lat="46.16196785504924" lon="13.356613959798032"><ele>203.0</ele><time>2026-04-18T10:09:22.999Z</time></trkpt><trkpt lat="46.16205928354953" lon="13.356700630603518"><ele>203.0</ele><time>2026-04-18T10:09:23.999Z</time></trkpt><trkpt lat="46.162148781624985" lon="13.356778268010098"><ele>203.0</ele><time>2026-04-18T10:09:24.999Z</time></trkpt><trkpt lat="46.162228238081944" lon="13.356847938999397"><ele>203.0</ele><time>2026-04-18T10:09:25.999Z</time></trkpt><trkpt lat="46.16230234761491" lon="13.356916416980443"><ele>203.0</ele><time>2026-04-18T10:09:26.999Z</time></trkpt><trkpt lat="46.16236281409113" lon="13.35701064489469"><ele>203.0</ele><time>2026-04-18T10:09:27.999Z</time></trkpt><trkpt lat="46.16242843593663" lon="13.357083884748217"><ele>203.0</ele><time>2026-04-18T10:09:28.999Z</time></trkpt><trkpt lat="46.16250199410165" lon="13.357166457848145"><ele>203.0</ele><time>2026-04-18T10:09:29.999Z</time></trkpt><trkpt lat="46.162594317645734" lon="13.35727117490932"><ele>203.0</ele><time>2026-04-18T10:09:30.999Z</time></trkpt><trkpt lat="46.162691476778384" lon="13.357379410024246"><ele>202.60000000000002</ele><time>2026-04-18T10:09:31.999Z</time></trkpt><trkpt lat="46.16279293004815" lon="13.357457760855315"><ele>202.20000000000002</ele><time>2026-04-18T10:09:32.999Z</time></trkpt><trkpt lat="46.16287449151143" lon="13.357543804575245"><ele>201.8</ele><time>2026-04-18T10:09:33.999Z</time></trkpt><trkpt lat="46.16295195408562" lon="13.35764737197582"><ele>201.4</ele><time>2026-04-18T10:09:35Z</time></trkpt><trkpt lat="46.163039911529225" lon="13.357728167028577"><ele>201.0</ele><time>2026-04-18T10:09:36Z</time></trkpt><trkpt lat="46.163126579360366" lon="13.357805168624745"><ele>202.25</ele><time>2026-04-18T10:09:37Z</time></trkpt><trkpt lat="46.163214250442955" lon="13.357879148305704"><ele>203.5</ele><time>2026-04-18T10:09:38Z</time></trkpt><trkpt lat="46.16330888364566" lon="13.357956768111364"><ele>204.75</ele><time>2026-04-18T10:09:39Z</time></trkpt><trkpt lat="46.16342607081251" lon="13.35803490965208"><ele>206.0</ele><time>2026-04-18T10:09:40Z</time></trkpt><trkpt lat="46.163561809451906" lon="13.35809498850985"><ele>206.0</ele><time>2026-04-18T10:09:41Z</time></trkpt><trkpt lat="46.1636997119947" lon="13.358151122536944"><ele>206.0</ele><time>2026-04-18T10:09:42Z</time></trkpt><trkpt lat="46.16383189848604" lon="13.358203199200378"><ele>206.0</ele><time>2026-04-18T10:09:43Z</time></trkpt><trkpt lat="46.16396748786067" lon="13.358256616484715"><ele>206.0</ele><time>2026-04-18T10:09:44Z</time></trkpt><trkpt lat="46.16410519223204" lon="13.358311209061576"><ele>206.75</ele><time>2026-04-18T10:09:45Z</time></trkpt><trkpt lat="46.16423982033728" lon="13.358364590778104"><ele>207.5</ele><time>2026-04-18T10:09:46Z</time></trkpt><trkpt lat="46.16438556616551" lon="13.358424570486239"><ele>208.25</ele><time>2026-04-18T10:09:47Z</time></trkpt><trkpt lat="46.164533610289716" lon="13.35848452440907"><ele>209.0</ele><time>2026-04-18T10:09:48Z</time></trkpt><trkpt lat="46.16467707163707" lon="13.358543373794992"><ele>209.0</ele><time>2026-04-18T10:09:49Z</time></trkpt><trkpt lat="46.164820015448605" lon="13.358604093838942"><ele>209.0</ele><time>2026-04-18T10:09:50Z</time></trkpt><trkpt lat="46.164954246001045" lon="13.358664086872226"><ele>209.0</ele><time>2026-04-18T10:09:51Z</time></trkpt><trkpt lat="46.16507884690809" lon="13.358738164557938"><ele>209.0</ele><time>2026-04-18T10:09:52Z</time></trkpt><trkpt lat="46.1652017043266" lon="13.358829115704026"><ele>208.5</ele><time>2026-04-18T10:09:53Z</time></trkpt><trkpt lat="46.16531910482929" lon="13.358945619137476"><ele>208.0</ele><time>2026-04-18T10:09:54Z</time></trkpt><trkpt lat="46.16542716899311" lon="13.35906774857721"><ele>207.5</ele><time>2026-04-18T10:09:55Z</time></trkpt><trkpt lat="46.16552422001529" lon="13.359176252830034"><ele>207.0</ele><time>2026-04-18T10:09:56Z</time></trkpt><trkpt lat="46.165608288474374" lon="13.359271353013591"><ele>207.0</ele><time>2026-04-18T10:09:57Z</time></trkpt><trkpt lat="46.16569340292361" lon="13.359368033019717"><ele>207.0</ele><time>2026-04-18T10:09:58Z</time></trkpt><trkpt lat="46.165774893490855" lon="13.359461535450476"><ele>207.0</ele><time>2026-04-18T10:09:59Z</time></trkpt><trkpt lat="46.16585635964056" lon="13.359556916472402"><ele>207.0</ele><time>2026-04-18T10:10:00Z</time></trkpt><trkpt lat="46.16594253166186" lon="13.359654710461493"><ele>207.0</ele><time>2026-04-18T10:10:01Z</time></trkpt><trkpt lat="46.16604220359233" lon="13.359749370690805"><ele>209.5</ele><time>2026-04-18T10:10:02Z</time></trkpt><trkpt lat="46.16614161991157" lon="13.359838504339956"><ele>212.0</ele><time>2026-04-18T10:10:03Z</time></trkpt><trkpt lat="46.16624470404354" lon="13.359910039919987"><ele>214.5</ele><time>2026-04-18T10:10:04Z</time></trkpt><trkpt lat="46.16633241958075" lon="13.360012429471418"><ele>217.0</ele><time>2026-04-18T10:10:05Z</time></trkpt><trkpt lat="46.16641571308654" lon="13.360112122690575"><ele>216.99999999999997</ele><time>2026-04-18T10:10:06Z</time></trkpt><trkpt lat="46.16649389627908" lon="13.3602071783069"><ele>217.0</ele><time>2026-04-18T10:10:07Z</time></trkpt><trkpt lat="46.16655961374127" lon="13.360307853528877"><ele>217.0</ele><time>2026-04-18T10:10:08Z</time></trkpt><trkpt lat="46.166619301108476" lon="13.36039744648404"><ele>217.0</ele><time>2026-04-18T10:10:09Z</time></trkpt><trkpt lat="46.166670884425024" lon="13.360463162340654"><ele>216.99999999999997</ele><time>2026-04-18T10:10:10Z</time></trkpt><trkpt lat="46.16671584062984" lon="13.360533441381486"><ele>217.0</ele><time>2026-04-18T10:10:11Z</time></trkpt><trkpt lat="46.166775581319754" lon="13.360584284983357"><ele>219.33333333333331</ele><time>2026-04-18T10:10:12Z</time></trkpt><trkpt lat="46.16684393993618" lon="13.360600772162918"><ele>221.66666666666666</ele><time>2026-04-18T10:10:13Z</time></trkpt><trkpt lat="46.16691475235257" lon="13.360602670427532"><ele>224.0</ele><time>2026-04-18T10:10:14Z</time></trkpt><trkpt lat="46.16698587934865" lon="13.360603422169568"><ele>226.33333333333331</ele><time>2026-04-18T10:10:15Z</time></trkpt><trkpt lat="46.16706831585483" lon="13.36061876380841"><ele>228.66666666666666</ele><time>2026-04-18T10:10:16Z</time></trkpt><trkpt lat="46.167147061008286" lon="13.360646841394457"><ele>231.0</ele><time>2026-04-18T10:10:17Z</time></trkpt><trkpt lat="46.16723484162918" lon="13.360676627547747"><ele>231.0</ele><time>2026-04-18T10:10:18Z</time></trkpt><trkpt lat="46.167317151548865" lon="13.360707620601826"><ele>231.0</ele><time>2026-04-18T10:10:19Z</time></trkpt><trkpt lat="46.16739129802264" lon="13.36073392140386"><ele>231.0</ele><time>2026-04-18T10:10:20Z</time></trkpt><trkpt lat="46.16745749443633" lon="13.360760000264003"><ele>231.0</ele><time>2026-04-18T10:10:21Z</time></trkpt><trkpt lat="46.16752050704467" lon="13.360789295127782"><ele>231.0</ele><time>2026-04-18T10:10:22Z</time></trkpt><trkpt lat="46.16757669883003" lon="13.360840740832947"><ele>231.0</ele><time>2026-04-18T10:10:23Z</time></trkpt><trkpt lat="46.16761785255653" lon="13.360920334727993"><ele>231.0</ele><time>2026-04-18T10:10:24Z</time></trkpt><trkpt lat="46.16762901737879" lon="13.361025130709118"><ele>231.0</ele><time>2026-04-18T10:10:25Z</time></trkpt><trkpt lat="46.16766621526722" lon="13.361125674390612"><ele>231.00000000000003</ele><time>2026-04-18T10:10:26Z</time></trkpt><trkpt lat="46.16766629609414" lon="13.36125409792621"><ele>231.00000000000003</ele><time>2026-04-18T10:10:27Z</time></trkpt><trkpt lat="46.167684322029864" lon="13.361395487404563"><ele>231.0</ele><time>2026-04-18T10:10:28Z</time></trkpt><trkpt lat="46.16771601885228" lon="13.361537325658555"><ele>231.0</ele><time>2026-04-18T10:10:29Z</time></trkpt><trkpt lat="46.16770847973099" lon="13.361674779016552"><ele>231.0</ele><time>2026-04-18T10:10:30Z</time></trkpt><trkpt lat="46.167727956650765" lon="13.361806449011334"><ele>231.00000000000003</ele><time>2026-04-18T10:10:31Z</time></trkpt><trkpt lat="46.167719079515095" lon="13.361943665236351"><ele>231.00000000000003</ele><time>2026-04-18T10:10:32Z</time></trkpt><trkpt lat="46.167695481420985" lon="13.362079685705428"><ele>231.0</ele><time>2026-04-18T10:10:33Z</time></trkpt><trkpt lat="46.16765547012975" lon="13.362203232805891"><ele>231.0</ele><time>2026-04-18T10:10:34Z</time></trkpt><trkpt lat="46.16761537541049" lon="13.362313665251332"><ele>235.60000000000002</ele><time>2026-04-18T10:10:35Z</time></trkpt><trkpt lat="46.1675902065382" lon="13.36242462392482"><ele>240.20000000000002</ele><time>2026-04-18T10:10:36Z</time></trkpt><trkpt lat="46.167577876510734" lon="13.362542239602007"><ele>244.79999999999998</ele><time>2026-04-18T10:10:37Z</time></trkpt><trkpt lat="46.16756015709516" lon="13.36265814868544"><ele>249.39999999999998</ele><time>2026-04-18T10:10:38Z</time></trkpt><trkpt lat="46.16756836882908" lon="13.36280427392748"><ele>254.0</ele><time>2026-04-18T10:10:39Z</time></trkpt><trkpt lat="46.16758237418261" lon="13.362970232754547"><ele>256.5</ele><time>2026-04-18T10:10:40Z</time></trkpt><trkpt lat="46.167599131354216" lon="13.363153023764761"><ele>259.0</ele><time>2026-04-18T10:10:41Z</time></trkpt><trkpt lat="46.16761828262286" lon="13.36334541645418"><ele>261.5</ele><time>2026-04-18T10:10:42Z</time></trkpt><trkpt lat="46.167637356914135" lon="13.363531403282197"><ele>264.0</ele><time>2026-04-18T10:10:43Z</time></trkpt><trkpt lat="46.16765803823132" lon="13.363724136340839"><ele>266.0</ele><time>2026-04-18T10:10:44Z</time></trkpt><trkpt lat="46.16768803132793" lon="13.363921498877655"><ele>268.0</ele><time>2026-04-18T10:10:45Z</time></trkpt><trkpt lat="46.16773589477642" lon="13.364097300824707"><ele>270.0</ele><time>2026-04-18T10:10:46Z</time></trkpt><trkpt lat="46.16775190499374" lon="13.364272136288674"><ele>272.0</ele><time>2026-04-18T10:10:47Z</time></trkpt><trkpt lat="46.16776560178158" lon="13.364428867232121"><ele>272.0</ele><time>2026-04-18T10:10:48Z</time></trkpt><trkpt lat="46.16776048234289" lon="13.364583864353742"><ele>272.0</ele><time>2026-04-18T10:10:49Z</time></trkpt><trkpt lat="46.16781692748355" lon="13.364721175556097"><ele>272.0</ele><time>2026-04-18T10:10:50Z</time></trkpt><trkpt lat="46.167889016139405" lon="13.364847743090047"><ele>272.0</ele><time>2026-04-18T10:10:51Z</time></trkpt><trkpt lat="46.16794651839049" lon="13.364981011404872"><ele>272.0</ele><time>2026-04-18T10:10:51.999Z</time></trkpt><trkpt lat="46.16802115273609" lon="13.365104069738766"><ele>276.25</ele><time>2026-04-18T10:10:52.999Z</time></trkpt><trkpt lat="46.168104816614736" lon="13.36524350957408"><ele>280.5</ele><time>2026-04-18T10:10:53.999Z</time></trkpt><trkpt lat="46.168200241735065" lon="13.36538396985269"><ele>284.75</ele><time>2026-04-18T10:10:54.999Z</time></trkpt><trkpt lat="46.168295433079216" lon="13.365551191468121"><ele>289.0</ele><time>2026-04-18T10:10:55.999Z</time></trkpt><trkpt lat="46.16837882119767" lon="13.365705021569333"><ele>279.75</ele><time>2026-04-18T10:10:56.999Z</time></trkpt><trkpt lat="46.1684656150152" lon="13.365837786803446"><ele>270.5</ele><time>2026-04-18T10:10:57.999Z</time></trkpt><trkpt lat="46.168541991934894" lon="13.365979248082791"><ele>261.25</ele><time>2026-04-18T10:10:58.999Z</time></trkpt><trkpt lat="46.16861886374533" lon="13.366139433789087"><ele>252.0</ele><time>2026-04-18T10:10:59.999Z</time></trkpt><trkpt lat="46.16868362414063" lon="13.366304765391167"><ele>257.0</ele><time>2026-04-18T10:11:00.999Z</time></trkpt><trkpt lat="46.16873595773761" lon="13.366473405751206"><ele>262.0</ele><time>2026-04-18T10:11:01.999Z</time></trkpt><trkpt lat="46.16877246659549" lon="13.366666382516092"><ele>267.0</ele><time>2026-04-18T10:11:02.999Z</time></trkpt><trkpt lat="46.16880227408809" lon="13.366871987634296"><ele>272.0</ele><time>2026-04-18T10:11:03.999Z</time></trkpt><trkpt lat="46.168822626522335" lon="13.367058785867574"><ele>268.5</ele><time>2026-04-18T10:11:04.999Z</time></trkpt><trkpt lat="46.16884730646026" lon="13.367238327606287"><ele>265.0</ele><time>2026-04-18T10:11:05.999Z</time></trkpt><trkpt lat="46.16889578235131" lon="13.367411052078937"><ele>261.5</ele><time>2026-04-18T10:11:06.999Z</time></trkpt><trkpt lat="46.16896105247025" lon="13.36757810797863"><ele>258.0</ele><time>2026-04-18T10:11:07.999Z</time></trkpt><trkpt lat="46.169033352784986" lon="13.367739119970338"><ele>258.0</ele><time>2026-04-18T10:11:08.999Z</time></trkpt><trkpt lat="46.169097448413005" lon="13.367886552164734"><ele>258.0</ele><time>2026-04-18T10:11:09.999Z</time></trkpt><trkpt lat="46.169155467179" lon="13.368033154628863"><ele>258.0</ele><time>2026-04-18T10:11:10.999Z</time></trkpt><trkpt lat="46.16920887651509" lon="13.368180587088501"><ele>258.0</ele><time>2026-04-18T10:11:11.999Z</time></trkpt><trkpt lat="46.16926424709827" lon="13.368330682361423"><ele>263.6</ele><time>2026-04-18T10:11:12.999Z</time></trkpt><trkpt lat="46.169311892083364" lon="13.36848187219979"><ele>269.20000000000005</ele><time>2026-04-18T10:11:13.999Z</time></trkpt><trkpt lat="46.169370327904" lon="13.368604474039357"><ele>274.8</ele><time>2026-04-18T10:11:14.999Z</time></trkpt><trkpt lat="46.16941174433465" lon="13.368711544623997"><ele>280.40000000000003</ele><time>2026-04-18T10:11:15.999Z</time></trkpt><trkpt lat="46.16947819502383" lon="13.368845710827202"><ele>286.0</ele><time>2026-04-18T10:11:17.999Z</time></trkpt><trkpt lat="46.16949017500355" lon="13.368946318109215"><ele>286.0</ele><time>2026-04-18T10:11:19.999Z</time></trkpt><trkpt lat="46.16936946339414" lon="13.368930586845511"><ele>286.0</ele><time>2026-04-18T10:11:21.999Z</time></trkpt><trkpt lat="46.16935317831532" lon="13.368807507549219"><ele>286.0</ele><time>2026-04-18T10:11:22.999Z</time></trkpt><trkpt lat="46.16929596397161" lon="13.368680671013948"><ele>286.0</ele><time>2026-04-18T10:11:23.999Z</time></trkpt><trkpt lat="46.16922656907847" lon="13.368580897863405"><ele>286.0</ele><time>2026-04-18T10:11:24.999Z</time></trkpt><trkpt lat="46.169143980236726" lon="13.368473814445819"><ele>286.0</ele><time>2026-04-18T10:11:25.999Z</time></trkpt><trkpt lat="46.16905500438304" lon="13.368362549903937"><ele>286.0</ele><time>2026-04-18T10:11:26.999Z</time></trkpt><trkpt lat="46.16895327441862" lon="13.368251672733175"><ele>286.0</ele><time>2026-04-18T10:11:27.999Z</time></trkpt><trkpt lat="46.168870346767406" lon="13.368153336911906"><ele>286.0</ele><time>2026-04-18T10:11:28.999Z</time></trkpt><trkpt lat="46.168796985413316" lon="13.368064044995371"><ele>286.0</ele><time>2026-04-18T10:11:29.999Z</time></trkpt><trkpt lat="46.1687161969934" lon="13.367960930165552"><ele>287.0</ele><time>2026-04-18T10:11:30.999Z</time></trkpt><trkpt lat="46.168649229572594" lon="13.367833471909439"><ele>288.0</ele><time>2026-04-18T10:11:31.999Z</time></trkpt><trkpt lat="46.16861053340773" lon="13.367693104297881"><ele>289.0</ele><time>2026-04-18T10:11:32.999Z</time></trkpt><trkpt lat="46.16856570243725" lon="13.367577078039751"><ele>290.0</ele><time>2026-04-18T10:11:33.999Z</time></trkpt><trkpt lat="46.16850122098984" lon="13.367469115435021"><ele>291.0</ele><time>2026-04-18T10:11:34.999Z</time></trkpt><trkpt lat="46.16844717685352" lon="13.367362585159391"><ele>291.0</ele><time>2026-04-18T10:11:35.999Z</time></trkpt><trkpt lat="46.16841141613227" lon="13.367237198094823"><ele>291.0</ele><time>2026-04-18T10:11:36.999Z</time></trkpt><trkpt lat="46.16838459045584" lon="13.367115157746474"><ele>291.0</ele><time>2026-04-18T10:11:37.999Z</time></trkpt><trkpt lat="46.168374383333244" lon="13.367001902879112"><ele>291.0</ele><time>2026-04-18T10:11:38.999Z</time></trkpt><trkpt lat="46.16837041306712" lon="13.366899458454567"><ele>291.0</ele><time>2026-04-18T10:11:40Z</time></trkpt><trkpt lat="46.1683332366874" lon="13.366752164306844"><ele>291.0</ele><time>2026-04-18T10:11:42Z</time></trkpt><trkpt lat="46.168229902203464" lon="13.366726271637804"><ele>291.1666666666667</ele><time>2026-04-18T10:11:44Z</time></trkpt><trkpt lat="46.16817511473164" lon="13.36678049954743"><ele>291.3333333333333</ele><time>2026-04-18T10:11:45Z</time></trkpt><trkpt lat="46.16813246364784" lon="13.36685856649079"><ele>291.5</ele><time>2026-04-18T10:11:46Z</time></trkpt><trkpt lat="46.16808719230357" lon="13.366947462322265"><ele>291.66666666666663</ele><time>2026-04-18T10:11:47Z</time></trkpt><trkpt lat="46.16803380772374" lon="13.36705060938998"><ele>291.8333333333333</ele><time>2026-04-18T10:11:48Z</time></trkpt><trkpt lat="46.16796997094367" lon="13.367171807716622"><ele>292.0</ele><time>2026-04-18T10:11:49Z</time></trkpt><trkpt lat="46.16789978880307" lon="13.36731081823501"><ele>292.0</ele><time>2026-04-18T10:11:50Z</time></trkpt><trkpt lat="46.167825812990635" lon="13.367463056675682"><ele>292.0</ele><time>2026-04-18T10:11:51Z</time></trkpt><trkpt lat="46.16775680894853" lon="13.3675995091589"><ele>292.0</ele><time>2026-04-18T10:11:52Z</time></trkpt><trkpt lat="46.16768255818472" lon="13.367726583385123"><ele>292.0</ele><time>2026-04-18T10:11:53Z</time></trkpt><trkpt lat="46.16760389557687" lon="13.3678569321581"><ele>292.0</ele><time>2026-04-18T10:11:54Z</time></trkpt><trkpt lat="46.16754120274109" lon="13.367984266205696"><ele>292.0</ele><time>2026-04-18T10:11:55Z</time></trkpt><trkpt lat="46.167498221072066" lon="13.368109608349794"><ele>292.0</ele><time>2026-04-18T10:11:56Z</time></trkpt><trkpt lat="46.16747178451374" lon="13.368252083966745"><ele>292.0</ele><time>2026-04-18T10:11:57Z</time></trkpt><trkpt lat="46.1674398307293" lon="13.368406294858282"><ele>292.0</ele><time>2026-04-18T10:11:58Z</time></trkpt><trkpt lat="46.16743351160764" lon="13.368554375585768"><ele>294.6</ele><time>2026-04-18T10:11:59Z</time></trkpt><trkpt lat="46.16741712014728" lon="13.368683900250803"><ele>297.2</ele><time>2026-04-18T10:12:00Z</time></trkpt><trkpt lat="46.16739680160619" lon="13.368810849788007"><ele>299.8</ele><time>2026-04-18T10:12:01Z</time></trkpt><trkpt lat="46.167328641883046" lon="13.368924007560436"><ele>302.4</ele><time>2026-04-18T10:12:02Z</time></trkpt><trkpt lat="46.16724179549721" lon="13.36901562865947"><ele>305.0</ele><time>2026-04-18T10:12:03Z</time></trkpt><trkpt lat="46.16714473992776" lon="13.369097048093604"><ele>306.6</ele><time>2026-04-18T10:12:04Z</time></trkpt><trkpt lat="46.16705439852574" lon="13.369157300893894"><ele>308.2</ele><time>2026-04-18T10:12:05Z</time></trkpt><trkpt lat="46.166964341543256" lon="13.369192761327799"><ele>309.8</ele><time>2026-04-18T10:12:06Z</time></trkpt><trkpt lat="46.166873101663896" lon="13.369220557689978"><ele>311.4</ele><time>2026-04-18T10:12:07Z</time></trkpt><trkpt lat="46.1667968461128" lon="13.369244462680406"><ele>313.0</ele><time>2026-04-18T10:12:08Z</time></trkpt><trkpt lat="46.16669626864855" lon="13.369305909001765"><ele>313.0</ele><time>2026-04-18T10:12:10Z</time></trkpt><trkpt lat="46.16668202353037" lon="13.369453053542946"><ele>313.0</ele><time>2026-04-18T10:12:12Z</time></trkpt><trkpt lat="46.16677211048038" lon="13.36952176077285"><ele>313.0</ele><time>2026-04-18T10:12:13Z</time></trkpt><trkpt lat="46.166864326013986" lon="13.3694493181286"><ele>313.0</ele><time>2026-04-18T10:12:14Z</time></trkpt><trkpt lat="46.166949203556655" lon="13.369424905207778"><ele>313.0</ele><time>2026-04-18T10:12:15Z</time></trkpt><trkpt lat="46.16703851741311" lon="13.369402303968203"><ele>313.0</ele><time>2026-04-18T10:12:16Z</time></trkpt><trkpt lat="46.16713994605391" lon="13.369414397314287"><ele>313.0</ele><time>2026-04-18T10:12:17Z</time></trkpt><trkpt lat="46.16722900769529" lon="13.369441716889765"><ele>313.0</ele><time>2026-04-18T10:12:18Z</time></trkpt><trkpt lat="46.167305772557576" lon="13.369461560817559"><ele>313.0</ele><time>2026-04-18T10:12:19Z</time></trkpt><trkpt lat="46.167382201257986" lon="13.36945462134493"><ele>313.0</ele><time>2026-04-18T10:12:20Z</time></trkpt><trkpt lat="46.16745168467627" lon="13.369430589661404"><ele>313.0</ele><time>2026-04-18T10:12:21Z</time></trkpt><trkpt lat="46.16752095916478" lon="13.369375424159372"><ele>314.2</ele><time>2026-04-18T10:12:22Z</time></trkpt><trkpt lat="46.16758406699316" lon="13.369297011496188"><ele>315.4</ele><time>2026-04-18T10:12:23Z</time></trkpt><trkpt lat="46.16764593741591" lon="13.369208118216367"><ele>316.59999999999997</ele><time>2026-04-18T10:12:24Z</time></trkpt><trkpt lat="46.16770578567601" lon="13.369098826658151"><ele>317.8</ele><time>2026-04-18T10:12:25Z</time></trkpt><trkpt lat="46.16776949580143" lon="13.368979277864767"><ele>319.0</ele><time>2026-04-18T10:12:26Z</time></trkpt><trkpt lat="46.16784608094222" lon="13.368857987547077"><ele>318.0</ele><time>2026-04-18T10:12:27Z</time></trkpt><trkpt lat="46.16792359341185" lon="13.368739543689024"><ele>317.0</ele><time>2026-04-18T10:12:28Z</time></trkpt><trkpt lat="46.167996794751616" lon="13.3686343685972"><ele>316.0</ele><time>2026-04-18T10:12:29Z</time></trkpt><trkpt lat="46.1680680918201" lon="13.368557770495912"><ele>315.0</ele><time>2026-04-18T10:12:30Z</time></trkpt><trkpt lat="46.168141701820794" lon="13.368515590345423"><ele>314.0</ele><time>2026-04-18T10:12:31Z</time></trkpt><trkpt lat="46.168210059224116" lon="13.368515642554783"><ele>314.0</ele><time>2026-04-18T10:12:32Z</time></trkpt><trkpt lat="46.16824945987259" lon="13.368607149536118"><ele>314.0</ele><time>2026-04-18T10:12:34Z</time></trkpt><trkpt lat="46.16819448384318" lon="13.368728823671566"><ele>314.0</ele><time>2026-04-18T10:12:36Z</time></trkpt><trkpt lat="46.16814016995048" lon="13.368835137347327"><ele>314.0</ele><time>2026-04-18T10:12:37Z</time></trkpt><trkpt lat="46.168090997187434" lon="13.36896599146357"><ele>314.0</ele><time>2026-04-18T10:12:38Z</time></trkpt><trkpt lat="46.16803136786213" lon="13.369089829095783"><ele>315.0</ele><time>2026-04-18T10:12:39Z</time></trkpt><trkpt lat="46.1679944575611" lon="13.369211697406001"><ele>316.0</ele><time>2026-04-18T10:12:40Z</time></trkpt><trkpt lat="46.167958051031945" lon="13.369335448170037"><ele>317.0</ele><time>2026-04-18T10:12:41Z</time></trkpt><trkpt lat="46.16791829447038" lon="13.369470586283377"><ele>318.0</ele><time>2026-04-18T10:12:42Z</time></trkpt><trkpt lat="46.16787448475099" lon="13.369619501415148"><ele>319.0</ele><time>2026-04-18T10:12:43Z</time></trkpt><trkpt lat="46.1678227007176" lon="13.369766947027191"><ele>323.5</ele><time>2026-04-18T10:12:44Z</time></trkpt><trkpt lat="46.167780357747006" lon="13.369929682789632"><ele>328.0</ele><time>2026-04-18T10:12:45Z</time></trkpt><trkpt lat="46.16771326651405" lon="13.370066965876314"><ele>332.5</ele><time>2026-04-18T10:12:46Z</time></trkpt><trkpt lat="46.16765813110761" lon="13.370218796617587"><ele>337.0</ele><time>2026-04-18T10:12:47Z</time></trkpt><trkpt lat="46.16758738940557" lon="13.370360880035635"><ele>337.0</ele><time>2026-04-18T10:12:48Z</time></trkpt><trkpt lat="46.167512930797685" lon="13.370488819934648"><ele>337.0</ele><time>2026-04-18T10:12:49Z</time></trkpt><trkpt lat="46.167433559814185" lon="13.370609254444766"><ele>337.0</ele><time>2026-04-18T10:12:50Z</time></trkpt><trkpt lat="46.167355942468326" lon="13.37072764631226"><ele>337.0</ele><time>2026-04-18T10:12:51Z</time></trkpt><trkpt lat="46.16728473951364" lon="13.370842627291582"><ele>340.40000000000003</ele><time>2026-04-18T10:12:52Z</time></trkpt><trkpt lat="46.16721825933672" lon="13.370953809710375"><ele>343.8</ele><time>2026-04-18T10:12:53Z</time></trkpt><trkpt lat="46.16714295660859" lon="13.371031320633929"><ele>347.2</ele><time>2026-04-18T10:12:54Z</time></trkpt><trkpt lat="46.16707161637585" lon="13.371092741180316"><ele>350.6</ele><time>2026-04-18T10:12:55Z</time></trkpt><trkpt lat="46.16699295394759" lon="13.371120030155932"><ele>354.0</ele><time>2026-04-18T10:12:56Z</time></trkpt><trkpt lat="46.166896152592926" lon="13.371099702456393"><ele>354.0</ele><time>2026-04-18T10:12:57Z</time></trkpt><trkpt lat="46.166793866794805" lon="13.371046645379788"><ele>354.0</ele><time>2026-04-18T10:12:58Z</time></trkpt><trkpt lat="46.1667045468322" lon="13.371020104392507"><ele>354.0</ele><time>2026-04-18T10:12:59Z</time></trkpt><trkpt lat="46.1666324785443" lon="13.371016554158613"><ele>354.0</ele><time>2026-04-18T10:13:00Z</time></trkpt><trkpt lat="46.16656579454214" lon="13.371026996023458"><ele>354.0</ele><time>2026-04-18T10:13:01Z</time></trkpt><trkpt lat="46.16647272424469" lon="13.371099624847348"><ele>354.0</ele><time>2026-04-18T10:13:03Z</time></trkpt><trkpt lat="46.16649106788582" lon="13.371254401978506"><ele>354.0</ele><time>2026-04-18T10:13:05Z</time></trkpt><trkpt lat="46.16655010895429" lon="13.371323505567682"><ele>354.0</ele><time>2026-04-18T10:13:06Z</time></trkpt><trkpt lat="46.16661555122183" lon="13.371380569920994"><ele>354.0</ele><time>2026-04-18T10:13:07Z</time></trkpt><trkpt lat="46.16667910944568" lon="13.371450638122647"><ele>354.0</ele><time>2026-04-18T10:13:08Z</time></trkpt><trkpt lat="46.166754457710496" lon="13.371533657631277"><ele>354.0</ele><time>2026-04-18T10:13:09Z</time></trkpt><trkpt lat="46.16684973759534" lon="13.371628005794594"><ele>354.0</ele><time>2026-04-18T10:13:10Z</time></trkpt><trkpt lat="46.16696205679097" lon="13.371751124246456"><ele>356.3333333333333</ele><time>2026-04-18T10:13:11Z</time></trkpt><trkpt lat="46.16705158131473" lon="13.371851780439348"><ele>358.6666666666667</ele><time>2026-04-18T10:13:12Z</time></trkpt><trkpt lat="46.167121661525734" lon="13.371929515793864"><ele>361.0</ele><time>2026-04-18T10:13:13Z</time></trkpt><trkpt lat="46.16718857380317" lon="13.372006986171497"><ele>363.33333333333337</ele><time>2026-04-18T10:13:14Z</time></trkpt><trkpt lat="46.167240293256235" lon="13.372100712442185"><ele>365.6666666666667</ele><time>2026-04-18T10:13:15Z</time></trkpt><trkpt lat="46.16727313804772" lon="13.372203591533324"><ele>368.0</ele><time>2026-04-18T10:13:15.999Z</time></trkpt><trkpt lat="46.16728172835749" lon="13.372316854124401"><ele>370.1666666666667</ele><time>2026-04-18T10:13:16.999Z</time></trkpt><trkpt lat="46.16726928392973" lon="13.372447914779457"><ele>372.33333333333337</ele><time>2026-04-18T10:13:17.999Z</time></trkpt><trkpt lat="46.16723596628119" lon="13.37257416501065"><ele>374.5</ele><time>2026-04-18T10:13:18.999Z</time></trkpt><trkpt lat="46.16720587630784" lon="13.372680446349053"><ele>376.6666666666667</ele><time>2026-04-18T10:13:19.999Z</time></trkpt><trkpt lat="46.16717112637081" lon="13.372764256766091"><ele>378.8333333333333</ele><time>2026-04-18T10:13:20.999Z</time></trkpt><trkpt lat="46.16711029940958" lon="13.372815184328907"><ele>381.0</ele><time>2026-04-18T10:13:21.999Z</time></trkpt><trkpt lat="46.167026227318935" lon="13.37281893732354"><ele>381.0</ele><time>2026-04-18T10:13:22.999Z</time></trkpt><trkpt lat="46.166943710538014" lon="13.372774269964584"><ele>381.0</ele><time>2026-04-18T10:13:23.999Z</time></trkpt><trkpt lat="46.16687399133113" lon="13.372707413032515"><ele>381.0</ele><time>2026-04-18T10:13:24.999Z</time></trkpt><trkpt lat="46.16678339832297" lon="13.372662040335422"><ele>381.0</ele><time>2026-04-18T10:13:25.999Z</time></trkpt><trkpt lat="46.16668284901648" lon="13.372664553377247"><ele>381.0</ele><time>2026-04-18T10:13:26.999Z</time></trkpt><trkpt lat="46.16660074065526" lon="13.37267953279256"><ele>379.8</ele><time>2026-04-18T10:13:27.999Z</time></trkpt><trkpt lat="46.16651943881263" lon="13.37269745199644"><ele>378.6</ele><time>2026-04-18T10:13:28.999Z</time></trkpt><trkpt lat="46.16643093523159" lon="13.372740363731385"><ele>377.4</ele><time>2026-04-18T10:13:29.999Z</time></trkpt><trkpt lat="46.166343851456624" lon="13.372809125435822"><ele>376.2</ele><time>2026-04-18T10:13:30.999Z</time></trkpt><trkpt lat="46.16626212818045" lon="13.372895255228096"><ele>375.0</ele><time>2026-04-18T10:13:31.999Z</time></trkpt><trkpt lat="46.166179299202796" lon="13.372992316352889"><ele>378.75</ele><time>2026-04-18T10:13:32.999Z</time></trkpt><trkpt lat="46.16608811161325" lon="13.37309519341571"><ele>382.5</ele><time>2026-04-18T10:13:33.999Z</time></trkpt><trkpt lat="46.16599142841629" lon="13.37321311039168"><ele>386.25</ele><time>2026-04-18T10:13:34.999Z</time></trkpt><trkpt lat="46.165898443513896" lon="13.373335134507148"><ele>390.0</ele><time>2026-04-18T10:13:35.999Z</time></trkpt><trkpt lat="46.165802274546614" lon="13.373452354012077"><ele>390.0</ele><time>2026-04-18T10:13:36.999Z</time></trkpt><trkpt lat="46.16570476731133" lon="13.373571798667381"><ele>390.0</ele><time>2026-04-18T10:13:37.999Z</time></trkpt><trkpt lat="46.16561222044779" lon="13.373687510083087"><ele>390.0</ele><time>2026-04-18T10:13:38.999Z</time></trkpt><trkpt lat="46.165514283628184" lon="13.373795451691892"><ele>390.0</ele><time>2026-04-18T10:13:39.999Z</time></trkpt><trkpt lat="46.16541689560019" lon="13.3738868878152"><ele>392.4</ele><time>2026-04-18T10:13:40.999Z</time></trkpt><trkpt lat="46.165327062115274" lon="13.373980213150215"><ele>394.8</ele><time>2026-04-18T10:13:41.999Z</time></trkpt><trkpt lat="46.16524238950211" lon="13.374062753987607"><ele>397.20000000000005</ele><time>2026-04-18T10:13:42.999Z</time></trkpt><trkpt lat="46.16516028466856" lon="13.374125235449931"><ele>399.6</ele><time>2026-04-18T10:13:43.999Z</time></trkpt><trkpt lat="46.16507903817909" lon="13.374173901010975"><ele>402.0</ele><time>2026-04-18T10:13:44.999Z</time></trkpt><trkpt lat="46.16499223381462" lon="13.374189384466588"><ele>402.0</ele><time>2026-04-18T10:13:46Z</time></trkpt><trkpt lat="46.16489449228817" lon="13.37413749596098"><ele>402.0</ele><time>2026-04-18T10:13:47Z</time></trkpt><trkpt lat="46.16479848762581" lon="13.37405017631447"><ele>402.0</ele><time>2026-04-18T10:13:48Z</time></trkpt><trkpt lat="46.164696464454146" lon="13.37396857656861"><ele>402.0</ele><time>2026-04-18T10:13:49Z</time></trkpt><trkpt lat="46.164591510339584" lon="13.373931733323289"><ele>402.0</ele><time>2026-04-18T10:13:50Z</time></trkpt><trkpt lat="46.164488477182445" lon="13.37393256660316"><ele>404.0</ele><time>2026-04-18T10:13:51Z</time></trkpt><trkpt lat="46.164391335922716" lon="13.37394412120746"><ele>406.0</ele><time>2026-04-18T10:13:52Z</time></trkpt><trkpt lat="46.164308364686555" lon="13.373992327289944"><ele>408.0</ele><time>2026-04-18T10:13:53Z</time></trkpt><trkpt lat="46.16424394495551" lon="13.37407656036452"><ele>410.0</ele><time>2026-04-18T10:13:54Z</time></trkpt><trkpt lat="46.16418672049339" lon="13.374171163589303"><ele>412.0</ele><time>2026-04-18T10:13:55Z</time></trkpt><trkpt lat="46.16412073801034" lon="13.374259200808584"><ele>412.0</ele><time>2026-04-18T10:13:56Z</time></trkpt><trkpt lat="46.16404218649811" lon="13.374315071508052"><ele>412.0</ele><time>2026-04-18T10:13:57Z</time></trkpt><trkpt lat="46.16395171657533" lon="13.374326717861598"><ele>412.0</ele><time>2026-04-18T10:13:58Z</time></trkpt><trkpt lat="46.163855730670235" lon="13.374297309435192"><ele>412.0</ele><time>2026-04-18T10:13:59Z</time></trkpt><trkpt lat="46.16375109080668" lon="13.374263299728227"><ele>412.0</ele><time>2026-04-18T10:14:00Z</time></trkpt><trkpt lat="46.16364555769832" lon="13.37423367694156"><ele>413.40000000000003</ele><time>2026-04-18T10:14:01Z</time></trkpt><trkpt lat="46.163542140412034" lon="13.374207905338872"><ele>414.8</ele><time>2026-04-18T10:14:02Z</time></trkpt><trkpt lat="46.1634549022074" lon="13.374179547331073"><ele>416.2</ele><time>2026-04-18T10:14:03Z</time></trkpt><trkpt lat="46.16338452288146" lon="13.374122379537699"><ele>417.6</ele><time>2026-04-18T10:14:04Z</time></trkpt><trkpt lat="46.163325976107835" lon="13.374018912075881"><ele>419.0</ele><time>2026-04-18T10:14:05Z</time></trkpt><trkpt lat="46.163302991214195" lon="13.373886508841467"><ele>419.4</ele><time>2026-04-18T10:14:06Z</time></trkpt><trkpt lat="46.16328528915" lon="13.373755655078044"><ele>419.79999999999995</ele><time>2026-04-18T10:14:07Z</time></trkpt><trkpt lat="46.16325805952973" lon="13.373611560895359"><ele>420.20000000000005</ele><time>2026-04-18T10:14:08Z</time></trkpt><trkpt lat="46.1632259202667" lon="13.373456112698486"><ele>420.6</ele><time>2026-04-18T10:14:09Z</time></trkpt><trkpt lat="46.163177643755276" lon="13.373296928358444"><ele>421.0</ele><time>2026-04-18T10:14:10Z</time></trkpt><trkpt lat="46.1631163956412" lon="13.373145234108707"><ele>426.5</ele><time>2026-04-18T10:14:11Z</time></trkpt><trkpt lat="46.16303823087019" lon="13.372993196053402"><ele>432.0</ele><time>2026-04-18T10:14:12Z</time></trkpt><trkpt lat="46.162945739738056" lon="13.372846421768596"><ele>437.5</ele><time>2026-04-18T10:14:13Z</time></trkpt><trkpt lat="46.162860494075375" lon="13.372709485071129"><ele>443.0</ele><time>2026-04-18T10:14:14Z</time></trkpt><trkpt lat="46.16279496717581" lon="13.372544560842051"><ele>443.0</ele><time>2026-04-18T10:14:15Z</time></trkpt><trkpt lat="46.16273610756577" lon="13.372364354516348"><ele>443.0</ele><time>2026-04-18T10:14:16Z</time></trkpt><trkpt lat="46.162676791267735" lon="13.372207479668218"><ele>443.0</ele><time>2026-04-18T10:14:17Z</time></trkpt><trkpt lat="46.162619424196755" lon="13.372049419362513"><ele>443.0</ele><time>2026-04-18T10:14:18Z</time></trkpt><trkpt lat="46.16255870121173" lon="13.371893342971958"><ele>441.25</ele><time>2026-04-18T10:14:19Z</time></trkpt><trkpt lat="46.16247836744298" lon="13.37175768720501"><ele>439.5</ele><time>2026-04-18T10:14:20Z</time></trkpt><trkpt lat="46.16238804472575" lon="13.371636836032222"><ele>437.75</ele><time>2026-04-18T10:14:21Z</time></trkpt><trkpt lat="46.16231055071296" lon="13.37152412031309"><ele>436.0</ele><time>2026-04-18T10:14:22Z</time></trkpt><trkpt lat="46.1622404583396" lon="13.371394290074146"><ele>438.6</ele><time>2026-04-18T10:14:23Z</time></trkpt><trkpt lat="46.16218995975796" lon="13.37124131269802"><ele>441.20000000000005</ele><time>2026-04-18T10:14:24Z</time></trkpt><trkpt lat="46.162152816394034" lon="13.37108610759312"><ele>443.79999999999995</ele><time>2026-04-18T10:14:25Z</time></trkpt><trkpt lat="46.16210350999507" lon="13.370961863374657"><ele>446.4</ele><time>2026-04-18T10:14:26Z</time></trkpt><trkpt lat="46.16205871105552" lon="13.370857982283633"><ele>449.0</ele><time>2026-04-18T10:14:27Z</time></trkpt><trkpt lat="46.16202142824576" lon="13.370773515260924"><ele>449.0</ele><time>2026-04-18T10:14:28Z</time></trkpt><trkpt lat="46.16197529928228" lon="13.370704434743779"><ele>448.99999999999994</ele><time>2026-04-18T10:14:29Z</time></trkpt><trkpt lat="46.16191846116809" lon="13.370662657342342"><ele>449.0</ele><time>2026-04-18T10:14:30Z</time></trkpt><trkpt lat="46.16185619572913" lon="13.370644680776662"><ele>449.0</ele><time>2026-04-18T10:14:31Z</time></trkpt><trkpt lat="46.161789597890596" lon="13.370652722735203"><ele>448.99999999999994</ele><time>2026-04-18T10:14:32Z</time></trkpt><trkpt lat="46.16172064050763" lon="13.370684035153154"><ele>449.0</ele><time>2026-04-18T10:14:33Z</time></trkpt><trkpt lat="46.16166581660058" lon="13.370763607459244"><ele>449.0</ele><time>2026-04-18T10:14:34Z</time></trkpt><trkpt lat="46.16162591834919" lon="13.370871538617958"><ele>448.99999999999994</ele><time>2026-04-18T10:14:35Z</time></trkpt><trkpt lat="46.16158395347948" lon="13.370976644731826"><ele>449.0</ele><time>2026-04-18T10:14:36Z</time></trkpt><trkpt lat="46.16154596609552" lon="13.371068094408463"><ele>449.0</ele><time>2026-04-18T10:14:37Z</time></trkpt><trkpt lat="46.16152264564632" lon="13.37119017788415"><ele>449.0</ele><time>2026-04-18T10:14:38Z</time></trkpt><trkpt lat="46.16153707420098" lon="13.371324386470436"><ele>448.99999999999994</ele><time>2026-04-18T10:14:39Z</time></trkpt><trkpt lat="46.161582021849284" lon="13.37144720329873"><ele>449.0</ele><time>2026-04-18T10:14:40Z</time></trkpt><trkpt lat="46.16163389257206" lon="13.37155598539306"><ele>449.8333333333333</ele><time>2026-04-18T10:14:41Z</time></trkpt><trkpt lat="46.161687305120665" lon="13.371663830634844"><ele>450.66666666666663</ele><time>2026-04-18T10:14:42Z</time></trkpt><trkpt lat="46.161743944393535" lon="13.371752275102269"><ele>451.5</ele><time>2026-04-18T10:14:43Z</time></trkpt><trkpt lat="46.16178993503099" lon="13.371840304904593"><ele>452.33333333333337</ele><time>2026-04-18T10:14:44Z</time></trkpt><trkpt lat="46.16181547769566" lon="13.371944359555577"><ele>453.1666666666667</ele><time>2026-04-18T10:14:45Z</time></trkpt><trkpt lat="46.16181035430352" lon="13.372070613511404"><ele>454.0</ele><time>2026-04-18T10:14:46Z</time></trkpt><trkpt lat="46.161776657779605" lon="13.372193225710872"><ele>455.00000000000006</ele><time>2026-04-18T10:14:47Z</time></trkpt><trkpt lat="46.16174150620127" lon="13.37231172185555"><ele>456.0</ele><time>2026-04-18T10:14:48Z</time></trkpt><trkpt lat="46.161709790374374" lon="13.372430492499424"><ele>457.0</ele><time>2026-04-18T10:14:49Z</time></trkpt><trkpt lat="46.161672442027125" lon="13.372542820180435"><ele>458.0</ele><time>2026-04-18T10:14:50Z</time></trkpt><trkpt lat="46.161628973646344" lon="13.372654045332993"><ele>459.00000000000006</ele><time>2026-04-18T10:14:51Z</time></trkpt><trkpt lat="46.161580180591095" lon="13.372751279666767"><ele>460.0</ele><time>2026-04-18T10:14:52Z</time></trkpt><trkpt lat="46.161515439712" lon="13.372823537555965"><ele>462.4</ele><time>2026-04-18T10:14:53Z</time></trkpt><trkpt lat="46.161433646668215" lon="13.372867436675014"><ele>464.8</ele><time>2026-04-18T10:14:54Z</time></trkpt><trkpt lat="46.16133992220102" lon="13.372871223033497"><ele>467.20000000000005</ele><time>2026-04-18T10:14:55Z</time></trkpt><trkpt lat="46.16124635138144" lon="13.3728366613838"><ele>469.6</ele><time>2026-04-18T10:14:56Z</time></trkpt><trkpt lat="46.161162220504075" lon="13.372786260380774"><ele>472.0</ele><time>2026-04-18T10:14:57Z</time></trkpt><trkpt lat="46.161084888264476" lon="13.372744373234305"><ele>472.00000000000006</ele><time>2026-04-18T10:14:58Z</time></trkpt><trkpt lat="46.16101034092702" lon="13.372709990067907"><ele>472.0</ele><time>2026-04-18T10:14:59Z</time></trkpt><trkpt lat="46.160945251915436" lon="13.37268605879637"><ele>472.0</ele><time>2026-04-18T10:15:00Z</time></trkpt><trkpt lat="46.16085591582712" lon="13.372676531528946"><ele>472.0</ele><time>2026-04-18T10:15:02Z</time></trkpt><trkpt lat="46.16081796866929" lon="13.372794748377176"><ele>472.00000000000006</ele><time>2026-04-18T10:15:04Z</time></trkpt><trkpt lat="46.16090904589883" lon="13.372898328042707"><ele>472.0</ele><time>2026-04-18T10:15:06Z</time></trkpt><trkpt lat="46.16097108319943" lon="13.372919091322121"><ele>472.00000000000006</ele><time>2026-04-18T10:15:07Z</time></trkpt><trkpt lat="46.16102310845186" lon="13.37298413106651"><ele>472.0</ele><time>2026-04-18T10:15:08Z</time></trkpt><trkpt lat="46.161049119380145" lon="13.373092225219686"><ele>472.0</ele><time>2026-04-18T10:15:09Z</time></trkpt><trkpt lat="46.16104888634097" lon="13.373215972323953"><ele>472.0</ele><time>2026-04-18T10:15:10Z</time></trkpt><trkpt lat="46.16103877152472" lon="13.373351528731815"><ele>472.00000000000006</ele><time>2026-04-18T10:15:11Z</time></trkpt><trkpt lat="46.16104568890402" lon="13.373499417202144"><ele>472.0</ele><time>2026-04-18T10:15:12Z</time></trkpt><trkpt lat="46.161068800425525" lon="13.37363323011426"><ele>472.83333333333337</ele><time>2026-04-18T10:15:13Z</time></trkpt><trkpt lat="46.16107241164331" lon="13.373741981345184"><ele>473.6666666666667</ele><time>2026-04-18T10:15:14Z</time></trkpt><trkpt lat="46.16104101966685" lon="13.373839159214375"><ele>474.5</ele><time>2026-04-18T10:15:15Z</time></trkpt><trkpt lat="46.160982379509335" lon="13.373934664674719"><ele>475.33333333333337</ele><time>2026-04-18T10:15:16Z</time></trkpt><trkpt lat="46.16091056539856" lon="13.374019210107637"><ele>476.1666666666667</ele><time>2026-04-18T10:15:17Z</time></trkpt><trkpt lat="46.16086226107926" lon="13.374113227330287"><ele>477.0</ele><time>2026-04-18T10:15:18Z</time></trkpt><trkpt lat="46.16082663436406" lon="13.374233747745267"><ele>478.6</ele><time>2026-04-18T10:15:19Z</time></trkpt><trkpt lat="46.16080774595154" lon="13.374374993218654"><ele>480.20000000000005</ele><time>2026-04-18T10:15:20Z</time></trkpt><trkpt lat="46.16080026509798" lon="13.37453996619207"><ele>481.8</ele><time>2026-04-18T10:15:21Z</time></trkpt><trkpt lat="46.16079278146299" lon="13.374693241705062"><ele>483.4</ele><time>2026-04-18T10:15:22Z</time></trkpt><trkpt lat="46.16077627562611" lon="13.37482474308106"><ele>485.0</ele><time>2026-04-18T10:15:23Z</time></trkpt><trkpt lat="46.160758023098595" lon="13.374943346916709"><ele>485.4</ele><time>2026-04-18T10:15:23.999Z</time></trkpt><trkpt lat="46.160738036961355" lon="13.375053284095426"><ele>485.8</ele><time>2026-04-18T10:15:24.999Z</time></trkpt><trkpt lat="46.160687447244406" lon="13.375170387560592"><ele>486.20000000000005</ele><time>2026-04-18T10:15:25.999Z</time></trkpt><trkpt lat="46.16061284356265" lon="13.375280492551978"><ele>486.6</ele><time>2026-04-18T10:15:26.999Z</time></trkpt><trkpt lat="46.16052666972304" lon="13.37538783495206"><ele>487.0</ele><time>2026-04-18T10:15:27.999Z</time></trkpt><trkpt lat="46.16045580408762" lon="13.375512022571"><ele>492.0</ele><time>2026-04-18T10:15:28.999Z</time></trkpt><trkpt lat="46.16039259576636" lon="13.375642484454989"><ele>497.00000000000006</ele><time>2026-04-18T10:15:29.999Z</time></trkpt><trkpt lat="46.160330725291935" lon="13.375772789287288"><ele>502.00000000000006</ele><time>2026-04-18T10:15:30.999Z</time></trkpt><trkpt lat="46.16026565699254" lon="13.375903350479954"><ele>507.0</ele><time>2026-04-18T10:15:31.999Z</time></trkpt><trkpt lat="46.16020275189677" lon="13.376027264598319"><ele>512.0</ele><time>2026-04-18T10:15:32.999Z</time></trkpt><trkpt lat="46.16014740818247" lon="13.37613280309977"><ele>511.99999999999994</ele><time>2026-04-18T10:15:33.999Z</time></trkpt><trkpt lat="46.160101855749176" lon="13.376222310081967"><ele>512.0</ele><time>2026-04-18T10:15:34.999Z</time></trkpt><trkpt lat="46.16006900827251" lon="13.376309089325746"><ele>512.0</ele><time>2026-04-18T10:15:35.999Z</time></trkpt><trkpt lat="46.15999925089272" lon="13.376444828735362"><ele>512.0</ele><time>2026-04-18T10:15:37.999Z</time></trkpt><trkpt lat="46.15997133202736" lon="13.376584393020638"><ele>511.99999999999994</ele><time>2026-04-18T10:15:39.999Z</time></trkpt><trkpt lat="46.159907457517626" lon="13.376603100870147"><ele>512.0</ele><time>2026-04-18T10:15:41.999Z</time></trkpt><trkpt lat="46.15988855171858" lon="13.376504284218976"><ele>511.99999999999994</ele><time>2026-04-18T10:15:42.999Z</time></trkpt><trkpt lat="46.15990788874745" lon="13.37638042208913"><ele>512.0</ele><time>2026-04-18T10:15:43.999Z</time></trkpt><trkpt lat="46.15991986227165" lon="13.376289648567035"><ele>512.0</ele><time>2026-04-18T10:15:44.999Z</time></trkpt><trkpt lat="46.15993247831823" lon="13.37619121906803"><ele>512.0</ele><time>2026-04-18T10:15:45.999Z</time></trkpt><trkpt lat="46.159944204084994" lon="13.376079465566619"><ele>511.99999999999994</ele><time>2026-04-18T10:15:46.999Z</time></trkpt><trkpt lat="46.15994850780398" lon="13.37596803613824"><ele>512.0</ele><time>2026-04-18T10:15:47.999Z</time></trkpt><trkpt lat="46.159936011001626" lon="13.375860490639583"><ele>512.0</ele><time>2026-04-18T10:15:48.999Z</time></trkpt><trkpt lat="46.159922637051274" lon="13.375753922368792"><ele>512.0</ele><time>2026-04-18T10:15:49.999Z</time></trkpt><trkpt lat="46.159917691607795" lon="13.375653797755152"><ele>512.0</ele><time>2026-04-18T10:15:51Z</time></trkpt><trkpt lat="46.159938269448496" lon="13.375509430743255"><ele>512.0</ele><time>2026-04-18T10:15:53Z</time></trkpt><trkpt lat="46.1599199874579" lon="13.37537852224956"><ele>512.0</ele><time>2026-04-18T10:15:55Z</time></trkpt><trkpt lat="46.15982950786768" lon="13.375281252749444"><ele>514.4285714285714</ele><time>2026-04-18T10:15:57Z</time></trkpt><trkpt lat="46.15976398207191" lon="13.375263989313025"><ele>516.8571428571428</ele><time>2026-04-18T10:15:58Z</time></trkpt><trkpt lat="46.159696266956225" lon="13.375238802668205"><ele>519.2857142857142</ele><time>2026-04-18T10:15:59Z</time></trkpt><trkpt lat="46.15963269998876" lon="13.375186742117492"><ele>521.7142857142857</ele><time>2026-04-18T10:16:00Z</time></trkpt><trkpt lat="46.15958351834457" lon="13.375117552029765"><ele>524.1428571428571</ele><time>2026-04-18T10:16:01Z</time></trkpt><trkpt lat="46.15954364276952" lon="13.375038407874223"><ele>526.5714285714286</ele><time>2026-04-18T10:16:02Z</time></trkpt><trkpt lat="46.15951100885694" lon="13.374948537988438"><ele>529.0</ele><time>2026-04-18T10:16:03Z</time></trkpt><trkpt lat="46.15948200801686" lon="13.374857302555212"><ele>529.0</ele><time>2026-04-18T10:16:04Z</time></trkpt><trkpt lat="46.15944824260785" lon="13.374750044932036"><ele>529.0</ele><time>2026-04-18T10:16:05Z</time></trkpt><trkpt lat="46.159418526857955" lon="13.374637832909183"><ele>529.0</ele><time>2026-04-18T10:16:06Z</time></trkpt><trkpt lat="46.159393255194715" lon="13.37453728757719"><ele>529.0</ele><time>2026-04-18T10:16:07Z</time></trkpt><trkpt lat="46.159392879916" lon="13.37443725560612"><ele>529.0</ele><time>2026-04-18T10:16:08Z</time></trkpt><trkpt lat="46.159408980699794" lon="13.37433951163276"><ele>529.0</ele><time>2026-04-18T10:16:09Z</time></trkpt><trkpt lat="46.15937081206392" lon="13.374219891160221"><ele>529.0</ele><time>2026-04-18T10:16:11Z</time></trkpt><trkpt lat="46.15925845271113" lon="13.374265159130266"><ele>529.0</ele><time>2026-04-18T10:16:13Z</time></trkpt><trkpt lat="46.15926633566847" lon="13.374406893506452"><ele>529.0</ele><time>2026-04-18T10:16:14Z</time></trkpt><trkpt lat="46.15924428138296" lon="13.374526235068888"><ele>529.0</ele><time>2026-04-18T10:16:15Z</time></trkpt><trkpt lat="46.159236153450635" lon="13.374665156692664"><ele>529.0</ele><time>2026-04-18T10:16:16Z</time></trkpt><trkpt lat="46.15921879169297" lon="13.37482017726321"><ele>529.0</ele><time>2026-04-18T10:16:17Z</time></trkpt><trkpt lat="46.15918464631495" lon="13.375005494404006"><ele>529.0</ele><time>2026-04-18T10:16:18Z</time></trkpt><trkpt lat="46.159136118547124" lon="13.375204003951525"><ele>529.0</ele><time>2026-04-18T10:16:19Z</time></trkpt><trkpt lat="46.15913351439115" lon="13.375384521169115"><ele>529.0</ele><time>2026-04-18T10:16:20Z</time></trkpt><trkpt lat="46.15910010880887" lon="13.3755390193967"><ele>529.8</ele><time>2026-04-18T10:16:21Z</time></trkpt><trkpt lat="46.1590726683155" lon="13.3756808272612"><ele>530.5999999999999</ele><time>2026-04-18T10:16:22Z</time></trkpt><trkpt lat="46.15905351978535" lon="13.375822866352141"><ele>531.4</ele><time>2026-04-18T10:16:23Z</time></trkpt><trkpt lat="46.15906367164662" lon="13.375969306600187"><ele>532.1999999999999</ele><time>2026-04-18T10:16:24Z</time></trkpt><trkpt lat="46.159098468027324" lon="13.376111488049586"><ele>533.0</ele><time>2026-04-18T10:16:25Z</time></trkpt><trkpt lat="46.15913494587117" lon="13.376240497667508"><ele>533.0</ele><time>2026-04-18T10:16:26Z</time></trkpt><trkpt lat="46.159159230283215" lon="13.37633764019977"><ele>533.0</ele><time>2026-04-18T10:16:27Z</time></trkpt><trkpt lat="46.15917623406709" lon="13.376523125514886"><ele>533.0</ele><time>2026-04-18T10:16:29Z</time></trkpt><trkpt lat="46.159110061937106" lon="13.376601608738788"><ele>533.0</ele><time>2026-04-18T10:16:30Z</time></trkpt><trkpt lat="46.15904500020085" lon="13.376700553571254"><ele>533.0</ele><time>2026-04-18T10:16:31Z</time></trkpt><trkpt lat="46.15896892501565" lon="13.376779531501303"><ele>538.3333333333333</ele><time>2026-04-18T10:16:32Z</time></trkpt><trkpt lat="46.15893316087067" lon="13.376872032515546"><ele>543.6666666666666</ele><time>2026-04-18T10:16:33Z</time></trkpt><trkpt lat="46.15890848763622" lon="13.376958677259541"><ele>549.0</ele><time>2026-04-18T10:16:34Z</time></trkpt><trkpt lat="46.158859844249356" lon="13.37709811861075"><ele>554.3333333333334</ele><time>2026-04-18T10:16:36Z</time></trkpt><trkpt lat="46.15877276031849" lon="13.377074377156644"><ele>559.6666666666667</ele><time>2026-04-18T10:16:38Z</time></trkpt><trkpt lat="46.1587511848189" lon="13.376977025596634"><ele>565.0</ele><time>2026-04-18T10:16:39Z</time></trkpt><trkpt lat="46.158801292157044" lon="13.376894507846172"><ele>565.0</ele><time>2026-04-18T10:16:40Z</time></trkpt><trkpt lat="46.15882397797043" lon="13.376797177537284"><ele>565.0</ele><time>2026-04-18T10:16:41Z</time></trkpt><trkpt lat="46.1588637325178" lon="13.376686718401675"><ele>565.0</ele><time>2026-04-18T10:16:42Z</time></trkpt><trkpt lat="46.15887306920717" lon="13.376567050996153"><ele>565.0</ele><time>2026-04-18T10:16:43Z</time></trkpt><trkpt lat="46.158855423385695" lon="13.376462817280581"><ele>565.0</ele><time>2026-04-18T10:16:44Z</time></trkpt><trkpt lat="46.15881438494889" lon="13.376366926204623"><ele>565.0</ele><time>2026-04-18T10:16:45Z</time></trkpt><trkpt lat="46.15876047704081" lon="13.376279202884493"><ele>564.3333333333334</ele><time>2026-04-18T10:16:46Z</time></trkpt><trkpt lat="46.15870757490927" lon="13.37618240959315"><ele>563.6666666666667</ele><time>2026-04-18T10:16:47Z</time></trkpt><trkpt lat="46.15866581953387" lon="13.37608523325866"><ele>563.0</ele><time>2026-04-18T10:16:48Z</time></trkpt><trkpt lat="46.1586372796328" lon="13.375995525740393"><ele>562.3333333333334</ele><time>2026-04-18T10:16:49Z</time></trkpt><trkpt lat="46.15857941000118" lon="13.375888103160767"><ele>561.6666666666666</ele><time>2026-04-18T10:16:51Z</time></trkpt><trkpt lat="46.15849155230585" lon="13.375952260857797"><ele>561.0</ele><time>2026-04-18T10:16:53Z</time></trkpt><trkpt lat="46.158501938941676" lon="13.376067260692928"><ele>561.0</ele><time>2026-04-18T10:16:54Z</time></trkpt><trkpt lat="46.1585216944897" lon="13.376181629218038"><ele>561.0</ele><time>2026-04-18T10:16:55Z</time></trkpt><trkpt lat="46.15854806203232" lon="13.376292099873304"><ele>561.0</ele><time>2026-04-18T10:16:56Z</time></trkpt><trkpt lat="46.158564900221734" lon="13.376412109735456"><ele>561.0</ele><time>2026-04-18T10:16:57Z</time></trkpt><trkpt lat="46.1585691595526" lon="13.376521942936325"><ele>561.0</ele><time>2026-04-18T10:16:58Z</time></trkpt><trkpt lat="46.15857444730437" lon="13.376641842335598"><ele>561.0</ele><time>2026-04-18T10:16:59Z</time></trkpt><trkpt lat="46.15851812323053" lon="13.376754043614001"><ele>561.8</ele><time>2026-04-18T10:17:00Z</time></trkpt><trkpt lat="46.15846684102285" lon="13.376890203513796"><ele>562.6</ele><time>2026-04-18T10:17:01Z</time></trkpt><trkpt lat="46.158417118637" lon="13.377033793364392"><ele>563.4</ele><time>2026-04-18T10:17:02Z</time></trkpt><trkpt lat="46.15838149205095" lon="13.377165508447417"><ele>564.2</ele><time>2026-04-18T10:17:03Z</time></trkpt><trkpt lat="46.158380032575224" lon="13.377288586231174"><ele>565.0</ele><time>2026-04-18T10:17:04Z</time></trkpt><trkpt lat="46.15840656423061" lon="13.377401062903498"><ele>566.5</ele><time>2026-04-18T10:17:04.999Z</time></trkpt><trkpt lat="46.1584765644552" lon="13.377517612568793"><ele>568.0</ele><time>2026-04-18T10:17:05.999Z</time></trkpt><trkpt lat="46.15853124781962" lon="13.377609160144663"><ele>569.5</ele><time>2026-04-18T10:17:06.999Z</time></trkpt><trkpt lat="46.15857797420107" lon="13.377687386677755"><ele>571.0</ele><time>2026-04-18T10:17:07.999Z</time></trkpt><trkpt lat="46.158614268855175" lon="13.377769530968354"><ele>572.5</ele><time>2026-04-18T10:17:08.999Z</time></trkpt><trkpt lat="46.15862980992362" lon="13.377881653985108"><ele>574.0</ele><time>2026-04-18T10:17:09.999Z</time></trkpt><trkpt lat="46.158615657643196" lon="13.378022026480208"><ele>575.1666666666667</ele><time>2026-04-18T10:17:10.999Z</time></trkpt><trkpt lat="46.15860068012192" lon="13.378183901204707"><ele>576.3333333333334</ele><time>2026-04-18T10:17:11.999Z</time></trkpt><trkpt lat="46.15860169565191" lon="13.378314654286498"><ele>577.5</ele><time>2026-04-18T10:17:12.999Z</time></trkpt><trkpt lat="46.15860533524109" lon="13.378408988441562"><ele>578.6666666666666</ele><time>2026-04-18T10:17:13.999Z</time></trkpt><trkpt lat="46.15859481730494" lon="13.378517255240094"><ele>579.8333333333333</ele><time>2026-04-18T10:17:15.999Z</time></trkpt><trkpt lat="46.158516339271955" lon="13.378445566300861"><ele>581.0</ele><time>2026-04-18T10:17:17.999Z</time></trkpt><trkpt lat="46.15851761364018" lon="13.378302264773305"><ele>581.0</ele><time>2026-04-18T10:17:18.999Z</time></trkpt><trkpt lat="46.158522475010976" lon="13.378180248103781"><ele>581.0</ele><time>2026-04-18T10:17:19.999Z</time></trkpt><trkpt lat="46.15851031698706" lon="13.37805926529794"><ele>581.0</ele><time>2026-04-18T10:17:20.999Z</time></trkpt><trkpt lat="46.1585055569899" lon="13.37794922357216"><ele>581.0</ele><time>2026-04-18T10:17:21.999Z</time></trkpt><trkpt lat="46.158497722059586" lon="13.377857673850976"><ele>581.0</ele><time>2026-04-18T10:17:22.999Z</time></trkpt><trkpt lat="46.15843416811745" lon="13.377781327820832"><ele>581.0</ele><time>2026-04-18T10:17:24.999Z</time></trkpt><trkpt lat="46.15836508057106" lon="13.377879339045615"><ele>581.0</ele><time>2026-04-18T10:17:26.999Z</time></trkpt><trkpt lat="46.15839620200512" lon="13.37803859557126"><ele>581.0</ele><time>2026-04-18T10:17:28.999Z</time></trkpt><trkpt lat="46.158436007864786" lon="13.378132862376416"><ele>581.0</ele><time>2026-04-18T10:17:29.999Z</time></trkpt><trkpt lat="46.158446410775106" lon="13.378254654313553"><ele>581.0</ele><time>2026-04-18T10:17:30.999Z</time></trkpt><trkpt lat="46.158440073024906" lon="13.378373213274312"><ele>581.0</ele><time>2026-04-18T10:17:31.999Z</time></trkpt><trkpt lat="46.158408088715426" lon="13.378491649471203"><ele>581.0</ele><time>2026-04-18T10:17:32.999Z</time></trkpt><trkpt lat="46.15834310887386" lon="13.378597201528768"><ele>581.0</ele><time>2026-04-18T10:17:33.999Z</time></trkpt><trkpt lat="46.1582644678512" lon="13.378696308772794"><ele>581.0</ele><time>2026-04-18T10:17:34.999Z</time></trkpt><trkpt lat="46.15820366804225" lon="13.37878712557509"><ele>581.0</ele><time>2026-04-18T10:17:35.999Z</time></trkpt><trkpt lat="46.158162913629845" lon="13.37886907357011"><ele>581.0</ele><time>2026-04-18T10:17:36.999Z</time></trkpt><trkpt lat="46.15813189963506" lon="13.378949010919216"><ele>581.0</ele><time>2026-04-18T10:17:37.999Z</time></trkpt><trkpt lat="46.15811086806522" lon="13.379038062492645"><ele>581.0</ele><time>2026-04-18T10:17:38.999Z</time></trkpt><trkpt lat="46.1580953561323" lon="13.37913254864933"><ele>582.6</ele><time>2026-04-18T10:17:39.999Z</time></trkpt><trkpt lat="46.158055977953055" lon="13.379205912579"><ele>584.2</ele><time>2026-04-18T10:17:40.999Z</time></trkpt><trkpt lat="46.15803246609914" lon="13.379340694406809"><ele>585.8</ele><time>2026-04-18T10:17:42.999Z</time></trkpt><trkpt lat="46.15796270098857" lon="13.37952243882526"><ele>587.4</ele><time>2026-04-18T10:17:44.999Z</time></trkpt><trkpt lat="46.15789653150013" lon="13.379651876522217"><ele>589.0</ele><time>2026-04-18T10:17:45.999Z</time></trkpt><trkpt lat="46.157806360165104" lon="13.379801903693556"><ele>589.0</ele><time>2026-04-18T10:17:46.999Z</time></trkpt><trkpt lat="46.15772526498115" lon="13.37996478290235"><ele>589.0</ele><time>2026-04-18T10:17:47.999Z</time></trkpt><trkpt lat="46.15766327452618" lon="13.380092311910847"><ele>589.0</ele><time>2026-04-18T10:17:48.999Z</time></trkpt><trkpt lat="46.157611299815464" lon="13.380179566926023"><ele>589.0</ele><time>2026-04-18T10:17:49.999Z</time></trkpt><trkpt lat="46.15754520066896" lon="13.380325680450083"><ele>589.0</ele><time>2026-04-18T10:17:51.999Z</time></trkpt><trkpt lat="46.15753416086752" lon="13.380481845387958"><ele>587.6666666666667</ele><time>2026-04-18T10:17:53.999Z</time></trkpt><trkpt lat="46.15753495184031" lon="13.38057675783877"><ele>586.3333333333334</ele><time>2026-04-18T10:17:54.999Z</time></trkpt><trkpt lat="46.15755452401777" lon="13.38067683056466"><ele>585.0</ele><time>2026-04-18T10:17:56Z</time></trkpt><trkpt lat="46.15762285948946" lon="13.380797763753387"><ele>583.6666666666666</ele><time>2026-04-18T10:17:58Z</time></trkpt><trkpt lat="46.15773470865689" lon="13.380835506243763"><ele>582.3333333333333</ele><time>2026-04-18T10:18:00Z</time></trkpt><trkpt lat="46.15781334974892" lon="13.38082250498714"><ele>581.0</ele><time>2026-04-18T10:18:01Z</time></trkpt><trkpt lat="46.15788850949395" lon="13.380823230858816"><ele>581.0</ele><time>2026-04-18T10:18:02Z</time></trkpt><trkpt lat="46.158017795756415" lon="13.380867305130685"><ele>581.0</ele><time>2026-04-18T10:18:04Z</time></trkpt><trkpt lat="46.15811257346101" lon="13.380923680036565"><ele>581.0</ele><time>2026-04-18T10:18:06Z</time></trkpt><trkpt lat="46.158126870081006" lon="13.381036501702884"><ele>581.0</ele><time>2026-04-18T10:18:08Z</time></trkpt><trkpt lat="46.1580398621462" lon="13.38115233295241"><ele>581.0</ele><time>2026-04-18T10:18:10Z</time></trkpt><trkpt lat="46.157963284274345" lon="13.381148111081446"><ele>581.0</ele><time>2026-04-18T10:18:11Z</time></trkpt><trkpt lat="46.15787783382078" lon="13.381162652646584"><ele>581.0</ele><time>2026-04-18T10:18:12Z</time></trkpt><trkpt lat="46.15779452175629" lon="13.381176109980771"><ele>581.0</ele><time>2026-04-18T10:18:13Z</time></trkpt><trkpt lat="46.157682291822354" lon="13.381217893223035"><ele>581.0</ele><time>2026-04-18T10:18:15Z</time></trkpt><trkpt lat="46.1575961978931" lon="13.381326098752085"><ele>581.0</ele><time>2026-04-18T10:18:17Z</time></trkpt><trkpt lat="46.157584050114764" lon="13.38142574397226"><ele>582.3333333333333</ele><time>2026-04-18T10:18:18Z</time></trkpt><trkpt lat="46.15759393035473" lon="13.381563697712739"><ele>583.6666666666666</ele><time>2026-04-18T10:18:20Z</time></trkpt><trkpt lat="46.15764911405793" lon="13.381634131157483"><ele>585.0</ele><time>2026-04-18T10:18:22Z</time></trkpt><trkpt lat="46.15772044394527" lon="13.38172251225431"><ele>586.3333333333334</ele><time>2026-04-18T10:18:24Z</time></trkpt><trkpt lat="46.157774843605345" lon="13.381796407705188"><ele>587.6666666666667</ele><time>2026-04-18T10:18:25Z</time></trkpt><trkpt lat="46.157826309593055" lon="13.3818720698917"><ele>589.0</ele><time>2026-04-18T10:18:26Z</time></trkpt><trkpt lat="46.157895959536766" lon="13.382013275960505"><ele>589.0</ele><time>2026-04-18T10:18:28Z</time></trkpt><trkpt lat="46.157851919209826" lon="13.382109005611158"><ele>589.0</ele><time>2026-04-18T10:18:29Z</time></trkpt><trkpt lat="46.157796274904555" lon="13.382226389482664"><ele>589.0</ele><time>2026-04-18T10:18:30Z</time></trkpt><trkpt lat="46.15776430836636" lon="13.382412413701923"><ele>589.0</ele><time>2026-04-18T10:18:31Z</time></trkpt><trkpt lat="46.157752872623036" lon="13.38254707379658"><ele>589.0</ele><time>2026-04-18T10:18:32Z</time></trkpt><trkpt lat="46.15774205037769" lon="13.382640779847481"><ele>590.6</ele><time>2026-04-18T10:18:33Z</time></trkpt><trkpt lat="46.1577382140873" lon="13.38276170153891"><ele>592.2</ele><time>2026-04-18T10:18:35Z</time></trkpt><trkpt lat="46.15768270845041" lon="13.382835199636874"><ele>593.8000000000001</ele><time>2026-04-18T10:18:39Z</time></trkpt><trkpt lat="46.15772785969606" lon="13.382899518771728"><ele>595.4</ele><time>2026-04-18T10:18:44Z</time></trkpt><trkpt lat="46.157715716458696" lon="13.38277310218486"><ele>597.0</ele><time>2026-04-18T10:18:46Z</time></trkpt><trkpt lat="46.157769695857795" lon="13.382581928829453"><ele>597.0</ele><time>2026-04-18T10:18:47Z</time></trkpt><trkpt lat="46.15778953531829" lon="13.382422900612232"><ele>597.0</ele><time>2026-04-18T10:18:48Z</time></trkpt><trkpt lat="46.15781360607629" lon="13.382291780675507"><ele>597.0</ele><time>2026-04-18T10:18:49Z</time></trkpt><trkpt lat="46.157850707339406" lon="13.382174594849568"><ele>597.0</ele><time>2026-04-18T10:18:50Z</time></trkpt><trkpt lat="46.15789553567006" lon="13.382082053832033"><ele>597.0</ele><time>2026-04-18T10:18:51Z</time></trkpt><trkpt lat="46.15789259336082" lon="13.381906339736018"><ele>595.6666666666666</ele><time>2026-04-18T10:18:53Z</time></trkpt><trkpt lat="46.15783836458717" lon="13.381823912255934"><ele>594.3333333333334</ele><time>2026-04-18T10:18:54Z</time></trkpt><trkpt lat="46.15777922230347" lon="13.381749958893856"><ele>593.0</ele><time>2026-04-18T10:18:55Z</time></trkpt><trkpt lat="46.15772317802281" lon="13.38168011287822"><ele>591.6666666666667</ele><time>2026-04-18T10:18:56Z</time></trkpt><trkpt lat="46.15767054552989" lon="13.381615732608633"><ele>590.3333333333334</ele><time>2026-04-18T10:18:57Z</time></trkpt><trkpt lat="46.15761849030101" lon="13.38145491441514"><ele>589.0</ele><time>2026-04-18T10:18:59Z</time></trkpt><trkpt lat="46.15763188097291" lon="13.381344161721527"><ele>587.6666666666667</ele><time>2026-04-18T10:19:00Z</time></trkpt><trkpt lat="46.157659483263906" lon="13.38124896207393"><ele>586.3333333333334</ele><time>2026-04-18T10:19:01Z</time></trkpt><trkpt lat="46.1577155877333" lon="13.381197906164521"><ele>585.0</ele><time>2026-04-18T10:19:02Z</time></trkpt><trkpt lat="46.1577911118297" lon="13.381180915051221"><ele>583.6666666666666</ele><time>2026-04-18T10:19:03Z</time></trkpt><trkpt lat="46.15787481312632" lon="13.381174724004918"><ele>582.3333333333333</ele><time>2026-04-18T10:19:04Z</time></trkpt><trkpt lat="46.15795629158286" lon="13.381166206199344"><ele>581.0</ele><time>2026-04-18T10:19:04.999Z</time></trkpt><trkpt lat="46.15802891779" lon="13.381157638414448"><ele>581.0</ele><time>2026-04-18T10:19:05.999Z</time></trkpt><trkpt lat="46.15812909132908" lon="13.381086380491256"><ele>581.0</ele><time>2026-04-18T10:19:07.999Z</time></trkpt><trkpt lat="46.15813897829827" lon="13.380927442889359"><ele>581.0</ele><time>2026-04-18T10:19:09.999Z</time></trkpt><trkpt lat="46.15802694068034" lon="13.380825624197678"><ele>581.0</ele><time>2026-04-18T10:19:11.999Z</time></trkpt><trkpt lat="46.15795912082484" lon="13.380805737917552"><ele>581.0</ele><time>2026-04-18T10:19:12.999Z</time></trkpt><trkpt lat="46.157892540936636" lon="13.38078973921613"><ele>581.0</ele><time>2026-04-18T10:19:13.999Z</time></trkpt><trkpt lat="46.15782492727228" lon="13.38079347797288"><ele>581.0</ele><time>2026-04-18T10:19:14.999Z</time></trkpt><trkpt lat="46.1577602011252" lon="13.380802344066726"><ele>581.0</ele><time>2026-04-18T10:19:15.999Z</time></trkpt><trkpt lat="46.157694830761244" lon="13.380803897248793"><ele>581.0</ele><time>2026-04-18T10:19:16.999Z</time></trkpt><trkpt lat="46.1576306526268" lon="13.380779771156607"><ele>581.0</ele><time>2026-04-18T10:19:17.999Z</time></trkpt><trkpt lat="46.15757729802333" lon="13.380704839443132"><ele>581.0</ele><time>2026-04-18T10:19:18.999Z</time></trkpt><trkpt lat="46.15754622464857" lon="13.380589282087787"><ele>581.0</ele><time>2026-04-18T10:19:19.999Z</time></trkpt><trkpt lat="46.157537783092316" lon="13.380478270937166"><ele>582.3333333333333</ele><time>2026-04-18T10:19:20.999Z</time></trkpt><trkpt lat="46.157548018086246" lon="13.380373624543589"><ele>583.6666666666666</ele><time>2026-04-18T10:19:21.999Z</time></trkpt><trkpt lat="46.157570340821565" lon="13.380282101747348"><ele>585.0</ele><time>2026-04-18T10:19:22.999Z</time></trkpt><trkpt lat="46.15760128314108" lon="13.380200169049369"><ele>586.3333333333334</ele><time>2026-04-18T10:19:23.999Z</time></trkpt><trkpt lat="46.15765944408278" lon="13.380124819987772"><ele>587.6666666666667</ele><time>2026-04-18T10:19:24.999Z</time></trkpt><trkpt lat="46.15770975024328" lon="13.380027209620671"><ele>589.0</ele><time>2026-04-18T10:19:25.999Z</time></trkpt><trkpt lat="46.15775176901366" lon="13.379904887778501"><ele>589.0</ele><time>2026-04-18T10:19:26.999Z</time></trkpt><trkpt lat="46.15781466352123" lon="13.379790293541058"><ele>589.0</ele><time>2026-04-18T10:19:27.999Z</time></trkpt><trkpt lat="46.15788005067056" lon="13.379673030145401"><ele>589.0</ele><time>2026-04-18T10:19:28.999Z</time></trkpt><trkpt lat="46.157942722668366" lon="13.379548782054286"><ele>589.0</ele><time>2026-04-18T10:19:29.999Z</time></trkpt><trkpt lat="46.1580025930032" lon="13.379434217643041"><ele>589.0</ele><time>2026-04-18T10:19:30.999Z</time></trkpt><trkpt lat="46.15805077280565" lon="13.379300400517288"><ele>589.0</ele><time>2026-04-18T10:19:31.999Z</time></trkpt><trkpt lat="46.15808508031122" lon="13.379160793304338"><ele>589.0</ele><time>2026-04-18T10:19:32.999Z</time></trkpt><trkpt lat="46.15810210295422" lon="13.379023937728848"><ele>589.0</ele><time>2026-04-18T10:19:34.999Z</time></trkpt><trkpt lat="46.15804887497454" lon="13.378892896356215"><ele>589.0</ele><time>2026-04-18T10:19:36.999Z</time></trkpt><trkpt lat="46.15815253621666" lon="13.378876749655223"><ele>589.0</ele><time>2026-04-18T10:19:37.999Z</time></trkpt><trkpt lat="46.15804744260666" lon="13.378757811494351"><ele>589.0</ele><time>2026-04-18T10:19:38.999Z</time></trkpt><trkpt lat="46.15811225443127" lon="13.378635149330385"><ele>589.0</ele><time>2026-04-18T10:19:40.999Z</time></trkpt><trkpt lat="46.15811494254638" lon="13.378542003652228"><ele>589.0</ele><time>2026-04-18T10:19:41.999Z</time></trkpt><trkpt lat="46.15809898538589" lon="13.378446335469802"><ele>589.0</ele><time>2026-04-18T10:19:42.999Z</time></trkpt><trkpt lat="46.15807226894087" lon="13.37834991650989"><ele>589.0</ele><time>2026-04-18T10:19:43.999Z</time></trkpt><trkpt lat="46.158024965653844" lon="13.378216694325422"><ele>589.0</ele><time>2026-04-18T10:19:44.999Z</time></trkpt><trkpt lat="46.15799288264169" lon="13.378110433749708"><ele>589.0</ele><time>2026-04-18T10:19:45.999Z</time></trkpt><trkpt lat="46.157958279610156" lon="13.37802515444252"><ele>589.0</ele><time>2026-04-18T10:19:46.999Z</time></trkpt><trkpt lat="46.1578925037716" lon="13.377894179026772"><ele>589.0</ele><time>2026-04-18T10:19:48.999Z</time></trkpt><trkpt lat="46.15784548228115" lon="13.377830124445872"><ele>589.0</ele><time>2026-04-18T10:19:50.999Z</time></trkpt><trkpt lat="46.15778537384489" lon="13.377734211582977"><ele>589.0</ele><time>2026-04-18T10:19:52.999Z</time></trkpt><trkpt lat="46.15773902650014" lon="13.377647842266633"><ele>589.0</ele><time>2026-04-18T10:19:53.999Z</time></trkpt><trkpt lat="46.15767970389412" lon="13.377548115476948"><ele>588.25</ele><time>2026-04-18T10:19:54.999Z</time></trkpt><trkpt lat="46.15760997698505" lon="13.37742805753477"><ele>587.5</ele><time>2026-04-18T10:19:55.999Z</time></trkpt><trkpt lat="46.15753441911108" lon="13.377282199400693"><ele>586.75</ele><time>2026-04-18T10:19:56.999Z</time></trkpt><trkpt lat="46.15746799855086" lon="13.377138788210786"><ele>586.0</ele><time>2026-04-18T10:19:57.999Z</time></trkpt><trkpt lat="46.15740967247686" lon="13.377002393000557"><ele>586.1666666666667</ele><time>2026-04-18T10:19:58.999Z</time></trkpt><trkpt lat="46.15736306822243" lon="13.376865247948258"><ele>586.3333333333334</ele><time>2026-04-18T10:19:59.999Z</time></trkpt><trkpt lat="46.15732608943286" lon="13.376737486062465"><ele>586.5</ele><time>2026-04-18T10:20:00.999Z</time></trkpt><trkpt lat="46.15729853799862" lon="13.376619684192823"><ele>586.6666666666666</ele><time>2026-04-18T10:20:02Z</time></trkpt><trkpt lat="46.15727660630821" lon="13.376510180621754"><ele>586.8333333333333</ele><time>2026-04-18T10:20:03Z</time></trkpt><trkpt lat="46.15725102794121" lon="13.376406887413493"><ele>587.0</ele><time>2026-04-18T10:20:04Z</time></trkpt><trkpt lat="46.157224311413366" lon="13.376291468220094"><ele>589.8333333333333</ele><time>2026-04-18T10:20:05Z</time></trkpt><trkpt lat="46.15719721412395" lon="13.376145962765635"><ele>592.6666666666666</ele><time>2026-04-18T10:20:06Z</time></trkpt><trkpt lat="46.15716946423234" lon="13.37599206949073"><ele>595.5</ele><time>2026-04-18T10:20:07Z</time></trkpt><trkpt lat="46.1571480037888" lon="13.375875859709003"><ele>598.3333333333334</ele><time>2026-04-18T10:20:08Z</time></trkpt><trkpt lat="46.15713264145098" lon="13.375785637022513"><ele>601.1666666666667</ele><time>2026-04-18T10:20:09Z</time></trkpt><trkpt lat="46.157096723772284" lon="13.375705451543407"><ele>604.0</ele><time>2026-04-18T10:20:10Z</time></trkpt><trkpt lat="46.15704401747792" lon="13.375649652712326"><ele>604.0</ele><time>2026-04-18T10:20:11Z</time></trkpt><trkpt lat="46.156981312935585" lon="13.375597491933775"><ele>604.0</ele><time>2026-04-18T10:20:12Z</time></trkpt><trkpt lat="46.15691058449814" lon="13.375527687216955"><ele>604.0</ele><time>2026-04-18T10:20:13Z</time></trkpt><trkpt lat="46.15682861587351" lon="13.375410055676758"><ele>604.0</ele><time>2026-04-18T10:20:14Z</time></trkpt><trkpt lat="46.15675865787626" lon="13.375271762155624"><ele>604.0</ele><time>2026-04-18T10:20:15Z</time></trkpt><trkpt lat="46.15669699336978" lon="13.3751243940844"><ele>603.8</ele><time>2026-04-18T10:20:16Z</time></trkpt><trkpt lat="46.15663983116836" lon="13.374977427964867"><ele>603.5999999999999</ele><time>2026-04-18T10:20:17Z</time></trkpt><trkpt lat="46.156600243834184" lon="13.374827164780202"><ele>603.4</ele><time>2026-04-18T10:20:18Z</time></trkpt><trkpt lat="46.15658339847648" lon="13.374671568485516"><ele>603.1999999999999</ele><time>2026-04-18T10:20:19Z</time></trkpt><trkpt lat="46.156583610281636" lon="13.374531566717952"><ele>603.0</ele><time>2026-04-18T10:20:20Z</time></trkpt><trkpt lat="46.15660379560893" lon="13.374400592430682"><ele>603.0</ele><time>2026-04-18T10:20:21Z</time></trkpt><trkpt lat="46.15663912543968" lon="13.374311113895942"><ele>603.0</ele><time>2026-04-18T10:20:22Z</time></trkpt><trkpt lat="46.15664429859717" lon="13.374215937341738"><ele>603.0</ele><time>2026-04-18T10:20:23Z</time></trkpt><trkpt lat="46.156638279274794" lon="13.374110254393477"><ele>603.0</ele><time>2026-04-18T10:20:24Z</time></trkpt><trkpt lat="46.15661264508563" lon="13.373992545135257"><ele>603.0</ele><time>2026-04-18T10:20:25Z</time></trkpt><trkpt lat="46.15656396486829" lon="13.37387077201264"><ele>603.0</ele><time>2026-04-18T10:20:26Z</time></trkpt><trkpt lat="46.15652161044275" lon="13.373742602767184"><ele>603.1666666666666</ele><time>2026-04-18T10:20:27Z</time></trkpt><trkpt lat="46.15648474025665" lon="13.373610293626705"><ele>603.3333333333334</ele><time>2026-04-18T10:20:28Z</time></trkpt><trkpt lat="46.1564558731794" lon="13.37349575479352"><ele>603.5</ele><time>2026-04-18T10:20:29Z</time></trkpt><trkpt lat="46.15642823655779" lon="13.37338098185232"><ele>603.6666666666667</ele><time>2026-04-18T10:20:30Z</time></trkpt><trkpt lat="46.15640366028859" lon="13.37326362510319"><ele>603.8333333333334</ele><time>2026-04-18T10:20:31Z</time></trkpt><trkpt lat="46.156382921639164" lon="13.373152478579462"><ele>604.0</ele><time>2026-04-18T10:20:32Z</time></trkpt><trkpt lat="46.15635493880068" lon="13.373006420427537"><ele>604.1666666666667</ele><time>2026-04-18T10:20:34Z</time></trkpt><trkpt lat="46.1563203267121" lon="13.372851526282522"><ele>604.3333333333334</ele><time>2026-04-18T10:20:36Z</time></trkpt><trkpt lat="46.15631210797248" lon="13.372753438700965"><ele>604.5</ele><time>2026-04-18T10:20:37Z</time></trkpt><trkpt lat="46.15631301433733" lon="13.372650661673136"><ele>604.6666666666666</ele><time>2026-04-18T10:20:38Z</time></trkpt><trkpt lat="46.1563266714813" lon="13.372539726548698"><ele>604.8333333333333</ele><time>2026-04-18T10:20:39Z</time></trkpt><trkpt lat="46.15634186002316" lon="13.372437415367393"><ele>605.0</ele><time>2026-04-18T10:20:40Z</time></trkpt><trkpt lat="46.15637160796151" lon="13.372285211333704"><ele>603.6</ele><time>2026-04-18T10:20:42Z</time></trkpt><trkpt lat="46.15637884924127" lon="13.372151088775356"><ele>602.2</ele><time>2026-04-18T10:20:44Z</time></trkpt><trkpt lat="46.15636098117339" lon="13.371991558480538"><ele>600.8</ele><time>2026-04-18T10:20:46Z</time></trkpt><trkpt lat="46.15632964774044" lon="13.371842055915094"><ele>599.4</ele><time>2026-04-18T10:20:48Z</time></trkpt><trkpt lat="46.15631391054936" lon="13.37169297865534"><ele>598.0</ele><time>2026-04-18T10:20:50Z</time></trkpt><trkpt lat="46.1563445716606" lon="13.371561958250602"><ele>598.0</ele><time>2026-04-18T10:20:52Z</time></trkpt><trkpt lat="46.156371188052034" lon="13.371455147224909"><ele>598.0</ele><time>2026-04-18T10:20:54Z</time></trkpt><trkpt lat="46.15640841732397" lon="13.37135848286799"><ele>598.0</ele><time>2026-04-18T10:20:56Z</time></trkpt><trkpt lat="46.15646701454306" lon="13.371322526798572"><ele>598.0</ele><time>2026-04-18T10:20:58Z</time></trkpt><trkpt lat="46.156490443906854" lon="13.371209158135612"><ele>598.0</ele><time>2026-04-18T10:21:01Z</time></trkpt><trkpt lat="46.15652532395294" lon="13.371108454400193"><ele>598.0</ele><time>2026-04-18T10:21:21.999Z</time></trkpt><trkpt lat="46.15657552724564" lon="13.371035072096033"><ele>596.1999999999999</ele><time>2026-04-18T10:21:23.999Z</time></trkpt><trkpt lat="46.15662710352484" lon="13.370931000589872"><ele>594.4</ele><time>2026-04-18T10:21:25.999Z</time></trkpt><trkpt lat="46.156672945448136" lon="13.370830778059407"><ele>592.5999999999999</ele><time>2026-04-18T10:21:27.999Z</time></trkpt><trkpt lat="46.15672943486863" lon="13.37076263528977"><ele>590.8</ele><time>2026-04-18T10:21:30.999Z</time></trkpt><trkpt lat="46.156656512040456" lon="13.370884876390303"><ele>589.0</ele><time>2026-04-18T10:21:48.999Z</time></trkpt><trkpt lat="46.156585177546695" lon="13.371015441884314"><ele>589.0</ele><time>2026-04-18T10:21:49.999Z</time></trkpt><trkpt lat="46.15653596862847" lon="13.37109129662954"><ele>589.0</ele><time>2026-04-18T10:21:50.999Z</time></trkpt><trkpt lat="46.15648676997034" lon="13.371156082923804"><ele>589.0</ele><time>2026-04-18T10:21:53.999Z</time></trkpt><trkpt lat="46.15655457038896" lon="13.371091614686804"><ele>589.0</ele><time>2026-04-18T10:22:37Z</time></trkpt><trkpt lat="46.15658754164086" lon="13.37100204131773"><ele>589.0</ele><time>2026-04-18T10:22:46Z</time></trkpt><trkpt lat="46.15662361584186" lon="13.370920258312777"><ele>589.0</ele><time>2026-04-18T10:22:55Z</time></trkpt><trkpt lat="46.1566621892731" lon="13.370841080963434"><ele>589.0</ele><time>2026-04-18T10:23:04Z</time></trkpt><trkpt lat="46.15670663159847" lon="13.370776085094162"><ele>589.0</ele><time>2026-04-18T10:23:13Z</time></trkpt><trkpt lat="46.15666993301946" lon="13.37085924671435"><ele>589.0</ele><time>2026-04-18T10:23:33.999Z</time></trkpt><trkpt lat="46.156625579742894" lon="13.370940443048644"><ele>589.0</ele><time>2026-04-18T10:23:40.999Z</time></trkpt><trkpt lat="46.156582210036746" lon="13.37101985642286"><ele>589.0</ele><time>2026-04-18T10:23:47.999Z</time></trkpt><trkpt lat="46.156531970760085" lon="13.371103308620652"><ele>589.0</ele><time>2026-04-18T10:23:54.999Z</time></trkpt><trkpt lat="46.15647335103133" lon="13.371213896294607"><ele>589.0</ele><time>2026-04-18T10:24:40Z</time></trkpt><trkpt lat="46.15649021528938" lon="13.371320028171017"><ele>590.8</ele><time>2026-04-18T10:24:43Z</time></trkpt><trkpt lat="46.15640494344228" lon="13.371421197106908"><ele>592.5999999999999</ele><time>2026-04-18T10:24:45Z</time></trkpt><trkpt lat="46.156355415577345" lon="13.371477511148113"><ele>594.4</ele><time>2026-04-18T10:24:46Z</time></trkpt><trkpt lat="46.15633028644334" lon="13.371616423187248"><ele>596.1999999999999</ele><time>2026-04-18T10:24:50Z</time></trkpt><trkpt lat="46.15631724903331" lon="13.371764525032205"><ele>598.0</ele><time>2026-04-18T10:24:52Z</time></trkpt><trkpt lat="46.15634746048946" lon="13.371937867820662"><ele>598.0</ele><time>2026-04-18T10:24:54Z</time></trkpt><trkpt lat="46.15638546170183" lon="13.372108570096202"><ele>598.0</ele><time>2026-04-18T10:24:56Z</time></trkpt><trkpt lat="46.15637881731367" lon="13.37220479637298"><ele>598.0</ele><time>2026-04-18T10:24:57Z</time></trkpt><trkpt lat="46.15637348697576" lon="13.372297828174693"><ele>598.0</ele><time>2026-04-18T10:24:58Z</time></trkpt><trkpt lat="46.156359659231846" lon="13.372392140731716"><ele>598.0</ele><time>2026-04-18T10:24:59Z</time></trkpt><trkpt lat="46.156332467092085" lon="13.372494679726488"><ele>598.0</ele><time>2026-04-18T10:25:00Z</time></trkpt><trkpt lat="46.156310239821714" lon="13.372620957714593"><ele>599.0</ele><time>2026-04-18T10:25:01Z</time></trkpt><trkpt lat="46.15630453161541" lon="13.372737411325755"><ele>600.0</ele><time>2026-04-18T10:25:02Z</time></trkpt><trkpt lat="46.15631368620123" lon="13.372852587953451"><ele>601.0</ele><time>2026-04-18T10:25:03Z</time></trkpt><trkpt lat="46.15632933539208" lon="13.37294944960234"><ele>602.0</ele><time>2026-04-18T10:25:04Z</time></trkpt><trkpt lat="46.1563512416869" lon="13.373049137885596"><ele>603.0</ele><time>2026-04-18T10:25:05Z</time></trkpt><trkpt lat="46.15637079499147" lon="13.373153064089403"><ele>604.0</ele><time>2026-04-18T10:25:06Z</time></trkpt><trkpt lat="46.15637938135799" lon="13.373273319726877"><ele>604.0</ele><time>2026-04-18T10:25:07Z</time></trkpt><trkpt lat="46.15640829124555" lon="13.373395895690427"><ele>604.0</ele><time>2026-04-18T10:25:08Z</time></trkpt><trkpt lat="46.156445459262514" lon="13.373524310446353"><ele>604.0</ele><time>2026-04-18T10:25:09Z</time></trkpt><trkpt lat="46.156488985937195" lon="13.373658278593405"><ele>604.0</ele><time>2026-04-18T10:25:10Z</time></trkpt><trkpt lat="46.15652891693531" lon="13.373777814728037"><ele>604.0</ele><time>2026-04-18T10:25:11Z</time></trkpt><trkpt lat="46.15656961149865" lon="13.373901054724902"><ele>603.8571428571429</ele><time>2026-04-18T10:25:12Z</time></trkpt><trkpt lat="46.156605470473735" lon="13.374016378916561"><ele>603.7142857142858</ele><time>2026-04-18T10:25:13Z</time></trkpt><trkpt lat="46.156619331266086" lon="13.374108095507312"><ele>603.5714285714287</ele><time>2026-04-18T10:25:14Z</time></trkpt><trkpt lat="46.156627971012824" lon="13.374208569832987"><ele>603.4285714285714</ele><time>2026-04-18T10:25:15Z</time></trkpt><trkpt lat="46.15661429479458" lon="13.374307201796686"><ele>603.2857142857142</ele><time>2026-04-18T10:25:16Z</time></trkpt><trkpt lat="46.156588921111016" lon="13.37440435288411"><ele>603.1428571428572</ele><time>2026-04-18T10:25:17Z</time></trkpt><trkpt lat="46.1565569678688" lon="13.374487211537705"><ele>603.0</ele><time>2026-04-18T10:25:18Z</time></trkpt><trkpt lat="46.156553696947846" lon="13.374578236614196"><ele>603.0</ele><time>2026-04-18T10:25:19Z</time></trkpt><trkpt lat="46.15654425515435" lon="13.374669620753853"><ele>603.0</ele><time>2026-04-18T10:25:20Z</time></trkpt><trkpt lat="46.156554334339134" lon="13.374773273722786"><ele>603.0</ele><time>2026-04-18T10:25:21Z</time></trkpt><trkpt lat="46.15657207539391" lon="13.374879331967124"><ele>603.0</ele><time>2026-04-18T10:25:21.999Z</time></trkpt><trkpt lat="46.15660414801147" lon="13.374992940645214"><ele>603.0</ele><time>2026-04-18T10:25:22.999Z</time></trkpt><trkpt lat="46.15665261486718" lon="13.375083562249138"><ele>603.0</ele><time>2026-04-18T10:25:23.999Z</time></trkpt><trkpt lat="46.15669279469271" lon="13.375188687739858"><ele>603.1666666666666</ele><time>2026-04-18T10:25:24.999Z</time></trkpt><trkpt lat="46.15674537370885" lon="13.375286506447333"><ele>603.3333333333334</ele><time>2026-04-18T10:25:25.999Z</time></trkpt><trkpt lat="46.156800775420606" lon="13.375384684076053"><ele>603.5</ele><time>2026-04-18T10:25:26.999Z</time></trkpt><trkpt lat="46.156871542637" lon="13.37546911100958"><ele>603.6666666666667</ele><time>2026-04-18T10:25:27.999Z</time></trkpt><trkpt lat="46.15693882876965" lon="13.375545793059327"><ele>603.8333333333334</ele><time>2026-04-18T10:25:28.999Z</time></trkpt><trkpt lat="46.15699939854464" lon="13.37561281755268"><ele>604.0</ele><time>2026-04-18T10:25:29.999Z</time></trkpt><trkpt lat="46.15705624223917" lon="13.375679570702045"><ele>604.0</ele><time>2026-04-18T10:25:30.999Z</time></trkpt><trkpt lat="46.157095632653856" lon="13.375757191382657"><ele>604.0</ele><time>2026-04-18T10:25:31.999Z</time></trkpt><trkpt lat="46.157124810542456" lon="13.375857081548371"><ele>604.0</ele><time>2026-04-18T10:25:32.999Z</time></trkpt><trkpt lat="46.157147356537315" lon="13.375970548308528"><ele>604.0</ele><time>2026-04-18T10:25:33.999Z</time></trkpt><trkpt lat="46.15716794707875" lon="13.376097949999329"><ele>604.0</ele><time>2026-04-18T10:25:34.999Z</time></trkpt><trkpt lat="46.15719797143302" lon="13.37622141911533"><ele>604.0</ele><time>2026-04-18T10:25:35.999Z</time></trkpt><trkpt lat="46.15723385247929" lon="13.376358891481651"><ele>600.6</ele><time>2026-04-18T10:25:36.999Z</time></trkpt><trkpt lat="46.15726501722819" lon="13.376496599955264"><ele>597.2</ele><time>2026-04-18T10:25:37.999Z</time></trkpt><trkpt lat="46.157297173721695" lon="13.376633917964801"><ele>593.8000000000001</ele><time>2026-04-18T10:25:38.999Z</time></trkpt><trkpt lat="46.15732681751633" lon="13.376761100352157"><ele>590.4</ele><time>2026-04-18T10:25:39.999Z</time></trkpt><trkpt lat="46.15736522648052" lon="13.376882751321356"><ele>587.0</ele><time>2026-04-18T10:25:40.999Z</time></trkpt><trkpt lat="46.15740732768098" lon="13.376996034803977"><ele>586.8000000000001</ele><time>2026-04-18T10:25:41.999Z</time></trkpt><trkpt lat="46.15745034614724" lon="13.377111236231972"><ele>586.6</ele><time>2026-04-18T10:25:42.999Z</time></trkpt><trkpt lat="46.157484797389046" lon="13.377244814956095"><ele>586.4000000000001</ele><time>2026-04-18T10:25:43.999Z</time></trkpt><trkpt lat="46.157541889615366" lon="13.377358258906842"><ele>586.2</ele><time>2026-04-18T10:25:44.999Z</time></trkpt><trkpt lat="46.1576015463562" lon="13.3774635955009"><ele>586.0</ele><time>2026-04-18T10:25:45.999Z</time></trkpt><trkpt lat="46.157663471967915" lon="13.377568765439012"><ele>585.6666666666667</ele><time>2026-04-18T10:25:46.999Z</time></trkpt><trkpt lat="46.15772228026879" lon="13.377668641144288"><ele>585.3333333333334</ele><time>2026-04-18T10:25:47.999Z</time></trkpt><trkpt lat="46.15777907683685" lon="13.37776510025557"><ele>585.0</ele><time>2026-04-18T10:25:48.999Z</time></trkpt><trkpt lat="46.15783264150976" lon="13.377861557025222"><ele>584.6666666666666</ele><time>2026-04-18T10:25:49.999Z</time></trkpt><trkpt lat="46.15788718446699" lon="13.377964352720085"><ele>584.3333333333333</ele><time>2026-04-18T10:25:50.999Z</time></trkpt><trkpt lat="46.157937074350315" lon="13.378074483278384"><ele>584.0</ele><time>2026-04-18T10:25:51.999Z</time></trkpt><trkpt lat="46.157981198761284" lon="13.378190742268337"><ele>584.8333333333333</ele><time>2026-04-18T10:25:52.999Z</time></trkpt><trkpt lat="46.15802050014967" lon="13.378296392101873"><ele>585.6666666666666</ele><time>2026-04-18T10:25:53.999Z</time></trkpt><trkpt lat="46.158058895709026" lon="13.378399606887708"><ele>586.5</ele><time>2026-04-18T10:25:54.999Z</time></trkpt><trkpt lat="46.15808959250889" lon="13.378493090554663"><ele>587.3333333333334</ele><time>2026-04-18T10:25:55.999Z</time></trkpt><trkpt lat="46.15809571702086" lon="13.378585137684748"><ele>588.1666666666667</ele><time>2026-04-18T10:25:56.999Z</time></trkpt><trkpt lat="46.158060801482776" lon="13.378759354152058"><ele>589.0</ele><time>2026-04-18T10:25:58.999Z</time></trkpt><trkpt lat="46.158018342673415" lon="13.378872907031091"><ele>590.6666666666667</ele><time>2026-04-18T10:26:00.999Z</time></trkpt><trkpt lat="46.158057988961936" lon="13.378952609685838"><ele>592.3333333333334</ele><time>2026-04-18T10:26:02.999Z</time></trkpt><trkpt lat="46.15811658774993" lon="13.379039207623451"><ele>594.0</ele><time>2026-04-18T10:26:05.999Z</time></trkpt><trkpt lat="46.158073224046916" lon="13.379114937200978"><ele>595.6666666666666</ele><time>2026-04-18T10:26:06.999Z</time></trkpt><trkpt lat="46.158052983192675" lon="13.379214492612855"><ele>597.3333333333333</ele><time>2026-04-18T10:26:07.999Z</time></trkpt><trkpt lat="46.15801916599305" lon="13.379320096958741"><ele>599.0</ele><time>2026-04-18T10:26:08.999Z</time></trkpt><trkpt lat="46.15797286107235" lon="13.379436570539333"><ele>599.0</ele><time>2026-04-18T10:26:09.999Z</time></trkpt><trkpt lat="46.15791913232043" lon="13.379549930630155"><ele>599.0</ele><time>2026-04-18T10:26:10.999Z</time></trkpt><trkpt lat="46.15787007599134" lon="13.379648043275418"><ele>599.0</ele><time>2026-04-18T10:26:11.999Z</time></trkpt><trkpt lat="46.157819296024954" lon="13.37973810241297"><ele>599.0</ele><time>2026-04-18T10:26:12.999Z</time></trkpt><trkpt lat="46.157766790843006" lon="13.379834096828178"><ele>599.0</ele><time>2026-04-18T10:26:13.999Z</time></trkpt><trkpt lat="46.1577144152893" lon="13.379937128954134"><ele>599.0</ele><time>2026-04-18T10:26:14.999Z</time></trkpt><trkpt lat="46.15767168201086" lon="13.380054291101905"><ele>597.3333333333333</ele><time>2026-04-18T10:26:15.999Z</time></trkpt><trkpt lat="46.15761700181646" lon="13.38015410704796"><ele>595.6666666666666</ele><time>2026-04-18T10:26:16.999Z</time></trkpt><trkpt lat="46.15757503880974" lon="13.380242175074097"><ele>594.0</ele><time>2026-04-18T10:26:17.999Z</time></trkpt><trkpt lat="46.15753219981263" lon="13.380333918616856"><ele>592.3333333333334</ele><time>2026-04-18T10:26:19Z</time></trkpt><trkpt lat="46.157516690025815" lon="13.380442009056134"><ele>590.6666666666667</ele><time>2026-04-18T10:26:20Z</time></trkpt><trkpt lat="46.15751695804324" lon="13.380557373858004"><ele>589.0</ele><time>2026-04-18T10:26:21Z</time></trkpt><trkpt lat="46.157535557986314" lon="13.38067042627618"><ele>587.6666666666667</ele><time>2026-04-18T10:26:22Z</time></trkpt><trkpt lat="46.157571441580345" lon="13.380757989606131"><ele>586.3333333333334</ele><time>2026-04-18T10:26:23Z</time></trkpt><trkpt lat="46.15769589467389" lon="13.380833336531284"><ele>585.0</ele><time>2026-04-18T10:26:25Z</time></trkpt><trkpt lat="46.15776397990605" lon="13.380826517250027"><ele>583.6666666666666</ele><time>2026-04-18T10:26:26Z</time></trkpt><trkpt lat="46.15784168594355" lon="13.380821781068109"><ele>582.3333333333333</ele><time>2026-04-18T10:26:27Z</time></trkpt><trkpt lat="46.15793518895178" lon="13.380834227943017"><ele>581.0</ele><time>2026-04-18T10:26:28Z</time></trkpt><trkpt lat="46.15801600821563" lon="13.380866623895875"><ele>581.0</ele><time>2026-04-18T10:26:29Z</time></trkpt><trkpt lat="46.15807552372657" lon="13.380896442693889"><ele>581.0</ele><time>2026-04-18T10:26:30Z</time></trkpt><trkpt lat="46.15812848456145" lon="13.38100814401486"><ele>581.0</ele><time>2026-04-18T10:26:32Z</time></trkpt><trkpt lat="46.15807053269353" lon="13.381139239973663"><ele>581.0</ele><time>2026-04-18T10:26:34Z</time></trkpt><trkpt lat="46.1580006647915" lon="13.381149628719811"><ele>581.0</ele><time>2026-04-18T10:26:35Z</time></trkpt><trkpt lat="46.15793088253837" lon="13.38114821782246"><ele>581.0</ele><time>2026-04-18T10:26:36Z</time></trkpt><trkpt lat="46.15785305367095" lon="13.381164525489941"><ele>581.0</ele><time>2026-04-18T10:26:37Z</time></trkpt><trkpt lat="46.157773634365284" lon="13.381176261162302"><ele>581.0</ele><time>2026-04-18T10:26:38Z</time></trkpt><trkpt lat="46.15770851681085" lon="13.381198198869113"><ele>581.0</ele><time>2026-04-18T10:26:39Z</time></trkpt><trkpt lat="46.15761801420426" lon="13.381314288432224"><ele>581.0</ele><time>2026-04-18T10:26:41Z</time></trkpt><trkpt lat="46.15758811341576" lon="13.381401757586138"><ele>581.0</ele><time>2026-04-18T10:26:42Z</time></trkpt><trkpt lat="46.15758665808717" lon="13.381495333298506"><ele>581.0</ele><time>2026-04-18T10:26:43Z</time></trkpt><trkpt lat="46.15761472487807" lon="13.381585167977619"><ele>582.3333333333333</ele><time>2026-04-18T10:26:44Z</time></trkpt><trkpt lat="46.15766493580641" lon="13.38165418667084"><ele>583.6666666666666</ele><time>2026-04-18T10:26:45Z</time></trkpt><trkpt lat="46.15772473714557" lon="13.381727887271486"><ele>585.0</ele><time>2026-04-18T10:26:46Z</time></trkpt><trkpt lat="46.157782305098806" lon="13.38180698049771"><ele>586.3333333333334</ele><time>2026-04-18T10:26:47Z</time></trkpt><trkpt lat="46.15783682134125" lon="13.381888520896503"><ele>587.6666666666667</ele><time>2026-04-18T10:26:48Z</time></trkpt><trkpt lat="46.15787095810012" lon="13.382035870603465"><ele>589.0</ele><time>2026-04-18T10:26:50Z</time></trkpt><trkpt lat="46.157852753199556" lon="13.382132433065237"><ele>590.6</ele><time>2026-04-18T10:26:51Z</time></trkpt><trkpt lat="46.1577947151294" lon="13.382230422623747"><ele>592.2</ele><time>2026-04-18T10:26:52Z</time></trkpt><trkpt lat="46.15776470004966" lon="13.382384934375605"><ele>593.8000000000001</ele><time>2026-04-18T10:26:53Z</time></trkpt><trkpt lat="46.157765870851335" lon="13.382558074669587"><ele>595.4</ele><time>2026-04-18T10:26:54Z</time></trkpt><trkpt lat="46.1577495391246" lon="13.382679988816232"><ele>597.0</ele><time>2026-04-18T10:26:55Z</time></trkpt><trkpt lat="46.15773277055045" lon="13.382774629488601"><ele>597.0</ele><time>2026-04-18T10:26:56Z</time></trkpt><trkpt lat="46.15772250026401" lon="13.382961535002817"><ele>597.0</ele><time>2026-04-18T10:26:58Z</time></trkpt><trkpt lat="46.157753833541385" lon="13.383070732775693"><ele>597.0</ele><time>2026-04-18T10:26:59Z</time></trkpt><trkpt lat="46.15779373167127" lon="13.38319682184958"><ele>597.0</ele><time>2026-04-18T10:27:00Z</time></trkpt><trkpt lat="46.15784189653247" lon="13.38334589315381"><ele>597.0</ele><time>2026-04-18T10:27:01Z</time></trkpt><trkpt lat="46.15789923744956" lon="13.38352334654523"><ele>598.25</ele><time>2026-04-18T10:27:02Z</time></trkpt><trkpt lat="46.15795482587088" lon="13.383707052028557"><ele>599.5</ele><time>2026-04-18T10:27:03Z</time></trkpt><trkpt lat="46.1579949530093" lon="13.383855705320178"><ele>600.75</ele><time>2026-04-18T10:27:04Z</time></trkpt><trkpt lat="46.15802956419137" lon="13.383997864750757"><ele>602.0</ele><time>2026-04-18T10:27:05Z</time></trkpt><trkpt lat="46.15806345384692" lon="13.384147350693395"><ele>602.2</ele><time>2026-04-18T10:27:06Z</time></trkpt><trkpt lat="46.158100137270004" lon="13.384296476770812"><ele>602.4000000000001</ele><time>2026-04-18T10:27:07Z</time></trkpt><trkpt lat="46.1581509352056" lon="13.384429519156221"><ele>602.5999999999999</ele><time>2026-04-18T10:27:08Z</time></trkpt><trkpt lat="46.15819937148707" lon="13.384544486342932"><ele>602.8</ele><time>2026-04-18T10:27:09Z</time></trkpt><trkpt lat="46.158245327888594" lon="13.384641429387553"><ele>603.0</ele><time>2026-04-18T10:27:10Z</time></trkpt><trkpt lat="46.15828618985902" lon="13.384714689780203"><ele>607.8</ele><time>2026-04-18T10:27:11Z</time></trkpt><trkpt lat="46.15838500615724" lon="13.384796488886563"><ele>612.5999999999999</ele><time>2026-04-18T10:27:13Z</time></trkpt><trkpt lat="46.15845796061282" lon="13.384775105782497"><ele>617.4000000000001</ele><time>2026-04-18T10:27:14Z</time></trkpt><trkpt lat="46.15852194993993" lon="13.384744588080027"><ele>622.2</ele><time>2026-04-18T10:27:15Z</time></trkpt><trkpt lat="46.15862158745089" lon="13.384783135849997"><ele>627.0</ele><time>2026-04-18T10:27:17Z</time></trkpt><trkpt lat="46.15863095258553" lon="13.384924790278147"><ele>627.0</ele><time>2026-04-18T10:27:19Z</time></trkpt><trkpt lat="46.15863719661415" lon="13.385017396082526"><ele>627.0</ele><time>2026-04-18T10:27:20Z</time></trkpt><trkpt lat="46.158660062421134" lon="13.385142158836"><ele>627.0</ele><time>2026-04-18T10:27:22Z</time></trkpt><trkpt lat="46.158716261106996" lon="13.385191217896166"><ele>627.0</ele><time>2026-04-18T10:27:23Z</time></trkpt><trkpt lat="46.15879219251607" lon="13.38520267614322"><ele>627.0</ele><time>2026-04-18T10:27:23.999Z</time></trkpt><trkpt lat="46.15887095796246" lon="13.385177805356607"><ele>627.0</ele><time>2026-04-18T10:27:24.999Z</time></trkpt><trkpt lat="46.1589380881867" lon="13.38517414901685"><ele>627.0</ele><time>2026-04-18T10:27:25.999Z</time></trkpt><trkpt lat="46.15903874893266" lon="13.385266383124174"><ele>628.0</ele><time>2026-04-18T10:27:27.999Z</time></trkpt><trkpt lat="46.159078157169525" lon="13.385357076481629"><ele>629.0</ele><time>2026-04-18T10:27:28.999Z</time></trkpt><trkpt lat="46.1591130082237" lon="13.385458646932692"><ele>630.0</ele><time>2026-04-18T10:27:29.999Z</time></trkpt><trkpt lat="46.15912995375517" lon="13.385559801922374"><ele>631.0</ele><time>2026-04-18T10:27:30.999Z</time></trkpt><trkpt lat="46.15909278266164" lon="13.385750693933616"><ele>632.0</ele><time>2026-04-18T10:27:32.999Z</time></trkpt><trkpt lat="46.15904169783371" lon="13.385847135682738"><ele>633.0</ele><time>2026-04-18T10:27:33.999Z</time></trkpt><trkpt lat="46.159023285433065" lon="13.385956858801267"><ele>634.3333333333334</ele><time>2026-04-18T10:27:34.999Z</time></trkpt><trkpt lat="46.1589927238153" lon="13.386123743484351"><ele>635.6666666666666</ele><time>2026-04-18T10:27:36.999Z</time></trkpt><trkpt lat="46.15903342786719" lon="13.38622393902016"><ele>637.0</ele><time>2026-04-18T10:27:37.999Z</time></trkpt><trkpt lat="46.159084672775606" lon="13.386313277390604"><ele>638.3333333333333</ele><time>2026-04-18T10:27:38.999Z</time></trkpt><trkpt lat="46.15914644833525" lon="13.386400864336371"><ele>639.6666666666666</ele><time>2026-04-18T10:27:39.999Z</time></trkpt><trkpt lat="46.15920469750184" lon="13.386477711289842"><ele>641.0</ele><time>2026-04-18T10:27:40.999Z</time></trkpt><trkpt lat="46.15927372749849" lon="13.386536012263097"><ele>641.1666666666666</ele><time>2026-04-18T10:27:41.999Z</time></trkpt><trkpt lat="46.159369688728304" lon="13.38655796350915"><ele>641.3333333333333</ele><time>2026-04-18T10:27:42.999Z</time></trkpt><trkpt lat="46.159462378120544" lon="13.386551083894108"><ele>641.5</ele><time>2026-04-18T10:27:43.999Z</time></trkpt><trkpt lat="46.159557002156525" lon="13.38661107881747"><ele>641.6666666666666</ele><time>2026-04-18T10:27:45.999Z</time></trkpt><trkpt lat="46.15959255028354" lon="13.38668855434944"><ele>641.8333333333334</ele><time>2026-04-18T10:27:46.999Z</time></trkpt><trkpt lat="46.15963241748216" lon="13.386781495206401"><ele>642.0</ele><time>2026-04-18T10:27:47.999Z</time></trkpt><trkpt lat="46.15967725123495" lon="13.386886370595947"><ele>642.0</ele><time>2026-04-18T10:27:48.999Z</time></trkpt><trkpt lat="46.159714026584645" lon="13.386999492414654"><ele>642.0</ele><time>2026-04-18T10:27:49.999Z</time></trkpt><trkpt lat="46.15974808251738" lon="13.387134405893992"><ele>642.0</ele><time>2026-04-18T10:27:50.999Z</time></trkpt><trkpt lat="46.15979100967838" lon="13.38727446775756"><ele>642.0</ele><time>2026-04-18T10:27:51.999Z</time></trkpt><trkpt lat="46.15984017212454" lon="13.387430436825474"><ele>642.0</ele><time>2026-04-18T10:27:52.999Z</time></trkpt><trkpt lat="46.15987739245284" lon="13.387562016956887"><ele>646.8</ele><time>2026-04-18T10:27:53.999Z</time></trkpt><trkpt lat="46.15989766209083" lon="13.387678059328051"><ele>651.6</ele><time>2026-04-18T10:27:54.999Z</time></trkpt><trkpt lat="46.159913906463665" lon="13.38781540937482"><ele>656.4</ele><time>2026-04-18T10:27:55.999Z</time></trkpt><trkpt lat="46.15993645452195" lon="13.38797020352015"><ele>661.1999999999999</ele><time>2026-04-18T10:27:56.999Z</time></trkpt><trkpt lat="46.15996615072994" lon="13.388103798050674"><ele>666.0</ele><time>2026-04-18T10:27:57.999Z</time></trkpt><trkpt lat="46.16000299388108" lon="13.388230045710467"><ele>666.8333333333334</ele><time>2026-04-18T10:27:58.999Z</time></trkpt><trkpt lat="46.16004489333206" lon="13.388347038653075"><ele>667.6666666666666</ele><time>2026-04-18T10:27:59.999Z</time></trkpt><trkpt lat="46.16008318803518" lon="13.388456719300668"><ele>668.5</ele><time>2026-04-18T10:28:00.999Z</time></trkpt><trkpt lat="46.160105314287314" lon="13.38858236941376"><ele>669.3333333333333</ele><time>2026-04-18T10:28:01.999Z</time></trkpt><trkpt lat="46.160092144190294" lon="13.388705734685004"><ele>670.1666666666666</ele><time>2026-04-18T10:28:02.999Z</time></trkpt><trkpt lat="46.16006917354817" lon="13.38883261131153"><ele>671.0</ele><time>2026-04-18T10:28:03.999Z</time></trkpt><trkpt lat="46.16006065826571" lon="13.388943793515319"><ele>671.4</ele><time>2026-04-18T10:28:04.999Z</time></trkpt><trkpt lat="46.16007501531629" lon="13.389068280075113"><ele>671.8</ele><time>2026-04-18T10:28:05.999Z</time></trkpt><trkpt lat="46.16009584021358" lon="13.389209096202771"><ele>672.1999999999999</ele><time>2026-04-18T10:28:06.999Z</time></trkpt><trkpt lat="46.1601234641996" lon="13.389367031070265"><ele>672.5999999999999</ele><time>2026-04-18T10:28:07.999Z</time></trkpt><trkpt lat="46.16015795997403" lon="13.389527768008328"><ele>673.0</ele><time>2026-04-18T10:28:08.999Z</time></trkpt><trkpt lat="46.16018678934462" lon="13.38966787426609"><ele>673.8571428571429</ele><time>2026-04-18T10:28:09.999Z</time></trkpt><trkpt lat="46.160203652706606" lon="13.389788151739108"><ele>674.7142857142857</ele><time>2026-04-18T10:28:10.999Z</time></trkpt><trkpt lat="46.16019101411805" lon="13.389888576308747"><ele>675.5714285714286</ele><time>2026-04-18T10:28:11.999Z</time></trkpt><trkpt lat="46.160158510171534" lon="13.389981751048854"><ele>676.4285714285714</ele><time>2026-04-18T10:28:12.999Z</time></trkpt><trkpt lat="46.16010457913641" lon="13.390030286633081"><ele>677.2857142857142</ele><time>2026-04-18T10:28:13.999Z</time></trkpt><trkpt lat="46.16003779739723" lon="13.390051309886701"><ele>678.1428571428571</ele><time>2026-04-18T10:28:14.999Z</time></trkpt><trkpt lat="46.15995524166584" lon="13.390100180463806"><ele>679.0</ele><time>2026-04-18T10:28:15.999Z</time></trkpt><trkpt lat="46.15987512527753" lon="13.39020568756504"><ele>677.5</ele><time>2026-04-18T10:28:16.999Z</time></trkpt><trkpt lat="46.15982937157767" lon="13.3903313333708"><ele>676.0</ele><time>2026-04-18T10:28:17.999Z</time></trkpt><trkpt lat="46.1598176227034" lon="13.390458579726975"><ele>674.5</ele><time>2026-04-18T10:28:18.999Z</time></trkpt><trkpt lat="46.15977687739126" lon="13.390565010910592"><ele>673.0</ele><time>2026-04-18T10:28:19.999Z</time></trkpt><trkpt lat="46.15972054447249" lon="13.390646109763637"><ele>671.5</ele><time>2026-04-18T10:28:20.999Z</time></trkpt><trkpt lat="46.15965996146571" lon="13.390736713219132"><ele>670.0</ele><time>2026-04-18T10:28:21.999Z</time></trkpt><trkpt lat="46.15961858504606" lon="13.390823184031243"><ele>670.0</ele><time>2026-04-18T10:28:22.999Z</time></trkpt><trkpt lat="46.1595864242168" lon="13.390925153469306"><ele>670.0</ele><time>2026-04-18T10:28:23.999Z</time></trkpt><trkpt lat="46.15955808212978" lon="13.391012241056488"><ele>670.0</ele><time>2026-04-18T10:28:25Z</time></trkpt><trkpt lat="46.15951928969342" lon="13.391088808276137"><ele>670.0</ele><time>2026-04-18T10:28:26Z</time></trkpt><trkpt lat="46.159436695463405" lon="13.391164086411276"><ele>670.0</ele><time>2026-04-18T10:28:28Z</time></trkpt><trkpt lat="46.15937978555815" lon="13.391235375005694"><ele>670.0</ele><time>2026-04-18T10:28:30Z</time></trkpt><trkpt lat="46.15930753031883" lon="13.391240441079416"><ele>671.6666666666667</ele><time>2026-04-18T10:28:33Z</time></trkpt><trkpt lat="46.159272648691726" lon="13.391344274678264"><ele>673.3333333333334</ele><time>2026-04-18T10:36:57Z</time></trkpt><trkpt lat="46.15926443352591" lon="13.391473471001751"><ele>675.0</ele><time>2026-04-18T10:36:59Z</time></trkpt><trkpt lat="46.15922728766775" lon="13.39162825686519"><ele>676.6666666666666</ele><time>2026-04-18T10:37:01Z</time></trkpt><trkpt lat="46.159207477511885" lon="13.391724751113863"><ele>678.3333333333333</ele><time>2026-04-18T10:37:02Z</time></trkpt><trkpt lat="46.15918556740384" lon="13.391828509263966"><ele>680.0</ele><time>2026-04-18T10:37:03Z</time></trkpt><trkpt lat="46.15916000324087" lon="13.391946005542978"><ele>680.0</ele><time>2026-04-18T10:37:04Z</time></trkpt><trkpt lat="46.159135896392975" lon="13.392052915404824"><ele>680.0</ele><time>2026-04-18T10:37:05Z</time></trkpt><trkpt lat="46.15910374657027" lon="13.39219446389714"><ele>680.0</ele><time>2026-04-18T10:37:07Z</time></trkpt><trkpt lat="46.159065195415266" lon="13.392281589868237"><ele>680.0</ele><time>2026-04-18T10:37:09Z</time></trkpt><trkpt lat="46.15898808991906" lon="13.392315957225948"><ele>680.0</ele><time>2026-04-18T10:37:11Z</time></trkpt><trkpt lat="46.15888126132928" lon="13.392304080920171"><ele>680.0</ele><time>2026-04-18T10:37:13Z</time></trkpt><trkpt lat="46.158736542414765" lon="13.392282846344035"><ele>680.0</ele><time>2026-04-18T10:37:15Z</time></trkpt><trkpt lat="46.15863227737476" lon="13.39227450280562"><ele>680.0</ele><time>2026-04-18T10:37:16Z</time></trkpt><trkpt lat="46.15851706463637" lon="13.392261774774795"><ele>680.0</ele><time>2026-04-18T10:37:17Z</time></trkpt><trkpt lat="46.15841513848357" lon="13.39224355401561"><ele>680.0</ele><time>2026-04-18T10:37:18Z</time></trkpt><trkpt lat="46.15832380359609" lon="13.392224759323698"><ele>680.0</ele><time>2026-04-18T10:37:18.999Z</time></trkpt><trkpt lat="46.15823714069072" lon="13.392198409400203"><ele>676.4</ele><time>2026-04-18T10:37:19.999Z</time></trkpt><trkpt lat="46.15815243862606" lon="13.392170972963099"><ele>672.8</ele><time>2026-04-18T10:37:20.999Z</time></trkpt><trkpt lat="46.15805679585487" lon="13.3921428737339"><ele>669.2</ele><time>2026-04-18T10:37:21.999Z</time></trkpt><trkpt lat="46.15795278974417" lon="13.392121864774815"><ele>665.6</ele><time>2026-04-18T10:37:22.999Z</time></trkpt><trkpt lat="46.15784768863908" lon="13.392098140660117"><ele>662.0</ele><time>2026-04-18T10:37:23.999Z</time></trkpt><trkpt lat="46.15774024093301" lon="13.392071055296356"><ele>662.0</ele><time>2026-04-18T10:37:24.999Z</time></trkpt><trkpt lat="46.15762362311296" lon="13.392036408780083"><ele>662.0</ele><time>2026-04-18T10:37:25.999Z</time></trkpt><trkpt lat="46.15750476971722" lon="13.391996309089276"><ele>662.0</ele><time>2026-04-18T10:37:26.999Z</time></trkpt><trkpt lat="46.15738533969866" lon="13.39195451860747"><ele>662.0</ele><time>2026-04-18T10:37:27.999Z</time></trkpt><trkpt lat="46.15726830463372" lon="13.391920074480229"><ele>661.0</ele><time>2026-04-18T10:37:28.999Z</time></trkpt><trkpt lat="46.15714131794068" lon="13.391880419289855"><ele>660.0</ele><time>2026-04-18T10:37:29.999Z</time></trkpt><trkpt lat="46.15702062612796" lon="13.391840775490685"><ele>659.0</ele><time>2026-04-18T10:37:30.999Z</time></trkpt><trkpt lat="46.15690554812271" lon="13.391809094889965"><ele>658.0</ele><time>2026-04-18T10:37:31.999Z</time></trkpt><trkpt lat="46.156807870998335" lon="13.391778351782603"><ele>658.0</ele><time>2026-04-18T10:37:32.999Z</time></trkpt><trkpt lat="46.156726217375244" lon="13.39176063721447"><ele>658.0</ele><time>2026-04-18T10:37:33.999Z</time></trkpt><trkpt lat="46.156639216205825" lon="13.391775819869354"><ele>658.0</ele><time>2026-04-18T10:37:34.999Z</time></trkpt><trkpt lat="46.15655543903807" lon="13.391838824817293"><ele>658.0</ele><time>2026-04-18T10:37:35.999Z</time></trkpt><trkpt lat="46.15648475016344" lon="13.39193160468688"><ele>658.0</ele><time>2026-04-18T10:37:36.999Z</time></trkpt><trkpt lat="46.15642571339489" lon="13.392024796177576"><ele>658.0</ele><time>2026-04-18T10:37:37.999Z</time></trkpt><trkpt lat="46.15635251211791" lon="13.39209782300741"><ele>655.8</ele><time>2026-04-18T10:37:38.999Z</time></trkpt><trkpt lat="46.156271175252044" lon="13.392154173848807"><ele>653.5999999999999</ele><time>2026-04-18T10:37:39.999Z</time></trkpt><trkpt lat="46.15617559641724" lon="13.392164135311434"><ele>651.4000000000001</ele><time>2026-04-18T10:37:40.999Z</time></trkpt><trkpt lat="46.156075955699094" lon="13.392127167528429"><ele>649.2</ele><time>2026-04-18T10:37:41.999Z</time></trkpt><trkpt lat="46.15598906077872" lon="13.392038700177041"><ele>647.0</ele><time>2026-04-18T10:37:42.999Z</time></trkpt><trkpt lat="46.15590538545439" lon="13.391941141830987"><ele>647.0</ele><time>2026-04-18T10:37:43.999Z</time></trkpt><trkpt lat="46.155827557688745" lon="13.391845805964998"><ele>647.0</ele><time>2026-04-18T10:37:44.999Z</time></trkpt><trkpt lat="46.155750895973476" lon="13.391756935450896"><ele>647.0</ele><time>2026-04-18T10:37:45.999Z</time></trkpt><trkpt lat="46.155665638742406" lon="13.391675791698072"><ele>647.0</ele><time>2026-04-18T10:37:46.999Z</time></trkpt><trkpt lat="46.15556832958049" lon="13.391600788766242"><ele>647.0</ele><time>2026-04-18T10:37:47.999Z</time></trkpt><trkpt lat="46.15546853531383" lon="13.391515494015637"><ele>646.2</ele><time>2026-04-18T10:37:48.999Z</time></trkpt><trkpt lat="46.15537691470024" lon="13.391425552181174"><ele>645.4000000000001</ele><time>2026-04-18T10:37:49.999Z</time></trkpt><trkpt lat="46.155289165685296" lon="13.391344148035214"><ele>644.5999999999999</ele><time>2026-04-18T10:37:50.999Z</time></trkpt><trkpt lat="46.15520805649771" lon="13.391282097136624"><ele>643.8</ele><time>2026-04-18T10:37:51.999Z</time></trkpt><trkpt lat="46.15511313835205" lon="13.391256206449917"><ele>643.0</ele><time>2026-04-18T10:37:52.999Z</time></trkpt><trkpt lat="46.15499654574291" lon="13.391246984740578"><ele>637.5</ele><time>2026-04-18T10:37:53.999Z</time></trkpt><trkpt lat="46.1548652840974" lon="13.391228879315475"><ele>632.0</ele><time>2026-04-18T10:37:54.999Z</time></trkpt><trkpt lat="46.154738479069735" lon="13.391208475115047"><ele>626.5</ele><time>2026-04-18T10:37:55.999Z</time></trkpt><trkpt lat="46.154625627745176" lon="13.391185417104476"><ele>621.0</ele><time>2026-04-18T10:37:56.999Z</time></trkpt><trkpt lat="46.15451710492212" lon="13.391162916124381"><ele>621.0</ele><time>2026-04-18T10:37:57.999Z</time></trkpt><trkpt lat="46.154402209471094" lon="13.391139150742077"><ele>621.0</ele><time>2026-04-18T10:37:58.999Z</time></trkpt><trkpt lat="46.154302796901625" lon="13.391117276454706"><ele>621.0</ele><time>2026-04-18T10:37:59.999Z</time></trkpt><trkpt lat="46.15421205868891" lon="13.39111297632054"><ele>621.0</ele><time>2026-04-18T10:38:00.999Z</time></trkpt><trkpt lat="46.15412629342938" lon="13.391140379141229"><ele>621.0</ele><time>2026-04-18T10:38:01.999Z</time></trkpt><trkpt lat="46.15404285164555" lon="13.39119823145219"><ele>619.0</ele><time>2026-04-18T10:38:02.999Z</time></trkpt><trkpt lat="46.15395799271175" lon="13.391269950755827"><ele>617.0</ele><time>2026-04-18T10:38:03.999Z</time></trkpt><trkpt lat="46.15387298356852" lon="13.391336730059269"><ele>615.0</ele><time>2026-04-18T10:38:04.999Z</time></trkpt><trkpt lat="46.1537897012842" lon="13.391383164284969"><ele>613.0</ele><time>2026-04-18T10:38:05.999Z</time></trkpt><trkpt lat="46.153701909622946" lon="13.391410765646226"><ele>611.0</ele><time>2026-04-18T10:38:06.999Z</time></trkpt><trkpt lat="46.15360469003653" lon="13.391422373553644"><ele>614.2</ele><time>2026-04-18T10:38:07.999Z</time></trkpt><trkpt lat="46.1535031933913" lon="13.391427433875"><ele>617.4000000000001</ele><time>2026-04-18T10:38:08.999Z</time></trkpt><trkpt lat="46.1533979941944" lon="13.391429022696883"><ele>620.6</ele><time>2026-04-18T10:38:09.999Z</time></trkpt><trkpt lat="46.15329004513915" lon="13.391433172760397"><ele>623.8000000000001</ele><time>2026-04-18T10:38:10.999Z</time></trkpt><trkpt lat="46.153180031782256" lon="13.391441525773553"><ele>627.0</ele><time>2026-04-18T10:38:11.999Z</time></trkpt><trkpt lat="46.15307069005032" lon="13.391456285566395"><ele>627.0</ele><time>2026-04-18T10:38:12.999Z</time></trkpt><trkpt lat="46.15295701371227" lon="13.391495506571648"><ele>627.0</ele><time>2026-04-18T10:38:13.999Z</time></trkpt><trkpt lat="46.15284082839312" lon="13.391562227892777"><ele>627.0</ele><time>2026-04-18T10:38:14.999Z</time></trkpt><trkpt lat="46.152709862907074" lon="13.391630348797445"><ele>627.0</ele><time>2026-04-18T10:38:15.999Z</time></trkpt><trkpt lat="46.1525751519499" lon="13.39167117383542"><ele>627.0</ele><time>2026-04-18T10:38:16.999Z</time></trkpt><trkpt lat="46.15243624055528" lon="13.39168922411119"><ele>627.0</ele><time>2026-04-18T10:38:17.999Z</time></trkpt><trkpt lat="46.152305769554395" lon="13.391705838598787"><ele>627.0</ele><time>2026-04-18T10:38:18.999Z</time></trkpt><trkpt lat="46.15218485625587" lon="13.391709092069386"><ele>627.0</ele><time>2026-04-18T10:38:19.999Z</time></trkpt><trkpt lat="46.152076891766036" lon="13.391702130278254"><ele>628.4</ele><time>2026-04-18T10:38:20.999Z</time></trkpt><trkpt lat="46.15197131843947" lon="13.391687016922528"><ele>629.8000000000001</ele><time>2026-04-18T10:38:21.999Z</time></trkpt><trkpt lat="46.15186635259026" lon="13.391653769510526"><ele>631.2</ele><time>2026-04-18T10:38:22.999Z</time></trkpt><trkpt lat="46.15176465741628" lon="13.391597202879344"><ele>632.6</ele><time>2026-04-18T10:38:23.999Z</time></trkpt><trkpt lat="46.151661051605245" lon="13.391535394325901"><ele>634.0</ele><time>2026-04-18T10:38:24.999Z</time></trkpt><trkpt lat="46.15157674164008" lon="13.391498405665955"><ele>633.8333333333334</ele><time>2026-04-18T10:38:25.999Z</time></trkpt><trkpt lat="46.15149781029384" lon="13.391460140022037"><ele>633.6666666666667</ele><time>2026-04-18T10:38:26.999Z</time></trkpt><trkpt lat="46.15142130789333" lon="13.391401255707132"><ele>633.5</ele><time>2026-04-18T10:38:27.999Z</time></trkpt><trkpt lat="46.15135574727724" lon="13.391311632003152"><ele>633.3333333333334</ele><time>2026-04-18T10:38:28.999Z</time></trkpt><trkpt lat="46.15129385377722" lon="13.391206986056467"><ele>633.1666666666666</ele><time>2026-04-18T10:38:29.999Z</time></trkpt><trkpt lat="46.15124343046908" lon="13.39109271833724"><ele>633.0</ele><time>2026-04-18T10:38:30.999Z</time></trkpt><trkpt lat="46.15119368925695" lon="13.390962292952349"><ele>633.0</ele><time>2026-04-18T10:38:31.999Z</time></trkpt><trkpt lat="46.15114067564081" lon="13.390814882101909"><ele>633.0</ele><time>2026-04-18T10:38:32.999Z</time></trkpt><trkpt lat="46.15108656937989" lon="13.390669927708743"><ele>633.0</ele><time>2026-04-18T10:38:33.999Z</time></trkpt><trkpt lat="46.15103067470768" lon="13.390534735686416"><ele>633.0</ele><time>2026-04-18T10:38:34.999Z</time></trkpt><trkpt lat="46.15096960253591" lon="13.390427115617577"><ele>633.0</ele><time>2026-04-18T10:38:35.999Z</time></trkpt><trkpt lat="46.15090581724432" lon="13.390343069407452"><ele>629.8333333333334</ele><time>2026-04-18T10:38:36.999Z</time></trkpt><trkpt lat="46.15084113304054" lon="13.390273265098891"><ele>626.6666666666666</ele><time>2026-04-18T10:38:37.999Z</time></trkpt><trkpt lat="46.1507712606673" lon="13.390236185876043"><ele>623.5</ele><time>2026-04-18T10:38:38.999Z</time></trkpt><trkpt lat="46.15069254842563" lon="13.39023342142263"><ele>620.3333333333333</ele><time>2026-04-18T10:38:39.999Z</time></trkpt><trkpt lat="46.15060733455891" lon="13.390234055678466"><ele>617.1666666666666</ele><time>2026-04-18T10:38:40.999Z</time></trkpt><trkpt lat="46.15051637415293" lon="13.390226263808325"><ele>614.0</ele><time>2026-04-18T10:38:41.999Z</time></trkpt><trkpt lat="46.15041157934435" lon="13.390222227806289"><ele>612.2</ele><time>2026-04-18T10:38:42.999Z</time></trkpt><trkpt lat="46.15030153984238" lon="13.390220304877007"><ele>610.4</ele><time>2026-04-18T10:38:43.999Z</time></trkpt><trkpt lat="46.150192704733925" lon="13.390220475918184"><ele>608.6</ele><time>2026-04-18T10:38:44.999Z</time></trkpt><trkpt lat="46.15009116072318" lon="13.390214029202763"><ele>606.8</ele><time>2026-04-18T10:38:45.999Z</time></trkpt><trkpt lat="46.14999949843153" lon="13.390208928143327"><ele>605.0</ele><time>2026-04-18T10:38:46.999Z</time></trkpt><trkpt lat="46.149912245627576" lon="13.390241495631098"><ele>602.6</ele><time>2026-04-18T10:38:47.999Z</time></trkpt><trkpt lat="46.14982489943202" lon="13.390305002982862"><ele>600.2</ele><time>2026-04-18T10:38:48.999Z</time></trkpt><trkpt lat="46.14973212459795" lon="13.390360293384553"><ele>597.8</ele><time>2026-04-18T10:38:49.999Z</time></trkpt><trkpt lat="46.14963480848429" lon="13.39038779432524"><ele>595.4</ele><time>2026-04-18T10:38:50.999Z</time></trkpt><trkpt lat="46.14953839731029" lon="13.390411483610244"><ele>593.0</ele><time>2026-04-18T10:38:51.999Z</time></trkpt><trkpt lat="46.1494380713771" lon="13.390448944879635"><ele>593.0</ele><time>2026-04-18T10:38:52.999Z</time></trkpt><trkpt lat="46.149329423825634" lon="13.390457291002576"><ele>593.0</ele><time>2026-04-18T10:38:53.999Z</time></trkpt><trkpt lat="46.149234103641625" lon="13.390498416103913"><ele>593.0</ele><time>2026-04-18T10:38:54.998Z</time></trkpt><trkpt lat="46.14914664740606" lon="13.390493922431395"><ele>593.0</ele><time>2026-04-18T10:38:55.998Z</time></trkpt><trkpt lat="46.1490608965445" lon="13.390459409158796"><ele>593.0</ele><time>2026-04-18T10:38:56.998Z</time></trkpt><trkpt lat="46.148985764288085" lon="13.39038248363065"><ele>593.6</ele><time>2026-04-18T10:38:57.998Z</time></trkpt><trkpt lat="46.1489445390347" lon="13.390253683900031"><ele>594.1999999999999</ele><time>2026-04-18T10:38:58.998Z</time></trkpt><trkpt lat="46.148871862319915" lon="13.390154475926987"><ele>594.8</ele><time>2026-04-18T10:38:59.998Z</time></trkpt><trkpt lat="46.14878282748166" lon="13.390095488694648"><ele>595.4</ele><time>2026-04-18T10:39:00.998Z</time></trkpt><trkpt lat="46.14869555294099" lon="13.390018299186288"><ele>596.0</ele><time>2026-04-18T10:39:01.998Z</time></trkpt><trkpt lat="46.14861721767758" lon="13.389929140689881"><ele>596.0</ele><time>2026-04-18T10:39:02.998Z</time></trkpt><trkpt lat="46.14853884158027" lon="13.38985094860161"><ele>596.0</ele><time>2026-04-18T10:39:03.998Z</time></trkpt><trkpt lat="46.14845138197824" lon="13.389788183339528"><ele>596.0</ele><time>2026-04-18T10:39:04.998Z</time></trkpt><trkpt lat="46.148364347114" lon="13.389744187190585"><ele>596.0</ele><time>2026-04-18T10:39:05.998Z</time></trkpt><trkpt lat="46.1482789402902" lon="13.389724927940245"><ele>596.0</ele><time>2026-04-18T10:39:06.998Z</time></trkpt><trkpt lat="46.14819537950948" lon="13.389739144205741"><ele>595.6666666666666</ele><time>2026-04-18T10:39:07.998Z</time></trkpt><trkpt lat="46.14810966631993" lon="13.38979106103308"><ele>595.3333333333333</ele><time>2026-04-18T10:39:08.998Z</time></trkpt><trkpt lat="46.14802884857705" lon="13.389854691022652"><ele>595.0</ele><time>2026-04-18T10:39:09.998Z</time></trkpt><trkpt lat="46.14794442755836" lon="13.389856827762742"><ele>594.6666666666666</ele><time>2026-04-18T10:39:10.998Z</time></trkpt><trkpt lat="46.14786354298143" lon="13.389881977157053"><ele>594.3333333333334</ele><time>2026-04-18T10:39:11.998Z</time></trkpt><trkpt lat="46.147780745606724" lon="13.38987230049351"><ele>594.0</ele><time>2026-04-18T10:39:12.998Z</time></trkpt><trkpt lat="46.14769248303168" lon="13.389875680905536"><ele>594.0</ele><time>2026-04-18T10:39:13.998Z</time></trkpt><trkpt lat="46.147598619629655" lon="13.389882486372606"><ele>594.0</ele><time>2026-04-18T10:39:14.998Z</time></trkpt><trkpt lat="46.14750529394183" lon="13.389887609012618"><ele>594.0</ele><time>2026-04-18T10:39:15.998Z</time></trkpt><trkpt lat="46.14741685251066" lon="13.389872209061425"><ele>594.0</ele><time>2026-04-18T10:39:16.998Z</time></trkpt><trkpt lat="46.14733766478096" lon="13.389830302357113"><ele>594.0</ele><time>2026-04-18T10:39:17.998Z</time></trkpt><trkpt lat="46.147267872815966" lon="13.389735886355943"><ele>594.2</ele><time>2026-04-18T10:39:18.998Z</time></trkpt><trkpt lat="46.14718093562421" lon="13.389681832449645"><ele>594.4</ele><time>2026-04-18T10:39:19.998Z</time></trkpt><trkpt lat="46.147101378861876" lon="13.389621866679759"><ele>594.6</ele><time>2026-04-18T10:39:20.999Z</time></trkpt><trkpt lat="46.147046318262085" lon="13.389564068892765"><ele>594.8</ele><time>2026-04-18T10:39:21.999Z</time></trkpt><trkpt lat="46.14700586141038" lon="13.38944305470239"><ele>595.0</ele><time>2026-04-18T10:39:23.999Z</time></trkpt><trkpt lat="46.1471323938369" lon="13.389464844759468"><ele>590.3333333333334</ele><time>2026-04-18T10:39:25.999Z</time></trkpt><trkpt lat="46.14717937643867" lon="13.389551130665287"><ele>585.6666666666667</ele><time>2026-04-18T10:39:26.999Z</time></trkpt><trkpt lat="46.147255149959015" lon="13.389604261881878"><ele>581.0</ele><time>2026-04-18T10:39:27.999Z</time></trkpt><trkpt lat="46.14736239322564" lon="13.38965086319797"><ele>576.3333333333334</ele><time>2026-04-18T10:39:28.999Z</time></trkpt><trkpt lat="46.147452225896906" lon="13.38966919245735"><ele>571.6666666666666</ele><time>2026-04-18T10:39:29.999Z</time></trkpt><trkpt lat="46.14752194125432" lon="13.38966122604858"><ele>567.0</ele><time>2026-04-18T10:39:30.999Z</time></trkpt><trkpt lat="46.147607391129384" lon="13.389624142892073"><ele>567.0</ele><time>2026-04-18T10:39:31.999Z</time></trkpt><trkpt lat="46.14767449443117" lon="13.389583471075333"><ele>567.0</ele><time>2026-04-18T10:39:32.999Z</time></trkpt><trkpt lat="46.147736804629595" lon="13.389435754249652"><ele>567.0</ele><time>2026-04-18T10:39:34.999Z</time></trkpt><trkpt lat="46.14765141156724" lon="13.389304101745921"><ele>567.0</ele><time>2026-04-18T10:39:36.999Z</time></trkpt><trkpt lat="46.1475853750742" lon="13.38926623221592"><ele>567.0</ele><time>2026-04-18T10:39:37.999Z</time></trkpt><trkpt lat="46.14751345696823" lon="13.389227050992439"><ele>567.0</ele><time>2026-04-18T10:39:38.999Z</time></trkpt><trkpt lat="46.147431566615296" lon="13.38916938876805"><ele>567.0</ele><time>2026-04-18T10:39:39.999Z</time></trkpt><trkpt lat="46.14735308263959" lon="13.389108458707854"><ele>567.0</ele><time>2026-04-18T10:39:40.999Z</time></trkpt><trkpt lat="46.14727338238645" lon="13.389039326621326"><ele>567.0</ele><time>2026-04-18T10:39:41.999Z</time></trkpt><trkpt lat="46.147194430586325" lon="13.388979275977153"><ele>567.0</ele><time>2026-04-18T10:39:42.999Z</time></trkpt><trkpt lat="46.14710917724994" lon="13.388942582453161"><ele>567.0</ele><time>2026-04-18T10:39:43.999Z</time></trkpt><trkpt lat="46.14702480830262" lon="13.388937386198819"><ele>567.0</ele><time>2026-04-18T10:39:44.999Z</time></trkpt><trkpt lat="46.14693410380819" lon="13.388951876128244"><ele>567.0</ele><time>2026-04-18T10:39:45.999Z</time></trkpt><trkpt lat="46.146844043746924" lon="13.388979973982671"><ele>567.0</ele><time>2026-04-18T10:39:46.999Z</time></trkpt><trkpt lat="46.14675693432274" lon="13.389010433983177"><ele>567.0</ele><time>2026-04-18T10:39:47.999Z</time></trkpt><trkpt lat="46.14667755725264" lon="13.389041338024569"><ele>567.0</ele><time>2026-04-18T10:39:48.999Z</time></trkpt><trkpt lat="46.14660244793101" lon="13.389056344457464"><ele>566.1666666666666</ele><time>2026-04-18T10:39:49.999Z</time></trkpt><trkpt lat="46.1465325384732" lon="13.389044293523272"><ele>565.3333333333334</ele><time>2026-04-18T10:39:50.999Z</time></trkpt><trkpt lat="46.1464567730582" lon="13.388998453427542"><ele>564.5</ele><time>2026-04-18T10:39:51.999Z</time></trkpt><trkpt lat="46.146378172686056" lon="13.388941227624324"><ele>563.6666666666667</ele><time>2026-04-18T10:39:52.999Z</time></trkpt><trkpt lat="46.146300929902566" lon="13.388876053545252"><ele>562.8333333333334</ele><time>2026-04-18T10:39:53.999Z</time></trkpt><trkpt lat="46.14622080952286" lon="13.388831123221408"><ele>562.0</ele><time>2026-04-18T10:39:54.999Z</time></trkpt><trkpt lat="46.146136413034505" lon="13.388828980819575"><ele>556.2</ele><time>2026-04-18T10:39:55.999Z</time></trkpt><trkpt lat="46.14604414981579" lon="13.3888417935283"><ele>550.4000000000001</ele><time>2026-04-18T10:39:56.999Z</time></trkpt><trkpt lat="46.14594846349992" lon="13.388838919899158"><ele>544.5999999999999</ele><time>2026-04-18T10:39:57.999Z</time></trkpt><trkpt lat="46.14584968361976" lon="13.388815194643252"><ele>538.8</ele><time>2026-04-18T10:39:58.999Z</time></trkpt><trkpt lat="46.14574975526922" lon="13.388766191346434"><ele>533.0</ele><time>2026-04-18T10:39:59.999Z</time></trkpt><trkpt lat="46.14564425081765" lon="13.388730553280752"><ele>531.8</ele><time>2026-04-18T10:40:00.999Z</time></trkpt><trkpt lat="46.14553812861588" lon="13.388707442250174"><ele>530.5999999999999</ele><time>2026-04-18T10:40:01.999Z</time></trkpt><trkpt lat="46.145433745304025" lon="13.388681450924498"><ele>529.4000000000001</ele><time>2026-04-18T10:40:02.999Z</time></trkpt><trkpt lat="46.14533116185823" lon="13.38865335461827"><ele>528.2</ele><time>2026-04-18T10:40:03.999Z</time></trkpt><trkpt lat="46.145230194660314" lon="13.388621641460087"><ele>527.0</ele><time>2026-04-18T10:40:04.999Z</time></trkpt><trkpt lat="46.14512091225893" lon="13.388585071224975"><ele>527.0</ele><time>2026-04-18T10:40:05.999Z</time></trkpt><trkpt lat="46.14500497631794" lon="13.388538461632088"><ele>527.0</ele><time>2026-04-18T10:40:06.999Z</time></trkpt><trkpt lat="46.14489375321483" lon="13.388484581661807"><ele>527.0</ele><time>2026-04-18T10:40:07.999Z</time></trkpt><trkpt lat="46.144791351293094" lon="13.388423712279796"><ele>527.0</ele><time>2026-04-18T10:40:08.999Z</time></trkpt><trkpt lat="46.14469613405142" lon="13.388355480734079"><ele>524.8000000000001</ele><time>2026-04-18T10:40:09.999Z</time></trkpt><trkpt lat="46.14460621463189" lon="13.38828807264765"><ele>522.6</ele><time>2026-04-18T10:40:10.999Z</time></trkpt><trkpt lat="46.14451164345324" lon="13.388254313642696"><ele>520.4000000000001</ele><time>2026-04-18T10:40:11.998Z</time></trkpt><trkpt lat="46.14441427533578" lon="13.388215514587392"><ele>518.2</ele><time>2026-04-18T10:40:12.998Z</time></trkpt><trkpt lat="46.144315355785686" lon="13.388206531067222"><ele>516.0</ele><time>2026-04-18T10:40:13.998Z</time></trkpt><trkpt lat="46.14420663896959" lon="13.388229209827303"><ele>516.0</ele><time>2026-04-18T10:40:14.998Z</time></trkpt><trkpt lat="46.14408916436547" lon="13.38824709951079"><ele>516.0</ele><time>2026-04-18T10:40:15.998Z</time></trkpt><trkpt lat="46.14398059773459" lon="13.388271161528543"><ele>516.0</ele><time>2026-04-18T10:40:16.998Z</time></trkpt><trkpt lat="46.143879177745795" lon="13.388287173668543"><ele>516.0</ele><time>2026-04-18T10:40:17.998Z</time></trkpt><trkpt lat="46.14378527577677" lon="13.388344311919747"><ele>516.0</ele><time>2026-04-18T10:40:18.998Z</time></trkpt><trkpt lat="46.143703681355284" lon="13.388421193670775"><ele>513.0</ele><time>2026-04-18T10:40:19.998Z</time></trkpt><trkpt lat="46.14362996560804" lon="13.388502452206712"><ele>510.0</ele><time>2026-04-18T10:40:20.998Z</time></trkpt><trkpt lat="46.14357397942451" lon="13.388586246811716"><ele>507.0</ele><time>2026-04-18T10:40:21.998Z</time></trkpt><trkpt lat="46.14352877194054" lon="13.388652043506688"><ele>504.0</ele><time>2026-04-18T10:40:22.998Z</time></trkpt><trkpt lat="46.143468555165164" lon="13.388723674367322"><ele>501.0</ele><time>2026-04-18T10:40:24.998Z</time></trkpt><trkpt lat="46.14342164146755" lon="13.388573623656239"><ele>498.0</ele><time>2026-04-18T10:40:26.998Z</time></trkpt><trkpt lat="46.14345337436915" lon="13.388453077064092"><ele>498.0</ele><time>2026-04-18T10:40:27.998Z</time></trkpt><trkpt lat="46.1434833986777" lon="13.38833838690018"><ele>497.99999999999994</ele><time>2026-04-18T10:40:28.998Z</time></trkpt><trkpt lat="46.14350918922536" lon="13.388211820926676"><ele>497.99999999999994</ele><time>2026-04-18T10:40:29.998Z</time></trkpt><trkpt lat="46.14353852730766" lon="13.388082284664199"><ele>498.0</ele><time>2026-04-18T10:40:30.998Z</time></trkpt><trkpt lat="46.14357051114512" lon="13.387953028109926"><ele>498.0</ele><time>2026-04-18T10:40:31.998Z</time></trkpt><trkpt lat="46.143606255110036" lon="13.387833601607802"><ele>496.4</ele><time>2026-04-18T10:40:32.998Z</time></trkpt><trkpt lat="46.143649285684035" lon="13.387726953849821"><ele>494.79999999999995</ele><time>2026-04-18T10:40:33.998Z</time></trkpt><trkpt lat="46.14368790948889" lon="13.387644273708606"><ele>493.2</ele><time>2026-04-18T10:40:34.998Z</time></trkpt><trkpt lat="46.14371178366201" lon="13.387498730145282"><ele>491.6</ele><time>2026-04-18T10:40:36.998Z</time></trkpt><trkpt lat="46.14361152088646" lon="13.387437037213322"><ele>490.0</ele><time>2026-04-18T10:40:38.998Z</time></trkpt><trkpt lat="46.14352789941304" lon="13.38756684108204"><ele>490.0</ele><time>2026-04-18T10:40:40.998Z</time></trkpt><trkpt lat="46.143478338734305" lon="13.387652849246392"><ele>490.0</ele><time>2026-04-18T10:40:41.998Z</time></trkpt><trkpt lat="46.143441258258434" lon="13.387772484525945"><ele>490.0</ele><time>2026-04-18T10:40:42.998Z</time></trkpt><trkpt lat="46.14338564007504" lon="13.387894584271102"><ele>490.0</ele><time>2026-04-18T10:40:43.998Z</time></trkpt><trkpt lat="46.14332321087827" lon="13.38802038947724"><ele>490.0</ele><time>2026-04-18T10:40:44.998Z</time></trkpt><trkpt lat="46.14325614730973" lon="13.388144767621498"><ele>483.0</ele><time>2026-04-18T10:40:45.998Z</time></trkpt><trkpt lat="46.1431797185042" lon="13.388272763869113"><ele>476.0</ele><time>2026-04-18T10:40:46.998Z</time></trkpt><trkpt lat="46.143088454491036" lon="13.388386546574258"><ele>469.0</ele><time>2026-04-18T10:40:47.998Z</time></trkpt><trkpt lat="46.14298505410765" lon="13.388494223678396"><ele>462.0</ele><time>2026-04-18T10:40:48.998Z</time></trkpt><trkpt lat="46.14288322060191" lon="13.388608375604244"><ele>462.0</ele><time>2026-04-18T10:40:49.998Z</time></trkpt><trkpt lat="46.14277877976757" lon="13.388723521606266"><ele>462.0</ele><time>2026-04-18T10:40:50.998Z</time></trkpt><trkpt lat="46.14268635997359" lon="13.388833034724225"><ele>462.0</ele><time>2026-04-18T10:40:51.998Z</time></trkpt><trkpt lat="46.14259134330282" lon="13.38892807066011"><ele>462.0</ele><time>2026-04-18T10:40:52.998Z</time></trkpt><trkpt lat="46.14249935565765" lon="13.389012895613837"><ele>465.75</ele><time>2026-04-18T10:40:53.998Z</time></trkpt><trkpt lat="46.14240549011879" lon="13.389119143899938"><ele>469.5</ele><time>2026-04-18T10:40:54.998Z</time></trkpt><trkpt lat="46.14229642785932" lon="13.389269734020116"><ele>473.25</ele><time>2026-04-18T10:40:55.998Z</time></trkpt><trkpt lat="46.142202408895926" lon="13.389399542769235"><ele>477.0</ele><time>2026-04-18T10:40:56.998Z</time></trkpt><trkpt lat="46.14211156278933" lon="13.389519532368386"><ele>471.0</ele><time>2026-04-18T10:40:57.998Z</time></trkpt><trkpt lat="46.14201855355403" lon="13.3896473024446"><ele>465.0</ele><time>2026-04-18T10:40:58.998Z</time></trkpt><trkpt lat="46.14191960932216" lon="13.389783834836006"><ele>459.0</ele><time>2026-04-18T10:40:59.998Z</time></trkpt><trkpt lat="46.141821900215724" lon="13.389920282628982"><ele>453.0</ele><time>2026-04-18T10:41:00.999Z</time></trkpt><trkpt lat="46.14173434483108" lon="13.3900595492046"><ele>453.0</ele><time>2026-04-18T10:41:01.999Z</time></trkpt><trkpt lat="46.14165072208892" lon="13.390211479732624"><ele>453.0</ele><time>2026-04-18T10:41:02.999Z</time></trkpt><trkpt lat="46.14157184695583" lon="13.390373018698977"><ele>453.0</ele><time>2026-04-18T10:41:03.999Z</time></trkpt><trkpt lat="46.14149798851848" lon="13.390540129593619"><ele>453.0</ele><time>2026-04-18T10:41:04.999Z</time></trkpt><trkpt lat="46.14142652019118" lon="13.39069130018864"><ele>450.4</ele><time>2026-04-18T10:41:05.999Z</time></trkpt><trkpt lat="46.14135557163038" lon="13.390821930411377"><ele>447.79999999999995</ele><time>2026-04-18T10:41:06.999Z</time></trkpt><trkpt lat="46.14128788617234" lon="13.390933046205607"><ele>445.2</ele><time>2026-04-18T10:41:07.999Z</time></trkpt><trkpt lat="46.14120382073257" lon="13.391035093671922"><ele>442.6</ele><time>2026-04-18T10:41:08.999Z</time></trkpt><trkpt lat="46.141120943171195" lon="13.39111397609178"><ele>440.0</ele><time>2026-04-18T10:41:09.999Z</time></trkpt><trkpt lat="46.141027101913856" lon="13.391162625267174"><ele>440.0</ele><time>2026-04-18T10:41:10.999Z</time></trkpt><trkpt lat="46.14092480069215" lon="13.391157289838096"><ele>440.0</ele><time>2026-04-18T10:41:11.999Z</time></trkpt><trkpt lat="46.14082465727955" lon="13.391147322247667"><ele>440.0</ele><time>2026-04-18T10:41:12.999Z</time></trkpt><trkpt lat="46.14071462469466" lon="13.391118565567453"><ele>440.0</ele><time>2026-04-18T10:41:13.999Z</time></trkpt><trkpt lat="46.14060891257678" lon="13.391064708344752"><ele>440.0</ele><time>2026-04-18T10:41:14.999Z</time></trkpt><trkpt lat="46.14050354453465" lon="13.391015348620812"><ele>437.99999999999994</ele><time>2026-04-18T10:41:15.999Z</time></trkpt><trkpt lat="46.14039072375417" lon="13.39102716122351"><ele>436.0</ele><time>2026-04-18T10:41:16.999Z</time></trkpt><trkpt lat="46.14030347257505" lon="13.391052136511231"><ele>434.0</ele><time>2026-04-18T10:41:17.999Z</time></trkpt><trkpt lat="46.14023613088265" lon="13.391113122264697"><ele>432.0</ele><time>2026-04-18T10:41:18.999Z</time></trkpt><trkpt lat="46.140169705524585" lon="13.391172626977585"><ele>429.99999999999994</ele><time>2026-04-18T10:41:19.999Z</time></trkpt><trkpt lat="46.1401159482022" lon="13.391266808288348"><ele>428.0</ele><time>2026-04-18T10:41:20.999Z</time></trkpt><trkpt lat="46.14006508013667" lon="13.391376018316349"><ele>428.0</ele><time>2026-04-18T10:41:21.999Z</time></trkpt><trkpt lat="46.140012791396664" lon="13.391492632883608"><ele>427.99999999999994</ele><time>2026-04-18T10:41:22.999Z</time></trkpt><trkpt lat="46.139958496087175" lon="13.39161184558352"><ele>427.99999999999994</ele><time>2026-04-18T10:41:23.999Z</time></trkpt><trkpt lat="46.13990204646503" lon="13.391734593772885"><ele>428.0</ele><time>2026-04-18T10:41:24.999Z</time></trkpt><trkpt lat="46.1398618819813" lon="13.391857329160956"><ele>428.0</ele><time>2026-04-18T10:41:25.999Z</time></trkpt><trkpt lat="46.139799173770264" lon="13.3919482138973"><ele>427.16666666666663</ele><time>2026-04-18T10:41:26.999Z</time></trkpt><trkpt lat="46.13975839996487" lon="13.392051600706134"><ele>426.3333333333333</ele><time>2026-04-18T10:41:27.999Z</time></trkpt><trkpt lat="46.13969225278214" lon="13.392131939638753"><ele>425.5</ele><time>2026-04-18T10:41:28.999Z</time></trkpt><trkpt lat="46.139620393912224" lon="13.392207248430577"><ele>424.66666666666663</ele><time>2026-04-18T10:41:29.999Z</time></trkpt><trkpt lat="46.13954700022833" lon="13.392280212308311"><ele>423.8333333333333</ele><time>2026-04-18T10:41:30.999Z</time></trkpt><trkpt lat="46.13948353303551" lon="13.392370575433834"><ele>423.0</ele><time>2026-04-18T10:41:31.999Z</time></trkpt><trkpt lat="46.13942961596177" lon="13.392474510764705"><ele>423.0</ele><time>2026-04-18T10:41:32.999Z</time></trkpt><trkpt lat="46.139385984447266" lon="13.392583147936572"><ele>423.0</ele><time>2026-04-18T10:41:33.999Z</time></trkpt><trkpt lat="46.1393533398616" lon="13.392708505166667"><ele>423.0</ele><time>2026-04-18T10:41:34.999Z</time></trkpt><trkpt lat="46.139323360021535" lon="13.392844141608814"><ele>423.0</ele><time>2026-04-18T10:41:35.999Z</time></trkpt><trkpt lat="46.139275983456564" lon="13.392982630016649"><ele>423.0</ele><time>2026-04-18T10:41:36.999Z</time></trkpt><trkpt lat="46.13924334032695" lon="13.393134215454262"><ele>423.0</ele><time>2026-04-18T10:41:37.999Z</time></trkpt><trkpt lat="46.139215122021" lon="13.393273212646363"><ele>423.0</ele><time>2026-04-18T10:41:38.999Z</time></trkpt><trkpt lat="46.13920149960415" lon="13.393406611734852"><ele>423.0</ele><time>2026-04-18T10:41:39.999Z</time></trkpt><trkpt lat="46.13915552348989" lon="13.393504165895889"><ele>423.0</ele><time>2026-04-18T10:41:40.999Z</time></trkpt><trkpt lat="46.13911590340902" lon="13.393609613075695"><ele>423.0</ele><time>2026-04-18T10:41:41.999Z</time></trkpt><trkpt lat="46.139039207504624" lon="13.393664566239481"><ele>423.0</ele><time>2026-04-18T10:41:42.999Z</time></trkpt><trkpt lat="46.13895285725746" lon="13.393654597589874"><ele>419.0</ele><time>2026-04-18T10:41:43.999Z</time></trkpt><trkpt lat="46.13886915997208" lon="13.393673479670325"><ele>415.0</ele><time>2026-04-18T10:41:44.999Z</time></trkpt><trkpt lat="46.138797129832334" lon="13.393665875072339"><ele>411.0</ele><time>2026-04-18T10:41:45.999Z</time></trkpt><trkpt lat="46.13869823807154" lon="13.393734248030654"><ele>407.0</ele><time>2026-04-18T10:41:47.999Z</time></trkpt><trkpt lat="46.13868274565064" lon="13.39382238666041"><ele>403.0</ele><time>2026-04-18T10:41:48.999Z</time></trkpt><trkpt lat="46.138683973195356" lon="13.39392779083294"><ele>399.0</ele><time>2026-04-18T10:41:49.999Z</time></trkpt><trkpt lat="46.13870307302164" lon="13.394036134702686"><ele>398.8333333333333</ele><time>2026-04-18T10:41:50.999Z</time></trkpt><trkpt lat="46.13872140153076" lon="13.39413485916734"><ele>398.66666666666663</ele><time>2026-04-18T10:41:51.999Z</time></trkpt><trkpt lat="46.138743781808174" lon="13.394229398119386"><ele>398.5</ele><time>2026-04-18T10:41:52.999Z</time></trkpt><trkpt lat="46.13875933667359" lon="13.394317809463763"><ele>398.3333333333333</ele><time>2026-04-18T10:41:53.999Z</time></trkpt><trkpt lat="46.138838938139806" lon="13.394448489492097"><ele>398.16666666666663</ele><time>2026-04-18T10:41:55.999Z</time></trkpt><trkpt lat="46.13887443881631" lon="13.394541069678947"><ele>398.0</ele><time>2026-04-18T10:41:57.999Z</time></trkpt><trkpt lat="46.138765943032524" lon="13.394497630513147"><ele>397.99999999999994</ele><time>2026-04-18T10:42:00.999Z</time></trkpt><trkpt lat="46.13870887937353" lon="13.394418794211992"><ele>398.0</ele><time>2026-04-18T10:42:01.999Z</time></trkpt><trkpt lat="46.13865960234532" lon="13.394329108014617"><ele>398.0</ele><time>2026-04-18T10:42:02.999Z</time></trkpt><trkpt lat="46.13861210963949" lon="13.394222508978178"><ele>398.0</ele><time>2026-04-18T10:42:03.999Z</time></trkpt><trkpt lat="46.13856520057028" lon="13.39411454511586"><ele>397.99999999999994</ele><time>2026-04-18T10:42:04.999Z</time></trkpt><trkpt lat="46.13851470541857" lon="13.394009446936561"><ele>398.0</ele><time>2026-04-18T10:42:05.999Z</time></trkpt><trkpt lat="46.13845780982829" lon="13.393932003669786"><ele>397.99999999999994</ele><time>2026-04-18T10:42:06.999Z</time></trkpt><trkpt lat="46.138388554482184" lon="13.393881152991524"><ele>398.0</ele><time>2026-04-18T10:42:07.999Z</time></trkpt><trkpt lat="46.13830685092995" lon="13.3938581076652"><ele>398.0</ele><time>2026-04-18T10:42:08.999Z</time></trkpt><trkpt lat="46.13821898743632" lon="13.393832061057571"><ele>398.0</ele><time>2026-04-18T10:42:09.999Z</time></trkpt><trkpt lat="46.13814782974264" lon="13.393784448948326"><ele>397.99999999999994</ele><time>2026-04-18T10:42:10.999Z</time></trkpt><trkpt lat="46.13809491951351" lon="13.39370725816285"><ele>398.0</ele><time>2026-04-18T10:42:11.999Z</time></trkpt><trkpt lat="46.138062778102146" lon="13.39361947054818"><ele>392.3333333333333</ele><time>2026-04-18T10:42:12.999Z</time></trkpt><trkpt lat="46.138056043970515" lon="13.393518151473888"><ele>386.66666666666663</ele><time>2026-04-18T10:42:13.999Z</time></trkpt><trkpt lat="46.138069523641995" lon="13.393394404464715"><ele>381.0</ele><time>2026-04-18T10:42:14.999Z</time></trkpt><trkpt lat="46.13808655840333" lon="13.393265499140956"><ele>375.3333333333333</ele><time>2026-04-18T10:42:15.999Z</time></trkpt><trkpt lat="46.13809286682368" lon="13.393139600771088"><ele>369.66666666666663</ele><time>2026-04-18T10:42:16.999Z</time></trkpt><trkpt lat="46.138079599961685" lon="13.393011168628838"><ele>364.0</ele><time>2026-04-18T10:42:17.999Z</time></trkpt><trkpt lat="46.13803751468917" lon="13.392896605352924"><ele>363.8333333333333</ele><time>2026-04-18T10:42:18.999Z</time></trkpt><trkpt lat="46.13799661889471" lon="13.392796260534922"><ele>363.66666666666663</ele><time>2026-04-18T10:42:19.999Z</time></trkpt><trkpt lat="46.137948041543794" lon="13.392710120614923"><ele>363.5</ele><time>2026-04-18T10:42:20.999Z</time></trkpt><trkpt lat="46.13788895356718" lon="13.392643513363732"><ele>363.3333333333333</ele><time>2026-04-18T10:42:21.999Z</time></trkpt><trkpt lat="46.1378385937276" lon="13.392552356873216"><ele>363.1666666666667</ele><time>2026-04-18T10:42:22.999Z</time></trkpt><trkpt lat="46.13779444736355" lon="13.392437080642663"><ele>363.0</ele><time>2026-04-18T10:42:23.999Z</time></trkpt><trkpt lat="46.13774920491335" lon="13.39231454785569"><ele>363.0</ele><time>2026-04-18T10:42:24.999Z</time></trkpt><trkpt lat="46.137699188051414" lon="13.392189550116333"><ele>363.0</ele><time>2026-04-18T10:42:25.999Z</time></trkpt><trkpt lat="46.137648380891605" lon="13.392060941455393"><ele>363.0</ele><time>2026-04-18T10:42:26.999Z</time></trkpt><trkpt lat="46.13759589697479" lon="13.391933374382042"><ele>363.0</ele><time>2026-04-18T10:42:27.999Z</time></trkpt><trkpt lat="46.13754437284146" lon="13.391809988363926"><ele>363.0</ele><time>2026-04-18T10:42:28.999Z</time></trkpt><trkpt lat="46.13749136298231" lon="13.391695128613613"><ele>363.0</ele><time>2026-04-18T10:42:29.999Z</time></trkpt><trkpt lat="46.13742167840715" lon="13.391601504558011"><ele>363.0</ele><time>2026-04-18T10:42:30.999Z</time></trkpt><trkpt lat="46.13733420530926" lon="13.391528064199257"><ele>363.0</ele><time>2026-04-18T10:42:31.999Z</time></trkpt><trkpt lat="46.13722510855301" lon="13.391475026436792"><ele>363.0</ele><time>2026-04-18T10:42:32.999Z</time></trkpt><trkpt lat="46.137114582098526" lon="13.39142003000728"><ele>363.0</ele><time>2026-04-18T10:42:33.999Z</time></trkpt><trkpt lat="46.137011812283504" lon="13.391360948008584"><ele>361.2</ele><time>2026-04-18T10:42:34.999Z</time></trkpt><trkpt lat="46.13691900266894" lon="13.391308145001537"><ele>359.4</ele><time>2026-04-18T10:42:35.999Z</time></trkpt><trkpt lat="46.136828720556124" lon="13.391262202869138"><ele>357.59999999999997</ele><time>2026-04-18T10:42:36.999Z</time></trkpt><trkpt lat="46.13674230447985" lon="13.391218454625506"><ele>355.79999999999995</ele><time>2026-04-18T10:42:37.999Z</time></trkpt><trkpt lat="46.13666051080094" lon="13.39117826586362"><ele>354.0</ele><time>2026-04-18T10:42:38.999Z</time></trkpt><trkpt lat="46.13658573417809" lon="13.391124917023538"><ele>354.0</ele><time>2026-04-18T10:42:39.999Z</time></trkpt><trkpt lat="46.1365153767936" lon="13.391130635543925"><ele>354.0</ele><time>2026-04-18T10:42:40.999Z</time></trkpt><trkpt lat="46.13645224722596" lon="13.39100798131639"><ele>354.0</ele><time>2026-04-18T10:42:42.999Z</time></trkpt><trkpt lat="46.13649129143806" lon="13.390936442154267"><ele>354.0</ele><time>2026-04-18T10:42:43.999Z</time></trkpt><trkpt lat="46.13655390012337" lon="13.390896839161407"><ele>354.0</ele><time>2026-04-18T10:42:44.999Z</time></trkpt><trkpt lat="46.13662956456665" lon="13.390921461342693"><ele>354.0</ele><time>2026-04-18T10:42:45.999Z</time></trkpt><trkpt lat="46.13676120339207" lon="13.390965476124066"><ele>354.0</ele><time>2026-04-18T10:42:47.999Z</time></trkpt><trkpt lat="46.13684177511878" lon="13.391006881233059"><ele>354.0</ele><time>2026-04-18T10:42:48.999Z</time></trkpt><trkpt lat="46.136928309984256" lon="13.391060708894654"><ele>354.0</ele><time>2026-04-18T10:42:49.999Z</time></trkpt><trkpt lat="46.137028713523904" lon="13.391084492592801"><ele>354.0</ele><time>2026-04-18T10:42:50.999Z</time></trkpt><trkpt lat="46.13713246311192" lon="13.391095222795723"><ele>354.0</ele><time>2026-04-18T10:42:51.999Z</time></trkpt><trkpt lat="46.137234813898445" lon="13.39108904141796"><ele>354.0</ele><time>2026-04-18T10:42:52.999Z</time></trkpt><trkpt lat="46.13732907627382" lon="13.391104285782538"><ele>354.0</ele><time>2026-04-18T10:42:53.999Z</time></trkpt><trkpt lat="46.13741598733215" lon="13.39111095839615"><ele>354.0</ele><time>2026-04-18T10:42:54.999Z</time></trkpt><trkpt lat="46.137501486086414" lon="13.391087422730832"><ele>354.0</ele><time>2026-04-18T10:42:55.999Z</time></trkpt><trkpt lat="46.13757629972199" lon="13.391096525164782"><ele>354.0</ele><time>2026-04-18T10:42:56.999Z</time></trkpt><trkpt lat="46.137645632543574" lon="13.391074661794201"><ele>354.0</ele><time>2026-04-18T10:42:57.999Z</time></trkpt><trkpt lat="46.1377101981311" lon="13.39101565982682"><ele>354.0</ele><time>2026-04-18T10:42:58.999Z</time></trkpt><trkpt lat="46.13773524678777" lon="13.390907163479973"><ele>354.0</ele><time>2026-04-18T10:42:59.999Z</time></trkpt><trkpt lat="46.13774049265" lon="13.390809001206527"><ele>354.0</ele><time>2026-04-18T10:43:00.999Z</time></trkpt><trkpt lat="46.13772707409456" lon="13.390710837345381"><ele>354.0</ele><time>2026-04-18T10:43:01.999Z</time></trkpt><trkpt lat="46.13772721208942" lon="13.390605395244098"><ele>354.0</ele><time>2026-04-18T10:43:02.999Z</time></trkpt><trkpt lat="46.13772095757824" lon="13.390502760360445"><ele>354.0</ele><time>2026-04-18T10:43:03.999Z</time></trkpt><trkpt lat="46.13771499634083" lon="13.390397001647445"><ele>354.0</ele><time>2026-04-18T10:43:04.999Z</time></trkpt><trkpt lat="46.13774887949876" lon="13.390301075498007"><ele>349.8333333333333</ele><time>2026-04-18T10:43:05.999Z</time></trkpt><trkpt lat="46.13781752154607" lon="13.390232717353522"><ele>345.6666666666667</ele><time>2026-04-18T10:43:06.999Z</time></trkpt><trkpt lat="46.1379081016008" lon="13.390203045533605"><ele>341.5</ele><time>2026-04-18T10:43:07.999Z</time></trkpt><trkpt lat="46.13798606199581" lon="13.3901259868298"><ele>337.33333333333337</ele><time>2026-04-18T10:43:08.999Z</time></trkpt><trkpt lat="46.138072080984514" lon="13.390073273554837"><ele>333.1666666666667</ele><time>2026-04-18T10:43:09.999Z</time></trkpt><trkpt lat="46.138143092180925" lon="13.3900088741277"><ele>329.0</ele><time>2026-04-18T10:43:10.999Z</time></trkpt><trkpt lat="46.13818922447844" lon="13.389940824011113"><ele>329.0</ele><time>2026-04-18T10:43:11.999Z</time></trkpt><trkpt lat="46.13822955617978" lon="13.389796385487026"><ele>329.0</ele><time>2026-04-18T10:43:13.999Z</time></trkpt><trkpt lat="46.138188070659766" lon="13.389711292044677"><ele>329.0</ele><time>2026-04-18T10:43:14.999Z</time></trkpt><trkpt lat="46.13815243324102" lon="13.389630579017236"><ele>329.0</ele><time>2026-04-18T10:43:15.999Z</time></trkpt><trkpt lat="46.1381113159232" lon="13.389539328524657"><ele>329.0</ele><time>2026-04-18T10:43:16.999Z</time></trkpt><trkpt lat="46.13805620447475" lon="13.389440282794315"><ele>329.0</ele><time>2026-04-18T10:43:17.999Z</time></trkpt><trkpt lat="46.13800281479611" lon="13.389321362707108"><ele>328.2</ele><time>2026-04-18T10:43:18.999Z</time></trkpt><trkpt lat="46.13791770618209" lon="13.389252539900603"><ele>327.4</ele><time>2026-04-18T10:43:19.999Z</time></trkpt><trkpt lat="46.137847803716895" lon="13.38916214285158"><ele>326.6</ele><time>2026-04-18T10:43:20.999Z</time></trkpt><trkpt lat="46.13778258705397" lon="13.389055608563615"><ele>325.8</ele><time>2026-04-18T10:43:21.999Z</time></trkpt><trkpt lat="46.13774619215959" lon="13.388916350455853"><ele>325.0</ele><time>2026-04-18T10:43:22.999Z</time></trkpt><trkpt lat="46.13768111256809" lon="13.388802528423044"><ele>325.0</ele><time>2026-04-18T10:43:23.999Z</time></trkpt><trkpt lat="46.13758626688931" lon="13.388746612036373"><ele>325.0</ele><time>2026-04-18T10:43:24.999Z</time></trkpt><trkpt lat="46.13751515234038" lon="13.388663832861692"><ele>325.0</ele><time>2026-04-18T10:43:25.999Z</time></trkpt><trkpt lat="46.13745255181028" lon="13.38853944924297"><ele>325.0</ele><time>2026-04-18T10:43:26.999Z</time></trkpt><trkpt lat="46.13739518815191" lon="13.388384171389255"><ele>325.0</ele><time>2026-04-18T10:43:27.999Z</time></trkpt><trkpt lat="46.13734363677888" lon="13.388225653811185"><ele>318.2</ele><time>2026-04-18T10:43:28.999Z</time></trkpt><trkpt lat="46.13729653062124" lon="13.388079768421715"><ele>311.4</ele><time>2026-04-18T10:43:29.999Z</time></trkpt><trkpt lat="46.13725500688173" lon="13.387938967906294"><ele>304.6</ele><time>2026-04-18T10:43:30.999Z</time></trkpt><trkpt lat="46.13720110392011" lon="13.387805430176186"><ele>297.8</ele><time>2026-04-18T10:43:31.999Z</time></trkpt><trkpt lat="46.13712664972278" lon="13.387662299607443"><ele>291.0</ele><time>2026-04-18T10:43:32.999Z</time></trkpt><trkpt lat="46.13702315595918" lon="13.387565452887685"><ele>291.0</ele><time>2026-04-18T10:43:33.999Z</time></trkpt><trkpt lat="46.13694536471497" lon="13.387457446436345"><ele>291.0</ele><time>2026-04-18T10:43:34.999Z</time></trkpt><trkpt lat="46.136884180242326" lon="13.387348358962253"><ele>291.0</ele><time>2026-04-18T10:43:35.999Z</time></trkpt><trkpt lat="46.136820082032564" lon="13.387261937449797"><ele>291.0</ele><time>2026-04-18T10:43:36.999Z</time></trkpt><trkpt lat="46.13674100140771" lon="13.387225138873736"><ele>291.0</ele><time>2026-04-18T10:43:37.999Z</time></trkpt><trkpt lat="46.13666143813307" lon="13.387212923190845"><ele>291.0</ele><time>2026-04-18T10:43:38.999Z</time></trkpt><trkpt lat="46.136589116888416" lon="13.387198263820345"><ele>291.0</ele><time>2026-04-18T10:43:39.999Z</time></trkpt><trkpt lat="46.13652055516021" lon="13.387158061883596"><ele>291.0</ele><time>2026-04-18T10:43:40.999Z</time></trkpt><trkpt lat="46.13647276495401" lon="13.387085498498307"><ele>291.0</ele><time>2026-04-18T10:43:41.999Z</time></trkpt><trkpt lat="46.13644969864493" lon="13.386965490207658"><ele>291.0</ele><time>2026-04-18T10:43:42.999Z</time></trkpt><trkpt lat="46.136425283952164" lon="13.3868531981325"><ele>291.0</ele><time>2026-04-18T10:43:43.999Z</time></trkpt><trkpt lat="46.13639466942572" lon="13.386740968955692"><ele>286.8</ele><time>2026-04-18T10:43:44.999Z</time></trkpt><trkpt lat="46.13636516682326" lon="13.386627855200082"><ele>282.6</ele><time>2026-04-18T10:43:45.999Z</time></trkpt><trkpt lat="46.13634435095543" lon="13.386506915534694"><ele>278.4</ele><time>2026-04-18T10:43:46.999Z</time></trkpt><trkpt lat="46.13633542049865" lon="13.386372911458682"><ele>274.2</ele><time>2026-04-18T10:43:47.999Z</time></trkpt><trkpt lat="46.13633877367164" lon="13.386230401736366"><ele>270.0</ele><time>2026-04-18T10:43:48.999Z</time></trkpt><trkpt lat="46.136344800054445" lon="13.38609244837805"><ele>270.0</ele><time>2026-04-18T10:43:49.999Z</time></trkpt><trkpt lat="46.13631915249515" lon="13.38596013473213"><ele>270.0</ele><time>2026-04-18T10:43:50.999Z</time></trkpt><trkpt lat="46.136266041635196" lon="13.385813005980491"><ele>270.0</ele><time>2026-04-18T10:43:51.999Z</time></trkpt><trkpt lat="46.136198149940796" lon="13.385664548242051"><ele>270.0</ele><time>2026-04-18T10:43:52.999Z</time></trkpt><trkpt lat="46.13613699695106" lon="13.38550888365227"><ele>270.2</ele><time>2026-04-18T10:43:53.999Z</time></trkpt><trkpt lat="46.136089833511775" lon="13.385363675982013"><ele>270.4</ele><time>2026-04-18T10:43:54.999Z</time></trkpt><trkpt lat="46.136048145290296" lon="13.385222429423827"><ele>270.6</ele><time>2026-04-18T10:43:55.999Z</time></trkpt><trkpt lat="46.13600359053561" lon="13.385091958743951"><ele>270.8</ele><time>2026-04-18T10:43:56.999Z</time></trkpt><trkpt lat="46.13595080543976" lon="13.384971260085393"><ele>271.0</ele><time>2026-04-18T10:43:57.999Z</time></trkpt><trkpt lat="46.135895675713456" lon="13.384855078984636"><ele>271.0</ele><time>2026-04-18T10:43:58.999Z</time></trkpt><trkpt lat="46.135830211622775" lon="13.384753632268461"><ele>271.0</ele><time>2026-04-18T10:43:59.999Z</time></trkpt><trkpt lat="46.13575377861013" lon="13.384658629516233"><ele>271.0</ele><time>2026-04-18T10:44:00.999Z</time></trkpt><trkpt lat="46.13567209563218" lon="13.384564209185214"><ele>271.0</ele><time>2026-04-18T10:44:01.999Z</time></trkpt><trkpt lat="46.13558523659809" lon="13.384479706674922"><ele>271.0</ele><time>2026-04-18T10:44:02.999Z</time></trkpt><trkpt lat="46.13549183649635" lon="13.38441145333881"><ele>269.8</ele><time>2026-04-18T10:44:03.999Z</time></trkpt><trkpt lat="46.13539731559947" lon="13.384347370180445"><ele>268.6</ele><time>2026-04-18T10:44:04.999Z</time></trkpt><trkpt lat="46.135302053788955" lon="13.384290112693636"><ele>267.4</ele><time>2026-04-18T10:44:05.999Z</time></trkpt><trkpt lat="46.13520673740404" lon="13.384232394944679"><ele>266.2</ele><time>2026-04-18T10:44:06.999Z</time></trkpt><trkpt lat="46.135097546205856" lon="13.38416424838912"><ele>265.0</ele><time>2026-04-18T10:44:07.999Z</time></trkpt><trkpt lat="46.1349849899592" lon="13.384091893997224"><ele>263.8</ele><time>2026-04-18T10:44:08.999Z</time></trkpt><trkpt lat="46.13487410333766" lon="13.384021039934845"><ele>262.6</ele><time>2026-04-18T10:44:09.999Z</time></trkpt><trkpt lat="46.13476437028518" lon="13.38396486415552"><ele>261.4</ele><time>2026-04-18T10:44:10.999Z</time></trkpt><trkpt lat="46.13465762026225" lon="13.383920800166218"><ele>260.2</ele><time>2026-04-18T10:44:11.999Z</time></trkpt><trkpt lat="46.13456130875662" lon="13.383898307231478"><ele>259.0</ele><time>2026-04-18T10:44:12.999Z</time></trkpt><trkpt lat="46.13447632913267" lon="13.383883118696833"><ele>260.0</ele><time>2026-04-18T10:44:13.999Z</time></trkpt><trkpt lat="46.134400148386504" lon="13.383845279027595"><ele>261.0</ele><time>2026-04-18T10:44:14.999Z</time></trkpt><trkpt lat="46.134329768865165" lon="13.383793214570515"><ele>262.0</ele><time>2026-04-18T10:44:15.999Z</time></trkpt><trkpt lat="46.13426516825431" lon="13.383714927826242"><ele>263.0</ele><time>2026-04-18T10:44:16.999Z</time></trkpt><trkpt lat="46.13420542588883" lon="13.383610154335434"><ele>264.0</ele><time>2026-04-18T10:44:17.999Z</time></trkpt><trkpt lat="46.13413132902158" lon="13.383504742393058"><ele>265.0</ele><time>2026-04-18T10:44:18.999Z</time></trkpt><trkpt lat="46.134052924482404" lon="13.383377464991115"><ele>263.0</ele><time>2026-04-18T10:44:19.999Z</time></trkpt><trkpt lat="46.13397239486805" lon="13.383238669153902"><ele>261.0</ele><time>2026-04-18T10:44:20.999Z</time></trkpt><trkpt lat="46.13385815563287" lon="13.383073063577834"><ele>259.0</ele><time>2026-04-18T10:44:21.999Z</time></trkpt><trkpt lat="46.1337421342103" lon="13.382942660841785"><ele>257.0</ele><time>2026-04-18T10:44:22.999Z</time></trkpt><trkpt lat="46.133648936214655" lon="13.382827947087165"><ele>257.0</ele><time>2026-04-18T10:44:23.999Z</time></trkpt><trkpt lat="46.13356844875857" lon="13.3827019971533"><ele>257.0</ele><time>2026-04-18T10:44:24.999Z</time></trkpt><trkpt lat="46.13350325028583" lon="13.382570570975297"><ele>257.0</ele><time>2026-04-18T10:44:25.999Z</time></trkpt><trkpt lat="46.133459996272585" lon="13.382453101160326"><ele>257.0</ele><time>2026-04-18T10:44:26.999Z</time></trkpt><trkpt lat="46.13341757882353" lon="13.382346158487382"><ele>257.0</ele><time>2026-04-18T10:44:27.999Z</time></trkpt><trkpt lat="46.133380283593645" lon="13.382254204841908"><ele>257.6666666666667</ele><time>2026-04-18T10:44:28.999Z</time></trkpt><trkpt lat="46.133340339516" lon="13.382179060169042"><ele>258.33333333333337</ele><time>2026-04-18T10:44:29.999Z</time></trkpt><trkpt lat="46.13327876768244" lon="13.382125021308603"><ele>259.0</ele><time>2026-04-18T10:44:30.999Z</time></trkpt><trkpt lat="46.13319630679476" lon="13.382100070245679"><ele>259.6666666666667</ele><time>2026-04-18T10:44:31.999Z</time></trkpt><trkpt lat="46.13312106988964" lon="13.382058372687824"><ele>260.3333333333333</ele><time>2026-04-18T10:44:32.999Z</time></trkpt><trkpt lat="46.133059686482966" lon="13.381990848330531"><ele>261.0</ele><time>2026-04-18T10:44:33.999Z</time></trkpt><trkpt lat="46.133004476098236" lon="13.381906565910162"><ele>258.0</ele><time>2026-04-18T10:44:34.999Z</time></trkpt><trkpt lat="46.13296217566023" lon="13.38178792176824"><ele>255.0</ele><time>2026-04-18T10:44:35.999Z</time></trkpt><trkpt lat="46.13292922865663" lon="13.381669333112661"><ele>252.0</ele><time>2026-04-18T10:44:36.999Z</time></trkpt><trkpt lat="46.13289216901343" lon="13.381559366478537"><ele>249.0</ele><time>2026-04-18T10:44:37.999Z</time></trkpt><trkpt lat="46.132850805591666" lon="13.381456999155859"><ele>246.0</ele><time>2026-04-18T10:44:38.999Z</time></trkpt><trkpt lat="46.13280403290175" lon="13.381364389552278"><ele>243.0</ele><time>2026-04-18T10:44:39.999Z</time></trkpt><trkpt lat="46.132748966851565" lon="13.381281076384528"><ele>243.0</ele><time>2026-04-18T10:44:40.999Z</time></trkpt><trkpt lat="46.132686386407315" lon="13.381208756104051"><ele>243.0</ele><time>2026-04-18T10:44:41.999Z</time></trkpt><trkpt lat="46.13261766901267" lon="13.381137058342915"><ele>243.0</ele><time>2026-04-18T10:44:42.999Z</time></trkpt><trkpt lat="46.13255286286828" lon="13.3810473624815"><ele>243.0</ele><time>2026-04-18T10:44:43.999Z</time></trkpt><trkpt lat="46.13248731874787" lon="13.380970825737249"><ele>243.0</ele><time>2026-04-18T10:44:44.999Z</time></trkpt><trkpt lat="46.132437841005114" lon="13.380885019468838"><ele>243.0</ele><time>2026-04-18T10:44:45.999Z</time></trkpt><trkpt lat="46.13237492151917" lon="13.380816387155157"><ele>243.60000000000002</ele><time>2026-04-18T10:44:46.999Z</time></trkpt><trkpt lat="46.13234725567123" lon="13.380704026148598"><ele>244.20000000000002</ele><time>2026-04-18T10:44:47.999Z</time></trkpt><trkpt lat="46.13234092928899" lon="13.380574523247695"><ele>244.8</ele><time>2026-04-18T10:44:48.999Z</time></trkpt><trkpt lat="46.132364070915614" lon="13.380437194563681"><ele>245.4</ele><time>2026-04-18T10:44:49.999Z</time></trkpt><trkpt lat="46.13238769913724" lon="13.38030004584715"><ele>246.0</ele><time>2026-04-18T10:44:50.999Z</time></trkpt><trkpt lat="46.13239179735289" lon="13.380170028913401"><ele>240.83333333333334</ele><time>2026-04-18T10:44:51.999Z</time></trkpt><trkpt lat="46.1323711167216" lon="13.38004618782491"><ele>235.66666666666669</ele><time>2026-04-18T10:44:52.999Z</time></trkpt><trkpt lat="46.13232852718019" lon="13.37992917182103"><ele>230.5</ele><time>2026-04-18T10:44:53.999Z</time></trkpt><trkpt lat="46.13228881311457" lon="13.379812994862816"><ele>225.33333333333334</ele><time>2026-04-18T10:44:54.999Z</time></trkpt><trkpt lat="46.13226325022098" lon="13.37969509601522"><ele>220.16666666666669</ele><time>2026-04-18T10:44:55.999Z</time></trkpt><trkpt lat="46.13226353250347" lon="13.379566246501355"><ele>215.0</ele><time>2026-04-18T10:44:56.999Z</time></trkpt><trkpt lat="46.13228699445767" lon="13.37941843011166"><ele>216.2</ele><time>2026-04-18T10:44:57.999Z</time></trkpt><trkpt lat="46.132319421896085" lon="13.379270678042818"><ele>217.4</ele><time>2026-04-18T10:44:58.999Z</time></trkpt><trkpt lat="46.13234261724863" lon="13.379132509669091"><ele>218.60000000000002</ele><time>2026-04-18T10:44:59.999Z</time></trkpt><trkpt lat="46.13234200847815" lon="13.3789992498612"><ele>219.8</ele><time>2026-04-18T10:45:00.999Z</time></trkpt><trkpt lat="46.13232864424351" lon="13.378871767104629"><ele>221.0</ele><time>2026-04-18T10:45:01.999Z</time></trkpt><trkpt lat="46.132293592072294" lon="13.378750417553755"><ele>221.0</ele><time>2026-04-18T10:45:02.999Z</time></trkpt><trkpt lat="46.13223484082432" lon="13.378639493115433"><ele>221.00000000000003</ele><time>2026-04-18T10:45:03.999Z</time></trkpt><trkpt lat="46.1321728671544" lon="13.378533956936446"><ele>221.00000000000003</ele><time>2026-04-18T10:45:04.999Z</time></trkpt><trkpt lat="46.132111751760036" lon="13.37843459304213"><ele>221.0</ele><time>2026-04-18T10:45:05.999Z</time></trkpt><trkpt lat="46.13204621974172" lon="13.378330279163068"><ele>221.0</ele><time>2026-04-18T10:45:06.999Z</time></trkpt><trkpt lat="46.13197425167123" lon="13.378229959485166"><ele>221.0</ele><time>2026-04-18T10:45:07.999Z</time></trkpt><trkpt lat="46.1318945781777" lon="13.378147733954451"><ele>221.00000000000003</ele><time>2026-04-18T10:45:08.999Z</time></trkpt><trkpt lat="46.131804050988585" lon="13.378094877180157"><ele>221.00000000000003</ele><time>2026-04-18T10:45:09.999Z</time></trkpt><trkpt lat="46.13169777687249" lon="13.37807325898298"><ele>221.0</ele><time>2026-04-18T10:45:10.999Z</time></trkpt><trkpt lat="46.131593302020555" lon="13.37806935525745"><ele>221.0</ele><time>2026-04-18T10:45:11.999Z</time></trkpt><trkpt lat="46.13150068492232" lon="13.378061614073244"><ele>219.66666666666669</ele><time>2026-04-18T10:45:13Z</time></trkpt><trkpt lat="46.13141362553515" lon="13.378054761118374"><ele>218.33333333333334</ele><time>2026-04-18T10:45:14Z</time></trkpt><trkpt lat="46.13133384019605" lon="13.37805177803024"><ele>217.0</ele><time>2026-04-18T10:45:15Z</time></trkpt><trkpt lat="46.13126283417674" lon="13.378047039515883"><ele>215.66666666666669</ele><time>2026-04-18T10:45:16Z</time></trkpt><trkpt lat="46.13119506683905" lon="13.378024612626719"><ele>214.33333333333334</ele><time>2026-04-18T10:45:17Z</time></trkpt><trkpt lat="46.131135552290644" lon="13.377966439243393"><ele>213.0</ele><time>2026-04-18T10:45:18Z</time></trkpt><trkpt lat="46.131102364115876" lon="13.377871151717226"><ele>213.0</ele><time>2026-04-18T10:45:19Z</time></trkpt><trkpt lat="46.1311133655772" lon="13.377733102839679"><ele>213.0</ele><time>2026-04-18T10:45:20Z</time></trkpt><trkpt lat="46.13111222563601" lon="13.377585216701252"><ele>213.0</ele><time>2026-04-18T10:45:21Z</time></trkpt><trkpt lat="46.1310647804704" lon="13.377446651968198"><ele>213.0</ele><time>2026-04-18T10:45:22Z</time></trkpt><trkpt lat="46.1310031054993" lon="13.377345395288968"><ele>213.0</ele><time>2026-04-18T10:45:23Z</time></trkpt><trkpt lat="46.13093981630447" lon="13.377255558491486"><ele>211.66666666666666</ele><time>2026-04-18T10:45:24Z</time></trkpt><trkpt lat="46.13089607957539" lon="13.377155257066974"><ele>210.33333333333331</ele><time>2026-04-18T10:45:25Z</time></trkpt><trkpt lat="46.13088517662295" lon="13.377039190169043"><ele>209.0</ele><time>2026-04-18T10:45:26Z</time></trkpt><trkpt lat="46.13092201331964" lon="13.376921547345376"><ele>207.66666666666666</ele><time>2026-04-18T10:45:27Z</time></trkpt><trkpt lat="46.13098440152952" lon="13.376823438441324"><ele>206.33333333333331</ele><time>2026-04-18T10:45:28Z</time></trkpt><trkpt lat="46.13104925126375" lon="13.376728221636014"><ele>205.0</ele><time>2026-04-18T10:45:29Z</time></trkpt><trkpt lat="46.13112115444335" lon="13.37664265739416"><ele>205.0</ele><time>2026-04-18T10:45:30Z</time></trkpt><trkpt lat="46.13117837236075" lon="13.376569667458122"><ele>205.0</ele><time>2026-04-18T10:45:31Z</time></trkpt><trkpt lat="46.131222728171906" lon="13.376500157801562"><ele>205.0</ele><time>2026-04-18T10:45:32Z</time></trkpt><trkpt lat="46.131232330502854" lon="13.37633105685403"><ele>205.0</ele><time>2026-04-18T10:45:34Z</time></trkpt><trkpt lat="46.131136745551466" lon="13.376237819073314"><ele>205.0</ele><time>2026-04-18T10:45:36Z</time></trkpt><trkpt lat="46.13103121819787" lon="13.376296083837932"><ele>204.99999999999997</ele><time>2026-04-18T10:45:38Z</time></trkpt><trkpt lat="46.13098552299035" lon="13.37638949497691"><ele>205.0</ele><time>2026-04-18T10:45:39Z</time></trkpt><trkpt lat="46.130947391302826" lon="13.376490964149555"><ele>205.0</ele><time>2026-04-18T10:45:40Z</time></trkpt><trkpt lat="46.130904239813205" lon="13.376596725351009"><ele>205.0</ele><time>2026-04-18T10:45:41Z</time></trkpt><trkpt lat="46.13085836118985" lon="13.376698304187238"><ele>204.99999999999997</ele><time>2026-04-18T10:45:42Z</time></trkpt><trkpt lat="46.13081198893973" lon="13.3767979699584"><ele>205.0</ele><time>2026-04-18T10:45:43Z</time></trkpt><trkpt lat="46.130747903624716" lon="13.376875361229692"><ele>200.66666666666666</ele><time>2026-04-18T10:45:44Z</time></trkpt><trkpt lat="46.130683964491816" lon="13.376944014738452"><ele>196.33333333333331</ele><time>2026-04-18T10:45:45Z</time></trkpt><trkpt lat="46.130631549642416" lon="13.377021568820973"><ele>192.0</ele><time>2026-04-18T10:45:46Z</time></trkpt><trkpt lat="46.13059344620514" lon="13.37710791118183"><ele>187.66666666666666</ele><time>2026-04-18T10:45:47Z</time></trkpt><trkpt lat="46.13059345147821" lon="13.377228237711536"><ele>183.33333333333331</ele><time>2026-04-18T10:45:48Z</time></trkpt><trkpt lat="46.13062451466948" lon="13.377318673953633"><ele>179.0</ele><time>2026-04-18T10:45:49Z</time></trkpt><trkpt lat="46.13065387709736" lon="13.377442522188705"><ele>179.0</ele><time>2026-04-18T10:45:51Z</time></trkpt><trkpt lat="46.13055982951665" lon="13.377423812661302"><ele>179.0</ele><time>2026-04-18T10:45:54Z</time></trkpt><trkpt lat="46.13053801648331" lon="13.377331161969899"><ele>179.0</ele><time>2026-04-18T10:45:55Z</time></trkpt><trkpt lat="46.130509181652556" lon="13.377223012586128"><ele>179.0</ele><time>2026-04-18T10:45:56Z</time></trkpt><trkpt lat="46.13047175314468" lon="13.37710125012993"><ele>179.0</ele><time>2026-04-18T10:45:57Z</time></trkpt><trkpt lat="46.13045054509531" lon="13.37697355818395"><ele>179.0</ele><time>2026-04-18T10:45:58Z</time></trkpt><trkpt lat="46.13044221442074" lon="13.376861191687945"><ele>178.71428571428572</ele><time>2026-04-18T10:45:59Z</time></trkpt><trkpt lat="46.130460172927904" lon="13.376766484727376"><ele>178.42857142857144</ele><time>2026-04-18T10:46:00Z</time></trkpt><trkpt lat="46.13050829850969" lon="13.376683912369087"><ele>178.14285714285717</ele><time>2026-04-18T10:46:01Z</time></trkpt><trkpt lat="46.13056401398437" lon="13.376615517855074"><ele>177.85714285714286</ele><time>2026-04-18T10:46:02Z</time></trkpt><trkpt lat="46.130603677882235" lon="13.376535211014733"><ele>177.57142857142856</ele><time>2026-04-18T10:46:03Z</time></trkpt><trkpt lat="46.130627864951144" lon="13.376430668099006"><ele>177.2857142857143</ele><time>2026-04-18T10:46:04Z</time></trkpt><trkpt lat="46.13063200375628" lon="13.376303144737339"><ele>177.0</ele><time>2026-04-18T10:46:05Z</time></trkpt><trkpt lat="46.130624851969834" lon="13.376180040849976"><ele>176.0</ele><time>2026-04-18T10:46:06Z</time></trkpt><trkpt lat="46.13060727104816" lon="13.376045981387637"><ele>175.0</ele><time>2026-04-18T10:46:07Z</time></trkpt><trkpt lat="46.130576489792915" lon="13.375915867193726"><ele>174.0</ele><time>2026-04-18T10:46:08Z</time></trkpt><trkpt lat="46.130536778003886" lon="13.375778119678879"><ele>173.0</ele><time>2026-04-18T10:46:09Z</time></trkpt><trkpt lat="46.130485645966196" lon="13.375632400993265"><ele>172.0</ele><time>2026-04-18T10:46:10Z</time></trkpt><trkpt lat="46.130420851875115" lon="13.375502150343657"><ele>170.8</ele><time>2026-04-18T10:46:11Z</time></trkpt><trkpt lat="46.13035232683654" lon="13.375387631384514"><ele>169.6</ele><time>2026-04-18T10:46:12Z</time></trkpt><trkpt lat="46.13029199654936" lon="13.375276402939198"><ele>168.4</ele><time>2026-04-18T10:46:13Z</time></trkpt><trkpt lat="46.130234007666786" lon="13.375175409716944"><ele>167.20000000000002</ele><time>2026-04-18T10:46:14Z</time></trkpt><trkpt lat="46.13018215061985" lon="13.375084864420726"><ele>166.0</ele><time>2026-04-18T10:46:15Z</time></trkpt><trkpt lat="46.13014956194317" lon="13.374981190433775"><ele>166.0</ele><time>2026-04-18T10:46:16Z</time></trkpt><trkpt lat="46.13014960886279" lon="13.374840197929725"><ele>166.0</ele><time>2026-04-18T10:46:17Z</time></trkpt><trkpt lat="46.13017429265233" lon="13.374669340961818"><ele>166.0</ele><time>2026-04-18T10:46:18Z</time></trkpt><trkpt lat="46.13016748391577" lon="13.374523365808491"><ele>166.0</ele><time>2026-04-18T10:46:19Z</time></trkpt><trkpt lat="46.130130913499386" lon="13.374397345114632"><ele>166.0</ele><time>2026-04-18T10:46:20Z</time></trkpt><trkpt lat="46.13007925451965" lon="13.374257964635047"><ele>165.60000000000002</ele><time>2026-04-18T10:46:21Z</time></trkpt><trkpt lat="46.13003666891466" lon="13.374137250510955"><ele>165.2</ele><time>2026-04-18T10:46:22Z</time></trkpt><trkpt lat="46.13001591509305" lon="13.374014353412488"><ele>164.8</ele><time>2026-04-18T10:46:23Z</time></trkpt><trkpt lat="46.13003056251796" lon="13.373881052880101"><ele>164.39999999999998</ele><time>2026-04-18T10:46:24Z</time></trkpt><trkpt lat="46.13008869648272" lon="13.373744714766918"><ele>164.0</ele><time>2026-04-18T10:46:25Z</time></trkpt><trkpt lat="46.13013814949022" lon="13.373599470488745"><ele>162.0</ele><time>2026-04-18T10:46:26Z</time></trkpt><trkpt lat="46.13016503335544" lon="13.373444829218696"><ele>160.0</ele><time>2026-04-18T10:46:27Z</time></trkpt><trkpt lat="46.130180081669366" lon="13.373275497836802"><ele>158.0</ele><time>2026-04-18T10:46:28Z</time></trkpt><trkpt lat="46.13019189342122" lon="13.373103855799233"><ele>156.0</ele><time>2026-04-18T10:46:29Z</time></trkpt><trkpt lat="46.13021001978319" lon="13.372953625945401"><ele>155.8</ele><time>2026-04-18T10:46:30Z</time></trkpt><trkpt lat="46.13023615179767" lon="13.372817723035315"><ele>155.6</ele><time>2026-04-18T10:46:31Z</time></trkpt><trkpt lat="46.130269697256324" lon="13.372689334898125"><ele>155.4</ele><time>2026-04-18T10:46:32Z</time></trkpt><trkpt lat="46.1303112934077" lon="13.372562318736557"><ele>155.2</ele><time>2026-04-18T10:46:33Z</time></trkpt><trkpt lat="46.13036102021935" lon="13.372426522608144"><ele>155.0</ele><time>2026-04-18T10:46:34Z</time></trkpt><trkpt lat="46.13042018197694" lon="13.372302422144893"><ele>155.0</ele><time>2026-04-18T10:46:34.999Z</time></trkpt><trkpt lat="46.13048863614554" lon="13.372191023533615"><ele>155.0</ele><time>2026-04-18T10:46:35.999Z</time></trkpt><trkpt lat="46.13055160093453" lon="13.37208235628218"><ele>155.0</ele><time>2026-04-18T10:46:36.999Z</time></trkpt><trkpt lat="46.13061042129707" lon="13.371977065847773"><ele>155.0</ele><time>2026-04-18T10:46:37.999Z</time></trkpt><trkpt lat="46.13065948474529" lon="13.371876265143392"><ele>155.0</ele><time>2026-04-18T10:46:38.999Z</time></trkpt><trkpt lat="46.13068849166608" lon="13.371772377321983"><ele>154.16666666666666</ele><time>2026-04-18T10:46:39.999Z</time></trkpt><trkpt lat="46.130690176004386" lon="13.371667237278201"><ele>153.33333333333331</ele><time>2026-04-18T10:46:40.999Z</time></trkpt><trkpt lat="46.13066600736473" lon="13.371573359657239"><ele>152.5</ele><time>2026-04-18T10:46:41.999Z</time></trkpt><trkpt lat="46.13061224210291" lon="13.371505904394455"><ele>151.66666666666666</ele><time>2026-04-18T10:46:42.999Z</time></trkpt><trkpt lat="46.1305450426814" lon="13.371467981933511"><ele>150.83333333333334</ele><time>2026-04-18T10:46:43.999Z</time></trkpt><trkpt lat="46.13046491168825" lon="13.371443851806552"><ele>150.0</ele><time>2026-04-18T10:46:44.999Z</time></trkpt><trkpt lat="46.13037635216214" lon="13.371418554790866"><ele>150.0</ele><time>2026-04-18T10:46:45.999Z</time></trkpt><trkpt lat="46.130279520036595" lon="13.37139474998445"><ele>150.0</ele><time>2026-04-18T10:46:46.999Z</time></trkpt><trkpt lat="46.13016236523536" lon="13.371371581828082"><ele>150.0</ele><time>2026-04-18T10:46:47.999Z</time></trkpt><trkpt lat="46.13003755096892" lon="13.37135009101723"><ele>150.0</ele><time>2026-04-18T10:46:48.999Z</time></trkpt><trkpt lat="46.12992947201769" lon="13.37131375766698"><ele>146.8</ele><time>2026-04-18T10:46:49.999Z</time></trkpt><trkpt lat="46.129828314016365" lon="13.371255149104966"><ele>143.6</ele><time>2026-04-18T10:46:50.999Z</time></trkpt><trkpt lat="46.129729385764065" lon="13.371188496931957"><ele>140.4</ele><time>2026-04-18T10:46:51.999Z</time></trkpt><trkpt lat="46.12963935262409" lon="13.371130146300974"><ele>137.2</ele><time>2026-04-18T10:46:52.999Z</time></trkpt><trkpt lat="46.129550050166664" lon="13.371071595314875"><ele>134.0</ele><time>2026-04-18T10:46:53.999Z</time></trkpt><trkpt lat="46.12946816889622" lon="13.371007698642293"><ele>134.0</ele><time>2026-04-18T10:46:54.999Z</time></trkpt><trkpt lat="46.129399442177515" lon="13.370926565223618"><ele>134.0</ele><time>2026-04-18T10:46:55.999Z</time></trkpt><trkpt lat="46.12934804835368" lon="13.370814843765707"><ele>134.0</ele><time>2026-04-18T10:46:56.999Z</time></trkpt><trkpt lat="46.129315769206265" lon="13.370678982265682"><ele>134.0</ele><time>2026-04-18T10:46:57.999Z</time></trkpt><trkpt lat="46.12929927337336" lon="13.370528307505932"><ele>134.0</ele><time>2026-04-18T10:46:58.999Z</time></trkpt><trkpt lat="46.12927894892943" lon="13.370386005223077"><ele>133.6</ele><time>2026-04-18T10:46:59.999Z</time></trkpt><trkpt lat="46.12925045274101" lon="13.370253963406295"><ele>133.2</ele><time>2026-04-18T10:47:00.999Z</time></trkpt><trkpt lat="46.129202231614784" lon="13.37013677199422"><ele>132.79999999999998</ele><time>2026-04-18T10:47:01.999Z</time></trkpt><trkpt lat="46.1291353043618" lon="13.370037542448921"><ele>132.4</ele><time>2026-04-18T10:47:02.999Z</time></trkpt><trkpt lat="46.12906468939846" lon="13.369950037744452"><ele>132.0</ele><time>2026-04-18T10:47:03.999Z</time></trkpt><trkpt lat="46.128984937318535" lon="13.369882201706467"><ele>132.0</ele><time>2026-04-18T10:47:04.999Z</time></trkpt><trkpt lat="46.12890392376872" lon="13.369801450598754"><ele>132.0</ele><time>2026-04-18T10:47:05.999Z</time></trkpt><trkpt lat="46.128819225637955" lon="13.369713478046863"><ele>132.0</ele><time>2026-04-18T10:47:06.999Z</time></trkpt><trkpt lat="46.12873287364936" lon="13.369607213014525"><ele>132.0</ele><time>2026-04-18T10:47:07.999Z</time></trkpt><trkpt lat="46.12863630375432" lon="13.369498293206977"><ele>132.0</ele><time>2026-04-18T10:47:08.999Z</time></trkpt><trkpt lat="46.128532621034616" lon="13.369370850016411"><ele>132.25</ele><time>2026-04-18T10:47:09.999Z</time></trkpt><trkpt lat="46.12843410091033" lon="13.369246068469693"><ele>132.5</ele><time>2026-04-18T10:47:10.999Z</time></trkpt><trkpt lat="46.12833654066432" lon="13.369131227654405"><ele>132.75</ele><time>2026-04-18T10:47:11.999Z</time></trkpt><trkpt lat="46.12824731878551" lon="13.369006047436018"><ele>133.0</ele><time>2026-04-18T10:47:12.999Z</time></trkpt><trkpt lat="46.12817891647584" lon="13.368875607917452"><ele>132.0</ele><time>2026-04-18T10:47:13.999Z</time></trkpt><trkpt lat="46.12813095603853" lon="13.368728557687731"><ele>131.0</ele><time>2026-04-18T10:47:14.999Z</time></trkpt><trkpt lat="46.12809027873943" lon="13.36856916126209"><ele>130.0</ele><time>2026-04-18T10:47:15.999Z</time></trkpt><trkpt lat="46.12803342252177" lon="13.368427343640953"><ele>129.0</ele><time>2026-04-18T10:47:16.999Z</time></trkpt><trkpt lat="46.12796260130311" lon="13.36828084727326"><ele>129.0</ele><time>2026-04-18T10:47:17.999Z</time></trkpt><trkpt lat="46.127885633623876" lon="13.368124363285588"><ele>129.0</ele><time>2026-04-18T10:47:19Z</time></trkpt><trkpt lat="46.127803255643045" lon="13.367979128644196"><ele>129.0</ele><time>2026-04-18T10:47:20Z</time></trkpt><trkpt lat="46.12770819820536" lon="13.36783562114053"><ele>129.0</ele><time>2026-04-18T10:47:21Z</time></trkpt><trkpt lat="46.127612034891435" lon="13.367686311354728"><ele>129.0</ele><time>2026-04-18T10:47:22Z</time></trkpt><trkpt lat="46.127527264884016" lon="13.36754712087221"><ele>129.0</ele><time>2026-04-18T10:47:23Z</time></trkpt><trkpt lat="46.127452086404936" lon="13.36742688407762"><ele>129.0</ele><time>2026-04-18T10:47:24Z</time></trkpt><trkpt lat="46.12738482244873" lon="13.367320863306738"><ele>129.0</ele><time>2026-04-18T10:47:25Z</time></trkpt><trkpt lat="46.12732275063672" lon="13.367227563617448"><ele>129.0</ele><time>2026-04-18T10:47:26Z</time></trkpt><trkpt lat="46.12727242706188" lon="13.367141290723705"><ele>129.4</ele><time>2026-04-18T10:47:27Z</time></trkpt><trkpt lat="46.12722835567988" lon="13.367061725464987"><ele>129.8</ele><time>2026-04-18T10:47:28Z</time></trkpt><trkpt lat="46.12716608283425" lon="13.366970672539537"><ele>130.2</ele><time>2026-04-18T10:47:30Z</time></trkpt><trkpt lat="46.127108394284775" lon="13.3668976341401"><ele>130.6</ele><time>2026-04-18T10:47:42Z</time></trkpt><trkpt lat="46.12698653767518" lon="13.367030247320946"><ele>131.0</ele><time>2026-04-18T10:47:45Z</time></trkpt><trkpt lat="46.126955019612176" lon="13.367144634754968"><ele>130.6</ele><time>2026-04-18T10:47:46Z</time></trkpt><trkpt lat="46.126895519075106" lon="13.367270504492906"><ele>130.2</ele><time>2026-04-18T10:47:47Z</time></trkpt><trkpt lat="46.126847929836956" lon="13.367393833995711"><ele>129.8</ele><time>2026-04-18T10:47:48Z</time></trkpt><trkpt lat="46.12679971707402" lon="13.367522643852386"><ele>129.4</ele><time>2026-04-18T10:47:49Z</time></trkpt><trkpt lat="46.126745776183306" lon="13.367656289964632"><ele>129.0</ele><time>2026-04-18T10:47:50Z</time></trkpt><trkpt lat="46.12669585494283" lon="13.367789900915232"><ele>129.0</ele><time>2026-04-18T10:47:51Z</time></trkpt><trkpt lat="46.1266457741365" lon="13.367926111129703"><ele>129.0</ele><time>2026-04-18T10:47:52Z</time></trkpt><trkpt lat="46.126589937016625" lon="13.368062770332148"><ele>129.0</ele><time>2026-04-18T10:47:53Z</time></trkpt><trkpt lat="46.12653003134617" lon="13.368207066154326"><ele>129.0</ele><time>2026-04-18T10:47:54Z</time></trkpt><trkpt lat="46.12647114714718" lon="13.368363561526545"><ele>128.25</ele><time>2026-04-18T10:47:55Z</time></trkpt><trkpt lat="46.126405593236825" lon="13.36852859442139"><ele>127.5</ele><time>2026-04-18T10:47:56Z</time></trkpt><trkpt lat="46.12633513967752" lon="13.368698645021963"><ele>126.75</ele><time>2026-04-18T10:47:57Z</time></trkpt><trkpt lat="46.126261062349954" lon="13.368884275577908"><ele>126.0</ele><time>2026-04-18T10:47:58Z</time></trkpt><trkpt lat="46.12619072056192" lon="13.369060536189584"><ele>125.75</ele><time>2026-04-18T10:47:59Z</time></trkpt><trkpt lat="46.126127304724335" lon="13.369231572246461"><ele>125.5</ele><time>2026-04-18T10:48:00Z</time></trkpt><trkpt lat="46.126063376537296" lon="13.369402354122776"><ele>125.25</ele><time>2026-04-18T10:48:01Z</time></trkpt><trkpt lat="46.12605592408278" lon="13.369603187475223"><ele>125.0</ele><time>2026-04-18T10:48:02Z</time></trkpt><trkpt lat="46.12604551070501" lon="13.369811027819814"><ele>125.0</ele><time>2026-04-18T10:48:03Z</time></trkpt><trkpt lat="46.12603801345797" lon="13.370034752281438"><ele>125.0</ele><time>2026-04-18T10:48:04Z</time></trkpt><trkpt lat="46.12602668405891" lon="13.370265055329524"><ele>125.0</ele><time>2026-04-18T10:48:05Z</time></trkpt><trkpt lat="46.12601869095096" lon="13.370506024408915"><ele>125.0</ele><time>2026-04-18T10:48:06Z</time></trkpt><trkpt lat="46.12601055179987" lon="13.370762349206887"><ele>125.0</ele><time>2026-04-18T10:48:07Z</time></trkpt><trkpt lat="46.12600005626585" lon="13.37102770974576"><ele>125.0</ele><time>2026-04-18T10:48:08Z</time></trkpt><trkpt lat="46.12599416672432" lon="13.371296939259262"><ele>125.33333333333333</ele><time>2026-04-18T10:48:09Z</time></trkpt><trkpt lat="46.12598894476511" lon="13.371578759916702"><ele>125.66666666666666</ele><time>2026-04-18T10:48:10Z</time></trkpt><trkpt lat="46.125979225873394" lon="13.371855503019152"><ele>126.0</ele><time>2026-04-18T10:48:11Z</time></trkpt><trkpt lat="46.12597014088605" lon="13.372129200104164"><ele>125.33333333333334</ele><time>2026-04-18T10:48:12Z</time></trkpt><trkpt lat="46.125961655517735" lon="13.372395048469176"><ele>124.66666666666667</ele><time>2026-04-18T10:48:13Z</time></trkpt><trkpt lat="46.12595208008379" lon="13.372654625238672"><ele>124.0</ele><time>2026-04-18T10:48:14Z</time></trkpt><trkpt lat="46.12594347581834" lon="13.372911317450017"><ele>123.33333333333334</ele><time>2026-04-18T10:48:15Z</time></trkpt><trkpt lat="46.125935931446" lon="13.37316452265184"><ele>122.66666666666666</ele><time>2026-04-18T10:48:16Z</time></trkpt><trkpt lat="46.125931381779594" lon="13.373420916085246"><ele>122.0</ele><time>2026-04-18T10:48:17Z</time></trkpt><trkpt lat="46.12592517787945" lon="13.373683308571426"><ele>123.66666666666666</ele><time>2026-04-18T10:48:18Z</time></trkpt><trkpt lat="46.1259094068712" lon="13.37394542735918"><ele>125.33333333333334</ele><time>2026-04-18T10:48:19Z</time></trkpt><trkpt lat="46.12588084067268" lon="13.374202803520841"><ele>127.0</ele><time>2026-04-18T10:48:20Z</time></trkpt><trkpt lat="46.12581906374156" lon="13.374448956055549"><ele>127.0</ele><time>2026-04-18T10:48:21Z</time></trkpt><trkpt lat="46.12573109385267" lon="13.374696470202847"><ele>127.0</ele><time>2026-04-18T10:48:22Z</time></trkpt><trkpt lat="46.12563045337864" lon="13.374935739564538"><ele>127.0</ele><time>2026-04-18T10:48:23Z</time></trkpt><trkpt lat="46.1255340174235" lon="13.375159951494947"><ele>126.33333333333334</ele><time>2026-04-18T10:48:24Z</time></trkpt><trkpt lat="46.12543863058718" lon="13.375389477938404"><ele>125.66666666666666</ele><time>2026-04-18T10:48:25Z</time></trkpt><trkpt lat="46.125337918791466" lon="13.375620606038284"><ele>125.0</ele><time>2026-04-18T10:48:26Z</time></trkpt><trkpt lat="46.12523506652371" lon="13.375856544215338"><ele>124.33333333333333</ele><time>2026-04-18T10:48:27Z</time></trkpt><trkpt lat="46.125130873037406" lon="13.376101786274443"><ele>123.66666666666666</ele><time>2026-04-18T10:48:28Z</time></trkpt><trkpt lat="46.12501940662587" lon="13.376357027540628"><ele>123.0</ele><time>2026-04-18T10:48:29Z</time></trkpt><trkpt lat="46.124901230454824" lon="13.376625957108304"><ele>123.0</ele><time>2026-04-18T10:48:30Z</time></trkpt><trkpt lat="46.124781915150066" lon="13.376900620670249"><ele>123.0</ele><time>2026-04-18T10:48:31Z</time></trkpt><trkpt lat="46.12466563165026" lon="13.3771676302694"><ele>123.0</ele><time>2026-04-18T10:48:32Z</time></trkpt><trkpt lat="46.12454976415439" lon="13.37742730755908"><ele>123.0</ele><time>2026-04-18T10:48:33Z</time></trkpt><trkpt lat="46.12443506018451" lon="13.37768511811593"><ele>123.0</ele><time>2026-04-18T10:48:34Z</time></trkpt><trkpt lat="46.124323267316285" lon="13.377943115571142"><ele>123.0</ele><time>2026-04-18T10:48:35Z</time></trkpt><trkpt lat="46.12421266355246" lon="13.378200999629486"><ele>123.0</ele><time>2026-04-18T10:48:36Z</time></trkpt><trkpt lat="46.124100306999956" lon="13.378458280409026"><ele>123.0</ele><time>2026-04-18T10:48:37Z</time></trkpt><trkpt lat="46.123985515946934" lon="13.378720791510503"><ele>123.0</ele><time>2026-04-18T10:48:38Z</time></trkpt><trkpt lat="46.123869528077776" lon="13.378987122093987"><ele>123.66666666666666</ele><time>2026-04-18T10:48:39Z</time></trkpt><trkpt lat="46.1237525462584" lon="13.379256650025825"><ele>124.33333333333333</ele><time>2026-04-18T10:48:40Z</time></trkpt><trkpt lat="46.123631107428935" lon="13.379531141659436"><ele>125.0</ele><time>2026-04-18T10:48:41Z</time></trkpt><trkpt lat="46.12350527003072" lon="13.37981414165937"><ele>125.0</ele><time>2026-04-18T10:48:42Z</time></trkpt><trkpt lat="46.12338191042491" lon="13.380096931050524"><ele>125.0</ele><time>2026-04-18T10:48:43Z</time></trkpt><trkpt lat="46.12326144586429" lon="13.38036782954163"><ele>124.0</ele><time>2026-04-18T10:48:44Z</time></trkpt><trkpt lat="46.12314888325085" lon="13.380627538941784"><ele>123.0</ele><time>2026-04-18T10:48:45Z</time></trkpt><trkpt lat="46.123044389115705" lon="13.380863674101164"><ele>122.0</ele><time>2026-04-18T10:48:46Z</time></trkpt><trkpt lat="46.122941547708024" lon="13.381098943416642"><ele>122.0</ele><time>2026-04-18T10:48:47Z</time></trkpt><trkpt lat="46.12283690952981" lon="13.381330131717238"><ele>122.0</ele><time>2026-04-18T10:48:48Z</time></trkpt><trkpt lat="46.12273188840004" lon="13.381560645223214"><ele>122.0</ele><time>2026-04-18T10:48:49Z</time></trkpt><trkpt lat="46.12262793708351" lon="13.381794893459828"><ele>122.33333333333333</ele><time>2026-04-18T10:48:49.999Z</time></trkpt><trkpt lat="46.122522361661" lon="13.382036241317685"><ele>122.66666666666666</ele><time>2026-04-18T10:48:50.999Z</time></trkpt><trkpt lat="46.12241789289031" lon="13.382275409799592"><ele>123.0</ele><time>2026-04-18T10:48:51.999Z</time></trkpt><trkpt lat="46.12231570960319" lon="13.38251038816721"><ele>123.0</ele><time>2026-04-18T10:48:52.999Z</time></trkpt><trkpt lat="46.12221634518443" lon="13.382739445022633"><ele>123.0</ele><time>2026-04-18T10:48:53.999Z</time></trkpt><trkpt lat="46.12211868513553" lon="13.38296116449447"><ele>123.0</ele><time>2026-04-18T10:48:54.999Z</time></trkpt><trkpt lat="46.12202083018644" lon="13.383184744387282"><ele>123.0</ele><time>2026-04-18T10:48:55.999Z</time></trkpt><trkpt lat="46.12192363727465" lon="13.383420797637243"><ele>123.0</ele><time>2026-04-18T10:48:56.999Z</time></trkpt><trkpt lat="46.1218256012837" lon="13.383666897870556"><ele>123.0</ele><time>2026-04-18T10:48:57.999Z</time></trkpt><trkpt lat="46.12174410116023" lon="13.383937145534457"><ele>124.0</ele><time>2026-04-18T10:48:58.999Z</time></trkpt><trkpt lat="46.121680421483234" lon="13.38423929625086"><ele>125.0</ele><time>2026-04-18T10:48:59.999Z</time></trkpt><trkpt lat="46.121630584099826" lon="13.384583298001747"><ele>125.5</ele><time>2026-04-18T10:49:00.999Z</time></trkpt><trkpt lat="46.121578488603475" lon="13.38492969422177"><ele>126.0</ele><time>2026-04-18T10:49:01.999Z</time></trkpt><trkpt lat="46.12152777099683" lon="13.385242311510675"><ele>125.0</ele><time>2026-04-18T10:49:02.999Z</time></trkpt><trkpt lat="46.12147355443237" lon="13.385554723045832"><ele>124.0</ele><time>2026-04-18T10:49:03.999Z</time></trkpt><trkpt lat="46.12142285079878" lon="13.385853745443189"><ele>123.0</ele><time>2026-04-18T10:49:04.999Z</time></trkpt><trkpt lat="46.12136236709756" lon="13.386138830277902"><ele>123.66666666666666</ele><time>2026-04-18T10:49:05.999Z</time></trkpt><trkpt lat="46.121279538372704" lon="13.386403185693853"><ele>124.33333333333333</ele><time>2026-04-18T10:49:06.999Z</time></trkpt><trkpt lat="46.121168552527394" lon="13.386635767639007"><ele>125.0</ele><time>2026-04-18T10:49:07.999Z</time></trkpt><trkpt lat="46.12102179727659" lon="13.386833169125236"><ele>125.0</ele><time>2026-04-18T10:49:08.999Z</time></trkpt><trkpt lat="46.120870418048376" lon="13.38701604103058"><ele>125.0</ele><time>2026-04-18T10:49:09.999Z</time></trkpt><trkpt lat="46.12073203595402" lon="13.387195717625803"><ele>125.0</ele><time>2026-04-18T10:49:10.999Z</time></trkpt><trkpt lat="46.1205956100755" lon="13.387381218512974"><ele>124.66666666666666</ele><time>2026-04-18T10:49:11.999Z</time></trkpt><trkpt lat="46.120455529357564" lon="13.387566866528982"><ele>124.33333333333334</ele><time>2026-04-18T10:49:12.999Z</time></trkpt><trkpt lat="46.12030925714158" lon="13.387762206986666"><ele>124.0</ele><time>2026-04-18T10:49:13.999Z</time></trkpt><trkpt lat="46.120157859890085" lon="13.387966158043094"><ele>124.33333333333334</ele><time>2026-04-18T10:49:14.999Z</time></trkpt><trkpt lat="46.11999649136912" lon="13.38817865148375"><ele>124.66666666666666</ele><time>2026-04-18T10:49:15.999Z</time></trkpt><trkpt lat="46.11982549788582" lon="13.388398998570228"><ele>125.0</ele><time>2026-04-18T10:49:16.999Z</time></trkpt><trkpt lat="46.119650494174074" lon="13.388630417918101"><ele>125.33333333333333</ele><time>2026-04-18T10:49:17.999Z</time></trkpt><trkpt lat="46.11949030400712" lon="13.3888498564102"><ele>125.66666666666666</ele><time>2026-04-18T10:49:18.999Z</time></trkpt><trkpt lat="46.119337748748805" lon="13.389067288398136"><ele>126.0</ele><time>2026-04-18T10:49:19.999Z</time></trkpt><trkpt lat="46.1191961782942" lon="13.389293873633573"><ele>126.33333333333334</ele><time>2026-04-18T10:49:20.999Z</time></trkpt><trkpt lat="46.11906598982901" lon="13.389529655407689"><ele>126.66666666666667</ele><time>2026-04-18T10:49:21.999Z</time></trkpt><trkpt lat="46.1189397925963" lon="13.389767350456303"><ele>127.0</ele><time>2026-04-18T10:49:22.999Z</time></trkpt><trkpt lat="46.118811379506624" lon="13.390000199913771"><ele>126.66666666666667</ele><time>2026-04-18T10:49:23.999Z</time></trkpt><trkpt lat="46.11868410117801" lon="13.39022898656114"><ele>126.33333333333334</ele><time>2026-04-18T10:49:25Z</time></trkpt><trkpt lat="46.118561694651" lon="13.390457548441159"><ele>126.0</ele><time>2026-04-18T10:49:26Z</time></trkpt><trkpt lat="46.11844167314271" lon="13.390685215833726"><ele>126.0</ele><time>2026-04-18T10:49:27Z</time></trkpt><trkpt lat="46.11831859210859" lon="13.390913761516515"><ele>126.0</ele><time>2026-04-18T10:49:28Z</time></trkpt><trkpt lat="46.11819391807401" lon="13.391142696404035"><ele>126.0</ele><time>2026-04-18T10:49:29Z</time></trkpt><trkpt lat="46.118072338733946" lon="13.391367222418038"><ele>126.66666666666666</ele><time>2026-04-18T10:49:30Z</time></trkpt><trkpt lat="46.117959309541014" lon="13.391583904488627"><ele>127.33333333333333</ele><time>2026-04-18T10:49:31Z</time></trkpt><trkpt lat="46.117850602774254" lon="13.391791825342825"><ele>128.0</ele><time>2026-04-18T10:49:32Z</time></trkpt><trkpt lat="46.11774136442281" lon="13.391995373316686"><ele>128.66666666666666</ele><time>2026-04-18T10:49:33Z</time></trkpt><trkpt lat="46.1176314121249" lon="13.392196862182143"><ele>129.33333333333334</ele><time>2026-04-18T10:49:34Z</time></trkpt><trkpt lat="46.11752150877128" lon="13.392397728188616"><ele>130.0</ele><time>2026-04-18T10:49:35Z</time></trkpt><trkpt lat="46.1174205887609" lon="13.392608635719872"><ele>129.66666666666669</ele><time>2026-04-18T10:49:36Z</time></trkpt><trkpt lat="46.117332110132715" lon="13.392836392603193"><ele>129.33333333333334</ele><time>2026-04-18T10:49:37Z</time></trkpt><trkpt lat="46.11725901995284" lon="13.393083616645546"><ele>129.0</ele><time>2026-04-18T10:49:38Z</time></trkpt><trkpt lat="46.117204683474625" lon="13.393357029202065"><ele>129.66666666666666</ele><time>2026-04-18T10:49:39Z</time></trkpt><trkpt lat="46.11714285440024" lon="13.393622083592707"><ele>130.33333333333331</ele><time>2026-04-18T10:49:40Z</time></trkpt><trkpt lat="46.11704656821796" lon="13.393873509175194"><ele>131.0</ele><time>2026-04-18T10:49:41Z</time></trkpt><trkpt lat="46.11692521112243" lon="13.39409139608811"><ele>131.33333333333331</ele><time>2026-04-18T10:49:42Z</time></trkpt><trkpt lat="46.11679505232107" lon="13.394271010666603"><ele>131.66666666666666</ele><time>2026-04-18T10:49:43Z</time></trkpt><trkpt lat="46.11667420119018" lon="13.394445628226967"><ele>132.0</ele><time>2026-04-18T10:49:44Z</time></trkpt><trkpt lat="46.11655629917937" lon="13.394622905573497"><ele>132.33333333333334</ele><time>2026-04-18T10:49:45Z</time></trkpt><trkpt lat="46.116433061447914" lon="13.394799517279514"><ele>132.66666666666669</ele><time>2026-04-18T10:49:46Z</time></trkpt><trkpt lat="46.11630560234506" lon="13.394967182448637"><ele>133.0</ele><time>2026-04-18T10:49:47Z</time></trkpt><trkpt lat="46.11617807066601" lon="13.395115047923024"><ele>133.0</ele><time>2026-04-18T10:49:48Z</time></trkpt><trkpt lat="46.116048380160855" lon="13.395220420994487"><ele>133.0</ele><time>2026-04-18T10:49:49Z</time></trkpt><trkpt lat="46.11590759456274" lon="13.39530025394416"><ele>133.0</ele><time>2026-04-18T10:49:50Z</time></trkpt><trkpt lat="46.11576122631249" lon="13.39535501881522"><ele>132.5</ele><time>2026-04-18T10:49:51Z</time></trkpt><trkpt lat="46.11562225385672" lon="13.39537199220027"><ele>132.0</ele><time>2026-04-18T10:49:52Z</time></trkpt><trkpt lat="46.11549587679116" lon="13.395372809021206"><ele>131.5</ele><time>2026-04-18T10:49:53Z</time></trkpt><trkpt lat="46.1153809873453" lon="13.395372850306648"><ele>131.0</ele><time>2026-04-18T10:49:54Z</time></trkpt><trkpt lat="46.11527626604048" lon="13.395376612155648"><ele>131.0</ele><time>2026-04-18T10:49:55Z</time></trkpt><trkpt lat="46.11518769641625" lon="13.39538449188569"><ele>131.0</ele><time>2026-04-18T10:49:56Z</time></trkpt><trkpt lat="46.11510798759573" lon="13.395399744554489"><ele>131.0</ele><time>2026-04-18T10:49:57Z</time></trkpt><trkpt lat="46.115036099474736" lon="13.395423062321765"><ele>131.0</ele><time>2026-04-18T10:49:58Z</time></trkpt><trkpt lat="46.11496771509185" lon="13.395454932037433"><ele>131.0</ele><time>2026-04-18T10:49:59Z</time></trkpt><trkpt lat="46.114891096682264" lon="13.395500190035143"><ele>131.0</ele><time>2026-04-18T10:50:00Z</time></trkpt><trkpt lat="46.11480839824699" lon="13.395564407349713"><ele>131.16666666666666</ele><time>2026-04-18T10:50:01Z</time></trkpt><trkpt lat="46.11473484222019" lon="13.395628415099345"><ele>131.33333333333331</ele><time>2026-04-18T10:50:02Z</time></trkpt><trkpt lat="46.11466355115868" lon="13.395707596393907"><ele>131.5</ele><time>2026-04-18T10:50:03Z</time></trkpt><trkpt lat="46.11459138268373" lon="13.395783771766878"><ele>131.66666666666666</ele><time>2026-04-18T10:50:04Z</time></trkpt><trkpt lat="46.11451287896861" lon="13.395853129730787"><ele>131.83333333333334</ele><time>2026-04-18T10:50:05Z</time></trkpt><trkpt lat="46.114438207998724" lon="13.395928237048848"><ele>132.0</ele><time>2026-04-18T10:50:06Z</time></trkpt><trkpt lat="46.11436665190965" lon="13.396013909237794"><ele>132.0</ele><time>2026-04-18T10:50:07Z</time></trkpt><trkpt lat="46.11429247968202" lon="13.396108853046428"><ele>132.0</ele><time>2026-04-18T10:50:08Z</time></trkpt><trkpt lat="46.114221935744794" lon="13.396224530384648"><ele>132.0</ele><time>2026-04-18T10:50:09Z</time></trkpt><trkpt lat="46.114154680457624" lon="13.39633954525"><ele>132.0</ele><time>2026-04-18T10:50:10Z</time></trkpt><trkpt lat="46.11408993273579" lon="13.39645172812685"><ele>132.0</ele><time>2026-04-18T10:50:11Z</time></trkpt><trkpt lat="46.1140271231246" lon="13.3965634123988"><ele>132.33333333333334</ele><time>2026-04-18T10:50:12Z</time></trkpt><trkpt lat="46.11397646792951" lon="13.39667504349022"><ele>132.66666666666666</ele><time>2026-04-18T10:50:13Z</time></trkpt><trkpt lat="46.11392960689165" lon="13.396777189509846"><ele>133.0</ele><time>2026-04-18T10:50:14Z</time></trkpt><trkpt lat="46.113879884914944" lon="13.396877361542883"><ele>133.33333333333331</ele><time>2026-04-18T10:50:15Z</time></trkpt><trkpt lat="46.11384317125002" lon="13.396974507685558"><ele>133.66666666666666</ele><time>2026-04-18T10:50:16Z</time></trkpt><trkpt lat="46.11381426716469" lon="13.397065811278328"><ele>134.0</ele><time>2026-04-18T10:50:17Z</time></trkpt><trkpt lat="46.11379909096165" lon="13.39716137898711"><ele>134.0</ele><time>2026-04-18T10:50:18Z</time></trkpt><trkpt lat="46.113782159934715" lon="13.397252476242615"><ele>134.0</ele><time>2026-04-18T10:50:19Z</time></trkpt><trkpt lat="46.113751283143024" lon="13.397337687239462"><ele>134.0</ele><time>2026-04-18T10:50:20Z</time></trkpt><trkpt lat="46.11370644834083" lon="13.39741411885413"><ele>134.0</ele><time>2026-04-18T10:50:21Z</time></trkpt><trkpt lat="46.11364408399749" lon="13.397470081004046"><ele>134.0</ele><time>2026-04-18T10:50:22Z</time></trkpt><trkpt lat="46.11356852444905" lon="13.397506197072508"><ele>134.0</ele><time>2026-04-18T10:50:23Z</time></trkpt><trkpt lat="46.113496149013756" lon="13.397532571503326"><ele>134.0</ele><time>2026-04-18T10:50:24Z</time></trkpt><trkpt lat="46.11341296094319" lon="13.397553142306347"><ele>134.0</ele><time>2026-04-18T10:50:25Z</time></trkpt><trkpt lat="46.11332373914488" lon="13.397552786987132"><ele>134.0</ele><time>2026-04-18T10:50:26Z</time></trkpt><trkpt lat="46.11322999009324" lon="13.397550469973464"><ele>134.0</ele><time>2026-04-18T10:50:27Z</time></trkpt><trkpt lat="46.113121563294115" lon="13.397547494012441"><ele>134.0</ele><time>2026-04-18T10:50:28Z</time></trkpt><trkpt lat="46.11300741284909" lon="13.397550845992754"><ele>134.0</ele><time>2026-04-18T10:50:29Z</time></trkpt><trkpt lat="46.112890916538746" lon="13.397552694369807"><ele>133.8</ele><time>2026-04-18T10:50:30Z</time></trkpt><trkpt lat="46.11277580783187" lon="13.39755096450651"><ele>133.60000000000002</ele><time>2026-04-18T10:50:31Z</time></trkpt><trkpt lat="46.112663651828186" lon="13.397548499223284"><ele>133.4</ele><time>2026-04-18T10:50:32Z</time></trkpt><trkpt lat="46.112557949259454" lon="13.397550399649603"><ele>133.20000000000002</ele><time>2026-04-18T10:50:33Z</time></trkpt><trkpt lat="46.11245986990935" lon="13.397561243816435"><ele>133.0</ele><time>2026-04-18T10:50:34Z</time></trkpt><trkpt lat="46.11236924845895" lon="13.397583293654236"><ele>133.0</ele><time>2026-04-18T10:50:35Z</time></trkpt><trkpt lat="46.11228594992278" lon="13.397632109137561"><ele>133.0</ele><time>2026-04-18T10:50:36Z</time></trkpt><trkpt lat="46.11220070182935" lon="13.397685275137595"><ele>133.0</ele><time>2026-04-18T10:50:37Z</time></trkpt><trkpt lat="46.11215002024335" lon="13.397808055043422"><ele>133.0</ele><time>2026-04-18T10:50:38Z</time></trkpt><trkpt lat="46.11210428095149" lon="13.397933832468219"><ele>133.0</ele><time>2026-04-18T10:50:39Z</time></trkpt><trkpt lat="46.11205940415396" lon="13.398066749317072"><ele>133.0</ele><time>2026-04-18T10:50:40Z</time></trkpt><trkpt lat="46.11201926180518" lon="13.398204224942223"><ele>133.0</ele><time>2026-04-18T10:50:41Z</time></trkpt><trkpt lat="46.111976256744896" lon="13.398342716869797"><ele>133.0</ele><time>2026-04-18T10:50:42Z</time></trkpt><trkpt lat="46.11193713512087" lon="13.398484009404463"><ele>133.0</ele><time>2026-04-18T10:50:42.999Z</time></trkpt><trkpt lat="46.111898582305486" lon="13.398629814377873"><ele>133.0</ele><time>2026-04-18T10:50:43.999Z</time></trkpt><trkpt lat="46.111854925001936" lon="13.398775342314943"><ele>133.25</ele><time>2026-04-18T10:50:44.999Z</time></trkpt><trkpt lat="46.11181043638459" lon="13.398920120273685"><ele>133.5</ele><time>2026-04-18T10:50:45.999Z</time></trkpt><trkpt lat="46.11175735226063" lon="13.399063845907142"><ele>133.75</ele><time>2026-04-18T10:50:46.999Z</time></trkpt><trkpt lat="46.11168877778987" lon="13.399211473321602"><ele>134.0</ele><time>2026-04-18T10:50:47.999Z</time></trkpt><trkpt lat="46.111613499831414" lon="13.399355709695786"><ele>133.5</ele><time>2026-04-18T10:50:48.999Z</time></trkpt><trkpt lat="46.11151864407729" lon="13.399484582060458"><ele>133.0</ele><time>2026-04-18T10:50:49.999Z</time></trkpt><trkpt lat="46.111420768608454" lon="13.399611349597008"><ele>132.5</ele><time>2026-04-18T10:50:50.999Z</time></trkpt><trkpt lat="46.11132552794657" lon="13.399739748266859"><ele>132.0</ele><time>2026-04-18T10:50:51.999Z</time></trkpt><trkpt lat="46.111222351288774" lon="13.399865006945582"><ele>132.0</ele><time>2026-04-18T10:50:52.999Z</time></trkpt><trkpt lat="46.111115086274786" lon="13.399999583880389"><ele>132.0</ele><time>2026-04-18T10:50:53.999Z</time></trkpt><trkpt lat="46.11100147701287" lon="13.400137914353042"><ele>132.0</ele><time>2026-04-18T10:50:54.999Z</time></trkpt><trkpt lat="46.110888816798195" lon="13.400275977315424"><ele>132.0</ele><time>2026-04-18T10:50:55.999Z</time></trkpt><trkpt lat="46.11077048266605" lon="13.400422833971806"><ele>130.66666666666666</ele><time>2026-04-18T10:50:56.999Z</time></trkpt><trkpt lat="46.11065160018588" lon="13.400572098662558"><ele>129.33333333333331</ele><time>2026-04-18T10:50:57.999Z</time></trkpt><trkpt lat="46.110538603298416" lon="13.4007250589612"><ele>128.0</ele><time>2026-04-18T10:50:58.999Z</time></trkpt><trkpt lat="46.11043505756798" lon="13.400871489906125"><ele>128.0</ele><time>2026-04-18T10:50:59.999Z</time></trkpt><trkpt lat="46.110349492476495" lon="13.401007642077776"><ele>128.0</ele><time>2026-04-18T10:51:00.999Z</time></trkpt><trkpt lat="46.11027932383053" lon="13.401149077958062"><ele>128.0</ele><time>2026-04-18T10:51:01.999Z</time></trkpt><trkpt lat="46.11022242671739" lon="13.401294982751468"><ele>128.0</ele><time>2026-04-18T10:51:02.999Z</time></trkpt><trkpt lat="46.1101898162483" lon="13.40145540204894"><ele>128.75</ele><time>2026-04-18T10:51:03.999Z</time></trkpt><trkpt lat="46.11018788427931" lon="13.401606569966306"><ele>129.5</ele><time>2026-04-18T10:51:04.999Z</time></trkpt><trkpt lat="46.11020244135836" lon="13.401758666014722"><ele>130.25</ele><time>2026-04-18T10:51:05.999Z</time></trkpt><trkpt lat="46.11022548949955" lon="13.401917909986341"><ele>131.0</ele><time>2026-04-18T10:51:06.999Z</time></trkpt><trkpt lat="46.11027910158568" lon="13.40208630790238"><ele>131.5</ele><time>2026-04-18T10:51:07.999Z</time></trkpt><trkpt lat="46.11034350573891" lon="13.40225948265092"><ele>132.0</ele><time>2026-04-18T10:51:08.999Z</time></trkpt><trkpt lat="46.11039858573825" lon="13.402430250586148"><ele>132.5</ele><time>2026-04-18T10:51:09.999Z</time></trkpt><trkpt lat="46.11045712531718" lon="13.402610039767668"><ele>133.0</ele><time>2026-04-18T10:51:10.999Z</time></trkpt><trkpt lat="46.1105074539684" lon="13.402795290080785"><ele>133.0</ele><time>2026-04-18T10:51:11.999Z</time></trkpt><trkpt lat="46.11057309717551" lon="13.402937788689814"><ele>133.0</ele><time>2026-04-18T10:51:12.999Z</time></trkpt><trkpt lat="46.110619512964114" lon="13.40308228604824"><ele>133.0</ele><time>2026-04-18T10:51:13.999Z</time></trkpt><trkpt lat="46.11066730435389" lon="13.403218918777549"><ele>133.0</ele><time>2026-04-18T10:51:14.999Z</time></trkpt><trkpt lat="46.110712514695926" lon="13.403354982305856"><ele>133.0</ele><time>2026-04-18T10:51:15.999Z</time></trkpt><trkpt lat="46.11075308948164" lon="13.403475017549376"><ele>133.0</ele><time>2026-04-18T10:51:16.999Z</time></trkpt><trkpt lat="46.11078374852316" lon="13.40356728647896"><ele>133.0</ele><time>2026-04-18T10:51:17.999Z</time></trkpt><trkpt lat="46.11080753064607" lon="13.403696678945721"><ele>133.0</ele><time>2026-04-18T10:51:19.999Z</time></trkpt><trkpt lat="46.11100421927712" lon="13.40365197410935"><ele>133.0</ele><time>2026-04-18T10:51:26.999Z</time></trkpt><trkpt lat="46.11106435756212" lon="13.40355475913615"><ele>133.0</ele><time>2026-04-18T10:51:29.999Z</time></trkpt><trkpt lat="46.11108390625886" lon="13.403465111059655"><ele>133.0</ele><time>2026-04-18T10:51:33Z</time></trkpt><trkpt lat="46.111102347737045" lon="13.40337340805294"><ele>133.0</ele><time>2026-04-18T10:53:19Z</time></trkpt><trkpt lat="46.1111606006655" lon="13.403284259097958"><ele>133.0</ele><time>2026-04-18T10:53:43.001Z</time></trkpt><trkpt lat="46.111133042547806" lon="13.403201902619932"><ele>133.0</ele><time>2026-04-18T10:54:45Z</time></trkpt><trkpt lat="46.1111542079104" lon="13.403308071785247"><ele>133.0</ele><time>2026-04-18T12:16:06.999Z</time></trkpt><trkpt lat="46.11121457289395" lon="13.403270487841441"><ele>133.0</ele><time>2026-04-18T12:17:06.999Z</time></trkpt><trkpt lat="46.111130500513546" lon="13.403231481773394"><ele>133.0</ele><time>2026-04-18T12:17:18.999Z</time></trkpt><trkpt lat="46.1110773746496" lon="13.40318223063323"><ele>133.0</ele><time>2026-04-18T12:17:20.999Z</time></trkpt><trkpt lat="46.11111880925678" lon="13.403266033270805"><ele>133.0</ele><time>2026-04-18T12:17:31.999Z</time></trkpt><trkpt lat="46.11107535265775" lon="13.403361150245072"><ele>133.0</ele><time>2026-04-18T12:19:19.999Z</time></trkpt><trkpt lat="46.11105855344704" lon="13.403466148543336"><ele>133.0</ele><time>2026-04-18T12:22:44.999Z</time></trkpt><trkpt lat="46.11103245672951" lon="13.403555410760063"><ele>133.0</ele><time>2026-04-18T12:22:50.999Z</time></trkpt><trkpt lat="46.110976643660344" lon="13.40364739614267"><ele>133.0</ele><time>2026-04-18T12:23:37Z</time></trkpt><trkpt lat="46.11090755705069" lon="13.40371581867222"><ele>133.0</ele><time>2026-04-18T12:23:39Z</time></trkpt><trkpt lat="46.11084678016304" lon="13.403790672267016"><ele>133.0</ele><time>2026-04-18T12:23:42Z</time></trkpt><trkpt lat="46.11084083902967" lon="13.403903720573894"><ele>133.0</ele><time>2026-04-18T12:23:44Z</time></trkpt><trkpt lat="46.11087943330644" lon="13.404076620797225"><ele>133.0</ele><time>2026-04-18T12:23:46Z</time></trkpt><trkpt lat="46.11090011131317" lon="13.404176027890202"><ele>133.0</ele><time>2026-04-18T12:23:47Z</time></trkpt><trkpt lat="46.11092148551054" lon="13.404277377970612"><ele>133.0</ele><time>2026-04-18T12:23:48Z</time></trkpt><trkpt lat="46.110943548753525" lon="13.404380331766289"><ele>133.20000000000002</ele><time>2026-04-18T12:23:49Z</time></trkpt><trkpt lat="46.11096124587356" lon="13.40449062851908"><ele>133.4</ele><time>2026-04-18T12:23:50Z</time></trkpt><trkpt lat="46.11098367655858" lon="13.404609965488545"><ele>133.60000000000002</ele><time>2026-04-18T12:23:51Z</time></trkpt><trkpt lat="46.111014385671396" lon="13.404753804347765"><ele>133.8</ele><time>2026-04-18T12:23:52Z</time></trkpt><trkpt lat="46.111049507108724" lon="13.4049203967675"><ele>134.0</ele><time>2026-04-18T12:23:53Z</time></trkpt><trkpt lat="46.111083538180175" lon="13.405107554630103"><ele>134.0</ele><time>2026-04-18T12:23:54.001Z</time></trkpt><trkpt lat="46.111120600277935" lon="13.405304334033337"><ele>134.0</ele><time>2026-04-18T12:23:55.001Z</time></trkpt><trkpt lat="46.11115976142076" lon="13.405512569361253"><ele>134.0</ele><time>2026-04-18T12:23:56.001Z</time></trkpt><trkpt lat="46.111199132535646" lon="13.405718920893129"><ele>134.0</ele><time>2026-04-18T12:23:57.001Z</time></trkpt><trkpt lat="46.11123469332687" lon="13.405917419354266"><ele>134.0</ele><time>2026-04-18T12:23:58.001Z</time></trkpt><trkpt lat="46.11127355347861" lon="13.406123114497328"><ele>134.0</ele><time>2026-04-18T12:23:59.001Z</time></trkpt><trkpt lat="46.1113147442906" lon="13.406336752216397"><ele>134.0</ele><time>2026-04-18T12:24:00.001Z</time></trkpt><trkpt lat="46.11135444607536" lon="13.406546679618955"><ele>134.0</ele><time>2026-04-18T12:24:01.001Z</time></trkpt><trkpt lat="46.111392007981856" lon="13.406750476888977"><ele>134.0</ele><time>2026-04-18T12:24:02.001Z</time></trkpt><trkpt lat="46.111430800435734" lon="13.406949084945378"><ele>134.0</ele><time>2026-04-18T12:24:03.001Z</time></trkpt><trkpt lat="46.111465988435455" lon="13.407144775066937"><ele>134.0</ele><time>2026-04-18T12:24:04.001Z</time></trkpt><trkpt lat="46.11149591020018" lon="13.407338224981112"><ele>134.0</ele><time>2026-04-18T12:24:05.001Z</time></trkpt><trkpt lat="46.11152472285326" lon="13.407535968117443"><ele>134.0</ele><time>2026-04-18T12:24:06.001Z</time></trkpt><trkpt lat="46.11155214087547" lon="13.407716068500605"><ele>134.0</ele><time>2026-04-18T12:24:07.001Z</time></trkpt><trkpt lat="46.111576565929795" lon="13.407872700963647"><ele>134.0</ele><time>2026-04-18T12:24:08.001Z</time></trkpt><trkpt lat="46.111601386434195" lon="13.40803229988934"><ele>134.75</ele><time>2026-04-18T12:24:09.001Z</time></trkpt><trkpt lat="46.11162056977411" lon="13.408196827403971"><ele>135.5</ele><time>2026-04-18T12:24:10.001Z</time></trkpt><trkpt lat="46.1116271446863" lon="13.408360625645424"><ele>136.25</ele><time>2026-04-18T12:24:11.001Z</time></trkpt><trkpt lat="46.11161382158259" lon="13.408520607803087"><ele>137.0</ele><time>2026-04-18T12:24:12.001Z</time></trkpt><trkpt lat="46.11158489811379" lon="13.408672213083156"><ele>136.75</ele><time>2026-04-18T12:24:13.001Z</time></trkpt><trkpt lat="46.1115355383326" lon="13.408815264217932"><ele>136.5</ele><time>2026-04-18T12:24:14.001Z</time></trkpt><trkpt lat="46.111470722549214" lon="13.408947145008012"><ele>136.25</ele><time>2026-04-18T12:24:15.001Z</time></trkpt><trkpt lat="46.11138990725341" lon="13.409063280469061"><ele>136.0</ele><time>2026-04-18T12:24:16.001Z</time></trkpt><trkpt lat="46.11128529815144" lon="13.409156552250394"><ele>136.0</ele><time>2026-04-18T12:24:17.001Z</time></trkpt><trkpt lat="46.111167608630424" lon="13.409239529625998"><ele>136.0</ele><time>2026-04-18T12:24:18.001Z</time></trkpt><trkpt lat="46.111044155214195" lon="13.40932409540997"><ele>136.0</ele><time>2026-04-18T12:24:19.001Z</time></trkpt><trkpt lat="46.11092472920438" lon="13.409421138222434"><ele>136.0</ele><time>2026-04-18T12:24:20.001Z</time></trkpt><trkpt lat="46.11081184348698" lon="13.4095336848313"><ele>135.5</ele><time>2026-04-18T12:24:21.001Z</time></trkpt><trkpt lat="46.110708092556706" lon="13.409667971301552"><ele>135.0</ele><time>2026-04-18T12:24:22.001Z</time></trkpt><trkpt lat="46.11062295748252" lon="13.409826194062585"><ele>134.5</ele><time>2026-04-18T12:24:23.001Z</time></trkpt><trkpt lat="46.110556213571776" lon="13.410005905971461"><ele>134.0</ele><time>2026-04-18T12:24:24.001Z</time></trkpt><trkpt lat="46.11050561684369" lon="13.410197651834212"><ele>134.0</ele><time>2026-04-18T12:24:25.001Z</time></trkpt><trkpt lat="46.11046280690295" lon="13.410396844323527"><ele>134.0</ele><time>2026-04-18T12:24:26.001Z</time></trkpt><trkpt lat="46.110421791628475" lon="13.410598814086883"><ele>134.0</ele><time>2026-04-18T12:24:27.001Z</time></trkpt><trkpt lat="46.110379218972014" lon="13.410801461889543"><ele>134.0</ele><time>2026-04-18T12:24:28.001Z</time></trkpt><trkpt lat="46.11033498711696" lon="13.411013763449887"><ele>134.33333333333331</ele><time>2026-04-18T12:24:29.001Z</time></trkpt><trkpt lat="46.11028999427485" lon="13.411238200648125"><ele>134.66666666666666</ele><time>2026-04-18T12:24:30.001Z</time></trkpt><trkpt lat="46.11024106442126" lon="13.41146694444722"><ele>135.0</ele><time>2026-04-18T12:24:31.001Z</time></trkpt><trkpt lat="46.11018497007686" lon="13.411697215126294"><ele>135.33333333333334</ele><time>2026-04-18T12:24:32.001Z</time></trkpt><trkpt lat="46.11011930937948" lon="13.411919401002057"><ele>135.66666666666669</ele><time>2026-04-18T12:24:33.001Z</time></trkpt><trkpt lat="46.11004122908274" lon="13.412126974778387"><ele>136.0</ele><time>2026-04-18T12:24:34.001Z</time></trkpt><trkpt lat="46.10994507537567" lon="13.412316190888852"><ele>136.0</ele><time>2026-04-18T12:24:35.001Z</time></trkpt><trkpt lat="46.109836756286654" lon="13.41248391897954"><ele>136.0</ele><time>2026-04-18T12:24:36.001Z</time></trkpt><trkpt lat="46.10971989698728" lon="13.412636158448043"><ele>136.0</ele><time>2026-04-18T12:24:37.001Z</time></trkpt><trkpt lat="46.109595796851735" lon="13.412777126997021"><ele>136.0</ele><time>2026-04-18T12:24:38.001Z</time></trkpt><trkpt lat="46.10946178365346" lon="13.412898556557124"><ele>136.0</ele><time>2026-04-18T12:24:39.001Z</time></trkpt><trkpt lat="46.109314005112374" lon="13.412988206645275"><ele>136.0</ele><time>2026-04-18T12:24:40.001Z</time></trkpt><trkpt lat="46.10916178952392" lon="13.413057470457884"><ele>136.66666666666669</ele><time>2026-04-18T12:24:41.001Z</time></trkpt><trkpt lat="46.10900554486638" lon="13.41312937094761"><ele>137.33333333333334</ele><time>2026-04-18T12:24:42.001Z</time></trkpt><trkpt lat="46.10884946469644" lon="13.41319942369544"><ele>138.0</ele><time>2026-04-18T12:24:43.001Z</time></trkpt><trkpt lat="46.10869337586257" lon="13.41327088411465"><ele>138.0</ele><time>2026-04-18T12:24:44.001Z</time></trkpt><trkpt lat="46.10854211001876" lon="13.413343168233911"><ele>138.0</ele><time>2026-04-18T12:24:45.001Z</time></trkpt><trkpt lat="46.10839430557635" lon="13.413412271190214"><ele>138.0</ele><time>2026-04-18T12:24:46.001Z</time></trkpt><trkpt lat="46.108247868434745" lon="13.41348266712637"><ele>137.0</ele><time>2026-04-18T12:24:47.001Z</time></trkpt><trkpt lat="46.1081021932918" lon="13.413554927025773"><ele>136.0</ele><time>2026-04-18T12:24:48.001Z</time></trkpt><trkpt lat="46.10795355164239" lon="13.413631234707418"><ele>135.0</ele><time>2026-04-18T12:24:49.001Z</time></trkpt><trkpt lat="46.10780216755523" lon="13.413718317340368"><ele>135.0</ele><time>2026-04-18T12:24:50.001Z</time></trkpt><trkpt lat="46.107646867033004" lon="13.413816307018909"><ele>135.0</ele><time>2026-04-18T12:24:51.001Z</time></trkpt><trkpt lat="46.10748920506029" lon="13.413913343088325"><ele>135.0</ele><time>2026-04-18T12:24:52.001Z</time></trkpt><trkpt lat="46.10732836642128" lon="13.414013455027488"><ele>134.66666666666666</ele><time>2026-04-18T12:24:53.001Z</time></trkpt><trkpt lat="46.107164643624024" lon="13.414119310248253"><ele>134.33333333333331</ele><time>2026-04-18T12:24:54.001Z</time></trkpt><trkpt lat="46.10699700387957" lon="13.41422638108116"><ele>134.0</ele><time>2026-04-18T12:24:55.001Z</time></trkpt><trkpt lat="46.10682501575389" lon="13.414336632743126"><ele>134.0</ele><time>2026-04-18T12:24:56.001Z</time></trkpt><trkpt lat="46.10665148586134" lon="13.414447681262901"><ele>134.0</ele><time>2026-04-18T12:24:57.001Z</time></trkpt><trkpt lat="46.1064792556366" lon="13.414559775679484"><ele>134.0</ele><time>2026-04-18T12:24:58.001Z</time></trkpt><trkpt lat="46.10630386213712" lon="13.414672296158633"><ele>133.66666666666666</ele><time>2026-04-18T12:24:59.001Z</time></trkpt><trkpt lat="46.10613035122899" lon="13.414785781431"><ele>133.33333333333334</ele><time>2026-04-18T12:25:00.001Z</time></trkpt><trkpt lat="46.10595549451882" lon="13.414903110079647"><ele>133.0</ele><time>2026-04-18T12:25:01.001Z</time></trkpt><trkpt lat="46.10578174246463" lon="13.415015240451359"><ele>135.33333333333334</ele><time>2026-04-18T12:25:02.001Z</time></trkpt><trkpt lat="46.10560801757407" lon="13.415124930707405"><ele>137.66666666666666</ele><time>2026-04-18T12:25:03.001Z</time></trkpt><trkpt lat="46.1054331182353" lon="13.415237405494391"><ele>140.0</ele><time>2026-04-18T12:25:04.001Z</time></trkpt><trkpt lat="46.10525843776962" lon="13.415349256547822"><ele>140.0</ele><time>2026-04-18T12:25:05.001Z</time></trkpt><trkpt lat="46.105081376594455" lon="13.415461425363615"><ele>140.0</ele><time>2026-04-18T12:25:06.001Z</time></trkpt><trkpt lat="46.104904127850226" lon="13.415575071700358"><ele>140.0</ele><time>2026-04-18T12:25:07.001Z</time></trkpt><trkpt lat="46.104726490026444" lon="13.415689576632577"><ele>139.66666666666666</ele><time>2026-04-18T12:25:08.001Z</time></trkpt><trkpt lat="46.104549276690385" lon="13.415804803311564"><ele>139.33333333333334</ele><time>2026-04-18T12:25:09.001Z</time></trkpt><trkpt lat="46.104373742186176" lon="13.4159199238794"><ele>139.0</ele><time>2026-04-18T12:25:10.001Z</time></trkpt><trkpt lat="46.10419936752045" lon="13.416032682852006"><ele>138.0</ele><time>2026-04-18T12:25:11.001Z</time></trkpt><trkpt lat="46.10402591236943" lon="13.4161432071215"><ele>137.0</ele><time>2026-04-18T12:25:12.001Z</time></trkpt><trkpt lat="46.10385484368578" lon="13.41625266900904"><ele>136.0</ele><time>2026-04-18T12:25:13.001Z</time></trkpt><trkpt lat="46.10368574018015" lon="13.41636031907151"><ele>136.0</ele><time>2026-04-18T12:25:14.001Z</time></trkpt><trkpt lat="46.10352245357446" lon="13.416467003750691"><ele>136.0</ele><time>2026-04-18T12:25:15.001Z</time></trkpt><trkpt lat="46.10336496859926" lon="13.416580647549102"><ele>136.0</ele><time>2026-04-18T12:25:16.001Z</time></trkpt><trkpt lat="46.103219274007" lon="13.416710056291683"><ele>135.33333333333334</ele><time>2026-04-18T12:25:17.001Z</time></trkpt><trkpt lat="46.10308479623782" lon="13.416853242228473"><ele>134.66666666666666</ele><time>2026-04-18T12:25:18.001Z</time></trkpt><trkpt lat="46.1029506777921" lon="13.41699478399977"><ele>134.0</ele><time>2026-04-18T12:25:19.001Z</time></trkpt><trkpt lat="46.10280931511213" lon="13.417128904014955"><ele>134.0</ele><time>2026-04-18T12:25:20.001Z</time></trkpt><trkpt lat="46.10265112282299" lon="13.417218415024056"><ele>134.0</ele><time>2026-04-18T12:25:21.001Z</time></trkpt><trkpt lat="46.102483999732115" lon="13.417236753024865"><ele>134.0</ele><time>2026-04-18T12:25:22.001Z</time></trkpt><trkpt lat="46.10231992313482" lon="13.417280381092446"><ele>134.0</ele><time>2026-04-18T12:25:23.001Z</time></trkpt><trkpt lat="46.10215182338519" lon="13.417296904994878"><ele>134.0</ele><time>2026-04-18T12:25:24.001Z</time></trkpt><trkpt lat="46.10198555115419" lon="13.417327397051274"><ele>134.0</ele><time>2026-04-18T12:25:25.001Z</time></trkpt><trkpt lat="46.10182696316238" lon="13.417367288223497"><ele>134.0</ele><time>2026-04-18T12:25:26.001Z</time></trkpt><trkpt lat="46.10168037810541" lon="13.417443451217274"><ele>134.0</ele><time>2026-04-18T12:25:27.001Z</time></trkpt><trkpt lat="46.10154540618766" lon="13.417544003341602"><ele>134.0</ele><time>2026-04-18T12:25:28.001Z</time></trkpt><trkpt lat="46.10142492281659" lon="13.417670040874428"><ele>134.25</ele><time>2026-04-18T12:25:29.001Z</time></trkpt><trkpt lat="46.101314382346445" lon="13.417803360032632"><ele>134.5</ele><time>2026-04-18T12:25:30.001Z</time></trkpt><trkpt lat="46.10120278729503" lon="13.417932143792864"><ele>134.75</ele><time>2026-04-18T12:25:31.001Z</time></trkpt><trkpt lat="46.10109515095593" lon="13.418063959454098"><ele>135.0</ele><time>2026-04-18T12:25:32.001Z</time></trkpt><trkpt lat="46.10098754491924" lon="13.41819610342837"><ele>135.0</ele><time>2026-04-18T12:25:33.001Z</time></trkpt><trkpt lat="46.10087820614473" lon="13.41832499879893"><ele>135.0</ele><time>2026-04-18T12:25:34.001Z</time></trkpt><trkpt lat="46.10076737737155" lon="13.41845364388552"><ele>135.0</ele><time>2026-04-18T12:25:35.001Z</time></trkpt><trkpt lat="46.10066209977251" lon="13.418590314124229"><ele>135.0</ele><time>2026-04-18T12:25:36.001Z</time></trkpt><trkpt lat="46.100557933702454" lon="13.418730749571287"><ele>134.5</ele><time>2026-04-18T12:25:37.001Z</time></trkpt><trkpt lat="46.10045597742979" lon="13.418872324833185"><ele>134.0</ele><time>2026-04-18T12:25:38.001Z</time></trkpt><trkpt lat="46.1003548089595" lon="13.419014658802249"><ele>133.5</ele><time>2026-04-18T12:25:39.001Z</time></trkpt><trkpt lat="46.1002549461377" lon="13.41915422345718"><ele>133.0</ele><time>2026-04-18T12:25:40.001Z</time></trkpt><trkpt lat="46.100156299320304" lon="13.419296596090257"><ele>133.0</ele><time>2026-04-18T12:25:41.001Z</time></trkpt><trkpt lat="46.100054020310665" lon="13.419435182018521"><ele>133.0</ele><time>2026-04-18T12:25:42.001Z</time></trkpt><trkpt lat="46.09995359833603" lon="13.419577064063041"><ele>133.0</ele><time>2026-04-18T12:25:43Z</time></trkpt><trkpt lat="46.0998543140584" lon="13.419723034804603"><ele>133.0</ele><time>2026-04-18T12:25:44Z</time></trkpt><trkpt lat="46.099755862155504" lon="13.419868726231723"><ele>133.0</ele><time>2026-04-18T12:25:45Z</time></trkpt><trkpt lat="46.0996652480006" lon="13.420024530938544"><ele>133.0</ele><time>2026-04-18T12:25:46Z</time></trkpt><trkpt lat="46.09958913589586" lon="13.420197860193136"><ele>133.0</ele><time>2026-04-18T12:25:47Z</time></trkpt><trkpt lat="46.099531058652175" lon="13.420387045519243"><ele>133.0</ele><time>2026-04-18T12:25:48Z</time></trkpt><trkpt lat="46.099478312456355" lon="13.420581308435098"><ele>133.5</ele><time>2026-04-18T12:25:49Z</time></trkpt><trkpt lat="46.09943187755974" lon="13.420780121760751"><ele>134.0</ele><time>2026-04-18T12:25:50Z</time></trkpt><trkpt lat="46.09938194218387" lon="13.420976324801781"><ele>134.5</ele><time>2026-04-18T12:25:51Z</time></trkpt><trkpt lat="46.099332372113835" lon="13.42117417341729"><ele>135.0</ele><time>2026-04-18T12:25:52Z</time></trkpt><trkpt lat="46.09928077392146" lon="13.421364858091637"><ele>135.0</ele><time>2026-04-18T12:25:53Z</time></trkpt><trkpt lat="46.09921638116674" lon="13.421549642871742"><ele>135.0</ele><time>2026-04-18T12:25:54Z</time></trkpt><trkpt lat="46.09913285232927" lon="13.421715285767116"><ele>135.0</ele><time>2026-04-18T12:25:55Z</time></trkpt><trkpt lat="46.09903849583305" lon="13.421870737952053"><ele>135.0</ele><time>2026-04-18T12:25:56Z</time></trkpt><trkpt lat="46.09894344587222" lon="13.422029450977234"><ele>135.0</ele><time>2026-04-18T12:25:57Z</time></trkpt><trkpt lat="46.098848606667076" lon="13.422191900591871"><ele>135.0</ele><time>2026-04-18T12:25:58Z</time></trkpt><trkpt lat="46.098751333477686" lon="13.422354764658317"><ele>135.0</ele><time>2026-04-18T12:25:59Z</time></trkpt><trkpt lat="46.098654357214706" lon="13.422517967224683"><ele>135.0</ele><time>2026-04-18T12:26:00.001Z</time></trkpt><trkpt lat="46.09855929944627" lon="13.42267911921454"><ele>135.0</ele><time>2026-04-18T12:26:01.001Z</time></trkpt><trkpt lat="46.09846891038061" lon="13.42283618367286"><ele>135.0</ele><time>2026-04-18T12:26:02.001Z</time></trkpt><trkpt lat="46.09837859227206" lon="13.422986185717836"><ele>135.0</ele><time>2026-04-18T12:26:03.001Z</time></trkpt><trkpt lat="46.09829462018618" lon="13.423130925511526"><ele>135.0</ele><time>2026-04-18T12:26:04.001Z</time></trkpt><trkpt lat="46.09821871407204" lon="13.423268270571505"><ele>134.8</ele><time>2026-04-18T12:26:05.001Z</time></trkpt><trkpt lat="46.09814927688954" lon="13.42340155168453"><ele>134.6</ele><time>2026-04-18T12:26:06.001Z</time></trkpt><trkpt lat="46.098097111102845" lon="13.423527348027791"><ele>134.4</ele><time>2026-04-18T12:26:07.001Z</time></trkpt><trkpt lat="46.09806289894821" lon="13.4236536313365"><ele>134.2</ele><time>2026-04-18T12:26:08.001Z</time></trkpt><trkpt lat="46.09803801839553" lon="13.423764156251977"><ele>134.0</ele><time>2026-04-18T12:26:09.001Z</time></trkpt><trkpt lat="46.09800968762153" lon="13.423861378471544"><ele>134.0</ele><time>2026-04-18T12:26:10.001Z</time></trkpt><trkpt lat="46.09796653171556" lon="13.423943957976343"><ele>134.0</ele><time>2026-04-18T12:26:11.001Z</time></trkpt><trkpt lat="46.09790707648884" lon="13.424006981219918"><ele>134.0</ele><time>2026-04-18T12:26:12.001Z</time></trkpt><trkpt lat="46.09784662037792" lon="13.424080063330953"><ele>134.0</ele><time>2026-04-18T12:26:13.001Z</time></trkpt><trkpt lat="46.097818834793294" lon="13.42417198140961"><ele>134.0</ele><time>2026-04-18T12:26:14.001Z</time></trkpt><trkpt lat="46.09786004936076" lon="13.424338972362223"><ele>134.0</ele><time>2026-04-18T12:26:16.001Z</time></trkpt><trkpt lat="46.09791329515488" lon="13.424398798478506"><ele>134.0</ele><time>2026-04-18T12:26:17.001Z</time></trkpt><trkpt lat="46.09796901787752" lon="13.424456430151444"><ele>134.0</ele><time>2026-04-18T12:26:18.001Z</time></trkpt><trkpt lat="46.098032143261285" lon="13.42448057893134"><ele>134.0</ele><time>2026-04-18T12:26:19.001Z</time></trkpt><trkpt lat="46.09806056271281" lon="13.424626272068558"><ele>134.0</ele><time>2026-04-18T12:26:20.001Z</time></trkpt><trkpt lat="46.09809395774671" lon="13.424719267494455"><ele>134.0</ele><time>2026-04-18T12:26:21.001Z</time></trkpt><trkpt lat="46.09801020160764" lon="13.424883076248298"><ele>134.4</ele><time>2026-04-18T12:26:22.001Z</time></trkpt><trkpt lat="46.097978378707936" lon="13.424999478910525"><ele>134.8</ele><time>2026-04-18T12:26:23.001Z</time></trkpt><trkpt lat="46.09794654839504" lon="13.425118917861193"><ele>135.2</ele><time>2026-04-18T12:26:24.001Z</time></trkpt><trkpt lat="46.0979124646234" lon="13.425241392282295"><ele>135.6</ele><time>2026-04-18T12:26:25.001Z</time></trkpt><trkpt lat="46.097875757307904" lon="13.425373579433069"><ele>136.0</ele><time>2026-04-18T12:26:26.001Z</time></trkpt><trkpt lat="46.09783477899444" lon="13.425509489866629"><ele>136.0</ele><time>2026-04-18T12:26:27.001Z</time></trkpt><trkpt lat="46.09779329939613" lon="13.425650771896752"><ele>136.0</ele><time>2026-04-18T12:26:28.001Z</time></trkpt><trkpt lat="46.09774645841283" lon="13.425796146099966"><ele>136.0</ele><time>2026-04-18T12:26:29.001Z</time></trkpt><trkpt lat="46.09770171942133" lon="13.42594502692414"><ele>136.0</ele><time>2026-04-18T12:26:30.001Z</time></trkpt><trkpt lat="46.097662285876304" lon="13.42608938475391"><ele>136.0</ele><time>2026-04-18T12:26:31.001Z</time></trkpt><trkpt lat="46.09762268283267" lon="13.426230526544737"><ele>136.0</ele><time>2026-04-18T12:26:32.001Z</time></trkpt><trkpt lat="46.09757771639442" lon="13.426362415000156"><ele>136.0</ele><time>2026-04-18T12:26:33.001Z</time></trkpt><trkpt lat="46.09751670595562" lon="13.4264777407122"><ele>136.0</ele><time>2026-04-18T12:26:34.001Z</time></trkpt><trkpt lat="46.09742590913768" lon="13.426545646309945"><ele>136.0</ele><time>2026-04-18T12:26:35.001Z</time></trkpt><trkpt lat="46.09731586088402" lon="13.426576210581137"><ele>136.0</ele><time>2026-04-18T12:26:36.001Z</time></trkpt><trkpt lat="46.097202136776474" lon="13.426621281082603"><ele>135.8</ele><time>2026-04-18T12:26:37.001Z</time></trkpt><trkpt lat="46.0970971936141" lon="13.426669968741942"><ele>135.6</ele><time>2026-04-18T12:26:38.001Z</time></trkpt><trkpt lat="46.09699794681792" lon="13.426711097531536"><ele>135.4</ele><time>2026-04-18T12:26:39.001Z</time></trkpt><trkpt lat="46.096897836096886" lon="13.426745688532366"><ele>135.2</ele><time>2026-04-18T12:26:40.001Z</time></trkpt><trkpt lat="46.09679040368033" lon="13.426786428078861"><ele>135.0</ele><time>2026-04-18T12:26:41.001Z</time></trkpt><trkpt lat="46.096676209933904" lon="13.426834363805725"><ele>134.8</ele><time>2026-04-18T12:26:42.001Z</time></trkpt><trkpt lat="46.096564173745094" lon="13.4268872019095"><ele>134.6</ele><time>2026-04-18T12:26:43.001Z</time></trkpt><trkpt lat="46.09645316869327" lon="13.426937896871014"><ele>134.4</ele><time>2026-04-18T12:26:44.001Z</time></trkpt><trkpt lat="46.096350414331255" lon="13.42698491759256"><ele>134.2</ele><time>2026-04-18T12:26:45.001Z</time></trkpt><trkpt lat="46.096263363422786" lon="13.427029953344844"><ele>134.0</ele><time>2026-04-18T12:26:46.001Z</time></trkpt><trkpt lat="46.09618580352543" lon="13.427073950434064"><ele>134.0</ele><time>2026-04-18T12:26:47.001Z</time></trkpt><trkpt lat="46.09611487553079" lon="13.427105270027454"><ele>134.0</ele><time>2026-04-18T12:26:48.001Z</time></trkpt><trkpt lat="46.09602400905698" lon="13.42712069098685"><ele>134.0</ele><time>2026-04-18T12:26:50.001Z</time></trkpt><trkpt lat="46.09596121811246" lon="13.427103170922209"><ele>134.0</ele><time>2026-04-18T12:26:53.001Z</time></trkpt><trkpt lat="46.09587660369058" lon="13.427066897957832"><ele>134.0</ele><time>2026-04-18T12:26:55.001Z</time></trkpt><trkpt lat="46.09578734075931" lon="13.427010799752836"><ele>134.0</ele><time>2026-04-18T12:26:57.001Z</time></trkpt><trkpt lat="46.09567356907587" lon="13.427087841837931"><ele>134.0</ele><time>2026-04-18T12:26:59.001Z</time></trkpt><trkpt lat="46.09560331903276" lon="13.42720515581731"><ele>134.0</ele><time>2026-04-18T12:27:01.001Z</time></trkpt><trkpt lat="46.09560026500326" lon="13.427361697381226"><ele>134.0</ele><time>2026-04-18T12:27:03.001Z</time></trkpt><trkpt lat="46.09565793075184" lon="13.42748638070672"><ele>134.0</ele><time>2026-04-18T12:27:05.001Z</time></trkpt><trkpt lat="46.09573811186656" lon="13.427517604365951"><ele>134.0</ele><time>2026-04-18T12:27:06.001Z</time></trkpt><trkpt lat="46.095826374863705" lon="13.427498852740083"><ele>134.0</ele><time>2026-04-18T12:27:07.001Z</time></trkpt><trkpt lat="46.09589408467909" lon="13.42743394611866"><ele>134.0</ele><time>2026-04-18T12:27:08.001Z</time></trkpt><trkpt lat="46.09592542144673" lon="13.427329779253272"><ele>134.0</ele><time>2026-04-18T12:27:09.001Z</time></trkpt><trkpt lat="46.095930626987524" lon="13.427209343362833"><ele>134.0</ele><time>2026-04-18T12:27:10.001Z</time></trkpt><trkpt lat="46.09590472596666" lon="13.427063943134863"><ele>134.0</ele><time>2026-04-18T12:27:11.001Z</time></trkpt><trkpt lat="46.09580973568919" lon="13.426913563609995"><ele>134.0</ele><time>2026-04-18T12:27:12.001Z</time></trkpt><trkpt lat="46.095774528588656" lon="13.426717370921239"><ele>134.0</ele><time>2026-04-18T12:27:13.001Z</time></trkpt><trkpt lat="46.09578403881035" lon="13.426504000789777"><ele>134.0</ele><time>2026-04-18T12:27:14.001Z</time></trkpt><trkpt lat="46.09575253076644" lon="13.426294964852403"><ele>134.0</ele><time>2026-04-18T12:27:15.001Z</time></trkpt><trkpt lat="46.095741664592694" lon="13.426092416575903"><ele>134.0</ele><time>2026-04-18T12:27:16.001Z</time></trkpt><trkpt lat="46.095737687346116" lon="13.425890379854009"><ele>134.0</ele><time>2026-04-18T12:27:17.001Z</time></trkpt><trkpt lat="46.09573521631871" lon="13.425689961728485"><ele>134.0</ele><time>2026-04-18T12:27:18.001Z</time></trkpt><trkpt lat="46.095767181779905" lon="13.42549533129275"><ele>134.0</ele><time>2026-04-18T12:27:19.001Z</time></trkpt><trkpt lat="46.09576628641988" lon="13.425323615795577"><ele>134.0</ele><time>2026-04-18T12:27:20.001Z</time></trkpt><trkpt lat="46.095768832668" lon="13.425168668556074"><ele>134.0</ele><time>2026-04-18T12:27:21.001Z</time></trkpt><trkpt lat="46.09577188695688" lon="13.42502704521876"><ele>134.0</ele><time>2026-04-18T12:27:22.001Z</time></trkpt><trkpt lat="46.09576358721612" lon="13.42491079446183"><ele>134.0</ele><time>2026-04-18T12:27:23.001Z</time></trkpt><trkpt lat="46.095793535447704" lon="13.424800062243554"><ele>134.0</ele><time>2026-04-18T12:27:24.001Z</time></trkpt><trkpt lat="46.09584296900622" lon="13.424697006750698"><ele>133.66666666666666</ele><time>2026-04-18T12:27:25.001Z</time></trkpt><trkpt lat="46.095893475391414" lon="13.424611967193663"><ele>133.33333333333331</ele><time>2026-04-18T12:27:26.001Z</time></trkpt><trkpt lat="46.09593405272187" lon="13.424531226540092"><ele>133.0</ele><time>2026-04-18T12:27:27.001Z</time></trkpt><trkpt lat="46.09594571098344" lon="13.424420103602063"><ele>132.66666666666666</ele><time>2026-04-18T12:27:28.001Z</time></trkpt><trkpt lat="46.09590599210547" lon="13.424303601529886"><ele>132.33333333333334</ele><time>2026-04-18T12:27:29.001Z</time></trkpt><trkpt lat="46.09582995801385" lon="13.424231523335465"><ele>132.0</ele><time>2026-04-18T12:27:30.001Z</time></trkpt><trkpt lat="46.09573251567109" lon="13.424258687114683"><ele>132.0</ele><time>2026-04-18T12:27:31.001Z</time></trkpt><trkpt lat="46.09565098418664" lon="13.424290830234497"><ele>132.0</ele><time>2026-04-18T12:27:32.001Z</time></trkpt><trkpt lat="46.09557163936342" lon="13.424327559755993"><ele>132.0</ele><time>2026-04-18T12:27:33.001Z</time></trkpt><trkpt lat="46.09548722536892" lon="13.424351938740353"><ele>132.0</ele><time>2026-04-18T12:27:34.001Z</time></trkpt><trkpt lat="46.09539902680381" lon="13.42437160698698"><ele>132.0</ele><time>2026-04-18T12:27:35.001Z</time></trkpt><trkpt lat="46.09531276652943" lon="13.424384515445388"><ele>132.0</ele><time>2026-04-18T12:27:36.001Z</time></trkpt><trkpt lat="46.09523168350998" lon="13.424397813850755"><ele>132.0</ele><time>2026-04-18T12:27:37.001Z</time></trkpt><trkpt lat="46.09516270171456" lon="13.424409591059698"><ele>132.0</ele><time>2026-04-18T12:27:38.001Z</time></trkpt><trkpt lat="46.095090100284075" lon="13.42441193903468"><ele>132.0</ele><time>2026-04-18T12:27:39.001Z</time></trkpt><trkpt lat="46.095008906791385" lon="13.42440075421201"><ele>132.0</ele><time>2026-04-18T12:27:40.001Z</time></trkpt><trkpt lat="46.09493477217443" lon="13.424379207451691"><ele>132.0</ele><time>2026-04-18T12:27:41.001Z</time></trkpt><trkpt lat="46.09486550947694" lon="13.4243588725786"><ele>132.0</ele><time>2026-04-18T12:27:42.001Z</time></trkpt><trkpt lat="46.094782660725954" lon="13.424366750956533"><ele>132.25</ele><time>2026-04-18T12:27:43.001Z</time></trkpt><trkpt lat="46.09467330052" lon="13.424400974208709"><ele>132.5</ele><time>2026-04-18T12:27:44.001Z</time></trkpt><trkpt lat="46.09454032506454" lon="13.424416533343123"><ele>132.75</ele><time>2026-04-18T12:27:45.001Z</time></trkpt><trkpt lat="46.09440141815839" lon="13.42443175386168"><ele>133.0</ele><time>2026-04-18T12:27:46.001Z</time></trkpt><trkpt lat="46.09426414123586" lon="13.424448148346599"><ele>133.0</ele><time>2026-04-18T12:27:47.001Z</time></trkpt><trkpt lat="46.09412911491311" lon="13.42445890258389"><ele>133.0</ele><time>2026-04-18T12:27:48.001Z</time></trkpt><trkpt lat="46.09400405879234" lon="13.4244543465022"><ele>133.0</ele><time>2026-04-18T12:27:49.001Z</time></trkpt><trkpt lat="46.09389789489232" lon="13.424477560384304"><ele>133.0</ele><time>2026-04-18T12:27:50.001Z</time></trkpt><trkpt lat="46.09379433828868" lon="13.42448542213617"><ele>133.0</ele><time>2026-04-18T12:27:51.001Z</time></trkpt><trkpt lat="46.093691271159685" lon="13.424490706615185"><ele>133.0</ele><time>2026-04-18T12:27:52.001Z</time></trkpt><trkpt lat="46.09358940323373" lon="13.424503891360908"><ele>133.0</ele><time>2026-04-18T12:27:53.001Z</time></trkpt><trkpt lat="46.093488668993224" lon="13.424512288085076"><ele>133.0</ele><time>2026-04-18T12:27:54.001Z</time></trkpt><trkpt lat="46.09339321417597" lon="13.424518140085905"><ele>133.0</ele><time>2026-04-18T12:27:55.001Z</time></trkpt><trkpt lat="46.09330328643341" lon="13.424526324159435"><ele>133.33333333333334</ele><time>2026-04-18T12:27:56.001Z</time></trkpt><trkpt lat="46.09321991237224" lon="13.424530556818963"><ele>133.66666666666669</ele><time>2026-04-18T12:27:57.001Z</time></trkpt><trkpt lat="46.09314196332571" lon="13.424525488777501"><ele>134.0</ele><time>2026-04-18T12:27:58.001Z</time></trkpt><trkpt lat="46.093066728131404" lon="13.424535345175443"><ele>134.33333333333334</ele><time>2026-04-18T12:27:59.001Z</time></trkpt><trkpt lat="46.09298563362634" lon="13.42454385098779"><ele>134.66666666666666</ele><time>2026-04-18T12:28:00.001Z</time></trkpt><trkpt lat="46.09290645897615" lon="13.424551637937785"><ele>135.0</ele><time>2026-04-18T12:28:01.001Z</time></trkpt><trkpt lat="46.09283060747902" lon="13.424558503483913"><ele>135.0</ele><time>2026-04-18T12:28:02.001Z</time></trkpt><trkpt lat="46.09275422319711" lon="13.424567545532131"><ele>135.0</ele><time>2026-04-18T12:28:03.001Z</time></trkpt><trkpt lat="46.092682961754655" lon="13.424583390434199"><ele>135.0</ele><time>2026-04-18T12:28:04.001Z</time></trkpt><trkpt lat="46.09261662495568" lon="13.424608312658108"><ele>135.0</ele><time>2026-04-18T12:28:05.001Z</time></trkpt><trkpt lat="46.092551913296504" lon="13.42465010496198"><ele>135.0</ele><time>2026-04-18T12:28:06.001Z</time></trkpt><trkpt lat="46.0924819521302" lon="13.424718690196224"><ele>135.0</ele><time>2026-04-18T12:28:07.001Z</time></trkpt><trkpt lat="46.09240439537819" lon="13.424801895189201"><ele>135.2</ele><time>2026-04-18T12:28:08.001Z</time></trkpt><trkpt lat="46.09233519290862" lon="13.424896638482878"><ele>135.4</ele><time>2026-04-18T12:28:09.001Z</time></trkpt><trkpt lat="46.09226961159585" lon="13.424999093169356"><ele>135.6</ele><time>2026-04-18T12:28:10.001Z</time></trkpt><trkpt lat="46.092193586766015" lon="13.425083131939036"><ele>135.8</ele><time>2026-04-18T12:28:11.001Z</time></trkpt><trkpt lat="46.09210321198602" lon="13.425151090255754"><ele>136.0</ele><time>2026-04-18T12:28:12.001Z</time></trkpt><trkpt lat="46.09200484922057" lon="13.425216302299438"><ele>136.0</ele><time>2026-04-18T12:28:13.001Z</time></trkpt><trkpt lat="46.09189848925215" lon="13.425272152193445"><ele>136.0</ele><time>2026-04-18T12:28:14.001Z</time></trkpt><trkpt lat="46.09179603407974" lon="13.425335123986441"><ele>136.0</ele><time>2026-04-18T12:28:15.001Z</time></trkpt><trkpt lat="46.091701172377846" lon="13.425388950638188"><ele>136.0</ele><time>2026-04-18T12:28:16.001Z</time></trkpt><trkpt lat="46.09161317592372" lon="13.425441740841249"><ele>136.0</ele><time>2026-04-18T12:28:17.001Z</time></trkpt><trkpt lat="46.09152549536905" lon="13.425493098707756"><ele>135.2</ele><time>2026-04-18T12:28:18.001Z</time></trkpt><trkpt lat="46.091433489609955" lon="13.425547148626205"><ele>134.39999999999998</ele><time>2026-04-18T12:28:19.001Z</time></trkpt><trkpt lat="46.091337885559454" lon="13.425602628819775"><ele>133.6</ele><time>2026-04-18T12:28:20.001Z</time></trkpt><trkpt lat="46.09123297102753" lon="13.425642933993933"><ele>132.79999999999998</ele><time>2026-04-18T12:28:21.001Z</time></trkpt><trkpt lat="46.09112485628431" lon="13.425700910418005"><ele>132.0</ele><time>2026-04-18T12:28:22.001Z</time></trkpt><trkpt lat="46.09101535232476" lon="13.425762138032107"><ele>132.0</ele><time>2026-04-18T12:28:23.001Z</time></trkpt><trkpt lat="46.09090270877646" lon="13.425822014345925"><ele>132.0</ele><time>2026-04-18T12:28:24.001Z</time></trkpt><trkpt lat="46.09078790584535" lon="13.425875978961905"><ele>132.0</ele><time>2026-04-18T12:28:25.001Z</time></trkpt><trkpt lat="46.09067000352302" lon="13.425923710790109"><ele>132.0</ele><time>2026-04-18T12:28:26.001Z</time></trkpt><trkpt lat="46.090549454652155" lon="13.425967595770793"><ele>130.0</ele><time>2026-04-18T12:28:27.001Z</time></trkpt><trkpt lat="46.09042996365284" lon="13.426002120263671"><ele>128.0</ele><time>2026-04-18T12:28:28.001Z</time></trkpt><trkpt lat="46.09030121089253" lon="13.426038877645036"><ele>126.0</ele><time>2026-04-18T12:28:29.001Z</time></trkpt><trkpt lat="46.090164822570074" lon="13.426078920620547"><ele>124.0</ele><time>2026-04-18T12:28:30.001Z</time></trkpt><trkpt lat="46.090022819683604" lon="13.42611943691831"><ele>124.25</ele><time>2026-04-18T12:28:31.001Z</time></trkpt><trkpt lat="46.08987492704139" lon="13.426159562382082"><ele>124.5</ele><time>2026-04-18T12:28:32.001Z</time></trkpt><trkpt lat="46.089730619948064" lon="13.426203872163239"><ele>124.75</ele><time>2026-04-18T12:28:33.001Z</time></trkpt><trkpt lat="46.08958909065662" lon="13.426245823466312"><ele>125.0</ele><time>2026-04-18T12:28:34.001Z</time></trkpt><trkpt lat="46.08945321273953" lon="13.426286106350778"><ele>125.0</ele><time>2026-04-18T12:28:35.001Z</time></trkpt><trkpt lat="46.08932370865364" lon="13.426323686989349"><ele>125.0</ele><time>2026-04-18T12:28:36.001Z</time></trkpt><trkpt lat="46.08919270856562" lon="13.426358980483851"><ele>125.0</ele><time>2026-04-18T12:28:37.001Z</time></trkpt><trkpt lat="46.08905265956766" lon="13.426387126308747"><ele>125.0</ele><time>2026-04-18T12:28:38.001Z</time></trkpt><trkpt lat="46.08890717549561" lon="13.426399958769219"><ele>125.0</ele><time>2026-04-18T12:28:39.001Z</time></trkpt><trkpt lat="46.088761974105175" lon="13.426414427763607"><ele>125.0</ele><time>2026-04-18T12:28:40.001Z</time></trkpt><trkpt lat="46.088622295623736" lon="13.42643469388702"><ele>125.0</ele><time>2026-04-18T12:28:41.001Z</time></trkpt><trkpt lat="46.08848771585679" lon="13.42645661274453"><ele>125.0</ele><time>2026-04-18T12:28:42.001Z</time></trkpt><trkpt lat="46.08835753458653" lon="13.426486043063893"><ele>125.25</ele><time>2026-04-18T12:28:43.001Z</time></trkpt><trkpt lat="46.08823152350244" lon="13.426536119642844"><ele>125.5</ele><time>2026-04-18T12:28:44.001Z</time></trkpt><trkpt lat="46.08810805417142" lon="13.426619761079975"><ele>125.75</ele><time>2026-04-18T12:28:45.001Z</time></trkpt><trkpt lat="46.08799218711062" lon="13.426711067831212"><ele>126.0</ele><time>2026-04-18T12:28:46.001Z</time></trkpt><trkpt lat="46.087888286175264" lon="13.426817313438843"><ele>126.0</ele><time>2026-04-18T12:28:47.001Z</time></trkpt><trkpt lat="46.087798284002695" lon="13.426925102665404"><ele>126.0</ele><time>2026-04-18T12:28:48.001Z</time></trkpt><trkpt lat="46.08772107596596" lon="13.427039051593491"><ele>126.0</ele><time>2026-04-18T12:28:49.001Z</time></trkpt><trkpt lat="46.08765548587914" lon="13.427160493075311"><ele>126.0</ele><time>2026-04-18T12:28:50.001Z</time></trkpt><trkpt lat="46.08759666161467" lon="13.427291972421546"><ele>126.0</ele><time>2026-04-18T12:28:51.001Z</time></trkpt><trkpt lat="46.08754119886493" lon="13.427423170420374"><ele>127.4</ele><time>2026-04-18T12:28:52.001Z</time></trkpt><trkpt lat="46.0874920313646" lon="13.427545692849437"><ele>128.8</ele><time>2026-04-18T12:28:53.001Z</time></trkpt><trkpt lat="46.08744868394411" lon="13.42765009377274"><ele>130.20000000000002</ele><time>2026-04-18T12:28:54.001Z</time></trkpt><trkpt lat="46.08741268446426" lon="13.427745171455596"><ele>131.6</ele><time>2026-04-18T12:28:55.001Z</time></trkpt><trkpt lat="46.0873536754597" lon="13.427896502988686"><ele>133.0</ele><time>2026-04-18T12:28:57.001Z</time></trkpt><trkpt lat="46.087307641887975" lon="13.428002513302356"><ele>133.0</ele><time>2026-04-18T12:28:59.001Z</time></trkpt><trkpt lat="46.08726751688604" lon="13.42809953342969"><ele>133.0</ele><time>2026-04-18T12:29:03.001Z</time></trkpt><trkpt lat="46.087215385301626" lon="13.428203362073916"><ele>133.0</ele><time>2026-04-18T12:29:06.001Z</time></trkpt><trkpt lat="46.087154982117525" lon="13.428324047770063"><ele>133.0</ele><time>2026-04-18T12:29:08.001Z</time></trkpt><trkpt lat="46.08712972429077" lon="13.428460708655752"><ele>133.0</ele><time>2026-04-18T12:29:10.001Z</time></trkpt><trkpt lat="46.08722878727631" lon="13.428589309795704"><ele>133.0</ele><time>2026-04-18T12:29:12.001Z</time></trkpt><trkpt lat="46.087287621810106" lon="13.428659179600286"><ele>133.0</ele><time>2026-04-18T12:29:13.001Z</time></trkpt><trkpt lat="46.087343728142976" lon="13.428736185635085"><ele>133.0</ele><time>2026-04-18T12:29:14.001Z</time></trkpt><trkpt lat="46.08740942959365" lon="13.428811763214366"><ele>133.0</ele><time>2026-04-18T12:29:15.001Z</time></trkpt><trkpt lat="46.08748017819854" lon="13.428891722325629"><ele>133.0</ele><time>2026-04-18T12:29:16.001Z</time></trkpt><trkpt lat="46.087555631048744" lon="13.428983455143118"><ele>133.0</ele><time>2026-04-18T12:29:17.001Z</time></trkpt><trkpt lat="46.08763804935649" lon="13.429091507165747"><ele>132.75</ele><time>2026-04-18T12:29:18.001Z</time></trkpt><trkpt lat="46.08772643209413" lon="13.429216491463501"><ele>132.5</ele><time>2026-04-18T12:29:19.001Z</time></trkpt><trkpt lat="46.08781800003601" lon="13.429356283888854"><ele>132.25</ele><time>2026-04-18T12:29:20.001Z</time></trkpt><trkpt lat="46.087900625048704" lon="13.429510803058857"><ele>132.0</ele><time>2026-04-18T12:29:21.001Z</time></trkpt><trkpt lat="46.087982661594175" lon="13.429679181852974"><ele>132.0</ele><time>2026-04-18T12:29:22.001Z</time></trkpt><trkpt lat="46.08806731045356" lon="13.429859816144603"><ele>132.0</ele><time>2026-04-18T12:29:23.001Z</time></trkpt><trkpt lat="46.08814845940043" lon="13.430045891363193"><ele>132.0</ele><time>2026-04-18T12:29:24.001Z</time></trkpt><trkpt lat="46.0882272251151" lon="13.430240624155257"><ele>132.66666666666666</ele><time>2026-04-18T12:29:25.001Z</time></trkpt><trkpt lat="46.088308502420645" lon="13.430438747158886"><ele>133.33333333333331</ele><time>2026-04-18T12:29:26.001Z</time></trkpt><trkpt lat="46.08839638138978" lon="13.430651380112856"><ele>134.0</ele><time>2026-04-18T12:29:27.001Z</time></trkpt><trkpt lat="46.08848743131819" lon="13.430881997656822"><ele>134.0</ele><time>2026-04-18T12:29:28.001Z</time></trkpt><trkpt lat="46.088580827442016" lon="13.431116005478906"><ele>134.0</ele><time>2026-04-18T12:29:29.001Z</time></trkpt><trkpt lat="46.088673463642586" lon="13.431341883472856"><ele>134.0</ele><time>2026-04-18T12:29:30.001Z</time></trkpt><trkpt lat="46.088759738960704" lon="13.431551999658232"><ele>134.25</ele><time>2026-04-18T12:29:31.001Z</time></trkpt><trkpt lat="46.0888383613141" lon="13.431746546538983"><ele>134.5</ele><time>2026-04-18T12:29:32.001Z</time></trkpt><trkpt lat="46.0889065687301" lon="13.431915815554287"><ele>134.75</ele><time>2026-04-18T12:29:33.001Z</time></trkpt><trkpt lat="46.088968494048025" lon="13.43206837750054"><ele>135.0</ele><time>2026-04-18T12:29:34.001Z</time></trkpt><trkpt lat="46.08902444764997" lon="13.432208649539866"><ele>135.33333333333334</ele><time>2026-04-18T12:29:35.001Z</time></trkpt><trkpt lat="46.08907445363832" lon="13.432335332525076"><ele>135.66666666666666</ele><time>2026-04-18T12:29:36.001Z</time></trkpt><trkpt lat="46.0891198172431" lon="13.432445138041283"><ele>136.0</ele><time>2026-04-18T12:29:37.001Z</time></trkpt><trkpt lat="46.08915892645709" lon="13.432539725406395"><ele>136.33333333333331</ele><time>2026-04-18T12:29:38.001Z</time></trkpt><trkpt lat="46.08919258946112" lon="13.432625113255707"><ele>136.66666666666666</ele><time>2026-04-18T12:29:39.001Z</time></trkpt><trkpt lat="46.089244203609134" lon="13.432741819250413"><ele>137.0</ele><time>2026-04-18T12:29:41.001Z</time></trkpt><trkpt lat="46.08927989682922" lon="13.432820343939373"><ele>137.2</ele><time>2026-04-18T12:29:44.001Z</time></trkpt><trkpt lat="46.08934311902923" lon="13.43293763976926"><ele>137.39999999999998</ele><time>2026-04-18T12:30:26.001Z</time></trkpt><trkpt lat="46.089398113260756" lon="13.433067828282363"><ele>137.60000000000002</ele><time>2026-04-18T12:30:28.001Z</time></trkpt><trkpt lat="46.089451235460665" lon="13.433188726357503"><ele>137.8</ele><time>2026-04-18T12:30:30.001Z</time></trkpt><trkpt lat="46.089499479311115" lon="13.433332880983256"><ele>138.0</ele><time>2026-04-18T12:30:32.001Z</time></trkpt><trkpt lat="46.08950827874647" lon="13.433436018063745"><ele>137.8</ele><time>2026-04-18T12:30:33.001Z</time></trkpt><trkpt lat="46.08950262824747" lon="13.433549480815238"><ele>137.60000000000002</ele><time>2026-04-18T12:30:34.001Z</time></trkpt><trkpt lat="46.08949758655909" lon="13.433674618204481"><ele>137.39999999999998</ele><time>2026-04-18T12:30:35.001Z</time></trkpt><trkpt lat="46.08947282136821" lon="13.433809693663031"><ele>137.2</ele><time>2026-04-18T12:30:36.001Z</time></trkpt><trkpt lat="46.089465015171164" lon="13.433951288516097"><ele>137.0</ele><time>2026-04-18T12:30:37.001Z</time></trkpt><trkpt lat="46.089473439441356" lon="13.43409304577067"><ele>137.0</ele><time>2026-04-18T12:30:38.001Z</time></trkpt><trkpt lat="46.08946427603663" lon="13.434240062493938"><ele>137.0</ele><time>2026-04-18T12:30:39.001Z</time></trkpt><trkpt lat="46.08944165106106" lon="13.434393383763648"><ele>137.0</ele><time>2026-04-18T12:30:40.001Z</time></trkpt><trkpt lat="46.08943213131101" lon="13.434556476841435"><ele>137.0</ele><time>2026-04-18T12:30:41.001Z</time></trkpt><trkpt lat="46.08942307475186" lon="13.43472734881113"><ele>137.0</ele><time>2026-04-18T12:30:42.001Z</time></trkpt><trkpt lat="46.08941310193928" lon="13.434905422764443"><ele>137.25</ele><time>2026-04-18T12:30:43.001Z</time></trkpt><trkpt lat="46.089401056217156" lon="13.435091282967795"><ele>137.5</ele><time>2026-04-18T12:30:44.001Z</time></trkpt><trkpt lat="46.0893890795051" lon="13.435281357684124"><ele>137.75</ele><time>2026-04-18T12:30:45.001Z</time></trkpt><trkpt lat="46.08937561269689" lon="13.435470795845783"><ele>138.0</ele><time>2026-04-18T12:30:46.001Z</time></trkpt><trkpt lat="46.089362719401095" lon="13.43566680251727"><ele>138.0</ele><time>2026-04-18T12:30:47.001Z</time></trkpt><trkpt lat="46.08935233368525" lon="13.43586783688676"><ele>138.0</ele><time>2026-04-18T12:30:48.001Z</time></trkpt><trkpt lat="46.08934070478313" lon="13.436064667994946"><ele>138.0</ele><time>2026-04-18T12:30:49.001Z</time></trkpt><trkpt lat="46.08932906413177" lon="13.436256480336008"><ele>138.0</ele><time>2026-04-18T12:30:50.001Z</time></trkpt><trkpt lat="46.08931922697984" lon="13.436436361775757"><ele>138.0</ele><time>2026-04-18T12:30:51.001Z</time></trkpt><trkpt lat="46.08930929404903" lon="13.436600887787659"><ele>138.0</ele><time>2026-04-18T12:30:52.001Z</time></trkpt><trkpt lat="46.08930283323479" lon="13.4367524559745"><ele>138.0</ele><time>2026-04-18T12:30:53.001Z</time></trkpt><trkpt lat="46.08930255903881" lon="13.436894253743878"><ele>138.0</ele><time>2026-04-18T12:30:54.001Z</time></trkpt><trkpt lat="46.08930387184737" lon="13.437032186537472"><ele>138.0</ele><time>2026-04-18T12:30:55.001Z</time></trkpt><trkpt lat="46.089303888684334" lon="13.437152644642744"><ele>138.4</ele><time>2026-04-18T12:30:56.001Z</time></trkpt><trkpt lat="46.0893020452845" lon="13.437266560372816"><ele>138.8</ele><time>2026-04-18T12:30:57.001Z</time></trkpt><trkpt lat="46.08928578108973" lon="13.43739834573433"><ele>139.2</ele><time>2026-04-18T12:30:58.001Z</time></trkpt><trkpt lat="46.08926825111077" lon="13.43754705755424"><ele>139.6</ele><time>2026-04-18T12:30:59.001Z</time></trkpt><trkpt lat="46.08926723344184" lon="13.437704394790739"><ele>140.0</ele><time>2026-04-18T12:31:00.001Z</time></trkpt><trkpt lat="46.089253480177085" lon="13.437835004582277"><ele>140.0</ele><time>2026-04-18T12:31:01.001Z</time></trkpt><trkpt lat="46.08922246660754" lon="13.43793845149675"><ele>140.0</ele><time>2026-04-18T12:31:02.001Z</time></trkpt><trkpt lat="46.089191632775396" lon="13.438021523712127"><ele>140.0</ele><time>2026-04-18T12:31:03.001Z</time></trkpt><trkpt lat="46.089155952257066" lon="13.438105992706602"><ele>140.0</ele><time>2026-04-18T12:31:06.001Z</time></trkpt><trkpt lat="46.08911483406399" lon="13.438200077416305"><ele>140.0</ele><time>2026-04-18T12:31:13.001Z</time></trkpt><trkpt lat="46.08907772048084" lon="13.438304042358048"><ele>140.0</ele><time>2026-04-18T12:31:15.001Z</time></trkpt><trkpt lat="46.089017072975736" lon="13.438403545582469"><ele>140.0</ele><time>2026-04-18T12:31:17.001Z</time></trkpt><trkpt lat="46.089158830330334" lon="13.438540668698387"><ele>140.0</ele><time>2026-04-18T12:31:19.001Z</time></trkpt><trkpt lat="46.08923220457147" lon="13.438572963463072"><ele>140.0</ele><time>2026-04-18T12:31:20.001Z</time></trkpt><trkpt lat="46.089307964796376" lon="13.43861685395904"><ele>140.0</ele><time>2026-04-18T12:31:21.001Z</time></trkpt><trkpt lat="46.0893901721821" lon="13.438650090378413"><ele>140.0</ele><time>2026-04-18T12:31:22.001Z</time></trkpt><trkpt lat="46.089473259246766" lon="13.438662355210042"><ele>140.0</ele><time>2026-04-18T12:31:23.001Z</time></trkpt><trkpt lat="46.0895571015089" lon="13.438658624281924"><ele>140.0</ele><time>2026-04-18T12:31:24.001Z</time></trkpt><trkpt lat="46.08963772063635" lon="13.438628814564938"><ele>140.0</ele><time>2026-04-18T12:31:25.001Z</time></trkpt><trkpt lat="46.08971095836516" lon="13.438595581467977"><ele>140.0</ele><time>2026-04-18T12:31:26.001Z</time></trkpt><trkpt lat="46.08977517475723" lon="13.438565340113916"><ele>140.0</ele><time>2026-04-18T12:31:27.001Z</time></trkpt><trkpt lat="46.0898762015624" lon="13.438541558731266"><ele>140.0</ele><time>2026-04-18T12:31:29.001Z</time></trkpt><trkpt lat="46.08995662833541" lon="13.43865426545782"><ele>140.0</ele><time>2026-04-18T12:31:31.001Z</time></trkpt><trkpt lat="46.08998835368258" lon="13.438733249454353"><ele>140.0</ele><time>2026-04-18T12:31:32.001Z</time></trkpt><trkpt lat="46.09001763850242" lon="13.438828987007948"><ele>140.0</ele><time>2026-04-18T12:31:33.001Z</time></trkpt><trkpt lat="46.09005206327171" lon="13.438934853946483"><ele>140.0</ele><time>2026-04-18T12:31:34.001Z</time></trkpt><trkpt lat="46.090090409502615" lon="13.439055927717586"><ele>140.0</ele><time>2026-04-18T12:31:35.001Z</time></trkpt><trkpt lat="46.09012783990454" lon="13.439186293009284"><ele>140.0</ele><time>2026-04-18T12:31:36.001Z</time></trkpt><trkpt lat="46.09017184268586" lon="13.439331590398336"><ele>139.75</ele><time>2026-04-18T12:31:37.001Z</time></trkpt><trkpt lat="46.09021995850752" lon="13.439488113771423"><ele>139.5</ele><time>2026-04-18T12:31:38.001Z</time></trkpt><trkpt lat="46.090264762796544" lon="13.43965007618944"><ele>139.25</ele><time>2026-04-18T12:31:39.001Z</time></trkpt><trkpt lat="46.09031231484933" lon="13.439823490979364"><ele>139.0</ele><time>2026-04-18T12:31:40.001Z</time></trkpt><trkpt lat="46.09035534519144" lon="13.439996613270297"><ele>139.0</ele><time>2026-04-18T12:31:41.001Z</time></trkpt><trkpt lat="46.09040067097732" lon="13.44017391768319"><ele>139.0</ele><time>2026-04-18T12:31:42.001Z</time></trkpt><trkpt lat="46.09044482946301" lon="13.44035154265994"><ele>139.0</ele><time>2026-04-18T12:31:43Z</time></trkpt><trkpt lat="46.09047897162991" lon="13.440496474261854"><ele>139.0</ele><time>2026-04-18T12:31:44Z</time></trkpt><trkpt lat="46.09050498990291" lon="13.440606737442916"><ele>139.0</ele><time>2026-04-18T12:31:45Z</time></trkpt><trkpt lat="46.09052693520315" lon="13.440703827688516"><ele>138.6</ele><time>2026-04-18T12:31:46Z</time></trkpt><trkpt lat="46.090546594727854" lon="13.440804257358918"><ele>138.2</ele><time>2026-04-18T12:31:47Z</time></trkpt><trkpt lat="46.090571942233666" lon="13.440927941558348"><ele>137.79999999999998</ele><time>2026-04-18T12:31:48Z</time></trkpt><trkpt lat="46.090603582698556" lon="13.441078422542413"><ele>137.4</ele><time>2026-04-18T12:31:49Z</time></trkpt><trkpt lat="46.090639680044696" lon="13.441245412525372"><ele>137.0</ele><time>2026-04-18T12:31:50Z</time></trkpt><trkpt lat="46.090689022518134" lon="13.441471951818507"><ele>137.0</ele><time>2026-04-18T12:31:51Z</time></trkpt><trkpt lat="46.09074126553105" lon="13.4417194269051"><ele>137.0</ele><time>2026-04-18T12:31:52Z</time></trkpt><trkpt lat="46.09079435147049" lon="13.441966036292499"><ele>137.0</ele><time>2026-04-18T12:31:53Z</time></trkpt><trkpt lat="46.090846511157565" lon="13.442201523660307"><ele>137.33333333333331</ele><time>2026-04-18T12:31:54Z</time></trkpt><trkpt lat="46.0909003243996" lon="13.442434375827835"><ele>137.66666666666666</ele><time>2026-04-18T12:31:55Z</time></trkpt><trkpt lat="46.09096084536477" lon="13.442662428567019"><ele>138.0</ele><time>2026-04-18T12:31:56Z</time></trkpt><trkpt lat="46.09102848418859" lon="13.442890900856703"><ele>138.33333333333334</ele><time>2026-04-18T12:31:57Z</time></trkpt><trkpt lat="46.091098544685046" lon="13.4431191391634"><ele>138.66666666666669</ele><time>2026-04-18T12:31:58Z</time></trkpt><trkpt lat="46.09116539031355" lon="13.443342605263405"><ele>139.0</ele><time>2026-04-18T12:31:59Z</time></trkpt><trkpt lat="46.09123557441146" lon="13.443559205977442"><ele>139.0</ele><time>2026-04-18T12:32:00Z</time></trkpt><trkpt lat="46.091303631350144" lon="13.443780516475602"><ele>139.0</ele><time>2026-04-18T12:32:01Z</time></trkpt><trkpt lat="46.091365643177575" lon="13.444005287407675"><ele>139.0</ele><time>2026-04-18T12:32:02Z</time></trkpt><trkpt lat="46.091421834039345" lon="13.444231770462553"><ele>138.66666666666669</ele><time>2026-04-18T12:32:03Z</time></trkpt><trkpt lat="46.09147185001583" lon="13.444461837809376"><ele>138.33333333333334</ele><time>2026-04-18T12:32:04Z</time></trkpt><trkpt lat="46.091512448464535" lon="13.444698770991437"><ele>138.0</ele><time>2026-04-18T12:32:05Z</time></trkpt><trkpt lat="46.09154468814646" lon="13.4449332385989"><ele>138.66666666666666</ele><time>2026-04-18T12:32:06Z</time></trkpt><trkpt lat="46.091572574320786" lon="13.445162798043876"><ele>139.33333333333331</ele><time>2026-04-18T12:32:07Z</time></trkpt><trkpt lat="46.091603193858546" lon="13.445384187432555"><ele>140.0</ele><time>2026-04-18T12:32:08Z</time></trkpt><trkpt lat="46.091625219451785" lon="13.445592008351289"><ele>140.25</ele><time>2026-04-18T12:32:09Z</time></trkpt><trkpt lat="46.091649704608386" lon="13.44578307527658"><ele>140.5</ele><time>2026-04-18T12:32:10Z</time></trkpt><trkpt lat="46.091676345295056" lon="13.445947737867492"><ele>140.75</ele><time>2026-04-18T12:32:11Z</time></trkpt><trkpt lat="46.091713066509776" lon="13.44609577099527"><ele>141.0</ele><time>2026-04-18T12:32:12Z</time></trkpt><trkpt lat="46.091753036499256" lon="13.44622936688101"><ele>141.25</ele><time>2026-04-18T12:32:13Z</time></trkpt><trkpt lat="46.09179377066941" lon="13.44636831422273"><ele>141.5</ele><time>2026-04-18T12:32:14Z</time></trkpt><trkpt lat="46.09183452612142" lon="13.446514317359732"><ele>141.75</ele><time>2026-04-18T12:32:15Z</time></trkpt><trkpt lat="46.091896669552774" lon="13.446651795229522"><ele>142.0</ele><time>2026-04-18T12:32:16Z</time></trkpt><trkpt lat="46.0918931550013" lon="13.446859764821335"><ele>142.0</ele><time>2026-04-18T12:32:17.001Z</time></trkpt><trkpt lat="46.091920082650766" lon="13.447046536416385"><ele>142.0</ele><time>2026-04-18T12:32:18.001Z</time></trkpt><trkpt lat="46.091972655507" lon="13.447257217562392"><ele>142.0</ele><time>2026-04-18T12:32:19.001Z</time></trkpt><trkpt lat="46.09204435409297" lon="13.447492774857384"><ele>143.0</ele><time>2026-04-18T12:32:20.001Z</time></trkpt><trkpt lat="46.09213189249727" lon="13.44775970390666"><ele>144.0</ele><time>2026-04-18T12:32:21.001Z</time></trkpt><trkpt lat="46.09221202615645" lon="13.447988584036144"><ele>145.0</ele><time>2026-04-18T12:32:22.001Z</time></trkpt><trkpt lat="46.0922711697521" lon="13.448170462439471"><ele>146.25</ele><time>2026-04-18T12:32:23.001Z</time></trkpt><trkpt lat="46.09231093719499" lon="13.44833247267682"><ele>147.5</ele><time>2026-04-18T12:32:24.001Z</time></trkpt><trkpt lat="46.09231662543616" lon="13.448485761116906"><ele>148.75</ele><time>2026-04-18T12:32:25.001Z</time></trkpt><trkpt lat="46.092283102252" lon="13.448653758045426"><ele>150.0</ele><time>2026-04-18T12:32:26.001Z</time></trkpt><trkpt lat="46.09223068659278" lon="13.448824476442299"><ele>150.5</ele><time>2026-04-18T12:32:27.001Z</time></trkpt><trkpt lat="46.09218347019746" lon="13.449011084647267"><ele>151.0</ele><time>2026-04-18T12:32:28.001Z</time></trkpt><trkpt lat="46.092146114202315" lon="13.449201011453416"><ele>151.5</ele><time>2026-04-18T12:32:29.001Z</time></trkpt><trkpt lat="46.09210969012935" lon="13.449408719564532"><ele>152.0</ele><time>2026-04-18T12:32:30.001Z</time></trkpt><trkpt lat="46.092069795421814" lon="13.449634353146621"><ele>154.0</ele><time>2026-04-18T12:32:31.001Z</time></trkpt><trkpt lat="46.09203031163928" lon="13.449872481165023"><ele>156.0</ele><time>2026-04-18T12:32:32.001Z</time></trkpt><trkpt lat="46.0919864060003" lon="13.450116006879558"><ele>158.0</ele><time>2026-04-18T12:32:33.001Z</time></trkpt><trkpt lat="46.091945750088314" lon="13.450349598486234"><ele>160.66666666666666</ele><time>2026-04-18T12:32:34.001Z</time></trkpt><trkpt lat="46.091913368625384" lon="13.45056046177759"><ele>163.33333333333334</ele><time>2026-04-18T12:32:35.001Z</time></trkpt><trkpt lat="46.09189594925007" lon="13.450774243810699"><ele>166.0</ele><time>2026-04-18T12:32:36.001Z</time></trkpt><trkpt lat="46.09188164459069" lon="13.450992991619923"><ele>166.0</ele><time>2026-04-18T12:32:37.001Z</time></trkpt><trkpt lat="46.091859878336436" lon="13.451196619590743"><ele>166.0</ele><time>2026-04-18T12:32:38.001Z</time></trkpt><trkpt lat="46.09183001559824" lon="13.451388819872149"><ele>166.0</ele><time>2026-04-18T12:32:39.001Z</time></trkpt><trkpt lat="46.09179508366968" lon="13.451565015756275"><ele>166.0</ele><time>2026-04-18T12:32:40.001Z</time></trkpt><trkpt lat="46.0917619665347" lon="13.451729947209374"><ele>167.0</ele><time>2026-04-18T12:32:41.001Z</time></trkpt><trkpt lat="46.091737021036046" lon="13.45189444368967"><ele>168.0</ele><time>2026-04-18T12:32:42.001Z</time></trkpt><trkpt lat="46.091736541344254" lon="13.452068896044581"><ele>169.0</ele><time>2026-04-18T12:32:43.001Z</time></trkpt><trkpt lat="46.09176777200459" lon="13.452245569505513"><ele>170.0</ele><time>2026-04-18T12:32:44.001Z</time></trkpt><trkpt lat="46.09182246743059" lon="13.452428932848745"><ele>170.0</ele><time>2026-04-18T12:32:45.001Z</time></trkpt><trkpt lat="46.091888887540655" lon="13.452627679803763"><ele>170.0</ele><time>2026-04-18T12:32:46.001Z</time></trkpt><trkpt lat="46.09195542182894" lon="13.452842745798762"><ele>170.0</ele><time>2026-04-18T12:32:47.001Z</time></trkpt><trkpt lat="46.09201034873758" lon="13.453063002198089"><ele>169.0</ele><time>2026-04-18T12:32:48.001Z</time></trkpt><trkpt lat="46.09205469111122" lon="13.453280560574958"><ele>168.0</ele><time>2026-04-18T12:32:49.001Z</time></trkpt><trkpt lat="46.092083273199975" lon="13.453495311443623"><ele>167.0</ele><time>2026-04-18T12:32:50.001Z</time></trkpt><trkpt lat="46.09209892351131" lon="13.453720396892864"><ele>168.0</ele><time>2026-04-18T12:32:51.001Z</time></trkpt><trkpt lat="46.09210212801611" lon="13.453955104471193"><ele>169.0</ele><time>2026-04-18T12:32:52.001Z</time></trkpt><trkpt lat="46.09210093361317" lon="13.454199209705541"><ele>170.0</ele><time>2026-04-18T12:32:53.001Z</time></trkpt><trkpt lat="46.0921034225916" lon="13.454456962707004"><ele>172.33333333333331</ele><time>2026-04-18T12:32:54.001Z</time></trkpt><trkpt lat="46.09210009436927" lon="13.454720716191078"><ele>174.66666666666666</ele><time>2026-04-18T12:32:55.001Z</time></trkpt><trkpt lat="46.09208866767688" lon="13.454982798657998"><ele>177.0</ele><time>2026-04-18T12:32:56.001Z</time></trkpt><trkpt lat="46.092059614047294" lon="13.45524995371311"><ele>180.0</ele><time>2026-04-18T12:32:57.001Z</time></trkpt><trkpt lat="46.092025051909346" lon="13.455522331304923"><ele>183.0</ele><time>2026-04-18T12:32:58.001Z</time></trkpt><trkpt lat="46.09199383790713" lon="13.455783448480839"><ele>186.0</ele><time>2026-04-18T12:32:59.001Z</time></trkpt><trkpt lat="46.091965272635605" lon="13.456041699460267"><ele>189.0</ele><time>2026-04-18T12:33:00.001Z</time></trkpt><trkpt lat="46.0919328770828" lon="13.456299039048668"><ele>192.0</ele><time>2026-04-18T12:33:01.001Z</time></trkpt><trkpt lat="46.09189448535703" lon="13.45656220085453"><ele>195.0</ele><time>2026-04-18T12:33:02.001Z</time></trkpt><trkpt lat="46.09185189737356" lon="13.456828528226808"><ele>195.0</ele><time>2026-04-18T12:33:03.001Z</time></trkpt><trkpt lat="46.09181911473698" lon="13.457088941890508"><ele>195.0</ele><time>2026-04-18T12:33:04.001Z</time></trkpt><trkpt lat="46.091800964610236" lon="13.457348918520008"><ele>195.0</ele><time>2026-04-18T12:33:05.001Z</time></trkpt><trkpt lat="46.091794003543626" lon="13.457613068547413"><ele>195.66666666666669</ele><time>2026-04-18T12:33:06.001Z</time></trkpt><trkpt lat="46.09178242818433" lon="13.457880780957487"><ele>196.33333333333334</ele><time>2026-04-18T12:33:07.001Z</time></trkpt><trkpt lat="46.09175567393655" lon="13.458152131254606"><ele>197.0</ele><time>2026-04-18T12:33:08.001Z</time></trkpt><trkpt lat="46.09171153099929" lon="13.458419777777921"><ele>194.66666666666669</ele><time>2026-04-18T12:33:09.001Z</time></trkpt><trkpt lat="46.09165918040212" lon="13.458677913739796"><ele>192.33333333333334</ele><time>2026-04-18T12:33:10.001Z</time></trkpt><trkpt lat="46.09159721764061" lon="13.458920611506171"><ele>190.0</ele><time>2026-04-18T12:33:11.001Z</time></trkpt><trkpt lat="46.091526928940134" lon="13.45913645258902"><ele>190.0</ele><time>2026-04-18T12:33:12.001Z</time></trkpt><trkpt lat="46.09145344054452" lon="13.459315366835742"><ele>190.0</ele><time>2026-04-18T12:33:13.001Z</time></trkpt><trkpt lat="46.09137029071644" lon="13.459506081055505"><ele>190.0</ele><time>2026-04-18T12:33:14.001Z</time></trkpt><trkpt lat="46.09130765439826" lon="13.45970606626134"><ele>193.66666666666669</ele><time>2026-04-18T12:33:15.001Z</time></trkpt><trkpt lat="46.091261418342405" lon="13.459933971502481"><ele>197.33333333333334</ele><time>2026-04-18T12:33:16.001Z</time></trkpt><trkpt lat="46.0912131560582" lon="13.460176585869682"><ele>201.0</ele><time>2026-04-18T12:33:17Z</time></trkpt><trkpt lat="46.091164100314735" lon="13.460423665982578"><ele>204.66666666666669</ele><time>2026-04-18T12:33:18Z</time></trkpt><trkpt lat="46.091117897772136" lon="13.460663522284658"><ele>208.33333333333334</ele><time>2026-04-18T12:33:19Z</time></trkpt><trkpt lat="46.091071886709834" lon="13.460890040780791"><ele>212.0</ele><time>2026-04-18T12:33:20Z</time></trkpt><trkpt lat="46.091024679512664" lon="13.461108454862769"><ele>214.5</ele><time>2026-04-18T12:33:21Z</time></trkpt><trkpt lat="46.09097564143138" lon="13.461316301748411"><ele>217.0</ele><time>2026-04-18T12:33:22Z</time></trkpt><trkpt lat="46.09091189501383" lon="13.461493966117681"><ele>219.5</ele><time>2026-04-18T12:33:23Z</time></trkpt><trkpt lat="46.09084095218553" lon="13.461657529597778"><ele>222.0</ele><time>2026-04-18T12:33:24Z</time></trkpt><trkpt lat="46.09077481067386" lon="13.461824807074521"><ele>223.0</ele><time>2026-04-18T12:33:25Z</time></trkpt><trkpt lat="46.090733443120406" lon="13.462008887559834"><ele>224.0</ele><time>2026-04-18T12:33:26Z</time></trkpt><trkpt lat="46.09072223004821" lon="13.462190402819033"><ele>225.0</ele><time>2026-04-18T12:33:27Z</time></trkpt><trkpt lat="46.09072004613367" lon="13.462340570045264"><ele>226.0</ele><time>2026-04-18T12:33:28Z</time></trkpt><trkpt lat="46.090723443364574" lon="13.46245851418283"><ele>227.0</ele><time>2026-04-18T12:33:29Z</time></trkpt><trkpt lat="46.09073095995598" lon="13.462566504471209"><ele>231.6</ele><time>2026-04-18T12:33:30Z</time></trkpt><trkpt lat="46.09072878590101" lon="13.462733457554128"><ele>236.2</ele><time>2026-04-18T12:33:32Z</time></trkpt><trkpt lat="46.09062025786014" lon="13.462788704906165"><ele>240.8</ele><time>2026-04-18T12:33:34Z</time></trkpt><trkpt lat="46.090567618743634" lon="13.462704713613052"><ele>245.4</ele><time>2026-04-18T12:33:35Z</time></trkpt><trkpt lat="46.090592551635055" lon="13.462550907835345"><ele>250.0</ele><time>2026-04-18T12:33:36Z</time></trkpt><trkpt lat="46.090574241959224" lon="13.462398658095825"><ele>249.99999999999997</ele><time>2026-04-18T12:33:37Z</time></trkpt><trkpt lat="46.09054097558768" lon="13.462266115109614"><ele>250.0</ele><time>2026-04-18T12:33:38Z</time></trkpt><trkpt lat="46.09049313127516" lon="13.462160653588187"><ele>250.0</ele><time>2026-04-18T12:33:39Z</time></trkpt><trkpt lat="46.090439773894936" lon="13.462092250724208"><ele>250.0</ele><time>2026-04-18T12:33:40Z</time></trkpt><trkpt lat="46.09036598256799" lon="13.462059636853322"><ele>249.99999999999997</ele><time>2026-04-18T12:33:41Z</time></trkpt><trkpt lat="46.0902935145577" lon="13.462103654515165"><ele>250.0</ele><time>2026-04-18T12:33:42Z</time></trkpt><trkpt lat="46.09025790946673" lon="13.462178945943759"><ele>249.99999999999997</ele><time>2026-04-18T12:33:43Z</time></trkpt><trkpt lat="46.09026952008506" lon="13.46227425336429"><ele>250.0</ele><time>2026-04-18T12:33:44Z</time></trkpt><trkpt lat="46.09031969756916" lon="13.462348745330386"><ele>250.0</ele><time>2026-04-18T12:33:45Z</time></trkpt><trkpt lat="46.090384841359736" lon="13.462411052813597"><ele>250.0</ele><time>2026-04-18T12:33:46Z</time></trkpt><trkpt lat="46.09040774839174" lon="13.462506328303668"><ele>249.99999999999997</ele><time>2026-04-18T12:33:47Z</time></trkpt><trkpt lat="46.09039060522747" lon="13.462635592220762"><ele>250.0</ele><time>2026-04-18T12:33:48Z</time></trkpt><trkpt lat="46.09035783895717" lon="13.462776816954575"><ele>250.0</ele><time>2026-04-18T12:33:49Z</time></trkpt><trkpt lat="46.09032351984495" lon="13.462923506500848"><ele>250.0</ele><time>2026-04-18T12:33:50Z</time></trkpt><trkpt lat="46.09029326956209" lon="13.463050610825825"><ele>250.0</ele><time>2026-04-18T12:33:51Z</time></trkpt><trkpt lat="46.090258572713914" lon="13.463168647912234"><ele>250.0</ele><time>2026-04-18T12:33:52Z</time></trkpt><trkpt lat="46.0902135093268" lon="13.463282444364937"><ele>250.0</ele><time>2026-04-18T12:33:53Z</time></trkpt><trkpt lat="46.090147063134054" lon="13.463389701915329"><ele>251.4</ele><time>2026-04-18T12:33:54Z</time></trkpt><trkpt lat="46.09007055133712" lon="13.463494713810006"><ele>252.8</ele><time>2026-04-18T12:33:55Z</time></trkpt><trkpt lat="46.090001090890446" lon="13.463589595739334"><ele>254.2</ele><time>2026-04-18T12:33:56Z</time></trkpt><trkpt lat="46.08994880346601" lon="13.463663690175988"><ele>255.6</ele><time>2026-04-18T12:33:57Z</time></trkpt><trkpt lat="46.0898880388127" lon="13.46381868163865"><ele>257.0</ele><time>2026-04-18T12:33:59Z</time></trkpt><trkpt lat="46.0898883133442" lon="13.463914840003058"><ele>262.8</ele><time>2026-04-18T12:34:00Z</time></trkpt><trkpt lat="46.08989055673714" lon="13.464007934536912"><ele>268.6</ele><time>2026-04-18T12:34:01Z</time></trkpt><trkpt lat="46.08986445945118" lon="13.46416354902407"><ele>274.40000000000003</ele><time>2026-04-18T12:34:03Z</time></trkpt><trkpt lat="46.08974045881024" lon="13.464160178548255"><ele>280.2</ele><time>2026-04-18T12:34:05Z</time></trkpt><trkpt lat="46.089710767578275" lon="13.464047910866995"><ele>286.0</ele><time>2026-04-18T12:34:06Z</time></trkpt><trkpt lat="46.089760345103784" lon="13.463930217587343"><ele>284.0</ele><time>2026-04-18T12:34:07Z</time></trkpt><trkpt lat="46.08976926733633" lon="13.463775194964443"><ele>282.0</ele><time>2026-04-18T12:34:08Z</time></trkpt><trkpt lat="46.089794231560894" lon="13.46359770724683"><ele>280.0</ele><time>2026-04-18T12:34:09Z</time></trkpt><trkpt lat="46.08980667615473" lon="13.463445128596264"><ele>278.0</ele><time>2026-04-18T12:34:10Z</time></trkpt><trkpt lat="46.0897977040954" lon="13.463300966545214"><ele>276.0</ele><time>2026-04-18T12:34:11Z</time></trkpt><trkpt lat="46.08977380538376" lon="13.463169086718953"><ele>276.0</ele><time>2026-04-18T12:34:12Z</time></trkpt><trkpt lat="46.08975088157134" lon="13.463043261355153"><ele>276.0</ele><time>2026-04-18T12:34:13Z</time></trkpt><trkpt lat="46.089660064748166" lon="13.46297789881993"><ele>276.0</ele><time>2026-04-18T12:34:14Z</time></trkpt><trkpt lat="46.08956364605153" lon="13.46287365360123"><ele>276.0</ele><time>2026-04-18T12:34:15Z</time></trkpt><trkpt lat="46.089460387658896" lon="13.462785712693373"><ele>276.0</ele><time>2026-04-18T12:34:16Z</time></trkpt><trkpt lat="46.0893823158557" lon="13.462719745153029"><ele>273.8333333333333</ele><time>2026-04-18T12:34:17Z</time></trkpt><trkpt lat="46.0893093317245" lon="13.462660922421051"><ele>271.6666666666667</ele><time>2026-04-18T12:34:18Z</time></trkpt><trkpt lat="46.08923919029261" lon="13.46262997804037"><ele>269.5</ele><time>2026-04-18T12:34:19Z</time></trkpt><trkpt lat="46.08912179764347" lon="13.462656457600737"><ele>267.33333333333337</ele><time>2026-04-18T12:34:21Z</time></trkpt><trkpt lat="46.08905410903442" lon="13.462706195372915"><ele>265.1666666666667</ele><time>2026-04-18T12:34:22.001Z</time></trkpt><trkpt lat="46.08898594014763" lon="13.462772384582657"><ele>263.0</ele><time>2026-04-18T12:34:23.001Z</time></trkpt><trkpt lat="46.08892572334128" lon="13.462884296114957"><ele>265.1666666666667</ele><time>2026-04-18T12:34:24.001Z</time></trkpt><trkpt lat="46.08887680471801" lon="13.462986494385714"><ele>267.33333333333337</ele><time>2026-04-18T12:34:25.001Z</time></trkpt><trkpt lat="46.08886404067401" lon="13.463097719093412"><ele>269.5</ele><time>2026-04-18T12:34:26.001Z</time></trkpt><trkpt lat="46.08888738389991" lon="13.463211949560863"><ele>271.6666666666667</ele><time>2026-04-18T12:34:27.001Z</time></trkpt><trkpt lat="46.08895567091694" lon="13.463303428720083"><ele>273.8333333333333</ele><time>2026-04-18T12:34:28.001Z</time></trkpt><trkpt lat="46.0890563796103" lon="13.463363544826297"><ele>276.0</ele><time>2026-04-18T12:34:29.001Z</time></trkpt><trkpt lat="46.089142123852355" lon="13.46341819680505"><ele>276.0</ele><time>2026-04-18T12:34:30.001Z</time></trkpt><trkpt lat="46.08920580155805" lon="13.46351774032229"><ele>276.0</ele><time>2026-04-18T12:34:31.001Z</time></trkpt><trkpt lat="46.08924538770326" lon="13.46366038574785"><ele>276.0</ele><time>2026-04-18T12:34:32.001Z</time></trkpt><trkpt lat="46.08925997216964" lon="13.463822210947797"><ele>276.0</ele><time>2026-04-18T12:34:33.001Z</time></trkpt><trkpt lat="46.08926097969608" lon="13.464001489506247"><ele>276.0</ele><time>2026-04-18T12:34:34.001Z</time></trkpt><trkpt lat="46.08923136387943" lon="13.464164863322214"><ele>278.5</ele><time>2026-04-18T12:34:35.001Z</time></trkpt><trkpt lat="46.089186587449326" lon="13.464331768304582"><ele>281.0</ele><time>2026-04-18T12:34:36.001Z</time></trkpt><trkpt lat="46.089132938442546" lon="13.464501722290173"><ele>283.5</ele><time>2026-04-18T12:34:37.001Z</time></trkpt><trkpt lat="46.08906595865026" lon="13.464667728595899"><ele>286.0</ele><time>2026-04-18T12:34:38.001Z</time></trkpt><trkpt lat="46.088985062096455" lon="13.464823198156504"><ele>289.0</ele><time>2026-04-18T12:34:39.001Z</time></trkpt><trkpt lat="46.0888848172589" lon="13.46496160787938"><ele>292.0</ele><time>2026-04-18T12:34:40.001Z</time></trkpt><trkpt lat="46.088790192069595" lon="13.465073585224047"><ele>295.0</ele><time>2026-04-18T12:34:41.001Z</time></trkpt><trkpt lat="46.08868075224981" lon="13.465144302157256"><ele>298.0</ele><time>2026-04-18T12:34:42.001Z</time></trkpt><trkpt lat="46.08856644252028" lon="13.465231175638188"><ele>298.0</ele><time>2026-04-18T12:34:43.001Z</time></trkpt><trkpt lat="46.08843829679553" lon="13.465318987350022"><ele>298.0</ele><time>2026-04-18T12:34:44.001Z</time></trkpt><trkpt lat="46.08830601707409" lon="13.465406775346468"><ele>298.0</ele><time>2026-04-18T12:34:45.001Z</time></trkpt><trkpt lat="46.088179008664" lon="13.465506391844514"><ele>298.0</ele><time>2026-04-18T12:34:46.001Z</time></trkpt><trkpt lat="46.08805914622463" lon="13.465647531571342"><ele>302.66666666666663</ele><time>2026-04-18T12:34:47.001Z</time></trkpt><trkpt lat="46.087950632924944" lon="13.465812628195517"><ele>307.3333333333333</ele><time>2026-04-18T12:34:48.001Z</time></trkpt><trkpt lat="46.087830370818715" lon="13.465963846085465"><ele>312.0</ele><time>2026-04-18T12:34:49.001Z</time></trkpt><trkpt lat="46.087704479407705" lon="13.466084713143575"><ele>312.0</ele><time>2026-04-18T12:34:50.001Z</time></trkpt><trkpt lat="46.08759087993361" lon="13.466228711287846"><ele>312.0</ele><time>2026-04-18T12:34:51.001Z</time></trkpt><trkpt lat="46.087496412671676" lon="13.466404161814603"><ele>312.0</ele><time>2026-04-18T12:34:52.001Z</time></trkpt><trkpt lat="46.087398814614424" lon="13.466583033778635"><ele>316.4</ele><time>2026-04-18T12:34:53.001Z</time></trkpt><trkpt lat="46.08730973040029" lon="13.466724646402037"><ele>320.79999999999995</ele><time>2026-04-18T12:34:54.001Z</time></trkpt><trkpt lat="46.087242176791136" lon="13.466857875943603"><ele>325.2</ele><time>2026-04-18T12:34:55.001Z</time></trkpt><trkpt lat="46.087184446387845" lon="13.46697603953512"><ele>329.59999999999997</ele><time>2026-04-18T12:34:56.001Z</time></trkpt><trkpt lat="46.08713568791498" lon="13.467095672034771"><ele>334.0</ele><time>2026-04-18T12:34:57.001Z</time></trkpt><trkpt lat="46.08708220961567" lon="13.467225433336099"><ele>334.0</ele><time>2026-04-18T12:34:58.001Z</time></trkpt><trkpt lat="46.087059048027406" lon="13.467433244877821"><ele>334.0</ele><time>2026-04-18T12:34:59.001Z</time></trkpt><trkpt lat="46.08723243713698" lon="13.467589320910873"><ele>334.0</ele><time>2026-04-18T12:35:00.001Z</time></trkpt><trkpt lat="46.08726437926671" lon="13.467756537044659"><ele>334.0</ele><time>2026-04-18T12:35:01.001Z</time></trkpt><trkpt lat="46.087279889868455" lon="13.467904469004027"><ele>334.0</ele><time>2026-04-18T12:35:02.001Z</time></trkpt><trkpt lat="46.08730256626733" lon="13.468017875598226"><ele>334.0</ele><time>2026-04-18T12:35:03Z</time></trkpt><trkpt lat="46.08735016938502" lon="13.468093951581933"><ele>334.0</ele><time>2026-04-18T12:35:04Z</time></trkpt><trkpt lat="46.08743142958951" lon="13.468131170044265"><ele>334.0</ele><time>2026-04-18T12:35:05Z</time></trkpt><trkpt lat="46.08753489652036" lon="13.468118921726143"><ele>334.0</ele><time>2026-04-18T12:35:06Z</time></trkpt><trkpt lat="46.087647450412426" lon="13.468089702799038"><ele>331.0</ele><time>2026-04-18T12:35:07Z</time></trkpt><trkpt lat="46.0877442073942" lon="13.468087807536728"><ele>328.0</ele><time>2026-04-18T12:35:08Z</time></trkpt><trkpt lat="46.087855997242364" lon="13.468117485530692"><ele>325.0</ele><time>2026-04-18T12:35:09Z</time></trkpt><trkpt lat="46.08797487609056" lon="13.46819858453373"><ele>322.0</ele><time>2026-04-18T12:35:10Z</time></trkpt><trkpt lat="46.08809315478454" lon="13.468314862652326"><ele>322.0</ele><time>2026-04-18T12:35:11Z</time></trkpt><trkpt lat="46.08820691709212" lon="13.46843082002197"><ele>322.0</ele><time>2026-04-18T12:35:12Z</time></trkpt><trkpt lat="46.08832700854098" lon="13.46854969125559"><ele>322.0</ele><time>2026-04-18T12:35:13Z</time></trkpt><trkpt lat="46.088447716638186" lon="13.468670210947433"><ele>322.0</ele><time>2026-04-18T12:35:14Z</time></trkpt><trkpt lat="46.0885502045434" lon="13.468777981356647"><ele>321.5</ele><time>2026-04-18T12:35:15Z</time></trkpt><trkpt lat="46.08863794216888" lon="13.468861507606233"><ele>321.0</ele><time>2026-04-18T12:35:16Z</time></trkpt><trkpt lat="46.08872463195799" lon="13.468951490225852"><ele>320.5</ele><time>2026-04-18T12:35:17Z</time></trkpt><trkpt lat="46.0887961024795" lon="13.469023090772245"><ele>320.0</ele><time>2026-04-18T12:35:18Z</time></trkpt><trkpt lat="46.08884505908818" lon="13.469105268549562"><ele>319.5</ele><time>2026-04-18T12:35:19Z</time></trkpt><trkpt lat="46.08886580049234" lon="13.469206092384121"><ele>319.0</ele><time>2026-04-18T12:35:20Z</time></trkpt><trkpt lat="46.088837499576265" lon="13.469312820593492"><ele>319.0</ele><time>2026-04-18T12:35:21Z</time></trkpt><trkpt lat="46.08875854412088" lon="13.469403778573412"><ele>319.0</ele><time>2026-04-18T12:35:22Z</time></trkpt><trkpt lat="46.088641343404966" lon="13.469453199017515"><ele>319.0</ele><time>2026-04-18T12:35:23Z</time></trkpt><trkpt lat="46.08849994890399" lon="13.469487492811675"><ele>319.0</ele><time>2026-04-18T12:35:24Z</time></trkpt><trkpt lat="46.08834596467254" lon="13.469531029749971"><ele>320.3333333333333</ele><time>2026-04-18T12:35:25Z</time></trkpt><trkpt lat="46.08820546007483" lon="13.469590954946815"><ele>321.6666666666667</ele><time>2026-04-18T12:35:26Z</time></trkpt><trkpt lat="46.088065164201915" lon="13.469667681890439"><ele>323.0</ele><time>2026-04-18T12:35:27Z</time></trkpt><trkpt lat="46.0879279993531" lon="13.469765631153908"><ele>320.75</ele><time>2026-04-18T12:35:28Z</time></trkpt><trkpt lat="46.08778570591763" lon="13.469834673493692"><ele>318.5</ele><time>2026-04-18T12:35:29Z</time></trkpt><trkpt lat="46.087644184848386" lon="13.469890963309691"><ele>316.25</ele><time>2026-04-18T12:35:30Z</time></trkpt><trkpt lat="46.087515732020265" lon="13.469964329363913"><ele>314.0</ele><time>2026-04-18T12:35:31Z</time></trkpt><trkpt lat="46.087384602810864" lon="13.470023278301554"><ele>314.0</ele><time>2026-04-18T12:35:32Z</time></trkpt><trkpt lat="46.08726934713445" lon="13.470128162907471"><ele>314.0</ele><time>2026-04-18T12:35:33Z</time></trkpt><trkpt lat="46.087169333369616" lon="13.470252161942526"><ele>314.0</ele><time>2026-04-18T12:35:34Z</time></trkpt><trkpt lat="46.08709209607849" lon="13.470405938994338"><ele>314.0</ele><time>2026-04-18T12:35:35Z</time></trkpt><trkpt lat="46.08702335698275" lon="13.470553596230136"><ele>312.25</ele><time>2026-04-18T12:35:36Z</time></trkpt><trkpt lat="46.08696790881015" lon="13.470711883676314"><ele>310.5</ele><time>2026-04-18T12:35:37Z</time></trkpt><trkpt lat="46.08692400133395" lon="13.470892220828272"><ele>308.75</ele><time>2026-04-18T12:35:38Z</time></trkpt><trkpt lat="46.086888643460355" lon="13.471093090098181"><ele>307.0</ele><time>2026-04-18T12:35:39Z</time></trkpt><trkpt lat="46.08685865163462" lon="13.471313068400336"><ele>303.0</ele><time>2026-04-18T12:35:40Z</time></trkpt><trkpt lat="46.086823104485354" lon="13.471522845135425"><ele>299.0</ele><time>2026-04-18T12:35:41Z</time></trkpt><trkpt lat="46.08677657064795" lon="13.4717288269762"><ele>295.0</ele><time>2026-04-18T12:35:42Z</time></trkpt><trkpt lat="46.0867303814958" lon="13.471937060436682"><ele>291.5</ele><time>2026-04-18T12:35:43Z</time></trkpt><trkpt lat="46.086678395537305" lon="13.472129118251283"><ele>288.0</ele><time>2026-04-18T12:35:44Z</time></trkpt><trkpt lat="46.08661178892466" lon="13.472296076875093"><ele>284.5</ele><time>2026-04-18T12:35:45Z</time></trkpt><trkpt lat="46.08652563336073" lon="13.47245259544304"><ele>281.0</ele><time>2026-04-18T12:35:46Z</time></trkpt><trkpt lat="46.08641918568729" lon="13.47259313202411"><ele>280.6666666666667</ele><time>2026-04-18T12:35:47Z</time></trkpt><trkpt lat="46.08630411205216" lon="13.472733395920958"><ele>280.3333333333333</ele><time>2026-04-18T12:35:48Z</time></trkpt><trkpt lat="46.08617777003349" lon="13.472881098226837"><ele>280.0</ele><time>2026-04-18T12:35:49Z</time></trkpt><trkpt lat="46.08604359697765" lon="13.47303067230605"><ele>278.3333333333333</ele><time>2026-04-18T12:35:50Z</time></trkpt><trkpt lat="46.08591949121427" lon="13.47319871267939"><ele>276.6666666666667</ele><time>2026-04-18T12:35:51Z</time></trkpt><trkpt lat="46.0858012207597" lon="13.473367578054894"><ele>275.0</ele><time>2026-04-18T12:35:52Z</time></trkpt><trkpt lat="46.085699156293515" lon="13.473550994540282"><ele>273.33333333333337</ele><time>2026-04-18T12:35:53Z</time></trkpt><trkpt lat="46.085604932096516" lon="13.473737382711462"><ele>271.6666666666667</ele><time>2026-04-18T12:35:54Z</time></trkpt><trkpt lat="46.085512193577365" lon="13.473924914391908"><ele>270.0</ele><time>2026-04-18T12:35:55Z</time></trkpt><trkpt lat="46.085422196406014" lon="13.474097070291828"><ele>270.0</ele><time>2026-04-18T12:35:56Z</time></trkpt><trkpt lat="46.085352898464585" lon="13.474248977011971"><ele>270.0</ele><time>2026-04-18T12:35:57Z</time></trkpt><trkpt lat="46.085304188050095" lon="13.474393513589884"><ele>270.0</ele><time>2026-04-18T12:35:58Z</time></trkpt><trkpt lat="46.08527431293212" lon="13.474551484126884"><ele>270.0</ele><time>2026-04-18T12:35:59Z</time></trkpt><trkpt lat="46.08527307970063" lon="13.474725329196446"><ele>270.6666666666667</ele><time>2026-04-18T12:36:00Z</time></trkpt><trkpt lat="46.08530077412512" lon="13.47491742288825"><ele>271.33333333333337</ele><time>2026-04-18T12:36:01Z</time></trkpt><trkpt lat="46.08535042158797" lon="13.475122000415972"><ele>272.0</ele><time>2026-04-18T12:36:02Z</time></trkpt><trkpt lat="46.08540582295138" lon="13.475345048517617"><ele>271.6666666666667</ele><time>2026-04-18T12:36:03Z</time></trkpt><trkpt lat="46.08545866139911" lon="13.475584594476311"><ele>271.3333333333333</ele><time>2026-04-18T12:36:04Z</time></trkpt><trkpt lat="46.085508246324416" lon="13.475819515954615"><ele>271.0</ele><time>2026-04-18T12:36:05Z</time></trkpt><trkpt lat="46.085551299651776" lon="13.476047343731953"><ele>270.66666666666663</ele><time>2026-04-18T12:36:06Z</time></trkpt><trkpt lat="46.08559767365164" lon="13.476270884884105"><ele>270.3333333333333</ele><time>2026-04-18T12:36:07Z</time></trkpt><trkpt lat="46.08564638794697" lon="13.476496984672329"><ele>270.0</ele><time>2026-04-18T12:36:08Z</time></trkpt><trkpt lat="46.085690864824095" lon="13.476729117061971"><ele>270.0</ele><time>2026-04-18T12:36:09Z</time></trkpt><trkpt lat="46.08572034383086" lon="13.476968439666063"><ele>270.0</ele><time>2026-04-18T12:36:10Z</time></trkpt><trkpt lat="46.08572567603544" lon="13.47721378634711"><ele>270.0</ele><time>2026-04-18T12:36:11Z</time></trkpt><trkpt lat="46.08572070313541" lon="13.477460319129625"><ele>269.0</ele><time>2026-04-18T12:36:12Z</time></trkpt><trkpt lat="46.08571947798578" lon="13.47769504111669"><ele>268.0</ele><time>2026-04-18T12:36:13Z</time></trkpt><trkpt lat="46.08572878848379" lon="13.477915334678022"><ele>267.0</ele><time>2026-04-18T12:36:14Z</time></trkpt><trkpt lat="46.08575725354155" lon="13.478129192089995"><ele>275.0</ele><time>2026-04-18T12:36:15Z</time></trkpt><trkpt lat="46.08580862826662" lon="13.478335605860105"><ele>283.0</ele><time>2026-04-18T12:36:16Z</time></trkpt><trkpt lat="46.0858701901712" lon="13.478549250925193"><ele>291.0</ele><time>2026-04-18T12:36:17Z</time></trkpt><trkpt lat="46.08593716426368" lon="13.478765874655682"><ele>292.0</ele><time>2026-04-18T12:36:18Z</time></trkpt><trkpt lat="46.086006882010736" lon="13.478983984602747"><ele>293.0</ele><time>2026-04-18T12:36:19Z</time></trkpt><trkpt lat="46.08607297645107" lon="13.479216124387717"><ele>294.0</ele><time>2026-04-18T12:36:20Z</time></trkpt><trkpt lat="46.08612977596738" lon="13.479462390300911"><ele>294.0</ele><time>2026-04-18T12:36:21Z</time></trkpt><trkpt lat="46.086178951099605" lon="13.479700734803442"><ele>294.0</ele><time>2026-04-18T12:36:22Z</time></trkpt><trkpt lat="46.08622105675554" lon="13.479921185861674"><ele>294.0</ele><time>2026-04-18T12:36:23Z</time></trkpt><trkpt lat="46.086255622572004" lon="13.480132758505464"><ele>294.0</ele><time>2026-04-18T12:36:24Z</time></trkpt><trkpt lat="46.08628751195353" lon="13.480333834565817"><ele>294.0</ele><time>2026-04-18T12:36:25Z</time></trkpt><trkpt lat="46.08631015261971" lon="13.480525150093936"><ele>294.0</ele><time>2026-04-18T12:36:26Z</time></trkpt><trkpt lat="46.08631938709254" lon="13.480710273760371"><ele>294.0</ele><time>2026-04-18T12:36:27.001Z</time></trkpt><trkpt lat="46.08631404511813" lon="13.480906127954643"><ele>295.3333333333333</ele><time>2026-04-18T12:36:28.001Z</time></trkpt><trkpt lat="46.086298340450675" lon="13.481117811892247"><ele>296.66666666666663</ele><time>2026-04-18T12:36:29.001Z</time></trkpt><trkpt lat="46.08628151236837" lon="13.481343818506302"><ele>298.0</ele><time>2026-04-18T12:36:30.001Z</time></trkpt><trkpt lat="46.08626798344948" lon="13.481553520171515"><ele>300.25</ele><time>2026-04-18T12:36:31.001Z</time></trkpt><trkpt lat="46.08625641452271" lon="13.481731000527315"><ele>302.5</ele><time>2026-04-18T12:36:32.001Z</time></trkpt><trkpt lat="46.0862521367858" lon="13.481888083911942"><ele>304.75</ele><time>2026-04-18T12:36:33.001Z</time></trkpt><trkpt lat="46.0862688623014" lon="13.482041337180215"><ele>307.0</ele><time>2026-04-18T12:36:34.001Z</time></trkpt><trkpt lat="46.086323930132075" lon="13.482191113962475"><ele>307.66666666666663</ele><time>2026-04-18T12:36:35.001Z</time></trkpt><trkpt lat="46.086399448221165" lon="13.482359329054166"><ele>308.3333333333333</ele><time>2026-04-18T12:36:36.001Z</time></trkpt><trkpt lat="46.08647663851147" lon="13.482551309224913"><ele>309.0</ele><time>2026-04-18T12:36:37.001Z</time></trkpt><trkpt lat="46.08655752590464" lon="13.48275240944917"><ele>313.3333333333333</ele><time>2026-04-18T12:36:38.001Z</time></trkpt><trkpt lat="46.08665250989682" lon="13.482951725188236"><ele>317.66666666666663</ele><time>2026-04-18T12:36:39.001Z</time></trkpt><trkpt lat="46.086761449983506" lon="13.48313841730404"><ele>322.0</ele><time>2026-04-18T12:36:40.001Z</time></trkpt><trkpt lat="46.08686170004143" lon="13.483311610908192"><ele>322.0</ele><time>2026-04-18T12:36:41.001Z</time></trkpt><trkpt lat="46.08695640416373" lon="13.483476281660126"><ele>322.0</ele><time>2026-04-18T12:36:42.001Z</time></trkpt><trkpt lat="46.087049022805" lon="13.483648269429976"><ele>322.0</ele><time>2026-04-18T12:36:43.001Z</time></trkpt><trkpt lat="46.08712132291065" lon="13.483837145428412"><ele>322.0</ele><time>2026-04-18T12:36:44.001Z</time></trkpt><trkpt lat="46.08716825422829" lon="13.484035842847053"><ele>319.75</ele><time>2026-04-18T12:36:45.001Z</time></trkpt><trkpt lat="46.08721074896902" lon="13.484211607883934"><ele>317.5</ele><time>2026-04-18T12:36:46.001Z</time></trkpt><trkpt lat="46.08725815140823" lon="13.484365747753229"><ele>315.25</ele><time>2026-04-18T12:36:47.001Z</time></trkpt><trkpt lat="46.08731766251831" lon="13.484501670693462"><ele>313.0</ele><time>2026-04-18T12:36:48.001Z</time></trkpt><trkpt lat="46.08739947867923" lon="13.484609783947214"><ele>319.0</ele><time>2026-04-18T12:36:49.001Z</time></trkpt><trkpt lat="46.08750966768374" lon="13.484693366731289"><ele>325.0</ele><time>2026-04-18T12:36:50.001Z</time></trkpt><trkpt lat="46.087642949678234" lon="13.484748001658843"><ele>331.0</ele><time>2026-04-18T12:36:51.001Z</time></trkpt><trkpt lat="46.08779570864524" lon="13.484795563096318"><ele>337.0</ele><time>2026-04-18T12:36:52.001Z</time></trkpt><trkpt lat="46.08795893757079" lon="13.484857479267982"><ele>337.0</ele><time>2026-04-18T12:36:53.001Z</time></trkpt><trkpt lat="46.08811652937677" lon="13.484930611849173"><ele>337.0</ele><time>2026-04-18T12:36:54.001Z</time></trkpt><trkpt lat="46.08826999878103" lon="13.48502257884532"><ele>337.0</ele><time>2026-04-18T12:36:55.001Z</time></trkpt><trkpt lat="46.08842431793548" lon="13.485132867746852"><ele>335.3333333333333</ele><time>2026-04-18T12:36:56.001Z</time></trkpt><trkpt lat="46.088577082260194" lon="13.485267487485098"><ele>333.6666666666667</ele><time>2026-04-18T12:36:57.001Z</time></trkpt><trkpt lat="46.08872400068082" lon="13.4854087212455"><ele>332.0</ele><time>2026-04-18T12:36:58.001Z</time></trkpt><trkpt lat="46.088860220738496" lon="13.485555490467892"><ele>332.0</ele><time>2026-04-18T12:36:59Z</time></trkpt><trkpt lat="46.08899336017395" lon="13.485691514411235"><ele>332.0</ele><time>2026-04-18T12:37:00Z</time></trkpt><trkpt lat="46.08911158683142" lon="13.485834933706894"><ele>332.0</ele><time>2026-04-18T12:37:01Z</time></trkpt><trkpt lat="46.08920918782843" lon="13.485989613121289"><ele>335.5</ele><time>2026-04-18T12:37:02Z</time></trkpt><trkpt lat="46.08928609385158" lon="13.486150065028307"><ele>339.0</ele><time>2026-04-18T12:37:03Z</time></trkpt><trkpt lat="46.08934289730371" lon="13.486321219519658"><ele>342.5</ele><time>2026-04-18T12:37:04Z</time></trkpt><trkpt lat="46.08938643682994" lon="13.486491248820164"><ele>346.0</ele><time>2026-04-18T12:37:05Z</time></trkpt><trkpt lat="46.089405236367526" lon="13.486669251495195"><ele>346.0</ele><time>2026-04-18T12:37:06Z</time></trkpt><trkpt lat="46.089410032225075" lon="13.486856341672853"><ele>346.0</ele><time>2026-04-18T12:37:07Z</time></trkpt><trkpt lat="46.089434486428054" lon="13.487026549251162"><ele>346.0</ele><time>2026-04-18T12:37:08Z</time></trkpt><trkpt lat="46.089482164749775" lon="13.487206139217333"><ele>346.0</ele><time>2026-04-18T12:37:09Z</time></trkpt><trkpt lat="46.089541309592214" lon="13.487393162178815"><ele>343.0</ele><time>2026-04-18T12:37:10Z</time></trkpt><trkpt lat="46.089618991508644" lon="13.48758308342143"><ele>340.0</ele><time>2026-04-18T12:37:11Z</time></trkpt><trkpt lat="46.08971641551093" lon="13.487766474148714"><ele>337.0</ele><time>2026-04-18T12:37:12Z</time></trkpt><trkpt lat="46.08983694293341" lon="13.487947699265417"><ele>342.3333333333333</ele><time>2026-04-18T12:37:13Z</time></trkpt><trkpt lat="46.089955959656486" lon="13.48813919593495"><ele>347.6666666666667</ele><time>2026-04-18T12:37:14Z</time></trkpt><trkpt lat="46.090052925793586" lon="13.488323610542391"><ele>353.0</ele><time>2026-04-18T12:37:15Z</time></trkpt><trkpt lat="46.09013000343666" lon="13.488480809815186"><ele>353.0</ele><time>2026-04-18T12:37:16Z</time></trkpt><trkpt lat="46.090180495124685" lon="13.488606438598843"><ele>353.0</ele><time>2026-04-18T12:37:17Z</time></trkpt><trkpt lat="46.09020969644925" lon="13.488746808291815"><ele>353.0</ele><time>2026-04-18T12:37:18Z</time></trkpt><trkpt lat="46.09020992585769" lon="13.48892933085508"><ele>353.0</ele><time>2026-04-18T12:37:19Z</time></trkpt><trkpt lat="46.09019336099104" lon="13.48913452287383"><ele>353.6666666666667</ele><time>2026-04-18T12:37:20Z</time></trkpt><trkpt lat="46.09018017518548" lon="13.489353896070416"><ele>354.3333333333333</ele><time>2026-04-18T12:37:21Z</time></trkpt><trkpt lat="46.09016659549298" lon="13.489598511839596"><ele>355.0</ele><time>2026-04-18T12:37:22Z</time></trkpt><trkpt lat="46.090145635158315" lon="13.489853158205737"><ele>356.0</ele><time>2026-04-18T12:37:23Z</time></trkpt><trkpt lat="46.090118027706126" lon="13.490090512220434"><ele>357.0</ele><time>2026-04-18T12:37:24Z</time></trkpt><trkpt lat="46.090079692115765" lon="13.490337427482713"><ele>358.0</ele><time>2026-04-18T12:37:25Z</time></trkpt><trkpt lat="46.09003345022202" lon="13.490583027512072"><ele>359.66666666666663</ele><time>2026-04-18T12:37:26Z</time></trkpt><trkpt lat="46.08999570989262" lon="13.490840114265922"><ele>361.3333333333333</ele><time>2026-04-18T12:37:27Z</time></trkpt><trkpt lat="46.089968437144016" lon="13.49111309813225"><ele>363.0</ele><time>2026-04-18T12:37:28Z</time></trkpt><trkpt lat="46.089952408210515" lon="13.491394701553986"><ele>365.0</ele><time>2026-04-18T12:37:29Z</time></trkpt><trkpt lat="46.08994560299263" lon="13.491665604197186"><ele>367.0</ele><time>2026-04-18T12:37:30Z</time></trkpt><trkpt lat="46.08993564988427" lon="13.491938183552762"><ele>369.0</ele><time>2026-04-18T12:37:31Z</time></trkpt><trkpt lat="46.08991740308689" lon="13.49221993477264"><ele>369.0</ele><time>2026-04-18T12:37:32Z</time></trkpt><trkpt lat="46.08990429072499" lon="13.492479400894522"><ele>369.0</ele><time>2026-04-18T12:37:33Z</time></trkpt><trkpt lat="46.0898975162855" lon="13.492728862716248"><ele>369.0</ele><time>2026-04-18T12:37:34Z</time></trkpt><trkpt lat="46.089896690639804" lon="13.492961626982526"><ele>369.0</ele><time>2026-04-18T12:37:35Z</time></trkpt><trkpt lat="46.0899019107561" lon="13.493188640478511"><ele>369.0</ele><time>2026-04-18T12:37:36Z</time></trkpt><trkpt lat="46.08990386496097" lon="13.493414238045311"><ele>369.0</ele><time>2026-04-18T12:37:37Z</time></trkpt><trkpt lat="46.08987638569676" lon="13.493637686711958"><ele>374.0</ele><time>2026-04-18T12:37:38Z</time></trkpt><trkpt lat="46.08983406076109" lon="13.493854257623262"><ele>379.0</ele><time>2026-04-18T12:37:39Z</time></trkpt><trkpt lat="46.08978856375404" lon="13.494047587171043"><ele>384.0</ele><time>2026-04-18T12:37:40Z</time></trkpt><trkpt lat="46.089736814828655" lon="13.494198450326978"><ele>389.0</ele><time>2026-04-18T12:37:41Z</time></trkpt><trkpt lat="46.08967017855644" lon="13.49431828398083"><ele>389.0</ele><time>2026-04-18T12:37:42Z</time></trkpt><trkpt lat="46.08957700094609" lon="13.494383894265965"><ele>389.0</ele><time>2026-04-18T12:37:43Z</time></trkpt><trkpt lat="46.08947445167756" lon="13.494377387261403"><ele>389.0</ele><time>2026-04-18T12:37:44Z</time></trkpt><trkpt lat="46.08937958437403" lon="13.494369637948742"><ele>389.0</ele><time>2026-04-18T12:37:45Z</time></trkpt><trkpt lat="46.089312291100015" lon="13.494413279380659"><ele>389.0</ele><time>2026-04-18T12:37:46Z</time></trkpt><trkpt lat="46.089273795218936" lon="13.494518234745497"><ele>391.2</ele><time>2026-04-18T12:37:47Z</time></trkpt><trkpt lat="46.08926231000888" lon="13.494658010955412"><ele>393.4</ele><time>2026-04-18T12:37:48Z</time></trkpt><trkpt lat="46.089246333784" lon="13.49480445582491"><ele>395.6</ele><time>2026-04-18T12:37:49Z</time></trkpt><trkpt lat="46.089226482336365" lon="13.494922755613795"><ele>397.8</ele><time>2026-04-18T12:37:50Z</time></trkpt><trkpt lat="46.08922830275087" lon="13.495015858512375"><ele>400.0</ele><time>2026-04-18T12:37:51Z</time></trkpt><trkpt lat="46.08932529214046" lon="13.495108402330018"><ele>400.0</ele><time>2026-04-18T12:37:53Z</time></trkpt><trkpt lat="46.08939659008269" lon="13.495093780456848"><ele>400.0</ele><time>2026-04-18T12:37:54Z</time></trkpt><trkpt lat="46.089450733232404" lon="13.49494881634337"><ele>400.0</ele><time>2026-04-18T12:37:55Z</time></trkpt><trkpt lat="46.08948342563531" lon="13.49484422311113"><ele>400.0</ele><time>2026-04-18T12:37:56Z</time></trkpt><trkpt lat="46.089587936344245" lon="13.494797107802706"><ele>400.0</ele><time>2026-04-18T12:37:58Z</time></trkpt><trkpt lat="46.08966701601213" lon="13.494851125459542"><ele>400.0</ele><time>2026-04-18T12:37:59Z</time></trkpt><trkpt lat="46.08976705877221" lon="13.494888044774003"><ele>400.0</ele><time>2026-04-18T12:38:00Z</time></trkpt><trkpt lat="46.08986831469124" lon="13.494927561237256"><ele>400.0</ele><time>2026-04-18T12:38:01Z</time></trkpt><trkpt lat="46.089949043550085" lon="13.494981280404495"><ele>400.0</ele><time>2026-04-18T12:38:02Z</time></trkpt><trkpt lat="46.09001306930984" lon="13.495084345388522"><ele>400.0</ele><time>2026-04-18T12:38:03Z</time></trkpt><trkpt lat="46.09006570928314" lon="13.495216264109988"><ele>403.5</ele><time>2026-04-18T12:38:04Z</time></trkpt><trkpt lat="46.09010219649369" lon="13.495380713165586"><ele>407.0</ele><time>2026-04-18T12:38:05Z</time></trkpt><trkpt lat="46.0901284972576" lon="13.495572791422852"><ele>410.5</ele><time>2026-04-18T12:38:06Z</time></trkpt><trkpt lat="46.090148939102185" lon="13.49578144602666"><ele>414.0</ele><time>2026-04-18T12:38:07Z</time></trkpt><trkpt lat="46.09016497087918" lon="13.496006430666146"><ele>416.0</ele><time>2026-04-18T12:38:08Z</time></trkpt><trkpt lat="46.0901774725345" lon="13.49623201556357"><ele>418.0</ele><time>2026-04-18T12:38:09Z</time></trkpt><trkpt lat="46.09020316867073" lon="13.496463746679632"><ele>420.0</ele><time>2026-04-18T12:38:10Z</time></trkpt><trkpt lat="46.09022757877309" lon="13.4967130309474"><ele>420.0</ele><time>2026-04-18T12:38:11Z</time></trkpt><trkpt lat="46.09025393648798" lon="13.496940954193654"><ele>420.0</ele><time>2026-04-18T12:38:12Z</time></trkpt><trkpt lat="46.090290360134155" lon="13.497166057482078"><ele>420.0</ele><time>2026-04-18T12:38:13Z</time></trkpt><trkpt lat="46.09034328771996" lon="13.497395089540106"><ele>420.0</ele><time>2026-04-18T12:38:14Z</time></trkpt><trkpt lat="46.09041032268952" lon="13.49763344682021"><ele>420.0</ele><time>2026-04-18T12:38:15Z</time></trkpt><trkpt lat="46.09047552417757" lon="13.497862751171272"><ele>420.0</ele><time>2026-04-18T12:38:16Z</time></trkpt><trkpt lat="46.09053079154862" lon="13.49809279640897"><ele>419.0</ele><time>2026-04-18T12:38:17Z</time></trkpt><trkpt lat="46.09058522603845" lon="13.498334110983832"><ele>418.0</ele><time>2026-04-18T12:38:18Z</time></trkpt><trkpt lat="46.09063785021515" lon="13.498573363757354"><ele>417.0</ele><time>2026-04-18T12:38:19Z</time></trkpt><trkpt lat="46.09069053674241" lon="13.498817249114225"><ele>415.33333333333337</ele><time>2026-04-18T12:38:20Z</time></trkpt><trkpt lat="46.09073826678633" lon="13.499055498121823"><ele>413.6666666666667</ele><time>2026-04-18T12:38:21Z</time></trkpt><trkpt lat="46.0907856377209" lon="13.499287346823502"><ele>412.0</ele><time>2026-04-18T12:38:22Z</time></trkpt><trkpt lat="46.0908355759309" lon="13.499513041565073"><ele>421.6666666666667</ele><time>2026-04-18T12:38:23Z</time></trkpt><trkpt lat="46.09088668785875" lon="13.499725600031287"><ele>431.33333333333337</ele><time>2026-04-18T12:38:24Z</time></trkpt><trkpt lat="46.090944000922505" lon="13.499941966662295"><ele>441.0</ele><time>2026-04-18T12:38:25Z</time></trkpt><trkpt lat="46.091006410820555" lon="13.500147998058496"><ele>441.0</ele><time>2026-04-18T12:38:26Z</time></trkpt><trkpt lat="46.091056685679945" lon="13.500370539943939"><ele>441.0</ele><time>2026-04-18T12:38:27Z</time></trkpt><trkpt lat="46.09108659665697" lon="13.500610126548542"><ele>441.0</ele><time>2026-04-18T12:38:28Z</time></trkpt><trkpt lat="46.09109726879789" lon="13.500863068869286"><ele>442.66666666666663</ele><time>2026-04-18T12:38:29Z</time></trkpt><trkpt lat="46.091092115144875" lon="13.501132801329435"><ele>444.3333333333333</ele><time>2026-04-18T12:38:30Z</time></trkpt><trkpt lat="46.09108542292271" lon="13.501414095468622"><ele>446.0</ele><time>2026-04-18T12:38:31Z</time></trkpt><trkpt lat="46.09108057001626" lon="13.501705692418604"><ele>447.3333333333333</ele><time>2026-04-18T12:38:32Z</time></trkpt><trkpt lat="46.09107629753458" lon="13.50196759620363"><ele>448.66666666666663</ele><time>2026-04-18T12:38:33.001Z</time></trkpt><trkpt lat="46.09107065492591" lon="13.502188571616895"><ele>450.0</ele><time>2026-04-18T12:38:34.001Z</time></trkpt><trkpt lat="46.09106748750682" lon="13.502389659222118"><ele>450.25</ele><time>2026-04-18T12:38:35.001Z</time></trkpt><trkpt lat="46.091066989010024" lon="13.502585895040287"><ele>450.5</ele><time>2026-04-18T12:38:36.001Z</time></trkpt><trkpt lat="46.09107329959821" lon="13.50274891982027"><ele>450.75</ele><time>2026-04-18T12:38:37.001Z</time></trkpt><trkpt lat="46.09108720028985" lon="13.502891920543101"><ele>451.0</ele><time>2026-04-18T12:38:38.001Z</time></trkpt><trkpt lat="46.09112489594529" lon="13.50304347263889"><ele>451.0</ele><time>2026-04-18T12:38:39.001Z</time></trkpt><trkpt lat="46.091178004706755" lon="13.503199374546169"><ele>451.0</ele><time>2026-04-18T12:38:40.001Z</time></trkpt><trkpt lat="46.091241586202095" lon="13.503340706129022"><ele>451.0</ele><time>2026-04-18T12:38:41.001Z</time></trkpt><trkpt lat="46.09130844626742" lon="13.503439552229153"><ele>451.0</ele><time>2026-04-18T12:38:42.001Z</time></trkpt><trkpt lat="46.09137879693465" lon="13.50354583115208"><ele>451.0</ele><time>2026-04-18T12:38:43Z</time></trkpt><trkpt lat="46.091450868778864" lon="13.503667015048887"><ele>448.25</ele><time>2026-04-18T12:38:44Z</time></trkpt><trkpt lat="46.091528874080545" lon="13.503801133725553"><ele>445.5</ele><time>2026-04-18T12:38:45Z</time></trkpt><trkpt lat="46.09161251981758" lon="13.503924774777948"><ele>442.75</ele><time>2026-04-18T12:38:46Z</time></trkpt><trkpt lat="46.091692836408775" lon="13.504053049355353"><ele>440.0</ele><time>2026-04-18T12:38:47Z</time></trkpt><trkpt lat="46.091769102113" lon="13.504185990136182"><ele>448.0</ele><time>2026-04-18T12:38:48Z</time></trkpt><trkpt lat="46.091846965647946" lon="13.504315754614497"><ele>456.0</ele><time>2026-04-18T12:38:49Z</time></trkpt><trkpt lat="46.0919233343426" lon="13.50444656716501"><ele>464.0</ele><time>2026-04-18T12:38:50Z</time></trkpt><trkpt lat="46.09200058702878" lon="13.504587172825035"><ele>472.0</ele><time>2026-04-18T12:38:51Z</time></trkpt><trkpt lat="46.092066030258486" lon="13.504707560966473"><ele>472.0</ele><time>2026-04-18T12:38:52Z</time></trkpt><trkpt lat="46.09212605262366" lon="13.504813227114886"><ele>472.00000000000006</ele><time>2026-04-18T12:38:53Z</time></trkpt><trkpt lat="46.09219066223422" lon="13.50490396168461"><ele>472.00000000000006</ele><time>2026-04-18T12:38:54Z</time></trkpt><trkpt lat="46.09227902629084" lon="13.504968097215949"><ele>472.0</ele><time>2026-04-18T12:38:55Z</time></trkpt><trkpt lat="46.092396643186895" lon="13.505015639742762"><ele>472.0</ele><time>2026-04-18T12:38:56Z</time></trkpt><trkpt lat="46.092522151257235" lon="13.505067503887615"><ele>477.0</ele><time>2026-04-18T12:38:57Z</time></trkpt><trkpt lat="46.09265012468542" lon="13.50512077572153"><ele>482.0</ele><time>2026-04-18T12:38:58Z</time></trkpt><trkpt lat="46.09276360829588" lon="13.505131355500316"><ele>487.0</ele><time>2026-04-18T12:38:59Z</time></trkpt><trkpt lat="46.092870343845924" lon="13.505110995159805"><ele>492.0</ele><time>2026-04-18T12:39:00Z</time></trkpt><trkpt lat="46.092973352480385" lon="13.505076337454772"><ele>492.0</ele><time>2026-04-18T12:39:01Z</time></trkpt><trkpt lat="46.09304753981476" lon="13.505047554350467"><ele>492.00000000000006</ele><time>2026-04-18T12:39:02Z</time></trkpt><trkpt lat="46.093161558541226" lon="13.505063477600682"><ele>492.00000000000006</ele><time>2026-04-18T12:39:04Z</time></trkpt><trkpt lat="46.09316073470967" lon="13.505217714304424"><ele>492.0</ele><time>2026-04-18T12:39:06Z</time></trkpt><trkpt lat="46.09308420704631" lon="13.505298179624228"><ele>492.0</ele><time>2026-04-18T12:39:07Z</time></trkpt><trkpt lat="46.0930066443861" lon="13.505418975536147"><ele>492.40000000000003</ele><time>2026-04-18T12:39:08Z</time></trkpt><trkpt lat="46.09295186659199" lon="13.505557305987491"><ele>492.80000000000007</ele><time>2026-04-18T12:39:09Z</time></trkpt><trkpt lat="46.09292475226615" lon="13.505697680067444"><ele>493.2</ele><time>2026-04-18T12:39:10Z</time></trkpt><trkpt lat="46.092914023660995" lon="13.505844104543556"><ele>493.6</ele><time>2026-04-18T12:39:11Z</time></trkpt><trkpt lat="46.092908539134" lon="13.505996417163583"><ele>494.0</ele><time>2026-04-18T12:39:12Z</time></trkpt><trkpt lat="46.09291761692862" lon="13.506132496266865"><ele>494.0</ele><time>2026-04-18T12:39:13Z</time></trkpt><trkpt lat="46.09292799339469" lon="13.506237114353485"><ele>494.0</ele><time>2026-04-18T12:39:14Z</time></trkpt><trkpt lat="46.09297527197133" lon="13.506382569456532"><ele>494.0</ele><time>2026-04-18T12:39:16Z</time></trkpt><trkpt lat="46.09308407692532" lon="13.506409919401877"><ele>494.0</ele><time>2026-04-18T12:39:18Z</time></trkpt><trkpt lat="46.09315542182799" lon="13.50622501838632"><ele>494.0</ele><time>2026-04-18T12:39:20Z</time></trkpt><trkpt lat="46.09314415001181" lon="13.50610267751274"><ele>494.0</ele><time>2026-04-18T12:39:21Z</time></trkpt><trkpt lat="46.09318518803677" lon="13.505992595327397"><ele>494.0</ele><time>2026-04-18T12:39:23Z</time></trkpt><trkpt lat="46.093290944844796" lon="13.506102952105024"><ele>494.0</ele><time>2026-04-18T12:39:25Z</time></trkpt><trkpt lat="46.09335079403639" lon="13.506247458863253"><ele>494.0</ele><time>2026-04-18T12:39:26Z</time></trkpt><trkpt lat="46.09341264477476" lon="13.506376820620634"><ele>494.0</ele><time>2026-04-18T12:39:27Z</time></trkpt><trkpt lat="46.09345591454407" lon="13.506465352942262"><ele>498.79999999999995</ele><time>2026-04-18T12:39:28Z</time></trkpt><trkpt lat="46.093505996373615" lon="13.506560075313267"><ele>503.59999999999997</ele><time>2026-04-18T12:39:29Z</time></trkpt><trkpt lat="46.09353954508217" lon="13.506672748535461"><ele>508.4</ele><time>2026-04-18T12:39:30Z</time></trkpt><trkpt lat="46.09354334790564" lon="13.506812168922162"><ele>513.1999999999999</ele><time>2026-04-18T12:39:31Z</time></trkpt><trkpt lat="46.09351815117715" lon="13.506965714381483"><ele>518.0</ele><time>2026-04-18T12:39:32Z</time></trkpt><trkpt lat="46.09348845205817" lon="13.507124816810883"><ele>519.25</ele><time>2026-04-18T12:39:33Z</time></trkpt><trkpt lat="46.093459974277685" lon="13.507286201080491"><ele>520.5</ele><time>2026-04-18T12:39:34Z</time></trkpt><trkpt lat="46.093448878222176" lon="13.507470943182984"><ele>521.75</ele><time>2026-04-18T12:39:35Z</time></trkpt><trkpt lat="46.09345683303976" lon="13.507684850188301"><ele>523.0</ele><time>2026-04-18T12:39:36Z</time></trkpt><trkpt lat="46.09346536523555" lon="13.50795113745298"><ele>526.0</ele><time>2026-04-18T12:39:37Z</time></trkpt><trkpt lat="46.09347238016573" lon="13.50826661183284"><ele>529.0</ele><time>2026-04-18T12:39:38Z</time></trkpt><trkpt lat="46.093479588706955" lon="13.508562214794742"><ele>532.0</ele><time>2026-04-18T12:39:39Z</time></trkpt><trkpt lat="46.09349018491477" lon="13.508827639674989"><ele>535.6666666666667</ele><time>2026-04-18T12:39:40Z</time></trkpt><trkpt lat="46.09351080592815" lon="13.509068808543542"><ele>539.3333333333334</ele><time>2026-04-18T12:39:41Z</time></trkpt><trkpt lat="46.093527119415334" lon="13.509293642655203"><ele>543.0</ele><time>2026-04-18T12:39:42Z</time></trkpt><trkpt lat="46.093521383272325" lon="13.509512909438596"><ele>546.0</ele><time>2026-04-18T12:39:43Z</time></trkpt><trkpt lat="46.09352256363123" lon="13.509734188455003"><ele>549.0</ele><time>2026-04-18T12:39:44Z</time></trkpt><trkpt lat="46.09350244098863" lon="13.509953740784043"><ele>552.0</ele><time>2026-04-18T12:39:45Z</time></trkpt><trkpt lat="46.09347070408266" lon="13.510163489375877"><ele>552.0</ele><time>2026-04-18T12:39:46Z</time></trkpt><trkpt lat="46.093432503145806" lon="13.51036774315162"><ele>552.0</ele><time>2026-04-18T12:39:47Z</time></trkpt><trkpt lat="46.09337222257148" lon="13.51056217726463"><ele>552.0</ele><time>2026-04-18T12:39:48Z</time></trkpt><trkpt lat="46.093317552106726" lon="13.510750380808055"><ele>552.0</ele><time>2026-04-18T12:39:49Z</time></trkpt><trkpt lat="46.09325277893308" lon="13.510931603731176"><ele>552.25</ele><time>2026-04-18T12:39:50Z</time></trkpt><trkpt lat="46.09317692920681" lon="13.51110017302259"><ele>552.5</ele><time>2026-04-18T12:39:51Z</time></trkpt><trkpt lat="46.09309386713383" lon="13.511280770434716"><ele>552.75</ele><time>2026-04-18T12:39:52Z</time></trkpt><trkpt lat="46.093006378193735" lon="13.511469918864664"><ele>553.0</ele><time>2026-04-18T12:39:53Z</time></trkpt><trkpt lat="46.092918525203295" lon="13.511659669051943"><ele>555.75</ele><time>2026-04-18T12:39:54Z</time></trkpt><trkpt lat="46.09284376551562" lon="13.511821139706022"><ele>558.5</ele><time>2026-04-18T12:39:55Z</time></trkpt><trkpt lat="46.09276836264331" lon="13.51199550111219"><ele>561.25</ele><time>2026-04-18T12:39:56Z</time></trkpt><trkpt lat="46.092704478666285" lon="13.512171972853832"><ele>564.0</ele><time>2026-04-18T12:39:57Z</time></trkpt><trkpt lat="46.09268277920169" lon="13.512336340364971"><ele>565.25</ele><time>2026-04-18T12:39:58Z</time></trkpt><trkpt lat="46.09265251051723" lon="13.51250438203482"><ele>566.5</ele><time>2026-04-18T12:39:59Z</time></trkpt><trkpt lat="46.092646183215074" lon="13.51269561222494"><ele>567.75</ele><time>2026-04-18T12:40:00Z</time></trkpt><trkpt lat="46.09266177380983" lon="13.51289587134227"><ele>569.0</ele><time>2026-04-18T12:40:01Z</time></trkpt><trkpt lat="46.09267405990295" lon="13.51310742761752"><ele>571.0</ele><time>2026-04-18T12:40:02Z</time></trkpt><trkpt lat="46.092681839130066" lon="13.513329312075586"><ele>573.0</ele><time>2026-04-18T12:40:03Z</time></trkpt><trkpt lat="46.09268307896056" lon="13.513562149429761"><ele>575.0</ele><time>2026-04-18T12:40:04Z</time></trkpt><trkpt lat="46.092664033564795" lon="13.513789113861831"><ele>577.6666666666666</ele><time>2026-04-18T12:40:05Z</time></trkpt><trkpt lat="46.09263150025007" lon="13.514017011251369"><ele>580.3333333333334</ele><time>2026-04-18T12:40:06Z</time></trkpt><trkpt lat="46.09259671860828" lon="13.514248499627852"><ele>583.0</ele><time>2026-04-18T12:40:07Z</time></trkpt><trkpt lat="46.0925623838905" lon="13.514479989919234"><ele>582.6666666666667</ele><time>2026-04-18T12:40:08Z</time></trkpt><trkpt lat="46.0925399415621" lon="13.514724974529466"><ele>582.3333333333334</ele><time>2026-04-18T12:40:09Z</time></trkpt><trkpt lat="46.09253496467355" lon="13.514989566250092"><ele>582.0</ele><time>2026-04-18T12:40:10Z</time></trkpt><trkpt lat="46.09253334408959" lon="13.515262246632975"><ele>582.3333333333334</ele><time>2026-04-18T12:40:11Z</time></trkpt><trkpt lat="46.09253343595645" lon="13.515528119670826"><ele>582.6666666666667</ele><time>2026-04-18T12:40:12Z</time></trkpt><trkpt lat="46.092542752889734" lon="13.515794425365208"><ele>583.0</ele><time>2026-04-18T12:40:13Z</time></trkpt><trkpt lat="46.09254736977218" lon="13.516058705188627"><ele>582.0</ele><time>2026-04-18T12:40:14Z</time></trkpt><trkpt lat="46.092557462811314" lon="13.516317794785179"><ele>581.0</ele><time>2026-04-18T12:40:15Z</time></trkpt><trkpt lat="46.09257038335619" lon="13.516572524825797"><ele>580.0</ele><time>2026-04-18T12:40:16Z</time></trkpt><trkpt lat="46.092590641652805" lon="13.51683682910655"><ele>577.6666666666667</ele><time>2026-04-18T12:40:17Z</time></trkpt><trkpt lat="46.092621370747054" lon="13.517111770319563"><ele>575.3333333333334</ele><time>2026-04-18T12:40:18Z</time></trkpt><trkpt lat="46.0926509240475" lon="13.517385126657171"><ele>573.0</ele><time>2026-04-18T12:40:19Z</time></trkpt><trkpt lat="46.09268314067007" lon="13.517654065546566"><ele>571.0</ele><time>2026-04-18T12:40:20Z</time></trkpt><trkpt lat="46.09271481195544" lon="13.51791294674045"><ele>569.0</ele><time>2026-04-18T12:40:21Z</time></trkpt><trkpt lat="46.09274423369498" lon="13.518159885135871"><ele>567.0</ele><time>2026-04-18T12:40:22Z</time></trkpt><trkpt lat="46.09277294606192" lon="13.51839399688881"><ele>567.0</ele><time>2026-04-18T12:40:23Z</time></trkpt><trkpt lat="46.09279571602035" lon="13.518618672985603"><ele>567.0</ele><time>2026-04-18T12:40:24Z</time></trkpt><trkpt lat="46.092815232072624" lon="13.518817452980864"><ele>567.0</ele><time>2026-04-18T12:40:25Z</time></trkpt><trkpt lat="46.09284093714209" lon="13.51899705215109"><ele>567.0</ele><time>2026-04-18T12:40:26Z</time></trkpt><trkpt lat="46.092876472041894" lon="13.519145325553719"><ele>565.25</ele><time>2026-04-18T12:40:27Z</time></trkpt><trkpt lat="46.0929307545602" lon="13.519272631175706"><ele>563.5</ele><time>2026-04-18T12:40:28Z</time></trkpt><trkpt lat="46.093016743288594" lon="13.51936928192607"><ele>561.75</ele><time>2026-04-18T12:40:29Z</time></trkpt><trkpt lat="46.09312935267287" lon="13.519463387182407"><ele>560.0</ele><time>2026-04-18T12:40:30Z</time></trkpt><trkpt lat="46.09323027675446" lon="13.519536315671614"><ele>563.5</ele><time>2026-04-18T12:40:31Z</time></trkpt><trkpt lat="46.09330874946724" lon="13.519594363928706"><ele>567.0</ele><time>2026-04-18T12:40:32Z</time></trkpt><trkpt lat="46.093371192065646" lon="13.519628691380486"><ele>570.5</ele><time>2026-04-18T12:40:33Z</time></trkpt><trkpt lat="46.093490343504" lon="13.51961902477164"><ele>574.0</ele><time>2026-04-18T12:40:35Z</time></trkpt><trkpt lat="46.093557817344504" lon="13.519624119110691"><ele>577.5</ele><time>2026-04-18T12:40:36Z</time></trkpt><trkpt lat="46.09365742666896" lon="13.519634972420183"><ele>581.0</ele><time>2026-04-18T12:40:38Z</time></trkpt><trkpt lat="46.093712092623775" lon="13.51976585704699"><ele>581.0</ele><time>2026-04-18T12:40:40Z</time></trkpt><trkpt lat="46.093757721588126" lon="13.519931009786724"><ele>581.0</ele><time>2026-04-18T12:40:42Z</time></trkpt><trkpt lat="46.093773245291224" lon="13.520051913692097"><ele>581.0</ele><time>2026-04-18T12:40:43Z</time></trkpt><trkpt lat="46.093785125437265" lon="13.520188935535884"><ele>581.0</ele><time>2026-04-18T12:40:44Z</time></trkpt><trkpt lat="46.09378240372366" lon="13.520335671411488"><ele>581.0</ele><time>2026-04-18T12:40:45Z</time></trkpt><trkpt lat="46.09378560293216" lon="13.520489704488417"><ele>579.8333333333333</ele><time>2026-04-18T12:40:46Z</time></trkpt><trkpt lat="46.09380160617705" lon="13.52061441558436"><ele>578.6666666666666</ele><time>2026-04-18T12:40:47Z</time></trkpt><trkpt lat="46.09381143314915" lon="13.520723221550119"><ele>577.5</ele><time>2026-04-18T12:40:48Z</time></trkpt><trkpt lat="46.09381731256572" lon="13.520824033079867"><ele>576.3333333333334</ele><time>2026-04-18T12:40:49Z</time></trkpt><trkpt lat="46.09383054762859" lon="13.520918948261894"><ele>575.1666666666667</ele><time>2026-04-18T12:40:50Z</time></trkpt><trkpt lat="46.09387039539916" lon="13.52106927736183"><ele>574.0</ele><time>2026-04-18T12:40:52Z</time></trkpt><trkpt lat="46.0939144696142" lon="13.521150977696733"><ele>574.0</ele><time>2026-04-18T12:40:54Z</time></trkpt><trkpt lat="46.093906149596506" lon="13.521325125942878"><ele>574.0</ele><time>2026-04-18T12:41:57Z</time></trkpt><trkpt lat="46.093855311962635" lon="13.521267140432219"><ele>574.0</ele><time>2026-04-18T12:49:30Z</time></trkpt><trkpt lat="46.09382714264544" lon="13.521156300345686"><ele>574.0</ele><time>2026-04-18T12:49:48Z</time></trkpt><trkpt lat="46.09381438715592" lon="13.521047292725907"><ele>574.0</ele><time>2026-04-18T12:49:50Z</time></trkpt><trkpt lat="46.09379648611024" lon="13.520911497488989"><ele>574.0</ele><time>2026-04-18T12:49:52Z</time></trkpt><trkpt lat="46.093780170516396" lon="13.520731460729916"><ele>574.0</ele><time>2026-04-18T12:49:54Z</time></trkpt><trkpt lat="46.0937836595743" lon="13.520617147467997"><ele>574.0</ele><time>2026-04-18T12:49:55Z</time></trkpt><trkpt lat="46.09378778584691" lon="13.520500723967537"><ele>574.0</ele><time>2026-04-18T12:49:56Z</time></trkpt><trkpt lat="46.09379090923703" lon="13.520383426106145"><ele>574.0</ele><time>2026-04-18T12:49:57Z</time></trkpt><trkpt lat="46.093790222269654" lon="13.5202692619699"><ele>574.0</ele><time>2026-04-18T12:49:58Z</time></trkpt><trkpt lat="46.09378620940146" lon="13.520157225241912"><ele>574.0</ele><time>2026-04-18T12:49:59Z</time></trkpt><trkpt lat="46.093772369797954" lon="13.520039974559904"><ele>575.1666666666667</ele><time>2026-04-18T12:50:00Z</time></trkpt><trkpt lat="46.09376093189588" lon="13.519929157914586"><ele>576.3333333333334</ele><time>2026-04-18T12:50:01Z</time></trkpt><trkpt lat="46.09374371138205" lon="13.519836197183555"><ele>577.5</ele><time>2026-04-18T12:50:02Z</time></trkpt><trkpt lat="46.093716242008824" lon="13.519706782505716"><ele>578.6666666666666</ele><time>2026-04-18T12:50:04Z</time></trkpt><trkpt lat="46.0937409600235" lon="13.519589125939659"><ele>579.8333333333333</ele><time>2026-04-18T12:50:06Z</time></trkpt><trkpt lat="46.093815678810834" lon="13.519490795564979"><ele>581.0</ele><time>2026-04-18T12:50:08Z</time></trkpt><trkpt lat="46.093919809029856" lon="13.519457177529686"><ele>581.8333333333333</ele><time>2026-04-18T12:50:10Z</time></trkpt><trkpt lat="46.09405278979439" lon="13.519475752685901"><ele>582.6666666666666</ele><time>2026-04-18T12:50:12Z</time></trkpt><trkpt lat="46.09412870536599" lon="13.519453682380618"><ele>583.5</ele><time>2026-04-18T12:50:13Z</time></trkpt><trkpt lat="46.09419301160991" lon="13.51941533178455"><ele>584.3333333333334</ele><time>2026-04-18T12:50:14Z</time></trkpt><trkpt lat="46.094259405422555" lon="13.51938085159519"><ele>585.1666666666667</ele><time>2026-04-18T12:50:15Z</time></trkpt><trkpt lat="46.09432423502174" lon="13.519345104534068"><ele>586.0</ele><time>2026-04-18T12:50:16Z</time></trkpt><trkpt lat="46.09438912865883" lon="13.51933193172579"><ele>586.0</ele><time>2026-04-18T12:50:17Z</time></trkpt><trkpt lat="46.0944354106237" lon="13.519264189177868"><ele>586.0</ele><time>2026-04-18T12:50:18Z</time></trkpt><trkpt lat="46.094549497849854" lon="13.51919641904711"><ele>586.0</ele><time>2026-04-18T12:50:20Z</time></trkpt><trkpt lat="46.09461037584826" lon="13.519153644576347"><ele>586.0</ele><time>2026-04-18T12:50:21Z</time></trkpt><trkpt lat="46.094673802961736" lon="13.519100954974851"><ele>586.0</ele><time>2026-04-18T12:50:22Z</time></trkpt><trkpt lat="46.09476189865801" lon="13.51903897051923"><ele>586.0</ele><time>2026-04-18T12:50:23Z</time></trkpt><trkpt lat="46.09484164168523" lon="13.51897432926419"><ele>586.0</ele><time>2026-04-18T12:50:24Z</time></trkpt><trkpt lat="46.09491556862665" lon="13.5189032829712"><ele>586.0</ele><time>2026-04-18T12:50:25Z</time></trkpt><trkpt lat="46.09498498089424" lon="13.518830911731627"><ele>586.0</ele><time>2026-04-18T12:50:26Z</time></trkpt><trkpt lat="46.09504592384414" lon="13.518756853182222"><ele>586.0</ele><time>2026-04-18T12:50:27Z</time></trkpt><trkpt lat="46.09515436132776" lon="13.518680999820784"><ele>586.0</ele><time>2026-04-18T12:50:29Z</time></trkpt><trkpt lat="46.09523636734558" lon="13.518767770958902"><ele>584.5</ele><time>2026-04-18T12:50:31Z</time></trkpt><trkpt lat="46.095213027743846" lon="13.518868135258183"><ele>583.0</ele><time>2026-04-18T12:50:32Z</time></trkpt><trkpt lat="46.09518780921604" lon="13.518986102474791"><ele>581.5</ele><time>2026-04-18T12:50:33Z</time></trkpt><trkpt lat="46.095166456212056" lon="13.519097108076139"><ele>580.0</ele><time>2026-04-18T12:50:34Z</time></trkpt><trkpt lat="46.09515027200849" lon="13.519222718995398"><ele>578.5</ele><time>2026-04-18T12:50:35Z</time></trkpt><trkpt lat="46.09514191601589" lon="13.519352654798096"><ele>577.0</ele><time>2026-04-18T12:50:36Z</time></trkpt><trkpt lat="46.095143414247524" lon="13.51948632354187"><ele>579.2</ele><time>2026-04-18T12:50:37Z</time></trkpt><trkpt lat="46.095140331348695" lon="13.519626186817419"><ele>581.4000000000001</ele><time>2026-04-18T12:50:38Z</time></trkpt><trkpt lat="46.09513866475284" lon="13.519769200153615"><ele>583.5999999999999</ele><time>2026-04-18T12:50:39Z</time></trkpt><trkpt lat="46.09514202648627" lon="13.51992177386085"><ele>585.8</ele><time>2026-04-18T12:50:40Z</time></trkpt><trkpt lat="46.09515399749764" lon="13.520082581674108"><ele>588.0</ele><time>2026-04-18T12:50:41Z</time></trkpt><trkpt lat="46.09516590670534" lon="13.5202518421257"><ele>586.0</ele><time>2026-04-18T12:50:42Z</time></trkpt><trkpt lat="46.09517562666422" lon="13.52042168291888"><ele>584.0</ele><time>2026-04-18T12:50:43Z</time></trkpt><trkpt lat="46.09518882206553" lon="13.520596050644155"><ele>582.0</ele><time>2026-04-18T12:50:44Z</time></trkpt><trkpt lat="46.09519967071513" lon="13.520776422043046"><ele>580.0</ele><time>2026-04-18T12:50:45Z</time></trkpt><trkpt lat="46.09521708869076" lon="13.520961206003609"><ele>580.0</ele><time>2026-04-18T12:50:46Z</time></trkpt><trkpt lat="46.095242752042" lon="13.521131705209463"><ele>580.0</ele><time>2026-04-18T12:50:47Z</time></trkpt><trkpt lat="46.09527283710492" lon="13.521300227137017"><ele>580.0</ele><time>2026-04-18T12:50:48Z</time></trkpt><trkpt lat="46.09530770547945" lon="13.52144922240161"><ele>580.0</ele><time>2026-04-18T12:50:49Z</time></trkpt><trkpt lat="46.09534125644968" lon="13.52159976810978"><ele>576.8</ele><time>2026-04-18T12:50:50Z</time></trkpt><trkpt lat="46.09535179777551" lon="13.521746775178274"><ele>573.6</ele><time>2026-04-18T12:50:51Z</time></trkpt><trkpt lat="46.09534807435091" lon="13.521902667884374"><ele>570.4</ele><time>2026-04-18T12:50:52Z</time></trkpt><trkpt lat="46.09536393866881" lon="13.52203522064062"><ele>567.2</ele><time>2026-04-18T12:50:53Z</time></trkpt><trkpt lat="46.09540625809899" lon="13.522149102305413"><ele>564.0</ele><time>2026-04-18T12:50:54Z</time></trkpt><trkpt lat="46.09547872010392" lon="13.522234169800374"><ele>563.0</ele><time>2026-04-18T12:50:55Z</time></trkpt><trkpt lat="46.095582957458994" lon="13.522277386774551"><ele>562.0</ele><time>2026-04-18T12:50:56Z</time></trkpt><trkpt lat="46.09569980402007" lon="13.522273999820081"><ele>561.0</ele><time>2026-04-18T12:50:57Z</time></trkpt><trkpt lat="46.09582517477919" lon="13.52225116053114"><ele>560.0</ele><time>2026-04-18T12:50:58Z</time></trkpt><trkpt lat="46.095957522947906" lon="13.52221851455272"><ele>560.0</ele><time>2026-04-18T12:50:59Z</time></trkpt><trkpt lat="46.09609621532493" lon="13.522209166385835"><ele>560.0</ele><time>2026-04-18T12:51:00Z</time></trkpt><trkpt lat="46.09622106434764" lon="13.52216370169152"><ele>560.0</ele><time>2026-04-18T12:51:01Z</time></trkpt><trkpt lat="46.09631924164229" lon="13.522179847127362"><ele>560.0</ele><time>2026-04-18T12:51:02Z</time></trkpt><trkpt lat="46.09640276289744" lon="13.522218669617383"><ele>560.0</ele><time>2026-04-18T12:51:02.999Z</time></trkpt><trkpt lat="46.09646072579812" lon="13.522296002594025"><ele>560.0</ele><time>2026-04-18T12:51:03.999Z</time></trkpt><trkpt lat="46.096492027625075" lon="13.522398215997718"><ele>560.0</ele><time>2026-04-18T12:51:04.999Z</time></trkpt><trkpt lat="46.09650311228057" lon="13.522522086491064"><ele>560.0</ele><time>2026-04-18T12:51:05.999Z</time></trkpt><trkpt lat="46.09647285898343" lon="13.52268303971058"><ele>560.0</ele><time>2026-04-18T12:51:06.999Z</time></trkpt><trkpt lat="46.09644125168871" lon="13.522847917249086"><ele>560.8</ele><time>2026-04-18T12:51:08Z</time></trkpt><trkpt lat="46.096414325107204" lon="13.523017632484384"><ele>561.6</ele><time>2026-04-18T12:51:09Z</time></trkpt><trkpt lat="46.09640098266116" lon="13.5231752271234"><ele>562.4</ele><time>2026-04-18T12:51:10Z</time></trkpt><trkpt lat="46.096415419986954" lon="13.523321100867774"><ele>563.2</ele><time>2026-04-18T12:51:11Z</time></trkpt><trkpt lat="46.09643699950074" lon="13.523438516857919"><ele>564.0</ele><time>2026-04-18T12:51:12Z</time></trkpt><trkpt lat="46.0964907373363" lon="13.523549541169356"><ele>564.0</ele><time>2026-04-18T12:51:13Z</time></trkpt><trkpt lat="46.09657366819077" lon="13.523626168567636"><ele>564.0</ele><time>2026-04-18T12:51:14Z</time></trkpt><trkpt lat="46.096678439735655" lon="13.523687351265654"><ele>564.0</ele><time>2026-04-18T12:51:15Z</time></trkpt><trkpt lat="46.096789434592125" lon="13.523750699210009"><ele>564.0</ele><time>2026-04-18T12:51:16Z</time></trkpt><trkpt lat="46.09690512947142" lon="13.52382526669349"><ele>566.4</ele><time>2026-04-18T12:51:17Z</time></trkpt><trkpt lat="46.09701111298826" lon="13.523895001376149"><ele>568.8</ele><time>2026-04-18T12:51:18Z</time></trkpt><trkpt lat="46.09711501726546" lon="13.523963984732038"><ele>571.2</ele><time>2026-04-18T12:51:19Z</time></trkpt><trkpt lat="46.09721308304553" lon="13.524024590508546"><ele>573.6</ele><time>2026-04-18T12:51:20Z</time></trkpt><trkpt lat="46.09730656912212" lon="13.524092525429639"><ele>576.0</ele><time>2026-04-18T12:51:21Z</time></trkpt><trkpt lat="46.09739220151307" lon="13.524204853174227"><ele>577.25</ele><time>2026-04-18T12:51:22Z</time></trkpt><trkpt lat="46.0974905134496" lon="13.524336951583832"><ele>578.5</ele><time>2026-04-18T12:51:23Z</time></trkpt><trkpt lat="46.09759554737665" lon="13.524450140500134"><ele>579.75</ele><time>2026-04-18T12:51:24Z</time></trkpt><trkpt lat="46.09774697064167" lon="13.524510260394825"><ele>581.0</ele><time>2026-04-18T12:51:25Z</time></trkpt><trkpt lat="46.0979031575145" lon="13.524550376244893"><ele>584.5</ele><time>2026-04-18T12:51:26Z</time></trkpt><trkpt lat="46.09803904630326" lon="13.524582799378852"><ele>588.0</ele><time>2026-04-18T12:51:27Z</time></trkpt><trkpt lat="46.09814738450433" lon="13.524684990817923"><ele>591.5</ele><time>2026-04-18T12:51:28Z</time></trkpt><trkpt lat="46.09823225970699" lon="13.52479738486898"><ele>595.0</ele><time>2026-04-18T12:51:29Z</time></trkpt><trkpt lat="46.09835134640267" lon="13.5248423810696"><ele>596.75</ele><time>2026-04-18T12:51:30Z</time></trkpt><trkpt lat="46.09849076168165" lon="13.524843472961663"><ele>598.5</ele><time>2026-04-18T12:51:31Z</time></trkpt><trkpt lat="46.09861186923118" lon="13.524854256995678"><ele>600.25</ele><time>2026-04-18T12:51:32Z</time></trkpt><trkpt lat="46.0987070547382" lon="13.524896768810803"><ele>602.0</ele><time>2026-04-18T12:51:33Z</time></trkpt><trkpt lat="46.098795261075125" lon="13.524985239525764"><ele>602.0</ele><time>2026-04-18T12:51:34Z</time></trkpt><trkpt lat="46.098869303837255" lon="13.525102052840506"><ele>602.0</ele><time>2026-04-18T12:51:35Z</time></trkpt><trkpt lat="46.09893876777099" lon="13.52520580560506"><ele>602.0</ele><time>2026-04-18T12:51:36Z</time></trkpt><trkpt lat="46.09901227712239" lon="13.525281989918604"><ele>602.0</ele><time>2026-04-18T12:51:37Z</time></trkpt><trkpt lat="46.09910171060585" lon="13.525345900765142"><ele>602.0</ele><time>2026-04-18T12:51:38Z</time></trkpt><trkpt lat="46.099177568241025" lon="13.52542025125161"><ele>605.5</ele><time>2026-04-18T12:51:39Z</time></trkpt><trkpt lat="46.099263339114884" lon="13.52546682529742"><ele>609.0</ele><time>2026-04-18T12:51:40Z</time></trkpt><trkpt lat="46.09934697712539" lon="13.525495619477892"><ele>612.5</ele><time>2026-04-18T12:51:41Z</time></trkpt><trkpt lat="46.09943137832225" lon="13.525511393500999"><ele>616.0</ele><time>2026-04-18T12:51:42Z</time></trkpt><trkpt lat="46.099515667958144" lon="13.52551148678758"><ele>619.5</ele><time>2026-04-18T12:51:43Z</time></trkpt><trkpt lat="46.0996061069373" lon="13.52550477091452"><ele>623.0</ele><time>2026-04-18T12:51:44Z</time></trkpt><trkpt lat="46.09969635692562" lon="13.525494640060593"><ele>623.0</ele><time>2026-04-18T12:51:45Z</time></trkpt><trkpt lat="46.099784157735975" lon="13.525477581834968"><ele>623.0</ele><time>2026-04-18T12:51:46Z</time></trkpt><trkpt lat="46.09987513734856" lon="13.52544908196418"><ele>623.0</ele><time>2026-04-18T12:51:47Z</time></trkpt><trkpt lat="46.0999644319779" lon="13.525415620451954"><ele>623.0</ele><time>2026-04-18T12:51:48Z</time></trkpt><trkpt lat="46.10004333366347" lon="13.525386618477064"><ele>623.0</ele><time>2026-04-18T12:51:49Z</time></trkpt><trkpt lat="46.100109793017054" lon="13.525365908503561"><ele>623.0</ele><time>2026-04-18T12:51:50Z</time></trkpt><trkpt lat="46.100194835519105" lon="13.52542807386067"><ele>621.3333333333333</ele><time>2026-04-18T12:51:52Z</time></trkpt><trkpt lat="46.10020001523648" lon="13.525520396948327"><ele>619.6666666666666</ele><time>2026-04-18T12:51:53Z</time></trkpt><trkpt lat="46.100165838152556" lon="13.525621466278572"><ele>618.0</ele><time>2026-04-18T12:51:54Z</time></trkpt><trkpt lat="46.100125075248776" lon="13.525714756758635"><ele>616.3333333333334</ele><time>2026-04-18T12:51:55Z</time></trkpt><trkpt lat="46.10008623089718" lon="13.525810883014692"><ele>614.6666666666667</ele><time>2026-04-18T12:51:56Z</time></trkpt><trkpt lat="46.100046874835904" lon="13.525916219231567"><ele>613.0</ele><time>2026-04-18T12:51:57Z</time></trkpt><trkpt lat="46.099999459883705" lon="13.52602111935474"><ele>613.0</ele><time>2026-04-18T12:51:58Z</time></trkpt><trkpt lat="46.09994548632838" lon="13.52613479717816"><ele>613.0</ele><time>2026-04-18T12:51:59Z</time></trkpt><trkpt lat="46.09988933186855" lon="13.526263191845603"><ele>613.0</ele><time>2026-04-18T12:52:00Z</time></trkpt><trkpt lat="46.099834762519706" lon="13.526407324828842"><ele>613.0</ele><time>2026-04-18T12:52:01Z</time></trkpt><trkpt lat="46.09977381074284" lon="13.526558602557495"><ele>613.0</ele><time>2026-04-18T12:52:02Z</time></trkpt><trkpt lat="46.09971009411669" lon="13.526717754444018"><ele>617.25</ele><time>2026-04-18T12:52:03Z</time></trkpt><trkpt lat="46.09965078373027" lon="13.526886049334593"><ele>621.5</ele><time>2026-04-18T12:52:04Z</time></trkpt><trkpt lat="46.09959571897969" lon="13.527069312157998"><ele>625.75</ele><time>2026-04-18T12:52:05Z</time></trkpt><trkpt lat="46.09955267750978" lon="13.527258357691787"><ele>630.0</ele><time>2026-04-18T12:52:06Z</time></trkpt><trkpt lat="46.099501505203285" lon="13.527453229136226"><ele>630.0</ele><time>2026-04-18T12:52:07Z</time></trkpt><trkpt lat="46.099475736285754" lon="13.527661901549775"><ele>630.0</ele><time>2026-04-18T12:52:08Z</time></trkpt><trkpt lat="46.09944658255039" lon="13.527868433165182"><ele>630.0</ele><time>2026-04-18T12:52:09Z</time></trkpt><trkpt lat="46.099401756851634" lon="13.528076701973573"><ele>630.0</ele><time>2026-04-18T12:52:10Z</time></trkpt><trkpt lat="46.099364209339086" lon="13.528291891844148"><ele>627.3333333333334</ele><time>2026-04-18T12:52:11Z</time></trkpt><trkpt lat="46.09931628449307" lon="13.52850143600162"><ele>624.6666666666667</ele><time>2026-04-18T12:52:12Z</time></trkpt><trkpt lat="46.09926652257201" lon="13.528706976994977"><ele>622.0</ele><time>2026-04-18T12:52:13Z</time></trkpt><trkpt lat="46.09922610049198" lon="13.52891172440602"><ele>620.75</ele><time>2026-04-18T12:52:14Z</time></trkpt><trkpt lat="46.0991800417605" lon="13.529109466665437"><ele>619.5</ele><time>2026-04-18T12:52:15Z</time></trkpt><trkpt lat="46.09915377700926" lon="13.529311969921666"><ele>618.25</ele><time>2026-04-18T12:52:16Z</time></trkpt><trkpt lat="46.09914170760384" lon="13.529519563221921"><ele>617.0</ele><time>2026-04-18T12:52:17Z</time></trkpt><trkpt lat="46.09914218118101" lon="13.529718577315515"><ele>615.5</ele><time>2026-04-18T12:52:18Z</time></trkpt><trkpt lat="46.099144673961405" lon="13.529897245424127"><ele>614.0</ele><time>2026-04-18T12:52:19Z</time></trkpt><trkpt lat="46.099164220527406" lon="13.53006601622443"><ele>612.5</ele><time>2026-04-18T12:52:20Z</time></trkpt><trkpt lat="46.09916882640631" lon="13.530230500062169"><ele>611.0</ele><time>2026-04-18T12:52:21Z</time></trkpt><trkpt lat="46.09916718554462" lon="13.530381941920048"><ele>609.4</ele><time>2026-04-18T12:52:22Z</time></trkpt><trkpt lat="46.099213327363664" lon="13.530518947340164"><ele>607.8</ele><time>2026-04-18T12:52:23Z</time></trkpt><trkpt lat="46.099265674428935" lon="13.530646131865264"><ele>606.1999999999999</ele><time>2026-04-18T12:52:24Z</time></trkpt><trkpt lat="46.09935001961802" lon="13.530747904308972"><ele>604.6</ele><time>2026-04-18T12:52:25Z</time></trkpt><trkpt lat="46.099455453546945" lon="13.530809797934479"><ele>603.0</ele><time>2026-04-18T12:52:26Z</time></trkpt><trkpt lat="46.09957613179357" lon="13.530859976199551"><ele>603.0</ele><time>2026-04-18T12:52:27Z</time></trkpt><trkpt lat="46.09968408245705" lon="13.53092689278173"><ele>603.0</ele><time>2026-04-18T12:52:28Z</time></trkpt><trkpt lat="46.099775245967656" lon="13.531021538761834"><ele>603.0</ele><time>2026-04-18T12:52:29Z</time></trkpt><trkpt lat="46.09985639032179" lon="13.531150504180525"><ele>603.0</ele><time>2026-04-18T12:52:30Z</time></trkpt><trkpt lat="46.09991835858852" lon="13.531295790826835"><ele>604.25</ele><time>2026-04-18T12:52:31Z</time></trkpt><trkpt lat="46.09997961830864" lon="13.531432401010388"><ele>605.5</ele><time>2026-04-18T12:52:32Z</time></trkpt><trkpt lat="46.10007270825273" lon="13.531530110346859"><ele>606.75</ele><time>2026-04-18T12:52:33Z</time></trkpt><trkpt lat="46.10018861909055" lon="13.531585520741865"><ele>608.0</ele><time>2026-04-18T12:52:34Z</time></trkpt><trkpt lat="46.100318636528044" lon="13.531630138342035"><ele>608.0</ele><time>2026-04-18T12:52:35Z</time></trkpt><trkpt lat="46.10044423700764" lon="13.531668217890504"><ele>608.0</ele><time>2026-04-18T12:52:36Z</time></trkpt><trkpt lat="46.10055542436749" lon="13.531675511285222"><ele>608.0</ele><time>2026-04-18T12:52:37Z</time></trkpt><trkpt lat="46.10065160086232" lon="13.531701510022096"><ele>608.0</ele><time>2026-04-18T12:52:38Z</time></trkpt><trkpt lat="46.10073997353987" lon="13.531696906354668"><ele>608.0</ele><time>2026-04-18T12:52:39Z</time></trkpt><trkpt lat="46.100823310261575" lon="13.531742514872187"><ele>607.6666666666666</ele><time>2026-04-18T12:52:40Z</time></trkpt><trkpt lat="46.10089635960787" lon="13.53180827530318"><ele>607.3333333333333</ele><time>2026-04-18T12:52:41Z</time></trkpt><trkpt lat="46.10095658565022" lon="13.531895311232926"><ele>607.0</ele><time>2026-04-18T12:52:42Z</time></trkpt><trkpt lat="46.10100453973075" lon="13.532000249545467"><ele>606.6666666666666</ele><time>2026-04-18T12:52:43Z</time></trkpt><trkpt lat="46.10104205113" lon="13.532112188753565"><ele>606.3333333333334</ele><time>2026-04-18T12:52:44Z</time></trkpt><trkpt lat="46.101056650304706" lon="13.532223203689979"><ele>606.0</ele><time>2026-04-18T12:52:45Z</time></trkpt><trkpt lat="46.101042732835595" lon="13.532341812600286"><ele>607.0</ele><time>2026-04-18T12:52:46Z</time></trkpt><trkpt lat="46.10102304145208" lon="13.532459208151378"><ele>608.0</ele><time>2026-04-18T12:52:47Z</time></trkpt><trkpt lat="46.10100386477176" lon="13.532580243287928"><ele>609.0</ele><time>2026-04-18T12:52:48Z</time></trkpt><trkpt lat="46.100980432366605" lon="13.53270672296125"><ele>610.0</ele><time>2026-04-18T12:52:49Z</time></trkpt><trkpt lat="46.100948635197646" lon="13.532839916833188"><ele>611.0</ele><time>2026-04-18T12:52:50Z</time></trkpt><trkpt lat="46.10090384187731" lon="13.532967917710636"><ele>611.0</ele><time>2026-04-18T12:52:51Z</time></trkpt><trkpt lat="46.10085633692966" lon="13.533099216769967"><ele>611.0</ele><time>2026-04-18T12:52:52Z</time></trkpt><trkpt lat="46.10079854643741" lon="13.533232867326008"><ele>611.0</ele><time>2026-04-18T12:52:53Z</time></trkpt><trkpt lat="46.10073710927401" lon="13.533365631580601"><ele>611.0</ele><time>2026-04-18T12:52:53.999Z</time></trkpt><trkpt lat="46.1006682114085" lon="13.533505130717483"><ele>611.0</ele><time>2026-04-18T12:52:54.999Z</time></trkpt><trkpt lat="46.100595647454746" lon="13.533654281114119"><ele>613.25</ele><time>2026-04-18T12:52:55.999Z</time></trkpt><trkpt lat="46.10052366236568" lon="13.533806364852174"><ele>615.5</ele><time>2026-04-18T12:52:56.999Z</time></trkpt><trkpt lat="46.10044734608885" lon="13.533967877880965"><ele>617.75</ele><time>2026-04-18T12:52:57.999Z</time></trkpt><trkpt lat="46.10036904598979" lon="13.534133520254981"><ele>620.0</ele><time>2026-04-18T12:52:58.999Z</time></trkpt><trkpt lat="46.10028809436372" lon="13.534304709802935"><ele>620.0</ele><time>2026-04-18T12:52:59.999Z</time></trkpt><trkpt lat="46.100204785739145" lon="13.534480428121942"><ele>620.0</ele><time>2026-04-18T12:53:00.999Z</time></trkpt><trkpt lat="46.10012209553183" lon="13.534657349583414"><ele>620.0</ele><time>2026-04-18T12:53:01.999Z</time></trkpt><trkpt lat="46.1000411204534" lon="13.534826359444802"><ele>620.0</ele><time>2026-04-18T12:53:02.999Z</time></trkpt><trkpt lat="46.099965061571915" lon="13.534985985755378"><ele>617.0</ele><time>2026-04-18T12:53:03.999Z</time></trkpt><trkpt lat="46.099887453256784" lon="13.53514871008865"><ele>614.0</ele><time>2026-04-18T12:53:04.999Z</time></trkpt><trkpt lat="46.09980441656893" lon="13.535310004012945"><ele>611.0</ele><time>2026-04-18T12:53:05.999Z</time></trkpt><trkpt lat="46.099726183970105" lon="13.535461642620136"><ele>608.0</ele><time>2026-04-18T12:53:06.999Z</time></trkpt><trkpt lat="46.099647619253844" lon="13.535620559414212"><ele>608.0</ele><time>2026-04-18T12:53:07.999Z</time></trkpt><trkpt lat="46.09956405217088" lon="13.535783868755686"><ele>608.0</ele><time>2026-04-18T12:53:08.999Z</time></trkpt><trkpt lat="46.09948608293403" lon="13.535957735465592"><ele>608.0</ele><time>2026-04-18T12:53:09.999Z</time></trkpt><trkpt lat="46.09941808198485" lon="13.53614436939313"><ele>608.0</ele><time>2026-04-18T12:53:10.999Z</time></trkpt><trkpt lat="46.09935080041565" lon="13.53634341281962"><ele>610.6666666666666</ele><time>2026-04-18T12:53:11.999Z</time></trkpt><trkpt lat="46.0992830063156" lon="13.536540923286234"><ele>613.3333333333334</ele><time>2026-04-18T12:53:12.999Z</time></trkpt><trkpt lat="46.09920909954877" lon="13.536731981375262"><ele>616.0</ele><time>2026-04-18T12:53:14Z</time></trkpt><trkpt lat="46.09912632027474" lon="13.53690612366217"><ele>613.0</ele><time>2026-04-18T12:53:15Z</time></trkpt><trkpt lat="46.09903930040898" lon="13.53706163308562"><ele>610.0</ele><time>2026-04-18T12:53:16Z</time></trkpt><trkpt lat="46.0989452439739" lon="13.537196079808867"><ele>607.0</ele><time>2026-04-18T12:53:17Z</time></trkpt><trkpt lat="46.098843257465546" lon="13.537302512063926"><ele>604.0</ele><time>2026-04-18T12:53:18Z</time></trkpt><trkpt lat="46.098736402681084" lon="13.537379253000646"><ele>604.0</ele><time>2026-04-18T12:53:19Z</time></trkpt><trkpt lat="46.098617433993496" lon="13.53740323375059"><ele>604.0</ele><time>2026-04-18T12:53:20Z</time></trkpt><trkpt lat="46.098499972250785" lon="13.537409880336828"><ele>604.0</ele><time>2026-04-18T12:53:21Z</time></trkpt><trkpt lat="46.0983789845283" lon="13.53742657123613"><ele>604.0</ele><time>2026-04-18T12:53:22Z</time></trkpt><trkpt lat="46.09827383412772" lon="13.537483972189271"><ele>598.0</ele><time>2026-04-18T12:53:23Z</time></trkpt><trkpt lat="46.09820085512738" lon="13.537587711734963"><ele>592.0</ele><time>2026-04-18T12:53:24Z</time></trkpt><trkpt lat="46.098132378563186" lon="13.537687050581916"><ele>586.0</ele><time>2026-04-18T12:53:25Z</time></trkpt><trkpt lat="46.098079567820115" lon="13.53780335863618"><ele>580.0</ele><time>2026-04-18T12:53:26Z</time></trkpt><trkpt lat="46.0980377712492" lon="13.537921370819975"><ele>574.0</ele><time>2026-04-18T12:53:27Z</time></trkpt><trkpt lat="46.098001156561466" lon="13.538035072460426"><ele>573.6666666666667</ele><time>2026-04-18T12:53:28Z</time></trkpt><trkpt lat="46.09797735153013" lon="13.538139935843002"><ele>573.3333333333334</ele><time>2026-04-18T12:53:29Z</time></trkpt><trkpt lat="46.09797578345117" lon="13.538245454229056"><ele>573.0</ele><time>2026-04-18T12:53:30Z</time></trkpt><trkpt lat="46.09801242407574" lon="13.538350561953669"><ele>572.6666666666666</ele><time>2026-04-18T12:53:31Z</time></trkpt><trkpt lat="46.09807486353803" lon="13.538446183012104"><ele>572.3333333333333</ele><time>2026-04-18T12:53:32Z</time></trkpt><trkpt lat="46.09814244324532" lon="13.538538980298355"><ele>572.0</ele><time>2026-04-18T12:53:33Z</time></trkpt><trkpt lat="46.098199212227016" lon="13.538627853609995"><ele>568.8000000000001</ele><time>2026-04-18T12:53:34Z</time></trkpt><trkpt lat="46.09824168524504" lon="13.538737707637239"><ele>565.6</ele><time>2026-04-18T12:53:35Z</time></trkpt><trkpt lat="46.09826339014411" lon="13.538857181198113"><ele>562.4000000000001</ele><time>2026-04-18T12:53:36Z</time></trkpt><trkpt lat="46.09828514999516" lon="13.538996030246029"><ele>559.2</ele><time>2026-04-18T12:53:37Z</time></trkpt><trkpt lat="46.09831132469843" lon="13.539135216915339"><ele>556.0</ele><time>2026-04-18T12:53:38Z</time></trkpt><trkpt lat="46.09833280256682" lon="13.539277436748648"><ele>561.4</ele><time>2026-04-18T12:53:39Z</time></trkpt><trkpt lat="46.098353548028896" lon="13.539419058947463"><ele>566.8</ele><time>2026-04-18T12:53:40Z</time></trkpt><trkpt lat="46.098372185516816" lon="13.539559662612815"><ele>572.1999999999999</ele><time>2026-04-18T12:53:41Z</time></trkpt><trkpt lat="46.0983820282133" lon="13.539704368613483"><ele>577.6</ele><time>2026-04-18T12:53:42Z</time></trkpt><trkpt lat="46.098380937017815" lon="13.539856576565453"><ele>583.0</ele><time>2026-04-18T12:53:43Z</time></trkpt><trkpt lat="46.09837041492906" lon="13.540014967682787"><ele>583.0</ele><time>2026-04-18T12:53:44Z</time></trkpt><trkpt lat="46.09835700529034" lon="13.540176564518784"><ele>583.0</ele><time>2026-04-18T12:53:45Z</time></trkpt><trkpt lat="46.098347012407594" lon="13.540349881332565"><ele>583.0</ele><time>2026-04-18T12:53:46Z</time></trkpt><trkpt lat="46.09833521603013" lon="13.5405319241714"><ele>583.0</ele><time>2026-04-18T12:53:47Z</time></trkpt><trkpt lat="46.098314848973835" lon="13.54071789164316"><ele>581.25</ele><time>2026-04-18T12:53:48Z</time></trkpt><trkpt lat="46.09829286300144" lon="13.540911002196458"><ele>579.5</ele><time>2026-04-18T12:53:49Z</time></trkpt><trkpt lat="46.09826801564843" lon="13.541106654805608"><ele>577.75</ele><time>2026-04-18T12:53:50Z</time></trkpt><trkpt lat="46.09823383997349" lon="13.54131845562278"><ele>576.0</ele><time>2026-04-18T12:53:51Z</time></trkpt><trkpt lat="46.09819530518565" lon="13.541538846388843"><ele>562.0</ele><time>2026-04-18T12:53:52Z</time></trkpt><trkpt lat="46.09815299531789" lon="13.541765361857507"><ele>548.0</ele><time>2026-04-18T12:53:53Z</time></trkpt><trkpt lat="46.09811026229278" lon="13.541978481583842"><ele>534.0</ele><time>2026-04-18T12:53:54Z</time></trkpt><trkpt lat="46.098056229919045" lon="13.542179972609722"><ele>534.0</ele><time>2026-04-18T12:53:55Z</time></trkpt><trkpt lat="46.09799387001948" lon="13.542382882149006"><ele>534.0</ele><time>2026-04-18T12:53:56Z</time></trkpt><trkpt lat="46.0979344819763" lon="13.542587403783983"><ele>534.0</ele><time>2026-04-18T12:53:57Z</time></trkpt><trkpt lat="46.097891222920715" lon="13.542802589396862"><ele>535.6666666666666</ele><time>2026-04-18T12:53:58Z</time></trkpt><trkpt lat="46.097861699144545" lon="13.543037457890094"><ele>537.3333333333333</ele><time>2026-04-18T12:53:59Z</time></trkpt><trkpt lat="46.09783162651079" lon="13.543263113620352"><ele>539.0</ele><time>2026-04-18T12:54:00Z</time></trkpt><trkpt lat="46.0978028282802" lon="13.543472543231498"><ele>539.0</ele><time>2026-04-18T12:54:01Z</time></trkpt><trkpt lat="46.097764401142555" lon="13.54366673625054"><ele>539.0</ele><time>2026-04-18T12:54:02Z</time></trkpt><trkpt lat="46.09770771334732" lon="13.543845179428848"><ele>539.0</ele><time>2026-04-18T12:54:03Z</time></trkpt><trkpt lat="46.097639969450256" lon="13.543999536829538"><ele>539.0</ele><time>2026-04-18T12:54:04Z</time></trkpt><trkpt lat="46.097558801672" lon="13.544142617663965"><ele>536.0</ele><time>2026-04-18T12:54:05Z</time></trkpt><trkpt lat="46.09746763180191" lon="13.544272908390626"><ele>533.0</ele><time>2026-04-18T12:54:06Z</time></trkpt><trkpt lat="46.09735080135908" lon="13.544328743743444"><ele>530.0</ele><time>2026-04-18T12:54:07Z</time></trkpt><trkpt lat="46.09726041585992" lon="13.544384199738436"><ele>527.0</ele><time>2026-04-18T12:54:08Z</time></trkpt><trkpt lat="46.097163719293455" lon="13.544412647257117"><ele>524.0</ele><time>2026-04-18T12:54:09Z</time></trkpt><trkpt lat="46.09706729607415" lon="13.544373266638477"><ele>524.0</ele><time>2026-04-18T12:54:10Z</time></trkpt><trkpt lat="46.096987919161045" lon="13.544359455975938"><ele>524.0</ele><time>2026-04-18T12:54:11Z</time></trkpt><trkpt lat="46.096909646316234" lon="13.544375519647645"><ele>524.0</ele><time>2026-04-18T12:54:12Z</time></trkpt><trkpt lat="46.096837984053785" lon="13.54447286064506"><ele>524.0</ele><time>2026-04-18T12:54:13Z</time></trkpt><trkpt lat="46.096815890971676" lon="13.544615277809859"><ele>524.0</ele><time>2026-04-18T12:54:14Z</time></trkpt><trkpt lat="46.096796524939286" lon="13.544760522814887"><ele>526.2</ele><time>2026-04-18T12:54:15Z</time></trkpt><trkpt lat="46.09679179465415" lon="13.544922879919456"><ele>528.4</ele><time>2026-04-18T12:54:16Z</time></trkpt><trkpt lat="46.09678647661011" lon="13.545075147205138"><ele>530.6</ele><time>2026-04-18T12:54:17Z</time></trkpt><trkpt lat="46.09677320524653" lon="13.545217938705392"><ele>532.8</ele><time>2026-04-18T12:54:18Z</time></trkpt><trkpt lat="46.09674383628161" lon="13.545352293399175"><ele>535.0</ele><time>2026-04-18T12:54:19Z</time></trkpt><trkpt lat="46.09670031939159" lon="13.545479431979814"><ele>536.2</ele><time>2026-04-18T12:54:20Z</time></trkpt><trkpt lat="46.09663735773758" lon="13.545587197352294"><ele>537.4</ele><time>2026-04-18T12:54:21Z</time></trkpt><trkpt lat="46.096565243373675" lon="13.545681098459886"><ele>538.6</ele><time>2026-04-18T12:54:22Z</time></trkpt><trkpt lat="46.096493835701324" lon="13.545780613792598"><ele>539.8</ele><time>2026-04-18T12:54:23Z</time></trkpt><trkpt lat="46.096437266631575" lon="13.54588113661427"><ele>541.0</ele><time>2026-04-18T12:54:24Z</time></trkpt><trkpt lat="46.09640783647644" lon="13.545997556940033"><ele>529.6</ele><time>2026-04-18T12:54:25Z</time></trkpt><trkpt lat="46.09641414299864" lon="13.546132261527655"><ele>518.2</ele><time>2026-04-18T12:54:26Z</time></trkpt><trkpt lat="46.09643860102618" lon="13.54627211015038"><ele>506.79999999999995</ele><time>2026-04-18T12:54:27Z</time></trkpt><trkpt lat="46.096473806264854" lon="13.546404021652497"><ele>495.4</ele><time>2026-04-18T12:54:28Z</time></trkpt><trkpt lat="46.096485715969884" lon="13.546547471246317"><ele>484.0</ele><time>2026-04-18T12:54:29Z</time></trkpt><trkpt lat="46.09658262933283" lon="13.546664620939993"><ele>491.6</ele><time>2026-04-18T12:54:30Z</time></trkpt><trkpt lat="46.09665227881418" lon="13.546789834555979"><ele>499.2</ele><time>2026-04-18T12:54:31Z</time></trkpt><trkpt lat="46.09669543891437" lon="13.546927096245122"><ele>506.80000000000007</ele><time>2026-04-18T12:54:32Z</time></trkpt><trkpt lat="46.09672408709455" lon="13.547054661277588"><ele>514.4</ele><time>2026-04-18T12:54:33Z</time></trkpt><trkpt lat="46.09675293810507" lon="13.547191479902551"><ele>522.0</ele><time>2026-04-18T12:54:34Z</time></trkpt><trkpt lat="46.09676945757049" lon="13.547327694714232"><ele>522.0</ele><time>2026-04-18T12:54:35Z</time></trkpt><trkpt lat="46.09676834468987" lon="13.547461668148152"><ele>522.0</ele><time>2026-04-18T12:54:36Z</time></trkpt><trkpt lat="46.09675269083885" lon="13.547587791724395"><ele>522.0</ele><time>2026-04-18T12:54:37Z</time></trkpt><trkpt lat="46.09670975014928" lon="13.54769207491757"><ele>522.0</ele><time>2026-04-18T12:54:38Z</time></trkpt><trkpt lat="46.0966335419695" lon="13.547786578458098"><ele>522.0</ele><time>2026-04-18T12:54:39Z</time></trkpt><trkpt lat="46.096536694875546" lon="13.547857477096779"><ele>520.0</ele><time>2026-04-18T12:54:40Z</time></trkpt><trkpt lat="46.09643420654612" lon="13.547921925656675"><ele>518.0</ele><time>2026-04-18T12:54:41Z</time></trkpt><trkpt lat="46.09632758423809" lon="13.547982998956433"><ele>516.0</ele><time>2026-04-18T12:54:42Z</time></trkpt><trkpt lat="46.09622099740316" lon="13.548016134838406"><ele>514.0</ele><time>2026-04-18T12:54:43Z</time></trkpt><trkpt lat="46.09612107567252" lon="13.548040235883919"><ele>512.0</ele><time>2026-04-18T12:54:44Z</time></trkpt><trkpt lat="46.09602883453159" lon="13.54809782993563"><ele>512.0</ele><time>2026-04-18T12:54:45Z</time></trkpt><trkpt lat="46.095938757475615" lon="13.548184102300532"><ele>512.0</ele><time>2026-04-18T12:54:46Z</time></trkpt><trkpt lat="46.0958550293759" lon="13.548290901317575"><ele>512.0</ele><time>2026-04-18T12:54:47Z</time></trkpt><trkpt lat="46.095784773895005" lon="13.548408667864388"><ele>512.0</ele><time>2026-04-18T12:54:48Z</time></trkpt><trkpt lat="46.09572738680763" lon="13.54852786915035"><ele>512.0</ele><time>2026-04-18T12:54:49Z</time></trkpt><trkpt lat="46.09567596230596" lon="13.548643292444835"><ele>509.49999999999994</ele><time>2026-04-18T12:54:50Z</time></trkpt><trkpt lat="46.095602711055264" lon="13.548725848190397"><ele>507.0</ele><time>2026-04-18T12:54:51Z</time></trkpt><trkpt lat="46.09552566712746" lon="13.548781799120567"><ele>504.5</ele><time>2026-04-18T12:54:52Z</time></trkpt><trkpt lat="46.09543972681453" lon="13.54877941595063"><ele>502.0</ele><time>2026-04-18T12:54:53Z</time></trkpt><trkpt lat="46.095356103705306" lon="13.548746390381348"><ele>499.49999999999994</ele><time>2026-04-18T12:54:54Z</time></trkpt><trkpt lat="46.095286765132734" lon="13.548681506996132"><ele>497.0</ele><time>2026-04-18T12:54:55Z</time></trkpt><trkpt lat="46.09522594297222" lon="13.548596164834944"><ele>496.99999999999994</ele><time>2026-04-18T12:54:56Z</time></trkpt><trkpt lat="46.09518969532612" lon="13.548506610668955"><ele>497.0</ele><time>2026-04-18T12:54:57Z</time></trkpt><trkpt lat="46.095143363104086" lon="13.548423288460183"><ele>497.0</ele><time>2026-04-18T12:54:57.999Z</time></trkpt><trkpt lat="46.09508308508589" lon="13.548354521465544"><ele>497.0</ele><time>2026-04-18T12:54:58.999Z</time></trkpt><trkpt lat="46.095005088882594" lon="13.548292695983882"><ele>496.99999999999994</ele><time>2026-04-18T12:54:59.999Z</time></trkpt><trkpt lat="46.09494382606524" lon="13.54826453433416"><ele>497.0</ele><time>2026-04-18T12:55:00.999Z</time></trkpt><trkpt lat="46.094812019612085" lon="13.548251101835344"><ele>494.6</ele><time>2026-04-18T12:55:02.999Z</time></trkpt><trkpt lat="46.09470442219065" lon="13.548317623111362"><ele>492.20000000000005</ele><time>2026-04-18T12:55:04.999Z</time></trkpt><trkpt lat="46.09457612654733" lon="13.548356350466788"><ele>489.8</ele><time>2026-04-18T12:55:06.999Z</time></trkpt><trkpt lat="46.09450584505641" lon="13.548346611017497"><ele>487.4</ele><time>2026-04-18T12:55:07.999Z</time></trkpt><trkpt lat="46.094433649932654" lon="13.548332630854526"><ele>485.0</ele><time>2026-04-18T12:55:08.999Z</time></trkpt><trkpt lat="46.0943580389753" lon="13.548340600809459"><ele>484.99999999999994</ele><time>2026-04-18T12:55:09.999Z</time></trkpt><trkpt lat="46.09427406009215" lon="13.54836265374449"><ele>485.0</ele><time>2026-04-18T12:55:10.999Z</time></trkpt><trkpt lat="46.09419213220535" lon="13.548382092356212"><ele>485.0</ele><time>2026-04-18T12:55:11.999Z</time></trkpt><trkpt lat="46.09411093693708" lon="13.548363124042233"><ele>485.0</ele><time>2026-04-18T12:55:12.999Z</time></trkpt><trkpt lat="46.09403654597724" lon="13.548328082153432"><ele>484.99999999999994</ele><time>2026-04-18T12:55:13.999Z</time></trkpt><trkpt lat="46.09396967035532" lon="13.548276181664482"><ele>485.0</ele><time>2026-04-18T12:55:14.999Z</time></trkpt><trkpt lat="46.09390793985069" lon="13.548238630265189"><ele>482.49999999999994</ele><time>2026-04-18T12:55:15.999Z</time></trkpt><trkpt lat="46.09379519881228" lon="13.548277406001278"><ele>480.0</ele><time>2026-04-18T12:55:17.999Z</time></trkpt><trkpt lat="46.09375317905801" lon="13.548368598326183"><ele>477.5</ele><time>2026-04-18T12:55:18.999Z</time></trkpt><trkpt lat="46.09372134722744" lon="13.548474154183216"><ele>475.0</ele><time>2026-04-18T12:55:20Z</time></trkpt><trkpt lat="46.093689834512745" lon="13.54858303191036"><ele>472.49999999999994</ele><time>2026-04-18T12:55:21Z</time></trkpt><trkpt lat="46.093656392274916" lon="13.548691818063714"><ele>470.0</ele><time>2026-04-18T12:55:22Z</time></trkpt><trkpt lat="46.09362468890674" lon="13.548806068999035"><ele>470.0</ele><time>2026-04-18T12:55:23Z</time></trkpt><trkpt lat="46.09359352964517" lon="13.548922600374812"><ele>470.0</ele><time>2026-04-18T12:55:24Z</time></trkpt><trkpt lat="46.09355932594164" lon="13.54904161912232"><ele>470.0</ele><time>2026-04-18T12:55:25Z</time></trkpt><trkpt lat="46.09774697064167" lon="13.524510260394825"><ele>497.75</ele><time>2026-04-18T12:51:25Z</time></trkpt><trkpt lat="46.0979031575145" lon="13.524550376244893"><ele>525.5</ele><time>2026-04-18T12:51:26Z</time></trkpt><trkpt lat="46.09803904630326" lon="13.524582799378852"><ele>553.25</ele><time>2026-04-18T12:51:27Z</time></trkpt><trkpt lat="46.09814738450433" lon="13.524684990817923"><ele>581.0</ele><time>2026-04-18T12:51:28Z</time></trkpt><trkpt lat="46.09823225970699" lon="13.52479738486898"><ele>586.25</ele><time>2026-04-18T12:51:29Z</time></trkpt><trkpt lat="46.09835134640267" lon="13.5248423810696"><ele>591.5</ele><time>2026-04-18T12:51:30Z</time></trkpt><trkpt lat="46.09849076168165" lon="13.524843472961663"><ele>596.75</ele><time>2026-04-18T12:51:31Z</time></trkpt><trkpt lat="46.09861186923118" lon="13.524854256995678"><ele>602.0</ele><time>2026-04-18T12:51:32Z</time></trkpt><trkpt lat="46.0987070547382" lon="13.524896768810803"><ele>602.0</ele><time>2026-04-18T12:51:33Z</time></trkpt><trkpt lat="46.098795261075125" lon="13.524985239525764"><ele>602.0</ele><time>2026-04-18T12:51:34Z</time></trkpt><trkpt lat="46.098869303837255" lon="13.525102052840506"><ele>602.0</ele><time>2026-04-18T12:51:35Z</time></trkpt><trkpt lat="46.09893876777099" lon="13.52520580560506"><ele>602.0</ele><time>2026-04-18T12:51:36Z</time></trkpt><trkpt lat="46.09901227712239" lon="13.525281989918604"><ele>602.0</ele><time>2026-04-18T12:51:37Z</time></trkpt><trkpt lat="46.09910171060585" lon="13.525345900765142"><ele>605.5</ele><time>2026-04-18T12:51:38Z</time></trkpt><trkpt lat="46.099177568241025" lon="13.52542025125161"><ele>609.0</ele><time>2026-04-18T12:51:39Z</time></trkpt><trkpt lat="46.099263339114884" lon="13.52546682529742"><ele>612.5</ele><time>2026-04-18T12:51:40Z</time></trkpt><trkpt lat="46.09934697712539" lon="13.525495619477892"><ele>616.0</ele><time>2026-04-18T12:51:41Z</time></trkpt><trkpt lat="46.09943137832225" lon="13.525511393500999"><ele>619.5</ele><time>2026-04-18T12:51:42Z</time></trkpt><trkpt lat="46.099515667958144" lon="13.52551148678758"><ele>623.0</ele><time>2026-04-18T12:51:43Z</time></trkpt><trkpt lat="46.0996061069373" lon="13.52550477091452"><ele>623.0</ele><time>2026-04-18T12:51:44Z</time></trkpt><trkpt lat="46.09969635692562" lon="13.525494640060593"><ele>623.0</ele><time>2026-04-18T12:51:45Z</time></trkpt><trkpt lat="46.099784157735975" lon="13.525477581834968"><ele>623.0</ele><time>2026-04-18T12:51:46Z</time></trkpt><trkpt lat="46.09987513734856" lon="13.52544908196418"><ele>623.0</ele><time>2026-04-18T12:51:47Z</time></trkpt><trkpt lat="46.0999644319779" lon="13.525415620451954"><ele>623.0</ele><time>2026-04-18T12:51:48Z</time></trkpt><trkpt lat="46.10004333366347" lon="13.525386618477064"><ele>623.0</ele><time>2026-04-18T12:51:49Z</time></trkpt><trkpt lat="46.100109793017054" lon="13.525365908503561"><ele>621.3333333333333</ele><time>2026-04-18T12:51:50Z</time></trkpt><trkpt lat="46.100194835519105" lon="13.52542807386067"><ele>619.6666666666666</ele><time>2026-04-18T12:51:52Z</time></trkpt><trkpt lat="46.10020001523648" lon="13.525520396948327"><ele>618.0</ele><time>2026-04-18T12:51:53Z</time></trkpt><trkpt lat="46.100165838152556" lon="13.525621466278572"><ele>616.3333333333334</ele><time>2026-04-18T12:51:54Z</time></trkpt><trkpt lat="46.100125075248776" lon="13.525714756758635"><ele>614.6666666666667</ele><time>2026-04-18T12:51:55Z</time></trkpt><trkpt lat="46.10008623089718" lon="13.525810883014692"><ele>613.0</ele><time>2026-04-18T12:51:56Z</time></trkpt><trkpt lat="46.100046874835904" lon="13.525916219231567"><ele>613.0</ele><time>2026-04-18T12:51:57Z</time></trkpt><trkpt lat="46.099999459883705" lon="13.52602111935474"><ele>613.0</ele><time>2026-04-18T12:51:58Z</time></trkpt><trkpt lat="46.09994548632838" lon="13.52613479717816"><ele>613.0</ele><time>2026-04-18T12:51:59Z</time></trkpt><trkpt lat="46.09988933186855" lon="13.526263191845603"><ele>613.0</ele><time>2026-04-18T12:52:00Z</time></trkpt><trkpt lat="46.099834762519706" lon="13.526407324828842"><ele>613.0</ele><time>2026-04-18T12:52:01Z</time></trkpt><trkpt lat="46.09977381074284" lon="13.526558602557495"><ele>617.25</ele><time>2026-04-18T12:52:02Z</time></trkpt><trkpt lat="46.09971009411669" lon="13.526717754444018"><ele>621.5</ele><time>2026-04-18T12:52:03Z</time></trkpt><trkpt lat="46.09965078373027" lon="13.526886049334593"><ele>625.75</ele><time>2026-04-18T12:52:04Z</time></trkpt><trkpt lat="46.09959571897969" lon="13.527069312157998"><ele>630.0</ele><time>2026-04-18T12:52:05Z</time></trkpt><trkpt lat="46.09955267750978" lon="13.527258357691787"><ele>630.0</ele><time>2026-04-18T12:52:06Z</time></trkpt><trkpt lat="46.099501505203285" lon="13.527453229136226"><ele>630.0</ele><time>2026-04-18T12:52:07Z</time></trkpt><trkpt lat="46.099475736285754" lon="13.527661901549775"><ele>630.0</ele><time>2026-04-18T12:52:08Z</time></trkpt><trkpt lat="46.09944658255039" lon="13.527868433165182"><ele>630.0</ele><time>2026-04-18T12:52:09Z</time></trkpt><trkpt lat="46.099401756851634" lon="13.528076701973573"><ele>627.3333333333334</ele><time>2026-04-18T12:52:10Z</time></trkpt><trkpt lat="46.099364209339086" lon="13.528291891844148"><ele>624.6666666666667</ele><time>2026-04-18T12:52:11Z</time></trkpt><trkpt lat="46.09931628449307" lon="13.52850143600162"><ele>622.0</ele><time>2026-04-18T12:52:12Z</time></trkpt><trkpt lat="46.09926652257201" lon="13.528706976994977"><ele>620.75</ele><time>2026-04-18T12:52:13Z</time></trkpt><trkpt lat="46.09922610049198" lon="13.52891172440602"><ele>619.5</ele><time>2026-04-18T12:52:14Z</time></trkpt><trkpt lat="46.0991800417605" lon="13.529109466665437"><ele>618.25</ele><time>2026-04-18T12:52:15Z</time></trkpt><trkpt lat="46.09915377700926" lon="13.529311969921666"><ele>617.0</ele><time>2026-04-18T12:52:16Z</time></trkpt><trkpt lat="46.09914170760384" lon="13.529519563221921"><ele>615.5</ele><time>2026-04-18T12:52:17Z</time></trkpt><trkpt lat="46.09914218118101" lon="13.529718577315515"><ele>614.0</ele><time>2026-04-18T12:52:18Z</time></trkpt><trkpt lat="46.099144673961405" lon="13.529897245424127"><ele>612.5</ele><time>2026-04-18T12:52:19Z</time></trkpt><trkpt lat="46.099164220527406" lon="13.53006601622443"><ele>611.0</ele><time>2026-04-18T12:52:20Z</time></trkpt><trkpt lat="46.09916882640631" lon="13.530230500062169"><ele>611.0</ele><time>2026-04-18T12:52:21Z</time></trkpt><trkpt lat="46.09916718554462" lon="13.530381941920048"><ele>611.0</ele><time>2026-04-18T12:52:22Z</time></trkpt><trkpt lat="46.099213327363664" lon="13.530518947340164"><ele>611.0</ele><time>2026-04-18T12:52:23Z</time></trkpt><trkpt lat="46.099265674428935" lon="13.530646131865264"><ele>611.0</ele><time>2026-04-18T12:52:24Z</time></trkpt><trkpt lat="46.09935001961802" lon="13.530747904308972"><ele>611.0</ele><time>2026-04-18T12:52:25Z</time></trkpt><trkpt lat="46.099455453546945" lon="13.530809797934479"><ele>609.0</ele><time>2026-04-18T12:52:26Z</time></trkpt><trkpt lat="46.09957613179357" lon="13.530859976199551"><ele>607.0</ele><time>2026-04-18T12:52:27Z</time></trkpt><trkpt lat="46.09968408245705" lon="13.53092689278173"><ele>605.0</ele><time>2026-04-18T12:52:28Z</time></trkpt><trkpt lat="46.099775245967656" lon="13.531021538761834"><ele>603.0</ele><time>2026-04-18T12:52:29Z</time></trkpt><trkpt lat="46.09985639032179" lon="13.531150504180525"><ele>604.25</ele><time>2026-04-18T12:52:30Z</time></trkpt><trkpt lat="46.09991835858852" lon="13.531295790826835"><ele>605.5</ele><time>2026-04-18T12:52:31Z</time></trkpt><trkpt lat="46.09997961830864" lon="13.531432401010388"><ele>606.75</ele><time>2026-04-18T12:52:32Z</time></trkpt><trkpt lat="46.10007270825273" lon="13.531530110346859"><ele>608.0</ele><time>2026-04-18T12:52:33Z</time></trkpt><trkpt lat="46.10018861909055" lon="13.531585520741865"><ele>608.0</ele><time>2026-04-18T12:52:34Z</time></trkpt><trkpt lat="46.100318636528044" lon="13.531630138342035"><ele>608.0</ele><time>2026-04-18T12:52:35Z</time></trkpt><trkpt lat="46.10044423700764" lon="13.531668217890504"><ele>608.0</ele><time>2026-04-18T12:52:36Z</time></trkpt><trkpt lat="46.10055542436749" lon="13.531675511285222"><ele>608.0</ele><time>2026-04-18T12:52:37Z</time></trkpt><trkpt lat="46.10065160086232" lon="13.531701510022096"><ele>608.0</ele><time>2026-04-18T12:52:38Z</time></trkpt><trkpt lat="46.10073997353987" lon="13.531696906354668"><ele>608.0</ele><time>2026-04-18T12:52:39Z</time></trkpt><trkpt lat="46.100823310261575" lon="13.531742514872187"><ele>608.0</ele><time>2026-04-18T12:52:40Z</time></trkpt><trkpt lat="46.10089635960787" lon="13.53180827530318"><ele>608.0</ele><time>2026-04-18T12:52:41Z</time></trkpt><trkpt lat="46.10095658565022" lon="13.531895311232926"><ele>608.0</ele><time>2026-04-18T12:52:42Z</time></trkpt><trkpt lat="46.10100453973075" lon="13.532000249545467"><ele>608.0</ele><time>2026-04-18T12:52:43Z</time></trkpt><trkpt lat="46.10104205113" lon="13.532112188753565"><ele>609.5</ele><time>2026-04-18T12:52:44Z</time></trkpt><trkpt lat="46.101056650304706" lon="13.532223203689979"><ele>611.0</ele><time>2026-04-18T12:52:45Z</time></trkpt><trkpt lat="46.101042732835595" lon="13.532341812600286"><ele>612.5</ele><time>2026-04-18T12:52:46Z</time></trkpt><trkpt lat="46.10102304145208" lon="13.532459208151378"><ele>614.0</ele><time>2026-04-18T12:52:47Z</time></trkpt><trkpt lat="46.10100386477176" lon="13.532580243287928"><ele>615.5</ele><time>2026-04-18T12:52:48Z</time></trkpt><trkpt lat="46.100980432366605" lon="13.53270672296125"><ele>617.0</ele><time>2026-04-18T12:52:49Z</time></trkpt><trkpt lat="46.100948635197646" lon="13.532839916833188"><ele>617.8000000000001</ele><time>2026-04-18T12:52:50Z</time></trkpt><trkpt lat="46.10090384187731" lon="13.532967917710636"><ele>618.6</ele><time>2026-04-18T12:52:51Z</time></trkpt><trkpt lat="46.10085633692966" lon="13.533099216769967"><ele>619.4000000000001</ele><time>2026-04-18T12:52:52Z</time></trkpt><trkpt lat="46.10079854643741" lon="13.533232867326008"><ele>620.2</ele><time>2026-04-18T12:52:53Z</time></trkpt><trkpt lat="46.10073710927401" lon="13.533365631580601"><ele>621.0</ele><time>2026-04-18T12:52:53.999Z</time></trkpt><trkpt lat="46.1006682114085" lon="13.533505130717483"><ele>621.0</ele><time>2026-04-18T12:52:54.999Z</time></trkpt><trkpt lat="46.100595647454746" lon="13.533654281114119"><ele>621.0</ele><time>2026-04-18T12:52:55.999Z</time></trkpt><trkpt lat="46.10052366236568" lon="13.533806364852174"><ele>621.0</ele><time>2026-04-18T12:52:56.999Z</time></trkpt><trkpt lat="46.10044734608885" lon="13.533967877880965"><ele>621.0</ele><time>2026-04-18T12:52:57.999Z</time></trkpt><trkpt lat="46.10036904598979" lon="13.534133520254981"><ele>621.0</ele><time>2026-04-18T12:52:58.999Z</time></trkpt><trkpt lat="46.10028809436372" lon="13.534304709802935"><ele>621.0</ele><time>2026-04-18T12:52:59.999Z</time></trkpt><trkpt lat="46.100204785739145" lon="13.534480428121942"><ele>621.0</ele><time>2026-04-18T12:53:00.999Z</time></trkpt><trkpt lat="46.10012209553183" lon="13.534657349583414"><ele>621.0</ele><time>2026-04-18T12:53:01.999Z</time></trkpt><trkpt lat="46.1000411204534" lon="13.534826359444802"><ele>621.0</ele><time>2026-04-18T12:53:02.999Z</time></trkpt><trkpt lat="46.099965061571915" lon="13.534985985755378"><ele>621.0</ele><time>2026-04-18T12:53:03.999Z</time></trkpt><trkpt lat="46.099887453256784" lon="13.53514871008865"><ele>621.0</ele><time>2026-04-18T12:53:04.999Z</time></trkpt><trkpt lat="46.09980441656893" lon="13.535310004012945"><ele>621.0</ele><time>2026-04-18T12:53:05.999Z</time></trkpt><trkpt lat="46.099726183970105" lon="13.535461642620136"><ele>617.75</ele><time>2026-04-18T12:53:06.999Z</time></trkpt><trkpt lat="46.099647619253844" lon="13.535620559414212"><ele>614.5</ele><time>2026-04-18T12:53:07.999Z</time></trkpt><trkpt lat="46.09956405217088" lon="13.535783868755686"><ele>611.25</ele><time>2026-04-18T12:53:08.999Z</time></trkpt><trkpt lat="46.09948608293403" lon="13.535957735465592"><ele>608.0</ele><time>2026-04-18T12:53:09.999Z</time></trkpt><trkpt lat="46.09941808198485" lon="13.53614436939313"><ele>610.6666666666666</ele><time>2026-04-18T12:53:10.999Z</time></trkpt><trkpt lat="46.09935080041565" lon="13.53634341281962"><ele>613.3333333333334</ele><time>2026-04-18T12:53:11.999Z</time></trkpt><trkpt lat="46.0992830063156" lon="13.536540923286234"><ele>616.0</ele><time>2026-04-18T12:53:12.999Z</time></trkpt><trkpt lat="46.09920909954877" lon="13.536731981375262"><ele>616.0</ele><time>2026-04-18T12:53:14Z</time></trkpt><trkpt lat="46.09912632027474" lon="13.53690612366217"><ele>616.0</ele><time>2026-04-18T12:53:15Z</time></trkpt><trkpt lat="46.09903930040898" lon="13.53706163308562"><ele>616.0</ele><time>2026-04-18T12:53:16Z</time></trkpt><trkpt lat="46.0989452439739" lon="13.537196079808867"><ele>616.0</ele><time>2026-04-18T12:53:17Z</time></trkpt><trkpt lat="46.098843257465546" lon="13.537302512063926"><ele>613.0</ele><time>2026-04-18T12:53:18Z</time></trkpt><trkpt lat="46.098736402681084" lon="13.537379253000646"><ele>610.0</ele><time>2026-04-18T12:53:19Z</time></trkpt><trkpt lat="46.098617433993496" lon="13.53740323375059"><ele>607.0</ele><time>2026-04-18T12:53:20Z</time></trkpt><trkpt lat="46.098499972250785" lon="13.537409880336828"><ele>604.0</ele><time>2026-04-18T12:53:21Z</time></trkpt><trkpt lat="46.0983789845283" lon="13.53742657123613"><ele>604.0</ele><time>2026-04-18T12:53:22Z</time></trkpt><trkpt lat="46.09827383412772" lon="13.537483972189271"><ele>604.0</ele><time>2026-04-18T12:53:23Z</time></trkpt><trkpt lat="46.09820085512738" lon="13.537587711734963"><ele>604.0</ele><time>2026-04-18T12:53:24Z</time></trkpt><trkpt lat="46.098132378563186" lon="13.537687050581916"><ele>604.0</ele><time>2026-04-18T12:53:25Z</time></trkpt><trkpt lat="46.098079567820115" lon="13.53780335863618"><ele>604.0</ele><time>2026-04-18T12:53:26Z</time></trkpt><trkpt lat="46.0980377712492" lon="13.537921370819975"><ele>598.6666666666667</ele><time>2026-04-18T12:53:27Z</time></trkpt><trkpt lat="46.098001156561466" lon="13.538035072460426"><ele>593.3333333333334</ele><time>2026-04-18T12:53:28Z</time></trkpt><trkpt lat="46.09797735153013" lon="13.538139935843002"><ele>588.0</ele><time>2026-04-18T12:53:29Z</time></trkpt><trkpt lat="46.09797578345117" lon="13.538245454229056"><ele>582.6666666666666</ele><time>2026-04-18T12:53:30Z</time></trkpt><trkpt lat="46.09801242407574" lon="13.538350561953669"><ele>577.3333333333333</ele><time>2026-04-18T12:53:31Z</time></trkpt><trkpt lat="46.09807486353803" lon="13.538446183012104"><ele>572.0</ele><time>2026-04-18T12:53:32Z</time></trkpt><trkpt lat="46.09814244324532" lon="13.538538980298355"><ele>572.0</ele><time>2026-04-18T12:53:33Z</time></trkpt><trkpt lat="46.098199212227016" lon="13.538627853609995"><ele>572.0</ele><time>2026-04-18T12:53:34Z</time></trkpt><trkpt lat="46.09824168524504" lon="13.538737707637239"><ele>572.0</ele><time>2026-04-18T12:53:35Z</time></trkpt><trkpt lat="46.09826339014411" lon="13.538857181198113"><ele>572.0</ele><time>2026-04-18T12:53:36Z</time></trkpt><trkpt lat="46.09828514999516" lon="13.538996030246029"><ele>572.0</ele><time>2026-04-18T12:53:37Z</time></trkpt><trkpt lat="46.09831132469843" lon="13.539135216915339"><ele>574.2</ele><time>2026-04-18T12:53:38Z</time></trkpt><trkpt lat="46.09833280256682" lon="13.539277436748648"><ele>576.4000000000001</ele><time>2026-04-18T12:53:39Z</time></trkpt><trkpt lat="46.098353548028896" lon="13.539419058947463"><ele>578.5999999999999</ele><time>2026-04-18T12:53:40Z</time></trkpt><trkpt lat="46.098372185516816" lon="13.539559662612815"><ele>580.8</ele><time>2026-04-18T12:53:41Z</time></trkpt><trkpt lat="46.0983820282133" lon="13.539704368613483"><ele>583.0</ele><time>2026-04-18T12:53:42Z</time></trkpt><trkpt lat="46.098380937017815" lon="13.539856576565453"><ele>583.0</ele><time>2026-04-18T12:53:43Z</time></trkpt><trkpt lat="46.09837041492906" lon="13.540014967682787"><ele>583.0</ele><time>2026-04-18T12:53:44Z</time></trkpt><trkpt lat="46.09835700529034" lon="13.540176564518784"><ele>583.0</ele><time>2026-04-18T12:53:45Z</time></trkpt><trkpt lat="46.098347012407594" lon="13.540349881332565"><ele>583.0</ele><time>2026-04-18T12:53:46Z</time></trkpt><trkpt lat="46.09833521603013" lon="13.5405319241714"><ele>581.25</ele><time>2026-04-18T12:53:47Z</time></trkpt><trkpt lat="46.098314848973835" lon="13.54071789164316"><ele>579.5</ele><time>2026-04-18T12:53:48Z</time></trkpt><trkpt lat="46.09829286300144" lon="13.540911002196458"><ele>577.75</ele><time>2026-04-18T12:53:49Z</time></trkpt><trkpt lat="46.09826801564843" lon="13.541106654805608"><ele>576.0</ele><time>2026-04-18T12:53:50Z</time></trkpt><trkpt lat="46.09823383997349" lon="13.54131845562278"><ele>559.6666666666666</ele><time>2026-04-18T12:53:51Z</time></trkpt><trkpt lat="46.09819530518565" lon="13.541538846388843"><ele>543.3333333333333</ele><time>2026-04-18T12:53:52Z</time></trkpt><trkpt lat="46.09815299531789" lon="13.541765361857507"><ele>527.0</ele><time>2026-04-18T12:53:53Z</time></trkpt><trkpt lat="46.09811026229278" lon="13.541978481583842"><ele>529.3333333333333</ele><time>2026-04-18T12:53:54Z</time></trkpt><trkpt lat="46.098056229919045" lon="13.542179972609722"><ele>531.6666666666666</ele><time>2026-04-18T12:53:55Z</time></trkpt><trkpt lat="46.09799387001948" lon="13.542382882149006"><ele>534.0</ele><time>2026-04-18T12:53:56Z</time></trkpt><trkpt lat="46.0979344819763" lon="13.542587403783983"><ele>534.0</ele><time>2026-04-18T12:53:57Z</time></trkpt><trkpt lat="46.097891222920715" lon="13.542802589396862"><ele>534.0</ele><time>2026-04-18T12:53:58Z</time></trkpt><trkpt lat="46.097861699144545" lon="13.543037457890094"><ele>534.0</ele><time>2026-04-18T12:53:59Z</time></trkpt><trkpt lat="46.09783162651079" lon="13.543263113620352"><ele>535.25</ele><time>2026-04-18T12:54:00Z</time></trkpt><trkpt lat="46.0978028282802" lon="13.543472543231498"><ele>536.5</ele><time>2026-04-18T12:54:01Z</time></trkpt><trkpt lat="46.097764401142555" lon="13.54366673625054"><ele>537.75</ele><time>2026-04-18T12:54:02Z</time></trkpt><trkpt lat="46.09770771334732" lon="13.543845179428848"><ele>539.0</ele><time>2026-04-18T12:54:03Z</time></trkpt><trkpt lat="46.097639969450256" lon="13.543999536829538"><ele>535.25</ele><time>2026-04-18T12:54:04Z</time></trkpt><trkpt lat="46.097558801672" lon="13.544142617663965"><ele>531.5</ele><time>2026-04-18T12:54:05Z</time></trkpt><trkpt lat="46.09746763180191" lon="13.544272908390626"><ele>527.75</ele><time>2026-04-18T12:54:06Z</time></trkpt><trkpt lat="46.09735080135908" lon="13.544328743743444"><ele>524.0</ele><time>2026-04-18T12:54:07Z</time></trkpt><trkpt lat="46.09726041585992" lon="13.544384199738436"><ele>524.0</ele><time>2026-04-18T12:54:08Z</time></trkpt><trkpt lat="46.097163719293455" lon="13.544412647257117"><ele>524.0</ele><time>2026-04-18T12:54:09Z</time></trkpt><trkpt lat="46.09706729607415" lon="13.544373266638477"><ele>524.0</ele><time>2026-04-18T12:54:10Z</time></trkpt><trkpt lat="46.096987919161045" lon="13.544359455975938"><ele>524.0</ele><time>2026-04-18T12:54:11Z</time></trkpt><trkpt lat="46.096909646316234" lon="13.544375519647645"><ele>524.0</ele><time>2026-04-18T12:54:12Z</time></trkpt><trkpt lat="46.096837984053785" lon="13.54447286064506"><ele>526.2</ele><time>2026-04-18T12:54:13Z</time></trkpt><trkpt lat="46.096815890971676" lon="13.544615277809859"><ele>528.4</ele><time>2026-04-18T12:54:14Z</time></trkpt><trkpt lat="46.096796524939286" lon="13.544760522814887"><ele>530.6</ele><time>2026-04-18T12:54:15Z</time></trkpt><trkpt lat="46.09679179465415" lon="13.544922879919456"><ele>532.8</ele><time>2026-04-18T12:54:16Z</time></trkpt><trkpt lat="46.09678647661011" lon="13.545075147205138"><ele>535.0</ele><time>2026-04-18T12:54:17Z</time></trkpt><trkpt lat="46.09677320524653" lon="13.545217938705392"><ele>535.0</ele><time>2026-04-18T12:54:18Z</time></trkpt><trkpt lat="46.09674383628161" lon="13.545352293399175"><ele>535.0</ele><time>2026-04-18T12:54:19Z</time></trkpt><trkpt lat="46.09670031939159" lon="13.545479431979814"><ele>535.0</ele><time>2026-04-18T12:54:20Z</time></trkpt><trkpt lat="46.09663735773758" lon="13.545587197352294"><ele>535.0</ele><time>2026-04-18T12:54:21Z</time></trkpt><trkpt lat="46.096565243373675" lon="13.545681098459886"><ele>535.0</ele><time>2026-04-18T12:54:22Z</time></trkpt><trkpt lat="46.096493835701324" lon="13.545780613792598"><ele>524.8</ele><time>2026-04-18T12:54:23Z</time></trkpt><trkpt lat="46.096437266631575" lon="13.54588113661427"><ele>514.6</ele><time>2026-04-18T12:54:24Z</time></trkpt><trkpt lat="46.09640783647644" lon="13.545997556940033"><ele>504.4</ele><time>2026-04-18T12:54:25Z</time></trkpt><trkpt lat="46.09641414299864" lon="13.546132261527655"><ele>494.2</ele><time>2026-04-18T12:54:26Z</time></trkpt><trkpt lat="46.09643860102618" lon="13.54627211015038"><ele>484.0</ele><time>2026-04-18T12:54:27Z</time></trkpt><trkpt lat="46.096473806264854" lon="13.546404021652497"><ele>482.79999999999995</ele><time>2026-04-18T12:54:28Z</time></trkpt><trkpt lat="46.096485715969884" lon="13.546547471246317"><ele>481.59999999999997</ele><time>2026-04-18T12:54:29Z</time></trkpt><trkpt lat="46.09658262933283" lon="13.546664620939993"><ele>480.4</ele><time>2026-04-18T12:54:30Z</time></trkpt><trkpt lat="46.09665227881418" lon="13.546789834555979"><ele>479.2</ele><time>2026-04-18T12:54:31Z</time></trkpt><trkpt lat="46.09669543891437" lon="13.546927096245122"><ele>478.0</ele><time>2026-04-18T12:54:32Z</time></trkpt><trkpt lat="46.09672408709455" lon="13.547054661277588"><ele>486.79999999999995</ele><time>2026-04-18T12:54:33Z</time></trkpt><trkpt lat="46.09675293810507" lon="13.547191479902551"><ele>495.59999999999997</ele><time>2026-04-18T12:54:34Z</time></trkpt><trkpt lat="46.09676945757049" lon="13.547327694714232"><ele>504.40000000000003</ele><time>2026-04-18T12:54:35Z</time></trkpt><trkpt lat="46.09676834468987" lon="13.547461668148152"><ele>513.2</ele><time>2026-04-18T12:54:36Z</time></trkpt><trkpt lat="46.09675269083885" lon="13.547587791724395"><ele>522.0</ele><time>2026-04-18T12:54:37Z</time></trkpt><trkpt lat="46.09670975014928" lon="13.54769207491757"><ele>522.0</ele><time>2026-04-18T12:54:38Z</time></trkpt><trkpt lat="46.0966335419695" lon="13.547786578458098"><ele>522.0</ele><time>2026-04-18T12:54:39Z</time></trkpt><trkpt lat="46.096536694875546" lon="13.547857477096779"><ele>522.0</ele><time>2026-04-18T12:54:40Z</time></trkpt><trkpt lat="46.09643420654612" lon="13.547921925656675"><ele>522.0</ele><time>2026-04-18T12:54:41Z</time></trkpt><trkpt lat="46.09632758423809" lon="13.547982998956433"><ele>522.0</ele><time>2026-04-18T12:54:42Z</time></trkpt><trkpt lat="46.09622099740316" lon="13.548016134838406"><ele>520.0</ele><time>2026-04-18T12:54:43Z</time></trkpt><trkpt lat="46.09612107567252" lon="13.548040235883919"><ele>518.0</ele><time>2026-04-18T12:54:44Z</time></trkpt><trkpt lat="46.09602883453159" lon="13.54809782993563"><ele>516.0</ele><time>2026-04-18T12:54:45Z</time></trkpt><trkpt lat="46.095938757475615" lon="13.548184102300532"><ele>514.0</ele><time>2026-04-18T12:54:46Z</time></trkpt><trkpt lat="46.0958550293759" lon="13.548290901317575"><ele>512.0</ele><time>2026-04-18T12:54:47Z</time></trkpt><trkpt lat="46.095784773895005" lon="13.548408667864388"><ele>509.0</ele><time>2026-04-18T12:54:48Z</time></trkpt><trkpt lat="46.09572738680763" lon="13.54852786915035"><ele>506.00000000000006</ele><time>2026-04-18T12:54:49Z</time></trkpt><trkpt lat="46.09567596230596" lon="13.548643292444835"><ele>503.00000000000006</ele><time>2026-04-18T12:54:50Z</time></trkpt><trkpt lat="46.095602711055264" lon="13.548725848190397"><ele>500.0</ele><time>2026-04-18T12:54:51Z</time></trkpt><trkpt lat="46.09552566712746" lon="13.548781799120567"><ele>497.0</ele><time>2026-04-18T12:54:52Z</time></trkpt><trkpt lat="46.09543972681453" lon="13.54877941595063"><ele>496.99999999999994</ele><time>2026-04-18T12:54:53Z</time></trkpt><trkpt lat="46.095356103705306" lon="13.548746390381348"><ele>497.0</ele><time>2026-04-18T12:54:54Z</time></trkpt><trkpt lat="46.095286765132734" lon="13.548681506996132"><ele>497.0</ele><time>2026-04-18T12:54:55Z</time></trkpt><trkpt lat="46.09522594297222" lon="13.548596164834944"><ele>497.0</ele><time>2026-04-18T12:54:56Z</time></trkpt><trkpt lat="46.09518969532612" lon="13.548506610668955"><ele>496.99999999999994</ele><time>2026-04-18T12:54:57Z</time></trkpt><trkpt lat="46.095143363104086" lon="13.548423288460183"><ele>497.0</ele><time>2026-04-18T12:54:57.999Z</time></trkpt><trkpt lat="46.09508308508589" lon="13.548354521465544"><ele>497.0</ele><time>2026-04-18T12:54:58.999Z</time></trkpt><trkpt lat="46.095005088882594" lon="13.548292695983882"><ele>497.00000000000006</ele><time>2026-04-18T12:54:59.999Z</time></trkpt><trkpt lat="46.09494382606524" lon="13.54826453433416"><ele>497.00000000000006</ele><time>2026-04-18T12:55:00.999Z</time></trkpt><trkpt lat="46.094812019612085" lon="13.548251101835344"><ele>497.0</ele><time>2026-04-18T12:55:02.999Z</time></trkpt><trkpt lat="46.09470442219065" lon="13.548317623111362"><ele>497.0</ele><time>2026-04-18T12:55:04.999Z</time></trkpt><trkpt lat="46.09457612654733" lon="13.548356350466788"><ele>494.99999999999994</ele><time>2026-04-18T12:55:06.999Z</time></trkpt><trkpt lat="46.09450584505641" lon="13.548346611017497"><ele>493.0</ele><time>2026-04-18T12:55:07.999Z</time></trkpt><trkpt lat="46.094433649932654" lon="13.548332630854526"><ele>491.0</ele><time>2026-04-18T12:55:08.999Z</time></trkpt><trkpt lat="46.0943580389753" lon="13.548340600809459"><ele>489.0</ele><time>2026-04-18T12:55:09.999Z</time></trkpt><trkpt lat="46.09427406009215" lon="13.54836265374449"><ele>486.99999999999994</ele><time>2026-04-18T12:55:10.999Z</time></trkpt><trkpt lat="46.09419213220535" lon="13.548382092356212"><ele>485.0</ele><time>2026-04-18T12:55:11.999Z</time></trkpt><trkpt lat="46.09411093693708" lon="13.548363124042233"><ele>480.3333333333333</ele><time>2026-04-18T12:55:12.999Z</time></trkpt><trkpt lat="46.09403654597724" lon="13.548328082153432"><ele>475.66666666666663</ele><time>2026-04-18T12:55:13.999Z</time></trkpt><trkpt lat="46.09396967035532" lon="13.548276181664482"><ele>471.0</ele><time>2026-04-18T12:55:14.999Z</time></trkpt><trkpt lat="46.09390793985069" lon="13.548238630265189"><ele>466.33333333333337</ele><time>2026-04-18T12:55:15.999Z</time></trkpt><trkpt lat="46.09379519881228" lon="13.548277406001278"><ele>461.6666666666667</ele><time>2026-04-18T12:55:17.999Z</time></trkpt><trkpt lat="46.09375317905801" lon="13.548368598326183"><ele>457.0</ele><time>2026-04-18T12:55:18.999Z</time></trkpt><trkpt lat="46.09372134722744" lon="13.548474154183216"><ele>457.00000000000006</ele><time>2026-04-18T12:55:20Z</time></trkpt><trkpt lat="46.093689834512745" lon="13.54858303191036"><ele>457.0</ele><time>2026-04-18T12:55:21Z</time></trkpt><trkpt lat="46.093656392274916" lon="13.548691818063714"><ele>457.0</ele><time>2026-04-18T12:55:22Z</time></trkpt><trkpt lat="46.09362468890674" lon="13.548806068999035"><ele>457.0</ele><time>2026-04-18T12:55:23Z</time></trkpt><trkpt lat="46.09359352964517" lon="13.548922600374812"><ele>457.00000000000006</ele><time>2026-04-18T12:55:24Z</time></trkpt><trkpt lat="46.09355932594164" lon="13.54904161912232"><ele>457.0</ele><time>2026-04-18T12:55:25Z</time></trkpt><trkpt lat="46.09352030945575" lon="13.549160169385237"><ele>459.6</ele><time>2026-04-18T12:55:26Z</time></trkpt><trkpt lat="46.09347079599212" lon="13.549276646485707"><ele>462.20000000000005</ele><time>2026-04-18T12:55:27Z</time></trkpt><trkpt lat="46.09340894179338" lon="13.549391362252262"><ele>464.8</ele><time>2026-04-18T12:55:28Z</time></trkpt><trkpt lat="46.09333837606563" lon="13.549504666725701"><ele>467.4</ele><time>2026-04-18T12:55:29Z</time></trkpt><trkpt lat="46.09327611297686" lon="13.549604827764927"><ele>470.0</ele><time>2026-04-18T12:55:30Z</time></trkpt><trkpt lat="46.093221813374214" lon="13.549691034124933"><ele>470.8333333333333</ele><time>2026-04-18T12:55:31Z</time></trkpt><trkpt lat="46.09317340521473" lon="13.549768060743078"><ele>471.66666666666663</ele><time>2026-04-18T12:55:32Z</time></trkpt><trkpt lat="46.09311858981454" lon="13.549813439608068"><ele>472.5</ele><time>2026-04-18T12:55:33Z</time></trkpt><trkpt lat="46.09304998716022" lon="13.549803207523052"><ele>473.33333333333337</ele><time>2026-04-18T12:55:34Z</time></trkpt><trkpt lat="46.092985804140646" lon="13.549734149673132"><ele>474.1666666666667</ele><time>2026-04-18T12:55:35Z</time></trkpt><trkpt lat="46.09292961968415" lon="13.54960924766029"><ele>475.0</ele><time>2026-04-18T12:55:36Z</time></trkpt><trkpt lat="46.09286478618049" lon="13.549469115246776"><ele>471.2</ele><time>2026-04-18T12:55:37Z</time></trkpt><trkpt lat="46.09280124458748" lon="13.54932534946958"><ele>467.4</ele><time>2026-04-18T12:55:38Z</time></trkpt><trkpt lat="46.0927427865483" lon="13.549196447764185"><ele>463.6</ele><time>2026-04-18T12:55:39Z</time></trkpt><trkpt lat="46.09268064676237" lon="13.549075823132497"><ele>459.8</ele><time>2026-04-18T12:55:40Z</time></trkpt><trkpt lat="46.09263062639096" lon="13.548977087734706"><ele>456.0</ele><time>2026-04-18T12:55:41Z</time></trkpt><trkpt lat="46.09257415996783" lon="13.548914455416885"><ele>456.0</ele><time>2026-04-18T12:55:42Z</time></trkpt><trkpt lat="46.09250217870109" lon="13.548904078214568"><ele>456.0</ele><time>2026-04-18T12:55:43Z</time></trkpt><trkpt lat="46.09242968582362" lon="13.5489569677622"><ele>456.0</ele><time>2026-04-18T12:55:44Z</time></trkpt><trkpt lat="46.09237242227511" lon="13.549060134298143"><ele>456.0</ele><time>2026-04-18T12:55:45Z</time></trkpt><trkpt lat="46.09231600171273" lon="13.549172056973571"><ele>456.0</ele><time>2026-04-18T12:55:46Z</time></trkpt><trkpt lat="46.09225726147123" lon="13.549286535213755"><ele>456.0</ele><time>2026-04-18T12:55:47Z</time></trkpt><trkpt lat="46.092202624492096" lon="13.549401825673497"><ele>454.3333333333333</ele><time>2026-04-18T12:55:48Z</time></trkpt><trkpt lat="46.092153286687925" lon="13.549508182591223"><ele>452.66666666666663</ele><time>2026-04-18T12:55:49Z</time></trkpt><trkpt lat="46.092102067016434" lon="13.549602050645651"><ele>451.0</ele><time>2026-04-18T12:55:50Z</time></trkpt><trkpt lat="46.09204294401374" lon="13.549690382511251"><ele>449.3333333333333</ele><time>2026-04-18T12:55:51Z</time></trkpt><trkpt lat="46.091973595567005" lon="13.54978011700556"><ele>447.66666666666663</ele><time>2026-04-18T12:55:52Z</time></trkpt><trkpt lat="46.09190208529829" lon="13.549874933758298"><ele>446.0</ele><time>2026-04-18T12:55:53Z</time></trkpt><trkpt lat="46.09185381516133" lon="13.550005559252003"><ele>446.0</ele><time>2026-04-18T12:55:54Z</time></trkpt><trkpt lat="46.09180257209752" lon="13.55013860370845"><ele>446.0</ele><time>2026-04-18T12:55:55Z</time></trkpt><trkpt lat="46.09172413030154" lon="13.550243066462158"><ele>446.0</ele><time>2026-04-18T12:55:56Z</time></trkpt><trkpt lat="46.09163248606154" lon="13.550340372726096"><ele>446.0</ele><time>2026-04-18T12:55:57Z</time></trkpt><trkpt lat="46.09154149767675" lon="13.550431172496205"><ele>446.0</ele><time>2026-04-18T12:55:58Z</time></trkpt><trkpt lat="46.0914501850548" lon="13.55051876001861"><ele>443.0</ele><time>2026-04-18T12:55:59Z</time></trkpt><trkpt lat="46.09135882568918" lon="13.550592919086407"><ele>440.0</ele><time>2026-04-18T12:56:00Z</time></trkpt><trkpt lat="46.09127083489247" lon="13.55065734628243"><ele>437.0</ele><time>2026-04-18T12:56:01Z</time></trkpt><trkpt lat="46.091194742095915" lon="13.550731298793837"><ele>434.0</ele><time>2026-04-18T12:56:02Z</time></trkpt><trkpt lat="46.09112868088264" lon="13.550812895364404"><ele>431.0</ele><time>2026-04-18T12:56:03Z</time></trkpt><trkpt lat="46.091071150374" lon="13.550907732949392"><ele>430.99999999999994</ele><time>2026-04-18T12:56:04Z</time></trkpt><trkpt lat="46.09102338492277" lon="13.550999767947697"><ele>431.0</ele><time>2026-04-18T12:56:05Z</time></trkpt><trkpt lat="46.09098138090591" lon="13.551083766509299"><ele>431.0</ele><time>2026-04-18T12:56:06Z</time></trkpt><trkpt lat="46.09094295042349" lon="13.551155939736498"><ele>431.0</ele><time>2026-04-18T12:56:07Z</time></trkpt><trkpt lat="46.09084702529809" lon="13.551203161944988"><ele>430.99999999999994</ele><time>2026-04-18T12:56:09Z</time></trkpt><trkpt lat="46.090803593232216" lon="13.551060996673337"><ele>431.0</ele><time>2026-04-18T12:56:11Z</time></trkpt><trkpt lat="46.090855371992184" lon="13.550966470809266"><ele>431.0</ele><time>2026-04-18T12:56:12Z</time></trkpt><trkpt lat="46.090931226548385" lon="13.550907267835269"><ele>431.0</ele><time>2026-04-18T12:56:13Z</time></trkpt><trkpt lat="46.09099770090827" lon="13.550812277302533"><ele>431.0</ele><time>2026-04-18T12:56:14Z</time></trkpt><trkpt lat="46.091062041186255" lon="13.550706743555029"><ele>431.0</ele><time>2026-04-18T12:56:15Z</time></trkpt><trkpt lat="46.09111979018742" lon="13.550608298914032"><ele>431.0</ele><time>2026-04-18T12:56:16Z</time></trkpt><trkpt lat="46.09117265425323" lon="13.550514628372092"><ele>430.99999999999994</ele><time>2026-04-18T12:56:17Z</time></trkpt><trkpt lat="46.09122903113148" lon="13.550431163753759"><ele>431.0</ele><time>2026-04-18T12:56:18Z</time></trkpt><trkpt lat="46.09127486827515" lon="13.55033645912226"><ele>431.0</ele><time>2026-04-18T12:56:19Z</time></trkpt><trkpt lat="46.09129360428609" lon="13.55023394424198"><ele>431.0</ele><time>2026-04-18T12:56:20Z</time></trkpt><trkpt lat="46.09127986475717" lon="13.550126221755397"><ele>430.99999999999994</ele><time>2026-04-18T12:56:21Z</time></trkpt><trkpt lat="46.091229093725175" lon="13.550028303443442"><ele>431.0</ele><time>2026-04-18T12:56:22Z</time></trkpt><trkpt lat="46.0911737471594" lon="13.5499488882045"><ele>428.99999999999994</ele><time>2026-04-18T12:56:23Z</time></trkpt><trkpt lat="46.09113265350444" lon="13.549856625719991"><ele>427.0</ele><time>2026-04-18T12:56:24Z</time></trkpt><trkpt lat="46.091106349372204" lon="13.549756444015829"><ele>425.0</ele><time>2026-04-18T12:56:25Z</time></trkpt><trkpt lat="46.09109367256317" lon="13.54965097931404"><ele>423.0</ele><time>2026-04-18T12:56:26Z</time></trkpt><trkpt lat="46.091103320163775" lon="13.549541603185663"><ele>420.99999999999994</ele><time>2026-04-18T12:56:27Z</time></trkpt><trkpt lat="46.0911223558512" lon="13.54942936974866"><ele>419.0</ele><time>2026-04-18T12:56:28Z</time></trkpt><trkpt lat="46.09114121772462" lon="13.549313275139577"><ele>418.16666666666663</ele><time>2026-04-18T12:56:29Z</time></trkpt><trkpt lat="46.09116568388223" lon="13.549200907002636"><ele>417.3333333333333</ele><time>2026-04-18T12:56:30Z</time></trkpt><trkpt lat="46.09119272208715" lon="13.549089855274858"><ele>416.5</ele><time>2026-04-18T12:56:31Z</time></trkpt><trkpt lat="46.09122307627566" lon="13.548982694891173"><ele>415.66666666666663</ele><time>2026-04-18T12:56:32Z</time></trkpt><trkpt lat="46.09126381957082" lon="13.54888665376437"><ele>414.8333333333333</ele><time>2026-04-18T12:56:33Z</time></trkpt><trkpt lat="46.09130541046196" lon="13.548797391679313"><ele>414.0</ele><time>2026-04-18T12:56:34Z</time></trkpt><trkpt lat="46.09135604701652" lon="13.548726824195917"><ele>414.5</ele><time>2026-04-18T12:56:35Z</time></trkpt><trkpt lat="46.09141668626836" lon="13.548673634786594"><ele>415.0</ele><time>2026-04-18T12:56:36Z</time></trkpt><trkpt lat="46.09149105742358" lon="13.548634198405898"><ele>415.5</ele><time>2026-04-18T12:56:37Z</time></trkpt><trkpt lat="46.091576634608565" lon="13.548610744763044"><ele>416.0</ele><time>2026-04-18T12:56:38Z</time></trkpt><trkpt lat="46.09166694926222" lon="13.548591242194128"><ele>416.5</ele><time>2026-04-18T12:56:39Z</time></trkpt><trkpt lat="46.09175284240905" lon="13.548540755309238"><ele>417.0</ele><time>2026-04-18T12:56:40Z</time></trkpt><trkpt lat="46.09182615967491" lon="13.548480561547226"><ele>417.0</ele><time>2026-04-18T12:56:41Z</time></trkpt><trkpt lat="46.09189326792495" lon="13.54842513059995"><ele>417.0</ele><time>2026-04-18T12:56:42Z</time></trkpt><trkpt lat="46.091957057046464" lon="13.548374716292347"><ele>417.0</ele><time>2026-04-18T12:56:43Z</time></trkpt><trkpt lat="46.09201313636861" lon="13.54833005896467"><ele>417.0</ele><time>2026-04-18T12:56:44Z</time></trkpt><trkpt lat="46.092096450371514" lon="13.548250124847906"><ele>417.0</ele><time>2026-04-18T12:56:46Z</time></trkpt><trkpt lat="46.09211099319943" lon="13.548129682586156"><ele>417.0</ele><time>2026-04-18T12:56:48Z</time></trkpt><trkpt lat="46.09201836930903" lon="13.548036621777056"><ele>417.0</ele><time>2026-04-18T12:56:50Z</time></trkpt><trkpt lat="46.09194037483561" lon="13.548069872504499"><ele>417.0</ele><time>2026-04-18T12:56:51Z</time></trkpt><trkpt lat="46.09186935000231" lon="13.54812422051025"><ele>417.0</ele><time>2026-04-18T12:56:52Z</time></trkpt><trkpt lat="46.091788533045886" lon="13.548158486691348"><ele>417.0</ele><time>2026-04-18T12:56:53Z</time></trkpt><trkpt lat="46.09170420721249" lon="13.548185911133094"><ele>417.0</ele><time>2026-04-18T12:56:54Z</time></trkpt><trkpt lat="46.0916168327711" lon="13.548203486064663"><ele>417.0</ele><time>2026-04-18T12:56:55Z</time></trkpt><trkpt lat="46.09152960091496" lon="13.548200127670906"><ele>415.6666666666667</ele><time>2026-04-18T12:56:56Z</time></trkpt><trkpt lat="46.091445906664546" lon="13.548176159179665"><ele>414.33333333333337</ele><time>2026-04-18T12:56:57Z</time></trkpt><trkpt lat="46.091374333427936" lon="13.548120067987043"><ele>413.0</ele><time>2026-04-18T12:56:58Z</time></trkpt><trkpt lat="46.091299644902364" lon="13.548078959859408"><ele>411.6666666666667</ele><time>2026-04-18T12:56:59Z</time></trkpt><trkpt lat="46.091229560561324" lon="13.548053884174768"><ele>410.33333333333337</ele><time>2026-04-18T12:57:00Z</time></trkpt><trkpt lat="46.091156792494424" lon="13.548037167485548"><ele>409.0</ele><time>2026-04-18T12:57:00.999Z</time></trkpt><trkpt lat="46.09107572907749" lon="13.548052768536012"><ele>409.00000000000006</ele><time>2026-04-18T12:57:01.999Z</time></trkpt><trkpt lat="46.090998121098174" lon="13.548101423698371"><ele>409.0</ele><time>2026-04-18T12:57:02.999Z</time></trkpt><trkpt lat="46.090924666650736" lon="13.54816148222087"><ele>409.0</ele><time>2026-04-18T12:57:03.999Z</time></trkpt><trkpt lat="46.09084552947375" lon="13.548215644016306"><ele>409.0</ele><time>2026-04-18T12:57:04.999Z</time></trkpt><trkpt lat="46.09076602092331" lon="13.54826767046159"><ele>409.00000000000006</ele><time>2026-04-18T12:57:05.999Z</time></trkpt><trkpt lat="46.09068842884641" lon="13.54832592308082"><ele>409.0</ele><time>2026-04-18T12:57:06.999Z</time></trkpt><trkpt lat="46.0906096710519" lon="13.548383304533836"><ele>407.2</ele><time>2026-04-18T12:57:07.999Z</time></trkpt><trkpt lat="46.090531921217774" lon="13.54844060517329"><ele>405.4</ele><time>2026-04-18T12:57:08.999Z</time></trkpt><trkpt lat="46.09045294652155" lon="13.548503089354956"><ele>403.6</ele><time>2026-04-18T12:57:09.999Z</time></trkpt><trkpt lat="46.09036421306175" lon="13.548543557449694"><ele>401.8</ele><time>2026-04-18T12:57:10.999Z</time></trkpt><trkpt lat="46.09028702679297" lon="13.548617290403012"><ele>400.0</ele><time>2026-04-18T12:57:11.999Z</time></trkpt><trkpt lat="46.09020464367607" lon="13.548682302873313"><ele>399.83333333333337</ele><time>2026-04-18T12:57:12.999Z</time></trkpt><trkpt lat="46.09012042685054" lon="13.548743126580518"><ele>399.6666666666667</ele><time>2026-04-18T12:57:13.999Z</time></trkpt><trkpt lat="46.090040936601675" lon="13.548800475229575"><ele>399.5</ele><time>2026-04-18T12:57:14.999Z</time></trkpt><trkpt lat="46.08995887247099" lon="13.548838085106269"><ele>399.33333333333337</ele><time>2026-04-18T12:57:15.999Z</time></trkpt><trkpt lat="46.089872325246" lon="13.548831887943454"><ele>399.1666666666667</ele><time>2026-04-18T12:57:16.999Z</time></trkpt><trkpt lat="46.08978390029956" lon="13.548818312804327"><ele>399.0</ele><time>2026-04-18T12:57:17.999Z</time></trkpt><trkpt lat="46.08969375129131" lon="13.548770632428985"><ele>397.4</ele><time>2026-04-18T12:57:18.999Z</time></trkpt><trkpt lat="46.08959768229245" lon="13.548715817849434"><ele>395.79999999999995</ele><time>2026-04-18T12:57:19.999Z</time></trkpt><trkpt lat="46.089502737333014" lon="13.5486485532455"><ele>394.20000000000005</ele><time>2026-04-18T12:57:20.999Z</time></trkpt><trkpt lat="46.08940910780485" lon="13.548571815017361"><ele>392.6</ele><time>2026-04-18T12:57:21.999Z</time></trkpt><trkpt lat="46.08931456011362" lon="13.548470424278705"><ele>391.0</ele><time>2026-04-18T12:57:22.999Z</time></trkpt><trkpt lat="46.08921692569321" lon="13.548364669496893"><ele>391.0</ele><time>2026-04-18T12:57:23.999Z</time></trkpt><trkpt lat="46.089127749672585" lon="13.548266488809599"><ele>391.0</ele><time>2026-04-18T12:57:24.999Z</time></trkpt><trkpt lat="46.08904673813232" lon="13.548176666185144"><ele>391.0</ele><time>2026-04-18T12:57:26Z</time></trkpt><trkpt lat="46.088958420941985" lon="13.548110994657034"><ele>391.0</ele><time>2026-04-18T12:57:27Z</time></trkpt><trkpt lat="46.0888877896124" lon="13.5480079962313"><ele>391.0</ele><time>2026-04-18T12:57:28Z</time></trkpt><trkpt lat="46.088794213912315" lon="13.547945413422992"><ele>388.4</ele><time>2026-04-18T12:57:29Z</time></trkpt><trkpt lat="46.08869786864949" lon="13.547915023535381"><ele>385.8</ele><time>2026-04-18T12:57:30Z</time></trkpt><trkpt lat="46.08859800270434" lon="13.547915979837368"><ele>383.2</ele><time>2026-04-18T12:57:31Z</time></trkpt><trkpt lat="46.088507027607065" lon="13.547978075901566"><ele>380.59999999999997</ele><time>2026-04-18T12:57:32Z</time></trkpt><trkpt lat="46.08842508788714" lon="13.548043577177568"><ele>378.0</ele><time>2026-04-18T12:57:33Z</time></trkpt><trkpt lat="46.08834846641944" lon="13.548128307394249"><ele>378.0</ele><time>2026-04-18T12:57:34Z</time></trkpt><trkpt lat="46.0882744202591" lon="13.548222927136937"><ele>378.0</ele><time>2026-04-18T12:57:35Z</time></trkpt><trkpt lat="46.08821271088717" lon="13.54833728840581"><ele>378.0</ele><time>2026-04-18T12:57:36Z</time></trkpt><trkpt lat="46.0881686342726" lon="13.548470797101938"><ele>378.0</ele><time>2026-04-18T12:57:37Z</time></trkpt><trkpt lat="46.08812946627563" lon="13.548610305185127"><ele>378.0</ele><time>2026-04-18T12:57:38Z</time></trkpt><trkpt lat="46.08809574658876" lon="13.54874351663619"><ele>374.6666666666667</ele><time>2026-04-18T12:57:39Z</time></trkpt><trkpt lat="46.08806619501584" lon="13.548868660525606"><ele>371.3333333333333</ele><time>2026-04-18T12:57:40Z</time></trkpt><trkpt lat="46.08804353540687" lon="13.548990590819209"><ele>368.0</ele><time>2026-04-18T12:57:41Z</time></trkpt><trkpt lat="46.08804753753495" lon="13.549110675723107"><ele>364.66666666666663</ele><time>2026-04-18T12:57:42Z</time></trkpt><trkpt lat="46.08807476076788" lon="13.549219179690468"><ele>361.3333333333333</ele><time>2026-04-18T12:57:43Z</time></trkpt><trkpt lat="46.08812341892608" lon="13.549313379498138"><ele>358.0</ele><time>2026-04-18T12:57:44Z</time></trkpt><trkpt lat="46.0881925274611" lon="13.549384655557043"><ele>361.0</ele><time>2026-04-18T12:57:45Z</time></trkpt><trkpt lat="46.08827734113566" lon="13.549429113660675"><ele>364.0</ele><time>2026-04-18T12:57:46Z</time></trkpt><trkpt lat="46.08836172592164" lon="13.54946834069578"><ele>367.0</ele><time>2026-04-18T12:57:47Z</time></trkpt><trkpt lat="46.08843527643435" lon="13.549529145033661"><ele>370.0</ele><time>2026-04-18T12:57:48Z</time></trkpt><trkpt lat="46.08847941171719" lon="13.549610612044075"><ele>373.0</ele><time>2026-04-18T12:57:49Z</time></trkpt><trkpt lat="46.088488064975245" lon="13.549712595777724"><ele>376.0</ele><time>2026-04-18T12:57:50Z</time></trkpt><trkpt lat="46.088445716367275" lon="13.549798768574892"><ele>376.0</ele><time>2026-04-18T12:57:51Z</time></trkpt><trkpt lat="46.088358165070936" lon="13.549817017631685"><ele>376.0</ele><time>2026-04-18T12:57:52Z</time></trkpt><trkpt lat="46.08826232986126" lon="13.549884546527306"><ele>376.0</ele><time>2026-04-18T12:57:53Z</time></trkpt><trkpt lat="46.088154984220225" lon="13.549985556544284"><ele>376.0</ele><time>2026-04-18T12:57:54Z</time></trkpt><trkpt lat="46.08804947746268" lon="13.550077781154135"><ele>376.0</ele><time>2026-04-18T12:57:55Z</time></trkpt><trkpt lat="46.087958237303134" lon="13.55016242335733"><ele>370.6</ele><time>2026-04-18T12:57:56Z</time></trkpt><trkpt lat="46.08787606586888" lon="13.550243139679989"><ele>365.20000000000005</ele><time>2026-04-18T12:57:57Z</time></trkpt><trkpt lat="46.08779801118503" lon="13.550329462026811"><ele>359.79999999999995</ele><time>2026-04-18T12:57:58Z</time></trkpt><trkpt lat="46.0877312875791" lon="13.550437108893007"><ele>354.4</ele><time>2026-04-18T12:57:59Z</time></trkpt><trkpt lat="46.08767650931854" lon="13.550557733207595"><ele>349.0</ele><time>2026-04-18T12:58:00Z</time></trkpt><trkpt lat="46.0876284267654" lon="13.550678898360804"><ele>348.0</ele><time>2026-04-18T12:58:01Z</time></trkpt><trkpt lat="46.08759141553448" lon="13.550804249338183"><ele>347.0</ele><time>2026-04-18T12:58:02Z</time></trkpt><trkpt lat="46.08756842783963" lon="13.550931060894925"><ele>346.0</ele><time>2026-04-18T12:58:03Z</time></trkpt><trkpt lat="46.087565301645455" lon="13.551057193579247"><ele>345.0</ele><time>2026-04-18T12:58:04Z</time></trkpt><trkpt lat="46.0875820383852" lon="13.551175473163855"><ele>344.0</ele><time>2026-04-18T12:58:05Z</time></trkpt><trkpt lat="46.08762669771069" lon="13.551288252504289"><ele>343.0</ele><time>2026-04-18T12:58:06Z</time></trkpt><trkpt lat="46.08768198405213" lon="13.551395407415692"><ele>341.4</ele><time>2026-04-18T12:58:07Z</time></trkpt><trkpt lat="46.087752287845824" lon="13.551496832961865"><ele>339.79999999999995</ele><time>2026-04-18T12:58:08Z</time></trkpt><trkpt lat="46.0878178646468" lon="13.551592217899982"><ele>338.2</ele><time>2026-04-18T12:58:09Z</time></trkpt><trkpt lat="46.08787167945566" lon="13.551688711252623"><ele>336.6</ele><time>2026-04-18T12:58:10Z</time></trkpt><trkpt lat="46.087907649525" lon="13.55179768100778"><ele>335.0</ele><time>2026-04-18T12:58:11Z</time></trkpt><trkpt lat="46.0879239321392" lon="13.551925060921848"><ele>330.2</ele><time>2026-04-18T12:58:12Z</time></trkpt><trkpt lat="46.0879409623757" lon="13.552061189646833"><ele>325.4</ele><time>2026-04-18T12:58:13Z</time></trkpt><trkpt lat="46.08797497840374" lon="13.552197408874408"><ele>320.6</ele><time>2026-04-18T12:58:14Z</time></trkpt><trkpt lat="46.08802686260495" lon="13.552328223223025"><ele>315.8</ele><time>2026-04-18T12:58:15Z</time></trkpt><trkpt lat="46.0880911556398" lon="13.552459526006759"><ele>311.0</ele><time>2026-04-18T12:58:16Z</time></trkpt><trkpt lat="46.08815270431424" lon="13.552603044878847"><ele>311.0</ele><time>2026-04-18T12:58:17Z</time></trkpt><trkpt lat="46.08821140490844" lon="13.552746766902663"><ele>311.0</ele><time>2026-04-18T12:58:18Z</time></trkpt><trkpt lat="46.088287526958744" lon="13.55287444700604"><ele>311.0</ele><time>2026-04-18T12:58:19Z</time></trkpt><trkpt lat="46.088366673959044" lon="13.55301309975324"><ele>311.0</ele><time>2026-04-18T12:58:20Z</time></trkpt><trkpt lat="46.088464911170284" lon="13.553141859012861"><ele>311.0</ele><time>2026-04-18T12:58:21Z</time></trkpt><trkpt lat="46.08855037186003" lon="13.553254168380064"><ele>311.0</ele><time>2026-04-18T12:58:22Z</time></trkpt><trkpt lat="46.088619347889356" lon="13.553360087037978"><ele>311.0</ele><time>2026-04-18T12:58:23Z</time></trkpt><trkpt lat="46.088673293353914" lon="13.553467395349976"><ele>311.0</ele><time>2026-04-18T12:58:24Z</time></trkpt><trkpt lat="46.088721036459205" lon="13.553571794931765"><ele>311.0</ele><time>2026-04-18T12:58:25Z</time></trkpt><trkpt lat="46.088710288068235" lon="13.553715125059528"><ele>311.0</ele><time>2026-04-18T12:58:26Z</time></trkpt><trkpt lat="46.08866524252825" lon="13.553862985529138"><ele>311.0</ele><time>2026-04-18T12:58:27Z</time></trkpt><trkpt lat="46.088638393280384" lon="13.554021625205584"><ele>311.0</ele><time>2026-04-18T12:58:28Z</time></trkpt><trkpt lat="46.08864236527912" lon="13.554198233534208"><ele>311.0</ele><time>2026-04-18T12:58:29Z</time></trkpt><trkpt lat="46.08865011338684" lon="13.554393741866782"><ele>310.0</ele><time>2026-04-18T12:58:30Z</time></trkpt><trkpt lat="46.08866101627435" lon="13.554592847448038"><ele>309.0</ele><time>2026-04-18T12:58:31Z</time></trkpt><trkpt lat="46.0886825103976" lon="13.554788409657153"><ele>308.0</ele><time>2026-04-18T12:58:32Z</time></trkpt><trkpt lat="46.0887108867679" lon="13.55496479460101"><ele>307.0</ele><time>2026-04-18T12:58:33Z</time></trkpt><trkpt lat="46.088743611048784" lon="13.555122214992139"><ele>307.0</ele><time>2026-04-18T12:58:34Z</time></trkpt><trkpt lat="46.08877724873267" lon="13.555266401982559"><ele>307.0</ele><time>2026-04-18T12:58:35Z</time></trkpt><trkpt lat="46.088815024251254" lon="13.555397508584043"><ele>307.0</ele><time>2026-04-18T12:58:36Z</time></trkpt><trkpt lat="46.08886614994263" lon="13.55551280856735"><ele>307.0</ele><time>2026-04-18T12:58:37Z</time></trkpt><trkpt lat="46.08892469101151" lon="13.555599200536754"><ele>307.0</ele><time>2026-04-18T12:58:38Z</time></trkpt><trkpt lat="46.088985294230014" lon="13.555669742730464"><ele>305.8</ele><time>2026-04-18T12:58:39Z</time></trkpt><trkpt lat="46.08902343435368" lon="13.555765398816657"><ele>304.6</ele><time>2026-04-18T12:58:40Z</time></trkpt><trkpt lat="46.088990808678105" lon="13.555879144573675"><ele>303.40000000000003</ele><time>2026-04-18T12:58:41Z</time></trkpt><trkpt lat="46.088966376279984" lon="13.55604298068544"><ele>302.2</ele><time>2026-04-18T12:58:42Z</time></trkpt><trkpt lat="46.08894647944492" lon="13.556209245341964"><ele>301.0</ele><time>2026-04-18T12:58:43Z</time></trkpt><trkpt lat="46.088919407237015" lon="13.556353574228542"><ele>299.8333333333333</ele><time>2026-04-18T12:58:44Z</time></trkpt><trkpt lat="46.08890235094603" lon="13.55647873500549"><ele>298.66666666666663</ele><time>2026-04-18T12:58:45Z</time></trkpt><trkpt lat="46.088892429335765" lon="13.55659109845479"><ele>297.5</ele><time>2026-04-18T12:58:46Z</time></trkpt><trkpt lat="46.0888916693935" lon="13.556695426720513"><ele>296.3333333333333</ele><time>2026-04-18T12:58:47Z</time></trkpt><trkpt lat="46.08891643817981" lon="13.556788007335506"><ele>295.1666666666667</ele><time>2026-04-18T12:58:48Z</time></trkpt><trkpt lat="46.0889756425778" lon="13.55686179388219"><ele>294.0</ele><time>2026-04-18T12:58:49Z</time></trkpt><trkpt lat="46.08905970101391" lon="13.556898039747578"><ele>294.8</ele><time>2026-04-18T12:58:50Z</time></trkpt><trkpt lat="46.089119050929426" lon="13.556954079269367"><ele>295.59999999999997</ele><time>2026-04-18T12:58:51Z</time></trkpt><trkpt lat="46.08916104318321" lon="13.55709155651307"><ele>296.4</ele><time>2026-04-18T12:58:53Z</time></trkpt><trkpt lat="46.08900834415382" lon="13.557193060018486"><ele>297.2</ele><time>2026-04-18T12:58:55Z</time></trkpt><trkpt lat="46.08891817180262" lon="13.557225575735098"><ele>298.0</ele><time>2026-04-18T12:58:56Z</time></trkpt><trkpt lat="46.08884263606135" lon="13.557270704857677"><ele>298.0</ele><time>2026-04-18T12:58:57Z</time></trkpt><trkpt lat="46.08878375403613" lon="13.55732144722523"><ele>298.0</ele><time>2026-04-18T12:58:58Z</time></trkpt><trkpt lat="46.08875300528257" lon="13.557403320775665"><ele>298.0</ele><time>2026-04-18T12:58:59Z</time></trkpt><trkpt lat="46.08875006294654" lon="13.557520213237524"><ele>298.0</ele><time>2026-04-18T12:59:00Z</time></trkpt><trkpt lat="46.08873500692956" lon="13.557612572321421"><ele>298.0</ele><time>2026-04-18T12:59:01Z</time></trkpt><trkpt lat="46.088669665002435" lon="13.557704813350282"><ele>298.0</ele><time>2026-04-18T12:59:02Z</time></trkpt><trkpt lat="46.08857927527233" lon="13.557761618640166"><ele>298.0</ele><time>2026-04-18T12:59:03Z</time></trkpt><trkpt lat="46.08847542152179" lon="13.55777994158551"><ele>298.0</ele><time>2026-04-18T12:59:04Z</time></trkpt><trkpt lat="46.088367893109364" lon="13.557736665846656"><ele>298.0</ele><time>2026-04-18T12:59:05Z</time></trkpt><trkpt lat="46.08825521039977" lon="13.55767284044237"><ele>298.0</ele><time>2026-04-18T12:59:05.999Z</time></trkpt><trkpt lat="46.08814653833406" lon="13.55760934110902"><ele>293.0</ele><time>2026-04-18T12:59:06.999Z</time></trkpt><trkpt lat="46.08804517631141" lon="13.557583033209015"><ele>288.0</ele><time>2026-04-18T12:59:07.999Z</time></trkpt><trkpt lat="46.08794862390882" lon="13.55757253921153"><ele>283.0</ele><time>2026-04-18T12:59:08.999Z</time></trkpt><trkpt lat="46.08785713861122" lon="13.55758969307282"><ele>278.0</ele><time>2026-04-18T12:59:09.999Z</time></trkpt><trkpt lat="46.087771865308255" lon="13.557620219716005"><ele>273.0</ele><time>2026-04-18T12:59:10.999Z</time></trkpt><trkpt lat="46.08769605400531" lon="13.55765945340785"><ele>273.0</ele><time>2026-04-18T12:59:11.999Z</time></trkpt><trkpt lat="46.087630033883045" lon="13.557707490556233"><ele>273.0</ele><time>2026-04-18T12:59:12.999Z</time></trkpt><trkpt lat="46.0875262850094" lon="13.557751428605952"><ele>273.0</ele><time>2026-04-18T12:59:14.999Z</time></trkpt><trkpt lat="46.08748554695734" lon="13.557637807887172"><ele>273.0</ele><time>2026-04-18T12:59:16.999Z</time></trkpt><trkpt lat="46.08757809224293" lon="13.557529305826598"><ele>273.0</ele><time>2026-04-18T12:59:18.999Z</time></trkpt><trkpt lat="46.08769101326796" lon="13.557482216534268"><ele>273.0</ele><time>2026-04-18T12:59:20.999Z</time></trkpt><trkpt lat="46.087750340985465" lon="13.557443020356116"><ele>273.0</ele><time>2026-04-18T12:59:21.999Z</time></trkpt><trkpt lat="46.08780991870317" lon="13.55741033750748"><ele>273.0</ele><time>2026-04-18T12:59:22.999Z</time></trkpt><trkpt lat="46.08787056493908" lon="13.557385185904105"><ele>273.0</ele><time>2026-04-18T12:59:23.999Z</time></trkpt><trkpt lat="46.08798846821806" lon="13.557385957154073"><ele>273.0</ele><time>2026-04-18T12:59:25.999Z</time></trkpt><trkpt lat="46.088096937719186" lon="13.557393019493997"><ele>273.0</ele><time>2026-04-18T12:59:27.999Z</time></trkpt><trkpt lat="46.08817191287056" lon="13.557340841113923"><ele>273.0</ele><time>2026-04-18T12:59:29.999Z</time></trkpt><trkpt lat="46.08814800050535" lon="13.557225214911606"><ele>273.0</ele><time>2026-04-18T12:59:33Z</time></trkpt><trkpt lat="46.08801848950045" lon="13.557205689068354"><ele>273.0</ele><time>2026-04-18T12:59:35Z</time></trkpt><trkpt lat="46.08795240338052" lon="13.557197673847673"><ele>273.0</ele><time>2026-04-18T12:59:36Z</time></trkpt><trkpt lat="46.0878784973539" lon="13.557193658145822"><ele>273.0</ele><time>2026-04-18T12:59:37Z</time></trkpt><trkpt lat="46.08779507367726" lon="13.557209365371017"><ele>273.0</ele><time>2026-04-18T12:59:38Z</time></trkpt><trkpt lat="46.0877119125929" lon="13.557222296425806"><ele>273.0</ele><time>2026-04-18T12:59:39Z</time></trkpt><trkpt lat="46.08763053317722" lon="13.557224068715643"><ele>273.0</ele><time>2026-04-18T12:59:40Z</time></trkpt><trkpt lat="46.087553239210116" lon="13.557212916807055"><ele>273.0</ele><time>2026-04-18T12:59:41Z</time></trkpt><trkpt lat="46.08747766712706" lon="13.5571941523312"><ele>273.0</ele><time>2026-04-18T12:59:42Z</time></trkpt><trkpt lat="46.08740633579455" lon="13.557188366215318"><ele>273.0</ele><time>2026-04-18T12:59:43Z</time></trkpt><trkpt lat="46.08733330452921" lon="13.557191922988178"><ele>273.0</ele><time>2026-04-18T12:59:44Z</time></trkpt><trkpt lat="46.087260845316756" lon="13.557210011324635"><ele>266.0</ele><time>2026-04-18T12:59:45Z</time></trkpt><trkpt lat="46.08719558728275" lon="13.55723786818068"><ele>259.0</ele><time>2026-04-18T12:59:46Z</time></trkpt><trkpt lat="46.08714377082962" lon="13.557291144546646"><ele>252.0</ele><time>2026-04-18T12:59:47Z</time></trkpt><trkpt lat="46.087118103045476" lon="13.557380790330543"><ele>245.0</ele><time>2026-04-18T12:59:48Z</time></trkpt><trkpt lat="46.0871295173841" lon="13.557497822510962"><ele>238.0</ele><time>2026-04-18T12:59:49Z</time></trkpt><trkpt lat="46.08715647110479" lon="13.557619933615486"><ele>231.0</ele><time>2026-04-18T12:59:50Z</time></trkpt><trkpt lat="46.08717714853958" lon="13.557750888047096"><ele>228.60000000000002</ele><time>2026-04-18T12:59:51Z</time></trkpt><trkpt lat="46.08720154755731" lon="13.557883885431037"><ele>226.20000000000002</ele><time>2026-04-18T12:59:52Z</time></trkpt><trkpt lat="46.087227640654305" lon="13.558018874034028"><ele>223.79999999999998</ele><time>2026-04-18T12:59:53Z</time></trkpt><trkpt lat="46.08725786771305" lon="13.558157164436855"><ele>221.39999999999998</ele><time>2026-04-18T12:59:54Z</time></trkpt><trkpt lat="46.087296929652695" lon="13.558290129063131"><ele>219.0</ele><time>2026-04-18T12:59:55Z</time></trkpt><trkpt lat="46.08733995293355" lon="13.558425604506597"><ele>219.0</ele><time>2026-04-18T12:59:56Z</time></trkpt><trkpt lat="46.087382698701596" lon="13.558578498786407"><ele>219.0</ele><time>2026-04-18T12:59:57Z</time></trkpt><trkpt lat="46.08742712649187" lon="13.558746928678667"><ele>219.0</ele><time>2026-04-18T12:59:58Z</time></trkpt><trkpt lat="46.087464764330406" lon="13.558927771657347"><ele>219.0</ele><time>2026-04-18T12:59:59Z</time></trkpt><trkpt lat="46.087500827398635" lon="13.559114817479747"><ele>219.25</ele><time>2026-04-18T13:00:00Z</time></trkpt><trkpt lat="46.08754351524907" lon="13.55929766617578"><ele>219.5</ele><time>2026-04-18T13:00:01Z</time></trkpt><trkpt lat="46.087603453021714" lon="13.559471333479992"><ele>219.75</ele><time>2026-04-18T13:00:02Z</time></trkpt><trkpt lat="46.08767975583502" lon="13.559633272755155"><ele>220.0</ele><time>2026-04-18T13:00:03Z</time></trkpt><trkpt lat="46.08775623493359" lon="13.559797260415664"><ele>220.0</ele><time>2026-04-18T13:00:04Z</time></trkpt><trkpt lat="46.0878237322557" lon="13.559969845285838"><ele>220.0</ele><time>2026-04-18T13:00:05Z</time></trkpt><trkpt lat="46.0878856661857" lon="13.560152388753654"><ele>220.0</ele><time>2026-04-18T13:00:06Z</time></trkpt><trkpt lat="46.087944302976986" lon="13.56033034782733"><ele>220.0</ele><time>2026-04-18T13:00:07Z</time></trkpt><trkpt lat="46.088022132858825" lon="13.560492657970682"><ele>213.33333333333331</ele><time>2026-04-18T13:00:08Z</time></trkpt><trkpt lat="46.08812961584447" lon="13.56065000031841"><ele>206.66666666666669</ele><time>2026-04-18T13:00:09Z</time></trkpt><trkpt lat="46.088244531219644" lon="13.560821321830735"><ele>200.0</ele><time>2026-04-18T13:00:10Z</time></trkpt><trkpt lat="46.088355246311664" lon="13.56099782252422"><ele>200.0</ele><time>2026-04-18T13:00:11Z</time></trkpt><trkpt lat="46.088463527229955" lon="13.561177873745349"><ele>200.0</ele><time>2026-04-18T13:00:12Z</time></trkpt><trkpt lat="46.08856857391019" lon="13.561367861034334"><ele>200.0</ele><time>2026-04-18T13:00:13Z</time></trkpt><trkpt lat="46.08865992888716" lon="13.56156294996046"><ele>200.33333333333334</ele><time>2026-04-18T13:00:14Z</time></trkpt><trkpt lat="46.08874766229679" lon="13.561752067382097"><ele>200.66666666666669</ele><time>2026-04-18T13:00:15Z</time></trkpt><trkpt lat="46.08883500337323" lon="13.561933363387876"><ele>201.0</ele><time>2026-04-18T13:00:16Z</time></trkpt><trkpt lat="46.08891018055351" lon="13.562114953377062"><ele>201.0</ele><time>2026-04-18T13:00:17Z</time></trkpt><trkpt lat="46.08896725735996" lon="13.562302807424958"><ele>201.0</ele><time>2026-04-18T13:00:18Z</time></trkpt><trkpt lat="46.089012558289625" lon="13.562496399848326"><ele>201.0</ele><time>2026-04-18T13:00:19Z</time></trkpt><trkpt lat="46.08906211413049" lon="13.562688438674996"><ele>201.0</ele><time>2026-04-18T13:00:20Z</time></trkpt><trkpt lat="46.08910451570045" lon="13.562891394399152"><ele>208.25</ele><time>2026-04-18T13:00:21Z</time></trkpt><trkpt lat="46.08913011796062" lon="13.563104845590122"><ele>215.5</ele><time>2026-04-18T13:00:22Z</time></trkpt><trkpt lat="46.08914507973349" lon="13.563293027611088"><ele>222.75</ele><time>2026-04-18T13:00:23Z</time></trkpt><trkpt lat="46.08915861660701" lon="13.563471618205494"><ele>230.0</ele><time>2026-04-18T13:00:24Z</time></trkpt><trkpt lat="46.089164994170105" lon="13.56363432890043"><ele>229.75</ele><time>2026-04-18T13:00:25Z</time></trkpt><trkpt lat="46.08915311027463" lon="13.563799917429803"><ele>229.5</ele><time>2026-04-18T13:00:26Z</time></trkpt><trkpt lat="46.08911269030015" lon="13.563974745889942"><ele>229.25</ele><time>2026-04-18T13:00:27Z</time></trkpt><trkpt lat="46.089062869628826" lon="13.564148836145392"><ele>229.0</ele><time>2026-04-18T13:00:28Z</time></trkpt><trkpt lat="46.0890216863292" lon="13.564319939456878"><ele>222.0</ele><time>2026-04-18T13:00:29Z</time></trkpt><trkpt lat="46.088990394457426" lon="13.564488746919093"><ele>214.99999999999997</ele><time>2026-04-18T13:00:30Z</time></trkpt><trkpt lat="46.088976228295344" lon="13.564643870171832"><ele>208.0</ele><time>2026-04-18T13:00:31Z</time></trkpt><trkpt lat="46.088963364006155" lon="13.564800508056267"><ele>201.0</ele><time>2026-04-18T13:00:32Z</time></trkpt><trkpt lat="46.08894847689021" lon="13.564954783503412"><ele>194.0</ele><time>2026-04-18T13:00:33Z</time></trkpt><trkpt lat="46.088936085260734" lon="13.565105509255298"><ele>193.83333333333334</ele><time>2026-04-18T13:00:34Z</time></trkpt><trkpt lat="46.08892508153836" lon="13.565238567925485"><ele>193.66666666666669</ele><time>2026-04-18T13:00:35Z</time></trkpt><trkpt lat="46.08891162560755" lon="13.565356845467264"><ele>193.5</ele><time>2026-04-18T13:00:36Z</time></trkpt><trkpt lat="46.08891056414135" lon="13.565468010515886"><ele>193.33333333333331</ele><time>2026-04-18T13:00:37Z</time></trkpt><trkpt lat="46.088927395413926" lon="13.565573136703584"><ele>193.16666666666666</ele><time>2026-04-18T13:00:38Z</time></trkpt><trkpt lat="46.088967668440645" lon="13.565678481910385"><ele>193.0</ele><time>2026-04-18T13:00:39Z</time></trkpt><trkpt lat="46.089028381103724" lon="13.565776538756047"><ele>193.0</ele><time>2026-04-18T13:00:40Z</time></trkpt><trkpt lat="46.08909131319106" lon="13.56588447351967"><ele>193.0</ele><time>2026-04-18T13:00:41Z</time></trkpt><trkpt lat="46.08915026154283" lon="13.56600291788977"><ele>193.0</ele><time>2026-04-18T13:00:42Z</time></trkpt><trkpt lat="46.08920817995481" lon="13.566108905285047"><ele>193.0</ele><time>2026-04-18T13:00:43Z</time></trkpt><trkpt lat="46.08926452103869" lon="13.566208292953286"><ele>193.0</ele><time>2026-04-18T13:00:44Z</time></trkpt><trkpt lat="46.08931773077519" lon="13.566300660082652"><ele>194.83333333333331</ele><time>2026-04-18T13:00:45Z</time></trkpt><trkpt lat="46.089366723514566" lon="13.566379280622671"><ele>196.66666666666666</ele><time>2026-04-18T13:00:46Z</time></trkpt><trkpt lat="46.08940617345528" lon="13.566452598218278"><ele>198.5</ele><time>2026-04-18T13:00:47Z</time></trkpt><trkpt lat="46.08940611142269" lon="13.566568365418057"><ele>200.33333333333331</ele><time>2026-04-18T13:00:49Z</time></trkpt><trkpt lat="46.08934217453255" lon="13.566614209223172"><ele>202.16666666666666</ele><time>2026-04-18T13:00:52Z</time></trkpt><trkpt lat="46.08928006342186" lon="13.566579757669945"><ele>204.0</ele><time>2026-04-18T13:00:54Z</time></trkpt><trkpt lat="46.089214642203224" lon="13.566464111351213"><ele>204.0</ele><time>2026-04-18T13:00:56Z</time></trkpt><trkpt lat="46.08911039879525" lon="13.566374024722581"><ele>204.0</ele><time>2026-04-18T13:00:58Z</time></trkpt><trkpt lat="46.08905624913664" lon="13.566303351868187"><ele>204.0</ele><time>2026-04-18T13:00:59Z</time></trkpt><trkpt lat="46.08900331428812" lon="13.566227402578692"><ele>204.0</ele><time>2026-04-18T13:01:00Z</time></trkpt><trkpt lat="46.08895034184739" lon="13.566144410098902"><ele>204.0</ele><time>2026-04-18T13:01:01Z</time></trkpt><trkpt lat="46.08889435501318" lon="13.566058434507257"><ele>204.0</ele><time>2026-04-18T13:01:02Z</time></trkpt><trkpt lat="46.088835137294886" lon="13.565970543771419"><ele>202.16666666666666</ele><time>2026-04-18T13:01:03Z</time></trkpt><trkpt lat="46.088781899975515" lon="13.56588195362277"><ele>200.33333333333331</ele><time>2026-04-18T13:01:04Z</time></trkpt><trkpt lat="46.08872627376736" lon="13.56579401874939"><ele>198.5</ele><time>2026-04-18T13:01:05Z</time></trkpt><trkpt lat="46.08867709282754" lon="13.565705373261673"><ele>196.66666666666666</ele><time>2026-04-18T13:01:06Z</time></trkpt><trkpt lat="46.088641604392734" lon="13.565601980826198"><ele>194.83333333333331</ele><time>2026-04-18T13:01:07Z</time></trkpt><trkpt lat="46.088625195441374" lon="13.565486531487968"><ele>193.0</ele><time>2026-04-18T13:01:08Z</time></trkpt><trkpt lat="46.088628133903164" lon="13.565365833341788"><ele>193.0</ele><time>2026-04-18T13:01:09Z</time></trkpt><trkpt lat="46.08865175191956" lon="13.565234891580674"><ele>193.0</ele><time>2026-04-18T13:01:10Z</time></trkpt><trkpt lat="46.08868241710058" lon="13.565094466431761"><ele>193.0</ele><time>2026-04-18T13:01:11Z</time></trkpt><trkpt lat="46.08870457667495" lon="13.564943549702265"><ele>193.0</ele><time>2026-04-18T13:01:12Z</time></trkpt><trkpt lat="46.08870354444826" lon="13.564788258746074"><ele>193.0</ele><time>2026-04-18T13:01:13Z</time></trkpt><trkpt lat="46.08869661785038" lon="13.564643028046161"><ele>193.2</ele><time>2026-04-18T13:01:14Z</time></trkpt><trkpt lat="46.08868468484392" lon="13.564500118413191"><ele>193.4</ele><time>2026-04-18T13:01:15Z</time></trkpt><trkpt lat="46.088670649628654" lon="13.56435152779556"><ele>193.6</ele><time>2026-04-18T13:01:16Z</time></trkpt><trkpt lat="46.08866212641682" lon="13.564204049415562"><ele>193.79999999999998</ele><time>2026-04-18T13:01:16.999Z</time></trkpt><trkpt lat="46.08864904092609" lon="13.56405353952926"><ele>194.0</ele><time>2026-04-18T13:01:17.999Z</time></trkpt><trkpt lat="46.088638015233784" lon="13.563898201763637"><ele>194.0</ele><time>2026-04-18T13:01:18.999Z</time></trkpt><trkpt lat="46.088617468950595" lon="13.563750748731422"><ele>194.0</ele><time>2026-04-18T13:01:19.999Z</time></trkpt><trkpt lat="46.08859045176008" lon="13.563607464475878"><ele>194.0</ele><time>2026-04-18T13:01:20.999Z</time></trkpt><trkpt lat="46.088551108132435" lon="13.563470203685378"><ele>194.0</ele><time>2026-04-18T13:01:21.999Z</time></trkpt><trkpt lat="46.0885068214203" lon="13.563334237916607"><ele>194.0</ele><time>2026-04-18T13:01:22.999Z</time></trkpt><trkpt lat="46.08846319474831" lon="13.563194964444008"><ele>194.79999999999998</ele><time>2026-04-18T13:01:23.999Z</time></trkpt><trkpt lat="46.088424550481925" lon="13.56305354291463"><ele>195.6</ele><time>2026-04-18T13:01:24.999Z</time></trkpt><trkpt lat="46.08838939666089" lon="13.562903399262746"><ele>196.4</ele><time>2026-04-18T13:01:25.999Z</time></trkpt><trkpt lat="46.08834873743223" lon="13.562752222881503"><ele>197.2</ele><time>2026-04-18T13:01:26.999Z</time></trkpt><trkpt lat="46.088310395138656" lon="13.562596713959042"><ele>198.0</ele><time>2026-04-18T13:01:27.999Z</time></trkpt><trkpt lat="46.0882692517376" lon="13.562441120411707"><ele>196.0</ele><time>2026-04-18T13:01:28.999Z</time></trkpt><trkpt lat="46.088225209039706" lon="13.5622856666882"><ele>194.0</ele><time>2026-04-18T13:01:29.999Z</time></trkpt><trkpt lat="46.08818172623688" lon="13.562130751088263"><ele>192.0</ele><time>2026-04-18T13:01:30.999Z</time></trkpt><trkpt lat="46.088128627952614" lon="13.561976377995054"><ele>190.0</ele><time>2026-04-18T13:01:31.999Z</time></trkpt><trkpt lat="46.088060062847234" lon="13.561821761019855"><ele>190.0</ele><time>2026-04-18T13:01:32.999Z</time></trkpt><trkpt lat="46.08796698321766" lon="13.561672266746953"><ele>190.0</ele><time>2026-04-18T13:01:33.999Z</time></trkpt><trkpt lat="46.08785485594592" lon="13.561536978050432"><ele>190.0</ele><time>2026-04-18T13:01:34.999Z</time></trkpt><trkpt lat="46.08773344678003" lon="13.561402389585538"><ele>190.0</ele><time>2026-04-18T13:01:35.999Z</time></trkpt><trkpt lat="46.087611842929455" lon="13.561250585368843"><ele>188.0</ele><time>2026-04-18T13:01:36.999Z</time></trkpt><trkpt lat="46.08749577119019" lon="13.561092757527804"><ele>186.0</ele><time>2026-04-18T13:01:38Z</time></trkpt><trkpt lat="46.087379195195425" lon="13.560942440095928"><ele>184.0</ele><time>2026-04-18T13:01:39Z</time></trkpt><trkpt lat="46.08726406194348" lon="13.560803336448018"><ele>184.0</ele><time>2026-04-18T13:01:40Z</time></trkpt><trkpt lat="46.0871481457922" lon="13.560677064269997"><ele>184.0</ele><time>2026-04-18T13:01:41Z</time></trkpt><trkpt lat="46.08703994253926" lon="13.560549588016361"><ele>184.0</ele><time>2026-04-18T13:01:42Z</time></trkpt><trkpt lat="46.08693954954879" lon="13.560411178026802"><ele>184.0</ele><time>2026-04-18T13:01:43Z</time></trkpt><trkpt lat="46.086842736564115" lon="13.560266291016971"><ele>182.25</ele><time>2026-04-18T13:01:44Z</time></trkpt><trkpt lat="46.086758763211634" lon="13.560106899566303"><ele>180.5</ele><time>2026-04-18T13:01:45Z</time></trkpt><trkpt lat="46.08667798755326" lon="13.55993887209949"><ele>178.75</ele><time>2026-04-18T13:01:46Z</time></trkpt><trkpt lat="46.086593766080824" lon="13.559776259713548"><ele>177.0</ele><time>2026-04-18T13:01:47Z</time></trkpt><trkpt lat="46.08652072060044" lon="13.559607981220484"><ele>177.0</ele><time>2026-04-18T13:01:48Z</time></trkpt><trkpt lat="46.0864596161296" lon="13.559421541491954"><ele>177.0</ele><time>2026-04-18T13:01:49Z</time></trkpt><trkpt lat="46.08640667988918" lon="13.55920999581266"><ele>177.0</ele><time>2026-04-18T13:01:50Z</time></trkpt><trkpt lat="46.08634857368449" lon="13.558996670984895"><ele>177.0</ele><time>2026-04-18T13:01:51Z</time></trkpt><trkpt lat="46.08628842184795" lon="13.558782778184174"><ele>177.0</ele><time>2026-04-18T13:01:52Z</time></trkpt><trkpt lat="46.086226621510704" lon="13.558570492947489"><ele>177.0</ele><time>2026-04-18T13:01:53Z</time></trkpt><trkpt lat="46.08616258977222" lon="13.55836149244985"><ele>178.66666666666666</ele><time>2026-04-18T13:01:54Z</time></trkpt><trkpt lat="46.08609573930069" lon="13.558157247188937"><ele>180.33333333333331</ele><time>2026-04-18T13:01:55Z</time></trkpt><trkpt lat="46.086018434012324" lon="13.557959063097437"><ele>182.0</ele><time>2026-04-18T13:01:56Z</time></trkpt><trkpt lat="46.08594086825093" lon="13.557763895451425"><ele>184.66666666666666</ele><time>2026-04-18T13:01:57Z</time></trkpt><trkpt lat="46.085865094029764" lon="13.557562037960182"><ele>187.33333333333334</ele><time>2026-04-18T13:01:58Z</time></trkpt><trkpt lat="46.08578265299053" lon="13.557362615379704"><ele>190.0</ele><time>2026-04-18T13:01:59Z</time></trkpt><trkpt lat="46.08570201616491" lon="13.557159114272329"><ele>184.0</ele><time>2026-04-18T13:02:00Z</time></trkpt><trkpt lat="46.085620812001125" lon="13.556957264564803"><ele>178.0</ele><time>2026-04-18T13:02:01Z</time></trkpt><trkpt lat="46.08553408362188" lon="13.55675939850272"><ele>172.0</ele><time>2026-04-18T13:02:02Z</time></trkpt><trkpt lat="46.08544145548445" lon="13.55657257803362"><ele>172.0</ele><time>2026-04-18T13:02:03Z</time></trkpt><trkpt lat="46.085334943142364" lon="13.55639726431582"><ele>172.0</ele><time>2026-04-18T13:02:04Z</time></trkpt><trkpt lat="46.0852229659702" lon="13.556223575675945"><ele>172.0</ele><time>2026-04-18T13:02:05Z</time></trkpt><trkpt lat="46.08510856577354" lon="13.556062588657685"><ele>173.0</ele><time>2026-04-18T13:02:06Z</time></trkpt><trkpt lat="46.084985386220495" lon="13.55591863920955"><ele>174.0</ele><time>2026-04-18T13:02:07Z</time></trkpt><trkpt lat="46.08486221424187" lon="13.555792714843735"><ele>175.0</ele><time>2026-04-18T13:02:08Z</time></trkpt><trkpt lat="46.084746367136866" lon="13.555669150771301"><ele>175.0</ele><time>2026-04-18T13:02:09Z</time></trkpt><trkpt lat="46.084634507578855" lon="13.555546787246076"><ele>175.0</ele><time>2026-04-18T13:02:10Z</time></trkpt><trkpt lat="46.0845291228823" lon="13.555437291069637"><ele>175.0</ele><time>2026-04-18T13:02:11Z</time></trkpt><trkpt lat="46.08443838748773" lon="13.555320960579309"><ele>175.0</ele><time>2026-04-18T13:02:12Z</time></trkpt><trkpt lat="46.08436306451706" lon="13.555186282978227"><ele>174.75</ele><time>2026-04-18T13:02:13Z</time></trkpt><trkpt lat="46.084299375019796" lon="13.555011465296833"><ele>174.5</ele><time>2026-04-18T13:02:14Z</time></trkpt><trkpt lat="46.08424775394533" lon="13.554829591870956"><ele>174.25</ele><time>2026-04-18T13:02:15Z</time></trkpt><trkpt lat="46.08420281511276" lon="13.554649124248844"><ele>174.0</ele><time>2026-04-18T13:02:16Z</time></trkpt><trkpt lat="46.08416745605027" lon="13.554483334908639"><ele>173.75</ele><time>2026-04-18T13:02:17Z</time></trkpt><trkpt lat="46.08415237767307" lon="13.554314836347169"><ele>173.5</ele><time>2026-04-18T13:02:18Z</time></trkpt><trkpt lat="46.08415516249238" lon="13.5541316050153"><ele>173.25</ele><time>2026-04-18T13:02:19Z</time></trkpt><trkpt lat="46.08418096047432" lon="13.55394223125809"><ele>173.0</ele><time>2026-04-18T13:02:20Z</time></trkpt><trkpt lat="46.084219819644716" lon="13.553753848438001"><ele>172.25</ele><time>2026-04-18T13:02:21Z</time></trkpt><trkpt lat="46.08426221360394" lon="13.553568860141699"><ele>171.5</ele><time>2026-04-18T13:02:22Z</time></trkpt><trkpt lat="46.0843041561778" lon="13.553388020005453"><ele>170.75</ele><time>2026-04-18T13:02:23Z</time></trkpt><trkpt lat="46.08435099655848" lon="13.55322332462059"><ele>170.0</ele><time>2026-04-18T13:02:24Z</time></trkpt><trkpt lat="46.084399428974116" lon="13.553072116817534"><ele>170.0</ele><time>2026-04-18T13:02:25Z</time></trkpt><trkpt lat="46.08444416923805" lon="13.552924803601078"><ele>170.0</ele><time>2026-04-18T13:02:26Z</time></trkpt><trkpt lat="46.084483296085175" lon="13.552775485225386"><ele>170.0</ele><time>2026-04-18T13:02:27Z</time></trkpt><trkpt lat="46.08452947414379" lon="13.552617881887683"><ele>170.0</ele><time>2026-04-18T13:02:28Z</time></trkpt><trkpt lat="46.084595799781184" lon="13.552442383327696"><ele>169.75</ele><time>2026-04-18T13:02:29Z</time></trkpt><trkpt lat="46.084656846349056" lon="13.552258082909551"><ele>169.5</ele><time>2026-04-18T13:02:30Z</time></trkpt><trkpt lat="46.08470584819598" lon="13.552076858349537"><ele>169.25</ele><time>2026-04-18T13:02:31Z</time></trkpt><trkpt lat="46.08472942326832" lon="13.551892455357331"><ele>169.0</ele><time>2026-04-18T13:02:32Z</time></trkpt><trkpt lat="46.08472899132186" lon="13.551718530619453"><ele>169.75</ele><time>2026-04-18T13:02:33Z</time></trkpt><trkpt lat="46.0847081101037" lon="13.551555000336167"><ele>170.5</ele><time>2026-04-18T13:02:34Z</time></trkpt><trkpt lat="46.08466843863314" lon="13.551400036240835"><ele>171.25</ele><time>2026-04-18T13:02:35Z</time></trkpt><trkpt lat="46.084607397616004" lon="13.551255925527496"><ele>172.0</ele><time>2026-04-18T13:02:36Z</time></trkpt><trkpt lat="46.08452969177683" lon="13.551123526419508"><ele>172.2</ele><time>2026-04-18T13:02:37Z</time></trkpt><trkpt lat="46.08446151506933" lon="13.55101403794185"><ele>172.39999999999998</ele><time>2026-04-18T13:02:38Z</time></trkpt><trkpt lat="46.08438909594379" lon="13.550916468152382"><ele>172.60000000000002</ele><time>2026-04-18T13:02:39Z</time></trkpt><trkpt lat="46.08430273883472" lon="13.550840870634506"><ele>172.8</ele><time>2026-04-18T13:02:40Z</time></trkpt><trkpt lat="46.08419921684938" lon="13.550805646828648"><ele>173.0</ele><time>2026-04-18T13:02:41Z</time></trkpt><trkpt lat="46.08407990999366" lon="13.550788769984251"><ele>173.0</ele><time>2026-04-18T13:02:42Z</time></trkpt><trkpt lat="46.08395391636675" lon="13.550769447724711"><ele>173.0</ele><time>2026-04-18T13:02:43Z</time></trkpt><trkpt lat="46.083818267204656" lon="13.550745867494587"><ele>173.0</ele><time>2026-04-18T13:02:44Z</time></trkpt><trkpt lat="46.08367704120146" lon="13.550735970724846"><ele>173.0</ele><time>2026-04-18T13:02:45Z</time></trkpt><trkpt lat="46.08355173978387" lon="13.550721732259545"><ele>173.0</ele><time>2026-04-18T13:02:46Z</time></trkpt><trkpt lat="46.083439641035284" lon="13.550714838058118"><ele>173.0</ele><time>2026-04-18T13:02:47Z</time></trkpt><trkpt lat="46.08333657483052" lon="13.55070208153773"><ele>173.0</ele><time>2026-04-18T13:02:48Z</time></trkpt><trkpt lat="46.08323732848868" lon="13.550675981206423"><ele>173.0</ele><time>2026-04-18T13:02:49Z</time></trkpt><trkpt lat="46.08314079361426" lon="13.550630647888706"><ele>173.0</ele><time>2026-04-18T13:02:50Z</time></trkpt><trkpt lat="46.08306232409606" lon="13.550549340411116"><ele>171.4</ele><time>2026-04-18T13:02:51Z</time></trkpt><trkpt lat="46.0830067643033" lon="13.55043452420079"><ele>169.8</ele><time>2026-04-18T13:02:52Z</time></trkpt><trkpt lat="46.082974813048956" lon="13.550299041105951"><ele>168.2</ele><time>2026-04-18T13:02:53Z</time></trkpt><trkpt lat="46.08296787928051" lon="13.55015675652758"><ele>166.6</ele><time>2026-04-18T13:02:54Z</time></trkpt><trkpt lat="46.082991764866094" lon="13.549995845654175"><ele>165.0</ele><time>2026-04-18T13:02:55Z</time></trkpt><trkpt lat="46.08302013665913" lon="13.549811096806737"><ele>164.0</ele><time>2026-04-18T13:02:56Z</time></trkpt><trkpt lat="46.08304376877364" lon="13.549599059530566"><ele>163.0</ele><time>2026-04-18T13:02:57Z</time></trkpt><trkpt lat="46.08307234164369" lon="13.549374979983762"><ele>162.0</ele><time>2026-04-18T13:02:58Z</time></trkpt><trkpt lat="46.08310466649121" lon="13.549142229046986"><ele>161.66666666666666</ele><time>2026-04-18T13:02:59Z</time></trkpt><trkpt lat="46.08315598821074" lon="13.54889965348449"><ele>161.33333333333331</ele><time>2026-04-18T13:03:00Z</time></trkpt><trkpt lat="46.08321506233995" lon="13.54863311928942"><ele>161.0</ele><time>2026-04-18T13:03:01Z</time></trkpt><trkpt lat="46.08327894429485" lon="13.548359309604988"><ele>163.33333333333331</ele><time>2026-04-18T13:03:02Z</time></trkpt><trkpt lat="46.08334349467625" lon="13.548081796695168"><ele>165.66666666666666</ele><time>2026-04-18T13:03:03Z</time></trkpt><trkpt lat="46.08340394567717" lon="13.547819264884462"><ele>168.0</ele><time>2026-04-18T13:03:04Z</time></trkpt><trkpt lat="46.08346201704089" lon="13.547570940350983"><ele>168.0</ele><time>2026-04-18T13:03:05Z</time></trkpt><trkpt lat="46.083510297206914" lon="13.547334391278408"><ele>168.0</ele><time>2026-04-18T13:03:06Z</time></trkpt><trkpt lat="46.08355525788841" lon="13.547123041016073"><ele>168.0</ele><time>2026-04-18T13:03:07Z</time></trkpt><trkpt lat="46.083586358643" lon="13.546923502284761"><ele>167.0</ele><time>2026-04-18T13:03:08Z</time></trkpt><trkpt lat="46.08359713294916" lon="13.546728202350378"><ele>166.0</ele><time>2026-04-18T13:03:09Z</time></trkpt><trkpt lat="46.083582350569934" lon="13.546523526814457"><ele>165.0</ele><time>2026-04-18T13:03:10Z</time></trkpt><trkpt lat="46.08354020459651" lon="13.546301701460912"><ele>164.0</ele><time>2026-04-18T13:03:11Z</time></trkpt><trkpt lat="46.08348923403531" lon="13.546069620646895"><ele>164.0</ele><time>2026-04-18T13:03:12Z</time></trkpt><trkpt lat="46.08345137459434" lon="13.545819692557158"><ele>164.0</ele><time>2026-04-18T13:03:13Z</time></trkpt><trkpt lat="46.08342248892521" lon="13.545560078846183"><ele>164.0</ele><time>2026-04-18T13:03:14Z</time></trkpt><trkpt lat="46.08339274648377" lon="13.545300177452791"><ele>163.0</ele><time>2026-04-18T13:03:15Z</time></trkpt><trkpt lat="46.08335891345266" lon="13.545042557656883"><ele>162.0</ele><time>2026-04-18T13:03:16Z</time></trkpt><trkpt lat="46.083311795248456" lon="13.544797722192763"><ele>161.0</ele><time>2026-04-18T13:03:17Z</time></trkpt><trkpt lat="46.083259390130706" lon="13.544578589348564"><ele>160.66666666666666</ele><time>2026-04-18T13:03:18Z</time></trkpt><trkpt lat="46.08320067486642" lon="13.544363211598599"><ele>160.33333333333334</ele><time>2026-04-18T13:03:19Z</time></trkpt><trkpt lat="46.083127752852405" lon="13.544163969720458"><ele>160.0</ele><time>2026-04-18T13:03:19.999Z</time></trkpt><trkpt lat="46.08305604516167" lon="13.54397795094422"><ele>160.0</ele><time>2026-04-18T13:03:20.999Z</time></trkpt><trkpt lat="46.082989573655716" lon="13.543799137459093"><ele>160.0</ele><time>2026-04-18T13:03:21.999Z</time></trkpt><trkpt lat="46.08292624149233" lon="13.543622951043558"><ele>160.0</ele><time>2026-04-18T13:03:22.999Z</time></trkpt><trkpt lat="46.082865296603266" lon="13.54345087093218"><ele>160.0</ele><time>2026-04-18T13:03:23.999Z</time></trkpt><trkpt lat="46.0828112401204" lon="13.543294084977699"><ele>160.5</ele><time>2026-04-18T13:03:24.999Z</time></trkpt><trkpt lat="46.08275850864828" lon="13.543154709597939"><ele>161.0</ele><time>2026-04-18T13:03:25.999Z</time></trkpt><trkpt lat="46.08269176967958" lon="13.543028974982336"><ele>161.5</ele><time>2026-04-18T13:03:26.999Z</time></trkpt><trkpt lat="46.08260294696378" lon="13.542931974034758"><ele>162.0</ele><time>2026-04-18T13:03:27.999Z</time></trkpt><trkpt lat="46.082486388639005" lon="13.542861746427754"><ele>165.5</ele><time>2026-04-18T13:03:28.999Z</time></trkpt><trkpt lat="46.082356442595945" lon="13.542798089504299"><ele>169.0</ele><time>2026-04-18T13:03:29.999Z</time></trkpt><trkpt lat="46.08222249741245" lon="13.542743137692307"><ele>172.5</ele><time>2026-04-18T13:03:30.999Z</time></trkpt><trkpt lat="46.08208393512402" lon="13.542705943651779"><ele>176.0</ele><time>2026-04-18T13:03:31.999Z</time></trkpt><trkpt lat="46.08193514030192" lon="13.542696968761689"><ele>176.0</ele><time>2026-04-18T13:03:32.999Z</time></trkpt><trkpt lat="46.08178088642028" lon="13.542704233847008"><ele>176.0</ele><time>2026-04-18T13:03:33.999Z</time></trkpt><trkpt lat="46.08163056781628" lon="13.542714163987197"><ele>176.0</ele><time>2026-04-18T13:03:34.999Z</time></trkpt><trkpt lat="46.08147652982558" lon="13.5427400780421"><ele>178.66666666666666</ele><time>2026-04-18T13:03:35.999Z</time></trkpt><trkpt lat="46.08132586958494" lon="13.542788902904231"><ele>181.33333333333334</ele><time>2026-04-18T13:03:36.999Z</time></trkpt><trkpt lat="46.081177623649786" lon="13.542849280533993"><ele>184.0</ele><time>2026-04-18T13:03:37.999Z</time></trkpt><trkpt lat="46.08103960427852" lon="13.54290703355419"><ele>178.0</ele><time>2026-04-18T13:03:38.999Z</time></trkpt><trkpt lat="46.08090784497085" lon="13.54295712722456"><ele>172.0</ele><time>2026-04-18T13:03:39.999Z</time></trkpt><trkpt lat="46.08077886517772" lon="13.543006084882542"><ele>166.0</ele><time>2026-04-18T13:03:40.999Z</time></trkpt><trkpt lat="46.0806500827926" lon="13.543044328527364"><ele>160.0</ele><time>2026-04-18T13:03:41.999Z</time></trkpt><trkpt lat="46.08052061015581" lon="13.543071711051322"><ele>160.0</ele><time>2026-04-18T13:03:42.999Z</time></trkpt><trkpt lat="46.080391179292526" lon="13.543068880044874"><ele>160.0</ele><time>2026-04-18T13:03:44Z</time></trkpt><trkpt lat="46.08025807248448" lon="13.54305557929641"><ele>160.0</ele><time>2026-04-18T13:03:45Z</time></trkpt><trkpt lat="46.08012247523049" lon="13.543041053871875"><ele>160.0</ele><time>2026-04-18T13:03:46Z</time></trkpt><trkpt lat="46.079983153767614" lon="13.54302587711366"><ele>159.75</ele><time>2026-04-18T13:03:47Z</time></trkpt><trkpt lat="46.07984073578684" lon="13.542999869602758"><ele>159.5</ele><time>2026-04-18T13:03:48Z</time></trkpt><trkpt lat="46.079693054370544" lon="13.542974058049408"><ele>159.25</ele><time>2026-04-18T13:03:49Z</time></trkpt><trkpt lat="46.07953796883938" lon="13.54295379345298"><ele>159.0</ele><time>2026-04-18T13:03:50Z</time></trkpt><trkpt lat="46.07937999179582" lon="13.5429127324325"><ele>158.66666666666666</ele><time>2026-04-18T13:03:51Z</time></trkpt><trkpt lat="46.07921371119048" lon="13.542879452081246"><ele>158.33333333333331</ele><time>2026-04-18T13:03:52Z</time></trkpt><trkpt lat="46.07905070981808" lon="13.54285254637509"><ele>158.0</ele><time>2026-04-18T13:03:53Z</time></trkpt><trkpt lat="46.07889311498461" lon="13.542797357850898"><ele>158.0</ele><time>2026-04-18T13:03:54Z</time></trkpt><trkpt lat="46.078746190847774" lon="13.542726296835605"><ele>158.0</ele><time>2026-04-18T13:03:55Z</time></trkpt><trkpt lat="46.078614068938656" lon="13.542645705661986"><ele>158.0</ele><time>2026-04-18T13:03:56Z</time></trkpt><trkpt lat="46.078485061029866" lon="13.542572315143564"><ele>158.0</ele><time>2026-04-18T13:03:57Z</time></trkpt><trkpt lat="46.078362067582155" lon="13.542497017303651"><ele>156.25</ele><time>2026-04-18T13:03:58Z</time></trkpt><trkpt lat="46.0782414368055" lon="13.542417474069332"><ele>154.5</ele><time>2026-04-18T13:03:59Z</time></trkpt><trkpt lat="46.078122590072354" lon="13.54234340508298"><ele>152.75</ele><time>2026-04-18T13:04:00Z</time></trkpt><trkpt lat="46.078008052920936" lon="13.54226850776372"><ele>151.0</ele><time>2026-04-18T13:04:01Z</time></trkpt><trkpt lat="46.07789104741757" lon="13.542180994096096"><ele>151.0</ele><time>2026-04-18T13:04:02Z</time></trkpt><trkpt lat="46.07778165934019" lon="13.542072912243324"><ele>151.0</ele><time>2026-04-18T13:04:03Z</time></trkpt><trkpt lat="46.077688086654106" lon="13.541929361685492"><ele>151.0</ele><time>2026-04-18T13:04:04Z</time></trkpt><trkpt lat="46.077605069575405" lon="13.541768322073969"><ele>151.0</ele><time>2026-04-18T13:04:05Z</time></trkpt><trkpt lat="46.077538345215366" lon="13.541592279683092"><ele>152.0</ele><time>2026-04-18T13:04:06Z</time></trkpt><trkpt lat="46.07749198245491" lon="13.541404405748276"><ele>153.0</ele><time>2026-04-18T13:04:07Z</time></trkpt><trkpt lat="46.077462921864885" lon="13.54119664066656"><ele>154.0</ele><time>2026-04-18T13:04:08Z</time></trkpt><trkpt lat="46.07744426202033" lon="13.540982465053059"><ele>155.0</ele><time>2026-04-18T13:04:09Z</time></trkpt><trkpt lat="46.07742786079008" lon="13.540766515039161"><ele>155.0</ele><time>2026-04-18T13:04:10Z</time></trkpt><trkpt lat="46.07741139945371" lon="13.540550633239972"><ele>155.0</ele><time>2026-04-18T13:04:11Z</time></trkpt><trkpt lat="46.07739840337251" lon="13.54034906831355"><ele>155.0</ele><time>2026-04-18T13:04:12Z</time></trkpt><trkpt lat="46.07736894378038" lon="13.540146409486908"><ele>155.0</ele><time>2026-04-18T13:04:13Z</time></trkpt><trkpt lat="46.07731243958738" lon="13.539942727149423"><ele>154.66666666666666</ele><time>2026-04-18T13:04:14Z</time></trkpt><trkpt lat="46.07724532177563" lon="13.539735837649122"><ele>154.33333333333334</ele><time>2026-04-18T13:04:15Z</time></trkpt><trkpt lat="46.07718050599562" lon="13.539520630681713"><ele>154.0</ele><time>2026-04-18T13:04:16Z</time></trkpt><trkpt lat="46.07711033566538" lon="13.539315302169532"><ele>154.0</ele><time>2026-04-18T13:04:17Z</time></trkpt><trkpt lat="46.07702169845483" lon="13.53913046758073"><ele>154.0</ele><time>2026-04-18T13:04:18Z</time></trkpt><trkpt lat="46.07690496442223" lon="13.538962279355967"><ele>154.0</ele><time>2026-04-18T13:04:19Z</time></trkpt><trkpt lat="46.07677103005754" lon="13.53880342818704"><ele>152.0</ele><time>2026-04-18T13:04:20Z</time></trkpt><trkpt lat="46.076627077810514" lon="13.538647209500887"><ele>150.0</ele><time>2026-04-18T13:04:21Z</time></trkpt><trkpt lat="46.07648107844124" lon="13.53849099269167"><ele>148.0</ele><time>2026-04-18T13:04:22Z</time></trkpt><trkpt lat="46.07633752282688" lon="13.538349361876843"><ele>148.0</ele><time>2026-04-18T13:04:23Z</time></trkpt><trkpt lat="46.07619867119319" lon="13.538234698985073"><ele>148.0</ele><time>2026-04-18T13:04:24Z</time></trkpt><trkpt lat="46.07607513902448" lon="13.538137619950218"><ele>148.0</ele><time>2026-04-18T13:04:25Z</time></trkpt><trkpt lat="46.07596753034399" lon="13.538053725845218"><ele>148.0</ele><time>2026-04-18T13:04:26Z</time></trkpt><trkpt lat="46.07587540764504" lon="13.537960825446948"><ele>147.25</ele><time>2026-04-18T13:04:27Z</time></trkpt><trkpt lat="46.07580262462032" lon="13.537851114156185"><ele>146.5</ele><time>2026-04-18T13:04:28Z</time></trkpt><trkpt lat="46.07574847819498" lon="13.537711639948796"><ele>145.75</ele><time>2026-04-18T13:04:29Z</time></trkpt><trkpt lat="46.07571400236144" lon="13.537533348345846"><ele>145.0</ele><time>2026-04-18T13:04:30Z</time></trkpt><trkpt lat="46.07567224206782" lon="13.537353358677347"><ele>145.0</ele><time>2026-04-18T13:04:31Z</time></trkpt><trkpt lat="46.07561292288171" lon="13.537202902793204"><ele>145.0</ele><time>2026-04-18T13:04:32Z</time></trkpt><trkpt lat="46.0755429294138" lon="13.537068934861312"><ele>145.0</ele><time>2026-04-18T13:04:33Z</time></trkpt><trkpt lat="46.075458661579574" lon="13.536944880854527"><ele>145.0</ele><time>2026-04-18T13:04:34Z</time></trkpt><trkpt lat="46.075352031190796" lon="13.536833859290539"><ele>144.75</ele><time>2026-04-18T13:04:35Z</time></trkpt><trkpt lat="46.0752381982953" lon="13.536724711647915"><ele>144.5</ele><time>2026-04-18T13:04:36Z</time></trkpt><trkpt lat="46.07512169451448" lon="13.53659866323821"><ele>144.25</ele><time>2026-04-18T13:04:37Z</time></trkpt><trkpt lat="46.07500155018117" lon="13.536467463670975"><ele>144.0</ele><time>2026-04-18T13:04:38Z</time></trkpt><trkpt lat="46.0748852737822" lon="13.536332619833727"><ele>146.0</ele><time>2026-04-18T13:04:39Z</time></trkpt><trkpt lat="46.07476756930242" lon="13.536196698925162"><ele>148.0</ele><time>2026-04-18T13:04:40Z</time></trkpt><trkpt lat="46.07464869647693" lon="13.536064260659222"><ele>150.0</ele><time>2026-04-18T13:04:41Z</time></trkpt><trkpt lat="46.07453169764722" lon="13.535929054242539"><ele>150.0</ele><time>2026-04-18T13:04:42Z</time></trkpt><trkpt lat="46.074402727535585" lon="13.535794868602094"><ele>150.0</ele><time>2026-04-18T13:04:43Z</time></trkpt><trkpt lat="46.07426230688383" lon="13.53564650181809"><ele>150.0</ele><time>2026-04-18T13:04:44Z</time></trkpt><trkpt lat="46.07411414831568" lon="13.535488506980847"><ele>148.66666666666666</ele><time>2026-04-18T13:04:45Z</time></trkpt><trkpt lat="46.073960895493066" lon="13.535328428550002"><ele>147.33333333333331</ele><time>2026-04-18T13:04:46Z</time></trkpt><trkpt lat="46.07381857126368" lon="13.535169814095092"><ele>146.0</ele><time>2026-04-18T13:04:47Z</time></trkpt><trkpt lat="46.073678599867165" lon="13.535008868557021"><ele>146.0</ele><time>2026-04-18T13:04:48Z</time></trkpt><trkpt lat="46.07353835407853" lon="13.534851178409008"><ele>146.0</ele><time>2026-04-18T13:04:49Z</time></trkpt><trkpt lat="46.073402683753194" lon="13.534696794330866"><ele>146.0</ele><time>2026-04-18T13:04:50Z</time></trkpt><trkpt lat="46.07327520806575" lon="13.534544208207262"><ele>145.0</ele><time>2026-04-18T13:04:51Z</time></trkpt><trkpt lat="46.07315505008486" lon="13.5343836304906"><ele>144.0</ele><time>2026-04-18T13:04:52Z</time></trkpt><trkpt lat="46.073047040725605" lon="13.534206122981358"><ele>143.0</ele><time>2026-04-18T13:04:53Z</time></trkpt><trkpt lat="46.072943169928884" lon="13.534025462392847"><ele>143.0</ele><time>2026-04-18T13:04:54Z</time></trkpt><trkpt lat="46.0728347744899" lon="13.533868170760453"><ele>143.0</ele><time>2026-04-18T13:04:55Z</time></trkpt><trkpt lat="46.07270691935779" lon="13.533736838202149"><ele>143.0</ele><time>2026-04-18T13:04:56Z</time></trkpt><trkpt lat="46.07256455954473" lon="13.533614868158145"><ele>144.0</ele><time>2026-04-18T13:04:57Z</time></trkpt><trkpt lat="46.072423210310674" lon="13.533499253802782"><ele>145.0</ele><time>2026-04-18T13:04:58Z</time></trkpt><trkpt lat="46.072287754832104" lon="13.533389841255278"><ele>146.0</ele><time>2026-04-18T13:04:59Z</time></trkpt><trkpt lat="46.07215092886029" lon="13.533297609574213"><ele>146.0</ele><time>2026-04-18T13:05:00Z</time></trkpt><trkpt lat="46.07201147786939" lon="13.53322908012042"><ele>146.0</ele><time>2026-04-18T13:05:01Z</time></trkpt><trkpt lat="46.07186651194518" lon="13.533179535727482"><ele>146.0</ele><time>2026-04-18T13:05:02Z</time></trkpt><trkpt lat="46.071714584351994" lon="13.5331511095732"><ele>146.0</ele><time>2026-04-18T13:05:03Z</time></trkpt><trkpt lat="46.071574958765346" lon="13.533126034636512"><ele>145.75</ele><time>2026-04-18T13:05:04Z</time></trkpt><trkpt lat="46.071450404866496" lon="13.533109012430092"><ele>145.5</ele><time>2026-04-18T13:05:05Z</time></trkpt><trkpt lat="46.07133403654304" lon="13.533103691129241"><ele>145.25</ele><time>2026-04-18T13:05:06Z</time></trkpt><trkpt lat="46.071221909609186" lon="13.53311311323567"><ele>145.0</ele><time>2026-04-18T13:05:07Z</time></trkpt><trkpt lat="46.07112118059484" lon="13.533133456074236"><ele>145.0</ele><time>2026-04-18T13:05:08Z</time></trkpt><trkpt lat="46.0710268293057" lon="13.533154673639135"><ele>145.0</ele><time>2026-04-18T13:05:09Z</time></trkpt><trkpt lat="46.070927099769236" lon="13.53316240648383"><ele>145.0</ele><time>2026-04-18T13:05:10Z</time></trkpt><trkpt lat="46.0708342334926" lon="13.533141218963337"><ele>145.0</ele><time>2026-04-18T13:05:11Z</time></trkpt><trkpt lat="46.07075315375998" lon="13.533098277081343"><ele>145.0</ele><time>2026-04-18T13:05:12Z</time></trkpt><trkpt lat="46.07067834389232" lon="13.533008108006143"><ele>142.5</ele><time>2026-04-18T13:05:13Z</time></trkpt><trkpt lat="46.070620972574474" lon="13.53287218785884"><ele>140.0</ele><time>2026-04-18T13:05:14Z</time></trkpt><trkpt lat="46.07058696030466" lon="13.532707271226277"><ele>137.5</ele><time>2026-04-18T13:05:15Z</time></trkpt><trkpt lat="46.07057659353945" lon="13.532530727966936"><ele>135.0</ele><time>2026-04-18T13:05:16Z</time></trkpt><trkpt lat="46.0705743602731" lon="13.532333569092748"><ele>135.0</ele><time>2026-04-18T13:05:17Z</time></trkpt><trkpt lat="46.070563131580485" lon="13.532125963151366"><ele>135.0</ele><time>2026-04-18T13:05:18Z</time></trkpt><trkpt lat="46.07055192883909" lon="13.531904753795976"><ele>135.0</ele><time>2026-04-18T13:05:19Z</time></trkpt><trkpt lat="46.07053986745534" lon="13.531677472294103"><ele>135.0</ele><time>2026-04-18T13:05:20Z</time></trkpt><trkpt lat="46.070526856589865" lon="13.531441635186335"><ele>135.0</ele><time>2026-04-18T13:05:21Z</time></trkpt><trkpt lat="46.070513430299506" lon="13.531207757234885"><ele>135.0</ele><time>2026-04-18T13:05:22Z</time></trkpt><trkpt lat="46.07050039137642" lon="13.530968685626306"><ele>135.0</ele><time>2026-04-18T13:05:23Z</time></trkpt><trkpt lat="46.07048647079642" lon="13.530730119187849"><ele>135.0</ele><time>2026-04-18T13:05:23.999Z</time></trkpt><trkpt lat="46.07047673834965" lon="13.530506859222665"><ele>135.0</ele><time>2026-04-18T13:05:24.999Z</time></trkpt><trkpt lat="46.07046662302514" lon="13.53030780530202"><ele>135.0</ele><time>2026-04-18T13:05:25.999Z</time></trkpt><trkpt lat="46.070458579745114" lon="13.53013267290207"><ele>135.0</ele><time>2026-04-18T13:05:26.999Z</time></trkpt><trkpt lat="46.07044944510941" lon="13.529975557428665"><ele>135.0</ele><time>2026-04-18T13:05:27.999Z</time></trkpt><trkpt lat="46.07041903619526" lon="13.529829254952707"><ele>135.0</ele><time>2026-04-18T13:05:28.999Z</time></trkpt><trkpt lat="46.070362694664595" lon="13.529700172043942"><ele>135.0</ele><time>2026-04-18T13:05:29.999Z</time></trkpt><trkpt lat="46.070284138097485" lon="13.529577387993294"><ele>137.5</ele><time>2026-04-18T13:05:30.999Z</time></trkpt><trkpt lat="46.070187232438926" lon="13.529466151201792"><ele>140.0</ele><time>2026-04-18T13:05:31.999Z</time></trkpt><trkpt lat="46.070085537161894" lon="13.52936584613561"><ele>142.5</ele><time>2026-04-18T13:05:32.999Z</time></trkpt><trkpt lat="46.069969400674815" lon="13.529286595930317"><ele>145.0</ele><time>2026-04-18T13:05:33.999Z</time></trkpt><trkpt lat="46.06984293993599" lon="13.529225201810704"><ele>145.0</ele><time>2026-04-18T13:05:34.999Z</time></trkpt><trkpt lat="46.06971826005035" lon="13.529166098340635"><ele>145.0</ele><time>2026-04-18T13:05:35.999Z</time></trkpt><trkpt lat="46.06959489836063" lon="13.529106374126444"><ele>145.0</ele><time>2026-04-18T13:05:36.999Z</time></trkpt><trkpt lat="46.06947013627831" lon="13.529058873880217"><ele>145.0</ele><time>2026-04-18T13:05:37.999Z</time></trkpt><trkpt lat="46.06934136919826" lon="13.529031318533425"><ele>145.0</ele><time>2026-04-18T13:05:38.999Z</time></trkpt><trkpt lat="46.06921247275217" lon="13.529021686021345"><ele>145.0</ele><time>2026-04-18T13:05:39.999Z</time></trkpt><trkpt lat="46.0690860670269" lon="13.529034980502693"><ele>145.0</ele><time>2026-04-18T13:05:40.999Z</time></trkpt><trkpt lat="46.068956874389855" lon="13.529079345170295"><ele>145.0</ele><time>2026-04-18T13:05:41.999Z</time></trkpt><trkpt lat="46.0688245319429" lon="13.529132335914614"><ele>144.0</ele><time>2026-04-18T13:05:42.999Z</time></trkpt><trkpt lat="46.06868383300184" lon="13.529187517947658"><ele>143.0</ele><time>2026-04-18T13:05:43.999Z</time></trkpt><trkpt lat="46.06854237250197" lon="13.529245574970485"><ele>142.0</ele><time>2026-04-18T13:05:44.999Z</time></trkpt><trkpt lat="46.0683979530423" lon="13.52929918256332"><ele>141.0</ele><time>2026-04-18T13:05:45.999Z</time></trkpt><trkpt lat="46.06825562430098" lon="13.529343448601432"><ele>139.75</ele><time>2026-04-18T13:05:46.999Z</time></trkpt><trkpt lat="46.06811417013625" lon="13.529374422600457"><ele>138.5</ele><time>2026-04-18T13:05:47.999Z</time></trkpt><trkpt lat="46.06797883376313" lon="13.529384006541605"><ele>137.25</ele><time>2026-04-18T13:05:48.999Z</time></trkpt><trkpt lat="46.06785359737266" lon="13.529366466339804"><ele>136.0</ele><time>2026-04-18T13:05:50Z</time></trkpt><trkpt lat="46.06774120096634" lon="13.529323536173605"><ele>136.0</ele><time>2026-04-18T13:05:51Z</time></trkpt><trkpt lat="46.06764433380471" lon="13.529256435660015"><ele>136.0</ele><time>2026-04-18T13:05:52Z</time></trkpt><trkpt lat="46.06756448556956" lon="13.529152323659913"><ele>136.0</ele><time>2026-04-18T13:05:53Z</time></trkpt><trkpt lat="46.06749920188367" lon="13.529032912834895"><ele>136.0</ele><time>2026-04-18T13:05:54Z</time></trkpt><trkpt lat="46.06745520098649" lon="13.528896256213493"><ele>136.0</ele><time>2026-04-18T13:05:55Z</time></trkpt><trkpt lat="46.06744263709205" lon="13.528744848351867"><ele>136.75</ele><time>2026-04-18T13:05:56Z</time></trkpt><trkpt lat="46.067461720097384" lon="13.528565694350366"><ele>137.5</ele><time>2026-04-18T13:05:57Z</time></trkpt><trkpt lat="46.06748366726408" lon="13.528361582616585"><ele>138.25</ele><time>2026-04-18T13:05:58Z</time></trkpt><trkpt lat="46.06750325535791" lon="13.528137385634652"><ele>139.0</ele><time>2026-04-18T13:05:59Z</time></trkpt><trkpt lat="46.067532983323325" lon="13.52789499789351"><ele>137.66666666666669</ele><time>2026-04-18T13:06:00Z</time></trkpt><trkpt lat="46.06756339371804" lon="13.527649071888192"><ele>136.33333333333334</ele><time>2026-04-18T13:06:01Z</time></trkpt><trkpt lat="46.06759350333576" lon="13.527389875962953"><ele>135.0</ele><time>2026-04-18T13:06:02Z</time></trkpt><trkpt lat="46.06762531139391" lon="13.527124877568738"><ele>134.66666666666666</ele><time>2026-04-18T13:06:03Z</time></trkpt><trkpt lat="46.06765380777987" lon="13.526871808219715"><ele>134.33333333333331</ele><time>2026-04-18T13:06:04Z</time></trkpt><trkpt lat="46.06767773540624" lon="13.5266268083304"><ele>134.0</ele><time>2026-04-18T13:06:05Z</time></trkpt><trkpt lat="46.06769937733177" lon="13.52639666728831"><ele>134.25</ele><time>2026-04-18T13:06:06Z</time></trkpt><trkpt lat="46.067714552678694" lon="13.526190292064948"><ele>134.5</ele><time>2026-04-18T13:06:07Z</time></trkpt><trkpt lat="46.067716551015835" lon="13.526007395557242"><ele>134.75</ele><time>2026-04-18T13:06:08Z</time></trkpt><trkpt lat="46.067696139153725" lon="13.525825473555845"><ele>135.0</ele><time>2026-04-18T13:06:09Z</time></trkpt><trkpt lat="46.06765602089348" lon="13.525648453245505"><ele>135.0</ele><time>2026-04-18T13:06:10Z</time></trkpt><trkpt lat="46.06758806082165" lon="13.525470908749066"><ele>135.0</ele><time>2026-04-18T13:06:11Z</time></trkpt><trkpt lat="46.06750415997377" lon="13.525292419065346"><ele>135.0</ele><time>2026-04-18T13:06:12Z</time></trkpt><trkpt lat="46.06742323289698" lon="13.525095316166414"><ele>135.0</ele><time>2026-04-18T13:06:13Z</time></trkpt><trkpt lat="46.06733626718901" lon="13.524883983216181"><ele>133.0</ele><time>2026-04-18T13:06:14Z</time></trkpt><trkpt lat="46.06724859402362" lon="13.52465169930543"><ele>131.0</ele><time>2026-04-18T13:06:15Z</time></trkpt><trkpt lat="46.06716800207639" lon="13.52438779542489"><ele>129.0</ele><time>2026-04-18T13:06:16Z</time></trkpt><trkpt lat="46.06707521119707" lon="13.524103977545355"><ele>128.5</ele><time>2026-04-18T13:06:17Z</time></trkpt><trkpt lat="46.066978348439875" lon="13.523802729611528"><ele>128.0</ele><time>2026-04-18T13:06:18Z</time></trkpt><trkpt lat="46.066884870851936" lon="13.523495357950134"><ele>130.5</ele><time>2026-04-18T13:06:19Z</time></trkpt><trkpt lat="46.066778614520786" lon="13.523199425804679"><ele>133.0</ele><time>2026-04-18T13:06:20Z</time></trkpt><trkpt lat="46.06665533144704" lon="13.522908622092768"><ele>129.5</ele><time>2026-04-18T13:06:21Z</time></trkpt><trkpt lat="46.06652234874266" lon="13.522631304083536"><ele>126.0</ele><time>2026-04-18T13:06:22Z</time></trkpt><trkpt lat="46.06638499887277" lon="13.522360986828229"><ele>126.0</ele><time>2026-04-18T13:06:23Z</time></trkpt><trkpt lat="46.066252312983245" lon="13.52209950349148"><ele>126.0</ele><time>2026-04-18T13:06:24Z</time></trkpt><trkpt lat="46.06612835596" lon="13.521839632011824"><ele>126.0</ele><time>2026-04-18T13:06:25Z</time></trkpt><trkpt lat="46.0659946264987" lon="13.521604326340954"><ele>126.66666666666666</ele><time>2026-04-18T13:06:26Z</time></trkpt><trkpt lat="46.065850592169745" lon="13.521385680739801"><ele>127.33333333333333</ele><time>2026-04-18T13:06:27Z</time></trkpt><trkpt lat="46.0657067264766" lon="13.521172038132562"><ele>128.0</ele><time>2026-04-18T13:06:28Z</time></trkpt><trkpt lat="46.06557310533991" lon="13.520959170656239"><ele>128.0</ele><time>2026-04-18T13:06:29Z</time></trkpt><trkpt lat="46.065448431241556" lon="13.520754627541187"><ele>128.0</ele><time>2026-04-18T13:06:30Z</time></trkpt><trkpt lat="46.06532590302178" lon="13.520558036522084"><ele>128.0</ele><time>2026-04-18T13:06:31Z</time></trkpt><trkpt lat="46.06521011889706" lon="13.520367047764564"><ele>129.66666666666666</ele><time>2026-04-18T13:06:32Z</time></trkpt><trkpt lat="46.065099430939846" lon="13.520174699745226"><ele>131.33333333333334</ele><time>2026-04-18T13:06:33Z</time></trkpt><trkpt lat="46.064990740521964" lon="13.51998871532719"><ele>133.0</ele><time>2026-04-18T13:06:34Z</time></trkpt><trkpt lat="46.06487473887787" lon="13.519815377230831"><ele>129.66666666666669</ele><time>2026-04-18T13:06:35Z</time></trkpt><trkpt lat="46.06475425183439" lon="13.51965615808641"><ele>126.33333333333334</ele><time>2026-04-18T13:06:36Z</time></trkpt><trkpt lat="46.064639555943955" lon="13.519511658890655"><ele>123.0</ele><time>2026-04-18T13:06:37Z</time></trkpt><trkpt lat="46.06453672216082" lon="13.519386527557659"><ele>123.0</ele><time>2026-04-18T13:06:38Z</time></trkpt><trkpt lat="46.064451913344854" lon="13.519274560528288"><ele>123.00000000000001</ele><time>2026-04-18T13:06:39Z</time></trkpt><trkpt lat="46.06438184182609" lon="13.519168659573657"><ele>123.00000000000001</ele><time>2026-04-18T13:06:40Z</time></trkpt><trkpt lat="46.06433245587315" lon="13.519052880472033"><ele>123.0</ele><time>2026-04-18T13:06:41Z</time></trkpt><trkpt lat="46.064307438694776" lon="13.518915348792737"><ele>123.0</ele><time>2026-04-18T13:06:42Z</time></trkpt><trkpt lat="46.06430202637047" lon="13.518762755177628"><ele>123.25</ele><time>2026-04-18T13:06:43Z</time></trkpt><trkpt lat="46.06429564746228" lon="13.518596735417649"><ele>123.5</ele><time>2026-04-18T13:06:44Z</time></trkpt><trkpt lat="46.064288512420916" lon="13.518423600052945"><ele>123.75</ele><time>2026-04-18T13:06:45Z</time></trkpt><trkpt lat="46.064286243607526" lon="13.51824454821195"><ele>124.0</ele><time>2026-04-18T13:06:46Z</time></trkpt><trkpt lat="46.06428684164437" lon="13.518064338959263"><ele>124.25</ele><time>2026-04-18T13:06:47Z</time></trkpt><trkpt lat="46.06428873383573" lon="13.51788879755153"><ele>124.5</ele><time>2026-04-18T13:06:48Z</time></trkpt><trkpt lat="46.06428058677276" lon="13.517720942010788"><ele>124.75</ele><time>2026-04-18T13:06:49Z</time></trkpt><trkpt lat="46.06425267863879" lon="13.5175634277588"><ele>125.0</ele><time>2026-04-18T13:06:50Z</time></trkpt><trkpt lat="46.06420229194532" lon="13.517404077251467"><ele>125.0</ele><time>2026-04-18T13:06:51Z</time></trkpt><trkpt lat="46.0641252770024" lon="13.51724216965566"><ele>125.0</ele><time>2026-04-18T13:06:52Z</time></trkpt><trkpt lat="46.064026855449484" lon="13.517076420070234"><ele>125.0</ele><time>2026-04-18T13:06:53Z</time></trkpt><trkpt lat="46.063926461759586" lon="13.516902587392254"><ele>125.0</ele><time>2026-04-18T13:06:54Z</time></trkpt><trkpt lat="46.063833645408245" lon="13.516738276884043"><ele>125.0</ele><time>2026-04-18T13:06:55Z</time></trkpt><trkpt lat="46.06374866781899" lon="13.516598226940735"><ele>125.0</ele><time>2026-04-18T13:06:56Z</time></trkpt><trkpt lat="46.06366902833949" lon="13.516469280755556"><ele>125.0</ele><time>2026-04-18T13:06:57Z</time></trkpt><trkpt lat="46.06359513212719" lon="13.516335286791028"><ele>125.0</ele><time>2026-04-18T13:06:58Z</time></trkpt><trkpt lat="46.063530406921274" lon="13.516186071357632"><ele>125.0</ele><time>2026-04-18T13:06:59Z</time></trkpt><trkpt lat="46.06348912678825" lon="13.516017055974809"><ele>125.0</ele><time>2026-04-18T13:07:00Z</time></trkpt><trkpt lat="46.063473106993584" lon="13.51583112422735"><ele>125.0</ele><time>2026-04-18T13:07:01Z</time></trkpt><trkpt lat="46.063461758694125" lon="13.515622207388931"><ele>125.0</ele><time>2026-04-18T13:07:02Z</time></trkpt><trkpt lat="46.063445012788854" lon="13.515392020323219"><ele>125.66666666666666</ele><time>2026-04-18T13:07:03Z</time></trkpt><trkpt lat="46.06342458347109" lon="13.515162546526541"><ele>126.33333333333334</ele><time>2026-04-18T13:07:04Z</time></trkpt><trkpt lat="46.06340502111475" lon="13.514940027994477"><ele>127.0</ele><time>2026-04-18T13:07:05Z</time></trkpt><trkpt lat="46.063396489293865" lon="13.514738413003018"><ele>126.25</ele><time>2026-04-18T13:07:06Z</time></trkpt><trkpt lat="46.06340093246466" lon="13.514548687593289"><ele>125.5</ele><time>2026-04-18T13:07:07Z</time></trkpt><trkpt lat="46.063423699096376" lon="13.514352125050594"><ele>124.75</ele><time>2026-04-18T13:07:08Z</time></trkpt><trkpt lat="46.06345940485881" lon="13.51414652680253"><ele>124.0</ele><time>2026-04-18T13:07:09Z</time></trkpt><trkpt lat="46.06349536028488" lon="13.513921138965284"><ele>122.66666666666667</ele><time>2026-04-18T13:07:10Z</time></trkpt><trkpt lat="46.06353244563863" lon="13.513694091153388"><ele>121.33333333333334</ele><time>2026-04-18T13:07:11Z</time></trkpt><trkpt lat="46.06356893429308" lon="13.513459153860845"><ele>120.0</ele><time>2026-04-18T13:07:12Z</time></trkpt><trkpt lat="46.06361333702175" lon="13.513224385960559"><ele>120.0</ele><time>2026-04-18T13:07:13Z</time></trkpt><trkpt lat="46.06365621494992" lon="13.512980901966616"><ele>120.0</ele><time>2026-04-18T13:07:14Z</time></trkpt><trkpt lat="46.06368857914163" lon="13.512735017086978"><ele>120.0</ele><time>2026-04-18T13:07:15Z</time></trkpt><trkpt lat="46.06369821600325" lon="13.512486350390878"><ele>120.0</ele><time>2026-04-18T13:07:16Z</time></trkpt><trkpt lat="46.063702883120655" lon="13.512236529935354"><ele>120.0</ele><time>2026-04-18T13:07:17Z</time></trkpt><trkpt lat="46.06370762422537" lon="13.512009859919528"><ele>120.0</ele><time>2026-04-18T13:07:18Z</time></trkpt><trkpt lat="46.06371450283701" lon="13.511803198289899"><ele>120.25</ele><time>2026-04-18T13:07:19Z</time></trkpt><trkpt lat="46.06371626342308" lon="13.511616192788297"><ele>120.5</ele><time>2026-04-18T13:07:20Z</time></trkpt><trkpt lat="46.06369621202752" lon="13.511427597960374"><ele>120.75</ele><time>2026-04-18T13:07:21Z</time></trkpt><trkpt lat="46.06363621728713" lon="13.511250281111577"><ele>121.0</ele><time>2026-04-18T13:07:22Z</time></trkpt><trkpt lat="46.06352450891451" lon="13.511076761666402"><ele>120.0</ele><time>2026-04-18T13:07:23Z</time></trkpt><trkpt lat="46.063381678406614" lon="13.510891365209806"><ele>119.0</ele><time>2026-04-18T13:07:24Z</time></trkpt><trkpt lat="46.06324949957706" lon="13.510719923320234"><ele>118.0</ele><time>2026-04-18T13:07:25Z</time></trkpt><trkpt lat="46.06313890066995" lon="13.510574507352283"><ele>118.0</ele><time>2026-04-18T13:07:25.999Z</time></trkpt><trkpt lat="46.06304711894161" lon="13.510431653664732"><ele>118.0</ele><time>2026-04-18T13:07:26.999Z</time></trkpt><trkpt lat="46.062979951103394" lon="13.510289204805062"><ele>118.0</ele><time>2026-04-18T13:07:27.999Z</time></trkpt><trkpt lat="46.062940669744314" lon="13.510135490272"><ele>118.0</ele><time>2026-04-18T13:07:28.999Z</time></trkpt><trkpt lat="46.062922146284365" lon="13.50996773158638"><ele>118.5</ele><time>2026-04-18T13:07:29.999Z</time></trkpt><trkpt lat="46.062927127619" lon="13.509780524583123"><ele>119.0</ele><time>2026-04-18T13:07:30.999Z</time></trkpt><trkpt lat="46.062943941219565" lon="13.509577831836177"><ele>119.5</ele><time>2026-04-18T13:07:31.999Z</time></trkpt><trkpt lat="46.062947117183505" lon="13.50938267306206"><ele>120.0</ele><time>2026-04-18T13:07:32.999Z</time></trkpt><trkpt lat="46.06292893161104" lon="13.509204568929851"><ele>120.5</ele><time>2026-04-18T13:07:33.999Z</time></trkpt><trkpt lat="46.06287655098214" lon="13.509043754237373"><ele>121.0</ele><time>2026-04-18T13:07:34.999Z</time></trkpt><trkpt lat="46.06280231873711" lon="13.508902055604494"><ele>121.5</ele><time>2026-04-18T13:07:35.999Z</time></trkpt><trkpt lat="46.062710208383464" lon="13.50878308435725"><ele>122.0</ele><time>2026-04-18T13:07:36.999Z</time></trkpt><trkpt lat="46.06259777434832" lon="13.508697107362883"><ele>120.75</ele><time>2026-04-18T13:07:37.999Z</time></trkpt><trkpt lat="46.062473762663615" lon="13.50863373360195"><ele>119.5</ele><time>2026-04-18T13:07:38.999Z</time></trkpt><trkpt lat="46.06235952702916" lon="13.508569163595652"><ele>118.25</ele><time>2026-04-18T13:07:39.999Z</time></trkpt><trkpt lat="46.062260488474635" lon="13.508500793157165"><ele>117.0</ele><time>2026-04-18T13:07:40.999Z</time></trkpt><trkpt lat="46.06217404009654" lon="13.508411576520912"><ele>117.0</ele><time>2026-04-18T13:07:41.999Z</time></trkpt><trkpt lat="46.06210432108348" lon="13.508285132250348"><ele>117.0</ele><time>2026-04-18T13:07:42.999Z</time></trkpt><trkpt lat="46.062051090099715" lon="13.508129919564883"><ele>117.0</ele><time>2026-04-18T13:07:43.999Z</time></trkpt><trkpt lat="46.06202642240021" lon="13.507955860622307"><ele>117.0</ele><time>2026-04-18T13:07:44.999Z</time></trkpt><trkpt lat="46.06202310090466" lon="13.507778521970375"><ele>117.0</ele><time>2026-04-18T13:07:45.999Z</time></trkpt><trkpt lat="46.062039170468445" lon="13.507602911272349"><ele>117.0</ele><time>2026-04-18T13:07:46.999Z</time></trkpt><trkpt lat="46.06207913852594" lon="13.507429842985601"><ele>117.0</ele><time>2026-04-18T13:07:47.999Z</time></trkpt><trkpt lat="46.06213368800274" lon="13.50725556444618"><ele>117.0</ele><time>2026-04-18T13:07:48.999Z</time></trkpt><trkpt lat="46.06218812665264" lon="13.5070874023262"><ele>117.0</ele><time>2026-04-18T13:07:49.999Z</time></trkpt><trkpt lat="46.06224043899985" lon="13.506914987298648"><ele>117.0</ele><time>2026-04-18T13:07:50.999Z</time></trkpt><trkpt lat="46.0622932850073" lon="13.506745505012685"><ele>117.0</ele><time>2026-04-18T13:07:51.999Z</time></trkpt><trkpt lat="46.06234894002892" lon="13.506580240598705"><ele>117.0</ele><time>2026-04-18T13:07:52.999Z</time></trkpt><trkpt lat="46.06240161051726" lon="13.506412648495088"><ele>119.0</ele><time>2026-04-18T13:07:53.999Z</time></trkpt><trkpt lat="46.06245441823336" lon="13.506245300595973"><ele>121.0</ele><time>2026-04-18T13:07:54.999Z</time></trkpt><trkpt lat="46.062502546480204" lon="13.506079983047071"><ele>123.0</ele><time>2026-04-18T13:07:56Z</time></trkpt><trkpt lat="46.062544588404215" lon="13.505925305977966"><ele>125.0</ele><time>2026-04-18T13:07:57Z</time></trkpt><trkpt lat="46.06258540150204" lon="13.5057802564012"><ele>125.0</ele><time>2026-04-18T13:07:58Z</time></trkpt><trkpt lat="46.06262537994635" lon="13.505636466602017"><ele>125.0</ele><time>2026-04-18T13:07:59Z</time></trkpt><trkpt lat="46.062655747365405" lon="13.505487693415"><ele>125.0</ele><time>2026-04-18T13:08:00Z</time></trkpt><trkpt lat="46.06268578162406" lon="13.505339637859073"><ele>125.0</ele><time>2026-04-18T13:08:01Z</time></trkpt><trkpt lat="46.06271220544822" lon="13.505198649303116"><ele>125.0</ele><time>2026-04-18T13:08:02Z</time></trkpt><trkpt lat="46.062738585194715" lon="13.505071527238295"><ele>124.0</ele><time>2026-04-18T13:08:03Z</time></trkpt><trkpt lat="46.06276553532663" lon="13.504941686665902"><ele>123.0</ele><time>2026-04-18T13:08:04Z</time></trkpt><trkpt lat="46.06279491656173" lon="13.504812042869188"><ele>122.0</ele><time>2026-04-18T13:08:05Z</time></trkpt><trkpt lat="46.062841909085286" lon="13.50468559033921"><ele>121.0</ele><time>2026-04-18T13:08:06Z</time></trkpt><trkpt lat="46.06284991578842" lon="13.504539621502262"><ele>120.0</ele><time>2026-04-18T13:08:07Z</time></trkpt><trkpt lat="46.06284684353781" lon="13.504392922637777"><ele>120.0</ele><time>2026-04-18T13:08:08Z</time></trkpt><trkpt lat="46.06283537481426" lon="13.504234820909565"><ele>120.0</ele><time>2026-04-18T13:08:09Z</time></trkpt><trkpt lat="46.062822024074656" lon="13.504050774715003"><ele>120.0</ele><time>2026-04-18T13:08:10Z</time></trkpt><trkpt lat="46.062806673887124" lon="13.503836348776016"><ele>120.0</ele><time>2026-04-18T13:08:11Z</time></trkpt><trkpt lat="46.06279153663939" lon="13.503599569370175"><ele>120.25</ele><time>2026-04-18T13:08:12Z</time></trkpt><trkpt lat="46.06276683391753" lon="13.503363508667537"><ele>120.5</ele><time>2026-04-18T13:08:13Z</time></trkpt><trkpt lat="46.06275554207824" lon="13.50315778091432"><ele>120.75</ele><time>2026-04-18T13:08:14Z</time></trkpt><trkpt lat="46.0627441584783" lon="13.502976967518874"><ele>121.0</ele><time>2026-04-18T13:08:15Z</time></trkpt><trkpt lat="46.06273406602588" lon="13.502799731995786"><ele>122.0</ele><time>2026-04-18T13:08:16Z</time></trkpt><trkpt lat="46.06271174571261" lon="13.502633800827299"><ele>123.0</ele><time>2026-04-18T13:08:17Z</time></trkpt><trkpt lat="46.062666210094804" lon="13.502472006425917"><ele>124.0</ele><time>2026-04-18T13:08:18Z</time></trkpt><trkpt lat="46.06260079968445" lon="13.502318400631937"><ele>125.0</ele><time>2026-04-18T13:08:19Z</time></trkpt><trkpt lat="46.062492643948914" lon="13.502154630387892"><ele>123.0</ele><time>2026-04-18T13:08:20Z</time></trkpt><trkpt lat="46.062386912084825" lon="13.501971723401509"><ele>121.0</ele><time>2026-04-18T13:08:21Z</time></trkpt><trkpt lat="46.06227414015596" lon="13.501773901836092"><ele>119.0</ele><time>2026-04-18T13:08:22Z</time></trkpt><trkpt lat="46.062157112703055" lon="13.501576619971935"><ele>119.0</ele><time>2026-04-18T13:08:23Z</time></trkpt><trkpt lat="46.06204646690553" lon="13.501385447867975"><ele>119.0</ele><time>2026-04-18T13:08:24Z</time></trkpt><trkpt lat="46.0619322204365" lon="13.501208219701565"><ele>119.0</ele><time>2026-04-18T13:08:25Z</time></trkpt><trkpt lat="46.06180088219739" lon="13.501049877872935"><ele>118.66666666666666</ele><time>2026-04-18T13:08:26Z</time></trkpt><trkpt lat="46.0616472378078" lon="13.500902878689043"><ele>118.33333333333334</ele><time>2026-04-18T13:08:27Z</time></trkpt><trkpt lat="46.06148995943552" lon="13.500745649494865"><ele>118.0</ele><time>2026-04-18T13:08:28Z</time></trkpt><trkpt lat="46.061338489016826" lon="13.500598404575452"><ele>118.0</ele><time>2026-04-18T13:08:29Z</time></trkpt><trkpt lat="46.06118853344874" lon="13.500441738648085"><ele>118.0</ele><time>2026-04-18T13:08:30Z</time></trkpt><trkpt lat="46.0610073925623" lon="13.500344969535105"><ele>118.0</ele><time>2026-04-18T13:08:31Z</time></trkpt><trkpt lat="46.060834718051524" lon="13.500212878409156"><ele>116.33333333333334</ele><time>2026-04-18T13:08:32Z</time></trkpt><trkpt lat="46.06065946941528" lon="13.500130317075186"><ele>114.66666666666666</ele><time>2026-04-18T13:08:33Z</time></trkpt><trkpt lat="46.06050424727275" lon="13.500035012006572"><ele>113.0</ele><time>2026-04-18T13:08:34Z</time></trkpt><trkpt lat="46.06035666449165" lon="13.499937083502688"><ele>113.0</ele><time>2026-04-18T13:08:35Z</time></trkpt><trkpt lat="46.060222327242286" lon="13.499788523131663"><ele>113.0</ele><time>2026-04-18T13:08:36Z</time></trkpt><trkpt lat="46.06007936664423" lon="13.499650316709197"><ele>113.0</ele><time>2026-04-18T13:08:37Z</time></trkpt><trkpt lat="46.059945297249705" lon="13.499515431891078"><ele>115.33333333333333</ele><time>2026-04-18T13:08:38Z</time></trkpt><trkpt lat="46.05982580932379" lon="13.499379476198962"><ele>117.66666666666666</ele><time>2026-04-18T13:08:39Z</time></trkpt><trkpt lat="46.05970743818098" lon="13.499221313361167"><ele>120.0</ele><time>2026-04-18T13:08:40Z</time></trkpt><trkpt lat="46.05964023911223" lon="13.498988741189835"><ele>120.0</ele><time>2026-04-18T13:08:41Z</time></trkpt><trkpt lat="46.05955112903263" lon="13.4987534962175"><ele>120.0</ele><time>2026-04-18T13:08:42Z</time></trkpt><trkpt lat="46.059472415745" lon="13.498499273969193"><ele>120.0</ele><time>2026-04-18T13:08:43Z</time></trkpt><trkpt lat="46.05939451507024" lon="13.498245955241382"><ele>117.66666666666666</ele><time>2026-04-18T13:08:44Z</time></trkpt><trkpt lat="46.059320309160604" lon="13.497999517350591"><ele>115.33333333333333</ele><time>2026-04-18T13:08:45Z</time></trkpt><trkpt lat="46.05924293770535" lon="13.49776267201776"><ele>113.0</ele><time>2026-04-18T13:08:46Z</time></trkpt><trkpt lat="46.05916499271113" lon="13.497532891852547"><ele>111.0</ele><time>2026-04-18T13:08:47Z</time></trkpt><trkpt lat="46.05908644109898" lon="13.497306977871984"><ele>109.0</ele><time>2026-04-18T13:08:48Z</time></trkpt><trkpt lat="46.05899994786009" lon="13.497086430807334"><ele>107.0</ele><time>2026-04-18T13:08:49Z</time></trkpt><trkpt lat="46.058902903829086" lon="13.496875868189242"><ele>107.0</ele><time>2026-04-18T13:08:50Z</time></trkpt><trkpt lat="46.0587989066399" lon="13.496675995671419"><ele>107.0</ele><time>2026-04-18T13:08:51Z</time></trkpt><trkpt lat="46.05868700652214" lon="13.496492989365565"><ele>107.0</ele><time>2026-04-18T13:08:52Z</time></trkpt><trkpt lat="46.05856649704778" lon="13.496322803382592"><ele>106.66666666666666</ele><time>2026-04-18T13:08:53Z</time></trkpt><trkpt lat="46.05843466117272" lon="13.496170143824777"><ele>106.33333333333334</ele><time>2026-04-18T13:08:54Z</time></trkpt><trkpt lat="46.0582893633776" lon="13.496039629198476"><ele>106.0</ele><time>2026-04-18T13:08:55Z</time></trkpt><trkpt lat="46.05813368090241" lon="13.49592657894111"><ele>107.0</ele><time>2026-04-18T13:08:56Z</time></trkpt><trkpt lat="46.0579768124479" lon="13.495821997461071"><ele>108.0</ele><time>2026-04-18T13:08:57Z</time></trkpt><trkpt lat="46.05782372123049" lon="13.49572554380201"><ele>109.0</ele><time>2026-04-18T13:08:58Z</time></trkpt><trkpt lat="46.057679394613935" lon="13.495641988098434"><ele>109.0</ele><time>2026-04-18T13:08:59Z</time></trkpt><trkpt lat="46.057548759403815" lon="13.49557401949566"><ele>109.0</ele><time>2026-04-18T13:09:00Z</time></trkpt><trkpt lat="46.057413769926846" lon="13.495547676544515"><ele>109.0</ele><time>2026-04-18T13:09:01Z</time></trkpt><trkpt lat="46.057262724778745" lon="13.495569115482592"><ele>109.0</ele><time>2026-04-18T13:09:02Z</time></trkpt><trkpt lat="46.05712011949625" lon="13.495602230595434"><ele>109.0</ele><time>2026-04-18T13:09:03Z</time></trkpt><trkpt lat="46.05699105137077" lon="13.495613744937208"><ele>109.0</ele><time>2026-04-18T13:09:04Z</time></trkpt><trkpt lat="46.05686945516722" lon="13.495601609420415"><ele>109.0</ele><time>2026-04-18T13:09:05Z</time></trkpt><trkpt lat="46.05675558222137" lon="13.49556421260873"><ele>109.0</ele><time>2026-04-18T13:09:06Z</time></trkpt><trkpt lat="46.05665513614749" lon="13.495495264475194"><ele>108.75</ele><time>2026-04-18T13:09:07Z</time></trkpt><trkpt lat="46.05657013906847" lon="13.495386272633498"><ele>108.5</ele><time>2026-04-18T13:09:08Z</time></trkpt><trkpt lat="46.05649310830253" lon="13.495234556909915"><ele>108.25</ele><time>2026-04-18T13:09:09Z</time></trkpt><trkpt lat="46.056427618981985" lon="13.495050762504682"><ele>108.0</ele><time>2026-04-18T13:09:10Z</time></trkpt><trkpt lat="46.05635602793458" lon="13.49486614833498"><ele>108.0</ele><time>2026-04-18T13:09:11Z</time></trkpt><trkpt lat="46.0562952399503" lon="13.494667159945335"><ele>108.0</ele><time>2026-04-18T13:09:12Z</time></trkpt><trkpt lat="46.056222386373804" lon="13.49447155008512"><ele>108.0</ele><time>2026-04-18T13:09:13Z</time></trkpt><trkpt lat="46.05618571977726" lon="13.494267503787317"><ele>109.25</ele><time>2026-04-18T13:09:14Z</time></trkpt><trkpt lat="46.0561257971779" lon="13.494097962594154"><ele>110.5</ele><time>2026-04-18T13:09:15Z</time></trkpt><trkpt lat="46.056068569342436" lon="13.49394115377243"><ele>111.75</ele><time>2026-04-18T13:09:16Z</time></trkpt><trkpt lat="46.05601880335677" lon="13.493781297947656"><ele>113.0</ele><time>2026-04-18T13:09:17Z</time></trkpt><trkpt lat="46.05590106317731" lon="13.49369334973545"><ele>113.5</ele><time>2026-04-18T13:09:18Z</time></trkpt><trkpt lat="46.05579980796336" lon="13.49360011615569"><ele>114.0</ele><time>2026-04-18T13:09:19Z</time></trkpt><trkpt lat="46.05569530478642" lon="13.493497533719843"><ele>114.5</ele><time>2026-04-18T13:09:20Z</time></trkpt><trkpt lat="46.05559137797982" lon="13.49339253904819"><ele>115.0</ele><time>2026-04-18T13:09:21Z</time></trkpt><trkpt lat="46.055485499036045" lon="13.49328237746869"><ele>114.0</ele><time>2026-04-18T13:09:22Z</time></trkpt><trkpt lat="46.05537538262868" lon="13.493175160482492"><ele>113.0</ele><time>2026-04-18T13:09:22.999Z</time></trkpt><trkpt lat="46.05527143691187" lon="13.493049551386799"><ele>112.0</ele><time>2026-04-18T13:09:23.999Z</time></trkpt><trkpt lat="46.055158834381594" lon="13.492939502471833"><ele>111.0</ele><time>2026-04-18T13:09:24.999Z</time></trkpt><trkpt lat="46.05504084305628" lon="13.492847622123447"><ele>110.0</ele><time>2026-04-18T13:09:25.999Z</time></trkpt><trkpt lat="46.0549313779303" lon="13.492740686101069"><ele>109.0</ele><time>2026-04-18T13:09:26.999Z</time></trkpt><trkpt lat="46.05482880350852" lon="13.492630199073314"><ele>108.0</ele><time>2026-04-18T13:09:27.999Z</time></trkpt><trkpt lat="46.05474737230268" lon="13.49249767371377"><ele>107.0</ele><time>2026-04-18T13:09:28.999Z</time></trkpt><trkpt lat="46.05469700398858" lon="13.492325377031941"><ele>107.0</ele><time>2026-04-18T13:09:29.999Z</time></trkpt><trkpt lat="46.054622791195165" lon="13.492153794556854"><ele>107.0</ele><time>2026-04-18T13:09:30.999Z</time></trkpt><trkpt lat="46.054558945572595" lon="13.49195856772854"><ele>107.0</ele><time>2026-04-18T13:09:31.999Z</time></trkpt><trkpt lat="46.05448645501439" lon="13.491752576908091"><ele>107.0</ele><time>2026-04-18T13:09:32.999Z</time></trkpt><trkpt lat="46.05441454298573" lon="13.491535249560847"><ele>107.0</ele><time>2026-04-18T13:09:33.999Z</time></trkpt><trkpt lat="46.05433819858049" lon="13.491306788221648"><ele>107.0</ele><time>2026-04-18T13:09:34.999Z</time></trkpt><trkpt lat="46.05425937707195" lon="13.49107346256744"><ele>107.0</ele><time>2026-04-18T13:09:35.999Z</time></trkpt><trkpt lat="46.054180171000034" lon="13.490838189506183"><ele>107.0</ele><time>2026-04-18T13:09:36.999Z</time></trkpt><trkpt lat="46.054102271059186" lon="13.490605425527884"><ele>107.0</ele><time>2026-04-18T13:09:37.999Z</time></trkpt><trkpt lat="46.05402701867923" lon="13.49038041252441"><ele>106.66666666666666</ele><time>2026-04-18T13:09:38.999Z</time></trkpt><trkpt lat="46.05396115938949" lon="13.490161024420585"><ele>106.33333333333334</ele><time>2026-04-18T13:09:39.999Z</time></trkpt><trkpt lat="46.053888503439914" lon="13.489961134431276"><ele>106.0</ele><time>2026-04-18T13:09:40.999Z</time></trkpt><trkpt lat="46.05382698307945" lon="13.489767630604206"><ele>106.5</ele><time>2026-04-18T13:09:41.999Z</time></trkpt><trkpt lat="46.05376683764195" lon="13.489588437301435"><ele>107.0</ele><time>2026-04-18T13:09:42.999Z</time></trkpt><trkpt lat="46.05371754430296" lon="13.48942636367496"><ele>107.5</ele><time>2026-04-18T13:09:43.999Z</time></trkpt><trkpt lat="46.0536693587804" lon="13.48927661884082"><ele>108.0</ele><time>2026-04-18T13:09:44.999Z</time></trkpt><trkpt lat="46.05360429688968" lon="13.489143833927287"><ele>108.0</ele><time>2026-04-18T13:09:45.999Z</time></trkpt><trkpt lat="46.05351139927655" lon="13.489034884815165"><ele>108.0</ele><time>2026-04-18T13:09:46.999Z</time></trkpt><trkpt lat="46.053390452866104" lon="13.488942132854582"><ele>108.0</ele><time>2026-04-18T13:09:47.999Z</time></trkpt><trkpt lat="46.05325839028693" lon="13.488843646486824"><ele>108.0</ele><time>2026-04-18T13:09:48.999Z</time></trkpt><trkpt lat="46.05311888542194" lon="13.488742437383593"><ele>108.0</ele><time>2026-04-18T13:09:49.999Z</time></trkpt><trkpt lat="46.05297360931957" lon="13.488643342003856"><ele>108.0</ele><time>2026-04-18T13:09:50.999Z</time></trkpt><trkpt lat="46.0528341624319" lon="13.48853998536973"><ele>108.0</ele><time>2026-04-18T13:09:51.999Z</time></trkpt><trkpt lat="46.05269876855847" lon="13.488437176901352"><ele>108.0</ele><time>2026-04-18T13:09:52.999Z</time></trkpt><trkpt lat="46.052567474950614" lon="13.488337804298938"><ele>108.0</ele><time>2026-04-18T13:09:53.999Z</time></trkpt><trkpt lat="46.05244159273608" lon="13.488238256711567"><ele>108.0</ele><time>2026-04-18T13:09:54.999Z</time></trkpt><trkpt lat="46.05231881163009" lon="13.488141368039845"><ele>108.0</ele><time>2026-04-18T13:09:55.999Z</time></trkpt><trkpt lat="46.052191683526324" lon="13.488050825086523"><ele>107.75</ele><time>2026-04-18T13:09:56.999Z</time></trkpt><trkpt lat="46.05206735972122" lon="13.48795866142859"><ele>107.5</ele><time>2026-04-18T13:09:57.999Z</time></trkpt><trkpt lat="46.0519490443687" lon="13.487872249964829"><ele>107.25</ele><time>2026-04-18T13:09:58.999Z</time></trkpt><trkpt lat="46.05183681667429" lon="13.487793086848141"><ele>107.0</ele><time>2026-04-18T13:09:59.999Z</time></trkpt><trkpt lat="46.051744073453015" lon="13.487710450335438"><ele>107.0</ele><time>2026-04-18T13:10:00.999Z</time></trkpt><trkpt lat="46.05167066097189" lon="13.487614064915356"><ele>106.99999999999999</ele><time>2026-04-18T13:10:02Z</time></trkpt><trkpt lat="46.05163221119652" lon="13.487475530304469"><ele>106.99999999999999</ele><time>2026-04-18T13:10:03Z</time></trkpt><trkpt lat="46.05157814066696" lon="13.487338497118671"><ele>107.0</ele><time>2026-04-18T13:10:04Z</time></trkpt><trkpt lat="46.05154381596361" lon="13.487181563469331"><ele>107.0</ele><time>2026-04-18T13:10:05Z</time></trkpt><trkpt lat="46.05150887095625" lon="13.48703042160543"><ele>106.49999999999999</ele><time>2026-04-18T13:10:06Z</time></trkpt><trkpt lat="46.05147658509998" lon="13.486894507737016"><ele>106.0</ele><time>2026-04-18T13:10:07Z</time></trkpt><trkpt lat="46.05144800980107" lon="13.486768074754796"><ele>105.5</ele><time>2026-04-18T13:10:08Z</time></trkpt><trkpt lat="46.05142079069673" lon="13.4866537731119"><ele>105.0</ele><time>2026-04-18T13:10:09Z</time></trkpt><trkpt lat="46.05139168989738" lon="13.486549457596452"><ele>104.49999999999999</ele><time>2026-04-18T13:10:10Z</time></trkpt><trkpt lat="46.05136042511217" lon="13.486453885463138"><ele>104.0</ele><time>2026-04-18T13:10:11Z</time></trkpt><trkpt lat="46.05130104204922" lon="13.486300656597285"><ele>103.83333333333333</ele><time>2026-04-18T13:10:13Z</time></trkpt><trkpt lat="46.05124251993145" lon="13.486256045170625"><ele>103.66666666666666</ele><time>2026-04-18T13:10:14Z</time></trkpt><trkpt lat="46.051182808517154" lon="13.486161998020945"><ele>103.5</ele><time>2026-04-18T13:10:16Z</time></trkpt><trkpt lat="46.051110087562904" lon="13.486090995492665"><ele>103.33333333333334</ele><time>2026-04-18T13:11:57.999Z</time></trkpt><trkpt lat="46.05105423049413" lon="13.486038979316081"><ele>103.16666666666667</ele><time>2026-04-18T13:11:58.999Z</time></trkpt><trkpt lat="46.05098340505495" lon="13.485936169069602"><ele>103.0</ele><time>2026-04-18T13:11:59.999Z</time></trkpt><trkpt lat="46.050882173103666" lon="13.485820619332106"><ele>102.66666666666667</ele><time>2026-04-18T13:12:00.999Z</time></trkpt><trkpt lat="46.050758182189625" lon="13.485667019097187"><ele>102.33333333333334</ele><time>2026-04-18T13:12:01.999Z</time></trkpt><trkpt lat="46.050616628461206" lon="13.485486073829732"><ele>102.0</ele><time>2026-04-18T13:12:02.999Z</time></trkpt><trkpt lat="46.05046245484023" lon="13.485285258816752"><ele>102.0</ele><time>2026-04-18T13:12:03.999Z</time></trkpt><trkpt lat="46.05029906744825" lon="13.485069453750206"><ele>102.0</ele><time>2026-04-18T13:12:04.999Z</time></trkpt><trkpt lat="46.05013686942978" lon="13.484855349908438"><ele>102.0</ele><time>2026-04-18T13:12:05.999Z</time></trkpt><trkpt lat="46.04999848762781" lon="13.484664542917711"><ele>101.66666666666666</ele><time>2026-04-18T13:12:06.999Z</time></trkpt><trkpt lat="46.04987360505231" lon="13.484493537037013"><ele>101.33333333333333</ele><time>2026-04-18T13:12:08Z</time></trkpt><trkpt lat="46.04974745830222" lon="13.484334570346082"><ele>101.0</ele><time>2026-04-18T13:12:09Z</time></trkpt><trkpt lat="46.049611725424526" lon="13.484188952584057"><ele>101.0</ele><time>2026-04-18T13:12:10Z</time></trkpt><trkpt lat="46.0494596918154" lon="13.48406068920682"><ele>101.0</ele><time>2026-04-18T13:12:11Z</time></trkpt><trkpt lat="46.049298113030915" lon="13.483919314070652"><ele>101.0</ele><time>2026-04-18T13:12:12Z</time></trkpt><trkpt lat="46.04912173509845" lon="13.483790797480191"><ele>102.0</ele><time>2026-04-18T13:12:13Z</time></trkpt><trkpt lat="46.04893501236537" lon="13.48365474325053"><ele>103.0</ele><time>2026-04-18T13:12:14Z</time></trkpt><trkpt lat="46.048735007006975" lon="13.483535727328242"><ele>104.0</ele><time>2026-04-18T13:12:15Z</time></trkpt><trkpt lat="46.048546922561606" lon="13.483401910659817"><ele>104.0</ele><time>2026-04-18T13:12:16Z</time></trkpt><trkpt lat="46.04836749065641" lon="13.483272763410811"><ele>104.0</ele><time>2026-04-18T13:12:17Z</time></trkpt><trkpt lat="46.04820350218102" lon="13.483127220019387"><ele>104.0</ele><time>2026-04-18T13:12:18Z</time></trkpt><trkpt lat="46.048044117879876" lon="13.483009716662702"><ele>105.0</ele><time>2026-04-18T13:12:19Z</time></trkpt><trkpt lat="46.047891503416835" lon="13.482898376289949"><ele>106.0</ele><time>2026-04-18T13:12:20Z</time></trkpt><trkpt lat="46.04774804720061" lon="13.4827939642437"><ele>107.0</ele><time>2026-04-18T13:12:21Z</time></trkpt><trkpt lat="46.04760623050701" lon="13.482689573779522"><ele>107.0</ele><time>2026-04-18T13:12:22Z</time></trkpt><trkpt lat="46.04746310011435" lon="13.482580672993878"><ele>107.0</ele><time>2026-04-18T13:12:23Z</time></trkpt><trkpt lat="46.04732069035019" lon="13.482480748275012"><ele>107.0</ele><time>2026-04-18T13:12:24Z</time></trkpt><trkpt lat="46.04720055989152" lon="13.482318770750625"><ele>106.66666666666666</ele><time>2026-04-18T13:12:25Z</time></trkpt><trkpt lat="46.04711209741081" lon="13.482108220654185"><ele>106.33333333333334</ele><time>2026-04-18T13:12:26Z</time></trkpt><trkpt lat="46.047014026051805" lon="13.481900150271523"><ele>106.0</ele><time>2026-04-18T13:12:27Z</time></trkpt><trkpt lat="46.04692078077711" lon="13.4816953328892"><ele>106.0</ele><time>2026-04-18T13:12:28Z</time></trkpt><trkpt lat="46.0468289555834" lon="13.481493481036084"><ele>106.0</ele><time>2026-04-18T13:12:29Z</time></trkpt><trkpt lat="46.046738996877934" lon="13.481295400948229"><ele>106.0</ele><time>2026-04-18T13:12:30Z</time></trkpt><trkpt lat="46.046651361138075" lon="13.48110243589925"><ele>106.0</ele><time>2026-04-18T13:12:31Z</time></trkpt><trkpt lat="46.046568691526225" lon="13.480920405702498"><ele>106.0</ele><time>2026-04-18T13:12:32Z</time></trkpt><trkpt lat="46.046494005148745" lon="13.480755953546282"><ele>106.0</ele><time>2026-04-18T13:12:33Z</time></trkpt><trkpt lat="46.04642493765397" lon="13.480603660876566"><ele>106.0</ele><time>2026-04-18T13:12:34Z</time></trkpt><trkpt lat="46.04634736740646" lon="13.480474133328471"><ele>106.8</ele><time>2026-04-18T13:12:35Z</time></trkpt><trkpt lat="46.04629698179687" lon="13.480356054002588"><ele>107.6</ele><time>2026-04-18T13:12:36Z</time></trkpt><trkpt lat="46.04627072775769" lon="13.480251304072677"><ele>108.4</ele><time>2026-04-18T13:12:37Z</time></trkpt><trkpt lat="46.046219041983115" lon="13.480175757384432"><ele>109.2</ele><time>2026-04-18T13:12:38Z</time></trkpt><trkpt lat="46.046179084763736" lon="13.480082940756837"><ele>110.0</ele><time>2026-04-18T13:12:39Z</time></trkpt><trkpt lat="46.04610444138442" lon="13.479926013238643"><ele>109.99999999999999</ele><time>2026-04-18T13:12:41Z</time></trkpt><trkpt lat="46.046065346195554" lon="13.479829191150742"><ele>110.0</ele><time>2026-04-18T13:12:42Z</time></trkpt><trkpt lat="46.04602417584437" lon="13.47972541986389"><ele>110.0</ele><time>2026-04-18T13:12:43Z</time></trkpt><trkpt lat="46.04597482761081" lon="13.479618545286483"><ele>110.0</ele><time>2026-04-18T13:12:44Z</time></trkpt><trkpt lat="46.045931014820475" lon="13.479505475552322"><ele>109.99999999999999</ele><time>2026-04-18T13:12:45Z</time></trkpt><trkpt lat="46.045897002191715" lon="13.479384854248462"><ele>110.0</ele><time>2026-04-18T13:12:46Z</time></trkpt><trkpt lat="46.04587391115341" lon="13.479258951114826"><ele>109.8</ele><time>2026-04-18T13:12:47Z</time></trkpt><trkpt lat="46.04586499594251" lon="13.479126993719582"><ele>109.6</ele><time>2026-04-18T13:12:48Z</time></trkpt><trkpt lat="46.04586138533805" lon="13.478991830001224"><ele>109.4</ele><time>2026-04-18T13:12:49Z</time></trkpt><trkpt lat="46.04587488189243" lon="13.478854979288792"><ele>109.2</ele><time>2026-04-18T13:12:50Z</time></trkpt><trkpt lat="46.04587538112742" lon="13.478723654731144"><ele>109.0</ele><time>2026-04-18T13:12:51Z</time></trkpt><trkpt lat="46.04587440370382" lon="13.478601409087084"><ele>108.85714285714286</ele><time>2026-04-18T13:12:52Z</time></trkpt><trkpt lat="46.04586492148882" lon="13.47849366103072"><ele>108.71428571428572</ele><time>2026-04-18T13:12:53Z</time></trkpt><trkpt lat="46.0458459095212" lon="13.478397402508548"><ele>108.57142857142857</ele><time>2026-04-18T13:12:54Z</time></trkpt><trkpt lat="46.04577934011689" lon="13.478351175679235"><ele>108.42857142857143</ele><time>2026-04-18T13:12:55Z</time></trkpt><trkpt lat="46.045713212943724" lon="13.478319820752711"><ele>108.28571428571428</ele><time>2026-04-18T13:12:56Z</time></trkpt><trkpt lat="46.04564264464367" lon="13.478288665149593"><ele>108.14285714285714</ele><time>2026-04-18T13:12:57Z</time></trkpt><trkpt lat="46.045568041340594" lon="13.478307464421876"><ele>108.0</ele><time>2026-04-18T13:12:58Z</time></trkpt><trkpt lat="46.04549590340487" lon="13.478284381791124"><ele>107.66666666666667</ele><time>2026-04-18T13:12:59Z</time></trkpt><trkpt lat="46.04542019372674" lon="13.478265194607511"><ele>107.33333333333334</ele><time>2026-04-18T13:13:00Z</time></trkpt><trkpt lat="46.04533920650772" lon="13.478234146455005"><ele>107.0</ele><time>2026-04-18T13:13:01Z</time></trkpt><trkpt lat="46.04525326103587" lon="13.478195331590618"><ele>106.66666666666667</ele><time>2026-04-18T13:13:02Z</time></trkpt><trkpt lat="46.04516391696383" lon="13.478152358024651"><ele>106.33333333333334</ele><time>2026-04-18T13:13:03Z</time></trkpt><trkpt lat="46.04507909919313" lon="13.478081152752107"><ele>106.0</ele><time>2026-04-18T13:13:04Z</time></trkpt><trkpt lat="46.044981066890415" lon="13.478029027326892"><ele>105.25</ele><time>2026-04-18T13:13:05Z</time></trkpt><trkpt lat="46.044878346845344" lon="13.478011413954286"><ele>104.5</ele><time>2026-04-18T13:13:06Z</time></trkpt><trkpt lat="46.04476317891475" lon="13.477978127653099"><ele>103.75</ele><time>2026-04-18T13:13:07Z</time></trkpt><trkpt lat="46.04464141270032" lon="13.477951083153629"><ele>103.0</ele><time>2026-04-18T13:13:08Z</time></trkpt><trkpt lat="46.04452348409286" lon="13.477919161761742"><ele>102.75</ele><time>2026-04-18T13:13:09Z</time></trkpt><trkpt lat="46.04440797814077" lon="13.47788837774562"><ele>102.5</ele><time>2026-04-18T13:13:10Z</time></trkpt><trkpt lat="46.044288433324866" lon="13.477869598615136"><ele>102.25</ele><time>2026-04-18T13:13:11Z</time></trkpt><trkpt lat="46.044162616229656" lon="13.47785361828034"><ele>102.0</ele><time>2026-04-18T13:13:12Z</time></trkpt><trkpt lat="46.044045035773564" lon="13.47783569159661"><ele>102.0</ele><time>2026-04-18T13:13:13Z</time></trkpt><trkpt lat="46.0439451585258" lon="13.477861636110356"><ele>102.0</ele><time>2026-04-18T13:13:14Z</time></trkpt><trkpt lat="46.043862056843714" lon="13.477924431077843"><ele>102.0</ele><time>2026-04-18T13:13:15Z</time></trkpt><trkpt lat="46.043786597474096" lon="13.477971043402547"><ele>102.0</ele><time>2026-04-18T13:13:16Z</time></trkpt><trkpt lat="46.04372581668076" lon="13.478009240621526"><ele>102.0</ele><time>2026-04-18T13:13:17Z</time></trkpt><trkpt lat="46.04364501625992" lon="13.478052658667506"><ele>102.0</ele><time>2026-04-18T13:13:18.999Z</time></trkpt><trkpt lat="46.043578269158445" lon="13.478089961041086"><ele>102.0</ele><time>2026-04-18T13:13:20.999Z</time></trkpt><trkpt lat="46.04351538219546" lon="13.47795033054729"><ele>102.0</ele><time>2026-04-18T13:13:21.999Z</time></trkpt><trkpt lat="46.04345238325045" lon="13.477884862065922"><ele>102.0</ele><time>2026-04-18T13:13:22.999Z</time></trkpt><trkpt lat="46.04339578423978" lon="13.4777871520677"><ele>102.0</ele><time>2026-04-18T13:13:23.999Z</time></trkpt><trkpt lat="46.04332202675817" lon="13.477685391621666"><ele>102.0</ele><time>2026-04-18T13:13:24.999Z</time></trkpt><trkpt lat="46.043241964060634" lon="13.477583361456345"><ele>102.39999999999999</ele><time>2026-04-18T13:13:25.999Z</time></trkpt><trkpt lat="46.04314754957576" lon="13.477505824161602"><ele>102.8</ele><time>2026-04-18T13:13:26.999Z</time></trkpt><trkpt lat="46.04305877273286" lon="13.477442794895849"><ele>103.2</ele><time>2026-04-18T13:13:27.999Z</time></trkpt><trkpt lat="46.04296169340607" lon="13.477409207036466"><ele>103.6</ele><time>2026-04-18T13:13:28.999Z</time></trkpt><trkpt lat="46.042861492844935" lon="13.477352596051839"><ele>104.0</ele><time>2026-04-18T13:13:29.999Z</time></trkpt><trkpt lat="46.04276245512935" lon="13.477292959468341"><ele>104.0</ele><time>2026-04-18T13:13:30.999Z</time></trkpt><trkpt lat="46.04265998771978" lon="13.477244915836696"><ele>104.0</ele><time>2026-04-18T13:13:31.999Z</time></trkpt><trkpt lat="46.04253421822864" lon="13.477188721209561"><ele>104.0</ele><time>2026-04-18T13:13:32.999Z</time></trkpt><trkpt lat="46.04238080958197" lon="13.477215389727156"><ele>104.0</ele><time>2026-04-18T13:13:33.999Z</time></trkpt><trkpt lat="46.042202248116126" lon="13.47725175187133"><ele>103.0</ele><time>2026-04-18T13:13:34.999Z</time></trkpt><trkpt lat="46.04196266134805" lon="13.477314557840955"><ele>102.0</ele><time>2026-04-18T13:13:35.999Z</time></trkpt><trkpt lat="46.04165786637226" lon="13.4773727803777"><ele>100.0</ele><time>2026-04-18T13:13:36.999Z</time></trkpt><trkpt lat="46.04131126943979" lon="13.477456835404977"><ele>98.0</ele><time>2026-04-18T13:13:37.999Z</time></trkpt><trkpt lat="46.04097875124636" lon="13.477537201770058"><ele>98.0</ele><time>2026-04-18T13:13:38.999Z</time></trkpt><trkpt lat="46.04069010564418" lon="13.477609997477906"><ele>98.0</ele><time>2026-04-18T13:13:39.999Z</time></trkpt><trkpt lat="46.040437229886535" lon="13.477674284974736"><ele>98.0</ele><time>2026-04-18T13:13:40.999Z</time></trkpt><trkpt lat="46.040211661968776" lon="13.477747259809306"><ele>98.0</ele><time>2026-04-18T13:13:41.999Z</time></trkpt><trkpt lat="46.04000170371589" lon="13.477765747205824"><ele>98.0</ele><time>2026-04-18T13:13:42.999Z</time></trkpt><trkpt lat="46.039809180680834" lon="13.477733214448572"><ele>97.66666666666666</ele><time>2026-04-18T13:13:43.999Z</time></trkpt><trkpt lat="46.03961623531516" lon="13.477642984577937"><ele>97.33333333333334</ele><time>2026-04-18T13:13:44.999Z</time></trkpt><trkpt lat="46.039417204440625" lon="13.477551175203933"><ele>97.0</ele><time>2026-04-18T13:13:45.999Z</time></trkpt><trkpt lat="46.039201309140246" lon="13.477518145430944"><ele>97.5</ele><time>2026-04-18T13:13:46.999Z</time></trkpt><trkpt lat="46.03897290493684" lon="13.477552272420887"><ele>98.0</ele><time>2026-04-18T13:13:47.999Z</time></trkpt><trkpt lat="46.03873011323777" lon="13.477580961690732"><ele>98.0</ele><time>2026-04-18T13:13:48.999Z</time></trkpt><trkpt lat="46.038468222031966" lon="13.47762550369959"><ele>98.0</ele><time>2026-04-18T13:13:49.999Z</time></trkpt><trkpt lat="46.03818606847383" lon="13.477686660146203"><ele>96.0</ele><time>2026-04-18T13:13:50.999Z</time></trkpt><trkpt lat="46.03789426730836" lon="13.47774872959878"><ele>94.0</ele><time>2026-04-18T13:13:51.999Z</time></trkpt><trkpt lat="46.03758377466389" lon="13.47779118570398"><ele>94.5</ele><time>2026-04-18T13:13:52.999Z</time></trkpt><trkpt lat="46.03730337901268" lon="13.477845499268241"><ele>95.0</ele><time>2026-04-18T13:13:53.999Z</time></trkpt><trkpt lat="46.03706280322301" lon="13.477877925469585"><ele>95.0</ele><time>2026-04-18T13:13:54.999Z</time></trkpt><trkpt lat="46.03684607526899" lon="13.477901551294844"><ele>95.0</ele><time>2026-04-18T13:13:55.999Z</time></trkpt><trkpt lat="46.03663513594834" lon="13.477829395928838"><ele>95.0</ele><time>2026-04-18T13:13:56.999Z</time></trkpt><trkpt lat="46.03640571874142" lon="13.477754893403006"><ele>93.5</ele><time>2026-04-18T13:13:57.999Z</time></trkpt><trkpt lat="46.03616335481162" lon="13.477630170444666"><ele>92.0</ele><time>2026-04-18T13:13:58.999Z</time></trkpt><trkpt lat="46.035901833087756" lon="13.477506078097031"><ele>91.0</ele><time>2026-04-18T13:13:59.999Z</time></trkpt><trkpt lat="46.03563158600154" lon="13.477386520332443"><ele>90.0</ele><time>2026-04-18T13:14:00.999Z</time></trkpt><trkpt lat="46.03536707594515" lon="13.477243647903288"><ele>90.0</ele><time>2026-04-18T13:14:01.999Z</time></trkpt><trkpt lat="46.03510151178897" lon="13.477158415841032"><ele>90.0</ele><time>2026-04-18T13:14:02.999Z</time></trkpt><trkpt lat="46.03484727365809" lon="13.477079134995936"><ele>89.0</ele><time>2026-04-18T13:14:03.999Z</time></trkpt><trkpt lat="46.034602432661295" lon="13.477002784525146"><ele>88.0</ele><time>2026-04-18T13:14:04.999Z</time></trkpt><trkpt lat="46.03435944296949" lon="13.476964203725332"><ele>88.5</ele><time>2026-04-18T13:14:05.999Z</time></trkpt><trkpt lat="46.03413264410058" lon="13.476872659331633"><ele>89.0</ele><time>2026-04-18T13:14:06.999Z</time></trkpt><trkpt lat="46.033916995917174" lon="13.476778890629406"><ele>89.0</ele><time>2026-04-18T13:14:07.999Z</time></trkpt><trkpt lat="46.03371065648822" lon="13.476679623912936"><ele>89.0</ele><time>2026-04-18T13:14:08.999Z</time></trkpt><trkpt lat="46.03351366166985" lon="13.476579012666884"><ele>89.0</ele><time>2026-04-18T13:14:09.999Z</time></trkpt><trkpt lat="46.0333256931714" lon="13.476468068918724"><ele>89.0</ele><time>2026-04-18T13:14:10.999Z</time></trkpt><trkpt lat="46.033145131675504" lon="13.47632524547179"><ele>89.0</ele><time>2026-04-18T13:14:11.999Z</time></trkpt><trkpt lat="46.03297671824299" lon="13.476147110515372"><ele>89.0</ele><time>2026-04-18T13:14:12.999Z</time></trkpt><trkpt lat="46.0328195383336" lon="13.475971771762095"><ele>89.0</ele><time>2026-04-18T13:14:14Z</time></trkpt><trkpt lat="46.03266626133338" lon="13.475825563360681"><ele>89.0</ele><time>2026-04-18T13:14:15Z</time></trkpt><trkpt lat="46.03253010947081" lon="13.475686150119271"><ele>89.0</ele><time>2026-04-18T13:14:16Z</time></trkpt><trkpt lat="46.03237917733044" lon="13.47561210099071"><ele>89.5</ele><time>2026-04-18T13:14:17Z</time></trkpt><trkpt lat="46.03224779646647" lon="13.475534855628743"><ele>90.0</ele><time>2026-04-18T13:14:18Z</time></trkpt><trkpt lat="46.03212356300109" lon="13.475473832071128"><ele>90.5</ele><time>2026-04-18T13:14:19Z</time></trkpt><trkpt lat="46.03202000588981" lon="13.475425008749463"><ele>91.0</ele><time>2026-04-18T13:14:20Z</time></trkpt><trkpt lat="46.03192813971446" lon="13.475391360927194"><ele>91.0</ele><time>2026-04-18T13:14:21Z</time></trkpt><trkpt lat="46.03183721984508" lon="13.475393525971798"><ele>91.0</ele><time>2026-04-18T13:14:22Z</time></trkpt><trkpt lat="46.031741465764846" lon="13.475414436672455"><ele>91.0</ele><time>2026-04-18T13:14:23Z</time></trkpt><trkpt lat="46.03168169440853" lon="13.47556530853173"><ele>91.0</ele><time>2026-04-18T13:14:24Z</time></trkpt><trkpt lat="46.03164836551008" lon="13.475717558441813"><ele>91.0</ele><time>2026-04-18T13:14:25Z</time></trkpt><trkpt lat="46.031610001464976" lon="13.475870243601284"><ele>89.6</ele><time>2026-04-18T13:14:26Z</time></trkpt><trkpt lat="46.031573542142" lon="13.475994126807214"><ele>88.19999999999999</ele><time>2026-04-18T13:14:27Z</time></trkpt><trkpt lat="46.03153391622757" lon="13.476096394265285"><ele>86.80000000000001</ele><time>2026-04-18T13:14:28Z</time></trkpt><trkpt lat="46.03149232150198" lon="13.476181249043988"><ele>85.4</ele><time>2026-04-18T13:14:29Z</time></trkpt><trkpt lat="46.03137682133962" lon="13.476192209337716"><ele>84.0</ele><time>2026-04-18T13:14:30Z</time></trkpt><trkpt lat="46.03126920012211" lon="13.476176398696612"><ele>84.0</ele><time>2026-04-18T13:14:31Z</time></trkpt><trkpt lat="46.03115433760382" lon="13.476180349133475"><ele>84.0</ele><time>2026-04-18T13:14:32Z</time></trkpt><trkpt lat="46.03101417778674" lon="13.47617549224756"><ele>84.0</ele><time>2026-04-18T13:14:33Z</time></trkpt><trkpt lat="46.03085980904938" lon="13.476151268272925"><ele>84.0</ele><time>2026-04-18T13:14:34Z</time></trkpt><trkpt lat="46.030693713688095" lon="13.476139263604885"><ele>83.66666666666667</ele><time>2026-04-18T13:14:35Z</time></trkpt><trkpt lat="46.030517159496796" lon="13.476081656478774"><ele>83.33333333333334</ele><time>2026-04-18T13:14:36Z</time></trkpt><trkpt lat="46.030326148624624" lon="13.476042534821428"><ele>83.0</ele><time>2026-04-18T13:14:37Z</time></trkpt><trkpt lat="46.03010937728402" lon="13.475998137187972"><ele>82.33333333333334</ele><time>2026-04-18T13:14:38Z</time></trkpt><trkpt lat="46.02989180647537" lon="13.475948640703345"><ele>81.66666666666667</ele><time>2026-04-18T13:14:39Z</time></trkpt><trkpt lat="46.029698133721766" lon="13.475872717103739"><ele>81.0</ele><time>2026-04-18T13:14:40Z</time></trkpt><trkpt lat="46.02951962051874" lon="13.47576816222154"><ele>81.0</ele><time>2026-04-18T13:14:41Z</time></trkpt><trkpt lat="46.02933152128483" lon="13.47564457667046"><ele>81.0</ele><time>2026-04-18T13:14:42Z</time></trkpt><trkpt lat="46.029144556778014" lon="13.475522586403496"><ele>81.0</ele><time>2026-04-18T13:14:43Z</time></trkpt><trkpt lat="46.02897799683986" lon="13.47543637622419"><ele>80.66666666666667</ele><time>2026-04-18T13:14:44Z</time></trkpt><trkpt lat="46.0288184901662" lon="13.475327533842213"><ele>80.33333333333334</ele><time>2026-04-18T13:14:45Z</time></trkpt><trkpt lat="46.028660940618494" lon="13.47522585891986"><ele>80.0</ele><time>2026-04-18T13:14:46Z</time></trkpt><trkpt lat="46.02851879004465" lon="13.475114950979481"><ele>80.0</ele><time>2026-04-18T13:14:47Z</time></trkpt><trkpt lat="46.02839438040233" lon="13.475036951053568"><ele>80.0</ele><time>2026-04-18T13:14:48Z</time></trkpt><trkpt lat="46.02827425422768" lon="13.474977385583164"><ele>80.0</ele><time>2026-04-18T13:14:49Z</time></trkpt><trkpt lat="46.02814688750053" lon="13.474934287213918"><ele>80.0</ele><time>2026-04-18T13:14:50Z</time></trkpt><trkpt lat="46.028010342523444" lon="13.474927694413315"><ele>80.0</ele><time>2026-04-18T13:14:51Z</time></trkpt><trkpt lat="46.02785846325412" lon="13.474933813317062"><ele>80.0</ele><time>2026-04-18T13:14:52Z</time></trkpt><trkpt lat="46.02768936546921" lon="13.474942655305975"><ele>80.0</ele><time>2026-04-18T13:14:53Z</time></trkpt><trkpt lat="46.027504206384876" lon="13.474975431100574"><ele>80.0</ele><time>2026-04-18T13:14:54Z</time></trkpt><trkpt lat="46.02729748039813" lon="13.474983432920066"><ele>80.0</ele><time>2026-04-18T13:14:55Z</time></trkpt><trkpt lat="46.02707561460849" lon="13.474984188255421"><ele>80.0</ele><time>2026-04-18T13:14:56Z</time></trkpt><trkpt lat="46.0268416854129" lon="13.474968716064696"><ele>80.33333333333334</ele><time>2026-04-18T13:14:57Z</time></trkpt><trkpt lat="46.026619876185926" lon="13.474944485412523"><ele>80.66666666666667</ele><time>2026-04-18T13:14:58Z</time></trkpt><trkpt lat="46.026425563761066" lon="13.474923949321454"><ele>81.0</ele><time>2026-04-18T13:14:59Z</time></trkpt><trkpt lat="46.02624256674922" lon="13.474904658703256"><ele>81.0</ele><time>2026-04-18T13:15:00Z</time></trkpt><trkpt lat="46.02607636689869" lon="13.47488363774702"><ele>81.0</ele><time>2026-04-18T13:15:01Z</time></trkpt><trkpt lat="46.02591688547202" lon="13.47485747016091"><ele>81.0</ele><time>2026-04-18T13:15:02Z</time></trkpt><trkpt lat="46.02576241549722" lon="13.474821555743683"><ele>81.0</ele><time>2026-04-18T13:15:03Z</time></trkpt><trkpt lat="46.025608928141544" lon="13.474764786527734"><ele>81.0</ele><time>2026-04-18T13:15:04Z</time></trkpt><trkpt lat="46.02545843943173" lon="13.474647131575098"><ele>81.0</ele><time>2026-04-18T13:15:05Z</time></trkpt><trkpt lat="46.02529139647215" lon="13.474516044442625"><ele>81.0</ele><time>2026-04-18T13:15:06Z</time></trkpt><trkpt lat="46.02510432455336" lon="13.474367925832063"><ele>81.0</ele><time>2026-04-18T13:15:07Z</time></trkpt><trkpt lat="46.02491331775286" lon="13.474218222813551"><ele>81.0</ele><time>2026-04-18T13:15:08Z</time></trkpt><trkpt lat="46.02473448913272" lon="13.474081045660594"><ele>80.33333333333333</ele><time>2026-04-18T13:15:09Z</time></trkpt><trkpt lat="46.02456451330704" lon="13.473946952178276"><ele>79.66666666666666</ele><time>2026-04-18T13:15:10Z</time></trkpt><trkpt lat="46.02440953342973" lon="13.473796792095122"><ele>79.0</ele><time>2026-04-18T13:15:11Z</time></trkpt><trkpt lat="46.02428615148799" lon="13.473634965523937"><ele>78.75</ele><time>2026-04-18T13:15:12Z</time></trkpt><trkpt lat="46.02417968455029" lon="13.473485142272633"><ele>78.5</ele><time>2026-04-18T13:15:13Z</time></trkpt><trkpt lat="46.024088100922974" lon="13.473343959614521"><ele>78.25</ele><time>2026-04-18T13:15:14Z</time></trkpt><trkpt lat="46.024014004992175" lon="13.47319498085888"><ele>78.0</ele><time>2026-04-18T13:15:15Z</time></trkpt><trkpt lat="46.02397684808681" lon="13.473025634441848"><ele>78.0</ele><time>2026-04-18T13:15:16Z</time></trkpt><trkpt lat="46.02396998565695" lon="13.472868417427643"><ele>78.0</ele><time>2026-04-18T13:15:17Z</time></trkpt><trkpt lat="46.02395385794524" lon="13.472725071476264"><ele>78.0</ele><time>2026-04-18T13:15:18Z</time></trkpt><trkpt lat="46.023893870745965" lon="13.47261180659961"><ele>78.0</ele><time>2026-04-18T13:15:19Z</time></trkpt><trkpt lat="46.023828014669824" lon="13.472469138980243"><ele>78.0</ele><time>2026-04-18T13:15:20Z</time></trkpt><trkpt lat="46.02367126034087" lon="13.472396824452744"><ele>78.0</ele><time>2026-04-18T13:15:21Z</time></trkpt><trkpt lat="46.02349999404032" lon="13.4722989714274"><ele>78.0</ele><time>2026-04-18T13:15:21.999Z</time></trkpt><trkpt lat="46.02329195209048" lon="13.472184433335197"><ele>78.0</ele><time>2026-04-18T13:15:22.999Z</time></trkpt><trkpt lat="46.023025515216666" lon="13.472022083375977"><ele>78.0</ele><time>2026-04-18T13:15:23.999Z</time></trkpt><trkpt lat="46.02272413227034" lon="13.47184120887392"><ele>78.0</ele><time>2026-04-18T13:15:24.999Z</time></trkpt><trkpt lat="46.022436980384036" lon="13.471698778386854"><ele>78.0</ele><time>2026-04-18T13:15:25.999Z</time></trkpt><trkpt lat="46.022149957239456" lon="13.471563468245133"><ele>78.0</ele><time>2026-04-18T13:15:26.999Z</time></trkpt><trkpt lat="46.02185051671302" lon="13.47150927657825"><ele>77.5</ele><time>2026-04-18T13:15:27.999Z</time></trkpt><trkpt lat="46.02156221359403" lon="13.471461021615813"><ele>77.0</ele><time>2026-04-18T13:15:28.999Z</time></trkpt><trkpt lat="46.02128949790274" lon="13.471414392071523"><ele>77.0</ele><time>2026-04-18T13:15:29.999Z</time></trkpt><trkpt lat="46.021024441954026" lon="13.471341715513908"><ele>77.0</ele><time>2026-04-18T13:15:30.999Z</time></trkpt><trkpt lat="46.020775663748914" lon="13.471247162194377"><ele>76.0</ele><time>2026-04-18T13:15:31.999Z</time></trkpt><trkpt lat="46.020549956096374" lon="13.471114352695217"><ele>75.0</ele><time>2026-04-18T13:15:32.999Z</time></trkpt><trkpt lat="46.020328834652645" lon="13.470980092508231"><ele>75.0</ele><time>2026-04-18T13:15:33.999Z</time></trkpt><trkpt lat="46.020116322845396" lon="13.470828744291904"><ele>75.0</ele><time>2026-04-18T13:15:34.999Z</time></trkpt><trkpt lat="46.01990970260061" lon="13.47066282475073"><ele>76.0</ele><time>2026-04-18T13:15:35.999Z</time></trkpt><trkpt lat="46.01970378447274" lon="13.470499597909225"><ele>77.0</ele><time>2026-04-18T13:15:36.999Z</time></trkpt><trkpt lat="46.01949119691159" lon="13.470345207775072"><ele>77.5</ele><time>2026-04-18T13:15:37.999Z</time></trkpt><trkpt lat="46.019280098745575" lon="13.470164976537212"><ele>78.0</ele><time>2026-04-18T13:15:38.999Z</time></trkpt><trkpt lat="46.01902926862622" lon="13.470077191511661"><ele>77.0</ele><time>2026-04-18T13:15:39.999Z</time></trkpt><trkpt lat="46.01878694374732" lon="13.469947508239061"><ele>76.0</ele><time>2026-04-18T13:15:40.999Z</time></trkpt><trkpt lat="46.018534252756595" lon="13.46982372421525"><ele>76.0</ele><time>2026-04-18T13:15:41.999Z</time></trkpt><trkpt lat="46.01827769105131" lon="13.469707474217769"><ele>76.0</ele><time>2026-04-18T13:15:42.999Z</time></trkpt><trkpt lat="46.0180202048445" lon="13.469591098490403"><ele>76.0</ele><time>2026-04-18T13:15:43.999Z</time></trkpt><trkpt lat="46.017764911471794" lon="13.469472886141638"><ele>76.0</ele><time>2026-04-18T13:15:44.999Z</time></trkpt><trkpt lat="46.017513321115466" lon="13.469359027825949"><ele>75.5</ele><time>2026-04-18T13:15:45.999Z</time></trkpt><trkpt lat="46.01726827554398" lon="13.469250208051363"><ele>75.0</ele><time>2026-04-18T13:15:46.999Z</time></trkpt><trkpt lat="46.01702968998769" lon="13.469143603039877"><ele>75.0</ele><time>2026-04-18T13:15:47.999Z</time></trkpt><trkpt lat="46.01679783720208" lon="13.469037836004713"><ele>75.0</ele><time>2026-04-18T13:15:48.999Z</time></trkpt><trkpt lat="46.01657378143152" lon="13.468932208603606"><ele>74.5</ele><time>2026-04-18T13:15:49.999Z</time></trkpt><trkpt lat="46.016356043644244" lon="13.468831360667776"><ele>74.0</ele><time>2026-04-18T13:15:50.999Z</time></trkpt><trkpt lat="46.01614447703374" lon="13.468724334351009"><ele>73.66666666666667</ele><time>2026-04-18T13:15:51.999Z</time></trkpt><trkpt lat="46.015943763178555" lon="13.46859679496138"><ele>73.33333333333333</ele><time>2026-04-18T13:15:52.999Z</time></trkpt><trkpt lat="46.015749272298706" lon="13.468439050894595"><ele>73.0</ele><time>2026-04-18T13:15:53.999Z</time></trkpt><trkpt lat="46.01556104319833" lon="13.468258329877"><ele>73.0</ele><time>2026-04-18T13:15:54.999Z</time></trkpt><trkpt lat="46.015372979137815" lon="13.468066587461301"><ele>73.0</ele><time>2026-04-18T13:15:55.999Z</time></trkpt><trkpt lat="46.01519046291482" lon="13.467869751038"><ele>73.33333333333333</ele><time>2026-04-18T13:15:56.999Z</time></trkpt><trkpt lat="46.01500848207427" lon="13.467682945707523"><ele>73.66666666666667</ele><time>2026-04-18T13:15:57.999Z</time></trkpt><trkpt lat="46.01482118234157" lon="13.467520776791355"><ele>74.0</ele><time>2026-04-18T13:15:58.999Z</time></trkpt><trkpt lat="46.01462962071331" lon="13.46738048768414"><ele>74.0</ele><time>2026-04-18T13:15:59.999Z</time></trkpt><trkpt lat="46.01443188456406" lon="13.467260989785723"><ele>74.0</ele><time>2026-04-18T13:16:00.999Z</time></trkpt><trkpt lat="46.0142261604006" lon="13.467165214001781"><ele>74.0</ele><time>2026-04-18T13:16:01.999Z</time></trkpt><trkpt lat="46.01401185233845" lon="13.467085190482777"><ele>75.0</ele><time>2026-04-18T13:16:02.999Z</time></trkpt><trkpt lat="46.01379077296738" lon="13.467018825321313"><ele>76.0</ele><time>2026-04-18T13:16:03.999Z</time></trkpt><trkpt lat="46.01356448108294" lon="13.466967250983954"><ele>76.0</ele><time>2026-04-18T13:16:04.999Z</time></trkpt><trkpt lat="46.01333536459808" lon="13.466923225064296"><ele>76.0</ele><time>2026-04-18T13:16:05.999Z</time></trkpt><trkpt lat="46.01310630579276" lon="13.466873967221284"><ele>74.5</ele><time>2026-04-18T13:16:06.999Z</time></trkpt><trkpt lat="46.012881802810334" lon="13.466807541238946"><ele>73.0</ele><time>2026-04-18T13:16:07.999Z</time></trkpt><trkpt lat="46.01266406314784" lon="13.466708457442524"><ele>72.0</ele><time>2026-04-18T13:16:08.999Z</time></trkpt><trkpt lat="46.01244902865601" lon="13.466577163691499"><ele>71.0</ele><time>2026-04-18T13:16:09.999Z</time></trkpt><trkpt lat="46.01222829850767" lon="13.46643153881705"><ele>71.0</ele><time>2026-04-18T13:16:10.999Z</time></trkpt><trkpt lat="46.01199802579421" lon="13.466281332136145"><ele>71.0</ele><time>2026-04-18T13:16:11.999Z</time></trkpt><trkpt lat="46.01176026270078" lon="13.466123830381534"><ele>71.0</ele><time>2026-04-18T13:16:12.999Z</time></trkpt><trkpt lat="46.011511848253825" lon="13.465955183455673"><ele>71.0</ele><time>2026-04-18T13:16:13.999Z</time></trkpt><trkpt lat="46.01125438286376" lon="13.46578244189769"><ele>71.0</ele><time>2026-04-18T13:16:14.999Z</time></trkpt><trkpt lat="46.01098562207911" lon="13.465610449228071"><ele>71.0</ele><time>2026-04-18T13:16:15.999Z</time></trkpt><trkpt lat="46.010711414974764" lon="13.465431406705367"><ele>70.0</ele><time>2026-04-18T13:16:16.999Z</time></trkpt><trkpt lat="46.01043862706569" lon="13.46524700471098"><ele>69.0</ele><time>2026-04-18T13:16:17.999Z</time></trkpt><trkpt lat="46.0101740999668" lon="13.465072675224663"><ele>69.5</ele><time>2026-04-18T13:16:18.999Z</time></trkpt><trkpt lat="46.009929396434565" lon="13.46491141629012"><ele>70.0</ele><time>2026-04-18T13:16:20Z</time></trkpt><trkpt lat="46.00970138197221" lon="13.464758708791063"><ele>70.0</ele><time>2026-04-18T13:16:21Z</time></trkpt><trkpt lat="46.00948486253588" lon="13.464615926592113"><ele>70.0</ele><time>2026-04-18T13:16:22Z</time></trkpt><trkpt lat="46.009282769602564" lon="13.464483987914647"><ele>69.66666666666666</ele><time>2026-04-18T13:16:23Z</time></trkpt><trkpt lat="46.00909650440257" lon="13.464361792463174"><ele>69.33333333333333</ele><time>2026-04-18T13:16:24Z</time></trkpt><trkpt lat="46.00892978239489" lon="13.46425937609524"><ele>69.0</ele><time>2026-04-18T13:16:25Z</time></trkpt><trkpt lat="46.00877532268501" lon="13.464184474523993"><ele>69.0</ele><time>2026-04-18T13:16:26Z</time></trkpt><trkpt lat="46.00860877943904" lon="13.464142524192221"><ele>69.0</ele><time>2026-04-18T13:16:27Z</time></trkpt><trkpt lat="46.00842819762854" lon="13.464138792731054"><ele>69.0</ele><time>2026-04-18T13:16:28Z</time></trkpt><trkpt lat="46.00824502418689" lon="13.464173275246324"><ele>68.66666666666667</ele><time>2026-04-18T13:16:29Z</time></trkpt><trkpt lat="46.0080689147142" lon="13.464230840710695"><ele>68.33333333333334</ele><time>2026-04-18T13:16:30Z</time></trkpt><trkpt lat="46.00789770814727" lon="13.46432328516249"><ele>68.0</ele><time>2026-04-18T13:16:31Z</time></trkpt><trkpt lat="46.00773375806494" lon="13.464449182180887"><ele>68.0</ele><time>2026-04-18T13:16:32Z</time></trkpt><trkpt lat="46.00757383420557" lon="13.46458863973351"><ele>68.0</ele><time>2026-04-18T13:16:33Z</time></trkpt><trkpt lat="46.00741254802781" lon="13.464729314929862"><ele>68.0</ele><time>2026-04-18T13:16:34Z</time></trkpt><trkpt lat="46.007254388853646" lon="13.464869416654752"><ele>69.33333333333334</ele><time>2026-04-18T13:16:35Z</time></trkpt><trkpt lat="46.00709826890879" lon="13.465010785605683"><ele>70.66666666666667</ele><time>2026-04-18T13:16:36Z</time></trkpt><trkpt lat="46.006939456760435" lon="13.465151300136004"><ele>72.0</ele><time>2026-04-18T13:16:37Z</time></trkpt><trkpt lat="46.006786623981" lon="13.465296230236373"><ele>71.33333333333333</ele><time>2026-04-18T13:16:38Z</time></trkpt><trkpt lat="46.00663626378076" lon="13.465436727488516"><ele>70.66666666666666</ele><time>2026-04-18T13:16:39Z</time></trkpt><trkpt lat="46.00648641234433" lon="13.465570267026635"><ele>70.0</ele><time>2026-04-18T13:16:40Z</time></trkpt><trkpt lat="46.00634308686111" lon="13.465709598792285"><ele>70.0</ele><time>2026-04-18T13:16:41Z</time></trkpt><trkpt lat="46.00621133329856" lon="13.465862054782118"><ele>70.0</ele><time>2026-04-18T13:16:42Z</time></trkpt><trkpt lat="46.0060943714003" lon="13.46601770729509"><ele>70.0</ele><time>2026-04-18T13:16:43Z</time></trkpt><trkpt lat="46.00599632542506" lon="13.466159356753103"><ele>71.5</ele><time>2026-04-18T13:16:44Z</time></trkpt><trkpt lat="46.005902760698284" lon="13.466299977216222"><ele>73.0</ele><time>2026-04-18T13:16:45Z</time></trkpt><trkpt lat="46.0058139939904" lon="13.46642860840744"><ele>74.5</ele><time>2026-04-18T13:16:46Z</time></trkpt><trkpt lat="46.00572791515639" lon="13.466533137989872"><ele>76.0</ele><time>2026-04-18T13:16:47Z</time></trkpt><trkpt lat="46.00563444908834" lon="13.4666275806772"><ele>76.75</ele><time>2026-04-18T13:16:48Z</time></trkpt><trkpt lat="46.00553107679978" lon="13.466683096419734"><ele>77.5</ele><time>2026-04-18T13:16:49Z</time></trkpt><trkpt lat="46.00539709978847" lon="13.46670409373836"><ele>78.25</ele><time>2026-04-18T13:16:50Z</time></trkpt><trkpt lat="46.00524792156193" lon="13.466696511368069"><ele>79.0</ele><time>2026-04-18T13:16:51Z</time></trkpt><trkpt lat="46.005080403319674" lon="13.466691354678659"><ele>80.0</ele><time>2026-04-18T13:16:52Z</time></trkpt><trkpt lat="46.004886203713205" lon="13.466693426438956"><ele>81.0</ele><time>2026-04-18T13:16:53Z</time></trkpt><trkpt lat="46.004623945581116" lon="13.466689598269374"><ele>81.0</ele><time>2026-04-18T13:16:54Z</time></trkpt><trkpt lat="46.004406124698704" lon="13.466685171840245"><ele>81.0</ele><time>2026-04-18T13:16:55Z</time></trkpt><trkpt lat="46.00423709929777" lon="13.466681054580901"><ele>81.0</ele><time>2026-04-18T13:16:56Z</time></trkpt><trkpt lat="46.00409548253679" lon="13.466692029394258"><ele>81.0</ele><time>2026-04-18T13:16:57Z</time></trkpt><trkpt lat="46.003960141009124" lon="13.466725858868593"><ele>81.0</ele><time>2026-04-18T13:16:58Z</time></trkpt><trkpt lat="46.003838638935505" lon="13.466808883323953"><ele>81.0</ele><time>2026-04-18T13:16:59Z</time></trkpt><trkpt lat="46.00373053151896" lon="13.466942802276389"><ele>81.0</ele><time>2026-04-18T13:17:00Z</time></trkpt><trkpt lat="46.00366034003052" lon="13.467128121159455"><ele>79.66666666666667</ele><time>2026-04-18T13:17:01Z</time></trkpt><trkpt lat="46.00358959491403" lon="13.467327965207554"><ele>78.33333333333334</ele><time>2026-04-18T13:17:02Z</time></trkpt><trkpt lat="46.003529242536956" lon="13.467555539206632"><ele>77.0</ele><time>2026-04-18T13:17:03Z</time></trkpt><trkpt lat="46.003465294767075" lon="13.467755284335611"><ele>75.33333333333334</ele><time>2026-04-18T13:17:04Z</time></trkpt><trkpt lat="46.003371455147416" lon="13.467943778532947"><ele>73.66666666666667</ele><time>2026-04-18T13:17:05Z</time></trkpt><trkpt lat="46.003250679907396" lon="13.468138477131735"><ele>72.0</ele><time>2026-04-18T13:17:06Z</time></trkpt><trkpt lat="46.00312548924008" lon="13.468319294838045"><ele>72.0</ele><time>2026-04-18T13:17:06.999Z</time></trkpt><trkpt lat="46.00300989370604" lon="13.46847068844167"><ele>72.0</ele><time>2026-04-18T13:17:07.999Z</time></trkpt><trkpt lat="46.002890941388856" lon="13.46861709387931"><ele>72.0</ele><time>2026-04-18T13:17:08.999Z</time></trkpt><trkpt lat="46.002763642331246" lon="13.468742013861645"><ele>71.33333333333333</ele><time>2026-04-18T13:17:09.999Z</time></trkpt><trkpt lat="46.00262486175237" lon="13.468838937967023"><ele>70.66666666666666</ele><time>2026-04-18T13:17:10.999Z</time></trkpt><trkpt lat="46.00247935021228" lon="13.468910844951045"><ele>70.0</ele><time>2026-04-18T13:17:11.999Z</time></trkpt><trkpt lat="46.00232986317195" lon="13.468988713161007"><ele>70.0</ele><time>2026-04-18T13:17:12.999Z</time></trkpt><trkpt lat="46.00217851909411" lon="13.469081705430662"><ele>70.0</ele><time>2026-04-18T13:17:13.999Z</time></trkpt><trkpt lat="46.002031403309715" lon="13.46915767180932"><ele>70.0</ele><time>2026-04-18T13:17:14.999Z</time></trkpt><trkpt lat="46.00188696062337" lon="13.469230939428604"><ele>70.0</ele><time>2026-04-18T13:17:15.999Z</time></trkpt><trkpt lat="46.00174606901618" lon="13.469298543272867"><ele>70.0</ele><time>2026-04-18T13:17:16.999Z</time></trkpt><trkpt lat="46.00160571941025" lon="13.469343951730902"><ele>70.0</ele><time>2026-04-18T13:17:17.999Z</time></trkpt><trkpt lat="46.001462537559284" lon="13.469374382679598"><ele>70.0</ele><time>2026-04-18T13:17:18.999Z</time></trkpt><trkpt lat="46.00131551204823" lon="13.469395350784994"><ele>69.33333333333333</ele><time>2026-04-18T13:17:19.999Z</time></trkpt><trkpt lat="46.00116499390574" lon="13.469398791902089"><ele>68.66666666666667</ele><time>2026-04-18T13:17:20.999Z</time></trkpt><trkpt lat="46.00101404288515" lon="13.469373560107842"><ele>68.0</ele><time>2026-04-18T13:17:21.999Z</time></trkpt><trkpt lat="46.000858357042816" lon="13.469326077628073"><ele>68.66666666666667</ele><time>2026-04-18T13:17:22.999Z</time></trkpt><trkpt lat="46.00069328304634" lon="13.469270861802286"><ele>69.33333333333333</ele><time>2026-04-18T13:17:23.999Z</time></trkpt><trkpt lat="46.000521711758466" lon="13.469207416760742"><ele>70.0</ele><time>2026-04-18T13:17:24.999Z</time></trkpt><trkpt lat="46.00034441153157" lon="13.469142521519727"><ele>70.0</ele><time>2026-04-18T13:17:25.999Z</time></trkpt><trkpt lat="46.000156313198254" lon="13.469080121724785"><ele>70.0</ele><time>2026-04-18T13:17:26.999Z</time></trkpt><trkpt lat="45.99995927780051" lon="13.46901213393431"><ele>70.0</ele><time>2026-04-18T13:17:27.999Z</time></trkpt><trkpt lat="45.99976375519548" lon="13.468939980990205"><ele>70.0</ele><time>2026-04-18T13:17:28.999Z</time></trkpt><trkpt lat="45.9995725669255" lon="13.468868901130406"><ele>70.0</ele><time>2026-04-18T13:17:29.999Z</time></trkpt><trkpt lat="45.99939044539343" lon="13.468800845771966"><ele>70.0</ele><time>2026-04-18T13:17:30.999Z</time></trkpt><trkpt lat="45.9992247707288" lon="13.468738449596955"><ele>68.66666666666666</ele><time>2026-04-18T13:17:31.999Z</time></trkpt><trkpt lat="45.99907292591418" lon="13.468679682326515"><ele>67.33333333333333</ele><time>2026-04-18T13:17:32.999Z</time></trkpt><trkpt lat="45.99892773694945" lon="13.468623923086485"><ele>66.0</ele><time>2026-04-18T13:17:33.999Z</time></trkpt><trkpt lat="45.99878904001748" lon="13.468576237397746"><ele>66.0</ele><time>2026-04-18T13:17:34.999Z</time></trkpt><trkpt lat="45.998656572937676" lon="13.468542493329986"><ele>66.0</ele><time>2026-04-18T13:17:35.999Z</time></trkpt><trkpt lat="45.99852147153261" lon="13.468521380538041"><ele>66.0</ele><time>2026-04-18T13:17:36.999Z</time></trkpt><trkpt lat="45.99838502933896" lon="13.468517958912386"><ele>66.0</ele><time>2026-04-18T13:17:37.999Z</time></trkpt><trkpt lat="45.99824815796127" lon="13.468534185377553"><ele>66.5</ele><time>2026-04-18T13:17:38.999Z</time></trkpt><trkpt lat="45.99811178656428" lon="13.468572753212976"><ele>67.0</ele><time>2026-04-18T13:17:39.999Z</time></trkpt><trkpt lat="45.99797045088377" lon="13.468622131964231"><ele>67.5</ele><time>2026-04-18T13:17:40.999Z</time></trkpt><trkpt lat="45.99782629515809" lon="13.468670188540269"><ele>68.0</ele><time>2026-04-18T13:17:41.999Z</time></trkpt><trkpt lat="45.99768023325869" lon="13.468716422690843"><ele>68.0</ele><time>2026-04-18T13:17:42.999Z</time></trkpt><trkpt lat="45.99753303379647" lon="13.468755930033057"><ele>68.0</ele><time>2026-04-18T13:17:43.999Z</time></trkpt><trkpt lat="45.99738351664513" lon="13.468776904506342"><ele>68.0</ele><time>2026-04-18T13:17:44.999Z</time></trkpt><trkpt lat="45.99722590406903" lon="13.468772997233408"><ele>67.33333333333334</ele><time>2026-04-18T13:17:45.999Z</time></trkpt><trkpt lat="45.99706149391564" lon="13.468739089383561"><ele>66.66666666666667</ele><time>2026-04-18T13:17:46.999Z</time></trkpt><trkpt lat="45.996890613025975" lon="13.468700138438653"><ele>66.0</ele><time>2026-04-18T13:17:47.999Z</time></trkpt><trkpt lat="45.99670728178735" lon="13.468651171897934"><ele>66.33333333333333</ele><time>2026-04-18T13:17:48.999Z</time></trkpt><trkpt lat="45.99651464358787" lon="13.468602546221826"><ele>66.66666666666666</ele><time>2026-04-18T13:17:49.999Z</time></trkpt><trkpt lat="45.9963152070254" lon="13.468562864610224"><ele>67.0</ele><time>2026-04-18T13:17:50.999Z</time></trkpt><trkpt lat="45.996126017426626" lon="13.468525073210786"><ele>67.0</ele><time>2026-04-18T13:17:51.999Z</time></trkpt><trkpt lat="45.995941996019425" lon="13.46848872551047"><ele>67.0</ele><time>2026-04-18T13:17:52.999Z</time></trkpt><trkpt lat="45.995761345362176" lon="13.468458386361682"><ele>67.0</ele><time>2026-04-18T13:17:53.999Z</time></trkpt><trkpt lat="45.99557868453379" lon="13.468426913416831"><ele>68.33333333333333</ele><time>2026-04-18T13:17:54.999Z</time></trkpt><trkpt lat="45.99539189020364" lon="13.468388216288066"><ele>69.66666666666667</ele><time>2026-04-18T13:17:55.999Z</time></trkpt><trkpt lat="45.9951969289874" lon="13.468350175658122"><ele>71.0</ele><time>2026-04-18T13:17:56.999Z</time></trkpt><trkpt lat="45.99499638654486" lon="13.46831690636024"><ele>71.66666666666667</ele><time>2026-04-18T13:17:57.999Z</time></trkpt><trkpt lat="45.9947891410816" lon="13.468273054178404"><ele>72.33333333333333</ele><time>2026-04-18T13:17:58.999Z</time></trkpt><trkpt lat="45.994578796416825" lon="13.468221306899215"><ele>73.0</ele><time>2026-04-18T13:17:59.999Z</time></trkpt><trkpt lat="45.99437619406086" lon="13.468164912500018"><ele>73.0</ele><time>2026-04-18T13:18:00.999Z</time></trkpt><trkpt lat="45.99417991798832" lon="13.46811284749767"><ele>73.0</ele><time>2026-04-18T13:18:01.999Z</time></trkpt><trkpt lat="45.99399267548907" lon="13.468065012121839"><ele>73.0</ele><time>2026-04-18T13:18:02.999Z</time></trkpt><trkpt lat="45.993811790330255" lon="13.468017668319284"><ele>72.33333333333333</ele><time>2026-04-18T13:18:03.999Z</time></trkpt><trkpt lat="45.993637966446954" lon="13.467975494343632"><ele>71.66666666666667</ele><time>2026-04-18T13:18:04.999Z</time></trkpt><trkpt lat="45.993469126154174" lon="13.467932649197"><ele>71.0</ele><time>2026-04-18T13:18:05.999Z</time></trkpt><trkpt lat="45.993304597413115" lon="13.46788695496666"><ele>69.33333333333334</ele><time>2026-04-18T13:18:06.999Z</time></trkpt><trkpt lat="45.993150284779524" lon="13.467839588751984"><ele>67.66666666666667</ele><time>2026-04-18T13:18:07.999Z</time></trkpt><trkpt lat="45.99300133933434" lon="13.46779279931445"><ele>66.0</ele><time>2026-04-18T13:18:08.999Z</time></trkpt><trkpt lat="45.99285482413889" lon="13.46773875352159"><ele>66.0</ele><time>2026-04-18T13:18:09.999Z</time></trkpt><trkpt lat="45.99271303230452" lon="13.46768757952127"><ele>66.0</ele><time>2026-04-18T13:18:10.999Z</time></trkpt><trkpt lat="45.99259041731796" lon="13.467643127901198"><ele>66.0</ele><time>2026-04-18T13:18:11.999Z</time></trkpt><trkpt lat="45.99248193697318" lon="13.467601332947373"><ele>66.0</ele><time>2026-04-18T13:18:12.999Z</time></trkpt><trkpt lat="45.992379457662096" lon="13.46756020422114"><ele>65.83333333333333</ele><time>2026-04-18T13:18:13.999Z</time></trkpt><trkpt lat="45.9922917838928" lon="13.46752562680194"><ele>65.66666666666667</ele><time>2026-04-18T13:18:14.999Z</time></trkpt><trkpt lat="45.99221164034417" lon="13.467491626984197"><ele>65.5</ele><time>2026-04-18T13:18:15.999Z</time></trkpt><trkpt lat="45.99213736570952" lon="13.467461562559302"><ele>65.33333333333334</ele><time>2026-04-18T13:18:16.999Z</time></trkpt><trkpt lat="45.99207046882742" lon="13.46743665550532"><ele>65.16666666666667</ele><time>2026-04-18T13:18:17.999Z</time></trkpt><trkpt lat="45.99196617610522" lon="13.467349831607974"><ele>65.0</ele><time>2026-04-18T13:18:19.999Z</time></trkpt><trkpt lat="45.991930421525105" lon="13.467253743079743"><ele>65.0</ele><time>2026-04-18T13:18:20.999Z</time></trkpt><trkpt lat="45.99192221920517" lon="13.46712914521682"><ele>65.0</ele><time>2026-04-18T13:18:21.999Z</time></trkpt><trkpt lat="45.991936651625906" lon="13.466992232211004"><ele>65.0</ele><time>2026-04-18T13:18:22.999Z</time></trkpt><trkpt lat="45.9919522783839" lon="13.466826266121114"><ele>65.0</ele><time>2026-04-18T13:18:23.999Z</time></trkpt><trkpt lat="45.991963690012476" lon="13.466656689082209"><ele>65.0</ele><time>2026-04-18T13:18:24.999Z</time></trkpt><trkpt lat="45.991977295416426" lon="13.466513998546363"><ele>64.6</ele><time>2026-04-18T13:18:25.999Z</time></trkpt><trkpt lat="45.99199238495254" lon="13.46638093747334"><ele>64.2</ele><time>2026-04-18T13:18:26.999Z</time></trkpt><trkpt lat="45.99200273599475" lon="13.466251052033043"><ele>63.8</ele><time>2026-04-18T13:18:27.999Z</time></trkpt><trkpt lat="45.992016832954924" lon="13.466091844847"><ele>63.4</ele><time>2026-04-18T13:18:28.999Z</time></trkpt><trkpt lat="45.99203289120822" lon="13.465909253386563"><ele>63.0</ele><time>2026-04-18T13:18:29.999Z</time></trkpt><trkpt lat="45.99204717455352" lon="13.465713164601343"><ele>62.75</ele><time>2026-04-18T13:18:30.999Z</time></trkpt><trkpt lat="45.992051198294874" lon="13.46555978106074"><ele>62.5</ele><time>2026-04-18T13:18:31.999Z</time></trkpt><trkpt lat="45.99204818383971" lon="13.465377378954873"><ele>62.25</ele><time>2026-04-18T13:18:32.999Z</time></trkpt><trkpt lat="45.99203285013903" lon="13.465166682890773"><ele>62.0</ele><time>2026-04-18T13:18:33.999Z</time></trkpt><trkpt lat="45.99199903516075" lon="13.464935082127173"><ele>62.0</ele><time>2026-04-18T13:18:34.999Z</time></trkpt><trkpt lat="45.99195447794993" lon="13.464689910567175"><ele>62.0</ele><time>2026-04-18T13:18:35.999Z</time></trkpt><trkpt lat="45.99191046601221" lon="13.464464584357659"><ele>62.0</ele><time>2026-04-18T13:18:36.999Z</time></trkpt><trkpt lat="45.991871155613296" lon="13.464251514621944"><ele>62.75</ele><time>2026-04-18T13:18:37.999Z</time></trkpt><trkpt lat="45.99183352243863" lon="13.464046041267126"><ele>63.5</ele><time>2026-04-18T13:18:38.999Z</time></trkpt><trkpt lat="45.99179804918451" lon="13.463851745625895"><ele>64.25</ele><time>2026-04-18T13:18:39.999Z</time></trkpt><trkpt lat="45.991764939521346" lon="13.463672352038218"><ele>65.0</ele><time>2026-04-18T13:18:40.999Z</time></trkpt><trkpt lat="45.991736857400866" lon="13.46350793069046"><ele>65.25</ele><time>2026-04-18T13:18:41.999Z</time></trkpt><trkpt lat="45.99170959689693" lon="13.463355962156845"><ele>65.5</ele><time>2026-04-18T13:18:42.999Z</time></trkpt><trkpt lat="45.99168307034969" lon="13.463207276193712"><ele>65.75</ele><time>2026-04-18T13:18:43.999Z</time></trkpt><trkpt lat="45.991658041276885" lon="13.463046079001979"><ele>66.0</ele><time>2026-04-18T13:18:44.999Z</time></trkpt><trkpt lat="45.991633185624295" lon="13.46287721207666"><ele>67.5</ele><time>2026-04-18T13:18:45.999Z</time></trkpt><trkpt lat="45.99160339052688" lon="13.462706948071359"><ele>69.0</ele><time>2026-04-18T13:18:46.999Z</time></trkpt><trkpt lat="45.99156959752247" lon="13.46254302534492"><ele>70.5</ele><time>2026-04-18T13:18:47.999Z</time></trkpt><trkpt lat="45.991528620573675" lon="13.462389512854578"><ele>72.0</ele><time>2026-04-18T13:18:48.999Z</time></trkpt><trkpt lat="45.99147793816927" lon="13.462236139662403"><ele>72.0</ele><time>2026-04-18T13:18:49.999Z</time></trkpt><trkpt lat="45.9914218573552" lon="13.462078049475345"><ele>72.0</ele><time>2026-04-18T13:18:50.999Z</time></trkpt><trkpt lat="45.99136533273447" lon="13.46191165720575"><ele>72.0</ele><time>2026-04-18T13:18:51.999Z</time></trkpt><trkpt lat="45.99131051457933" lon="13.461743854230054"><ele>72.0</ele><time>2026-04-18T13:18:52.999Z</time></trkpt><trkpt lat="45.99125471909508" lon="13.461579697063879"><ele>72.0</ele><time>2026-04-18T13:18:53.999Z</time></trkpt><trkpt lat="45.99119881828946" lon="13.461417778852383"><ele>72.0</ele><time>2026-04-18T13:18:54.999Z</time></trkpt><trkpt lat="45.99114477327662" lon="13.461256712236334"><ele>72.0</ele><time>2026-04-18T13:18:55.999Z</time></trkpt><trkpt lat="45.99109276367252" lon="13.461101863271557"><ele>72.0</ele><time>2026-04-18T13:18:56.999Z</time></trkpt><trkpt lat="45.99104010127016" lon="13.460950728894186"><ele>71.5</ele><time>2026-04-18T13:18:57.999Z</time></trkpt><trkpt lat="45.99098831519138" lon="13.460800457367972"><ele>71.0</ele><time>2026-04-18T13:18:58.999Z</time></trkpt><trkpt lat="45.99093755847452" lon="13.460651283044504"><ele>70.5</ele><time>2026-04-18T13:18:59.999Z</time></trkpt><trkpt lat="45.99088698115187" lon="13.460503480241405"><ele>70.0</ele><time>2026-04-18T13:19:00.999Z</time></trkpt><trkpt lat="45.990829051804795" lon="13.460349771802726"><ele>71.0</ele><time>2026-04-18T13:19:01.999Z</time></trkpt><trkpt lat="45.99077119966777" lon="13.460192059132716"><ele>72.0</ele><time>2026-04-18T13:19:02.999Z</time></trkpt><trkpt lat="45.990709880673464" lon="13.460031362799906"><ele>73.0</ele><time>2026-04-18T13:19:03.999Z</time></trkpt><trkpt lat="45.99064052197516" lon="13.459869180940437"><ele>74.0</ele><time>2026-04-18T13:19:04.999Z</time></trkpt><trkpt lat="45.99057081497279" lon="13.459699747549083"><ele>73.75</ele><time>2026-04-18T13:19:05.999Z</time></trkpt><trkpt lat="45.9905023092331" lon="13.459522212545094"><ele>73.5</ele><time>2026-04-18T13:19:06.999Z</time></trkpt><trkpt lat="45.99043659504535" lon="13.459339691744434"><ele>73.25</ele><time>2026-04-18T13:19:07.999Z</time></trkpt><trkpt lat="45.99036827070371" lon="13.459156270768899"><ele>73.0</ele><time>2026-04-18T13:19:08.999Z</time></trkpt><trkpt lat="45.99029668478434" lon="13.458972790310337"><ele>73.0</ele><time>2026-04-18T13:19:09.999Z</time></trkpt><trkpt lat="45.99022361342568" lon="13.458789019318377"><ele>73.0</ele><time>2026-04-18T13:19:10.999Z</time></trkpt><trkpt lat="45.99015159013851" lon="13.45860584966992"><ele>73.0</ele><time>2026-04-18T13:19:11.999Z</time></trkpt><trkpt lat="45.99008069676255" lon="13.458429303769494"><ele>73.0</ele><time>2026-04-18T13:19:12.999Z</time></trkpt><trkpt lat="45.99001157206021" lon="13.45825724433425"><ele>73.0</ele><time>2026-04-18T13:19:13.999Z</time></trkpt><trkpt lat="45.9899470922405" lon="13.45808762518878"><ele>73.0</ele><time>2026-04-18T13:19:14.999Z</time></trkpt><trkpt lat="45.989886370862784" lon="13.457920939834656"><ele>73.0</ele><time>2026-04-18T13:19:15.999Z</time></trkpt><trkpt lat="45.98982814769769" lon="13.457759706945119"><ele>73.0</ele><time>2026-04-18T13:19:16.999Z</time></trkpt><trkpt lat="45.989781446066736" lon="13.457608386909607"><ele>73.4</ele><time>2026-04-18T13:19:17.999Z</time></trkpt><trkpt lat="45.98974569567582" lon="13.45744865001564"><ele>73.8</ele><time>2026-04-18T13:19:18.999Z</time></trkpt><trkpt lat="45.98972419843238" lon="13.457298671046699"><ele>74.2</ele><time>2026-04-18T13:19:19.999Z</time></trkpt><trkpt lat="45.98971327264483" lon="13.45717417236344"><ele>74.6</ele><time>2026-04-18T13:19:20.999Z</time></trkpt><trkpt lat="45.98970810758137" lon="13.457069923402816"><ele>75.0</ele><time>2026-04-18T13:19:21.999Z</time></trkpt><trkpt lat="45.98970367683879" lon="13.456896150041795"><ele>75.16666666666667</ele><time>2026-04-18T13:19:23.999Z</time></trkpt><trkpt lat="45.989700527418336" lon="13.456799378801115"><ele>75.33333333333333</ele><time>2026-04-18T13:19:24.999Z</time></trkpt><trkpt lat="45.98969623664556" lon="13.45669100216298"><ele>75.5</ele><time>2026-04-18T13:19:25.999Z</time></trkpt><trkpt lat="45.98968999759709" lon="13.456570195856006"><ele>75.66666666666666</ele><time>2026-04-18T13:19:26.999Z</time></trkpt><trkpt lat="45.989685292283255" lon="13.456424817307866"><ele>75.83333333333333</ele><time>2026-04-18T13:19:27.999Z</time></trkpt><trkpt lat="45.989683187270025" lon="13.45625918797981"><ele>76.0</ele><time>2026-04-18T13:19:28.999Z</time></trkpt><trkpt lat="45.989688966127545" lon="13.456088902702147"><ele>76.0</ele><time>2026-04-18T13:19:29.999Z</time></trkpt><trkpt lat="45.98971630090789" lon="13.455921499650959"><ele>76.0</ele><time>2026-04-18T13:19:30.999Z</time></trkpt><trkpt lat="45.989766562066286" lon="13.455754836104704"><ele>76.0</ele><time>2026-04-18T13:19:31.999Z</time></trkpt><trkpt lat="45.98983167477582" lon="13.455607464664771"><ele>76.0</ele><time>2026-04-18T13:19:32.999Z</time></trkpt><trkpt lat="45.98990904032092" lon="13.455475471666773"><ele>76.39999999999999</ele><time>2026-04-18T13:19:33.999Z</time></trkpt><trkpt lat="45.98999430056563" lon="13.455363006143852"><ele>76.8</ele><time>2026-04-18T13:19:34.999Z</time></trkpt><trkpt lat="45.990080287695925" lon="13.455266499370902"><ele>77.19999999999999</ele><time>2026-04-18T13:19:35.999Z</time></trkpt><trkpt lat="45.99015924928294" lon="13.455176740982411"><ele>77.6</ele><time>2026-04-18T13:19:36.999Z</time></trkpt><trkpt lat="45.990236398285454" lon="13.455091854339324"><ele>78.0</ele><time>2026-04-18T13:19:37.999Z</time></trkpt><trkpt lat="45.9903111769202" lon="13.455011291267752"><ele>78.0</ele><time>2026-04-18T13:19:38.999Z</time></trkpt><trkpt lat="45.99037652524777" lon="13.454938235770907"><ele>78.0</ele><time>2026-04-18T13:19:39.999Z</time></trkpt><trkpt lat="45.990426157663975" lon="13.4548612213115"><ele>78.0</ele><time>2026-04-18T13:19:40.999Z</time></trkpt><trkpt lat="45.990457874604296" lon="13.454774230556144"><ele>78.0</ele><time>2026-04-18T13:19:41.999Z</time></trkpt><trkpt lat="45.99047732148179" lon="13.454675682396946"><ele>78.0</ele><time>2026-04-18T13:19:42.999Z</time></trkpt><trkpt lat="45.99048166746224" lon="13.4545723300632"><ele>78.0</ele><time>2026-04-18T13:19:43.999Z</time></trkpt><trkpt lat="45.99046627055339" lon="13.45446481952629"><ele>78.0</ele><time>2026-04-18T13:19:44.999Z</time></trkpt><trkpt lat="45.990437716264445" lon="13.45433920345853"><ele>78.25</ele><time>2026-04-18T13:19:45.999Z</time></trkpt><trkpt lat="45.99039923483801" lon="13.45419204446044"><ele>78.5</ele><time>2026-04-18T13:19:46.999Z</time></trkpt><trkpt lat="45.99035882943931" lon="13.45402780364011"><ele>78.75</ele><time>2026-04-18T13:19:47.999Z</time></trkpt><trkpt lat="45.99031553731208" lon="13.453866982796464"><ele>79.0</ele><time>2026-04-18T13:19:48.999Z</time></trkpt><trkpt lat="45.99027533287568" lon="13.453723595095594"><ele>79.6</ele><time>2026-04-18T13:19:49.999Z</time></trkpt><trkpt lat="45.99023528694561" lon="13.453584157053216"><ele>80.2</ele><time>2026-04-18T13:19:50.999Z</time></trkpt><trkpt lat="45.99019422528705" lon="13.453446365254248"><ele>80.8</ele><time>2026-04-18T13:19:51.999Z</time></trkpt><trkpt lat="45.99016205154608" lon="13.453309724926154"><ele>81.39999999999999</ele><time>2026-04-18T13:19:52.999Z</time></trkpt><trkpt lat="45.99013580731873" lon="13.453169888064124"><ele>82.0</ele><time>2026-04-18T13:19:53.999Z</time></trkpt><trkpt lat="45.99011949645899" lon="13.453025847543655"><ele>81.39999999999999</ele><time>2026-04-18T13:19:54.999Z</time></trkpt><trkpt lat="45.99013372394071" lon="13.452885722722268"><ele>80.8</ele><time>2026-04-18T13:19:55.999Z</time></trkpt><trkpt lat="45.990147050017114" lon="13.452748899965798"><ele>80.2</ele><time>2026-04-18T13:19:56.999Z</time></trkpt><trkpt lat="45.990160468632574" lon="13.452612361462918"><ele>79.6</ele><time>2026-04-18T13:19:57.999Z</time></trkpt><trkpt lat="45.99017555148798" lon="13.452475050015982"><ele>79.0</ele><time>2026-04-18T13:19:58.999Z</time></trkpt><trkpt lat="45.99018098993829" lon="13.452342226959457"><ele>79.0</ele><time>2026-04-18T13:19:59.999Z</time></trkpt><trkpt lat="45.99018065803612" lon="13.452219875754386"><ele>79.0</ele><time>2026-04-18T13:20:00.999Z</time></trkpt><trkpt lat="45.990174602628265" lon="13.452091353935957"><ele>79.0</ele><time>2026-04-18T13:20:01.999Z</time></trkpt><trkpt lat="45.99016709811094" lon="13.451982639679903"><ele>79.0</ele><time>2026-04-18T13:20:02.999Z</time></trkpt><trkpt lat="45.99014150283021" lon="13.451875746067847"><ele>79.0</ele><time>2026-04-18T13:20:03.999Z</time></trkpt><trkpt lat="45.99008074789634" lon="13.451782786672721"><ele>79.0</ele><time>2026-04-18T13:20:04.999Z</time></trkpt><trkpt lat="45.9900394551688" lon="13.451680965302728"><ele>79.0</ele><time>2026-04-18T13:20:05.999Z</time></trkpt><trkpt lat="45.98999854331436" lon="13.451566008450115"><ele>79.0</ele><time>2026-04-18T13:20:06.999Z</time></trkpt><trkpt lat="45.98995791655693" lon="13.451442993183425"><ele>79.0</ele><time>2026-04-18T13:20:07.999Z</time></trkpt><trkpt lat="45.989936727769845" lon="13.451303130995571"><ele>79.0</ele><time>2026-04-18T13:20:08.999Z</time></trkpt><trkpt lat="45.98990953459419" lon="13.451164833021211"><ele>79.0</ele><time>2026-04-18T13:20:09.999Z</time></trkpt><trkpt lat="45.989879804037905" lon="13.45100693516558"><ele>79.0</ele><time>2026-04-18T13:20:10.999Z</time></trkpt><trkpt lat="45.98985157223942" lon="13.450841068644644"><ele>79.0</ele><time>2026-04-18T13:20:11.999Z</time></trkpt><trkpt lat="45.98981662636653" lon="13.450707953477371"><ele>79.0</ele><time>2026-04-18T13:20:12.999Z</time></trkpt><trkpt lat="45.98980056473307" lon="13.450565155974227"><ele>79.0</ele><time>2026-04-18T13:20:13.999Z</time></trkpt><trkpt lat="45.9897879260695" lon="13.450430517839633"><ele>79.0</ele><time>2026-04-18T13:20:14.999Z</time></trkpt><trkpt lat="45.98974893636657" lon="13.4503084005489"><ele>79.0</ele><time>2026-04-18T13:20:15.999Z</time></trkpt><trkpt lat="45.98972394478792" lon="13.450182196337938"><ele>79.0</ele><time>2026-04-18T13:20:16.999Z</time></trkpt><trkpt lat="45.989697554502285" lon="13.450057558709723"><ele>79.0</ele><time>2026-04-18T13:20:17.999Z</time></trkpt><trkpt lat="45.9896846353656" lon="13.449923844410222"><ele>79.0</ele><time>2026-04-18T13:20:18.999Z</time></trkpt><trkpt lat="45.989654753510074" lon="13.449787503670326"><ele>79.0</ele><time>2026-04-18T13:20:19.999Z</time></trkpt><trkpt lat="45.98959986704556" lon="13.449640004424555"><ele>79.0</ele><time>2026-04-18T13:20:20.999Z</time></trkpt><trkpt lat="45.98956122689071" lon="13.449468708384616"><ele>79.0</ele><time>2026-04-18T13:20:21.999Z</time></trkpt><trkpt lat="45.989513509042354" lon="13.449276112154154"><ele>79.0</ele><time>2026-04-18T13:20:22.999Z</time></trkpt><trkpt lat="45.98946090060035" lon="13.449067937540196"><ele>79.0</ele><time>2026-04-18T13:20:23.999Z</time></trkpt><trkpt lat="45.98941220714986" lon="13.448874945869882"><ele>79.25</ele><time>2026-04-18T13:20:24.999Z</time></trkpt><trkpt lat="45.98936695125384" lon="13.448705663443917"><ele>79.5</ele><time>2026-04-18T13:20:25.999Z</time></trkpt><trkpt lat="45.98932681462276" lon="13.448538090172466"><ele>79.75</ele><time>2026-04-18T13:20:26.999Z</time></trkpt><trkpt lat="45.989287660227994" lon="13.448373757812323"><ele>80.0</ele><time>2026-04-18T13:20:27.999Z</time></trkpt><trkpt lat="45.98925590719902" lon="13.448215757611502"><ele>80.0</ele><time>2026-04-18T13:20:28.999Z</time></trkpt><trkpt lat="45.989233719221424" lon="13.448071194842987"><ele>80.0</ele><time>2026-04-18T13:20:29.999Z</time></trkpt><trkpt lat="45.989220291249126" lon="13.447937868410289"><ele>80.0</ele><time>2026-04-18T13:20:31Z</time></trkpt><trkpt lat="45.98921209812818" lon="13.44781086331683"><ele>80.0</ele><time>2026-04-18T13:20:32Z</time></trkpt><trkpt lat="45.989212854489985" lon="13.447680416931153"><ele>80.0</ele><time>2026-04-18T13:20:33Z</time></trkpt><trkpt lat="45.98922072730727" lon="13.44754641663417"><ele>80.0</ele><time>2026-04-18T13:20:34Z</time></trkpt><trkpt lat="45.98924098880726" lon="13.44741934451972"><ele>80.0</ele><time>2026-04-18T13:20:35Z</time></trkpt><trkpt lat="45.98926163711879" lon="13.44730276392596"><ele>80.0</ele><time>2026-04-18T13:20:36Z</time></trkpt><trkpt lat="45.989280720342975" lon="13.447207058945219"><ele>80.0</ele><time>2026-04-18T13:20:37Z</time></trkpt><trkpt lat="45.989307824742504" lon="13.447121130438902"><ele>80.0</ele><time>2026-04-18T13:20:38Z</time></trkpt><trkpt lat="45.98934927811154" lon="13.447044382533422"><ele>80.0</ele><time>2026-04-18T13:20:39Z</time></trkpt><trkpt lat="45.98939290197921" lon="13.44697025777264"><ele>80.0</ele><time>2026-04-18T13:20:40Z</time></trkpt><trkpt lat="45.989426421926446" lon="13.446882974375736"><ele>80.0</ele><time>2026-04-18T13:20:41Z</time></trkpt><trkpt lat="45.98943575052322" lon="13.446791771855027"><ele>80.0</ele><time>2026-04-18T13:20:42Z</time></trkpt><trkpt lat="45.98942383057336" lon="13.44670086230633"><ele>80.0</ele><time>2026-04-18T13:20:43Z</time></trkpt><trkpt lat="45.98937521369105" lon="13.4466305509047"><ele>80.0</ele><time>2026-04-18T13:20:44Z</time></trkpt><trkpt lat="45.98929561173964" lon="13.446592732698965"><ele>80.0</ele><time>2026-04-18T13:20:45Z</time></trkpt><trkpt lat="45.989216732519296" lon="13.446546394056526"><ele>80.0</ele><time>2026-04-18T13:20:46Z</time></trkpt><trkpt lat="45.98914096657976" lon="13.446463598464446"><ele>79.75</ele><time>2026-04-18T13:20:47Z</time></trkpt><trkpt lat="45.9890699505705" lon="13.446360934175402"><ele>79.5</ele><time>2026-04-18T13:20:48Z</time></trkpt><trkpt lat="45.9889918934795" lon="13.44624344349088"><ele>79.25</ele><time>2026-04-18T13:20:49Z</time></trkpt><trkpt lat="45.988915842615874" lon="13.446102999739752"><ele>79.0</ele><time>2026-04-18T13:20:50Z</time></trkpt><trkpt lat="45.98884708242954" lon="13.445955380672116"><ele>79.0</ele><time>2026-04-18T13:20:51Z</time></trkpt><trkpt lat="45.98879531332347" lon="13.445825329400982"><ele>79.0</ele><time>2026-04-18T13:20:52Z</time></trkpt><trkpt lat="45.988742890712025" lon="13.44567965526385"><ele>79.0</ele><time>2026-04-18T13:20:53Z</time></trkpt><trkpt lat="45.98869417348611" lon="13.445522968683745"><ele>79.0</ele><time>2026-04-18T13:20:54Z</time></trkpt><trkpt lat="45.988648776622156" lon="13.445370979506697"><ele>79.0</ele><time>2026-04-18T13:20:55Z</time></trkpt><trkpt lat="45.98860409080966" lon="13.445227643411668"><ele>79.0</ele><time>2026-04-18T13:20:56Z</time></trkpt><trkpt lat="45.98856299159458" lon="13.445092257362914"><ele>79.0</ele><time>2026-04-18T13:20:57Z</time></trkpt><trkpt lat="45.98852113248589" lon="13.44495706571832"><ele>79.0</ele><time>2026-04-18T13:20:58Z</time></trkpt><trkpt lat="45.98847802443685" lon="13.444819183041075"><ele>79.0</ele><time>2026-04-18T13:20:59Z</time></trkpt><trkpt lat="45.98843500593103" lon="13.4446722397064"><ele>79.0</ele><time>2026-04-18T13:21:00Z</time></trkpt><trkpt lat="45.98838901918655" lon="13.444516265767383"><ele>79.0</ele><time>2026-04-18T13:21:01Z</time></trkpt><trkpt lat="45.988339425901685" lon="13.444353177997659"><ele>79.0</ele><time>2026-04-18T13:21:02Z</time></trkpt><trkpt lat="45.988287324345556" lon="13.444172465226835"><ele>79.0</ele><time>2026-04-18T13:21:03Z</time></trkpt><trkpt lat="45.98822792150676" lon="13.443980924950289"><ele>78.66666666666666</ele><time>2026-04-18T13:21:04Z</time></trkpt><trkpt lat="45.9881641107465" lon="13.443776309148621"><ele>78.33333333333333</ele><time>2026-04-18T13:21:05Z</time></trkpt><trkpt lat="45.988095646462526" lon="13.443554913888232"><ele>78.0</ele><time>2026-04-18T13:21:06Z</time></trkpt><trkpt lat="45.98802475400849" lon="13.443317618107006"><ele>78.0</ele><time>2026-04-18T13:21:07Z</time></trkpt><trkpt lat="45.98795067108335" lon="13.443071241327853"><ele>78.0</ele><time>2026-04-18T13:21:08Z</time></trkpt><trkpt lat="45.987876672780594" lon="13.44282794116964"><ele>78.0</ele><time>2026-04-18T13:21:09Z</time></trkpt><trkpt lat="45.98780155071341" lon="13.442579380715271"><ele>78.0</ele><time>2026-04-18T13:21:10Z</time></trkpt><trkpt lat="45.98772391709546" lon="13.442319301706814"><ele>78.0</ele><time>2026-04-18T13:21:11Z</time></trkpt><trkpt lat="45.98764576411286" lon="13.44205725517374"><ele>78.0</ele><time>2026-04-18T13:21:12Z</time></trkpt><trkpt lat="45.98757070544001" lon="13.44180141960369"><ele>77.66666666666667</ele><time>2026-04-18T13:21:13Z</time></trkpt><trkpt lat="45.98749810467616" lon="13.441556186912738"><ele>77.33333333333334</ele><time>2026-04-18T13:21:14Z</time></trkpt><trkpt lat="45.98742800508326" lon="13.441318995440062"><ele>77.0</ele><time>2026-04-18T13:21:15Z</time></trkpt><trkpt lat="45.98736046976948" lon="13.441088760008315"><ele>77.66666666666667</ele><time>2026-04-18T13:21:16Z</time></trkpt><trkpt lat="45.98729861239132" lon="13.440881714008256"><ele>78.33333333333333</ele><time>2026-04-18T13:21:17Z</time></trkpt><trkpt lat="45.98724084759063" lon="13.44068304893943"><ele>79.0</ele><time>2026-04-18T13:21:18Z</time></trkpt><trkpt lat="45.9871830879646" lon="13.440483282595073"><ele>78.75</ele><time>2026-04-18T13:21:18.999Z</time></trkpt><trkpt lat="45.98712624244953" lon="13.440289413638638"><ele>78.5</ele><time>2026-04-18T13:21:19.999Z</time></trkpt><trkpt lat="45.98706778358584" lon="13.440095078613412"><ele>78.25</ele><time>2026-04-18T13:21:20.999Z</time></trkpt><trkpt lat="45.987009645376745" lon="13.439900682167623"><ele>78.0</ele><time>2026-04-18T13:21:21.999Z</time></trkpt><trkpt lat="45.986950763443296" lon="13.439703894909101"><ele>77.66666666666667</ele><time>2026-04-18T13:21:22.999Z</time></trkpt><trkpt lat="45.98689100489871" lon="13.439506349767532"><ele>77.33333333333334</ele><time>2026-04-18T13:21:23.999Z</time></trkpt><trkpt lat="45.986831012840824" lon="13.439305664941214"><ele>77.0</ele><time>2026-04-18T13:21:24.999Z</time></trkpt><trkpt lat="45.98676725763008" lon="13.439094368846314"><ele>77.0</ele><time>2026-04-18T13:21:25.999Z</time></trkpt><trkpt lat="45.98670337651626" lon="13.438878809225567"><ele>77.0</ele><time>2026-04-18T13:21:26.999Z</time></trkpt><trkpt lat="45.98663828855335" lon="13.438656128678986"><ele>77.0</ele><time>2026-04-18T13:21:27.999Z</time></trkpt><trkpt lat="45.98657067172196" lon="13.438425753935142"><ele>77.0</ele><time>2026-04-18T13:21:28.999Z</time></trkpt><trkpt lat="45.98650165751361" lon="13.438190794977004"><ele>77.0</ele><time>2026-04-18T13:21:29.999Z</time></trkpt><trkpt lat="45.98643035926817" lon="13.437952173582527"><ele>77.0</ele><time>2026-04-18T13:21:30.999Z</time></trkpt><trkpt lat="45.986358086938864" lon="13.437713213490985"><ele>76.66666666666667</ele><time>2026-04-18T13:21:31.999Z</time></trkpt><trkpt lat="45.98628766560218" lon="13.437480592602476"><ele>76.33333333333333</ele><time>2026-04-18T13:21:32.999Z</time></trkpt><trkpt lat="45.98621885396461" lon="13.437255702913479"><ele>76.0</ele><time>2026-04-18T13:21:33.999Z</time></trkpt><trkpt lat="45.98615274281273" lon="13.437034475712267"><ele>75.33333333333333</ele><time>2026-04-18T13:21:34.999Z</time></trkpt><trkpt lat="45.98609083704458" lon="13.436813878234238"><ele>74.66666666666667</ele><time>2026-04-18T13:21:35.999Z</time></trkpt><trkpt lat="45.98602775709159" lon="13.436596634649174"><ele>74.0</ele><time>2026-04-18T13:21:36.999Z</time></trkpt><trkpt lat="45.98596583529942" lon="13.436382464746966"><ele>74.0</ele><time>2026-04-18T13:21:37.999Z</time></trkpt><trkpt lat="45.98590871282227" lon="13.436174280550542"><ele>74.0</ele><time>2026-04-18T13:21:38.999Z</time></trkpt><trkpt lat="45.98585292834476" lon="13.435967837065023"><ele>74.0</ele><time>2026-04-18T13:21:39.999Z</time></trkpt><trkpt lat="45.985795815268006" lon="13.435762072363318"><ele>73.66666666666667</ele><time>2026-04-18T13:21:40.999Z</time></trkpt><trkpt lat="45.98573886210318" lon="13.435554339310954"><ele>73.33333333333333</ele><time>2026-04-18T13:21:41.999Z</time></trkpt><trkpt lat="45.98568332048204" lon="13.435342986933744"><ele>73.0</ele><time>2026-04-18T13:21:42.999Z</time></trkpt><trkpt lat="45.98563081460963" lon="13.43513918572673"><ele>73.0</ele><time>2026-04-18T13:21:43.999Z</time></trkpt><trkpt lat="45.98558166263313" lon="13.434959008418332"><ele>73.0</ele><time>2026-04-18T13:21:44.999Z</time></trkpt><trkpt lat="45.985531660703366" lon="13.434788999121185"><ele>73.0</ele><time>2026-04-18T13:21:45.999Z</time></trkpt><trkpt lat="45.98548207371589" lon="13.434613557413732"><ele>73.0</ele><time>2026-04-18T13:21:46.999Z</time></trkpt><trkpt lat="45.98542980508887" lon="13.434424714865774"><ele>73.0</ele><time>2026-04-18T13:21:47.999Z</time></trkpt><trkpt lat="45.98537553428907" lon="13.434229890350341"><ele>73.0</ele><time>2026-04-18T13:21:48.999Z</time></trkpt><trkpt lat="45.98532356408903" lon="13.4340334300487"><ele>73.0</ele><time>2026-04-18T13:21:49.999Z</time></trkpt><trkpt lat="45.98528146595668" lon="13.433842023352538"><ele>73.0</ele><time>2026-04-18T13:21:50.999Z</time></trkpt><trkpt lat="45.98525748993953" lon="13.43364614680124"><ele>72.75</ele><time>2026-04-18T13:21:51.999Z</time></trkpt><trkpt lat="45.9852546084873" lon="13.433450656426663"><ele>72.5</ele><time>2026-04-18T13:21:52.999Z</time></trkpt><trkpt lat="45.98526801664799" lon="13.433255417625352"><ele>72.25</ele><time>2026-04-18T13:21:53.999Z</time></trkpt><trkpt lat="45.9852913059416" lon="13.433067857646469"><ele>72.0</ele><time>2026-04-18T13:21:54.999Z</time></trkpt><trkpt lat="45.98531739591819" lon="13.43288030829347"><ele>72.0</ele><time>2026-04-18T13:21:55.999Z</time></trkpt><trkpt lat="45.98534395578269" lon="13.43268718218099"><ele>72.0</ele><time>2026-04-18T13:21:56.999Z</time></trkpt><trkpt lat="45.98537289386479" lon="13.432489315105745"><ele>72.0</ele><time>2026-04-18T13:21:57.999Z</time></trkpt><trkpt lat="45.98540354371442" lon="13.432292504891521"><ele>72.0</ele><time>2026-04-18T13:21:58.999Z</time></trkpt><trkpt lat="45.98543049275512" lon="13.432116883865483"><ele>72.2</ele><time>2026-04-18T13:21:59.999Z</time></trkpt><trkpt lat="45.98545456658506" lon="13.43195791448276"><ele>72.4</ele><time>2026-04-18T13:22:00.999Z</time></trkpt><trkpt lat="45.98547920816762" lon="13.431810352076143"><ele>72.6</ele><time>2026-04-18T13:22:01.999Z</time></trkpt><trkpt lat="45.98550009037354" lon="13.43167518395171"><ele>72.8</ele><time>2026-04-18T13:22:02.999Z</time></trkpt><trkpt lat="45.98551952478808" lon="13.431555684012165"><ele>73.0</ele><time>2026-04-18T13:22:03.999Z</time></trkpt><trkpt lat="45.985536619111556" lon="13.431456778134562"><ele>73.0</ele><time>2026-04-18T13:22:04.999Z</time></trkpt><trkpt lat="45.985559436530465" lon="13.43131117867856"><ele>73.0</ele><time>2026-04-18T13:22:06.999Z</time></trkpt><trkpt lat="45.98556820089877" lon="13.431176695585192"><ele>73.0</ele><time>2026-04-18T13:22:08.999Z</time></trkpt><trkpt lat="45.98551480047919" lon="13.431084735412679"><ele>73.0</ele><time>2026-04-18T13:22:10.999Z</time></trkpt><trkpt lat="45.98539457232907" lon="13.431131466000997"><ele>73.0</ele><time>2026-04-18T13:22:12.999Z</time></trkpt><trkpt lat="45.9853233609826" lon="13.43118724168972"><ele>73.0</ele><time>2026-04-18T13:22:13.999Z</time></trkpt><trkpt lat="45.98523668436882" lon="13.43123917392243"><ele>73.0</ele><time>2026-04-18T13:22:14.999Z</time></trkpt><trkpt lat="45.98513937474538" lon="13.431307753461054"><ele>73.0</ele><time>2026-04-18T13:22:15.999Z</time></trkpt><trkpt lat="45.985048876612716" lon="13.431366325871219"><ele>73.0</ele><time>2026-04-18T13:22:16.999Z</time></trkpt><trkpt lat="45.984958078941794" lon="13.43140648013557"><ele>73.0</ele><time>2026-04-18T13:22:17.999Z</time></trkpt><trkpt lat="45.98486055991805" lon="13.43142706969662"><ele>73.2</ele><time>2026-04-18T13:22:18.999Z</time></trkpt><trkpt lat="45.9847621382284" lon="13.43141979173215"><ele>73.4</ele><time>2026-04-18T13:22:19.999Z</time></trkpt><trkpt lat="45.98465205422047" lon="13.431382486785441"><ele>73.60000000000001</ele><time>2026-04-18T13:22:20.999Z</time></trkpt><trkpt lat="45.98453772708498" lon="13.43133246951123"><ele>73.8</ele><time>2026-04-18T13:22:21.999Z</time></trkpt><trkpt lat="45.98442782747251" lon="13.431297508511056"><ele>74.0</ele><time>2026-04-18T13:22:22.999Z</time></trkpt><trkpt lat="45.98430613666694" lon="13.431264667908547"><ele>73.0</ele><time>2026-04-18T13:22:23.999Z</time></trkpt><trkpt lat="45.98417410028135" lon="13.431255454614648"><ele>72.0</ele><time>2026-04-18T13:22:24.999Z</time></trkpt><trkpt lat="45.98400104008045" lon="13.43128412586123"><ele>71.0</ele><time>2026-04-18T13:22:25.999Z</time></trkpt><trkpt lat="45.983780500779936" lon="13.431305149288113"><ele>72.0</ele><time>2026-04-18T13:22:26.999Z</time></trkpt><trkpt lat="45.98352456169825" lon="13.431334199148326"><ele>73.0</ele><time>2026-04-18T13:22:27.999Z</time></trkpt><trkpt lat="45.98324732110981" lon="13.43137525183864"><ele>71.0</ele><time>2026-04-18T13:22:28.999Z</time></trkpt><trkpt lat="45.98295800504812" lon="13.431414538233254"><ele>69.0</ele><time>2026-04-18T13:22:29.999Z</time></trkpt><trkpt lat="45.98268750192193" lon="13.43144750235523"><ele>68.5</ele><time>2026-04-18T13:22:30.999Z</time></trkpt><trkpt lat="45.9824417205139" lon="13.431464042063961"><ele>68.0</ele><time>2026-04-18T13:22:31.999Z</time></trkpt><trkpt lat="45.982203519613584" lon="13.431439082024"><ele>68.0</ele><time>2026-04-18T13:22:32.999Z</time></trkpt><trkpt lat="45.98196487368239" lon="13.431369481724653"><ele>68.0</ele><time>2026-04-18T13:22:33.999Z</time></trkpt><trkpt lat="45.98172494964115" lon="13.431269704325157"><ele>68.0</ele><time>2026-04-18T13:22:34.999Z</time></trkpt><trkpt lat="45.98148421768097" lon="13.431137982800458"><ele>68.0</ele><time>2026-04-18T13:22:35.999Z</time></trkpt><trkpt lat="45.9812330882189" lon="13.431001083418453"><ele>68.0</ele><time>2026-04-18T13:22:37Z</time></trkpt><trkpt lat="45.98098813565805" lon="13.430867699881002"><ele>68.0</ele><time>2026-04-18T13:22:38Z</time></trkpt><trkpt lat="45.98075414861142" lon="13.43073436935031"><ele>68.0</ele><time>2026-04-18T13:22:39Z</time></trkpt><trkpt lat="45.98053601946231" lon="13.4306115763646"><ele>68.0</ele><time>2026-04-18T13:22:40Z</time></trkpt><trkpt lat="45.98033626123602" lon="13.430504549436463"><ele>68.0</ele><time>2026-04-18T13:22:41Z</time></trkpt><trkpt lat="45.98014685581831" lon="13.430396576086116"><ele>68.0</ele><time>2026-04-18T13:22:42Z</time></trkpt><trkpt lat="45.97997145135857" lon="13.430279843845966"><ele>68.0</ele><time>2026-04-18T13:22:43Z</time></trkpt><trkpt lat="45.97981135439599" lon="13.430134794251845"><ele>68.0</ele><time>2026-04-18T13:22:44Z</time></trkpt><trkpt lat="45.97965943690579" lon="13.429959505899541"><ele>68.0</ele><time>2026-04-18T13:22:45Z</time></trkpt><trkpt lat="45.979525042309255" lon="13.429741158054032"><ele>68.0</ele><time>2026-04-18T13:22:46Z</time></trkpt><trkpt lat="45.97941533422829" lon="13.429490134100746"><ele>68.0</ele><time>2026-04-18T13:22:47Z</time></trkpt><trkpt lat="45.9793313496507" lon="13.429210659855574"><ele>68.0</ele><time>2026-04-18T13:22:48Z</time></trkpt><trkpt lat="45.97926873535599" lon="13.428912901598252"><ele>68.0</ele><time>2026-04-18T13:22:49Z</time></trkpt><trkpt lat="45.97922228814731" lon="13.428602378276416"><ele>68.0</ele><time>2026-04-18T13:22:50Z</time></trkpt><trkpt lat="45.979174352100365" lon="13.428315713339808"><ele>68.0</ele><time>2026-04-18T13:22:51Z</time></trkpt><trkpt lat="45.9791216879391" lon="13.428044887044877"><ele>68.0</ele><time>2026-04-18T13:22:52Z</time></trkpt><trkpt lat="45.979060819620685" lon="13.427792005713892"><ele>68.0</ele><time>2026-04-18T13:22:53Z</time></trkpt><trkpt lat="45.978979758215445" lon="13.427553555168675"><ele>68.0</ele><time>2026-04-18T13:22:54Z</time></trkpt><trkpt lat="45.97887530834883" lon="13.427316943404682"><ele>68.0</ele><time>2026-04-18T13:22:55Z</time></trkpt><trkpt lat="45.978750820481345" lon="13.427086440935584"><ele>68.0</ele><time>2026-04-18T13:22:56Z</time></trkpt><trkpt lat="45.97860032777453" lon="13.426861860295869"><ele>67.5</ele><time>2026-04-18T13:22:57Z</time></trkpt><trkpt lat="45.97842237857245" lon="13.426629638833608"><ele>67.0</ele><time>2026-04-18T13:22:58Z</time></trkpt><trkpt lat="45.97823448048755" lon="13.426376199522382"><ele>67.5</ele><time>2026-04-18T13:22:59Z</time></trkpt><trkpt lat="45.978048321297386" lon="13.42612885163417"><ele>68.0</ele><time>2026-04-18T13:23:00Z</time></trkpt><trkpt lat="45.977869508972915" lon="13.425897865751557"><ele>68.0</ele><time>2026-04-18T13:23:01Z</time></trkpt><trkpt lat="45.97770304938248" lon="13.425677170675176"><ele>68.0</ele><time>2026-04-18T13:23:02Z</time></trkpt><trkpt lat="45.97753647177426" lon="13.425469106670073"><ele>68.0</ele><time>2026-04-18T13:23:03Z</time></trkpt><trkpt lat="45.97736144532269" lon="13.425284887924509"><ele>67.0</ele><time>2026-04-18T13:23:04Z</time></trkpt><trkpt lat="45.97716836639607" lon="13.425134982829121"><ele>66.0</ele><time>2026-04-18T13:23:05Z</time></trkpt><trkpt lat="45.97696399605767" lon="13.42502504922767"><ele>65.0</ele><time>2026-04-18T13:23:06Z</time></trkpt><trkpt lat="45.976751783554526" lon="13.424951908960269"><ele>65.0</ele><time>2026-04-18T13:23:07Z</time></trkpt><trkpt lat="45.97653467645998" lon="13.4249093507776"><ele>65.0</ele><time>2026-04-18T13:23:08Z</time></trkpt><trkpt lat="45.97630900589665" lon="13.42491192691367"><ele>65.0</ele><time>2026-04-18T13:23:09Z</time></trkpt><trkpt lat="45.976075531602355" lon="13.424935450861765"><ele>64.33333333333334</ele><time>2026-04-18T13:23:10Z</time></trkpt><trkpt lat="45.975842532815555" lon="13.424958564132677"><ele>63.66666666666667</ele><time>2026-04-18T13:23:11Z</time></trkpt><trkpt lat="45.97563383408848" lon="13.424973535689583"><ele>63.0</ele><time>2026-04-18T13:23:12Z</time></trkpt><trkpt lat="45.97543141496264" lon="13.424988838226438"><ele>63.0</ele><time>2026-04-18T13:23:13Z</time></trkpt><trkpt lat="45.97523242207945" lon="13.425007378335836"><ele>63.0</ele><time>2026-04-18T13:23:14Z</time></trkpt><trkpt lat="45.97504236128041" lon="13.425026787716842"><ele>63.0</ele><time>2026-04-18T13:23:15Z</time></trkpt><trkpt lat="45.97486990568056" lon="13.425044794617234"><ele>63.0</ele><time>2026-04-18T13:23:16Z</time></trkpt><trkpt lat="45.97471390708334" lon="13.425060266512338"><ele>63.0</ele><time>2026-04-18T13:23:17Z</time></trkpt><trkpt lat="45.97458310533458" lon="13.425075308039812"><ele>63.0</ele><time>2026-04-18T13:23:18Z</time></trkpt><trkpt lat="45.97447143453684" lon="13.425080504125287"><ele>63.0</ele><time>2026-04-18T13:23:19Z</time></trkpt><trkpt lat="45.974375645542764" lon="13.425073350790719"><ele>63.0</ele><time>2026-04-18T13:23:20Z</time></trkpt><trkpt lat="45.97428119611419" lon="13.425039907446537"><ele>63.0</ele><time>2026-04-18T13:23:21Z</time></trkpt><trkpt lat="45.97418570352952" lon="13.42497386409559"><ele>63.0</ele><time>2026-04-18T13:23:22Z</time></trkpt><trkpt lat="45.97409619081885" lon="13.424863304761166"><ele>63.0</ele><time>2026-04-18T13:23:23Z</time></trkpt><trkpt lat="45.97401986317999" lon="13.424702221437002"><ele>63.0</ele><time>2026-04-18T13:23:24Z</time></trkpt><trkpt lat="45.97394923536078" lon="13.424503744182198"><ele>63.0</ele><time>2026-04-18T13:23:25Z</time></trkpt><trkpt lat="45.97386385696648" lon="13.424268961833702"><ele>63.0</ele><time>2026-04-18T13:23:26Z</time></trkpt><trkpt lat="45.97376879310527" lon="13.423987757525813"><ele>62.5</ele><time>2026-04-18T13:23:27Z</time></trkpt><trkpt lat="45.97368045226902" lon="13.423686543705934"><ele>62.0</ele><time>2026-04-18T13:23:28Z</time></trkpt><trkpt lat="45.97359823024662" lon="13.423381908917301"><ele>62.0</ele><time>2026-04-18T13:23:29Z</time></trkpt><trkpt lat="45.973521076977434" lon="13.423073764117682"><ele>62.0</ele><time>2026-04-18T13:23:30Z</time></trkpt><trkpt lat="45.973462764612215" lon="13.422758869189506"><ele>62.5</ele><time>2026-04-18T13:23:31Z</time></trkpt><trkpt lat="45.97341857209051" lon="13.422438214563307"><ele>63.0</ele><time>2026-04-18T13:23:32Z</time></trkpt><trkpt lat="45.97336843463029" lon="13.42211334437375"><ele>63.5</ele><time>2026-04-18T13:23:33Z</time></trkpt><trkpt lat="45.973312241574945" lon="13.421787590449718"><ele>64.0</ele><time>2026-04-18T13:23:34Z</time></trkpt><trkpt lat="45.973260746289036" lon="13.42146860472768"><ele>63.33333333333333</ele><time>2026-04-18T13:23:35Z</time></trkpt><trkpt lat="45.973213593501775" lon="13.42115147318958"><ele>62.66666666666667</ele><time>2026-04-18T13:23:35.999Z</time></trkpt><trkpt lat="45.97316545128026" lon="13.42084158141158"><ele>62.0</ele><time>2026-04-18T13:23:36.999Z</time></trkpt><trkpt lat="45.973116060132234" lon="13.42053618825228"><ele>62.0</ele><time>2026-04-18T13:23:37.999Z</time></trkpt><trkpt lat="45.97306703455013" lon="13.42023369736143"><ele>62.0</ele><time>2026-04-18T13:23:38.999Z</time></trkpt><trkpt lat="45.973019563465705" lon="13.419931651400901"><ele>62.0</ele><time>2026-04-18T13:23:39.999Z</time></trkpt><trkpt lat="45.972972062857195" lon="13.419634839242448"><ele>61.66666666666667</ele><time>2026-04-18T13:23:40.999Z</time></trkpt><trkpt lat="45.97292376845931" lon="13.419335764936784"><ele>61.33333333333333</ele><time>2026-04-18T13:23:41.999Z</time></trkpt><trkpt lat="45.97287538843225" lon="13.419036930773233"><ele>61.0</ele><time>2026-04-18T13:23:42.999Z</time></trkpt><trkpt lat="45.97282198393097" lon="13.418742308553743"><ele>60.33333333333333</ele><time>2026-04-18T13:23:43.999Z</time></trkpt><trkpt lat="45.97275993200727" lon="13.418443180022702"><ele>59.66666666666667</ele><time>2026-04-18T13:23:44.999Z</time></trkpt><trkpt lat="45.97269194330439" lon="13.418130063793472"><ele>59.0</ele><time>2026-04-18T13:23:45.999Z</time></trkpt><trkpt lat="45.97262268863308" lon="13.41780879685478"><ele>58.0</ele><time>2026-04-18T13:23:46.999Z</time></trkpt><trkpt lat="45.97254736272416" lon="13.417480676961754"><ele>57.0</ele><time>2026-04-18T13:23:47.999Z</time></trkpt><trkpt lat="45.97247094228856" lon="13.417152683783387"><ele>56.0</ele><time>2026-04-18T13:23:48.999Z</time></trkpt><trkpt lat="45.9723983982304" lon="13.416834626600798"><ele>55.0</ele><time>2026-04-18T13:23:49.999Z</time></trkpt><trkpt lat="45.97232801349224" lon="13.416535682571022"><ele>55.666666666666664</ele><time>2026-04-18T13:23:50.999Z</time></trkpt><trkpt lat="45.97226360673813" lon="13.416254560606681"><ele>56.33333333333333</ele><time>2026-04-18T13:23:51.999Z</time></trkpt><trkpt lat="45.97219987932858" lon="13.41598028563958"><ele>57.0</ele><time>2026-04-18T13:23:52.999Z</time></trkpt><trkpt lat="45.9721408906381" lon="13.415712581648162"><ele>57.33333333333333</ele><time>2026-04-18T13:23:53.999Z</time></trkpt><trkpt lat="45.97208992134169" lon="13.41544566799127"><ele>57.666666666666664</ele><time>2026-04-18T13:23:54.999Z</time></trkpt><trkpt lat="45.97203551590222" lon="13.415161837859126"><ele>58.0</ele><time>2026-04-18T13:23:55.999Z</time></trkpt><trkpt lat="45.97196815232493" lon="13.41484988790879"><ele>58.0</ele><time>2026-04-18T13:23:56.999Z</time></trkpt><trkpt lat="45.97188629156138" lon="13.414469427605093"><ele>58.0</ele><time>2026-04-18T13:23:57.999Z</time></trkpt><trkpt lat="45.97180254639773" lon="13.414023971034045"><ele>58.0</ele><time>2026-04-18T13:23:58.999Z</time></trkpt><trkpt lat="45.97171623811066" lon="13.413515640904405"><ele>58.0</ele><time>2026-04-18T13:23:59.999Z</time></trkpt><trkpt lat="45.97161562350301" lon="13.412962123291033"><ele>58.0</ele><time>2026-04-18T13:24:00.999Z</time></trkpt><trkpt lat="45.9715233643497" lon="13.412428648850009"><ele>58.0</ele><time>2026-04-18T13:24:01.999Z</time></trkpt><trkpt lat="45.971437603899915" lon="13.411950585112432"><ele>58.0</ele><time>2026-04-18T13:24:02.999Z</time></trkpt><trkpt lat="45.97135411845791" lon="13.41150948923317"><ele>58.0</ele><time>2026-04-18T13:24:03.999Z</time></trkpt><trkpt lat="45.971284772003614" lon="13.411107190137535"><ele>57.5</ele><time>2026-04-18T13:24:04.999Z</time></trkpt><trkpt lat="45.971217825897625" lon="13.410732412383634"><ele>57.0</ele><time>2026-04-18T13:24:05.999Z</time></trkpt><trkpt lat="45.9711497873382" lon="13.410374592807285"><ele>56.5</ele><time>2026-04-18T13:24:06.999Z</time></trkpt><trkpt lat="45.97108425544019" lon="13.41003535247225"><ele>56.0</ele><time>2026-04-18T13:24:07.999Z</time></trkpt><trkpt lat="45.97102453614552" lon="13.409722935101158"><ele>56.66666666666667</ele><time>2026-04-18T13:24:08.999Z</time></trkpt><trkpt lat="45.97096629028222" lon="13.409436699415243"><ele>57.33333333333333</ele><time>2026-04-18T13:24:09.999Z</time></trkpt><trkpt lat="45.970907182973946" lon="13.4091769519858"><ele>58.0</ele><time>2026-04-18T13:24:10.999Z</time></trkpt><trkpt lat="45.97084263293385" lon="13.40893393784749"><ele>58.33333333333333</ele><time>2026-04-18T13:24:11.999Z</time></trkpt><trkpt lat="45.970765635740435" lon="13.408686816643785"><ele>58.66666666666667</ele><time>2026-04-18T13:24:12.999Z</time></trkpt><trkpt lat="45.970680268837285" lon="13.408440347609455"><ele>59.0</ele><time>2026-04-18T13:24:13.999Z</time></trkpt><trkpt lat="45.970601309028986" lon="13.40821427674071"><ele>59.0</ele><time>2026-04-18T13:24:14.999Z</time></trkpt><trkpt lat="45.970529513191" lon="13.408004719668304"><ele>59.0</ele><time>2026-04-18T13:24:15.999Z</time></trkpt><trkpt lat="45.970462324677925" lon="13.407813911611031"><ele>59.0</ele><time>2026-04-18T13:24:16.999Z</time></trkpt><trkpt lat="45.97040178088265" lon="13.40763528034567"><ele>59.0</ele><time>2026-04-18T13:24:17.999Z</time></trkpt><trkpt lat="45.970355820556556" lon="13.407484718615196"><ele>59.0</ele><time>2026-04-18T13:24:18.999Z</time></trkpt><trkpt lat="45.970322385126046" lon="13.407341874429205"><ele>59.00000000000001</ele><time>2026-04-18T13:24:19.999Z</time></trkpt><trkpt lat="45.97030021156204" lon="13.407215986023783"><ele>59.00000000000001</ele><time>2026-04-18T13:24:20.999Z</time></trkpt><trkpt lat="45.97028816934319" lon="13.407094628733605"><ele>59.0</ele><time>2026-04-18T13:24:21.999Z</time></trkpt><trkpt lat="45.970273055892115" lon="13.406950633742728"><ele>59.0</ele><time>2026-04-18T13:24:22.999Z</time></trkpt><trkpt lat="45.970262480813155" lon="13.406758530116765"><ele>59.0</ele><time>2026-04-18T13:24:23.999Z</time></trkpt><trkpt lat="45.97029566562711" lon="13.406506036391738"><ele>59.0</ele><time>2026-04-18T13:24:24.999Z</time></trkpt><trkpt lat="45.97031709950571" lon="13.406169086555613"><ele>59.0</ele><time>2026-04-18T13:24:25.999Z</time></trkpt><trkpt lat="45.9703281842093" lon="13.405812973683002"><ele>59.66666666666667</ele><time>2026-04-18T13:24:26.999Z</time></trkpt><trkpt lat="45.97036519496332" lon="13.405483558442706"><ele>60.33333333333333</ele><time>2026-04-18T13:24:27.999Z</time></trkpt><trkpt lat="45.970386865468846" lon="13.405173468381813"><ele>61.0</ele><time>2026-04-18T13:24:28.999Z</time></trkpt><trkpt lat="45.97040782740022" lon="13.40488057863337"><ele>61.33333333333333</ele><time>2026-04-18T13:24:29.999Z</time></trkpt><trkpt lat="45.9704301197706" lon="13.404606696286068"><ele>61.66666666666667</ele><time>2026-04-18T13:24:30.999Z</time></trkpt><trkpt lat="45.970458998733136" lon="13.404351723455491"><ele>62.0</ele><time>2026-04-18T13:24:31.999Z</time></trkpt><trkpt lat="45.97049918922516" lon="13.404090606479171"><ele>62.0</ele><time>2026-04-18T13:24:32.999Z</time></trkpt><trkpt lat="45.97054499735869" lon="13.403836088556337"><ele>62.0</ele><time>2026-04-18T13:24:33.999Z</time></trkpt><trkpt lat="45.970591256643736" lon="13.403583477026954"><ele>62.0</ele><time>2026-04-18T13:24:34.999Z</time></trkpt><trkpt lat="45.970634204879495" lon="13.403335848401136"><ele>61.66666666666667</ele><time>2026-04-18T13:24:35.999Z</time></trkpt><trkpt lat="45.9706678104679" lon="13.403094177134722"><ele>61.33333333333333</ele><time>2026-04-18T13:24:36.999Z</time></trkpt><trkpt lat="45.97065715159975" lon="13.402860054716028"><ele>61.0</ele><time>2026-04-18T13:24:37.999Z</time></trkpt><trkpt lat="45.97067757400711" lon="13.402665895336177"><ele>61.0</ele><time>2026-04-18T13:24:38.999Z</time></trkpt><trkpt lat="45.97068937423826" lon="13.402504414352553"><ele>60.99999999999999</ele><time>2026-04-18T13:24:39.999Z</time></trkpt><trkpt lat="45.97068910559108" lon="13.402368467397237"><ele>60.99999999999999</ele><time>2026-04-18T13:24:40.999Z</time></trkpt><trkpt lat="45.97068264731257" lon="13.40223072842295"><ele>61.0</ele><time>2026-04-18T13:24:41.999Z</time></trkpt><trkpt lat="45.97069572696831" lon="13.402077545929373"><ele>61.0</ele><time>2026-04-18T13:24:43Z</time></trkpt><trkpt lat="45.97072972942346" lon="13.401909656083774"><ele>61.0</ele><time>2026-04-18T13:24:44Z</time></trkpt><trkpt lat="45.97078104086864" lon="13.401730240817333"><ele>61.0</ele><time>2026-04-18T13:24:45Z</time></trkpt><trkpt lat="45.97084221318103" lon="13.401581288826451"><ele>61.0</ele><time>2026-04-18T13:24:46Z</time></trkpt><trkpt lat="45.9709010366223" lon="13.401452018818397"><ele>61.0</ele><time>2026-04-18T13:24:47Z</time></trkpt><trkpt lat="45.970957823805676" lon="13.401324896352621"><ele>61.0</ele><time>2026-04-18T13:24:48Z</time></trkpt><trkpt lat="45.97105203536625" lon="13.401220703517195"><ele>61.0</ele><time>2026-04-18T13:24:49Z</time></trkpt><trkpt lat="45.97112094615354" lon="13.401092341935808"><ele>61.0</ele><time>2026-04-18T13:24:50Z</time></trkpt><trkpt lat="45.97119039533779" lon="13.400963080528353"><ele>61.0</ele><time>2026-04-18T13:24:51Z</time></trkpt><trkpt lat="45.97126506266282" lon="13.400824106923032"><ele>61.0</ele><time>2026-04-18T13:24:52Z</time></trkpt><trkpt lat="45.97134485547616" lon="13.40067559356785"><ele>61.0</ele><time>2026-04-18T13:24:53Z</time></trkpt><trkpt lat="45.97142790971075" lon="13.40052114006091"><ele>61.0</ele><time>2026-04-18T13:24:54Z</time></trkpt><trkpt lat="45.97151671768014" lon="13.400356106304393"><ele>61.0</ele><time>2026-04-18T13:24:55Z</time></trkpt><trkpt lat="45.971613654634076" lon="13.400175966279912"><ele>61.0</ele><time>2026-04-18T13:24:56Z</time></trkpt><trkpt lat="45.97171823711291" lon="13.399981618413543"><ele>61.0</ele><time>2026-04-18T13:24:57Z</time></trkpt><trkpt lat="45.97182302618541" lon="13.399783275113208"><ele>61.0</ele><time>2026-04-18T13:24:58Z</time></trkpt><trkpt lat="45.97190139388917" lon="13.39956664817512"><ele>61.0</ele><time>2026-04-18T13:24:59Z</time></trkpt><trkpt lat="45.97200231002157" lon="13.399382986574693"><ele>61.0</ele><time>2026-04-18T13:25:00Z</time></trkpt><trkpt lat="45.97210020395393" lon="13.399203456371174"><ele>61.0</ele><time>2026-04-18T13:25:01Z</time></trkpt><trkpt lat="45.97219451220947" lon="13.399035138448216"><ele>61.0</ele><time>2026-04-18T13:25:02Z</time></trkpt><trkpt lat="45.972284002960606" lon="13.398878890674382"><ele>61.0</ele><time>2026-04-18T13:25:03Z</time></trkpt><trkpt lat="45.97236616198495" lon="13.398732676227906"><ele>61.0</ele><time>2026-04-18T13:25:04Z</time></trkpt><trkpt lat="45.97243670624662" lon="13.398601796605178"><ele>61.0</ele><time>2026-04-18T13:25:05Z</time></trkpt><trkpt lat="45.97249952389958" lon="13.398465391519794"><ele>61.0</ele><time>2026-04-18T13:25:06Z</time></trkpt><trkpt lat="45.97255181362065" lon="13.398328201951498"><ele>60.99999999999999</ele><time>2026-04-18T13:25:07Z</time></trkpt><trkpt lat="45.97259525335393" lon="13.398202334189358"><ele>60.99999999999999</ele><time>2026-04-18T13:25:08Z</time></trkpt><trkpt lat="45.972635346866014" lon="13.398097717192568"><ele>61.0</ele><time>2026-04-18T13:25:09Z</time></trkpt><trkpt lat="45.97268281193883" lon="13.397995234964414"><ele>61.0</ele><time>2026-04-18T13:25:10Z</time></trkpt><trkpt lat="45.97277270350668" lon="13.397925924384642"><ele>61.199999999999996</ele><time>2026-04-18T13:25:11Z</time></trkpt><trkpt lat="45.97281584181805" lon="13.397836309686856"><ele>61.39999999999999</ele><time>2026-04-18T13:25:12Z</time></trkpt><trkpt lat="45.97282234415433" lon="13.39771322953864"><ele>61.6</ele><time>2026-04-18T13:25:13Z</time></trkpt><trkpt lat="45.97282805263562" lon="13.397622913367146"><ele>61.8</ele><time>2026-04-18T13:25:14Z</time></trkpt><trkpt lat="45.97268247749584" lon="13.397550073666316"><ele>62.0</ele><time>2026-04-18T13:25:15Z</time></trkpt><trkpt lat="45.97258577222345" lon="13.397546954700713"><ele>61.75</ele><time>2026-04-18T13:25:16Z</time></trkpt><trkpt lat="45.97248427184455" lon="13.397621742582672"><ele>61.5</ele><time>2026-04-18T13:25:17Z</time></trkpt><trkpt lat="45.97231920829971" lon="13.397634270633732"><ele>61.25</ele><time>2026-04-18T13:25:18Z</time></trkpt><trkpt lat="45.972154151719494" lon="13.39758641108485"><ele>61.0</ele><time>2026-04-18T13:25:19Z</time></trkpt><trkpt lat="45.97200487572344" lon="13.397584729110761"><ele>61.0</ele><time>2026-04-18T13:25:20Z</time></trkpt><trkpt lat="45.97185845793822" lon="13.397596753247086"><ele>61.0</ele><time>2026-04-18T13:25:21Z</time></trkpt><trkpt lat="45.97171424360216" lon="13.397609747657679"><ele>61.0</ele><time>2026-04-18T13:25:22Z</time></trkpt><trkpt lat="45.97156938086406" lon="13.397618545905438"><ele>61.0</ele><time>2026-04-18T13:25:23Z</time></trkpt><trkpt lat="45.97141755608749" lon="13.397627685551656"><ele>61.0</ele><time>2026-04-18T13:25:24Z</time></trkpt><trkpt lat="45.971264588741725" lon="13.397639766291418"><ele>61.0</ele><time>2026-04-18T13:25:25Z</time></trkpt><trkpt lat="45.971111291936595" lon="13.397652846617637"><ele>61.0</ele><time>2026-04-18T13:25:26Z</time></trkpt><trkpt lat="45.9709640949074" lon="13.397665353325353"><ele>60.75</ele><time>2026-04-18T13:25:27Z</time></trkpt><trkpt lat="45.97081947658543" lon="13.397679984913317"><ele>60.5</ele><time>2026-04-18T13:25:28Z</time></trkpt><trkpt lat="45.97068216786257" lon="13.39769565863914"><ele>60.25</ele><time>2026-04-18T13:25:29Z</time></trkpt><trkpt lat="45.97056214797903" lon="13.397712475427527"><ele>60.0</ele><time>2026-04-18T13:25:30Z</time></trkpt><trkpt lat="45.97045038069827" lon="13.397723311866113"><ele>60.0</ele><time>2026-04-18T13:25:31Z</time></trkpt><trkpt lat="45.970345612391675" lon="13.397718283146936"><ele>60.0</ele><time>2026-04-18T13:25:32Z</time></trkpt><trkpt lat="45.97025135560462" lon="13.397689164120592"><ele>60.0</ele><time>2026-04-18T13:25:33Z</time></trkpt><trkpt lat="45.97017857926093" lon="13.397621914395772"><ele>60.0</ele><time>2026-04-18T13:25:34Z</time></trkpt><trkpt lat="45.97012370030574" lon="13.397515572393724"><ele>60.0</ele><time>2026-04-18T13:25:35Z</time></trkpt><trkpt lat="45.97006568271755" lon="13.397437579314706"><ele>60.0</ele><time>2026-04-18T13:25:36Z</time></trkpt><trkpt lat="45.96999329497018" lon="13.39741700080333"><ele>60.0</ele><time>2026-04-18T13:25:37Z</time></trkpt><trkpt lat="45.969926587017355" lon="13.397449760000965"><ele>60.0</ele><time>2026-04-18T13:25:38Z</time></trkpt><trkpt lat="45.96986085013926" lon="13.397516851539836"><ele>60.0</ele><time>2026-04-18T13:25:39Z</time></trkpt><trkpt lat="45.96983460811768" lon="13.397676435692848"><ele>60.0</ele><time>2026-04-18T13:25:40Z</time></trkpt><trkpt lat="45.969783582628864" lon="13.397768795174224"><ele>60.0</ele><time>2026-04-18T13:25:41Z</time></trkpt><trkpt lat="45.96971675765897" lon="13.397830506698137"><ele>60.0</ele><time>2026-04-18T13:25:42Z</time></trkpt><trkpt lat="45.96963714165907" lon="13.397864231859094"><ele>60.0</ele><time>2026-04-18T13:25:43Z</time></trkpt><trkpt lat="45.96954769948694" lon="13.39787788146623"><ele>60.0</ele><time>2026-04-18T13:25:44Z</time></trkpt><trkpt lat="45.9694580639518" lon="13.397898123435123"><ele>60.0</ele><time>2026-04-18T13:25:44.999Z</time></trkpt><trkpt lat="45.9693540596041" lon="13.39792729435218"><ele>60.0</ele><time>2026-04-18T13:25:45.999Z</time></trkpt><trkpt lat="45.96923984639223" lon="13.397957542887298"><ele>59.75</ele><time>2026-04-18T13:25:46.999Z</time></trkpt><trkpt lat="45.9691171658155" lon="13.39799086988614"><ele>59.5</ele><time>2026-04-18T13:25:47.999Z</time></trkpt><trkpt lat="45.96898786945432" lon="13.398022960882905"><ele>59.25</ele><time>2026-04-18T13:25:48.999Z</time></trkpt><trkpt lat="45.96885946017574" lon="13.398056872669425"><ele>59.0</ele><time>2026-04-18T13:25:49.999Z</time></trkpt><trkpt lat="45.968728659256904" lon="13.398090204024696"><ele>58.75</ele><time>2026-04-18T13:25:50.999Z</time></trkpt><trkpt lat="45.96859563886108" lon="13.398121848486916"><ele>58.5</ele><time>2026-04-18T13:25:51.999Z</time></trkpt><trkpt lat="45.968456866619604" lon="13.3981525218239"><ele>58.25</ele><time>2026-04-18T13:25:52.999Z</time></trkpt><trkpt lat="45.96831555084546" lon="13.39818590137626"><ele>58.0</ele><time>2026-04-18T13:25:53.999Z</time></trkpt><trkpt lat="45.96816560383303" lon="13.39822282156677"><ele>58.0</ele><time>2026-04-18T13:25:54.999Z</time></trkpt><trkpt lat="45.968009542922026" lon="13.398259407917834"><ele>58.0</ele><time>2026-04-18T13:25:55.999Z</time></trkpt><trkpt lat="45.96784427687137" lon="13.398298647818775"><ele>58.0</ele><time>2026-04-18T13:25:56.999Z</time></trkpt><trkpt lat="45.967667605248174" lon="13.398341373793022"><ele>57.666666666666664</ele><time>2026-04-18T13:25:57.999Z</time></trkpt><trkpt lat="45.967490592781196" lon="13.398384922429875"><ele>57.33333333333333</ele><time>2026-04-18T13:25:58.999Z</time></trkpt><trkpt lat="45.96729336333243" lon="13.398424917242256"><ele>57.0</ele><time>2026-04-18T13:25:59.999Z</time></trkpt><trkpt lat="45.96708563546597" lon="13.39844769639266"><ele>57.0</ele><time>2026-04-18T13:26:00.999Z</time></trkpt><trkpt lat="45.96686611022279" lon="13.39844627608017"><ele>57.0</ele><time>2026-04-18T13:26:01.999Z</time></trkpt><trkpt lat="45.96663162119498" lon="13.398425902782682"><ele>56.0</ele><time>2026-04-18T13:26:02.999Z</time></trkpt><trkpt lat="45.96639596914837" lon="13.39840665091608"><ele>55.0</ele><time>2026-04-18T13:26:03.999Z</time></trkpt><trkpt lat="45.96616504056014" lon="13.398389948747164"><ele>55.0</ele><time>2026-04-18T13:26:04.999Z</time></trkpt><trkpt lat="45.96593856500345" lon="13.398369788372971"><ele>55.0</ele><time>2026-04-18T13:26:05.999Z</time></trkpt><trkpt lat="45.96571915361455" lon="13.398346250338907"><ele>55.0</ele><time>2026-04-18T13:26:06.999Z</time></trkpt><trkpt lat="45.96550938276567" lon="13.398320375085385"><ele>55.0</ele><time>2026-04-18T13:26:07.999Z</time></trkpt><trkpt lat="45.96531127157086" lon="13.398285836120078"><ele>55.0</ele><time>2026-04-18T13:26:08.999Z</time></trkpt><trkpt lat="45.9651172303474" lon="13.398241254209541"><ele>55.0</ele><time>2026-04-18T13:26:09.999Z</time></trkpt><trkpt lat="45.96491835420124" lon="13.398175772180519"><ele>55.0</ele><time>2026-04-18T13:26:10.999Z</time></trkpt><trkpt lat="45.96471617405921" lon="13.39808944652354"><ele>55.0</ele><time>2026-04-18T13:26:11.999Z</time></trkpt><trkpt lat="45.96450980750532" lon="13.397996680491657"><ele>55.0</ele><time>2026-04-18T13:26:12.999Z</time></trkpt><trkpt lat="45.964307097447666" lon="13.397908725091282"><ele>55.0</ele><time>2026-04-18T13:26:13.999Z</time></trkpt><trkpt lat="45.96410558844692" lon="13.39782092311828"><ele>55.0</ele><time>2026-04-18T13:26:14.999Z</time></trkpt><trkpt lat="45.96390559071151" lon="13.397731593638312"><ele>55.0</ele><time>2026-04-18T13:26:15.999Z</time></trkpt><trkpt lat="45.96371047439228" lon="13.397645296297515"><ele>55.0</ele><time>2026-04-18T13:26:16.999Z</time></trkpt><trkpt lat="45.96352040699581" lon="13.397558112131833"><ele>55.0</ele><time>2026-04-18T13:26:17.999Z</time></trkpt><trkpt lat="45.96332962648318" lon="13.397473714028765"><ele>55.0</ele><time>2026-04-18T13:26:18.999Z</time></trkpt><trkpt lat="45.96313671173328" lon="13.39739407461483"><ele>54.666666666666664</ele><time>2026-04-18T13:26:19.999Z</time></trkpt><trkpt lat="45.9629451212046" lon="13.397323678250856"><ele>54.33333333333333</ele><time>2026-04-18T13:26:20.999Z</time></trkpt><trkpt lat="45.96275459488902" lon="13.397264354699324"><ele>54.0</ele><time>2026-04-18T13:26:21.999Z</time></trkpt><trkpt lat="45.96256443086382" lon="13.397209154803338"><ele>54.0</ele><time>2026-04-18T13:26:22.999Z</time></trkpt><trkpt lat="45.96237670613283" lon="13.3971540716324"><ele>54.0</ele><time>2026-04-18T13:26:23.999Z</time></trkpt><trkpt lat="45.96218922714459" lon="13.397102576647203"><ele>54.0</ele><time>2026-04-18T13:26:24.999Z</time></trkpt><trkpt lat="45.96199878136874" lon="13.397053767941522"><ele>54.0</ele><time>2026-04-18T13:26:25.999Z</time></trkpt><trkpt lat="45.96180989462694" lon="13.397004984439159"><ele>54.0</ele><time>2026-04-18T13:26:26.999Z</time></trkpt><trkpt lat="45.9616377990453" lon="13.396957616755119"><ele>54.0</ele><time>2026-04-18T13:26:27.999Z</time></trkpt><trkpt lat="45.961485633438414" lon="13.396916591507418"><ele>53.75</ele><time>2026-04-18T13:26:28.999Z</time></trkpt><trkpt lat="45.961347873820785" lon="13.39687793300631"><ele>53.5</ele><time>2026-04-18T13:26:29.999Z</time></trkpt><trkpt lat="45.96122501004862" lon="13.396844177008013"><ele>53.25</ele><time>2026-04-18T13:26:30.999Z</time></trkpt><trkpt lat="45.96110951253851" lon="13.39681138717803"><ele>53.0</ele><time>2026-04-18T13:26:31.999Z</time></trkpt><trkpt lat="45.961002487117206" lon="13.396782734482914"><ele>53.00000000000001</ele><time>2026-04-18T13:26:32.999Z</time></trkpt><trkpt lat="45.96090555618321" lon="13.396754857437088"><ele>53.0</ele><time>2026-04-18T13:26:33.999Z</time></trkpt><trkpt lat="45.960824686020494" lon="13.396732398617516"><ele>53.0</ele><time>2026-04-18T13:26:34.999Z</time></trkpt><trkpt lat="45.96076086889523" lon="13.396715044747149"><ele>53.0</ele><time>2026-04-18T13:26:35.999Z</time></trkpt><trkpt lat="45.960650347312594" lon="13.39668639169098"><ele>53.00000000000001</ele><time>2026-04-18T13:26:37.999Z</time></trkpt><trkpt lat="45.96058131433186" lon="13.39666838832885"><ele>53.0</ele><time>2026-04-18T13:26:38.999Z</time></trkpt><trkpt lat="45.960502754349804" lon="13.39665136778566"><ele>52.4</ele><time>2026-04-18T13:26:39.999Z</time></trkpt><trkpt lat="45.960415719827004" lon="13.39663238929817"><ele>51.8</ele><time>2026-04-18T13:26:40.999Z</time></trkpt><trkpt lat="45.960315012755935" lon="13.39660778149868"><ele>51.2</ele><time>2026-04-18T13:26:41.999Z</time></trkpt><trkpt lat="45.960196149651985" lon="13.396576958099468"><ele>50.6</ele><time>2026-04-18T13:26:42.999Z</time></trkpt><trkpt lat="45.9600630747384" lon="13.396539952660257"><ele>50.0</ele><time>2026-04-18T13:26:43.999Z</time></trkpt><trkpt lat="45.95991778148348" lon="13.396500709943332"><ele>49.333333333333336</ele><time>2026-04-18T13:26:44.999Z</time></trkpt><trkpt lat="45.95976286707057" lon="13.396452813468736"><ele>48.66666666666667</ele><time>2026-04-18T13:26:45.999Z</time></trkpt><trkpt lat="45.959598720888074" lon="13.396403095098513"><ele>48.0</ele><time>2026-04-18T13:26:46.999Z</time></trkpt><trkpt lat="45.95942961155744" lon="13.396352575758444"><ele>48.66666666666667</ele><time>2026-04-18T13:26:47.999Z</time></trkpt><trkpt lat="45.95925817666139" lon="13.396304456157429"><ele>49.333333333333336</ele><time>2026-04-18T13:26:49Z</time></trkpt><trkpt lat="45.95906867570728" lon="13.396251600489052"><ele>50.0</ele><time>2026-04-18T13:26:50Z</time></trkpt><trkpt lat="45.958866913681916" lon="13.396186474831218"><ele>50.333333333333336</ele><time>2026-04-18T13:26:51Z</time></trkpt><trkpt lat="45.95865856458028" lon="13.396118184560017"><ele>50.66666666666667</ele><time>2026-04-18T13:26:52Z</time></trkpt><trkpt lat="45.958441947982124" lon="13.396050621044642"><ele>51.0</ele><time>2026-04-18T13:26:53Z</time></trkpt><trkpt lat="45.95822009955772" lon="13.395978769053185"><ele>52.0</ele><time>2026-04-18T13:26:54Z</time></trkpt><trkpt lat="45.957993437707195" lon="13.395900990200534"><ele>53.0</ele><time>2026-04-18T13:26:55Z</time></trkpt><trkpt lat="45.95775978935694" lon="13.395819977266006"><ele>52.0</ele><time>2026-04-18T13:26:56Z</time></trkpt><trkpt lat="45.95752003432258" lon="13.395739710118312"><ele>51.0</ele><time>2026-04-18T13:26:57Z</time></trkpt><trkpt lat="45.9572776836221" lon="13.39565615125863"><ele>51.0</ele><time>2026-04-18T13:26:58Z</time></trkpt><trkpt lat="45.9570271238767" lon="13.395571053356973"><ele>51.0</ele><time>2026-04-18T13:26:59Z</time></trkpt><trkpt lat="45.95677070795291" lon="13.395484788725598"><ele>50.0</ele><time>2026-04-18T13:27:00Z</time></trkpt><trkpt lat="45.956509930162596" lon="13.395398905069932"><ele>49.0</ele><time>2026-04-18T13:27:01Z</time></trkpt><trkpt lat="45.95624553122513" lon="13.395312100790512"><ele>49.0</ele><time>2026-04-18T13:27:02Z</time></trkpt><trkpt lat="45.95597873465216" lon="13.395225345861903"><ele>49.0</ele><time>2026-04-18T13:27:03Z</time></trkpt><trkpt lat="45.95571365281237" lon="13.395139693488023"><ele>50.0</ele><time>2026-04-18T13:27:04Z</time></trkpt><trkpt lat="45.955449533882096" lon="13.3950515860969"><ele>51.0</ele><time>2026-04-18T13:27:05Z</time></trkpt><trkpt lat="45.95518374364571" lon="13.394959872064197"><ele>50.0</ele><time>2026-04-18T13:27:06Z</time></trkpt><trkpt lat="45.954921335214266" lon="13.394872749768544"><ele>49.0</ele><time>2026-04-18T13:27:07Z</time></trkpt><trkpt lat="45.954663404544945" lon="13.394789524469996"><ele>49.0</ele><time>2026-04-18T13:27:08Z</time></trkpt><trkpt lat="45.95441175669614" lon="13.394706250689504"><ele>49.0</ele><time>2026-04-18T13:27:09Z</time></trkpt><trkpt lat="45.95417167844999" lon="13.3946280944031"><ele>49.0</ele><time>2026-04-18T13:27:10Z</time></trkpt><trkpt lat="45.95394989730614" lon="13.394555602152742"><ele>49.0</ele><time>2026-04-18T13:27:11Z</time></trkpt><trkpt lat="45.953740551834024" lon="13.39448619704746"><ele>49.0</ele><time>2026-04-18T13:27:12Z</time></trkpt><trkpt lat="45.95353490950191" lon="13.394416391770655"><ele>47.666666666666664</ele><time>2026-04-18T13:27:13Z</time></trkpt><trkpt lat="45.95332340693721" lon="13.394348022799848"><ele>46.33333333333333</ele><time>2026-04-18T13:27:14Z</time></trkpt><trkpt lat="45.95310892688771" lon="13.394290056971434"><ele>45.0</ele><time>2026-04-18T13:27:15Z</time></trkpt><trkpt lat="45.952888501899714" lon="13.3942479165124"><ele>45.0</ele><time>2026-04-18T13:27:16Z</time></trkpt><trkpt lat="45.952659916075866" lon="13.394230694353029"><ele>45.0</ele><time>2026-04-18T13:27:17Z</time></trkpt><trkpt lat="45.95241706754048" lon="13.394237901162812"><ele>47.0</ele><time>2026-04-18T13:27:18Z</time></trkpt><trkpt lat="45.95216283630376" lon="13.394269713428638"><ele>49.0</ele><time>2026-04-18T13:27:19Z</time></trkpt><trkpt lat="45.9518956487768" lon="13.394326220760865"><ele>48.0</ele><time>2026-04-18T13:27:20Z</time></trkpt><trkpt lat="45.951615209147356" lon="13.394380149331948"><ele>47.0</ele><time>2026-04-18T13:27:21Z</time></trkpt><trkpt lat="45.951328021826654" lon="13.394432405290333"><ele>47.0</ele><time>2026-04-18T13:27:22Z</time></trkpt><trkpt lat="45.9510381258081" lon="13.394482217036977"><ele>47.0</ele><time>2026-04-18T13:27:23Z</time></trkpt><trkpt lat="45.950743942245275" lon="13.39453068613793"><ele>46.5</ele><time>2026-04-18T13:27:24Z</time></trkpt><trkpt lat="45.95044405451867" lon="13.39458137069582"><ele>46.0</ele><time>2026-04-18T13:27:25Z</time></trkpt><trkpt lat="45.950140021045854" lon="13.394634423912605"><ele>46.0</ele><time>2026-04-18T13:27:26Z</time></trkpt><trkpt lat="45.94984005298091" lon="13.3946895620156"><ele>46.0</ele><time>2026-04-18T13:27:27Z</time></trkpt><trkpt lat="45.94954736320056" lon="13.394745266494775"><ele>46.0</ele><time>2026-04-18T13:27:28Z</time></trkpt><trkpt lat="45.949265819872075" lon="13.394799347613858"><ele>46.0</ele><time>2026-04-18T13:27:29Z</time></trkpt><trkpt lat="45.94900465541374" lon="13.394849742990626"><ele>45.5</ele><time>2026-04-18T13:27:30Z</time></trkpt><trkpt lat="45.9487505372028" lon="13.39489365088755"><ele>45.0</ele><time>2026-04-18T13:27:31Z</time></trkpt><trkpt lat="45.94849389403833" lon="13.394920633716687"><ele>45.5</ele><time>2026-04-18T13:27:32Z</time></trkpt><trkpt lat="45.948235188383244" lon="13.394922756844423"><ele>46.0</ele><time>2026-04-18T13:27:33Z</time></trkpt><trkpt lat="45.9479737059706" lon="13.394900955097665"><ele>46.0</ele><time>2026-04-18T13:27:34Z</time></trkpt><trkpt lat="45.947713188807796" lon="13.394864625281194"><ele>46.0</ele><time>2026-04-18T13:27:35Z</time></trkpt><trkpt lat="45.94746386077665" lon="13.39482675039445"><ele>46.5</ele><time>2026-04-18T13:27:36Z</time></trkpt><trkpt lat="45.9472330047688" lon="13.394791555249004"><ele>47.0</ele><time>2026-04-18T13:27:37Z</time></trkpt><trkpt lat="45.94701297038889" lon="13.394758881491036"><ele>47.0</ele><time>2026-04-18T13:27:38Z</time></trkpt><trkpt lat="45.94681188224895" lon="13.394728469637496"><ele>47.0</ele><time>2026-04-18T13:27:39Z</time></trkpt><trkpt lat="45.94662455958698" lon="13.394699307569187"><ele>47.0</ele><time>2026-04-18T13:27:40Z</time></trkpt><trkpt lat="45.94645235958643" lon="13.394673799374258"><ele>46.33333333333333</ele><time>2026-04-18T13:27:41Z</time></trkpt><trkpt lat="45.94628953702019" lon="13.39464395075083"><ele>45.666666666666664</ele><time>2026-04-18T13:27:42Z</time></trkpt><trkpt lat="45.94612325819926" lon="13.394609324049425"><ele>45.0</ele><time>2026-04-18T13:27:43Z</time></trkpt><trkpt lat="45.945954120365606" lon="13.394568331639963"><ele>45.333333333333336</ele><time>2026-04-18T13:27:44Z</time></trkpt><trkpt lat="45.945785883340186" lon="13.3945161539092"><ele>45.66666666666667</ele><time>2026-04-18T13:27:45Z</time></trkpt><trkpt lat="45.94561656749472" lon="13.394461271579624"><ele>46.0</ele><time>2026-04-18T13:27:46Z</time></trkpt><trkpt lat="45.945449522411145" lon="13.394392144648988"><ele>46.0</ele><time>2026-04-18T13:27:47Z</time></trkpt><trkpt lat="45.945280460064616" lon="13.394307848728802"><ele>46.0</ele><time>2026-04-18T13:27:48Z</time></trkpt><trkpt lat="45.9451039196926" lon="13.394216914585888"><ele>46.0</ele><time>2026-04-18T13:27:49Z</time></trkpt><trkpt lat="45.94492596740627" lon="13.394127993078797"><ele>45.66666666666667</ele><time>2026-04-18T13:27:50Z</time></trkpt><trkpt lat="45.944737513113" lon="13.394047886347156"><ele>45.333333333333336</ele><time>2026-04-18T13:27:51Z</time></trkpt><trkpt lat="45.94454804815794" lon="13.3939499164324"><ele>45.0</ele><time>2026-04-18T13:27:52Z</time></trkpt><trkpt lat="45.94435601973596" lon="13.393833378592499"><ele>44.666666666666664</ele><time>2026-04-18T13:27:53Z</time></trkpt><trkpt lat="45.94415497280962" lon="13.393716518489276"><ele>44.33333333333333</ele><time>2026-04-18T13:27:53.999Z</time></trkpt><trkpt lat="45.94394619913789" lon="13.393599576797788"><ele>44.0</ele><time>2026-04-18T13:27:54.999Z</time></trkpt><trkpt lat="45.94373147035646" lon="13.393478361961492"><ele>44.0</ele><time>2026-04-18T13:27:55.999Z</time></trkpt><trkpt lat="45.94351423748037" lon="13.393353274309536"><ele>44.0</ele><time>2026-04-18T13:27:56.999Z</time></trkpt><trkpt lat="45.94329346913647" lon="13.393227749489917"><ele>44.5</ele><time>2026-04-18T13:27:57.999Z</time></trkpt><trkpt lat="45.94307233166058" lon="13.393100433421454"><ele>45.0</ele><time>2026-04-18T13:27:58.999Z</time></trkpt><trkpt lat="45.94285792962377" lon="13.392976444372371"><ele>45.0</ele><time>2026-04-18T13:27:59.999Z</time></trkpt><trkpt lat="45.94264684413278" lon="13.39285641847971"><ele>45.0</ele><time>2026-04-18T13:28:00.999Z</time></trkpt><trkpt lat="45.94243585620225" lon="13.392738108842572"><ele>45.0</ele><time>2026-04-18T13:28:01.999Z</time></trkpt><trkpt lat="45.942228245173716" lon="13.392619230024396"><ele>45.0</ele><time>2026-04-18T13:28:02.999Z</time></trkpt><trkpt lat="45.94202522297615" lon="13.392502913462321"><ele>45.0</ele><time>2026-04-18T13:28:03.999Z</time></trkpt><trkpt lat="45.94182639487803" lon="13.392390201055912"><ele>44.666666666666664</ele><time>2026-04-18T13:28:04.999Z</time></trkpt><trkpt lat="45.9416284995558" lon="13.392277620673244"><ele>44.33333333333333</ele><time>2026-04-18T13:28:05.999Z</time></trkpt><trkpt lat="45.941433416728565" lon="13.392162296786847"><ele>44.0</ele><time>2026-04-18T13:28:06.999Z</time></trkpt><trkpt lat="45.94123383772187" lon="13.392049577086713"><ele>43.666666666666664</ele><time>2026-04-18T13:28:07.999Z</time></trkpt><trkpt lat="45.94103001237396" lon="13.391939420723435"><ele>43.333333333333336</ele><time>2026-04-18T13:28:08.999Z</time></trkpt><trkpt lat="45.94082256372615" lon="13.39183067075404"><ele>43.0</ele><time>2026-04-18T13:28:09.999Z</time></trkpt><trkpt lat="45.94061264619481" lon="13.391731523594286"><ele>42.66666666666667</ele><time>2026-04-18T13:28:10.999Z</time></trkpt><trkpt lat="45.940402385755284" lon="13.391650582031868"><ele>42.333333333333336</ele><time>2026-04-18T13:28:11.999Z</time></trkpt><trkpt lat="45.94019265868741" lon="13.391578784799197"><ele>42.0</ele><time>2026-04-18T13:28:12.999Z</time></trkpt><trkpt lat="45.939987049929904" lon="13.391516789406328"><ele>41.666666666666664</ele><time>2026-04-18T13:28:13.999Z</time></trkpt><trkpt lat="45.93978586407725" lon="13.391463344498451"><ele>41.33333333333333</ele><time>2026-04-18T13:28:14.999Z</time></trkpt><trkpt lat="45.939591671672986" lon="13.391416167981804"><ele>41.0</ele><time>2026-04-18T13:28:15.999Z</time></trkpt><trkpt lat="45.939400170047016" lon="13.391369062149138"><ele>41.0</ele><time>2026-04-18T13:28:16.999Z</time></trkpt><trkpt lat="45.93921905542959" lon="13.391296542993576"><ele>41.0</ele><time>2026-04-18T13:28:17.999Z</time></trkpt><trkpt lat="45.939034012502155" lon="13.391272693201035"><ele>41.0</ele><time>2026-04-18T13:28:18.999Z</time></trkpt><trkpt lat="45.93884811935671" lon="13.391225111886882"><ele>41.0</ele><time>2026-04-18T13:28:19.999Z</time></trkpt><trkpt lat="45.93866337553517" lon="13.391157120985476"><ele>41.0</ele><time>2026-04-18T13:28:20.999Z</time></trkpt><trkpt lat="45.93847403231929" lon="13.391108570724692"><ele>41.0</ele><time>2026-04-18T13:28:21.999Z</time></trkpt><trkpt lat="45.93827960867365" lon="13.39105809489795"><ele>41.33333333333333</ele><time>2026-04-18T13:28:22.999Z</time></trkpt><trkpt lat="45.93808031831983" lon="13.391006573011472"><ele>41.666666666666664</ele><time>2026-04-18T13:28:23.999Z</time></trkpt><trkpt lat="45.93787475264951" lon="13.390953448030862"><ele>42.0</ele><time>2026-04-18T13:28:24.999Z</time></trkpt><trkpt lat="45.93766533598031" lon="13.390899913180514"><ele>41.0</ele><time>2026-04-18T13:28:25.999Z</time></trkpt><trkpt lat="45.9374597407727" lon="13.390848305261077"><ele>40.0</ele><time>2026-04-18T13:28:26.999Z</time></trkpt><trkpt lat="45.93725761064319" lon="13.390797567141407"><ele>39.0</ele><time>2026-04-18T13:28:27.999Z</time></trkpt><trkpt lat="45.93705898211304" lon="13.390745510307331"><ele>39.0</ele><time>2026-04-18T13:28:28.999Z</time></trkpt><trkpt lat="45.93686323839132" lon="13.390694214789425"><ele>39.0</ele><time>2026-04-18T13:28:29.999Z</time></trkpt><trkpt lat="45.936669260719555" lon="13.39066622265005"><ele>39.0</ele><time>2026-04-18T13:28:30.999Z</time></trkpt><trkpt lat="45.93647966040923" lon="13.390616856993956"><ele>38.666666666666664</ele><time>2026-04-18T13:28:31.999Z</time></trkpt><trkpt lat="45.93629136189412" lon="13.390567355847276"><ele>38.33333333333333</ele><time>2026-04-18T13:28:32.999Z</time></trkpt><trkpt lat="45.9361022456179" lon="13.390521610641846"><ele>38.0</ele><time>2026-04-18T13:28:33.999Z</time></trkpt><trkpt lat="45.935915540790795" lon="13.390477755281552"><ele>38.33333333333333</ele><time>2026-04-18T13:28:34.999Z</time></trkpt><trkpt lat="45.93572830485904" lon="13.390432507902625"><ele>38.666666666666664</ele><time>2026-04-18T13:28:35.999Z</time></trkpt><trkpt lat="45.93554139405017" lon="13.390382216676644"><ele>39.0</ele><time>2026-04-18T13:28:36.999Z</time></trkpt><trkpt lat="45.93535364900136" lon="13.390331427674399"><ele>39.0</ele><time>2026-04-18T13:28:37.999Z</time></trkpt><trkpt lat="45.93516495843981" lon="13.390282713375367"><ele>39.0</ele><time>2026-04-18T13:28:38.999Z</time></trkpt><trkpt lat="45.93497754610315" lon="13.390235300003878"><ele>39.0</ele><time>2026-04-18T13:28:39.999Z</time></trkpt><trkpt lat="45.93478883403971" lon="13.390188892467236"><ele>38.666666666666664</ele><time>2026-04-18T13:28:40.999Z</time></trkpt><trkpt lat="45.93460156227255" lon="13.39014017455988"><ele>38.33333333333333</ele><time>2026-04-18T13:28:41.999Z</time></trkpt><trkpt lat="45.93441394272242" lon="13.390091806283488"><ele>38.0</ele><time>2026-04-18T13:28:42.999Z</time></trkpt><trkpt lat="45.93422796045302" lon="13.39004484965401"><ele>37.33333333333333</ele><time>2026-04-18T13:28:43.999Z</time></trkpt><trkpt lat="45.934042702781056" lon="13.389994543976988"><ele>36.666666666666664</ele><time>2026-04-18T13:28:44.999Z</time></trkpt><trkpt lat="45.93385651769274" lon="13.38994378528755"><ele>36.0</ele><time>2026-04-18T13:28:45.999Z</time></trkpt><trkpt lat="45.93367044210864" lon="13.389894573081682"><ele>36.0</ele><time>2026-04-18T13:28:46.999Z</time></trkpt><trkpt lat="45.93348365465065" lon="13.389839350670737"><ele>36.0</ele><time>2026-04-18T13:28:47.999Z</time></trkpt><trkpt lat="45.93329634336121" lon="13.389775280386475"><ele>36.0</ele><time>2026-04-18T13:28:48.999Z</time></trkpt><trkpt lat="45.933109043755564" lon="13.38969273972732"><ele>36.0</ele><time>2026-04-18T13:28:49.999Z</time></trkpt><trkpt lat="45.93292549635987" lon="13.389589243574784"><ele>36.0</ele><time>2026-04-18T13:28:50.999Z</time></trkpt><trkpt lat="45.93273966825531" lon="13.389480644253162"><ele>36.0</ele><time>2026-04-18T13:28:51.999Z</time></trkpt><trkpt lat="45.932550452709954" lon="13.389368417970639"><ele>36.333333333333336</ele><time>2026-04-18T13:28:52.999Z</time></trkpt><trkpt lat="45.93235817487777" lon="13.389258621586096"><ele>36.66666666666667</ele><time>2026-04-18T13:28:53.999Z</time></trkpt><trkpt lat="45.93216525196697" lon="13.389144709405638"><ele>37.0</ele><time>2026-04-18T13:28:55Z</time></trkpt><trkpt lat="45.931984468944925" lon="13.389043061827612"><ele>37.0</ele><time>2026-04-18T13:28:56Z</time></trkpt><trkpt lat="45.931815543856814" lon="13.388947850725003"><ele>37.0</ele><time>2026-04-18T13:28:57Z</time></trkpt><trkpt lat="45.93165656304455" lon="13.388858949885835"><ele>37.0</ele><time>2026-04-18T13:28:58Z</time></trkpt><trkpt lat="45.93150364008676" lon="13.388771659980977"><ele>37.0</ele><time>2026-04-18T13:28:59Z</time></trkpt><trkpt lat="45.93134737541257" lon="13.38868214264287"><ele>37.0</ele><time>2026-04-18T13:29:00Z</time></trkpt><trkpt lat="45.931192166242894" lon="13.388590618539414"><ele>37.0</ele><time>2026-04-18T13:29:01Z</time></trkpt><trkpt lat="45.931043073300735" lon="13.388496026884901"><ele>37.0</ele><time>2026-04-18T13:29:02Z</time></trkpt><trkpt lat="45.93090338169439" lon="13.38839889180919"><ele>37.0</ele><time>2026-04-18T13:29:03Z</time></trkpt><trkpt lat="45.930771484212684" lon="13.388283746093784"><ele>37.0</ele><time>2026-04-18T13:29:04Z</time></trkpt><trkpt lat="45.93064351511591" lon="13.388148138705889"><ele>36.66666666666667</ele><time>2026-04-18T13:29:05Z</time></trkpt><trkpt lat="45.93052109693217" lon="13.387992648778642"><ele>36.333333333333336</ele><time>2026-04-18T13:29:06Z</time></trkpt><trkpt lat="45.93040881597591" lon="13.387820646382282"><ele>36.0</ele><time>2026-04-18T13:29:07Z</time></trkpt><trkpt lat="45.930306306111234" lon="13.387627836343047"><ele>36.0</ele><time>2026-04-18T13:29:08Z</time></trkpt><trkpt lat="45.930210125131225" lon="13.387423621382863"><ele>36.0</ele><time>2026-04-18T13:29:09Z</time></trkpt><trkpt lat="45.93011979280235" lon="13.38725090032134"><ele>36.0</ele><time>2026-04-18T13:29:10Z</time></trkpt><trkpt lat="45.9300444288891" lon="13.387106044384211"><ele>36.0</ele><time>2026-04-18T13:29:11Z</time></trkpt><trkpt lat="45.92998030975549" lon="13.38697722444979"><ele>35.8</ele><time>2026-04-18T13:29:12Z</time></trkpt><trkpt lat="45.92991855001545" lon="13.386854855338466"><ele>35.6</ele><time>2026-04-18T13:29:13Z</time></trkpt><trkpt lat="45.92986001198299" lon="13.386741853934577"><ele>35.4</ele><time>2026-04-18T13:29:14Z</time></trkpt><trkpt lat="45.92980224601711" lon="13.38662548119753"><ele>35.2</ele><time>2026-04-18T13:29:15Z</time></trkpt><trkpt lat="45.929736898419634" lon="13.386490005330234"><ele>35.0</ele><time>2026-04-18T13:29:16Z</time></trkpt><trkpt lat="45.929661378815375" lon="13.386335527334033"><ele>35.666666666666664</ele><time>2026-04-18T13:29:17Z</time></trkpt><trkpt lat="45.929580375205674" lon="13.386161383159653"><ele>36.333333333333336</ele><time>2026-04-18T13:29:18Z</time></trkpt><trkpt lat="45.929493300797155" lon="13.385975303030465"><ele>37.0</ele><time>2026-04-18T13:29:19Z</time></trkpt><trkpt lat="45.92939681172813" lon="13.38578142013493"><ele>37.0</ele><time>2026-04-18T13:29:20Z</time></trkpt><trkpt lat="45.929296864463254" lon="13.385579827771972"><ele>37.0</ele><time>2026-04-18T13:29:21Z</time></trkpt><trkpt lat="45.92919157804213" lon="13.385365612273663"><ele>37.0</ele><time>2026-04-18T13:29:22Z</time></trkpt><trkpt lat="45.92908084121976" lon="13.385147069285606"><ele>36.66666666666667</ele><time>2026-04-18T13:29:23Z</time></trkpt><trkpt lat="45.928972388643416" lon="13.384938402480154"><ele>36.333333333333336</ele><time>2026-04-18T13:29:24Z</time></trkpt><trkpt lat="45.92886478915397" lon="13.384732324545732"><ele>36.0</ele><time>2026-04-18T13:29:25Z</time></trkpt><trkpt lat="45.92875903213748" lon="13.384530190306561"><ele>36.0</ele><time>2026-04-18T13:29:26Z</time></trkpt><trkpt lat="45.928660615888816" lon="13.384345823285637"><ele>36.0</ele><time>2026-04-18T13:29:27Z</time></trkpt><trkpt lat="45.92856148956744" lon="13.38416733645017"><ele>36.0</ele><time>2026-04-18T13:29:28Z</time></trkpt><trkpt lat="45.92846608495176" lon="13.384001791586536"><ele>36.0</ele><time>2026-04-18T13:29:29Z</time></trkpt><trkpt lat="45.92837960129714" lon="13.383861020026039"><ele>36.0</ele><time>2026-04-18T13:29:30Z</time></trkpt><trkpt lat="45.928302476901784" lon="13.383736809051792"><ele>36.0</ele><time>2026-04-18T13:29:31Z</time></trkpt><trkpt lat="45.92824158582096" lon="13.383613212846749"><ele>36.0</ele><time>2026-04-18T13:29:32Z</time></trkpt><trkpt lat="45.92820528391594" lon="13.383495943289592"><ele>36.0</ele><time>2026-04-18T13:29:33Z</time></trkpt><trkpt lat="45.92818931378974" lon="13.38335903495754"><ele>36.0</ele><time>2026-04-18T13:29:34Z</time></trkpt><trkpt lat="45.92820189000123" lon="13.383202649908982"><ele>36.0</ele><time>2026-04-18T13:29:35Z</time></trkpt><trkpt lat="45.928189505642564" lon="13.38307903512411"><ele>36.0</ele><time>2026-04-18T13:29:36Z</time></trkpt><trkpt lat="45.928133967291295" lon="13.382964232644115"><ele>36.0</ele><time>2026-04-18T13:29:37Z</time></trkpt><trkpt lat="45.92804282112458" lon="13.382879852091559"><ele>36.0</ele><time>2026-04-18T13:29:38Z</time></trkpt><trkpt lat="45.9279147993549" lon="13.382801404257139"><ele>35.666666666666664</ele><time>2026-04-18T13:29:39Z</time></trkpt><trkpt lat="45.9277932877065" lon="13.382667506413178"><ele>35.33333333333333</ele><time>2026-04-18T13:29:40Z</time></trkpt><trkpt lat="45.92767643549274" lon="13.382498663949756"><ele>35.0</ele><time>2026-04-18T13:29:41Z</time></trkpt><trkpt lat="45.92753880087818" lon="13.382247826588909"><ele>34.5</ele><time>2026-04-18T13:29:42Z</time></trkpt><trkpt lat="45.927353668515416" lon="13.381951473309018"><ele>34.0</ele><time>2026-04-18T13:29:43Z</time></trkpt><trkpt lat="45.92713338456939" lon="13.381633724850216"><ele>34.5</ele><time>2026-04-18T13:29:44Z</time></trkpt><trkpt lat="45.92694341841467" lon="13.381295703634695"><ele>35.0</ele><time>2026-04-18T13:29:45Z</time></trkpt><trkpt lat="45.92674910080551" lon="13.380994795608625"><ele>35.5</ele><time>2026-04-18T13:29:46Z</time></trkpt><trkpt lat="45.92657398259888" lon="13.380723706530256"><ele>36.0</ele><time>2026-04-18T13:29:47Z</time></trkpt><trkpt lat="45.926406224437464" lon="13.380464011036995"><ele>35.333333333333336</ele><time>2026-04-18T13:29:48Z</time></trkpt><trkpt lat="45.926248425521855" lon="13.38021973273654"><ele>34.66666666666667</ele><time>2026-04-18T13:29:49Z</time></trkpt><trkpt lat="45.92610423184201" lon="13.379996515882945"><ele>34.0</ele><time>2026-04-18T13:29:50Z</time></trkpt><trkpt lat="45.925970286003945" lon="13.379789163020588"><ele>34.333333333333336</ele><time>2026-04-18T13:29:51Z</time></trkpt><trkpt lat="45.92583459908863" lon="13.37957911489894"><ele>34.666666666666664</ele><time>2026-04-18T13:29:52Z</time></trkpt><trkpt lat="45.925700523171486" lon="13.379371560676832"><ele>35.0</ele><time>2026-04-18T13:29:53Z</time></trkpt><trkpt lat="45.925553373722394" lon="13.379143768167456"><ele>35.0</ele><time>2026-04-18T13:29:54Z</time></trkpt><trkpt lat="45.92539025858962" lon="13.378891563749082"><ele>35.0</ele><time>2026-04-18T13:29:55Z</time></trkpt><trkpt lat="45.92518370631126" lon="13.378573121264981"><ele>35.0</ele><time>2026-04-18T13:29:56Z</time></trkpt><trkpt lat="45.924948327684014" lon="13.37821023687356"><ele>35.0</ele><time>2026-04-18T13:29:57Z</time></trkpt><trkpt lat="45.92469131735664" lon="13.377814017665154"><ele>35.5</ele><time>2026-04-18T13:29:58Z</time></trkpt><trkpt lat="45.92442803812357" lon="13.377408138137778"><ele>36.0</ele><time>2026-04-18T13:29:59Z</time></trkpt><trkpt lat="45.924174876291396" lon="13.377017857670053"><ele>36.0</ele><time>2026-04-18T13:30:00Z</time></trkpt><trkpt lat="45.92393634311887" lon="13.37665366799712"><ele>36.0</ele><time>2026-04-18T13:30:01Z</time></trkpt><trkpt lat="45.92371497600412" lon="13.376317696895683"><ele>36.5</ele><time>2026-04-18T13:30:02Z</time></trkpt><trkpt lat="45.92350901620346" lon="13.376005109637058"><ele>37.0</ele><time>2026-04-18T13:30:03Z</time></trkpt><trkpt lat="45.923316182356004" lon="13.375712443817408"><ele>35.5</ele><time>2026-04-18T13:30:04Z</time></trkpt><trkpt lat="45.92313736473563" lon="13.375441050491919"><ele>34.0</ele><time>2026-04-18T13:30:05Z</time></trkpt><trkpt lat="45.92296841111758" lon="13.375188568286735"><ele>34.0</ele><time>2026-04-18T13:30:06Z</time></trkpt><trkpt lat="45.92281006543189" lon="13.374952199844653"><ele>34.0</ele><time>2026-04-18T13:30:07Z</time></trkpt><trkpt lat="45.92266087114641" lon="13.374729475213416"><ele>34.0</ele><time>2026-04-18T13:30:08Z</time></trkpt><trkpt lat="45.92251774115476" lon="13.374515803647148"><ele>33.333333333333336</ele><time>2026-04-18T13:30:08.999Z</time></trkpt><trkpt lat="45.92238294213761" lon="13.374314568943328"><ele>32.666666666666664</ele><time>2026-04-18T13:30:09.999Z</time></trkpt><trkpt lat="45.92225653414487" lon="13.374128420221759"><ele>32.0</ele><time>2026-04-18T13:30:10.999Z</time></trkpt><trkpt lat="45.922133809480705" lon="13.37396236160624"><ele>32.25</ele><time>2026-04-18T13:30:11.999Z</time></trkpt><trkpt lat="45.92202261309316" lon="13.373817348967197"><ele>32.5</ele><time>2026-04-18T13:30:12.999Z</time></trkpt><trkpt lat="45.921923639247176" lon="13.37368827611958"><ele>32.75</ele><time>2026-04-18T13:30:13.999Z</time></trkpt><trkpt lat="45.921829659477915" lon="13.373582297751629"><ele>33.0</ele><time>2026-04-18T13:30:14.999Z</time></trkpt><trkpt lat="45.921750902030674" lon="13.37346569805388"><ele>32.8</ele><time>2026-04-18T13:30:15.999Z</time></trkpt><trkpt lat="45.92170972148535" lon="13.373325118553547"><ele>32.599999999999994</ele><time>2026-04-18T13:30:16.999Z</time></trkpt><trkpt lat="45.921685480295466" lon="13.373200121464007"><ele>32.400000000000006</ele><time>2026-04-18T13:30:17.999Z</time></trkpt><trkpt lat="45.921647097365714" lon="13.373104285976913"><ele>32.2</ele><time>2026-04-18T13:30:18.999Z</time></trkpt><trkpt lat="45.92159693171904" lon="13.3730179311461"><ele>32.0</ele><time>2026-04-18T13:30:19.999Z</time></trkpt><trkpt lat="45.92149817162822" lon="13.373001143320554"><ele>32.0</ele><time>2026-04-18T13:30:20.999Z</time></trkpt><trkpt lat="45.92140902202644" lon="13.373043232559992"><ele>32.0</ele><time>2026-04-18T13:30:21.999Z</time></trkpt><trkpt lat="45.92135891779518" lon="13.373176251431332"><ele>32.0</ele><time>2026-04-18T13:30:22.999Z</time></trkpt><trkpt lat="45.921304002374384" lon="13.373284284876434"><ele>32.0</ele><time>2026-04-18T13:30:23.999Z</time></trkpt><trkpt lat="45.921236894226915" lon="13.37339039534342"><ele>32.0</ele><time>2026-04-18T13:30:24.999Z</time></trkpt><trkpt lat="45.9211481447012" lon="13.373488096701072"><ele>32.0</ele><time>2026-04-18T13:30:25.999Z</time></trkpt><trkpt lat="45.92104549389965" lon="13.373599082555945"><ele>32.0</ele><time>2026-04-18T13:30:26.999Z</time></trkpt><trkpt lat="45.92092305076529" lon="13.373708815728328"><ele>32.0</ele><time>2026-04-18T13:30:27.999Z</time></trkpt><trkpt lat="45.92078107212838" lon="13.373827138020696"><ele>32.0</ele><time>2026-04-18T13:30:28.999Z</time></trkpt><trkpt lat="45.92062398984961" lon="13.373961858602517"><ele>32.0</ele><time>2026-04-18T13:30:29.999Z</time></trkpt><trkpt lat="45.920457722130294" lon="13.374109846107478"><ele>32.0</ele><time>2026-04-18T13:30:30.999Z</time></trkpt><trkpt lat="45.92029343205475" lon="13.374276940777106"><ele>32.0</ele><time>2026-04-18T13:30:31.999Z</time></trkpt><trkpt lat="45.920107395325395" lon="13.374427176428302"><ele>31.5</ele><time>2026-04-18T13:30:32.999Z</time></trkpt><trkpt lat="45.919871769866866" lon="13.374666062557987"><ele>31.0</ele><time>2026-04-18T13:30:33.999Z</time></trkpt><trkpt lat="45.919635648874866" lon="13.374937365364977"><ele>31.0</ele><time>2026-04-18T13:30:34.999Z</time></trkpt><trkpt lat="45.919440433832236" lon="13.3751419714802"><ele>31.0</ele><time>2026-04-18T13:30:35.999Z</time></trkpt><trkpt lat="45.91925451916866" lon="13.375325061273932"><ele>31.0</ele><time>2026-04-18T13:30:36.999Z</time></trkpt><trkpt lat="45.919071355779536" lon="13.37549060129882"><ele>31.0</ele><time>2026-04-18T13:30:37.999Z</time></trkpt><trkpt lat="45.91888374473488" lon="13.375637215131492"><ele>31.0</ele><time>2026-04-18T13:30:38.999Z</time></trkpt><trkpt lat="45.91868632225901" lon="13.375725624654816"><ele>31.333333333333336</ele><time>2026-04-18T13:30:39.999Z</time></trkpt><trkpt lat="45.9184923123428" lon="13.375797601038995"><ele>31.666666666666664</ele><time>2026-04-18T13:30:40.999Z</time></trkpt><trkpt lat="45.91829907729309" lon="13.37585833602204"><ele>32.0</ele><time>2026-04-18T13:30:41.999Z</time></trkpt><trkpt lat="45.918094945723496" lon="13.37589823623091"><ele>32.0</ele><time>2026-04-18T13:30:42.999Z</time></trkpt><trkpt lat="45.91788378824549" lon="13.375941657519682"><ele>32.0</ele><time>2026-04-18T13:30:43.999Z</time></trkpt><trkpt lat="45.9176679304311" lon="13.375984983990948"><ele>32.0</ele><time>2026-04-18T13:30:44.999Z</time></trkpt><trkpt lat="45.91745056750819" lon="13.376026467736422"><ele>31.333333333333332</ele><time>2026-04-18T13:30:45.999Z</time></trkpt><trkpt lat="45.917241114895795" lon="13.376063720170459"><ele>30.666666666666664</ele><time>2026-04-18T13:30:46.999Z</time></trkpt><trkpt lat="45.91704038294525" lon="13.37609917894266"><ele>30.0</ele><time>2026-04-18T13:30:47.999Z</time></trkpt><trkpt lat="45.91684362308604" lon="13.376125807504957"><ele>31.0</ele><time>2026-04-18T13:30:48.999Z</time></trkpt><trkpt lat="45.91665349054255" lon="13.376145721743098"><ele>32.0</ele><time>2026-04-18T13:30:49.999Z</time></trkpt><trkpt lat="45.916469888710886" lon="13.376156568950082"><ele>33.0</ele><time>2026-04-18T13:30:50.999Z</time></trkpt><trkpt lat="45.91629474024734" lon="13.376161722462037"><ele>33.0</ele><time>2026-04-18T13:30:51.999Z</time></trkpt><trkpt lat="45.9161240048489" lon="13.376166047991848"><ele>33.0</ele><time>2026-04-18T13:30:52.999Z</time></trkpt><trkpt lat="45.9159573538718" lon="13.376170390079759"><ele>33.0</ele><time>2026-04-18T13:30:53.999Z</time></trkpt><trkpt lat="45.91579157957208" lon="13.376179226388077"><ele>33.333333333333336</ele><time>2026-04-18T13:30:54.999Z</time></trkpt><trkpt lat="45.91562152399356" lon="13.376170572192871"><ele>33.66666666666667</ele><time>2026-04-18T13:30:55.999Z</time></trkpt><trkpt lat="45.91545193499951" lon="13.376196207636706"><ele>34.0</ele><time>2026-04-18T13:30:56.999Z</time></trkpt><trkpt lat="45.91528440600117" lon="13.376248963638018"><ele>34.0</ele><time>2026-04-18T13:30:57.999Z</time></trkpt><trkpt lat="45.91511692642315" lon="13.376278576916397"><ele>34.0</ele><time>2026-04-18T13:30:58.999Z</time></trkpt><trkpt lat="45.91495193587535" lon="13.37630711309751"><ele>34.0</ele><time>2026-04-18T13:31:00Z</time></trkpt><trkpt lat="45.91479071194721" lon="13.376331007774837"><ele>33.66666666666667</ele><time>2026-04-18T13:31:01Z</time></trkpt><trkpt lat="45.9146297855863" lon="13.37636093197968"><ele>33.333333333333336</ele><time>2026-04-18T13:31:02Z</time></trkpt><trkpt lat="45.914468827749495" lon="13.376394545429099"><ele>33.0</ele><time>2026-04-18T13:31:03Z</time></trkpt><trkpt lat="45.914307467250936" lon="13.376430794716551"><ele>33.0</ele><time>2026-04-18T13:31:04Z</time></trkpt><trkpt lat="45.91415054778175" lon="13.376476256913538"><ele>33.0</ele><time>2026-04-18T13:31:05Z</time></trkpt><trkpt lat="45.91398828205745" lon="13.376512408460032"><ele>33.0</ele><time>2026-04-18T13:31:06Z</time></trkpt><trkpt lat="45.9138310841491" lon="13.376578523463802"><ele>33.0</ele><time>2026-04-18T13:31:07Z</time></trkpt><trkpt lat="45.91368395926111" lon="13.37667535206989"><ele>33.0</ele><time>2026-04-18T13:31:08Z</time></trkpt><trkpt lat="45.913527724727324" lon="13.376730506031858"><ele>33.0</ele><time>2026-04-18T13:31:09Z</time></trkpt><trkpt lat="45.91336923993928" lon="13.376775736124566"><ele>33.333333333333336</ele><time>2026-04-18T13:31:10Z</time></trkpt><trkpt lat="45.913211492559824" lon="13.376832521631473"><ele>33.66666666666667</ele><time>2026-04-18T13:31:11Z</time></trkpt><trkpt lat="45.913046443743035" lon="13.376892864245288"><ele>34.0</ele><time>2026-04-18T13:31:12Z</time></trkpt><trkpt lat="45.91290175089035" lon="13.377051790663367"><ele>33.66666666666667</ele><time>2026-04-18T13:31:13Z</time></trkpt><trkpt lat="45.912739289411725" lon="13.377190764400419"><ele>33.333333333333336</ele><time>2026-04-18T13:31:14Z</time></trkpt><trkpt lat="45.91259391635839" lon="13.377370124311186"><ele>33.0</ele><time>2026-04-18T13:31:15Z</time></trkpt><trkpt lat="45.91243592008795" lon="13.377529837262951"><ele>32.666666666666664</ele><time>2026-04-18T13:31:16Z</time></trkpt><trkpt lat="45.91227834375586" lon="13.377693753209245"><ele>32.33333333333333</ele><time>2026-04-18T13:31:17Z</time></trkpt><trkpt lat="45.912113787676276" lon="13.377831081023979"><ele>32.0</ele><time>2026-04-18T13:31:18Z</time></trkpt><trkpt lat="45.91196258916117" lon="13.37799023735533"><ele>31.666666666666664</ele><time>2026-04-18T13:31:19Z</time></trkpt><trkpt lat="45.91181105461353" lon="13.378142804984062"><ele>31.333333333333336</ele><time>2026-04-18T13:31:20Z</time></trkpt><trkpt lat="45.91165180416605" lon="13.378286359584898"><ele>31.0</ele><time>2026-04-18T13:31:21Z</time></trkpt><trkpt lat="45.91148333106113" lon="13.378416645705522"><ele>31.0</ele><time>2026-04-18T13:31:22Z</time></trkpt><trkpt lat="45.91130057486786" lon="13.378515932684586"><ele>31.0</ele><time>2026-04-18T13:31:23Z</time></trkpt><trkpt lat="45.91110801119855" lon="13.378616518523936"><ele>31.0</ele><time>2026-04-18T13:31:24Z</time></trkpt><trkpt lat="45.91089765318463" lon="13.378667213159856"><ele>30.5</ele><time>2026-04-18T13:31:25Z</time></trkpt><trkpt lat="45.91067608689141" lon="13.378690889627853"><ele>30.0</ele><time>2026-04-18T13:31:26Z</time></trkpt><trkpt lat="45.91044585404357" lon="13.378660031752256"><ele>30.0</ele><time>2026-04-18T13:31:27Z</time></trkpt><trkpt lat="45.91021071506833" lon="13.378641272152622"><ele>30.0</ele><time>2026-04-18T13:31:28Z</time></trkpt><trkpt lat="45.90996835482498" lon="13.378643149699425"><ele>29.0</ele><time>2026-04-18T13:31:29Z</time></trkpt><trkpt lat="45.90972884847878" lon="13.3786367020732"><ele>28.0</ele><time>2026-04-18T13:31:30Z</time></trkpt><trkpt lat="45.90949255770829" lon="13.378645954201762"><ele>28.0</ele><time>2026-04-18T13:31:31Z</time></trkpt><trkpt lat="45.90926307191042" lon="13.378661873308403"><ele>28.0</ele><time>2026-04-18T13:31:32Z</time></trkpt><trkpt lat="45.909041160756395" lon="13.378680335457647"><ele>28.333333333333336</ele><time>2026-04-18T13:31:33Z</time></trkpt><trkpt lat="45.908826256078626" lon="13.378707766305102"><ele>28.666666666666664</ele><time>2026-04-18T13:31:34Z</time></trkpt><trkpt lat="45.90861752585459" lon="13.378745507803453"><ele>29.0</ele><time>2026-04-18T13:31:35Z</time></trkpt><trkpt lat="45.90841275059844" lon="13.378763161961286"><ele>29.0</ele><time>2026-04-18T13:31:36Z</time></trkpt><trkpt lat="45.90820540238837" lon="13.378808140579014"><ele>29.0</ele><time>2026-04-18T13:31:37Z</time></trkpt><trkpt lat="45.90798370709505" lon="13.37887074541899"><ele>29.0</ele><time>2026-04-18T13:31:38Z</time></trkpt><trkpt lat="45.90773163856367" lon="13.378960264317314"><ele>29.0</ele><time>2026-04-18T13:31:39Z</time></trkpt><trkpt lat="45.9074464664758" lon="13.379075627489634"><ele>29.0</ele><time>2026-04-18T13:31:40Z</time></trkpt><trkpt lat="45.90713173516324" lon="13.379203701005823"><ele>29.0</ele><time>2026-04-18T13:31:41Z</time></trkpt><trkpt lat="45.90678679266277" lon="13.379329437540164"><ele>29.0</ele><time>2026-04-18T13:31:42Z</time></trkpt><trkpt lat="45.906413604650275" lon="13.37937004411926"><ele>29.0</ele><time>2026-04-18T13:31:43Z</time></trkpt><trkpt lat="45.90603310669442" lon="13.379436461629735"><ele>29.0</ele><time>2026-04-18T13:31:44Z</time></trkpt><trkpt lat="45.90566631872619" lon="13.37947368016165"><ele>28.5</ele><time>2026-04-18T13:31:45Z</time></trkpt><trkpt lat="45.905313356944596" lon="13.379517942587931"><ele>28.0</ele><time>2026-04-18T13:31:46Z</time></trkpt><trkpt lat="45.90497499422591" lon="13.379563833563768"><ele>27.0</ele><time>2026-04-18T13:31:47Z</time></trkpt><trkpt lat="45.90464799487831" lon="13.379610954323045"><ele>26.0</ele><time>2026-04-18T13:31:48Z</time></trkpt><trkpt lat="45.904331801301225" lon="13.379662552907249"><ele>26.5</ele><time>2026-04-18T13:31:49Z</time></trkpt><trkpt lat="45.90402363065177" lon="13.37972299903117"><ele>27.0</ele><time>2026-04-18T13:31:50Z</time></trkpt><trkpt lat="45.903724421801066" lon="13.379791726462045"><ele>27.0</ele><time>2026-04-18T13:31:51Z</time></trkpt><trkpt lat="45.90343338997546" lon="13.37986050432788"><ele>27.0</ele><time>2026-04-18T13:31:52Z</time></trkpt><trkpt lat="45.903147722257984" lon="13.379923376435515"><ele>27.0</ele><time>2026-04-18T13:31:53Z</time></trkpt><trkpt lat="45.90286681080131" lon="13.37998039269378"><ele>27.0</ele><time>2026-04-18T13:31:54Z</time></trkpt><trkpt lat="45.90259306906176" lon="13.380038621091543"><ele>26.5</ele><time>2026-04-18T13:31:55Z</time></trkpt><trkpt lat="45.902325678088324" lon="13.380094242986312"><ele>26.0</ele><time>2026-04-18T13:31:56Z</time></trkpt><trkpt lat="45.902064081199185" lon="13.380148286278828"><ele>26.0</ele><time>2026-04-18T13:31:57Z</time></trkpt><trkpt lat="45.901808665490805" lon="13.380198767976799"><ele>26.0</ele><time>2026-04-18T13:31:58Z</time></trkpt><trkpt lat="45.90156256750518" lon="13.380243858118641"><ele>25.5</ele><time>2026-04-18T13:31:59Z</time></trkpt><trkpt lat="45.901328395145455" lon="13.380281260126843"><ele>25.0</ele><time>2026-04-18T13:32:00Z</time></trkpt><trkpt lat="45.9011054413075" lon="13.380311521633237"><ele>25.333333333333336</ele><time>2026-04-18T13:32:01Z</time></trkpt><trkpt lat="45.90089486680744" lon="13.380338914410089"><ele>25.666666666666664</ele><time>2026-04-18T13:32:02Z</time></trkpt><trkpt lat="45.900699302245116" lon="13.380365158850806"><ele>26.0</ele><time>2026-04-18T13:32:03Z</time></trkpt><trkpt lat="45.900516632070975" lon="13.380389575728557"><ele>26.0</ele><time>2026-04-18T13:32:04Z</time></trkpt><trkpt lat="45.90035196305436" lon="13.380412676764571"><ele>26.0</ele><time>2026-04-18T13:32:05Z</time></trkpt><trkpt lat="45.9001948573055" lon="13.380433874884693"><ele>26.0</ele><time>2026-04-18T13:32:05.999Z</time></trkpt><trkpt lat="45.90003595108753" lon="13.380457969034712"><ele>26.0</ele><time>2026-04-18T13:32:06.999Z</time></trkpt><trkpt lat="45.899878377101224" lon="13.380482376693775"><ele>26.0</ele><time>2026-04-18T13:32:07.999Z</time></trkpt><trkpt lat="45.89972229836314" lon="13.380510396165862"><ele>26.0</ele><time>2026-04-18T13:32:08.999Z</time></trkpt><trkpt lat="45.89956651149617" lon="13.380546093824726"><ele>26.0</ele><time>2026-04-18T13:32:09.999Z</time></trkpt><trkpt lat="45.89941391866776" lon="13.380582482306883"><ele>26.0</ele><time>2026-04-18T13:32:10.999Z</time></trkpt><trkpt lat="45.89926846413547" lon="13.380618802238605"><ele>26.0</ele><time>2026-04-18T13:32:11.999Z</time></trkpt><trkpt lat="45.899129071504085" lon="13.380658843790682"><ele>26.0</ele><time>2026-04-18T13:32:12.999Z</time></trkpt><trkpt lat="45.89899233930582" lon="13.380703930706598"><ele>25.5</ele><time>2026-04-18T13:32:13.999Z</time></trkpt><trkpt lat="45.898854612182355" lon="13.38075306308391"><ele>25.0</ele><time>2026-04-18T13:32:14.999Z</time></trkpt><trkpt lat="45.898713796733034" lon="13.380806260134332"><ele>24.5</ele><time>2026-04-18T13:32:15.999Z</time></trkpt><trkpt lat="45.89857533394378" lon="13.380860571742495"><ele>24.0</ele><time>2026-04-18T13:32:16.999Z</time></trkpt><trkpt lat="45.89843947576149" lon="13.380916576485422"><ele>24.5</ele><time>2026-04-18T13:32:17.999Z</time></trkpt><trkpt lat="45.898305445185315" lon="13.380974487213729"><ele>25.0</ele><time>2026-04-18T13:32:18.999Z</time></trkpt><trkpt lat="45.89817265557576" lon="13.381028741485393"><ele>25.5</ele><time>2026-04-18T13:32:19.999Z</time></trkpt><trkpt lat="45.89803614795941" lon="13.381084238267224"><ele>26.0</ele><time>2026-04-18T13:32:20.999Z</time></trkpt><trkpt lat="45.8978984903942" lon="13.381142727741246"><ele>26.0</ele><time>2026-04-18T13:32:21.999Z</time></trkpt><trkpt lat="45.897758555731734" lon="13.381198308257288"><ele>26.0</ele><time>2026-04-18T13:32:22.999Z</time></trkpt><trkpt lat="45.89761234919782" lon="13.381255467743955"><ele>26.0</ele><time>2026-04-18T13:32:23.999Z</time></trkpt><trkpt lat="45.897462609514534" lon="13.38131833788493"><ele>26.0</ele><time>2026-04-18T13:32:24.999Z</time></trkpt><trkpt lat="45.89730588146524" lon="13.381384596160755"><ele>26.0</ele><time>2026-04-18T13:32:25.999Z</time></trkpt><trkpt lat="45.89714202660542" lon="13.381454185651798"><ele>26.0</ele><time>2026-04-18T13:32:26.999Z</time></trkpt><trkpt lat="45.89697496217306" lon="13.381526959752048"><ele>26.0</ele><time>2026-04-18T13:32:27.999Z</time></trkpt><trkpt lat="45.896812419682306" lon="13.381600274425756"><ele>26.0</ele><time>2026-04-18T13:32:28.999Z</time></trkpt><trkpt lat="45.896650906151095" lon="13.38167380174251"><ele>26.0</ele><time>2026-04-18T13:32:29.999Z</time></trkpt><trkpt lat="45.896502304524454" lon="13.3817450219587"><ele>26.0</ele><time>2026-04-18T13:32:30.999Z</time></trkpt><trkpt lat="45.89636589888268" lon="13.381809111562726"><ele>26.0</ele><time>2026-04-18T13:32:31.999Z</time></trkpt><trkpt lat="45.89624897096896" lon="13.38186105283446"><ele>26.0</ele><time>2026-04-18T13:32:32.999Z</time></trkpt><trkpt lat="45.89614921071671" lon="13.38190332886292"><ele>26.0</ele><time>2026-04-18T13:32:33.999Z</time></trkpt><trkpt lat="45.89606903517166" lon="13.381933716849002"><ele>25.999999999999996</ele><time>2026-04-18T13:32:34.999Z</time></trkpt><trkpt lat="45.89600137381302" lon="13.381953756013328"><ele>26.0</ele><time>2026-04-18T13:32:35.999Z</time></trkpt><trkpt lat="45.895916954256386" lon="13.381961447232893"><ele>26.0</ele><time>2026-04-18T13:32:37.999Z</time></trkpt><trkpt lat="45.895854540043565" lon="13.381978937930848"><ele>26.0</ele><time>2026-04-18T13:32:39.999Z</time></trkpt><trkpt lat="45.89580008589806" lon="13.381814563837583"><ele>25.999999999999996</ele><time>2026-04-18T13:32:43.999Z</time></trkpt><trkpt lat="45.89582568936031" lon="13.381671385542314"><ele>26.0</ele><time>2026-04-18T13:32:45.999Z</time></trkpt><trkpt lat="45.89585409083378" lon="13.38151730935537"><ele>27.0</ele><time>2026-04-18T13:32:47.999Z</time></trkpt><trkpt lat="45.8958812172708" lon="13.381397774059657"><ele>27.0</ele><time>2026-04-18T13:32:49.999Z</time></trkpt><trkpt lat="45.89592077583358" lon="13.381324463392692"><ele>26.0</ele><time>2026-04-18T13:32:51.999Z</time></trkpt><trkpt lat="45.89599986716132" lon="13.381300994396168"><ele>26.0</ele><time>2026-04-18T13:32:53.999Z</time></trkpt><trkpt lat="45.8960688982981" lon="13.381284275238494"><ele>26.0</ele><time>2026-04-18T13:32:55.999Z</time></trkpt><trkpt lat="45.89614990338406" lon="13.381249718568917"><ele>26.0</ele><time>2026-04-18T13:32:58.999Z</time></trkpt></trkseg></trk></gpx>